<?xml version="1.0" encoding="UTF-8" standalone="no" ?>
<gpx xmlns="http://www.topografix.com/GPX/1/1" xmlns:xsi="http://www.w3.org/2001/XMLSchema-instance" xsi:schemaLocation="http://www.topografix.com/GPX/1/1 http://www.topografix.com/GPX/1/1/gpx.xsd" version="1.1" creator="VisuGPX - https://www.visugpx.com">
  <metadata>
    <name>Rondrit Saint-Matré Lauzerte Montcuq Le Boulve langs kleine wegen </name>
  </metadata>
  <trk>
    <name><![CDATA[Rit naar Lauzerte]]></name>
    <trkseg>
      <trkpt lat="44.40439" lon="1.11355">
        <ele>303.794324</ele>
        <time>2022-08-01T06:33:57.657Z</time>
      </trkpt>
      <trkpt lat="44.40427" lon="1.1139">
        <ele>303.794324</ele>
        <time>2022-08-01T06:34:16.494Z</time>
      </trkpt>
      <trkpt lat="44.40421" lon="1.11401">
        <ele>303.794324</ele>
        <time>2022-08-01T06:34:18.473Z</time>
      </trkpt>
      <trkpt lat="44.40413" lon="1.11412">
        <ele>303.794324</ele>
        <time>2022-08-01T06:34:20.492Z</time>
      </trkpt>
      <trkpt lat="44.40403" lon="1.11422">
        <ele>303.794324</ele>
        <time>2022-08-01T06:34:22.484Z</time>
      </trkpt>
      <trkpt lat="44.40391" lon="1.11433">
        <ele>303.794324</ele>
        <time>2022-08-01T06:34:25.483Z</time>
      </trkpt>
      <trkpt lat="44.40379" lon="1.11443">
        <ele>303.794324</ele>
        <time>2022-08-01T06:34:27.466Z</time>
      </trkpt>
      <trkpt lat="44.4037" lon="1.11455">
        <ele>304.046773</ele>
        <time>2022-08-01T06:34:29.503Z</time>
      </trkpt>
      <trkpt lat="44.4036" lon="1.11468">
        <ele>304.333427</ele>
        <time>2022-08-01T06:34:31.489Z</time>
      </trkpt>
      <trkpt lat="44.40351" lon="1.11483">
        <ele>304.63669</ele>
        <time>2022-08-01T06:34:33.515Z</time>
      </trkpt>
      <trkpt lat="44.40339" lon="1.11499">
        <ele>304.994763</ele>
        <time>2022-08-01T06:34:35.524Z</time>
      </trkpt>
      <trkpt lat="44.40329" lon="1.11513">
        <ele>305.296049</ele>
        <time>2022-08-01T06:34:37.493Z</time>
      </trkpt>
      <trkpt lat="44.40321" lon="1.11523">
        <ele>305.528628</ele>
        <time>2022-08-01T06:34:38.490Z</time>
      </trkpt>
      <trkpt lat="44.40313" lon="1.1153">
        <ele>305.729032</ele>
        <time>2022-08-01T06:34:39.492Z</time>
      </trkpt>
      <trkpt lat="44.403" lon="1.11545">
        <ele>306.085505</ele>
        <time>2022-08-01T06:34:41.491Z</time>
      </trkpt>
      <trkpt lat="44.40292" lon="1.11559">
        <ele>306.350652</ele>
        <time>2022-08-01T06:34:43.496Z</time>
      </trkpt>
      <trkpt lat="44.40279" lon="1.11574">
        <ele>306.710332</ele>
        <time>2022-08-01T06:34:45.506Z</time>
      </trkpt>
      <trkpt lat="44.40271" lon="1.11583">
        <ele>306.936924</ele>
        <time>2022-08-01T06:34:46.536Z</time>
      </trkpt>
      <trkpt lat="44.40262" lon="1.11595">
        <ele>307.205361</ele>
        <time>2022-08-01T06:34:48.471Z</time>
      </trkpt>
      <trkpt lat="44.40253" lon="1.11605">
        <ele>307.44305</ele>
        <time>2022-08-01T06:34:50.496Z</time>
      </trkpt>
      <trkpt lat="44.40242" lon="1.11614">
        <ele>307.674106</ele>
        <time>2022-08-01T06:34:52.546Z</time>
      </trkpt>
      <trkpt lat="44.40232" lon="1.11625">
        <ele>307.808756</ele>
        <time>2022-08-01T06:34:54.509Z</time>
      </trkpt>
      <trkpt lat="44.40221" lon="1.11637">
        <ele>307.947021</ele>
        <time>2022-08-01T06:34:56.487Z</time>
      </trkpt>
      <trkpt lat="44.40213" lon="1.11646">
        <ele>308.056188</ele>
        <time>2022-08-01T06:34:58.513Z</time>
      </trkpt>
      <trkpt lat="44.40203" lon="1.11659">
        <ele>308.203998</ele>
        <time>2022-08-01T06:35:01.494Z</time>
      </trkpt>
      <trkpt lat="44.40196" lon="1.11668">
        <ele>308.302389</ele>
        <time>2022-08-01T06:35:03.488Z</time>
      </trkpt>
      <trkpt lat="44.40188" lon="1.11676">
        <ele>308.402827</ele>
        <time>2022-08-01T06:35:05.510Z</time>
      </trkpt>
      <trkpt lat="44.40182" lon="1.11689">
        <ele>308.518326</ele>
        <time>2022-08-01T06:35:08.520Z</time>
      </trkpt>
      <trkpt lat="44.40177" lon="1.117">
        <ele>308.61965</ele>
        <time>2022-08-01T06:35:10.470Z</time>
      </trkpt>
      <trkpt lat="44.4017" lon="1.11711">
        <ele>308.726711</ele>
        <time>2022-08-01T06:35:12.500Z</time>
      </trkpt>
      <trkpt lat="44.40163" lon="1.11723">
        <ele>308.840866</ele>
        <time>2022-08-01T06:35:14.502Z</time>
      </trkpt>
      <trkpt lat="44.40158" lon="1.11734">
        <ele>308.938553</ele>
        <time>2022-08-01T06:35:16.502Z</time>
      </trkpt>
      <trkpt lat="44.40151" lon="1.11745">
        <ele>309.049194</ele>
        <time>2022-08-01T06:35:18.498Z</time>
      </trkpt>
      <trkpt lat="44.40144" lon="1.11756">
        <ele>309.158741</ele>
        <time>2022-08-01T06:35:20.517Z</time>
      </trkpt>
      <trkpt lat="44.40139" lon="1.11767">
        <ele>309.255191</ele>
        <time>2022-08-01T06:35:22.497Z</time>
      </trkpt>
      <trkpt lat="44.40134" lon="1.11778">
        <ele>309.356564</ele>
        <time>2022-08-01T06:35:24.498Z</time>
      </trkpt>
      <trkpt lat="44.40129" lon="1.1179">
        <ele>309.456475</ele>
        <time>2022-08-01T06:35:26.530Z</time>
      </trkpt>
      <trkpt lat="44.40123" lon="1.11804">
        <ele>309.567632</ele>
        <time>2022-08-01T06:35:28.503Z</time>
      </trkpt>
      <trkpt lat="44.40117" lon="1.11819">
        <ele>309.676725</ele>
        <time>2022-08-01T06:35:31.495Z</time>
      </trkpt>
      <trkpt lat="44.4011" lon="1.11834">
        <ele>309.783589</ele>
        <time>2022-08-01T06:35:34.489Z</time>
      </trkpt>
      <trkpt lat="44.40102" lon="1.11849">
        <ele>309.900551</ele>
        <time>2022-08-01T06:35:37.497Z</time>
      </trkpt>
      <trkpt lat="44.40095" lon="1.11863">
        <ele>310.004377</ele>
        <time>2022-08-01T06:35:39.497Z</time>
      </trkpt>
      <trkpt lat="44.4009" lon="1.11877">
        <ele>310.106399</ele>
        <time>2022-08-01T06:35:41.504Z</time>
      </trkpt>
      <trkpt lat="44.40081" lon="1.11897">
        <ele>310.252564</ele>
        <time>2022-08-01T06:35:43.503Z</time>
      </trkpt>
      <trkpt lat="44.40073" lon="1.11914">
        <ele>310.377425</ele>
        <time>2022-08-01T06:35:45.499Z</time>
      </trkpt>
      <trkpt lat="44.40064" lon="1.11931">
        <ele>310.512324</ele>
        <time>2022-08-01T06:35:47.501Z</time>
      </trkpt>
      <trkpt lat="44.40059" lon="1.11944">
        <ele>310.60516</ele>
        <time>2022-08-01T06:35:49.486Z</time>
      </trkpt>
      <trkpt lat="44.40054" lon="1.11961">
        <ele>310.719728</ele>
        <time>2022-08-01T06:35:51.487Z</time>
      </trkpt>
      <trkpt lat="44.40049" lon="1.11978">
        <ele>310.831743</ele>
        <time>2022-08-01T06:35:53.495Z</time>
      </trkpt>
      <trkpt lat="44.40048" lon="1.11991">
        <ele>310.914046</ele>
        <time>2022-08-01T06:35:55.502Z</time>
      </trkpt>
      <trkpt lat="44.40044" lon="1.12007">
        <ele>311.018651</ele>
        <time>2022-08-01T06:35:57.518Z</time>
      </trkpt>
      <trkpt lat="44.4004" lon="1.12021">
        <ele>311.098181</ele>
        <time>2022-08-01T06:35:59.478Z</time>
      </trkpt>
      <trkpt lat="44.40035" lon="1.12036">
        <ele>311.161983</ele>
        <time>2022-08-01T06:36:01.500Z</time>
      </trkpt>
      <trkpt lat="44.40028" lon="1.12056">
        <ele>311.245353</ele>
        <time>2022-08-01T06:36:03.496Z</time>
      </trkpt>
      <trkpt lat="44.40023" lon="1.12073">
        <ele>311.31632</ele>
        <time>2022-08-01T06:36:05.486Z</time>
      </trkpt>
      <trkpt lat="44.40014" lon="1.12085">
        <ele>311.381969</ele>
        <time>2022-08-01T06:36:07.496Z</time>
      </trkpt>
      <trkpt lat="44.40004" lon="1.12096">
        <ele>311.454447</ele>
        <time>2022-08-01T06:36:09.491Z</time>
      </trkpt>
      <trkpt lat="44.39995" lon="1.12106">
        <ele>311.515566</ele>
        <time>2022-08-01T06:36:11.498Z</time>
      </trkpt>
      <trkpt lat="44.39983" lon="1.12117">
        <ele>311.588858</ele>
        <time>2022-08-01T06:36:13.525Z</time>
      </trkpt>
      <trkpt lat="44.39972" lon="1.12128">
        <ele>311.660154</ele>
        <time>2022-08-01T06:36:15.493Z</time>
      </trkpt>
      <trkpt lat="44.39961" lon="1.12139">
        <ele>311.732341</ele>
        <time>2022-08-01T06:36:17.494Z</time>
      </trkpt>
      <trkpt lat="44.39951" lon="1.1215">
        <ele>311.803081</ele>
        <time>2022-08-01T06:36:19.536Z</time>
      </trkpt>
      <trkpt lat="44.39939" lon="1.12162">
        <ele>311.883154</ele>
        <time>2022-08-01T06:36:21.490Z</time>
      </trkpt>
      <trkpt lat="44.39929" lon="1.12174">
        <ele>311.951322</ele>
        <time>2022-08-01T06:36:23.466Z</time>
      </trkpt>
      <trkpt lat="44.39919" lon="1.12185">
        <ele>312.022193</ele>
        <time>2022-08-01T06:36:25.532Z</time>
      </trkpt>
      <trkpt lat="44.39905" lon="1.12198">
        <ele>311.928792</ele>
        <time>2022-08-01T06:36:27.502Z</time>
      </trkpt>
      <trkpt lat="44.39894" lon="1.1221">
        <ele>311.814477</ele>
        <time>2022-08-01T06:36:29.503Z</time>
      </trkpt>
      <trkpt lat="44.39881" lon="1.12222">
        <ele>311.683304</ele>
        <time>2022-08-01T06:36:31.518Z</time>
      </trkpt>
      <trkpt lat="44.39869" lon="1.12235">
        <ele>311.558673</ele>
        <time>2022-08-01T06:36:33.492Z</time>
      </trkpt>
      <trkpt lat="44.39859" lon="1.12248">
        <ele>311.441909</ele>
        <time>2022-08-01T06:36:35.471Z</time>
      </trkpt>
      <trkpt lat="44.39845" lon="1.12259">
        <ele>311.307438</ele>
        <time>2022-08-01T06:36:37.530Z</time>
      </trkpt>
      <trkpt lat="44.39835" lon="1.12271">
        <ele>311.196224</ele>
        <time>2022-08-01T06:36:39.492Z</time>
      </trkpt>
      <trkpt lat="44.39823" lon="1.12284">
        <ele>311.071518</ele>
        <time>2022-08-01T06:36:41.488Z</time>
      </trkpt>
      <trkpt lat="44.39812" lon="1.12298">
        <ele>310.944601</ele>
        <time>2022-08-01T06:36:43.522Z</time>
      </trkpt>
      <trkpt lat="44.39801" lon="1.1231">
        <ele>310.830523</ele>
        <time>2022-08-01T06:36:45.494Z</time>
      </trkpt>
      <trkpt lat="44.39789" lon="1.12319">
        <ele>310.71326</ele>
        <time>2022-08-01T06:36:47.518Z</time>
      </trkpt>
      <trkpt lat="44.39778" lon="1.12329">
        <ele>310.608769</ele>
        <time>2022-08-01T06:36:49.534Z</time>
      </trkpt>
      <trkpt lat="44.39767" lon="1.1234">
        <ele>310.579414</ele>
        <time>2022-08-01T06:36:51.497Z</time>
      </trkpt>
      <trkpt lat="44.39756" lon="1.1235">
        <ele>310.682404</ele>
        <time>2022-08-01T06:36:53.490Z</time>
      </trkpt>
      <trkpt lat="44.39744" lon="1.1236">
        <ele>310.78646</ele>
        <time>2022-08-01T06:36:55.535Z</time>
      </trkpt>
      <trkpt lat="44.39735" lon="1.12371">
        <ele>310.877581</ele>
        <time>2022-08-01T06:36:57.502Z</time>
      </trkpt>
      <trkpt lat="44.39726" lon="1.12381">
        <ele>310.971208</ele>
        <time>2022-08-01T06:36:59.494Z</time>
      </trkpt>
      <trkpt lat="44.39715" lon="1.12391">
        <ele>311.070737</ele>
        <time>2022-08-01T06:37:01.554Z</time>
      </trkpt>
      <trkpt lat="44.39706" lon="1.124">
        <ele>311.15537</ele>
        <time>2022-08-01T06:37:03.494Z</time>
      </trkpt>
      <trkpt lat="44.39698" lon="1.12409">
        <ele>311.236074</ele>
        <time>2022-08-01T06:37:05.502Z</time>
      </trkpt>
      <trkpt lat="44.39689" lon="1.1242">
        <ele>311.328385</ele>
        <time>2022-08-01T06:37:07.524Z</time>
      </trkpt>
      <trkpt lat="44.3968" lon="1.12429">
        <ele>311.416107</ele>
        <time>2022-08-01T06:37:09.481Z</time>
      </trkpt>
      <trkpt lat="44.39672" lon="1.12436">
        <ele>311.490234</ele>
        <time>2022-08-01T06:37:10.503Z</time>
      </trkpt>
      <trkpt lat="44.39659" lon="1.12446">
        <ele>311.599506</ele>
        <time>2022-08-01T06:37:12.492Z</time>
      </trkpt>
      <trkpt lat="44.39651" lon="1.12455">
        <ele>311.680886</ele>
        <time>2022-08-01T06:37:14.499Z</time>
      </trkpt>
      <trkpt lat="44.39643" lon="1.12462">
        <ele>311.757661</ele>
        <time>2022-08-01T06:37:16.490Z</time>
      </trkpt>
      <trkpt lat="44.39633" lon="1.12468">
        <ele>311.838258</ele>
        <time>2022-08-01T06:37:18.510Z</time>
      </trkpt>
      <trkpt lat="44.39622" lon="1.12476">
        <ele>311.929082</ele>
        <time>2022-08-01T06:37:20.493Z</time>
      </trkpt>
      <trkpt lat="44.39614" lon="1.12483">
        <ele>311.741646</ele>
        <time>2022-08-01T06:37:22.505Z</time>
      </trkpt>
      <trkpt lat="44.39602" lon="1.1249">
        <ele>311.496892</ele>
        <time>2022-08-01T06:37:24.502Z</time>
      </trkpt>
      <trkpt lat="44.39591" lon="1.12497">
        <ele>311.267797</ele>
        <time>2022-08-01T06:37:27.496Z</time>
      </trkpt>
      <trkpt lat="44.39579" lon="1.12501">
        <ele>311.020735</ele>
        <time>2022-08-01T06:37:30.517Z</time>
      </trkpt>
      <trkpt lat="44.39568" lon="1.12504">
        <ele>310.816932</ele>
        <time>2022-08-01T06:37:33.515Z</time>
      </trkpt>
      <trkpt lat="44.39558" lon="1.12506">
        <ele>310.613631</ele>
        <time>2022-08-01T06:37:35.492Z</time>
      </trkpt>
      <trkpt lat="44.39548" lon="1.12508">
        <ele>310.411425</ele>
        <time>2022-08-01T06:37:37.517Z</time>
      </trkpt>
      <trkpt lat="44.39535" lon="1.12512">
        <ele>310.166114</ele>
        <time>2022-08-01T06:37:40.504Z</time>
      </trkpt>
      <trkpt lat="44.39526" lon="1.12514">
        <ele>309.986507</ele>
        <time>2022-08-01T06:37:42.479Z</time>
      </trkpt>
      <trkpt lat="44.39517" lon="1.12515">
        <ele>309.808423</ele>
        <time>2022-08-01T06:37:44.487Z</time>
      </trkpt>
      <trkpt lat="44.39507" lon="1.12518">
        <ele>309.628075</ele>
        <time>2022-08-01T06:37:46.496Z</time>
      </trkpt>
      <trkpt lat="44.39498" lon="1.1252">
        <ele>309.437871</ele>
        <time>2022-08-01T06:37:48.490Z</time>
      </trkpt>
      <trkpt lat="44.39488" lon="1.12522">
        <ele>309.243776</ele>
        <time>2022-08-01T06:37:50.478Z</time>
      </trkpt>
      <trkpt lat="44.39478" lon="1.12526">
        <ele>309.051677</ele>
        <time>2022-08-01T06:37:52.476Z</time>
      </trkpt>
      <trkpt lat="44.39469" lon="1.12528">
        <ele>308.867289</ele>
        <time>2022-08-01T06:37:54.492Z</time>
      </trkpt>
      <trkpt lat="44.39457" lon="1.12532">
        <ele>308.645837</ele>
        <time>2022-08-01T06:37:56.496Z</time>
      </trkpt>
      <trkpt lat="44.39446" lon="1.12536">
        <ele>308.411748</ele>
        <time>2022-08-01T06:37:58.487Z</time>
      </trkpt>
      <trkpt lat="44.39435" lon="1.1254">
        <ele>308.174289</ele>
        <time>2022-08-01T06:38:00.491Z</time>
      </trkpt>
      <trkpt lat="44.39425" lon="1.12543">
        <ele>307.965679</ele>
        <time>2022-08-01T06:38:02.493Z</time>
      </trkpt>
      <trkpt lat="44.39414" lon="1.12547">
        <ele>307.718919</ele>
        <time>2022-08-01T06:38:04.495Z</time>
      </trkpt>
      <trkpt lat="44.39403" lon="1.12553">
        <ele>307.472443</ele>
        <time>2022-08-01T06:38:06.528Z</time>
      </trkpt>
      <trkpt lat="44.39392" lon="1.12559">
        <ele>307.226295</ele>
        <time>2022-08-01T06:38:08.499Z</time>
      </trkpt>
      <trkpt lat="44.39383" lon="1.12569">
        <ele>306.996323</ele>
        <time>2022-08-01T06:38:10.496Z</time>
      </trkpt>
      <trkpt lat="44.39374" lon="1.12581">
        <ele>306.728988</ele>
        <time>2022-08-01T06:38:12.521Z</time>
      </trkpt>
      <trkpt lat="44.39365" lon="1.12592">
        <ele>306.469156</ele>
        <time>2022-08-01T06:38:14.482Z</time>
      </trkpt>
      <trkpt lat="44.39356" lon="1.12602">
        <ele>306.235965</ele>
        <time>2022-08-01T06:38:16.496Z</time>
      </trkpt>
      <trkpt lat="44.39345" lon="1.12614">
        <ele>305.939599</ele>
        <time>2022-08-01T06:38:18.513Z</time>
      </trkpt>
      <trkpt lat="44.39333" lon="1.12623">
        <ele>305.654155</ele>
        <time>2022-08-01T06:38:20.494Z</time>
      </trkpt>
      <trkpt lat="44.39321" lon="1.12634">
        <ele>305.348084</ele>
        <time>2022-08-01T06:38:22.526Z</time>
      </trkpt>
      <trkpt lat="44.39312" lon="1.1264">
        <ele>305.142227</ele>
        <time>2022-08-01T06:38:23.498Z</time>
      </trkpt>
      <trkpt lat="44.393" lon="1.12653">
        <ele>304.837121</ele>
        <time>2022-08-01T06:38:25.490Z</time>
      </trkpt>
      <trkpt lat="44.39288" lon="1.12665">
        <ele>304.577395</ele>
        <time>2022-08-01T06:38:27.497Z</time>
      </trkpt>
      <trkpt lat="44.39278" lon="1.12681">
        <ele>304.351524</ele>
        <time>2022-08-01T06:38:29.502Z</time>
      </trkpt>
      <trkpt lat="44.39274" lon="1.12693">
        <ele>304.216825</ele>
        <time>2022-08-01T06:38:30.535Z</time>
      </trkpt>
      <trkpt lat="44.39268" lon="1.12705">
        <ele>304.066393</ele>
        <time>2022-08-01T06:38:31.484Z</time>
      </trkpt>
      <trkpt lat="44.39264" lon="1.12729">
        <ele>303.800269</ele>
        <time>2022-08-01T06:38:33.507Z</time>
      </trkpt>
      <trkpt lat="44.39265" lon="1.12755">
        <ele>303.537542</ele>
        <time>2022-08-01T06:38:35.489Z</time>
      </trkpt>
      <trkpt lat="44.39269" lon="1.12777">
        <ele>303.295485</ele>
        <time>2022-08-01T06:38:37.499Z</time>
      </trkpt>
      <trkpt lat="44.39269" lon="1.1279">
        <ele>303.160779</ele>
        <time>2022-08-01T06:38:38.498Z</time>
      </trkpt>
      <trkpt lat="44.3927" lon="1.12803">
        <ele>303.018928</ele>
        <time>2022-08-01T06:38:39.494Z</time>
      </trkpt>
      <trkpt lat="44.3927" lon="1.12818">
        <ele>302.868417</ele>
        <time>2022-08-01T06:38:40.483Z</time>
      </trkpt>
      <trkpt lat="44.3927" lon="1.12833">
        <ele>302.713845</ele>
        <time>2022-08-01T06:38:41.499Z</time>
      </trkpt>
      <trkpt lat="44.39271" lon="1.12845">
        <ele>302.580866</ele>
        <time>2022-08-01T06:38:42.512Z</time>
      </trkpt>
      <trkpt lat="44.39282" lon="1.12864">
        <ele>302.324394</ele>
        <time>2022-08-01T06:38:44.499Z</time>
      </trkpt>
      <trkpt lat="44.39287" lon="1.12886">
        <ele>302.08967</ele>
        <time>2022-08-01T06:38:46.491Z</time>
      </trkpt>
      <trkpt lat="44.39283" lon="1.12898">
        <ele>302.775226</ele>
        <time>2022-08-01T06:38:47.489Z</time>
      </trkpt>
      <trkpt lat="44.39282" lon="1.12912">
        <ele>303.704647</ele>
        <time>2022-08-01T06:38:48.523Z</time>
      </trkpt>
      <trkpt lat="44.3928" lon="1.12926">
        <ele>304.609009</ele>
        <time>2022-08-01T06:38:49.499Z</time>
      </trkpt>
      <trkpt lat="44.39276" lon="1.12938">
        <ele>305.413161</ele>
        <time>2022-08-01T06:38:50.502Z</time>
      </trkpt>
      <trkpt lat="44.39266" lon="1.12938">
        <ele>306.338043</ele>
        <time>2022-08-01T06:38:51.497Z</time>
      </trkpt>
      <trkpt lat="44.39254" lon="1.12947">
        <ele>307.504839</ele>
        <time>2022-08-01T06:38:53.471Z</time>
      </trkpt>
      <trkpt lat="44.39245" lon="1.12959">
        <ele>308.602171</ele>
        <time>2022-08-01T06:38:55.493Z</time>
      </trkpt>
      <trkpt lat="44.39234" lon="1.12969">
        <ele>309.767759</ele>
        <time>2022-08-01T06:38:57.481Z</time>
      </trkpt>
      <trkpt lat="44.39223" lon="1.1298">
        <ele>310.926406</ele>
        <time>2022-08-01T06:38:59.477Z</time>
      </trkpt>
      <trkpt lat="44.39212" lon="1.1299">
        <ele>312.089218</ele>
        <time>2022-08-01T06:39:01.496Z</time>
      </trkpt>
      <trkpt lat="44.39201" lon="1.13003">
        <ele>313.409054</ele>
        <time>2022-08-01T06:39:03.491Z</time>
      </trkpt>
      <trkpt lat="44.39191" lon="1.13011">
        <ele>314.346898</ele>
        <time>2022-08-01T06:39:06.507Z</time>
      </trkpt>
      <trkpt lat="44.3918" lon="1.1302">
        <ele>315.482183</ele>
        <time>2022-08-01T06:39:08.479Z</time>
      </trkpt>
      <trkpt lat="44.39169" lon="1.13025">
        <ele>316.50369</ele>
        <time>2022-08-01T06:39:10.499Z</time>
      </trkpt>
      <trkpt lat="44.39157" lon="1.13031">
        <ele>317.624035</ele>
        <time>2022-08-01T06:39:12.518Z</time>
      </trkpt>
      <trkpt lat="44.39149" lon="1.13036">
        <ele>318.131408</ele>
        <time>2022-08-01T06:39:14.506Z</time>
      </trkpt>
      <trkpt lat="44.39138" lon="1.13044">
        <ele>318.611541</ele>
        <time>2022-08-01T06:39:17.494Z</time>
      </trkpt>
      <trkpt lat="44.39128" lon="1.1305">
        <ele>319.020716</ele>
        <time>2022-08-01T06:39:19.468Z</time>
      </trkpt>
      <trkpt lat="44.3912" lon="1.13059">
        <ele>319.400582</ele>
        <time>2022-08-01T06:39:21.484Z</time>
      </trkpt>
      <trkpt lat="44.3911" lon="1.13069">
        <ele>319.865086</ele>
        <time>2022-08-01T06:39:23.483Z</time>
      </trkpt>
      <trkpt lat="44.39103" lon="1.13079">
        <ele>320.244009</ele>
        <time>2022-08-01T06:39:25.490Z</time>
      </trkpt>
      <trkpt lat="44.39093" lon="1.13091">
        <ele>320.757546</ele>
        <time>2022-08-01T06:39:28.507Z</time>
      </trkpt>
      <trkpt lat="44.39086" lon="1.13106">
        <ele>321.230868</ele>
        <time>2022-08-01T06:39:30.486Z</time>
      </trkpt>
      <trkpt lat="44.39078" lon="1.13124">
        <ele>321.806927</ele>
        <time>2022-08-01T06:39:32.489Z</time>
      </trkpt>
      <trkpt lat="44.39073" lon="1.13135">
        <ele>322.174343</ele>
        <time>2022-08-01T06:39:34.505Z</time>
      </trkpt>
      <trkpt lat="44.39065" lon="1.13149">
        <ele>322.650681</ele>
        <time>2022-08-01T06:39:36.485Z</time>
      </trkpt>
      <trkpt lat="44.39062" lon="1.13163">
        <ele>323.047707</ele>
        <time>2022-08-01T06:39:38.496Z</time>
      </trkpt>
      <trkpt lat="44.39058" lon="1.13175">
        <ele>323.389903</ele>
        <time>2022-08-01T06:39:40.484Z</time>
      </trkpt>
      <trkpt lat="44.39052" lon="1.13185">
        <ele>323.741245</ele>
        <time>2022-08-01T06:39:43.505Z</time>
      </trkpt>
      <trkpt lat="44.39041" lon="1.13198">
        <ele>324.298799</ele>
        <time>2022-08-01T06:39:46.490Z</time>
      </trkpt>
      <trkpt lat="44.3903" lon="1.13208">
        <ele>324.666565</ele>
        <time>2022-08-01T06:39:49.473Z</time>
      </trkpt>
      <trkpt lat="44.3902" lon="1.13216">
        <ele>324.255366</ele>
        <time>2022-08-01T06:39:51.492Z</time>
      </trkpt>
      <trkpt lat="44.39012" lon="1.13222">
        <ele>323.896255</ele>
        <time>2022-08-01T06:39:53.525Z</time>
      </trkpt>
      <trkpt lat="44.39003" lon="1.13232">
        <ele>323.475744</ele>
        <time>2022-08-01T06:39:56.464Z</time>
      </trkpt>
      <trkpt lat="44.38996" lon="1.13249">
        <ele>322.941009</ele>
        <time>2022-08-01T06:39:59.534Z</time>
      </trkpt>
      <trkpt lat="44.38987" lon="1.13265">
        <ele>322.395654</ele>
        <time>2022-08-01T06:40:02.499Z</time>
      </trkpt>
      <trkpt lat="44.38981" lon="1.13276">
        <ele>322.043957</ele>
        <time>2022-08-01T06:40:04.485Z</time>
      </trkpt>
      <trkpt lat="44.38974" lon="1.13286">
        <ele>321.667288</ele>
        <time>2022-08-01T06:40:06.502Z</time>
      </trkpt>
      <trkpt lat="44.3897" lon="1.13298">
        <ele>321.318843</ele>
        <time>2022-08-01T06:40:08.498Z</time>
      </trkpt>
      <trkpt lat="44.38962" lon="1.1331">
        <ele>320.895169</ele>
        <time>2022-08-01T06:40:10.499Z</time>
      </trkpt>
      <trkpt lat="44.38955" lon="1.13322">
        <ele>320.461747</ele>
        <time>2022-08-01T06:40:13.500Z</time>
      </trkpt>
      <trkpt lat="44.38949" lon="1.13334">
        <ele>320.070389</ele>
        <time>2022-08-01T06:40:15.511Z</time>
      </trkpt>
      <trkpt lat="44.38941" lon="1.13345">
        <ele>319.669988</ele>
        <time>2022-08-01T06:40:18.494Z</time>
      </trkpt>
      <trkpt lat="44.38932" lon="1.13357">
        <ele>319.18306</ele>
        <time>2022-08-01T06:40:20.501Z</time>
      </trkpt>
      <trkpt lat="44.38924" lon="1.13364">
        <ele>318.837105</ele>
        <time>2022-08-01T06:40:21.483Z</time>
      </trkpt>
      <trkpt lat="44.38912" lon="1.13375">
        <ele>318.305862</ele>
        <time>2022-08-01T06:40:23.513Z</time>
      </trkpt>
      <trkpt lat="44.38904" lon="1.13383">
        <ele>318.025346</ele>
        <time>2022-08-01T06:40:25.518Z</time>
      </trkpt>
      <trkpt lat="44.38898" lon="1.13394">
        <ele>318.050259</ele>
        <time>2022-08-01T06:40:27.493Z</time>
      </trkpt>
      <trkpt lat="44.38891" lon="1.13409">
        <ele>318.081872</ele>
        <time>2022-08-01T06:40:30.494Z</time>
      </trkpt>
      <trkpt lat="44.38886" lon="1.13425">
        <ele>318.113923</ele>
        <time>2022-08-01T06:40:33.497Z</time>
      </trkpt>
      <trkpt lat="44.38879" lon="1.1344">
        <ele>318.14569</ele>
        <time>2022-08-01T06:40:35.488Z</time>
      </trkpt>
      <trkpt lat="44.38876" lon="1.13453">
        <ele>318.17085</ele>
        <time>2022-08-01T06:40:37.493Z</time>
      </trkpt>
      <trkpt lat="44.38868" lon="1.1347">
        <ele>318.208357</ele>
        <time>2022-08-01T06:40:39.493Z</time>
      </trkpt>
      <trkpt lat="44.38862" lon="1.13483">
        <ele>318.237887</ele>
        <time>2022-08-01T06:40:41.483Z</time>
      </trkpt>
      <trkpt lat="44.38864" lon="1.13498">
        <ele>318.265772</ele>
        <time>2022-08-01T06:40:43.502Z</time>
      </trkpt>
      <trkpt lat="44.38862" lon="1.13511">
        <ele>318.289644</ele>
        <time>2022-08-01T06:40:45.511Z</time>
      </trkpt>
      <trkpt lat="44.38856" lon="1.13521">
        <ele>318.312852</ele>
        <time>2022-08-01T06:40:47.501Z</time>
      </trkpt>
      <trkpt lat="44.38851" lon="1.13532">
        <ele>318.337327</ele>
        <time>2022-08-01T06:40:49.482Z</time>
      </trkpt>
      <trkpt lat="44.38841" lon="1.13545">
        <ele>318.371569</ele>
        <time>2022-08-01T06:40:52.493Z</time>
      </trkpt>
      <trkpt lat="44.38832" lon="1.13555">
        <ele>318.401564</ele>
        <time>2022-08-01T06:40:55.503Z</time>
      </trkpt>
      <trkpt lat="44.38825" lon="1.13569">
        <ele>318.433287</ele>
        <time>2022-08-01T06:40:58.486Z</time>
      </trkpt>
      <trkpt lat="44.38814" lon="1.13581">
        <ele>318.467967</ele>
        <time>2022-08-01T06:41:00.497Z</time>
      </trkpt>
      <trkpt lat="44.38807" lon="1.1359">
        <ele>318.535957</ele>
        <time>2022-08-01T06:41:02.498Z</time>
      </trkpt>
      <trkpt lat="44.38799" lon="1.13601">
        <ele>318.646515</ele>
        <time>2022-08-01T06:41:05.511Z</time>
      </trkpt>
      <trkpt lat="44.38792" lon="1.1361">
        <ele>318.74304</ele>
        <time>2022-08-01T06:41:07.490Z</time>
      </trkpt>
      <trkpt lat="44.38786" lon="1.13624">
        <ele>318.854021</ele>
        <time>2022-08-01T06:41:10.498Z</time>
      </trkpt>
      <trkpt lat="44.38782" lon="1.13636">
        <ele>318.948332</ele>
        <time>2022-08-01T06:41:12.515Z</time>
      </trkpt>
      <trkpt lat="44.38774" lon="1.13652">
        <ele>319.082836</ele>
        <time>2022-08-01T06:41:14.487Z</time>
      </trkpt>
      <trkpt lat="44.38771" lon="1.13664">
        <ele>319.174231</ele>
        <time>2022-08-01T06:41:16.504Z</time>
      </trkpt>
      <trkpt lat="44.38769" lon="1.13685">
        <ele>319.317524</ele>
        <time>2022-08-01T06:41:19.490Z</time>
      </trkpt>
      <trkpt lat="44.38769" lon="1.13701">
        <ele>319.435912</ele>
        <time>2022-08-01T06:41:22.491Z</time>
      </trkpt>
      <trkpt lat="44.38767" lon="1.13714">
        <ele>319.529064</ele>
        <time>2022-08-01T06:41:24.491Z</time>
      </trkpt>
      <trkpt lat="44.38764" lon="1.13726">
        <ele>319.617268</ele>
        <time>2022-08-01T06:41:26.482Z</time>
      </trkpt>
      <trkpt lat="44.38759" lon="1.13742">
        <ele>319.737717</ele>
        <time>2022-08-01T06:41:28.502Z</time>
      </trkpt>
      <trkpt lat="44.38759" lon="1.13756">
        <ele>319.834386</ele>
        <time>2022-08-01T06:41:30.518Z</time>
      </trkpt>
      <trkpt lat="44.38758" lon="1.13772">
        <ele>319.946385</ele>
        <time>2022-08-01T06:41:33.519Z</time>
      </trkpt>
      <trkpt lat="44.38761" lon="1.13784">
        <ele>320.039487</ele>
        <time>2022-08-01T06:41:35.492Z</time>
      </trkpt>
      <trkpt lat="44.38759" lon="1.13803">
        <ele>320.172358</ele>
        <time>2022-08-01T06:41:38.481Z</time>
      </trkpt>
      <trkpt lat="44.38754" lon="1.13819">
        <ele>320.370284</ele>
        <time>2022-08-01T06:41:40.483Z</time>
      </trkpt>
      <trkpt lat="44.38752" lon="1.13831">
        <ele>320.595527</ele>
        <time>2022-08-01T06:41:42.477Z</time>
      </trkpt>
      <trkpt lat="44.38751" lon="1.13844">
        <ele>320.819436</ele>
        <time>2022-08-01T06:41:44.486Z</time>
      </trkpt>
      <trkpt lat="44.38748" lon="1.13861">
        <ele>321.133869</ele>
        <time>2022-08-01T06:41:47.480Z</time>
      </trkpt>
      <trkpt lat="44.38744" lon="1.13874">
        <ele>321.382177</ele>
        <time>2022-08-01T06:41:49.481Z</time>
      </trkpt>
      <trkpt lat="44.38739" lon="1.13887">
        <ele>321.652183</ele>
        <time>2022-08-01T06:41:51.533Z</time>
      </trkpt>
      <trkpt lat="44.38731" lon="1.13895">
        <ele>321.88972</ele>
        <time>2022-08-01T06:41:53.484Z</time>
      </trkpt>
      <trkpt lat="44.38722" lon="1.13902">
        <ele>322.138179</ele>
        <time>2022-08-01T06:41:55.502Z</time>
      </trkpt>
      <trkpt lat="44.38713" lon="1.13908">
        <ele>322.391616</ele>
        <time>2022-08-01T06:41:57.530Z</time>
      </trkpt>
      <trkpt lat="44.38704" lon="1.13915">
        <ele>322.631428</ele>
        <time>2022-08-01T06:41:59.487Z</time>
      </trkpt>
      <trkpt lat="44.38692" lon="1.13923">
        <ele>322.974237</ele>
        <time>2022-08-01T06:42:02.508Z</time>
      </trkpt>
      <trkpt lat="44.38682" lon="1.13929">
        <ele>323.227675</ele>
        <time>2022-08-01T06:42:04.486Z</time>
      </trkpt>
      <trkpt lat="44.38674" lon="1.13936">
        <ele>323.482174</ele>
        <time>2022-08-01T06:42:06.497Z</time>
      </trkpt>
      <trkpt lat="44.38661" lon="1.13942">
        <ele>323.802943</ele>
        <time>2022-08-01T06:42:08.502Z</time>
      </trkpt>
      <trkpt lat="44.38651" lon="1.13952">
        <ele>324.112429</ele>
        <time>2022-08-01T06:42:10.496Z</time>
      </trkpt>
      <trkpt lat="44.38643" lon="1.13959">
        <ele>324.353101</ele>
        <time>2022-08-01T06:42:12.501Z</time>
      </trkpt>
      <trkpt lat="44.38631" lon="1.13968">
        <ele>324.676268</ele>
        <time>2022-08-01T06:42:14.491Z</time>
      </trkpt>
      <trkpt lat="44.38621" lon="1.13975">
        <ele>324.549211</ele>
        <time>2022-08-01T06:42:16.498Z</time>
      </trkpt>
      <trkpt lat="44.38611" lon="1.13983">
        <ele>324.421542</ele>
        <time>2022-08-01T06:42:18.490Z</time>
      </trkpt>
      <trkpt lat="44.386" lon="1.13992">
        <ele>324.280913</ele>
        <time>2022-08-01T06:42:20.487Z</time>
      </trkpt>
      <trkpt lat="44.38593" lon="1.14003">
        <ele>324.164134</ele>
        <time>2022-08-01T06:42:22.492Z</time>
      </trkpt>
      <trkpt lat="44.38584" lon="1.14014">
        <ele>324.027054</ele>
        <time>2022-08-01T06:42:24.491Z</time>
      </trkpt>
      <trkpt lat="44.38574" lon="1.14026">
        <ele>323.886186</ele>
        <time>2022-08-01T06:42:26.487Z</time>
      </trkpt>
      <trkpt lat="44.38561" lon="1.14039">
        <ele>323.70287</ele>
        <time>2022-08-01T06:42:28.494Z</time>
      </trkpt>
      <trkpt lat="44.38553" lon="1.1405">
        <ele>323.573928</ele>
        <time>2022-08-01T06:42:30.499Z</time>
      </trkpt>
      <trkpt lat="44.38542" lon="1.14067">
        <ele>323.392288</ele>
        <time>2022-08-01T06:42:32.499Z</time>
      </trkpt>
      <trkpt lat="44.38534" lon="1.14079">
        <ele>323.259999</ele>
        <time>2022-08-01T06:42:34.472Z</time>
      </trkpt>
      <trkpt lat="44.38525" lon="1.14086">
        <ele>323.154286</ele>
        <time>2022-08-01T06:42:35.487Z</time>
      </trkpt>
      <trkpt lat="44.38517" lon="1.14102">
        <ele>322.992103</ele>
        <time>2022-08-01T06:42:37.483Z</time>
      </trkpt>
      <trkpt lat="44.38506" lon="1.14117">
        <ele>322.822124</ele>
        <time>2022-08-01T06:42:39.522Z</time>
      </trkpt>
      <trkpt lat="44.38497" lon="1.14134">
        <ele>322.763612</ele>
        <time>2022-08-01T06:42:41.497Z</time>
      </trkpt>
      <trkpt lat="44.38487" lon="1.14149">
        <ele>323.754345</ele>
        <time>2022-08-01T06:42:43.499Z</time>
      </trkpt>
      <trkpt lat="44.38477" lon="1.14163">
        <ele>324.775066</ele>
        <time>2022-08-01T06:42:45.518Z</time>
      </trkpt>
      <trkpt lat="44.38467" lon="1.14177">
        <ele>325.744215</ele>
        <time>2022-08-01T06:42:47.509Z</time>
      </trkpt>
      <trkpt lat="44.38454" lon="1.14192">
        <ele>326.903273</ele>
        <time>2022-08-01T06:42:49.478Z</time>
      </trkpt>
      <trkpt lat="44.38444" lon="1.14204">
        <ele>327.816307</ele>
        <time>2022-08-01T06:42:51.520Z</time>
      </trkpt>
      <trkpt lat="44.38433" lon="1.14218">
        <ele>328.84629</ele>
        <time>2022-08-01T06:42:53.497Z</time>
      </trkpt>
      <trkpt lat="44.38423" lon="1.14231">
        <ele>329.799708</ele>
        <time>2022-08-01T06:42:55.507Z</time>
      </trkpt>
      <trkpt lat="44.38411" lon="1.14244">
        <ele>330.829812</ele>
        <time>2022-08-01T06:42:57.529Z</time>
      </trkpt>
      <trkpt lat="44.38401" lon="1.14257">
        <ele>331.793493</ele>
        <time>2022-08-01T06:42:59.505Z</time>
      </trkpt>
      <trkpt lat="44.3839" lon="1.1427">
        <ele>332.779238</ele>
        <time>2022-08-01T06:43:01.495Z</time>
      </trkpt>
      <trkpt lat="44.3838" lon="1.14282">
        <ele>333.704507</ele>
        <time>2022-08-01T06:43:03.522Z</time>
      </trkpt>
      <trkpt lat="44.38369" lon="1.14296">
        <ele>334.72081</ele>
        <time>2022-08-01T06:43:05.498Z</time>
      </trkpt>
      <trkpt lat="44.38357" lon="1.14309">
        <ele>334.403761</ele>
        <time>2022-08-01T06:43:07.500Z</time>
      </trkpt>
      <trkpt lat="44.38345" lon="1.14321">
        <ele>333.346081</ele>
        <time>2022-08-01T06:43:09.534Z</time>
      </trkpt>
      <trkpt lat="44.38335" lon="1.14332">
        <ele>332.388169</ele>
        <time>2022-08-01T06:43:11.500Z</time>
      </trkpt>
      <trkpt lat="44.3832" lon="1.14343">
        <ele>331.169073</ele>
        <time>2022-08-01T06:43:13.497Z</time>
      </trkpt>
      <trkpt lat="44.38305" lon="1.14354">
        <ele>330.002117</ele>
        <time>2022-08-01T06:43:15.519Z</time>
      </trkpt>
      <trkpt lat="44.3829" lon="1.14361">
        <ele>328.812957</ele>
        <time>2022-08-01T06:43:17.489Z</time>
      </trkpt>
      <trkpt lat="44.38274" lon="1.1437">
        <ele>327.607748</ele>
        <time>2022-08-01T06:43:19.502Z</time>
      </trkpt>
      <trkpt lat="44.3826" lon="1.14377">
        <ele>326.491842</ele>
        <time>2022-08-01T06:43:21.529Z</time>
      </trkpt>
      <trkpt lat="44.38246" lon="1.14385">
        <ele>325.409781</ele>
        <time>2022-08-01T06:43:23.489Z</time>
      </trkpt>
      <trkpt lat="44.38233" lon="1.14394">
        <ele>324.348767</ele>
        <time>2022-08-01T06:43:25.496Z</time>
      </trkpt>
      <trkpt lat="44.3822" lon="1.14407">
        <ele>323.210872</ele>
        <time>2022-08-01T06:43:27.531Z</time>
      </trkpt>
      <trkpt lat="44.38205" lon="1.14417">
        <ele>322.047543</ele>
        <time>2022-08-01T06:43:29.492Z</time>
      </trkpt>
      <trkpt lat="44.38191" lon="1.14428">
        <ele>321.903803</ele>
        <time>2022-08-01T06:43:31.491Z</time>
      </trkpt>
      <trkpt lat="44.38182" lon="1.14436">
        <ele>321.809628</ele>
        <time>2022-08-01T06:43:33.539Z</time>
      </trkpt>
      <trkpt lat="44.3817" lon="1.14447">
        <ele>321.674682</ele>
        <time>2022-08-01T06:43:35.494Z</time>
      </trkpt>
      <trkpt lat="44.38162" lon="1.14453">
        <ele>321.593021</ele>
        <time>2022-08-01T06:43:36.514Z</time>
      </trkpt>
      <trkpt lat="44.38147" lon="1.14463">
        <ele>321.444811</ele>
        <time>2022-08-01T06:43:38.501Z</time>
      </trkpt>
      <trkpt lat="44.38134" lon="1.1447">
        <ele>321.313441</ele>
        <time>2022-08-01T06:43:40.500Z</time>
      </trkpt>
      <trkpt lat="44.38118" lon="1.14482">
        <ele>321.149617</ele>
        <time>2022-08-01T06:43:42.476Z</time>
      </trkpt>
      <trkpt lat="44.38107" lon="1.14492">
        <ele>321.024797</ele>
        <time>2022-08-01T06:43:44.496Z</time>
      </trkpt>
      <trkpt lat="44.38094" lon="1.145">
        <ele>320.898318</ele>
        <time>2022-08-01T06:43:46.486Z</time>
      </trkpt>
      <trkpt lat="44.38086" lon="1.14507">
        <ele>320.809263</ele>
        <time>2022-08-01T06:43:47.498Z</time>
      </trkpt>
      <trkpt lat="44.38075" lon="1.14521">
        <ele>320.672306</ele>
        <time>2022-08-01T06:43:49.488Z</time>
      </trkpt>
      <trkpt lat="44.38064" lon="1.14534">
        <ele>320.545811</ele>
        <time>2022-08-01T06:43:51.520Z</time>
      </trkpt>
      <trkpt lat="44.38058" lon="1.14543">
        <ele>320.462673</ele>
        <time>2022-08-01T06:43:52.494Z</time>
      </trkpt>
      <trkpt lat="44.38048" lon="1.1456">
        <ele>318.886305</ele>
        <time>2022-08-01T06:43:54.511Z</time>
      </trkpt>
      <trkpt lat="44.38042" lon="1.14578">
        <ele>316.678947</ele>
        <time>2022-08-01T06:43:56.502Z</time>
      </trkpt>
      <trkpt lat="44.3804" lon="1.14592">
        <ele>315.179187</ele>
        <time>2022-08-01T06:43:57.515Z</time>
      </trkpt>
      <trkpt lat="44.38034" lon="1.14603">
        <ele>313.795425</ele>
        <time>2022-08-01T06:43:58.498Z</time>
      </trkpt>
      <trkpt lat="44.38025" lon="1.14621">
        <ele>311.434344</ele>
        <time>2022-08-01T06:44:00.497Z</time>
      </trkpt>
      <trkpt lat="44.38019" lon="1.14632">
        <ele>310.01584</ele>
        <time>2022-08-01T06:44:01.470Z</time>
      </trkpt>
      <trkpt lat="44.38007" lon="1.14652">
        <ele>307.107929</ele>
        <time>2022-08-01T06:44:03.524Z</time>
      </trkpt>
      <trkpt lat="44.38001" lon="1.14663">
        <ele>305.653052</ele>
        <time>2022-08-01T06:44:04.464Z</time>
      </trkpt>
      <trkpt lat="44.37993" lon="1.14672">
        <ele>304.169628</ele>
        <time>2022-08-01T06:44:05.484Z</time>
      </trkpt>
      <trkpt lat="44.37982" lon="1.1468">
        <ele>302.349742</ele>
        <time>2022-08-01T06:44:06.502Z</time>
      </trkpt>
      <trkpt lat="44.37972" lon="1.14687">
        <ele>300.668682</ele>
        <time>2022-08-01T06:44:07.492Z</time>
      </trkpt>
      <trkpt lat="44.37961" lon="1.1469">
        <ele>299.074841</ele>
        <time>2022-08-01T06:44:08.497Z</time>
      </trkpt>
      <trkpt lat="44.37951" lon="1.14694">
        <ele>297.393384</ele>
        <time>2022-08-01T06:44:09.540Z</time>
      </trkpt>
      <trkpt lat="44.3794" lon="1.14697">
        <ele>295.853228</ele>
        <time>2022-08-01T06:44:10.506Z</time>
      </trkpt>
      <trkpt lat="44.37931" lon="1.14701">
        <ele>294.3462</ele>
        <time>2022-08-01T06:44:11.518Z</time>
      </trkpt>
      <trkpt lat="44.3792" lon="1.14706">
        <ele>294.254902</ele>
        <time>2022-08-01T06:44:12.482Z</time>
      </trkpt>
      <trkpt lat="44.37912" lon="1.14712">
        <ele>295.141444</ele>
        <time>2022-08-01T06:44:13.515Z</time>
      </trkpt>
      <trkpt lat="44.37904" lon="1.1472">
        <ele>296.01667</ele>
        <time>2022-08-01T06:44:14.516Z</time>
      </trkpt>
      <trkpt lat="44.37898" lon="1.14731">
        <ele>296.963361</ele>
        <time>2022-08-01T06:44:15.517Z</time>
      </trkpt>
      <trkpt lat="44.3789" lon="1.14742">
        <ele>297.985874</ele>
        <time>2022-08-01T06:44:16.511Z</time>
      </trkpt>
      <trkpt lat="44.37884" lon="1.14753">
        <ele>298.926034</ele>
        <time>2022-08-01T06:44:17.502Z</time>
      </trkpt>
      <trkpt lat="44.37874" lon="1.14765">
        <ele>300.06653</ele>
        <time>2022-08-01T06:44:18.503Z</time>
      </trkpt>
      <trkpt lat="44.37865" lon="1.14772">
        <ele>301.124209</ele>
        <time>2022-08-01T06:44:19.494Z</time>
      </trkpt>
      <trkpt lat="44.37856" lon="1.14781">
        <ele>302.131901</ele>
        <time>2022-08-01T06:44:20.475Z</time>
      </trkpt>
      <trkpt lat="44.37844" lon="1.14788">
        <ele>303.291546</ele>
        <time>2022-08-01T06:44:21.521Z</time>
      </trkpt>
      <trkpt lat="44.37836" lon="1.14797">
        <ele>304.235558</ele>
        <time>2022-08-01T06:44:22.500Z</time>
      </trkpt>
      <trkpt lat="44.37826" lon="1.14806">
        <ele>305.406772</ele>
        <time>2022-08-01T06:44:23.505Z</time>
      </trkpt>
      <trkpt lat="44.37818" lon="1.14816">
        <ele>306.350131</ele>
        <time>2022-08-01T06:44:24.498Z</time>
      </trkpt>
      <trkpt lat="44.3781" lon="1.14824">
        <ele>307.296893</ele>
        <time>2022-08-01T06:44:25.481Z</time>
      </trkpt>
      <trkpt lat="44.37798" lon="1.14834">
        <ele>308.555491</ele>
        <time>2022-08-01T06:44:26.504Z</time>
      </trkpt>
      <trkpt lat="44.3779" lon="1.14844">
        <ele>309.587006</ele>
        <time>2022-08-01T06:44:27.523Z</time>
      </trkpt>
      <trkpt lat="44.37781" lon="1.14853">
        <ele>310.135965</ele>
        <time>2022-08-01T06:44:28.488Z</time>
      </trkpt>
      <trkpt lat="44.3777" lon="1.14861">
        <ele>308.971704</ele>
        <time>2022-08-01T06:44:29.498Z</time>
      </trkpt>
      <trkpt lat="44.37757" lon="1.14868">
        <ele>307.792487</ele>
        <time>2022-08-01T06:44:30.501Z</time>
      </trkpt>
      <trkpt lat="44.37745" lon="1.14874">
        <ele>306.598214</ele>
        <time>2022-08-01T06:44:31.485Z</time>
      </trkpt>
      <trkpt lat="44.37734" lon="1.14878">
        <ele>305.621426</ele>
        <time>2022-08-01T06:44:32.492Z</time>
      </trkpt>
      <trkpt lat="44.37722" lon="1.14882">
        <ele>304.45554</ele>
        <time>2022-08-01T06:44:33.525Z</time>
      </trkpt>
      <trkpt lat="44.37711" lon="1.14886">
        <ele>303.488431</ele>
        <time>2022-08-01T06:44:34.483Z</time>
      </trkpt>
      <trkpt lat="44.37701" lon="1.14891">
        <ele>302.521322</ele>
        <time>2022-08-01T06:44:35.483Z</time>
      </trkpt>
      <trkpt lat="44.37692" lon="1.14895">
        <ele>301.631507</ele>
        <time>2022-08-01T06:44:36.500Z</time>
      </trkpt>
      <trkpt lat="44.37681" lon="1.149">
        <ele>300.633416</ele>
        <time>2022-08-01T06:44:37.493Z</time>
      </trkpt>
      <trkpt lat="44.3767" lon="1.14905">
        <ele>299.565906</ele>
        <time>2022-08-01T06:44:38.504Z</time>
      </trkpt>
      <trkpt lat="44.3766" lon="1.14909">
        <ele>298.664665</ele>
        <time>2022-08-01T06:44:39.534Z</time>
      </trkpt>
      <trkpt lat="44.37649" lon="1.14914">
        <ele>297.5878</ele>
        <time>2022-08-01T06:44:40.502Z</time>
      </trkpt>
      <trkpt lat="44.37638" lon="1.14918">
        <ele>296.575521</ele>
        <time>2022-08-01T06:44:41.499Z</time>
      </trkpt>
      <trkpt lat="44.37626" lon="1.1492">
        <ele>295.484858</ele>
        <time>2022-08-01T06:44:42.486Z</time>
      </trkpt>
      <trkpt lat="44.37615" lon="1.14923">
        <ele>294.526548</ele>
        <time>2022-08-01T06:44:43.504Z</time>
      </trkpt>
      <trkpt lat="44.37605" lon="1.14925">
        <ele>293.945722</ele>
        <time>2022-08-01T06:44:44.483Z</time>
      </trkpt>
      <trkpt lat="44.37593" lon="1.14926">
        <ele>293.546424</ele>
        <time>2022-08-01T06:44:45.523Z</time>
      </trkpt>
      <trkpt lat="44.37582" lon="1.14927">
        <ele>293.153706</ele>
        <time>2022-08-01T06:44:46.488Z</time>
      </trkpt>
      <trkpt lat="44.37571" lon="1.14926">
        <ele>292.801868</ele>
        <time>2022-08-01T06:44:47.495Z</time>
      </trkpt>
      <trkpt lat="44.3756" lon="1.14923">
        <ele>292.419131</ele>
        <time>2022-08-01T06:44:48.517Z</time>
      </trkpt>
      <trkpt lat="44.37549" lon="1.14916">
        <ele>291.991247</ele>
        <time>2022-08-01T06:44:49.481Z</time>
      </trkpt>
      <trkpt lat="44.3754" lon="1.14907">
        <ele>291.634231</ele>
        <time>2022-08-01T06:44:50.484Z</time>
      </trkpt>
      <trkpt lat="44.37532" lon="1.14898">
        <ele>291.290681</ele>
        <time>2022-08-01T06:44:51.516Z</time>
      </trkpt>
      <trkpt lat="44.37524" lon="1.14891">
        <ele>290.958432</ele>
        <time>2022-08-01T06:44:52.515Z</time>
      </trkpt>
      <trkpt lat="44.37514" lon="1.14885">
        <ele>290.591381</ele>
        <time>2022-08-01T06:44:53.494Z</time>
      </trkpt>
      <trkpt lat="44.37504" lon="1.14884">
        <ele>290.249706</ele>
        <time>2022-08-01T06:44:54.498Z</time>
      </trkpt>
      <trkpt lat="44.37493" lon="1.14882">
        <ele>289.870543</ele>
        <time>2022-08-01T06:44:55.505Z</time>
      </trkpt>
      <trkpt lat="44.37483" lon="1.14882">
        <ele>289.530334</ele>
        <time>2022-08-01T06:44:56.497Z</time>
      </trkpt>
      <trkpt lat="44.37474" lon="1.14886">
        <ele>289.213043</ele>
        <time>2022-08-01T06:44:57.540Z</time>
      </trkpt>
      <trkpt lat="44.37464" lon="1.14891">
        <ele>288.830015</ele>
        <time>2022-08-01T06:44:58.496Z</time>
      </trkpt>
      <trkpt lat="44.37456" lon="1.14903">
        <ele>288.432755</ele>
        <time>2022-08-01T06:44:59.490Z</time>
      </trkpt>
      <trkpt lat="44.37447" lon="1.14911">
        <ele>288.085094</ele>
        <time>2022-08-01T06:45:00.492Z</time>
      </trkpt>
      <trkpt lat="44.37437" lon="1.14918">
        <ele>287.545393</ele>
        <time>2022-08-01T06:45:01.495Z</time>
      </trkpt>
      <trkpt lat="44.37428" lon="1.14922">
        <ele>287.07375</ele>
        <time>2022-08-01T06:45:02.498Z</time>
      </trkpt>
      <trkpt lat="44.37417" lon="1.14921">
        <ele>286.52769</ele>
        <time>2022-08-01T06:45:03.533Z</time>
      </trkpt>
      <trkpt lat="44.37406" lon="1.14915">
        <ele>285.955811</ele>
        <time>2022-08-01T06:45:04.490Z</time>
      </trkpt>
      <trkpt lat="44.37395" lon="1.14913">
        <ele>285.364373</ele>
        <time>2022-08-01T06:45:05.498Z</time>
      </trkpt>
      <trkpt lat="44.37383" lon="1.14911">
        <ele>284.763957</ele>
        <time>2022-08-01T06:45:06.499Z</time>
      </trkpt>
      <trkpt lat="44.37372" lon="1.14909">
        <ele>284.229862</ele>
        <time>2022-08-01T06:45:07.493Z</time>
      </trkpt>
      <trkpt lat="44.37361" lon="1.14908">
        <ele>283.688272</ele>
        <time>2022-08-01T06:45:08.486Z</time>
      </trkpt>
      <trkpt lat="44.37351" lon="1.14911">
        <ele>283.166143</ele>
        <time>2022-08-01T06:45:09.529Z</time>
      </trkpt>
      <trkpt lat="44.3734" lon="1.14916">
        <ele>282.56132</ele>
        <time>2022-08-01T06:45:10.502Z</time>
      </trkpt>
      <trkpt lat="44.37329" lon="1.14923">
        <ele>281.987985</ele>
        <time>2022-08-01T06:45:11.476Z</time>
      </trkpt>
      <trkpt lat="44.3732" lon="1.14933">
        <ele>281.402992</ele>
        <time>2022-08-01T06:45:12.506Z</time>
      </trkpt>
      <trkpt lat="44.37311" lon="1.14943">
        <ele>280.812512</ele>
        <time>2022-08-01T06:45:13.500Z</time>
      </trkpt>
      <trkpt lat="44.37302" lon="1.14951">
        <ele>280.295658</ele>
        <time>2022-08-01T06:45:14.481Z</time>
      </trkpt>
      <trkpt lat="44.37293" lon="1.14956">
        <ele>279.773479</ele>
        <time>2022-08-01T06:45:15.529Z</time>
      </trkpt>
      <trkpt lat="44.37281" lon="1.14958">
        <ele>279.216174</ele>
        <time>2022-08-01T06:45:16.487Z</time>
      </trkpt>
      <trkpt lat="44.37271" lon="1.14956">
        <ele>278.995182</ele>
        <time>2022-08-01T06:45:17.494Z</time>
      </trkpt>
      <trkpt lat="44.3726" lon="1.14952">
        <ele>278.910147</ele>
        <time>2022-08-01T06:45:18.479Z</time>
      </trkpt>
      <trkpt lat="44.37249" lon="1.14947">
        <ele>278.818746</ele>
        <time>2022-08-01T06:45:19.471Z</time>
      </trkpt>
      <trkpt lat="44.3724" lon="1.14941">
        <ele>278.741684</ele>
        <time>2022-08-01T06:45:20.503Z</time>
      </trkpt>
      <trkpt lat="44.3723" lon="1.14936">
        <ele>278.660305</ele>
        <time>2022-08-01T06:45:21.527Z</time>
      </trkpt>
      <trkpt lat="44.3722" lon="1.14931">
        <ele>278.582414</ele>
        <time>2022-08-01T06:45:22.484Z</time>
      </trkpt>
      <trkpt lat="44.37211" lon="1.14925">
        <ele>278.50284</ele>
        <time>2022-08-01T06:45:23.493Z</time>
      </trkpt>
      <trkpt lat="44.37202" lon="1.14919">
        <ele>278.422565</ele>
        <time>2022-08-01T06:45:24.499Z</time>
      </trkpt>
      <trkpt lat="44.37192" lon="1.14913">
        <ele>278.341351</ele>
        <time>2022-08-01T06:45:25.496Z</time>
      </trkpt>
      <trkpt lat="44.37182" lon="1.14906">
        <ele>278.253836</ele>
        <time>2022-08-01T06:45:26.507Z</time>
      </trkpt>
      <trkpt lat="44.37171" lon="1.149">
        <ele>278.162774</ele>
        <time>2022-08-01T06:45:27.528Z</time>
      </trkpt>
      <trkpt lat="44.37161" lon="1.14893">
        <ele>278.080174</ele>
        <time>2022-08-01T06:45:28.506Z</time>
      </trkpt>
      <trkpt lat="44.37152" lon="1.14892">
        <ele>278.008368</ele>
        <time>2022-08-01T06:45:29.494Z</time>
      </trkpt>
      <trkpt lat="44.37143" lon="1.14892">
        <ele>277.933238</ele>
        <time>2022-08-01T06:45:30.498Z</time>
      </trkpt>
      <trkpt lat="44.37133" lon="1.14896">
        <ele>277.853175</ele>
        <time>2022-08-01T06:45:31.504Z</time>
      </trkpt>
      <trkpt lat="44.37117" lon="1.14911">
        <ele>277.707463</ele>
        <time>2022-08-01T06:45:33.539Z</time>
      </trkpt>
      <trkpt lat="44.3711" lon="1.14921">
        <ele>277.705974</ele>
        <time>2022-08-01T06:45:34.491Z</time>
      </trkpt>
      <trkpt lat="44.37104" lon="1.1493">
        <ele>277.807295</ele>
        <time>2022-08-01T06:45:35.495Z</time>
      </trkpt>
      <trkpt lat="44.37098" lon="1.14942">
        <ele>277.91867</ele>
        <time>2022-08-01T06:45:36.489Z</time>
      </trkpt>
      <trkpt lat="44.37089" lon="1.1495">
        <ele>278.043081</ele>
        <time>2022-08-01T06:45:37.481Z</time>
      </trkpt>
      <trkpt lat="44.3708" lon="1.14959">
        <ele>278.158803</ele>
        <time>2022-08-01T06:45:38.509Z</time>
      </trkpt>
      <trkpt lat="44.37066" lon="1.14976">
        <ele>278.370804</ele>
        <time>2022-08-01T06:45:40.502Z</time>
      </trkpt>
      <trkpt lat="44.37058" lon="1.14982">
        <ele>278.47413</ele>
        <time>2022-08-01T06:45:41.494Z</time>
      </trkpt>
      <trkpt lat="44.37048" lon="1.14984">
        <ele>278.58503</ele>
        <time>2022-08-01T06:45:42.481Z</time>
      </trkpt>
      <trkpt lat="44.37039" lon="1.14989">
        <ele>278.692729</ele>
        <time>2022-08-01T06:45:43.500Z</time>
      </trkpt>
      <trkpt lat="44.37028" lon="1.14993">
        <ele>278.810785</ele>
        <time>2022-08-01T06:45:44.489Z</time>
      </trkpt>
      <trkpt lat="44.37018" lon="1.14996">
        <ele>278.928528</ele>
        <time>2022-08-01T06:45:45.524Z</time>
      </trkpt>
      <trkpt lat="44.37008" lon="1.14998">
        <ele>279.045693</ele>
        <time>2022-08-01T06:45:46.500Z</time>
      </trkpt>
      <trkpt lat="44.36998" lon="1.15002">
        <ele>279.153957</ele>
        <time>2022-08-01T06:45:47.504Z</time>
      </trkpt>
      <trkpt lat="44.36986" lon="1.15007">
        <ele>279.292379</ele>
        <time>2022-08-01T06:45:48.503Z</time>
      </trkpt>
      <trkpt lat="44.36968" lon="1.15015">
        <ele>279.507279</ele>
        <time>2022-08-01T06:45:50.493Z</time>
      </trkpt>
      <trkpt lat="44.36957" lon="1.15021">
        <ele>279.631885</ele>
        <time>2022-08-01T06:45:51.542Z</time>
      </trkpt>
      <trkpt lat="44.36947" lon="1.15026">
        <ele>279.483396</ele>
        <time>2022-08-01T06:45:52.488Z</time>
      </trkpt>
      <trkpt lat="44.36938" lon="1.15033">
        <ele>279.260081</ele>
        <time>2022-08-01T06:45:53.500Z</time>
      </trkpt>
      <trkpt lat="44.3693" lon="1.1504">
        <ele>279.060305</ele>
        <time>2022-08-01T06:45:54.497Z</time>
      </trkpt>
      <trkpt lat="44.36919" lon="1.15045">
        <ele>278.835721</ele>
        <time>2022-08-01T06:45:55.495Z</time>
      </trkpt>
      <trkpt lat="44.36909" lon="1.15053">
        <ele>278.596111</ele>
        <time>2022-08-01T06:45:56.486Z</time>
      </trkpt>
      <trkpt lat="44.36898" lon="1.1506">
        <ele>278.347362</ele>
        <time>2022-08-01T06:45:57.542Z</time>
      </trkpt>
      <trkpt lat="44.3689" lon="1.15067">
        <ele>278.140048</ele>
        <time>2022-08-01T06:45:58.497Z</time>
      </trkpt>
      <trkpt lat="44.36878" lon="1.15072">
        <ele>277.881205</ele>
        <time>2022-08-01T06:45:59.497Z</time>
      </trkpt>
      <trkpt lat="44.36865" lon="1.15077">
        <ele>277.597276</ele>
        <time>2022-08-01T06:46:00.501Z</time>
      </trkpt>
      <trkpt lat="44.36852" lon="1.15084">
        <ele>277.323877</ele>
        <time>2022-08-01T06:46:01.501Z</time>
      </trkpt>
      <trkpt lat="44.36842" lon="1.15088">
        <ele>277.089466</ele>
        <time>2022-08-01T06:46:02.492Z</time>
      </trkpt>
      <trkpt lat="44.36832" lon="1.15093">
        <ele>276.87758</ele>
        <time>2022-08-01T06:46:03.533Z</time>
      </trkpt>
      <trkpt lat="44.36821" lon="1.15099">
        <ele>276.625915</ele>
        <time>2022-08-01T06:46:04.493Z</time>
      </trkpt>
      <trkpt lat="44.36809" lon="1.15106">
        <ele>276.370353</ele>
        <time>2022-08-01T06:46:05.501Z</time>
      </trkpt>
      <trkpt lat="44.368" lon="1.15109">
        <ele>276.163543</ele>
        <time>2022-08-01T06:46:06.498Z</time>
      </trkpt>
      <trkpt lat="44.36788" lon="1.15112">
        <ele>275.923306</ele>
        <time>2022-08-01T06:46:07.491Z</time>
      </trkpt>
      <trkpt lat="44.36777" lon="1.15117">
        <ele>275.772482</ele>
        <time>2022-08-01T06:46:08.496Z</time>
      </trkpt>
      <trkpt lat="44.36768" lon="1.15123">
        <ele>275.631236</ele>
        <time>2022-08-01T06:46:09.520Z</time>
      </trkpt>
      <trkpt lat="44.36757" lon="1.1513">
        <ele>275.467335</ele>
        <time>2022-08-01T06:46:10.489Z</time>
      </trkpt>
      <trkpt lat="44.36743" lon="1.15134">
        <ele>275.283834</ele>
        <time>2022-08-01T06:46:11.490Z</time>
      </trkpt>
      <trkpt lat="44.36731" lon="1.1514">
        <ele>275.106083</ele>
        <time>2022-08-01T06:46:12.499Z</time>
      </trkpt>
      <trkpt lat="44.3672" lon="1.15145">
        <ele>274.951118</ele>
        <time>2022-08-01T06:46:13.491Z</time>
      </trkpt>
      <trkpt lat="44.36707" lon="1.15151">
        <ele>274.768399</ele>
        <time>2022-08-01T06:46:14.497Z</time>
      </trkpt>
      <trkpt lat="44.36697" lon="1.15161">
        <ele>274.597192</ele>
        <time>2022-08-01T06:46:15.490Z</time>
      </trkpt>
      <trkpt lat="44.36686" lon="1.1517">
        <ele>274.429048</ele>
        <time>2022-08-01T06:46:16.497Z</time>
      </trkpt>
      <trkpt lat="44.36679" lon="1.15183">
        <ele>274.26739</ele>
        <time>2022-08-01T06:46:17.492Z</time>
      </trkpt>
      <trkpt lat="44.36668" lon="1.15192">
        <ele>274.097338</ele>
        <time>2022-08-01T06:46:18.495Z</time>
      </trkpt>
      <trkpt lat="44.36659" lon="1.15202">
        <ele>273.947841</ele>
        <time>2022-08-01T06:46:19.506Z</time>
      </trkpt>
      <trkpt lat="44.36651" lon="1.15214">
        <ele>273.789089</ele>
        <time>2022-08-01T06:46:20.482Z</time>
      </trkpt>
      <trkpt lat="44.36641" lon="1.15226">
        <ele>273.605789</ele>
        <time>2022-08-01T06:46:21.524Z</time>
      </trkpt>
      <trkpt lat="44.36635" lon="1.15242">
        <ele>273.452207</ele>
        <time>2022-08-01T06:46:22.479Z</time>
      </trkpt>
      <trkpt lat="44.36626" lon="1.15256">
        <ele>273.307654</ele>
        <time>2022-08-01T06:46:23.494Z</time>
      </trkpt>
      <trkpt lat="44.36615" lon="1.15266">
        <ele>273.169449</ele>
        <time>2022-08-01T06:46:24.493Z</time>
      </trkpt>
      <trkpt lat="44.36606" lon="1.15277">
        <ele>273.044296</ele>
        <time>2022-08-01T06:46:25.493Z</time>
      </trkpt>
      <trkpt lat="44.36596" lon="1.15288">
        <ele>272.905342</ele>
        <time>2022-08-01T06:46:26.497Z</time>
      </trkpt>
      <trkpt lat="44.36587" lon="1.15299">
        <ele>272.7766</ele>
        <time>2022-08-01T06:46:27.518Z</time>
      </trkpt>
      <trkpt lat="44.36578" lon="1.15311">
        <ele>272.645597</ele>
        <time>2022-08-01T06:46:28.504Z</time>
      </trkpt>
      <trkpt lat="44.36567" lon="1.15322">
        <ele>272.503749</ele>
        <time>2022-08-01T06:46:29.493Z</time>
      </trkpt>
      <trkpt lat="44.36558" lon="1.15335">
        <ele>272.362757</ele>
        <time>2022-08-01T06:46:30.493Z</time>
      </trkpt>
      <trkpt lat="44.3655" lon="1.15345">
        <ele>272.246432</ele>
        <time>2022-08-01T06:46:31.501Z</time>
      </trkpt>
      <trkpt lat="44.36541" lon="1.15357">
        <ele>272.117382</ele>
        <time>2022-08-01T06:46:32.481Z</time>
      </trkpt>
      <trkpt lat="44.36531" lon="1.15368">
        <ele>271.976884</ele>
        <time>2022-08-01T06:46:33.537Z</time>
      </trkpt>
      <trkpt lat="44.36521" lon="1.15379">
        <ele>271.848627</ele>
        <time>2022-08-01T06:46:34.501Z</time>
      </trkpt>
      <trkpt lat="44.36511" lon="1.15385">
        <ele>271.731148</ele>
        <time>2022-08-01T06:46:35.502Z</time>
      </trkpt>
      <trkpt lat="44.36501" lon="1.15389">
        <ele>271.612779</ele>
        <time>2022-08-01T06:46:36.494Z</time>
      </trkpt>
      <trkpt lat="44.3649" lon="1.15392">
        <ele>271.534236</ele>
        <time>2022-08-01T06:46:37.496Z</time>
      </trkpt>
      <trkpt lat="44.36478" lon="1.15392">
        <ele>271.465246</ele>
        <time>2022-08-01T06:46:38.498Z</time>
      </trkpt>
      <trkpt lat="44.36466" lon="1.15394">
        <ele>271.387951</ele>
        <time>2022-08-01T06:46:39.522Z</time>
      </trkpt>
      <trkpt lat="44.36455" lon="1.15398">
        <ele>271.319744</ele>
        <time>2022-08-01T06:46:40.497Z</time>
      </trkpt>
      <trkpt lat="44.36445" lon="1.15402">
        <ele>271.249796</ele>
        <time>2022-08-01T06:46:41.497Z</time>
      </trkpt>
      <trkpt lat="44.36434" lon="1.15407">
        <ele>271.182709</ele>
        <time>2022-08-01T06:46:42.462Z</time>
      </trkpt>
      <trkpt lat="44.36425" lon="1.15412">
        <ele>271.121352</ele>
        <time>2022-08-01T06:46:43.499Z</time>
      </trkpt>
      <trkpt lat="44.36416" lon="1.15417">
        <ele>271.061876</ele>
        <time>2022-08-01T06:46:44.510Z</time>
      </trkpt>
      <trkpt lat="44.364" lon="1.15425">
        <ele>270.952731</ele>
        <time>2022-08-01T06:46:46.500Z</time>
      </trkpt>
      <trkpt lat="44.3639" lon="1.1543">
        <ele>270.890149</ele>
        <time>2022-08-01T06:46:47.489Z</time>
      </trkpt>
      <trkpt lat="44.3638" lon="1.15435">
        <ele>270.824931</ele>
        <time>2022-08-01T06:46:48.486Z</time>
      </trkpt>
      <trkpt lat="44.3637" lon="1.15439">
        <ele>270.761656</ele>
        <time>2022-08-01T06:46:49.519Z</time>
      </trkpt>
      <trkpt lat="44.36362" lon="1.15445">
        <ele>270.699037</ele>
        <time>2022-08-01T06:46:50.496Z</time>
      </trkpt>
      <trkpt lat="44.36354" lon="1.15452">
        <ele>270.641921</ele>
        <time>2022-08-01T06:46:51.532Z</time>
      </trkpt>
      <trkpt lat="44.36344" lon="1.15459">
        <ele>270.571593</ele>
        <time>2022-08-01T06:46:52.491Z</time>
      </trkpt>
      <trkpt lat="44.36335" lon="1.15468">
        <ele>270.506979</ele>
        <time>2022-08-01T06:46:53.492Z</time>
      </trkpt>
      <trkpt lat="44.36327" lon="1.15474">
        <ele>270.351341</ele>
        <time>2022-08-01T06:46:54.502Z</time>
      </trkpt>
      <trkpt lat="44.36318" lon="1.15482">
        <ele>269.987193</ele>
        <time>2022-08-01T06:46:55.495Z</time>
      </trkpt>
      <trkpt lat="44.3631" lon="1.15489">
        <ele>269.670943</ele>
        <time>2022-08-01T06:46:56.506Z</time>
      </trkpt>
      <trkpt lat="44.363" lon="1.15498">
        <ele>269.28955</ele>
        <time>2022-08-01T06:46:57.522Z</time>
      </trkpt>
      <trkpt lat="44.36291" lon="1.15508">
        <ele>268.900994</ele>
        <time>2022-08-01T06:46:58.501Z</time>
      </trkpt>
      <trkpt lat="44.36283" lon="1.15518">
        <ele>268.539978</ele>
        <time>2022-08-01T06:46:59.502Z</time>
      </trkpt>
      <trkpt lat="44.36274" lon="1.15528">
        <ele>268.180672</ele>
        <time>2022-08-01T06:47:00.501Z</time>
      </trkpt>
      <trkpt lat="44.36268" lon="1.15539">
        <ele>267.847245</ele>
        <time>2022-08-01T06:47:01.488Z</time>
      </trkpt>
      <trkpt lat="44.3626" lon="1.15561">
        <ele>267.262115</ele>
        <time>2022-08-01T06:47:03.526Z</time>
      </trkpt>
      <trkpt lat="44.36255" lon="1.15574">
        <ele>266.913475</ele>
        <time>2022-08-01T06:47:04.507Z</time>
      </trkpt>
      <trkpt lat="44.36252" lon="1.15593">
        <ele>266.434847</ele>
        <time>2022-08-01T06:47:06.500Z</time>
      </trkpt>
      <trkpt lat="44.36248" lon="1.15608">
        <ele>266.069125</ele>
        <time>2022-08-01T06:47:08.494Z</time>
      </trkpt>
      <trkpt lat="44.36243" lon="1.15618">
        <ele>265.764569</ele>
        <time>2022-08-01T06:47:10.504Z</time>
      </trkpt>
      <trkpt lat="44.36232" lon="1.15608">
        <ele>265.332974</ele>
        <time>2022-08-01T06:47:12.490Z</time>
      </trkpt>
      <trkpt lat="44.36218" lon="1.15592">
        <ele>264.728203</ele>
        <time>2022-08-01T06:47:14.480Z</time>
      </trkpt>
      <trkpt lat="44.36203" lon="1.15579">
        <ele>264.191497</ele>
        <time>2022-08-01T06:47:16.483Z</time>
      </trkpt>
      <trkpt lat="44.3619" lon="1.15562">
        <ele>263.67339</ele>
        <time>2022-08-01T06:47:18.484Z</time>
      </trkpt>
      <trkpt lat="44.3618" lon="1.15552">
        <ele>263.302518</ele>
        <time>2022-08-01T06:47:19.489Z</time>
      </trkpt>
      <trkpt lat="44.3617" lon="1.15532">
        <ele>262.786334</ele>
        <time>2022-08-01T06:47:21.523Z</time>
      </trkpt>
      <trkpt lat="44.3616" lon="1.15512">
        <ele>262.25641</ele>
        <time>2022-08-01T06:47:23.501Z</time>
      </trkpt>
      <trkpt lat="44.36149" lon="1.15491">
        <ele>261.707486</ele>
        <time>2022-08-01T06:47:25.504Z</time>
      </trkpt>
      <trkpt lat="44.36144" lon="1.15479">
        <ele>261.414632</ele>
        <time>2022-08-01T06:47:26.501Z</time>
      </trkpt>
      <trkpt lat="44.36138" lon="1.15469">
        <ele>261.143638</ele>
        <time>2022-08-01T06:47:27.532Z</time>
      </trkpt>
      <trkpt lat="44.36128" lon="1.1545">
        <ele>260.63256</ele>
        <time>2022-08-01T06:47:29.497Z</time>
      </trkpt>
      <trkpt lat="44.36119" lon="1.15432">
        <ele>260.169978</ele>
        <time>2022-08-01T06:47:31.483Z</time>
      </trkpt>
      <trkpt lat="44.36111" lon="1.15415">
        <ele>259.736432</ele>
        <time>2022-08-01T06:47:33.525Z</time>
      </trkpt>
      <trkpt lat="44.36106" lon="1.15404">
        <ele>259.456711</ele>
        <time>2022-08-01T06:47:34.488Z</time>
      </trkpt>
      <trkpt lat="44.36094" lon="1.15379">
        <ele>258.886247</ele>
        <time>2022-08-01T06:47:36.501Z</time>
      </trkpt>
      <trkpt lat="44.36088" lon="1.15362">
        <ele>258.538129</ele>
        <time>2022-08-01T06:47:38.490Z</time>
      </trkpt>
      <trkpt lat="44.36079" lon="1.15342">
        <ele>258.123601</ele>
        <time>2022-08-01T06:47:40.507Z</time>
      </trkpt>
      <trkpt lat="44.36071" lon="1.15322">
        <ele>257.72054</ele>
        <time>2022-08-01T06:47:42.470Z</time>
      </trkpt>
      <trkpt lat="44.36065" lon="1.15303">
        <ele>257.340001</ele>
        <time>2022-08-01T06:47:44.494Z</time>
      </trkpt>
      <trkpt lat="44.36063" lon="1.15281">
        <ele>256.95117</ele>
        <time>2022-08-01T06:47:46.502Z</time>
      </trkpt>
      <trkpt lat="44.36067" lon="1.15263">
        <ele>256.618619</ele>
        <time>2022-08-01T06:47:48.489Z</time>
      </trkpt>
      <trkpt lat="44.36071" lon="1.15246">
        <ele>256.300658</ele>
        <time>2022-08-01T06:47:50.491Z</time>
      </trkpt>
      <trkpt lat="44.36076" lon="1.15229">
        <ele>255.962575</ele>
        <time>2022-08-01T06:47:52.489Z</time>
      </trkpt>
      <trkpt lat="44.3608" lon="1.15214">
        <ele>255.675375</ele>
        <time>2022-08-01T06:47:54.499Z</time>
      </trkpt>
      <trkpt lat="44.36084" lon="1.15197">
        <ele>255.365753</ele>
        <time>2022-08-01T06:47:56.479Z</time>
      </trkpt>
      <trkpt lat="44.36086" lon="1.15177">
        <ele>255.004046</ele>
        <time>2022-08-01T06:47:58.499Z</time>
      </trkpt>
      <trkpt lat="44.36087" lon="1.15161">
        <ele>254.723215</ele>
        <time>2022-08-01T06:48:00.487Z</time>
      </trkpt>
      <trkpt lat="44.36086" lon="1.15141">
        <ele>254.696248</ele>
        <time>2022-08-01T06:48:02.491Z</time>
      </trkpt>
      <trkpt lat="44.36085" lon="1.15121">
        <ele>254.685435</ele>
        <time>2022-08-01T06:48:04.502Z</time>
      </trkpt>
      <trkpt lat="44.36084" lon="1.151">
        <ele>254.673797</ele>
        <time>2022-08-01T06:48:06.499Z</time>
      </trkpt>
      <trkpt lat="44.36082" lon="1.1508">
        <ele>254.662533</ele>
        <time>2022-08-01T06:48:08.484Z</time>
      </trkpt>
      <trkpt lat="44.36079" lon="1.1506">
        <ele>254.650723</ele>
        <time>2022-08-01T06:48:10.479Z</time>
      </trkpt>
      <trkpt lat="44.36076" lon="1.15039">
        <ele>254.638954</ele>
        <time>2022-08-01T06:48:12.499Z</time>
      </trkpt>
      <trkpt lat="44.36071" lon="1.15019">
        <ele>254.627199</ele>
        <time>2022-08-01T06:48:14.488Z</time>
      </trkpt>
      <trkpt lat="44.36066" lon="1.14999">
        <ele>254.615404</ele>
        <time>2022-08-01T06:48:16.497Z</time>
      </trkpt>
      <trkpt lat="44.36061" lon="1.1498">
        <ele>254.603975</ele>
        <time>2022-08-01T06:48:18.497Z</time>
      </trkpt>
      <trkpt lat="44.36056" lon="1.1496">
        <ele>254.592389</ele>
        <time>2022-08-01T06:48:20.499Z</time>
      </trkpt>
      <trkpt lat="44.36049" lon="1.14941">
        <ele>254.580864</ele>
        <time>2022-08-01T06:48:22.489Z</time>
      </trkpt>
      <trkpt lat="44.36043" lon="1.1492">
        <ele>254.567992</ele>
        <time>2022-08-01T06:48:24.498Z</time>
      </trkpt>
      <trkpt lat="44.36038" lon="1.14901">
        <ele>254.707125</ele>
        <time>2022-08-01T06:48:26.497Z</time>
      </trkpt>
      <trkpt lat="44.36034" lon="1.14881">
        <ele>254.857825</ele>
        <time>2022-08-01T06:48:28.504Z</time>
      </trkpt>
      <trkpt lat="44.36032" lon="1.14858">
        <ele>255.032498</ele>
        <time>2022-08-01T06:48:30.497Z</time>
      </trkpt>
      <trkpt lat="44.36029" lon="1.14839">
        <ele>255.183647</ele>
        <time>2022-08-01T06:48:32.502Z</time>
      </trkpt>
      <trkpt lat="44.36028" lon="1.1482">
        <ele>255.324072</ele>
        <time>2022-08-01T06:48:34.494Z</time>
      </trkpt>
      <trkpt lat="44.36026" lon="1.14802">
        <ele>255.465058</ele>
        <time>2022-08-01T06:48:36.496Z</time>
      </trkpt>
      <trkpt lat="44.36021" lon="1.14784">
        <ele>255.605757</ele>
        <time>2022-08-01T06:48:38.487Z</time>
      </trkpt>
      <trkpt lat="44.36017" lon="1.14768">
        <ele>255.734095</ele>
        <time>2022-08-01T06:48:40.494Z</time>
      </trkpt>
      <trkpt lat="44.36012" lon="1.1475">
        <ele>255.873384</ele>
        <time>2022-08-01T06:48:42.489Z</time>
      </trkpt>
      <trkpt lat="44.36007" lon="1.14734">
        <ele>256.008275</ele>
        <time>2022-08-01T06:48:44.487Z</time>
      </trkpt>
      <trkpt lat="44.35999" lon="1.14718">
        <ele>256.153962</ele>
        <time>2022-08-01T06:48:46.501Z</time>
      </trkpt>
      <trkpt lat="44.35993" lon="1.14702">
        <ele>256.289139</ele>
        <time>2022-08-01T06:48:48.496Z</time>
      </trkpt>
      <trkpt lat="44.35986" lon="1.14688">
        <ele>256.419847</ele>
        <time>2022-08-01T06:48:50.486Z</time>
      </trkpt>
      <trkpt lat="44.35978" lon="1.14674">
        <ele>256.429587</ele>
        <time>2022-08-01T06:48:52.507Z</time>
      </trkpt>
      <trkpt lat="44.3597" lon="1.14661">
        <ele>256.392596</ele>
        <time>2022-08-01T06:48:54.509Z</time>
      </trkpt>
      <trkpt lat="44.35962" lon="1.14647">
        <ele>256.355149</ele>
        <time>2022-08-01T06:48:56.507Z</time>
      </trkpt>
      <trkpt lat="44.35953" lon="1.14633">
        <ele>256.315896</ele>
        <time>2022-08-01T06:48:58.495Z</time>
      </trkpt>
      <trkpt lat="44.35946" lon="1.14619">
        <ele>256.280336</ele>
        <time>2022-08-01T06:49:00.502Z</time>
      </trkpt>
      <trkpt lat="44.3594" lon="1.14602">
        <ele>256.240256</ele>
        <time>2022-08-01T06:49:02.499Z</time>
      </trkpt>
      <trkpt lat="44.35934" lon="1.14583">
        <ele>256.19695</ele>
        <time>2022-08-01T06:49:04.483Z</time>
      </trkpt>
      <trkpt lat="44.35931" lon="1.14562">
        <ele>256.150238</ele>
        <time>2022-08-01T06:49:06.495Z</time>
      </trkpt>
      <trkpt lat="44.35927" lon="1.14544">
        <ele>256.111306</ele>
        <time>2022-08-01T06:49:08.499Z</time>
      </trkpt>
      <trkpt lat="44.35922" lon="1.14525">
        <ele>256.06845</ele>
        <time>2022-08-01T06:49:10.488Z</time>
      </trkpt>
      <trkpt lat="44.35915" lon="1.14506">
        <ele>256.024769</ele>
        <time>2022-08-01T06:49:12.489Z</time>
      </trkpt>
      <trkpt lat="44.35911" lon="1.14488">
        <ele>255.98537</ele>
        <time>2022-08-01T06:49:14.508Z</time>
      </trkpt>
      <trkpt lat="44.35908" lon="1.14468">
        <ele>255.942264</ele>
        <time>2022-08-01T06:49:16.483Z</time>
      </trkpt>
      <trkpt lat="44.35908" lon="1.14448">
        <ele>256.084461</ele>
        <time>2022-08-01T06:49:18.493Z</time>
      </trkpt>
      <trkpt lat="44.3591" lon="1.14428">
        <ele>256.308482</ele>
        <time>2022-08-01T06:49:20.491Z</time>
      </trkpt>
      <trkpt lat="44.35914" lon="1.14411">
        <ele>256.518153</ele>
        <time>2022-08-01T06:49:22.501Z</time>
      </trkpt>
      <trkpt lat="44.35916" lon="1.14391">
        <ele>256.75077</ele>
        <time>2022-08-01T06:49:24.460Z</time>
      </trkpt>
      <trkpt lat="44.35918" lon="1.14371">
        <ele>256.97932</ele>
        <time>2022-08-01T06:49:26.511Z</time>
      </trkpt>
      <trkpt lat="44.35919" lon="1.14353">
        <ele>257.179546</ele>
        <time>2022-08-01T06:49:28.499Z</time>
      </trkpt>
      <trkpt lat="44.3592" lon="1.14331">
        <ele>257.438293</ele>
        <time>2022-08-01T06:49:30.504Z</time>
      </trkpt>
      <trkpt lat="44.3592" lon="1.14309">
        <ele>257.68607</ele>
        <time>2022-08-01T06:49:32.508Z</time>
      </trkpt>
      <trkpt lat="44.35916" lon="1.14298">
        <ele>257.831021</ele>
        <time>2022-08-01T06:49:33.540Z</time>
      </trkpt>
      <trkpt lat="44.3591" lon="1.14279">
        <ele>258.059191</ele>
        <time>2022-08-01T06:49:35.500Z</time>
      </trkpt>
      <trkpt lat="44.35902" lon="1.14262">
        <ele>258.299338</ele>
        <time>2022-08-01T06:49:37.492Z</time>
      </trkpt>
      <trkpt lat="44.35895" lon="1.14244">
        <ele>258.538512</ele>
        <time>2022-08-01T06:49:39.491Z</time>
      </trkpt>
      <trkpt lat="44.35885" lon="1.14225">
        <ele>258.804301</ele>
        <time>2022-08-01T06:49:41.497Z</time>
      </trkpt>
      <trkpt lat="44.35879" lon="1.1421">
        <ele>259.013281</ele>
        <time>2022-08-01T06:49:43.488Z</time>
      </trkpt>
      <trkpt lat="44.35873" lon="1.14192">
        <ele>259.253488</ele>
        <time>2022-08-01T06:49:45.530Z</time>
      </trkpt>
      <trkpt lat="44.3587" lon="1.14179">
        <ele>259.415563</ele>
        <time>2022-08-01T06:49:46.494Z</time>
      </trkpt>
      <trkpt lat="44.35866" lon="1.14166">
        <ele>259.595525</ele>
        <time>2022-08-01T06:49:48.516Z</time>
      </trkpt>
      <trkpt lat="44.35859" lon="1.1415">
        <ele>259.827161</ele>
        <time>2022-08-01T06:49:50.501Z</time>
      </trkpt>
      <trkpt lat="44.35853" lon="1.14136">
        <ele>260.025074</ele>
        <time>2022-08-01T06:49:52.502Z</time>
      </trkpt>
      <trkpt lat="44.35848" lon="1.1412">
        <ele>260.231094</ele>
        <time>2022-08-01T06:49:54.501Z</time>
      </trkpt>
      <trkpt lat="44.35844" lon="1.14106">
        <ele>260.420769</ele>
        <time>2022-08-01T06:49:56.488Z</time>
      </trkpt>
      <trkpt lat="44.3584" lon="1.14091">
        <ele>260.622877</ele>
        <time>2022-08-01T06:49:58.497Z</time>
      </trkpt>
      <trkpt lat="44.35836" lon="1.14076">
        <ele>260.810807</ele>
        <time>2022-08-01T06:50:00.493Z</time>
      </trkpt>
      <trkpt lat="44.35832" lon="1.14062">
        <ele>261.000367</ele>
        <time>2022-08-01T06:50:02.498Z</time>
      </trkpt>
      <trkpt lat="44.35827" lon="1.14046">
        <ele>261.20669</ele>
        <time>2022-08-01T06:50:04.493Z</time>
      </trkpt>
      <trkpt lat="44.35823" lon="1.14032">
        <ele>261.398767</ele>
        <time>2022-08-01T06:50:06.485Z</time>
      </trkpt>
      <trkpt lat="44.35821" lon="1.14005">
        <ele>261.723976</ele>
        <time>2022-08-01T06:50:08.519Z</time>
      </trkpt>
      <trkpt lat="44.35817" lon="1.13985">
        <ele>261.786355</ele>
        <time>2022-08-01T06:50:10.491Z</time>
      </trkpt>
      <trkpt lat="44.35814" lon="1.13966">
        <ele>261.541255</ele>
        <time>2022-08-01T06:50:12.501Z</time>
      </trkpt>
      <trkpt lat="44.35812" lon="1.13941">
        <ele>261.223933</ele>
        <time>2022-08-01T06:50:14.492Z</time>
      </trkpt>
      <trkpt lat="44.35808" lon="1.13925">
        <ele>261.00051</ele>
        <time>2022-08-01T06:50:16.495Z</time>
      </trkpt>
      <trkpt lat="44.35806" lon="1.13909">
        <ele>260.793296</ele>
        <time>2022-08-01T06:50:18.495Z</time>
      </trkpt>
      <trkpt lat="44.35804" lon="1.13892">
        <ele>260.573872</ele>
        <time>2022-08-01T06:50:19.495Z</time>
      </trkpt>
      <trkpt lat="44.35802" lon="1.13871">
        <ele>260.314019</ele>
        <time>2022-08-01T06:50:21.519Z</time>
      </trkpt>
      <trkpt lat="44.35802" lon="1.13851">
        <ele>260.059103</ele>
        <time>2022-08-01T06:50:23.502Z</time>
      </trkpt>
      <trkpt lat="44.35802" lon="1.13828">
        <ele>259.767337</ele>
        <time>2022-08-01T06:50:25.505Z</time>
      </trkpt>
      <trkpt lat="44.35802" lon="1.13802">
        <ele>259.429682</ele>
        <time>2022-08-01T06:50:27.523Z</time>
      </trkpt>
      <trkpt lat="44.35802" lon="1.13776">
        <ele>259.101045</ele>
        <time>2022-08-01T06:50:29.499Z</time>
      </trkpt>
      <trkpt lat="44.358" lon="1.13762">
        <ele>258.92375</ele>
        <time>2022-08-01T06:50:30.493Z</time>
      </trkpt>
      <trkpt lat="44.35798" lon="1.13748">
        <ele>258.739327</ele>
        <time>2022-08-01T06:50:31.504Z</time>
      </trkpt>
      <trkpt lat="44.35795" lon="1.13736">
        <ele>258.472037</ele>
        <time>2022-08-01T06:50:32.497Z</time>
      </trkpt>
      <trkpt lat="44.35789" lon="1.13714">
        <ele>257.900338</ele>
        <time>2022-08-01T06:50:34.497Z</time>
      </trkpt>
      <trkpt lat="44.35785" lon="1.13691">
        <ele>257.297003</ele>
        <time>2022-08-01T06:50:36.477Z</time>
      </trkpt>
      <trkpt lat="44.35782" lon="1.13678">
        <ele>256.973382</ele>
        <time>2022-08-01T06:50:37.498Z</time>
      </trkpt>
      <trkpt lat="44.35775" lon="1.13657">
        <ele>256.398508</ele>
        <time>2022-08-01T06:50:39.532Z</time>
      </trkpt>
      <trkpt lat="44.35771" lon="1.13636">
        <ele>255.866936</ele>
        <time>2022-08-01T06:50:41.504Z</time>
      </trkpt>
      <trkpt lat="44.35764" lon="1.13617">
        <ele>255.346862</ele>
        <time>2022-08-01T06:50:43.491Z</time>
      </trkpt>
      <trkpt lat="44.35757" lon="1.13598">
        <ele>254.810252</ele>
        <time>2022-08-01T06:50:45.532Z</time>
      </trkpt>
      <trkpt lat="44.3575" lon="1.13576">
        <ele>254.210583</ele>
        <time>2022-08-01T06:50:47.497Z</time>
      </trkpt>
      <trkpt lat="44.35737" lon="1.13563">
        <ele>253.67687</ele>
        <time>2022-08-01T06:50:49.508Z</time>
      </trkpt>
      <trkpt lat="44.35727" lon="1.13547">
        <ele>253.137568</ele>
        <time>2022-08-01T06:50:51.525Z</time>
      </trkpt>
      <trkpt lat="44.35718" lon="1.13529">
        <ele>252.596467</ele>
        <time>2022-08-01T06:50:53.491Z</time>
      </trkpt>
      <trkpt lat="44.3571" lon="1.13511">
        <ele>252.295366</ele>
        <time>2022-08-01T06:50:55.486Z</time>
      </trkpt>
      <trkpt lat="44.35702" lon="1.13493">
        <ele>252.065683</ele>
        <time>2022-08-01T06:50:57.540Z</time>
      </trkpt>
      <trkpt lat="44.35695" lon="1.13476">
        <ele>251.841222</ele>
        <time>2022-08-01T06:50:59.498Z</time>
      </trkpt>
      <trkpt lat="44.35688" lon="1.13457">
        <ele>251.609883</ele>
        <time>2022-08-01T06:51:01.496Z</time>
      </trkpt>
      <trkpt lat="44.3568" lon="1.13437">
        <ele>251.354861</ele>
        <time>2022-08-01T06:51:03.543Z</time>
      </trkpt>
      <trkpt lat="44.35672" lon="1.1342">
        <ele>251.124368</ele>
        <time>2022-08-01T06:51:05.504Z</time>
      </trkpt>
      <trkpt lat="44.35665" lon="1.13404">
        <ele>250.919459</ele>
        <time>2022-08-01T06:51:07.510Z</time>
      </trkpt>
      <trkpt lat="44.35658" lon="1.13388">
        <ele>250.711371</ele>
        <time>2022-08-01T06:51:09.508Z</time>
      </trkpt>
      <trkpt lat="44.35652" lon="1.13373">
        <ele>250.520372</ele>
        <time>2022-08-01T06:51:11.499Z</time>
      </trkpt>
      <trkpt lat="44.35646" lon="1.13356">
        <ele>250.306403</ele>
        <time>2022-08-01T06:51:13.495Z</time>
      </trkpt>
      <trkpt lat="44.35638" lon="1.1334">
        <ele>250.099875</ele>
        <time>2022-08-01T06:51:15.541Z</time>
      </trkpt>
      <trkpt lat="44.3563" lon="1.13324">
        <ele>249.876095</ele>
        <time>2022-08-01T06:51:17.500Z</time>
      </trkpt>
      <trkpt lat="44.35621" lon="1.13311">
        <ele>249.720037</ele>
        <time>2022-08-01T06:51:19.492Z</time>
      </trkpt>
      <trkpt lat="44.3561" lon="1.13299">
        <ele>250.466492</ele>
        <time>2022-08-01T06:51:21.524Z</time>
      </trkpt>
      <trkpt lat="44.35599" lon="1.13289">
        <ele>251.196555</ele>
        <time>2022-08-01T06:51:23.494Z</time>
      </trkpt>
      <trkpt lat="44.35588" lon="1.13277">
        <ele>251.90738</ele>
        <time>2022-08-01T06:51:25.500Z</time>
      </trkpt>
      <trkpt lat="44.35579" lon="1.13265">
        <ele>252.607414</ele>
        <time>2022-08-01T06:51:27.516Z</time>
      </trkpt>
      <trkpt lat="44.3557" lon="1.13254">
        <ele>253.242117</ele>
        <time>2022-08-01T06:51:29.502Z</time>
      </trkpt>
      <trkpt lat="44.35563" lon="1.13242">
        <ele>253.858647</ele>
        <time>2022-08-01T06:51:31.496Z</time>
      </trkpt>
      <trkpt lat="44.35555" lon="1.1323">
        <ele>254.489247</ele>
        <time>2022-08-01T06:51:33.521Z</time>
      </trkpt>
      <trkpt lat="44.35547" lon="1.13222">
        <ele>255.015272</ele>
        <time>2022-08-01T06:51:35.496Z</time>
      </trkpt>
      <trkpt lat="44.35541" lon="1.13211">
        <ele>255.550993</ele>
        <time>2022-08-01T06:51:37.500Z</time>
      </trkpt>
      <trkpt lat="44.35533" lon="1.132">
        <ele>256.150461</ele>
        <time>2022-08-01T06:51:40.504Z</time>
      </trkpt>
      <trkpt lat="44.35525" lon="1.13187">
        <ele>256.81274</ele>
        <time>2022-08-01T06:51:43.488Z</time>
      </trkpt>
      <trkpt lat="44.35515" lon="1.13175">
        <ele>257.552146</ele>
        <time>2022-08-01T06:51:46.496Z</time>
      </trkpt>
      <trkpt lat="44.35507" lon="1.13162">
        <ele>258.211787</ele>
        <time>2022-08-01T06:51:49.512Z</time>
      </trkpt>
      <trkpt lat="44.35501" lon="1.13152">
        <ele>258.711987</ele>
        <time>2022-08-01T06:51:51.520Z</time>
      </trkpt>
      <trkpt lat="44.35494" lon="1.13134">
        <ele>259.480663</ele>
        <time>2022-08-01T06:51:54.496Z</time>
      </trkpt>
      <trkpt lat="44.35487" lon="1.13122">
        <ele>259.818789</ele>
        <time>2022-08-01T06:51:56.490Z</time>
      </trkpt>
      <trkpt lat="44.35482" lon="1.1311">
        <ele>260.116826</ele>
        <time>2022-08-01T06:51:58.499Z</time>
      </trkpt>
      <trkpt lat="44.35476" lon="1.13099">
        <ele>260.441434</ele>
        <time>2022-08-01T06:52:00.487Z</time>
      </trkpt>
      <trkpt lat="44.35467" lon="1.13087">
        <ele>260.805471</ele>
        <time>2022-08-01T06:52:03.521Z</time>
      </trkpt>
      <trkpt lat="44.35459" lon="1.13076">
        <ele>261.152733</ele>
        <time>2022-08-01T06:52:05.504Z</time>
      </trkpt>
      <trkpt lat="44.35455" lon="1.13058">
        <ele>261.572894</ele>
        <time>2022-08-01T06:52:07.491Z</time>
      </trkpt>
      <trkpt lat="44.35451" lon="1.13046">
        <ele>261.871302</ele>
        <time>2022-08-01T06:52:09.529Z</time>
      </trkpt>
      <trkpt lat="44.35448" lon="1.13033">
        <ele>262.162392</ele>
        <time>2022-08-01T06:52:11.483Z</time>
      </trkpt>
      <trkpt lat="44.35444" lon="1.1302">
        <ele>262.483518</ele>
        <time>2022-08-01T06:52:13.497Z</time>
      </trkpt>
      <trkpt lat="44.35442" lon="1.13007">
        <ele>262.768434</ele>
        <time>2022-08-01T06:52:15.525Z</time>
      </trkpt>
      <trkpt lat="44.35436" lon="1.12991">
        <ele>263.169048</ele>
        <time>2022-08-01T06:52:18.498Z</time>
      </trkpt>
      <trkpt lat="44.35433" lon="1.12979">
        <ele>263.466212</ele>
        <time>2022-08-01T06:52:20.504Z</time>
      </trkpt>
      <trkpt lat="44.35431" lon="1.12964">
        <ele>263.796615</ele>
        <time>2022-08-01T06:52:23.502Z</time>
      </trkpt>
      <trkpt lat="44.35429" lon="1.1295">
        <ele>264.121449</ele>
        <time>2022-08-01T06:52:26.476Z</time>
      </trkpt>
      <trkpt lat="44.35423" lon="1.12936">
        <ele>264.471557</ele>
        <time>2022-08-01T06:52:30.498Z</time>
      </trkpt>
      <trkpt lat="44.35416" lon="1.12925">
        <ele>264.790489</ele>
        <time>2022-08-01T06:52:33.543Z</time>
      </trkpt>
      <trkpt lat="44.3541" lon="1.12909">
        <ele>265.034602</ele>
        <time>2022-08-01T06:52:36.498Z</time>
      </trkpt>
      <trkpt lat="44.354" lon="1.12896">
        <ele>265.111269</ele>
        <time>2022-08-01T06:52:39.533Z</time>
      </trkpt>
      <trkpt lat="44.35392" lon="1.12889">
        <ele>265.165609</ele>
        <time>2022-08-01T06:52:41.497Z</time>
      </trkpt>
      <trkpt lat="44.35385" lon="1.12879">
        <ele>265.223499</ele>
        <time>2022-08-01T06:52:43.478Z</time>
      </trkpt>
      <trkpt lat="44.3538" lon="1.12867">
        <ele>265.28322</ele>
        <time>2022-08-01T06:52:44.483Z</time>
      </trkpt>
      <trkpt lat="44.35373" lon="1.12849">
        <ele>265.369465</ele>
        <time>2022-08-01T06:52:46.474Z</time>
      </trkpt>
      <trkpt lat="44.35363" lon="1.1283">
        <ele>265.469105</ele>
        <time>2022-08-01T06:52:48.500Z</time>
      </trkpt>
      <trkpt lat="44.35355" lon="1.12818">
        <ele>265.5354</ele>
        <time>2022-08-01T06:52:50.502Z</time>
      </trkpt>
      <trkpt lat="44.35348" lon="1.12801">
        <ele>265.61915</ele>
        <time>2022-08-01T06:52:52.486Z</time>
      </trkpt>
      <trkpt lat="44.35339" lon="1.12788">
        <ele>265.693203</ele>
        <time>2022-08-01T06:52:54.496Z</time>
      </trkpt>
      <trkpt lat="44.35327" lon="1.12766">
        <ele>265.81099</ele>
        <time>2022-08-01T06:52:56.488Z</time>
      </trkpt>
      <trkpt lat="44.35316" lon="1.12742">
        <ele>265.928969</ele>
        <time>2022-08-01T06:52:58.511Z</time>
      </trkpt>
      <trkpt lat="44.35309" lon="1.12722">
        <ele>266.02398</ele>
        <time>2022-08-01T06:53:00.491Z</time>
      </trkpt>
      <trkpt lat="44.353" lon="1.12701">
        <ele>265.623065</ele>
        <time>2022-08-01T06:53:02.486Z</time>
      </trkpt>
      <trkpt lat="44.35296" lon="1.12689">
        <ele>265.311806</ele>
        <time>2022-08-01T06:53:03.526Z</time>
      </trkpt>
      <trkpt lat="44.35288" lon="1.12663">
        <ele>264.662581</ele>
        <time>2022-08-01T06:53:05.516Z</time>
      </trkpt>
      <trkpt lat="44.35283" lon="1.12651">
        <ele>264.334399</ele>
        <time>2022-08-01T06:53:06.504Z</time>
      </trkpt>
      <trkpt lat="44.35279" lon="1.12638">
        <ele>264.003973</ele>
        <time>2022-08-01T06:53:07.501Z</time>
      </trkpt>
      <trkpt lat="44.35275" lon="1.12627">
        <ele>263.704567</ele>
        <time>2022-08-01T06:53:08.505Z</time>
      </trkpt>
      <trkpt lat="44.35263" lon="1.12601">
        <ele>262.979003</ele>
        <time>2022-08-01T06:53:10.500Z</time>
      </trkpt>
      <trkpt lat="44.35258" lon="1.12586">
        <ele>262.594041</ele>
        <time>2022-08-01T06:53:11.489Z</time>
      </trkpt>
      <trkpt lat="44.35252" lon="1.12575">
        <ele>262.268121</ele>
        <time>2022-08-01T06:53:12.499Z</time>
      </trkpt>
      <trkpt lat="44.35241" lon="1.1255">
        <ele>261.596942</ele>
        <time>2022-08-01T06:53:14.495Z</time>
      </trkpt>
      <trkpt lat="44.35237" lon="1.12538">
        <ele>261.28145</ele>
        <time>2022-08-01T06:53:15.511Z</time>
      </trkpt>
      <trkpt lat="44.35232" lon="1.12523">
        <ele>260.89841</ele>
        <time>2022-08-01T06:53:16.492Z</time>
      </trkpt>
      <trkpt lat="44.35226" lon="1.12512">
        <ele>260.568963</ele>
        <time>2022-08-01T06:53:17.515Z</time>
      </trkpt>
      <trkpt lat="44.35222" lon="1.12499">
        <ele>260.229045</ele>
        <time>2022-08-01T06:53:18.496Z</time>
      </trkpt>
      <trkpt lat="44.35217" lon="1.12487">
        <ele>260.20823</ele>
        <time>2022-08-01T06:53:19.491Z</time>
      </trkpt>
      <trkpt lat="44.35211" lon="1.12475">
        <ele>260.261281</ele>
        <time>2022-08-01T06:53:20.511Z</time>
      </trkpt>
      <trkpt lat="44.35206" lon="1.12464">
        <ele>260.308718</ele>
        <time>2022-08-01T06:53:21.520Z</time>
      </trkpt>
      <trkpt lat="44.35196" lon="1.12443">
        <ele>260.40305</ele>
        <time>2022-08-01T06:53:23.484Z</time>
      </trkpt>
      <trkpt lat="44.35187" lon="1.12424">
        <ele>260.489968</ele>
        <time>2022-08-01T06:53:25.506Z</time>
      </trkpt>
      <trkpt lat="44.35179" lon="1.12402">
        <ele>260.583941</ele>
        <time>2022-08-01T06:53:27.538Z</time>
      </trkpt>
      <trkpt lat="44.35168" lon="1.12386">
        <ele>260.66388</ele>
        <time>2022-08-01T06:53:29.510Z</time>
      </trkpt>
      <trkpt lat="44.35156" lon="1.12366">
        <ele>260.763606</ele>
        <time>2022-08-01T06:53:31.499Z</time>
      </trkpt>
      <trkpt lat="44.35144" lon="1.12349">
        <ele>260.852611</ele>
        <time>2022-08-01T06:53:33.525Z</time>
      </trkpt>
      <trkpt lat="44.3514" lon="1.12336">
        <ele>260.905384</ele>
        <time>2022-08-01T06:53:34.492Z</time>
      </trkpt>
      <trkpt lat="44.35133" lon="1.12317">
        <ele>260.985689</ele>
        <time>2022-08-01T06:53:36.504Z</time>
      </trkpt>
      <trkpt lat="44.35129" lon="1.12303">
        <ele>261.041654</ele>
        <time>2022-08-01T06:53:37.502Z</time>
      </trkpt>
      <trkpt lat="44.35121" lon="1.12285">
        <ele>261.077109</ele>
        <time>2022-08-01T06:53:39.538Z</time>
      </trkpt>
      <trkpt lat="44.35118" lon="1.12271">
        <ele>260.949031</ele>
        <time>2022-08-01T06:53:40.498Z</time>
      </trkpt>
      <trkpt lat="44.35115" lon="1.12259">
        <ele>260.8325</ele>
        <time>2022-08-01T06:53:41.492Z</time>
      </trkpt>
      <trkpt lat="44.35113" lon="1.12245">
        <ele>260.710802</ele>
        <time>2022-08-01T06:53:42.470Z</time>
      </trkpt>
      <trkpt lat="44.35112" lon="1.12229">
        <ele>260.564071</ele>
        <time>2022-08-01T06:53:43.482Z</time>
      </trkpt>
      <trkpt lat="44.35108" lon="1.12207">
        <ele>260.358548</ele>
        <time>2022-08-01T06:53:45.527Z</time>
      </trkpt>
      <trkpt lat="44.35104" lon="1.12192">
        <ele>260.215924</ele>
        <time>2022-08-01T06:53:47.514Z</time>
      </trkpt>
      <trkpt lat="44.35101" lon="1.1217">
        <ele>260.013619</ele>
        <time>2022-08-01T06:53:49.506Z</time>
      </trkpt>
      <trkpt lat="44.35099" lon="1.12156">
        <ele>259.887819</ele>
        <time>2022-08-01T06:53:50.497Z</time>
      </trkpt>
      <trkpt lat="44.35096" lon="1.12135">
        <ele>259.701523</ele>
        <time>2022-08-01T06:53:52.500Z</time>
      </trkpt>
      <trkpt lat="44.35094" lon="1.12123">
        <ele>259.585876</ele>
        <time>2022-08-01T06:53:53.502Z</time>
      </trkpt>
      <trkpt lat="44.35093" lon="1.12108">
        <ele>259.449114</ele>
        <time>2022-08-01T06:53:54.492Z</time>
      </trkpt>
      <trkpt lat="44.3509" lon="1.12084">
        <ele>259.234629</ele>
        <time>2022-08-01T06:53:56.497Z</time>
      </trkpt>
      <trkpt lat="44.35089" lon="1.12069">
        <ele>259.103131</ele>
        <time>2022-08-01T06:53:57.519Z</time>
      </trkpt>
      <trkpt lat="44.35087" lon="1.12049">
        <ele>258.915768</ele>
        <time>2022-08-01T06:53:59.484Z</time>
      </trkpt>
      <trkpt lat="44.35086" lon="1.12027">
        <ele>258.979217</ele>
        <time>2022-08-01T06:54:02.502Z</time>
      </trkpt>
      <trkpt lat="44.35076" lon="1.12005">
        <ele>259.176016</ele>
        <time>2022-08-01T06:54:04.484Z</time>
      </trkpt>
      <trkpt lat="44.35066" lon="1.11986">
        <ele>259.365865</ele>
        <time>2022-08-01T06:54:06.505Z</time>
      </trkpt>
      <trkpt lat="44.35057" lon="1.11969">
        <ele>259.523729</ele>
        <time>2022-08-01T06:54:08.502Z</time>
      </trkpt>
      <trkpt lat="44.35049" lon="1.1195">
        <ele>259.695089</ele>
        <time>2022-08-01T06:54:10.477Z</time>
      </trkpt>
      <trkpt lat="44.3504" lon="1.11933">
        <ele>259.858603</ele>
        <time>2022-08-01T06:54:12.514Z</time>
      </trkpt>
      <trkpt lat="44.35031" lon="1.11916">
        <ele>260.018347</ele>
        <time>2022-08-01T06:54:14.494Z</time>
      </trkpt>
      <trkpt lat="44.35022" lon="1.11902">
        <ele>260.167922</ele>
        <time>2022-08-01T06:54:16.483Z</time>
      </trkpt>
      <trkpt lat="44.35007" lon="1.11884">
        <ele>260.376506</ele>
        <time>2022-08-01T06:54:18.493Z</time>
      </trkpt>
      <trkpt lat="44.34999" lon="1.11872">
        <ele>260.504404</ele>
        <time>2022-08-01T06:54:19.489Z</time>
      </trkpt>
      <trkpt lat="44.34983" lon="1.11863">
        <ele>260.684741</ele>
        <time>2022-08-01T06:54:21.511Z</time>
      </trkpt>
      <trkpt lat="44.34968" lon="1.11861">
        <ele>260.925162</ele>
        <time>2022-08-01T06:54:23.502Z</time>
      </trkpt>
      <trkpt lat="44.34953" lon="1.11859">
        <ele>261.266377</ele>
        <time>2022-08-01T06:54:25.500Z</time>
      </trkpt>
      <trkpt lat="44.3494" lon="1.1186">
        <ele>261.59477</ele>
        <time>2022-08-01T06:54:27.541Z</time>
      </trkpt>
      <trkpt lat="44.34927" lon="1.1186">
        <ele>261.901094</ele>
        <time>2022-08-01T06:54:29.494Z</time>
      </trkpt>
      <trkpt lat="44.34913" lon="1.11859">
        <ele>262.231188</ele>
        <time>2022-08-01T06:54:31.494Z</time>
      </trkpt>
      <trkpt lat="44.34903" lon="1.11859">
        <ele>262.468622</ele>
        <time>2022-08-01T06:54:34.486Z</time>
      </trkpt>
      <trkpt lat="44.3489" lon="1.11861">
        <ele>262.7815</ele>
        <time>2022-08-01T06:54:37.496Z</time>
      </trkpt>
      <trkpt lat="44.34878" lon="1.11858">
        <ele>263.066257</ele>
        <time>2022-08-01T06:54:39.532Z</time>
      </trkpt>
      <trkpt lat="44.34866" lon="1.11855">
        <ele>263.348374</ele>
        <time>2022-08-01T06:54:41.497Z</time>
      </trkpt>
      <trkpt lat="44.34854" lon="1.1185">
        <ele>263.642635</ele>
        <time>2022-08-01T06:54:43.483Z</time>
      </trkpt>
      <trkpt lat="44.34844" lon="1.11839">
        <ele>263.951105</ele>
        <time>2022-08-01T06:54:45.526Z</time>
      </trkpt>
      <trkpt lat="44.34829" lon="1.11829">
        <ele>264.335592</ele>
        <time>2022-08-01T06:54:47.494Z</time>
      </trkpt>
      <trkpt lat="44.34817" lon="1.11817">
        <ele>264.698489</ele>
        <time>2022-08-01T06:54:49.492Z</time>
      </trkpt>
      <trkpt lat="44.34803" lon="1.11804">
        <ele>265.038248</ele>
        <time>2022-08-01T06:54:51.527Z</time>
      </trkpt>
      <trkpt lat="44.3479" lon="1.11791">
        <ele>264.577608</ele>
        <time>2022-08-01T06:54:53.494Z</time>
      </trkpt>
      <trkpt lat="44.34776" lon="1.11775">
        <ele>264.061785</ele>
        <time>2022-08-01T06:54:55.488Z</time>
      </trkpt>
      <trkpt lat="44.34764" lon="1.11758">
        <ele>263.567297</ele>
        <time>2022-08-01T06:54:57.558Z</time>
      </trkpt>
      <trkpt lat="44.34752" lon="1.11741">
        <ele>263.094811</ele>
        <time>2022-08-01T06:54:59.495Z</time>
      </trkpt>
      <trkpt lat="44.34746" lon="1.11731">
        <ele>262.818752</ele>
        <time>2022-08-01T06:55:00.503Z</time>
      </trkpt>
      <trkpt lat="44.34739" lon="1.11722">
        <ele>262.547644</ele>
        <time>2022-08-01T06:55:01.481Z</time>
      </trkpt>
      <trkpt lat="44.34728" lon="1.11707">
        <ele>262.094529</ele>
        <time>2022-08-01T06:55:03.511Z</time>
      </trkpt>
      <trkpt lat="44.34716" lon="1.11692">
        <ele>261.636229</ele>
        <time>2022-08-01T06:55:05.491Z</time>
      </trkpt>
      <trkpt lat="44.34704" lon="1.11679">
        <ele>261.201926</ele>
        <time>2022-08-01T06:55:07.483Z</time>
      </trkpt>
      <trkpt lat="44.34697" lon="1.11669">
        <ele>260.924831</ele>
        <time>2022-08-01T06:55:08.493Z</time>
      </trkpt>
      <trkpt lat="44.3469" lon="1.1166">
        <ele>260.647256</ele>
        <time>2022-08-01T06:55:09.517Z</time>
      </trkpt>
      <trkpt lat="44.34682" lon="1.11651">
        <ele>260.342545</ele>
        <time>2022-08-01T06:55:10.478Z</time>
      </trkpt>
      <trkpt lat="44.34669" lon="1.11637">
        <ele>259.871574</ele>
        <time>2022-08-01T06:55:12.495Z</time>
      </trkpt>
      <trkpt lat="44.34656" lon="1.11624">
        <ele>259.300727</ele>
        <time>2022-08-01T06:55:14.500Z</time>
      </trkpt>
      <trkpt lat="44.34644" lon="1.11613">
        <ele>258.806291</ele>
        <time>2022-08-01T06:55:16.491Z</time>
      </trkpt>
      <trkpt lat="44.34631" lon="1.11598">
        <ele>258.197636</ele>
        <time>2022-08-01T06:55:18.498Z</time>
      </trkpt>
      <trkpt lat="44.3462" lon="1.11584">
        <ele>257.677774</ele>
        <time>2022-08-01T06:55:20.505Z</time>
      </trkpt>
      <trkpt lat="44.34611" lon="1.11565">
        <ele>257.096045</ele>
        <time>2022-08-01T06:55:22.505Z</time>
      </trkpt>
      <trkpt lat="44.34603" lon="1.11547">
        <ele>256.55037</ele>
        <time>2022-08-01T06:55:24.488Z</time>
      </trkpt>
      <trkpt lat="44.34597" lon="1.1153">
        <ele>256.075378</ele>
        <time>2022-08-01T06:55:26.484Z</time>
      </trkpt>
      <trkpt lat="44.34592" lon="1.11519">
        <ele>255.750145</ele>
        <time>2022-08-01T06:55:27.508Z</time>
      </trkpt>
      <trkpt lat="44.34587" lon="1.11509">
        <ele>255.424834</ele>
        <time>2022-08-01T06:55:28.508Z</time>
      </trkpt>
      <trkpt lat="44.34583" lon="1.11491">
        <ele>254.940688</ele>
        <time>2022-08-01T06:55:30.496Z</time>
      </trkpt>
      <trkpt lat="44.34578" lon="1.11474">
        <ele>254.481554</ele>
        <time>2022-08-01T06:55:32.500Z</time>
      </trkpt>
      <trkpt lat="44.34574" lon="1.11451">
        <ele>253.87246</ele>
        <time>2022-08-01T06:55:34.517Z</time>
      </trkpt>
      <trkpt lat="44.34564" lon="1.11434">
        <ele>253.372469</ele>
        <time>2022-08-01T06:55:36.496Z</time>
      </trkpt>
      <trkpt lat="44.34552" lon="1.11417">
        <ele>252.940229</ele>
        <time>2022-08-01T06:55:38.536Z</time>
      </trkpt>
      <trkpt lat="44.34542" lon="1.11403">
        <ele>252.564353</ele>
        <time>2022-08-01T06:55:40.504Z</time>
      </trkpt>
      <trkpt lat="44.3453" lon="1.11389">
        <ele>252.179984</ele>
        <time>2022-08-01T06:55:42.477Z</time>
      </trkpt>
      <trkpt lat="44.3452" lon="1.11374">
        <ele>251.798401</ele>
        <time>2022-08-01T06:55:44.530Z</time>
      </trkpt>
      <trkpt lat="44.34509" lon="1.11357">
        <ele>251.386796</ele>
        <time>2022-08-01T06:55:46.492Z</time>
      </trkpt>
      <trkpt lat="44.34499" lon="1.11343">
        <ele>251.021498</ele>
        <time>2022-08-01T06:55:48.480Z</time>
      </trkpt>
      <trkpt lat="44.34492" lon="1.11329">
        <ele>250.705058</ele>
        <time>2022-08-01T06:55:49.496Z</time>
      </trkpt>
      <trkpt lat="44.34482" lon="1.11316">
        <ele>250.374399</ele>
        <time>2022-08-01T06:55:51.490Z</time>
      </trkpt>
      <trkpt lat="44.34471" lon="1.11308">
        <ele>250.051742</ele>
        <time>2022-08-01T06:55:53.490Z</time>
      </trkpt>
      <trkpt lat="44.34458" lon="1.11301">
        <ele>249.675627</ele>
        <time>2022-08-01T06:55:55.481Z</time>
      </trkpt>
      <trkpt lat="44.34443" lon="1.11292">
        <ele>249.272421</ele>
        <time>2022-08-01T06:55:57.495Z</time>
      </trkpt>
      <trkpt lat="44.34428" lon="1.11285">
        <ele>249.023052</ele>
        <time>2022-08-01T06:55:59.460Z</time>
      </trkpt>
      <trkpt lat="44.34417" lon="1.11277">
        <ele>249.908349</ele>
        <time>2022-08-01T06:56:01.494Z</time>
      </trkpt>
      <trkpt lat="44.34403" lon="1.11265">
        <ele>250.989911</ele>
        <time>2022-08-01T06:56:03.501Z</time>
      </trkpt>
      <trkpt lat="44.34392" lon="1.11254">
        <ele>251.913079</ele>
        <time>2022-08-01T06:56:05.503Z</time>
      </trkpt>
      <trkpt lat="44.34381" lon="1.11239">
        <ele>253.018337</ele>
        <time>2022-08-01T06:56:07.511Z</time>
      </trkpt>
      <trkpt lat="44.3437" lon="1.11226">
        <ele>253.994078</ele>
        <time>2022-08-01T06:56:09.494Z</time>
      </trkpt>
      <trkpt lat="44.3436" lon="1.11214">
        <ele>254.86078</ele>
        <time>2022-08-01T06:56:11.492Z</time>
      </trkpt>
      <trkpt lat="44.34349" lon="1.11201">
        <ele>255.857319</ele>
        <time>2022-08-01T06:56:13.505Z</time>
      </trkpt>
      <trkpt lat="44.34337" lon="1.11189">
        <ele>256.868986</ele>
        <time>2022-08-01T06:56:15.499Z</time>
      </trkpt>
      <trkpt lat="44.34326" lon="1.11175">
        <ele>257.888591</ele>
        <time>2022-08-01T06:56:17.504Z</time>
      </trkpt>
      <trkpt lat="44.34317" lon="1.1117">
        <ele>258.546524</ele>
        <time>2022-08-01T06:56:20.526Z</time>
      </trkpt>
      <trkpt lat="44.34309" lon="1.11159">
        <ele>259.326271</ele>
        <time>2022-08-01T06:56:22.495Z</time>
      </trkpt>
      <trkpt lat="44.34299" lon="1.1114">
        <ele>260.493183</ele>
        <time>2022-08-01T06:56:24.491Z</time>
      </trkpt>
      <trkpt lat="44.34288" lon="1.11122">
        <ele>261.206494</ele>
        <time>2022-08-01T06:56:26.530Z</time>
      </trkpt>
      <trkpt lat="44.34274" lon="1.11112">
        <ele>261.146897</ele>
        <time>2022-08-01T06:56:28.501Z</time>
      </trkpt>
      <trkpt lat="44.34261" lon="1.11102">
        <ele>261.085807</ele>
        <time>2022-08-01T06:56:30.499Z</time>
      </trkpt>
      <trkpt lat="44.34253" lon="1.11094">
        <ele>261.048284</ele>
        <time>2022-08-01T06:56:31.483Z</time>
      </trkpt>
      <trkpt lat="44.34238" lon="1.11082">
        <ele>260.979702</ele>
        <time>2022-08-01T06:56:33.483Z</time>
      </trkpt>
      <trkpt lat="44.34226" lon="1.1107">
        <ele>260.920987</ele>
        <time>2022-08-01T06:56:35.485Z</time>
      </trkpt>
      <trkpt lat="44.3421" lon="1.1106">
        <ele>260.853354</ele>
        <time>2022-08-01T06:56:37.492Z</time>
      </trkpt>
      <trkpt lat="44.34198" lon="1.11056">
        <ele>260.802719</ele>
        <time>2022-08-01T06:56:39.504Z</time>
      </trkpt>
      <trkpt lat="44.34186" lon="1.11058">
        <ele>260.755053</ele>
        <time>2022-08-01T06:56:41.498Z</time>
      </trkpt>
      <trkpt lat="44.3417" lon="1.11058">
        <ele>260.694655</ele>
        <time>2022-08-01T06:56:43.481Z</time>
      </trkpt>
      <trkpt lat="44.34159" lon="1.11056">
        <ele>260.649068</ele>
        <time>2022-08-01T06:56:45.509Z</time>
      </trkpt>
      <trkpt lat="44.34144" lon="1.11056">
        <ele>260.591813</ele>
        <time>2022-08-01T06:56:47.503Z</time>
      </trkpt>
      <trkpt lat="44.34133" lon="1.11053">
        <ele>260.546856</ele>
        <time>2022-08-01T06:56:49.482Z</time>
      </trkpt>
      <trkpt lat="44.3412" lon="1.11052">
        <ele>260.701451</ele>
        <time>2022-08-01T06:56:51.488Z</time>
      </trkpt>
      <trkpt lat="44.34107" lon="1.11049">
        <ele>261.098599</ele>
        <time>2022-08-01T06:56:53.494Z</time>
      </trkpt>
      <trkpt lat="44.34092" lon="1.11047">
        <ele>261.534463</ele>
        <time>2022-08-01T06:56:55.488Z</time>
      </trkpt>
      <trkpt lat="44.34079" lon="1.11045">
        <ele>261.897213</ele>
        <time>2022-08-01T06:56:57.495Z</time>
      </trkpt>
      <trkpt lat="44.34064" lon="1.11041">
        <ele>262.323414</ele>
        <time>2022-08-01T06:56:59.496Z</time>
      </trkpt>
      <trkpt lat="44.34049" lon="1.11036">
        <ele>262.775963</ele>
        <time>2022-08-01T06:57:01.494Z</time>
      </trkpt>
      <trkpt lat="44.34038" lon="1.11033">
        <ele>263.097287</ele>
        <time>2022-08-01T06:57:03.501Z</time>
      </trkpt>
      <trkpt lat="44.34028" lon="1.11034">
        <ele>263.405835</ele>
        <time>2022-08-01T06:57:05.503Z</time>
      </trkpt>
      <trkpt lat="44.34014" lon="1.11034">
        <ele>263.808832</ele>
        <time>2022-08-01T06:57:07.518Z</time>
      </trkpt>
      <trkpt lat="44.34" lon="1.11031">
        <ele>264.218396</ele>
        <time>2022-08-01T06:57:10.506Z</time>
      </trkpt>
      <trkpt lat="44.33982" lon="1.11023">
        <ele>264.740142</ele>
        <time>2022-08-01T06:57:12.497Z</time>
      </trkpt>
      <trkpt lat="44.33966" lon="1.11013">
        <ele>265.255748</ele>
        <time>2022-08-01T06:57:14.535Z</time>
      </trkpt>
      <trkpt lat="44.33955" lon="1.10998">
        <ele>265.674053</ele>
        <time>2022-08-01T06:57:16.501Z</time>
      </trkpt>
      <trkpt lat="44.33944" lon="1.10984">
        <ele>264.54577</ele>
        <time>2022-08-01T06:57:18.495Z</time>
      </trkpt>
      <trkpt lat="44.33936" lon="1.10968">
        <ele>263.480881</ele>
        <time>2022-08-01T06:57:20.531Z</time>
      </trkpt>
      <trkpt lat="44.33927" lon="1.10951">
        <ele>262.322384</ele>
        <time>2022-08-01T06:57:22.514Z</time>
      </trkpt>
      <trkpt lat="44.33918" lon="1.10936">
        <ele>261.252718</ele>
        <time>2022-08-01T06:57:24.496Z</time>
      </trkpt>
      <trkpt lat="44.3391" lon="1.10919">
        <ele>260.173835</ele>
        <time>2022-08-01T06:57:26.530Z</time>
      </trkpt>
      <trkpt lat="44.33898" lon="1.10908">
        <ele>259.062398</ele>
        <time>2022-08-01T06:57:28.497Z</time>
      </trkpt>
      <trkpt lat="44.33891" lon="1.10901">
        <ele>258.365594</ele>
        <time>2022-08-01T06:57:29.510Z</time>
      </trkpt>
      <trkpt lat="44.33879" lon="1.10894">
        <ele>257.340008</ele>
        <time>2022-08-01T06:57:31.493Z</time>
      </trkpt>
      <trkpt lat="44.33865" lon="1.1089">
        <ele>256.258262</ele>
        <time>2022-08-01T06:57:33.501Z</time>
      </trkpt>
      <trkpt lat="44.33852" lon="1.1089">
        <ele>255.293072</ele>
        <time>2022-08-01T06:57:35.484Z</time>
      </trkpt>
      <trkpt lat="44.33838" lon="1.10887">
        <ele>254.231814</ele>
        <time>2022-08-01T06:57:37.510Z</time>
      </trkpt>
      <trkpt lat="44.33825" lon="1.10882">
        <ele>253.197674</ele>
        <time>2022-08-01T06:57:39.495Z</time>
      </trkpt>
      <trkpt lat="44.33811" lon="1.10874">
        <ele>251.980371</ele>
        <time>2022-08-01T06:57:41.492Z</time>
      </trkpt>
      <trkpt lat="44.33798" lon="1.10863">
        <ele>252.17375</ele>
        <time>2022-08-01T06:57:43.489Z</time>
      </trkpt>
      <trkpt lat="44.33785" lon="1.10849">
        <ele>252.471975</ele>
        <time>2022-08-01T06:57:45.488Z</time>
      </trkpt>
      <trkpt lat="44.33775" lon="1.10834">
        <ele>252.739457</ele>
        <time>2022-08-01T06:57:47.490Z</time>
      </trkpt>
      <trkpt lat="44.33766" lon="1.1082">
        <ele>252.988663</ele>
        <time>2022-08-01T06:57:49.485Z</time>
      </trkpt>
      <trkpt lat="44.33757" lon="1.10803">
        <ele>253.260823</ele>
        <time>2022-08-01T06:57:51.490Z</time>
      </trkpt>
      <trkpt lat="44.33748" lon="1.10791">
        <ele>253.491944</ele>
        <time>2022-08-01T06:57:53.496Z</time>
      </trkpt>
      <trkpt lat="44.33738" lon="1.10776">
        <ele>253.758059</ele>
        <time>2022-08-01T06:57:55.493Z</time>
      </trkpt>
      <trkpt lat="44.33728" lon="1.10761">
        <ele>254.020399</ele>
        <time>2022-08-01T06:57:57.485Z</time>
      </trkpt>
      <trkpt lat="44.33718" lon="1.10746">
        <ele>254.294465</ele>
        <time>2022-08-01T06:57:59.493Z</time>
      </trkpt>
      <trkpt lat="44.33708" lon="1.10734">
        <ele>254.541266</ele>
        <time>2022-08-01T06:58:01.491Z</time>
      </trkpt>
      <trkpt lat="44.33695" lon="1.10723">
        <ele>254.815666</ele>
        <time>2022-08-01T06:58:03.509Z</time>
      </trkpt>
      <trkpt lat="44.33682" lon="1.10711">
        <ele>255.097998</ele>
        <time>2022-08-01T06:58:05.499Z</time>
      </trkpt>
      <trkpt lat="44.33669" lon="1.107">
        <ele>255.741706</ele>
        <time>2022-08-01T06:58:07.499Z</time>
      </trkpt>
      <trkpt lat="44.33657" lon="1.10691">
        <ele>256.52187</ele>
        <time>2022-08-01T06:58:09.497Z</time>
      </trkpt>
      <trkpt lat="44.33646" lon="1.10685">
        <ele>257.224675</ele>
        <time>2022-08-01T06:58:11.491Z</time>
      </trkpt>
      <trkpt lat="44.33633" lon="1.10678">
        <ele>257.995706</ele>
        <time>2022-08-01T06:58:13.497Z</time>
      </trkpt>
      <trkpt lat="44.33621" lon="1.10669">
        <ele>258.776337</ele>
        <time>2022-08-01T06:58:15.495Z</time>
      </trkpt>
      <trkpt lat="44.33609" lon="1.10658">
        <ele>259.587754</ele>
        <time>2022-08-01T06:58:17.491Z</time>
      </trkpt>
      <trkpt lat="44.33597" lon="1.10648">
        <ele>260.385862</ele>
        <time>2022-08-01T06:58:19.497Z</time>
      </trkpt>
      <trkpt lat="44.33588" lon="1.10634">
        <ele>261.152228</ele>
        <time>2022-08-01T06:58:21.500Z</time>
      </trkpt>
      <trkpt lat="44.33578" lon="1.10625">
        <ele>261.875681</ele>
        <time>2022-08-01T06:58:23.484Z</time>
      </trkpt>
      <trkpt lat="44.33567" lon="1.1062">
        <ele>262.504387</ele>
        <time>2022-08-01T06:58:24.487Z</time>
      </trkpt>
      <trkpt lat="44.33555" lon="1.10597">
        <ele>263.659567</ele>
        <time>2022-08-01T06:58:26.526Z</time>
      </trkpt>
      <trkpt lat="44.33546" lon="1.10595">
        <ele>264.191987</ele>
        <time>2022-08-01T06:58:28.502Z</time>
      </trkpt>
      <trkpt lat="44.33535" lon="1.1059">
        <ele>264.885422</ele>
        <time>2022-08-01T06:58:30.488Z</time>
      </trkpt>
      <trkpt lat="44.33522" lon="1.10584">
        <ele>265.538543</ele>
        <time>2022-08-01T06:58:32.525Z</time>
      </trkpt>
      <trkpt lat="44.33506" lon="1.10581">
        <ele>265.624343</ele>
        <time>2022-08-01T06:58:34.489Z</time>
      </trkpt>
      <trkpt lat="44.33492" lon="1.10578">
        <ele>265.704113</ele>
        <time>2022-08-01T06:58:36.511Z</time>
      </trkpt>
      <trkpt lat="44.33479" lon="1.10571">
        <ele>265.782957</ele>
        <time>2022-08-01T06:58:38.530Z</time>
      </trkpt>
      <trkpt lat="44.33464" lon="1.10568">
        <ele>265.865629</ele>
        <time>2022-08-01T06:58:40.489Z</time>
      </trkpt>
      <trkpt lat="44.33451" lon="1.10565">
        <ele>265.936899</ele>
        <time>2022-08-01T06:58:42.480Z</time>
      </trkpt>
      <trkpt lat="44.33435" lon="1.10559">
        <ele>266.028079</ele>
        <time>2022-08-01T06:58:44.529Z</time>
      </trkpt>
      <trkpt lat="44.3342" lon="1.10555">
        <ele>266.116382</ele>
        <time>2022-08-01T06:58:46.496Z</time>
      </trkpt>
      <trkpt lat="44.3341" lon="1.10552">
        <ele>266.169896</ele>
        <time>2022-08-01T06:58:47.497Z</time>
      </trkpt>
      <trkpt lat="44.33394" lon="1.10549">
        <ele>266.259423</ele>
        <time>2022-08-01T06:58:49.486Z</time>
      </trkpt>
      <trkpt lat="44.33386" lon="1.10542">
        <ele>266.312423</ele>
        <time>2022-08-01T06:58:55.491Z</time>
      </trkpt>
      <trkpt lat="44.33376" lon="1.1054">
        <ele>266.367231</ele>
        <time>2022-08-01T06:59:01.503Z</time>
      </trkpt>
      <trkpt lat="44.33362" lon="1.10535">
        <ele>266.449651</ele>
        <time>2022-08-01T06:59:04.492Z</time>
      </trkpt>
      <trkpt lat="44.3335" lon="1.10529">
        <ele>266.517755</ele>
        <time>2022-08-01T06:59:06.494Z</time>
      </trkpt>
      <trkpt lat="44.3334" lon="1.10521">
        <ele>266.548094</ele>
        <time>2022-08-01T06:59:08.522Z</time>
      </trkpt>
      <trkpt lat="44.33331" lon="1.10513">
        <ele>266.573363</ele>
        <time>2022-08-01T06:59:10.500Z</time>
      </trkpt>
      <trkpt lat="44.3332" lon="1.10506">
        <ele>266.603017</ele>
        <time>2022-08-01T06:59:12.493Z</time>
      </trkpt>
      <trkpt lat="44.3331" lon="1.10494">
        <ele>266.634457</ele>
        <time>2022-08-01T06:59:14.516Z</time>
      </trkpt>
      <trkpt lat="44.33296" lon="1.10489">
        <ele>266.670988</ele>
        <time>2022-08-01T06:59:16.498Z</time>
      </trkpt>
      <trkpt lat="44.33283" lon="1.10481">
        <ele>266.707374</ele>
        <time>2022-08-01T06:59:18.505Z</time>
      </trkpt>
      <trkpt lat="44.33267" lon="1.10475">
        <ele>266.747227</ele>
        <time>2022-08-01T06:59:20.523Z</time>
      </trkpt>
      <trkpt lat="44.33258" lon="1.10472">
        <ele>266.771003</ele>
        <time>2022-08-01T06:59:21.485Z</time>
      </trkpt>
      <trkpt lat="44.33249" lon="1.10469">
        <ele>266.793994</ele>
        <time>2022-08-01T06:59:22.497Z</time>
      </trkpt>
      <trkpt lat="44.33235" lon="1.10463">
        <ele>266.82788</ele>
        <time>2022-08-01T06:59:24.498Z</time>
      </trkpt>
      <trkpt lat="44.33222" lon="1.10457">
        <ele>266.862814</ele>
        <time>2022-08-01T06:59:26.521Z</time>
      </trkpt>
      <trkpt lat="44.33207" lon="1.10449">
        <ele>266.901127</ele>
        <time>2022-08-01T06:59:28.494Z</time>
      </trkpt>
      <trkpt lat="44.33191" lon="1.10441">
        <ele>266.945478</ele>
        <time>2022-08-01T06:59:30.485Z</time>
      </trkpt>
      <trkpt lat="44.3318" lon="1.10428">
        <ele>265.841761</ele>
        <time>2022-08-01T06:59:32.515Z</time>
      </trkpt>
      <trkpt lat="44.33168" lon="1.10409">
        <ele>262.823591</ele>
        <time>2022-08-01T06:59:34.493Z</time>
      </trkpt>
      <trkpt lat="44.33162" lon="1.10399">
        <ele>261.16055</ele>
        <time>2022-08-01T06:59:35.471Z</time>
      </trkpt>
      <trkpt lat="44.33155" lon="1.10387">
        <ele>259.3254</ele>
        <time>2022-08-01T06:59:36.494Z</time>
      </trkpt>
      <trkpt lat="44.33145" lon="1.10372">
        <ele>256.833354</ele>
        <time>2022-08-01T06:59:38.527Z</time>
      </trkpt>
      <trkpt lat="44.33134" lon="1.10359">
        <ele>254.500889</ele>
        <time>2022-08-01T06:59:40.492Z</time>
      </trkpt>
      <trkpt lat="44.33125" lon="1.10346">
        <ele>252.270277</ele>
        <time>2022-08-01T06:59:42.489Z</time>
      </trkpt>
      <trkpt lat="44.33115" lon="1.1033">
        <ele>249.724462</ele>
        <time>2022-08-01T06:59:44.529Z</time>
      </trkpt>
      <trkpt lat="44.33104" lon="1.10319">
        <ele>247.42915</ele>
        <time>2022-08-01T06:59:46.504Z</time>
      </trkpt>
      <trkpt lat="44.33092" lon="1.10308">
        <ele>244.967601</ele>
        <time>2022-08-01T06:59:48.504Z</time>
      </trkpt>
      <trkpt lat="44.33079" lon="1.10299">
        <ele>242.587973</ele>
        <time>2022-08-01T06:59:50.523Z</time>
      </trkpt>
      <trkpt lat="44.33068" lon="1.10288">
        <ele>240.347743</ele>
        <time>2022-08-01T06:59:52.506Z</time>
      </trkpt>
      <trkpt lat="44.33058" lon="1.10276">
        <ele>238.010772</ele>
        <time>2022-08-01T06:59:54.493Z</time>
      </trkpt>
      <trkpt lat="44.33049" lon="1.10266">
        <ele>236.47287</ele>
        <time>2022-08-01T06:59:56.528Z</time>
      </trkpt>
      <trkpt lat="44.33037" lon="1.10255">
        <ele>235.787123</ele>
        <time>2022-08-01T06:59:58.483Z</time>
      </trkpt>
      <trkpt lat="44.33025" lon="1.10242">
        <ele>235.105392</ele>
        <time>2022-08-01T07:00:00.484Z</time>
      </trkpt>
      <trkpt lat="44.33015" lon="1.1023">
        <ele>234.47205</ele>
        <time>2022-08-01T07:00:02.526Z</time>
      </trkpt>
      <trkpt lat="44.33003" lon="1.10216">
        <ele>233.747652</ele>
        <time>2022-08-01T07:00:04.500Z</time>
      </trkpt>
      <trkpt lat="44.32992" lon="1.10201">
        <ele>233.005054</ele>
        <time>2022-08-01T07:00:06.510Z</time>
      </trkpt>
      <trkpt lat="44.32982" lon="1.1019">
        <ele>232.401304</ele>
        <time>2022-08-01T07:00:08.533Z</time>
      </trkpt>
      <trkpt lat="44.32971" lon="1.10179">
        <ele>231.792956</ele>
        <time>2022-08-01T07:00:10.493Z</time>
      </trkpt>
      <trkpt lat="44.3296" lon="1.1017">
        <ele>231.188886</ele>
        <time>2022-08-01T07:00:12.499Z</time>
      </trkpt>
      <trkpt lat="44.3295" lon="1.1016">
        <ele>230.587902</ele>
        <time>2022-08-01T07:00:14.537Z</time>
      </trkpt>
      <trkpt lat="44.32938" lon="1.10152">
        <ele>229.986354</ele>
        <time>2022-08-01T07:00:16.501Z</time>
      </trkpt>
      <trkpt lat="44.32926" lon="1.10141">
        <ele>229.291602</ele>
        <time>2022-08-01T07:00:18.495Z</time>
      </trkpt>
      <trkpt lat="44.32913" lon="1.10131">
        <ele>228.589073</ele>
        <time>2022-08-01T07:00:20.534Z</time>
      </trkpt>
      <trkpt lat="44.32899" lon="1.10119">
        <ele>228.013257</ele>
        <time>2022-08-01T07:00:22.490Z</time>
      </trkpt>
      <trkpt lat="44.32885" lon="1.10108">
        <ele>227.69551</ele>
        <time>2022-08-01T07:00:24.493Z</time>
      </trkpt>
      <trkpt lat="44.32875" lon="1.10095">
        <ele>227.424184</ele>
        <time>2022-08-01T07:00:26.514Z</time>
      </trkpt>
      <trkpt lat="44.32862" lon="1.10082">
        <ele>227.117895</ele>
        <time>2022-08-01T07:00:28.494Z</time>
      </trkpt>
      <trkpt lat="44.32853" lon="1.10068">
        <ele>226.839176</ele>
        <time>2022-08-01T07:00:30.502Z</time>
      </trkpt>
      <trkpt lat="44.32842" lon="1.10055">
        <ele>226.559962</ele>
        <time>2022-08-01T07:00:32.527Z</time>
      </trkpt>
      <trkpt lat="44.32829" lon="1.10042">
        <ele>226.249792</ele>
        <time>2022-08-01T07:00:34.494Z</time>
      </trkpt>
      <trkpt lat="44.32818" lon="1.10029">
        <ele>225.954644</ele>
        <time>2022-08-01T07:00:36.484Z</time>
      </trkpt>
      <trkpt lat="44.32804" lon="1.10017">
        <ele>225.631063</ele>
        <time>2022-08-01T07:00:38.543Z</time>
      </trkpt>
      <trkpt lat="44.32792" lon="1.10004">
        <ele>225.331059</ele>
        <time>2022-08-01T07:00:40.483Z</time>
      </trkpt>
      <trkpt lat="44.32778" lon="1.0999">
        <ele>224.99949</ele>
        <time>2022-08-01T07:00:42.487Z</time>
      </trkpt>
      <trkpt lat="44.32768" lon="1.09979">
        <ele>224.74029</ele>
        <time>2022-08-01T07:00:44.530Z</time>
      </trkpt>
      <trkpt lat="44.32755" lon="1.09968">
        <ele>224.300515</ele>
        <time>2022-08-01T07:00:46.497Z</time>
      </trkpt>
      <trkpt lat="44.32745" lon="1.09957">
        <ele>223.86932</ele>
        <time>2022-08-01T07:00:48.513Z</time>
      </trkpt>
      <trkpt lat="44.32735" lon="1.09943">
        <ele>223.346855</ele>
        <time>2022-08-01T07:00:50.516Z</time>
      </trkpt>
      <trkpt lat="44.32722" lon="1.09936">
        <ele>222.846554</ele>
        <time>2022-08-01T07:00:52.496Z</time>
      </trkpt>
      <trkpt lat="44.32709" lon="1.09937">
        <ele>222.398165</ele>
        <time>2022-08-01T07:00:54.492Z</time>
      </trkpt>
      <trkpt lat="44.32695" lon="1.09935">
        <ele>221.901916</ele>
        <time>2022-08-01T07:00:56.542Z</time>
      </trkpt>
      <trkpt lat="44.32686" lon="1.09934">
        <ele>221.555736</ele>
        <time>2022-08-01T07:00:57.479Z</time>
      </trkpt>
      <trkpt lat="44.32676" lon="1.09933">
        <ele>221.214046</ele>
        <time>2022-08-01T07:00:58.499Z</time>
      </trkpt>
      <trkpt lat="44.32662" lon="1.09927">
        <ele>220.692473</ele>
        <time>2022-08-01T07:01:00.486Z</time>
      </trkpt>
      <trkpt lat="44.32646" lon="1.09922">
        <ele>220.107862</ele>
        <time>2022-08-01T07:01:02.516Z</time>
      </trkpt>
      <trkpt lat="44.32635" lon="1.0992">
        <ele>219.704326</ele>
        <time>2022-08-01T07:01:03.478Z</time>
      </trkpt>
      <trkpt lat="44.32618" lon="1.09914">
        <ele>219.084287</ele>
        <time>2022-08-01T07:01:05.493Z</time>
      </trkpt>
      <trkpt lat="44.32603" lon="1.09909">
        <ele>218.518943</ele>
        <time>2022-08-01T07:01:07.493Z</time>
      </trkpt>
      <trkpt lat="44.32586" lon="1.09904">
        <ele>217.910569</ele>
        <time>2022-08-01T07:01:09.504Z</time>
      </trkpt>
      <trkpt lat="44.3257" lon="1.09901">
        <ele>217.389259</ele>
        <time>2022-08-01T07:01:11.507Z</time>
      </trkpt>
      <trkpt lat="44.32554" lon="1.09897">
        <ele>216.86279</ele>
        <time>2022-08-01T07:01:13.486Z</time>
      </trkpt>
      <trkpt lat="44.32538" lon="1.09892">
        <ele>216.34581</ele>
        <time>2022-08-01T07:01:15.498Z</time>
      </trkpt>
      <trkpt lat="44.32522" lon="1.09885">
        <ele>215.778437</ele>
        <time>2022-08-01T07:01:17.505Z</time>
      </trkpt>
      <trkpt lat="44.32506" lon="1.09878">
        <ele>215.256679</ele>
        <time>2022-08-01T07:01:19.501Z</time>
      </trkpt>
      <trkpt lat="44.32491" lon="1.09868">
        <ele>214.704807</ele>
        <time>2022-08-01T07:01:21.484Z</time>
      </trkpt>
      <trkpt lat="44.32476" lon="1.09862">
        <ele>214.212876</ele>
        <time>2022-08-01T07:01:23.500Z</time>
      </trkpt>
      <trkpt lat="44.32461" lon="1.09855">
        <ele>213.698715</ele>
        <time>2022-08-01T07:01:25.498Z</time>
      </trkpt>
      <trkpt lat="44.32447" lon="1.09846">
        <ele>213.202923</ele>
        <time>2022-08-01T07:01:27.494Z</time>
      </trkpt>
      <trkpt lat="44.32431" lon="1.09832">
        <ele>212.587713</ele>
        <time>2022-08-01T07:01:29.482Z</time>
      </trkpt>
      <trkpt lat="44.32432" lon="1.09815">
        <ele>212.450087</ele>
        <time>2022-08-01T07:01:31.518Z</time>
      </trkpt>
      <trkpt lat="44.32434" lon="1.09794">
        <ele>212.979902</ele>
        <time>2022-08-01T07:01:33.491Z</time>
      </trkpt>
      <trkpt lat="44.32436" lon="1.09775">
        <ele>213.469549</ele>
        <time>2022-08-01T07:01:35.498Z</time>
      </trkpt>
      <trkpt lat="44.32438" lon="1.09756">
        <ele>213.966616</ele>
        <time>2022-08-01T07:01:37.506Z</time>
      </trkpt>
      <trkpt lat="44.3244" lon="1.09737">
        <ele>214.469838</ele>
        <time>2022-08-01T07:01:39.502Z</time>
      </trkpt>
      <trkpt lat="44.32443" lon="1.09719">
        <ele>214.934794</ele>
        <time>2022-08-01T07:01:41.499Z</time>
      </trkpt>
      <trkpt lat="44.32445" lon="1.09702">
        <ele>215.366726</ele>
        <time>2022-08-01T07:01:43.491Z</time>
      </trkpt>
      <trkpt lat="44.32447" lon="1.09684">
        <ele>215.833608</ele>
        <time>2022-08-01T07:01:45.499Z</time>
      </trkpt>
      <trkpt lat="44.32448" lon="1.09671">
        <ele>216.163989</ele>
        <time>2022-08-01T07:01:47.493Z</time>
      </trkpt>
      <trkpt lat="44.32447" lon="1.09656">
        <ele>216.545387</ele>
        <time>2022-08-01T07:01:49.500Z</time>
      </trkpt>
      <trkpt lat="44.32441" lon="1.09641">
        <ele>216.996661</ele>
        <time>2022-08-01T07:01:52.498Z</time>
      </trkpt>
      <trkpt lat="44.32434" lon="1.09632">
        <ele>217.333733</ele>
        <time>2022-08-01T07:01:55.497Z</time>
      </trkpt>
      <trkpt lat="44.32424" lon="1.09626">
        <ele>217.70923</ele>
        <time>2022-08-01T07:01:58.521Z</time>
      </trkpt>
      <trkpt lat="44.32414" lon="1.09617">
        <ele>218.148312</ele>
        <time>2022-08-01T07:02:01.484Z</time>
      </trkpt>
      <trkpt lat="44.32405" lon="1.09609">
        <ele>218.528237</ele>
        <time>2022-08-01T07:02:04.502Z</time>
      </trkpt>
      <trkpt lat="44.32395" lon="1.09602">
        <ele>218.733628</ele>
        <time>2022-08-01T07:02:07.518Z</time>
      </trkpt>
      <trkpt lat="44.32386" lon="1.09595">
        <ele>218.761418</ele>
        <time>2022-08-01T07:02:10.498Z</time>
      </trkpt>
      <trkpt lat="44.32377" lon="1.09589">
        <ele>218.786571</ele>
        <time>2022-08-01T07:02:13.498Z</time>
      </trkpt>
      <trkpt lat="44.32368" lon="1.09586">
        <ele>218.812689</ele>
        <time>2022-08-01T07:02:15.485Z</time>
      </trkpt>
      <trkpt lat="44.32359" lon="1.09583">
        <ele>218.837635</ele>
        <time>2022-08-01T07:02:17.503Z</time>
      </trkpt>
      <trkpt lat="44.32348" lon="1.09579">
        <ele>218.868987</ele>
        <time>2022-08-01T07:02:19.493Z</time>
      </trkpt>
      <trkpt lat="44.32333" lon="1.09574">
        <ele>218.909942</ele>
        <time>2022-08-01T07:02:21.486Z</time>
      </trkpt>
      <trkpt lat="44.32318" lon="1.0957">
        <ele>218.951055</ele>
        <time>2022-08-01T07:02:23.501Z</time>
      </trkpt>
      <trkpt lat="44.32302" lon="1.09567">
        <ele>218.993333</ele>
        <time>2022-08-01T07:02:25.497Z</time>
      </trkpt>
      <trkpt lat="44.32292" lon="1.09567">
        <ele>219.019265</ele>
        <time>2022-08-01T07:02:26.527Z</time>
      </trkpt>
      <trkpt lat="44.32274" lon="1.09568">
        <ele>219.067715</ele>
        <time>2022-08-01T07:02:28.501Z</time>
      </trkpt>
      <trkpt lat="44.32265" lon="1.09572">
        <ele>219.093612</ele>
        <time>2022-08-01T07:02:29.503Z</time>
      </trkpt>
      <trkpt lat="44.32247" lon="1.09578">
        <ele>219.142202</ele>
        <time>2022-08-01T07:02:31.506Z</time>
      </trkpt>
      <trkpt lat="44.3223" lon="1.09584">
        <ele>219.189153</ele>
        <time>2022-08-01T07:02:33.493Z</time>
      </trkpt>
      <trkpt lat="44.32213" lon="1.09589">
        <ele>218.776633</ele>
        <time>2022-08-01T07:02:35.491Z</time>
      </trkpt>
      <trkpt lat="44.32203" lon="1.0959">
        <ele>218.460052</ele>
        <time>2022-08-01T07:02:36.491Z</time>
      </trkpt>
      <trkpt lat="44.32193" lon="1.09591">
        <ele>218.121665</ele>
        <time>2022-08-01T07:02:37.497Z</time>
      </trkpt>
      <trkpt lat="44.32184" lon="1.09589">
        <ele>217.828574</ele>
        <time>2022-08-01T07:02:38.536Z</time>
      </trkpt>
      <trkpt lat="44.32165" lon="1.09585">
        <ele>217.222598</ele>
        <time>2022-08-01T07:02:40.506Z</time>
      </trkpt>
      <trkpt lat="44.32156" lon="1.09582">
        <ele>216.926684</ele>
        <time>2022-08-01T07:02:41.497Z</time>
      </trkpt>
      <trkpt lat="44.32146" lon="1.09579">
        <ele>216.595565</ele>
        <time>2022-08-01T07:02:42.489Z</time>
      </trkpt>
      <trkpt lat="44.32129" lon="1.09574">
        <ele>216.014093</ele>
        <time>2022-08-01T07:02:44.519Z</time>
      </trkpt>
      <trkpt lat="44.32119" lon="1.09572">
        <ele>215.694485</ele>
        <time>2022-08-01T07:02:45.503Z</time>
      </trkpt>
      <trkpt lat="44.32101" lon="1.09568">
        <ele>215.123859</ele>
        <time>2022-08-01T07:02:47.477Z</time>
      </trkpt>
      <trkpt lat="44.32093" lon="1.09563">
        <ele>214.825149</ele>
        <time>2022-08-01T07:02:48.513Z</time>
      </trkpt>
      <trkpt lat="44.32084" lon="1.0956">
        <ele>214.528053</ele>
        <time>2022-08-01T07:02:49.485Z</time>
      </trkpt>
      <trkpt lat="44.32068" lon="1.09554">
        <ele>213.992164</ele>
        <time>2022-08-01T07:02:51.487Z</time>
      </trkpt>
      <trkpt lat="44.32052" lon="1.09547">
        <ele>213.462215</ele>
        <time>2022-08-01T07:02:53.493Z</time>
      </trkpt>
      <trkpt lat="44.32036" lon="1.09538">
        <ele>213.125758</ele>
        <time>2022-08-01T07:02:55.496Z</time>
      </trkpt>
      <trkpt lat="44.32023" lon="1.09528">
        <ele>212.850004</ele>
        <time>2022-08-01T07:02:57.492Z</time>
      </trkpt>
      <trkpt lat="44.3201" lon="1.09516">
        <ele>212.576711</ele>
        <time>2022-08-01T07:02:59.509Z</time>
      </trkpt>
      <trkpt lat="44.32004" lon="1.09507">
        <ele>212.402799</ele>
        <time>2022-08-01T07:03:00.491Z</time>
      </trkpt>
      <trkpt lat="44.31993" lon="1.09494">
        <ele>212.144514</ele>
        <time>2022-08-01T07:03:02.534Z</time>
      </trkpt>
      <trkpt lat="44.31979" lon="1.09483">
        <ele>211.861109</ele>
        <time>2022-08-01T07:03:04.514Z</time>
      </trkpt>
      <trkpt lat="44.31965" lon="1.09476">
        <ele>211.577276</ele>
        <time>2022-08-01T07:03:06.498Z</time>
      </trkpt>
      <trkpt lat="44.3195" lon="1.0947">
        <ele>211.301779</ele>
        <time>2022-08-01T07:03:08.530Z</time>
      </trkpt>
      <trkpt lat="44.31935" lon="1.09465">
        <ele>211.015676</ele>
        <time>2022-08-01T07:03:10.498Z</time>
      </trkpt>
      <trkpt lat="44.31921" lon="1.09462">
        <ele>210.763504</ele>
        <time>2022-08-01T07:03:12.494Z</time>
      </trkpt>
      <trkpt lat="44.31906" lon="1.09459">
        <ele>210.481853</ele>
        <time>2022-08-01T07:03:14.519Z</time>
      </trkpt>
      <trkpt lat="44.31891" lon="1.09452">
        <ele>210.201739</ele>
        <time>2022-08-01T07:03:16.502Z</time>
      </trkpt>
      <trkpt lat="44.31877" lon="1.09446">
        <ele>210.164937</ele>
        <time>2022-08-01T07:03:18.500Z</time>
      </trkpt>
      <trkpt lat="44.31864" lon="1.09442">
        <ele>210.206402</ele>
        <time>2022-08-01T07:03:20.524Z</time>
      </trkpt>
      <trkpt lat="44.31849" lon="1.09432">
        <ele>210.256202</ele>
        <time>2022-08-01T07:03:22.498Z</time>
      </trkpt>
      <trkpt lat="44.31836" lon="1.09426">
        <ele>210.299489</ele>
        <time>2022-08-01T07:03:24.496Z</time>
      </trkpt>
      <trkpt lat="44.31822" lon="1.0942">
        <ele>210.343504</ele>
        <time>2022-08-01T07:03:26.520Z</time>
      </trkpt>
      <trkpt lat="44.31809" lon="1.09413">
        <ele>210.386075</ele>
        <time>2022-08-01T07:03:28.494Z</time>
      </trkpt>
      <trkpt lat="44.31795" lon="1.09408">
        <ele>210.430213</ele>
        <time>2022-08-01T07:03:30.486Z</time>
      </trkpt>
      <trkpt lat="44.31782" lon="1.09402">
        <ele>210.471346</ele>
        <time>2022-08-01T07:03:32.515Z</time>
      </trkpt>
      <trkpt lat="44.31768" lon="1.09399">
        <ele>210.514014</ele>
        <time>2022-08-01T07:03:34.486Z</time>
      </trkpt>
      <trkpt lat="44.31755" lon="1.09398">
        <ele>210.554346</ele>
        <time>2022-08-01T07:03:36.492Z</time>
      </trkpt>
      <trkpt lat="44.31741" lon="1.094">
        <ele>210.59932</ele>
        <time>2022-08-01T07:03:38.521Z</time>
      </trkpt>
      <trkpt lat="44.31726" lon="1.09404">
        <ele>210.644683</ele>
        <time>2022-08-01T07:03:40.492Z</time>
      </trkpt>
      <trkpt lat="44.31711" lon="1.09408">
        <ele>210.701649</ele>
        <time>2022-08-01T07:03:42.499Z</time>
      </trkpt>
      <trkpt lat="44.31696" lon="1.09405">
        <ele>210.800414</ele>
        <time>2022-08-01T07:03:44.508Z</time>
      </trkpt>
      <trkpt lat="44.31682" lon="1.09401">
        <ele>210.894035</ele>
        <time>2022-08-01T07:03:46.512Z</time>
      </trkpt>
      <trkpt lat="44.31666" lon="1.09398">
        <ele>211.000021</ele>
        <time>2022-08-01T07:03:48.493Z</time>
      </trkpt>
      <trkpt lat="44.31651" lon="1.09396">
        <ele>211.092685</ele>
        <time>2022-08-01T07:03:50.513Z</time>
      </trkpt>
      <trkpt lat="44.31637" lon="1.09395">
        <ele>211.186363</ele>
        <time>2022-08-01T07:03:52.498Z</time>
      </trkpt>
      <trkpt lat="44.31622" lon="1.09395">
        <ele>211.279995</ele>
        <time>2022-08-01T07:03:54.516Z</time>
      </trkpt>
      <trkpt lat="44.31608" lon="1.09397">
        <ele>211.371373</ele>
        <time>2022-08-01T07:03:56.516Z</time>
      </trkpt>
      <trkpt lat="44.31591" lon="1.09399">
        <ele>211.48032</ele>
        <time>2022-08-01T07:03:58.492Z</time>
      </trkpt>
      <trkpt lat="44.31575" lon="1.09401">
        <ele>211.587788</ele>
        <time>2022-08-01T07:04:00.477Z</time>
      </trkpt>
      <trkpt lat="44.31559" lon="1.09402">
        <ele>211.692489</ele>
        <time>2022-08-01T07:04:02.493Z</time>
      </trkpt>
      <trkpt lat="44.31544" lon="1.094">
        <ele>211.789498</ele>
        <time>2022-08-01T07:04:04.499Z</time>
      </trkpt>
      <trkpt lat="44.31528" lon="1.09397">
        <ele>211.849574</ele>
        <time>2022-08-01T07:04:06.498Z</time>
      </trkpt>
      <trkpt lat="44.31514" lon="1.09397">
        <ele>211.862884</ele>
        <time>2022-08-01T07:04:08.516Z</time>
      </trkpt>
      <trkpt lat="44.31499" lon="1.09396">
        <ele>211.877692</ele>
        <time>2022-08-01T07:04:10.496Z</time>
      </trkpt>
      <trkpt lat="44.31483" lon="1.09394">
        <ele>211.892777</ele>
        <time>2022-08-01T07:04:12.497Z</time>
      </trkpt>
      <trkpt lat="44.31468" lon="1.09393">
        <ele>211.908075</ele>
        <time>2022-08-01T07:04:14.521Z</time>
      </trkpt>
      <trkpt lat="44.31451" lon="1.09391">
        <ele>211.92445</ele>
        <time>2022-08-01T07:04:16.500Z</time>
      </trkpt>
      <trkpt lat="44.31436" lon="1.09389">
        <ele>211.938501</ele>
        <time>2022-08-01T07:04:18.523Z</time>
      </trkpt>
      <trkpt lat="44.3142" lon="1.09388">
        <ele>211.954834</ele>
        <time>2022-08-01T07:04:20.519Z</time>
      </trkpt>
      <trkpt lat="44.31402" lon="1.09385">
        <ele>211.971842</ele>
        <time>2022-08-01T07:04:22.508Z</time>
      </trkpt>
      <trkpt lat="44.31384" lon="1.09385">
        <ele>211.98904</ele>
        <time>2022-08-01T07:04:24.509Z</time>
      </trkpt>
      <trkpt lat="44.31367" lon="1.09384">
        <ele>212.005951</ele>
        <time>2022-08-01T07:04:26.532Z</time>
      </trkpt>
      <trkpt lat="44.31351" lon="1.09381">
        <ele>211.884064</ele>
        <time>2022-08-01T07:04:28.500Z</time>
      </trkpt>
      <trkpt lat="44.31334" lon="1.09378">
        <ele>211.488912</ele>
        <time>2022-08-01T07:04:30.494Z</time>
      </trkpt>
      <trkpt lat="44.31325" lon="1.09376">
        <ele>211.265431</ele>
        <time>2022-08-01T07:04:31.499Z</time>
      </trkpt>
      <trkpt lat="44.3131" lon="1.09366">
        <ele>210.864533</ele>
        <time>2022-08-01T07:04:33.485Z</time>
      </trkpt>
      <trkpt lat="44.31293" lon="1.09359">
        <ele>210.458507</ele>
        <time>2022-08-01T07:04:35.492Z</time>
      </trkpt>
      <trkpt lat="44.31279" lon="1.09352">
        <ele>210.106158</ele>
        <time>2022-08-01T07:04:37.512Z</time>
      </trkpt>
      <trkpt lat="44.31265" lon="1.09344">
        <ele>209.735772</ele>
        <time>2022-08-01T07:04:39.485Z</time>
      </trkpt>
      <trkpt lat="44.31249" lon="1.09335">
        <ele>209.330804</ele>
        <time>2022-08-01T07:04:41.491Z</time>
      </trkpt>
      <trkpt lat="44.31233" lon="1.09329">
        <ele>208.943106</ele>
        <time>2022-08-01T07:04:43.482Z</time>
      </trkpt>
      <trkpt lat="44.31219" lon="1.09325">
        <ele>208.611593</ele>
        <time>2022-08-01T07:04:45.499Z</time>
      </trkpt>
      <trkpt lat="44.31206" lon="1.09322">
        <ele>208.293316</ele>
        <time>2022-08-01T07:04:47.493Z</time>
      </trkpt>
      <trkpt lat="44.31192" lon="1.09318">
        <ele>207.958095</ele>
        <time>2022-08-01T07:04:49.469Z</time>
      </trkpt>
      <trkpt lat="44.31177" lon="1.09318">
        <ele>207.639519</ele>
        <time>2022-08-01T07:04:51.502Z</time>
      </trkpt>
      <trkpt lat="44.31162" lon="1.09317">
        <ele>207.385366</ele>
        <time>2022-08-01T07:04:53.504Z</time>
      </trkpt>
      <trkpt lat="44.31148" lon="1.09313">
        <ele>207.144337</ele>
        <time>2022-08-01T07:04:55.485Z</time>
      </trkpt>
      <trkpt lat="44.31134" lon="1.0931">
        <ele>206.905389</ele>
        <time>2022-08-01T07:04:57.487Z</time>
      </trkpt>
      <trkpt lat="44.31121" lon="1.09303">
        <ele>206.673991</ele>
        <time>2022-08-01T07:04:59.492Z</time>
      </trkpt>
      <trkpt lat="44.31107" lon="1.09294">
        <ele>206.423154</ele>
        <time>2022-08-01T07:05:01.502Z</time>
      </trkpt>
      <trkpt lat="44.31095" lon="1.09284">
        <ele>206.187404</ele>
        <time>2022-08-01T07:05:03.497Z</time>
      </trkpt>
      <trkpt lat="44.31086" lon="1.09277">
        <ele>206.013554</ele>
        <time>2022-08-01T07:05:05.469Z</time>
      </trkpt>
      <trkpt lat="44.31076" lon="1.09271">
        <ele>205.82657</ele>
        <time>2022-08-01T07:05:07.502Z</time>
      </trkpt>
      <trkpt lat="44.31066" lon="1.09273">
        <ele>205.653299</ele>
        <time>2022-08-01T07:05:09.483Z</time>
      </trkpt>
      <trkpt lat="44.31058" lon="1.09279">
        <ele>205.500464</ele>
        <time>2022-08-01T07:05:11.501Z</time>
      </trkpt>
      <trkpt lat="44.31052" lon="1.0929">
        <ele>205.337482</ele>
        <time>2022-08-01T07:05:13.494Z</time>
      </trkpt>
      <trkpt lat="44.31048" lon="1.09305">
        <ele>205.147816</ele>
        <time>2022-08-01T07:05:15.509Z</time>
      </trkpt>
      <trkpt lat="44.31043" lon="1.09322">
        <ele>204.928818</ele>
        <time>2022-08-01T07:05:17.487Z</time>
      </trkpt>
      <trkpt lat="44.31037" lon="1.09338">
        <ele>204.715049</ele>
        <time>2022-08-01T07:05:19.491Z</time>
      </trkpt>
      <trkpt lat="44.31031" lon="1.09353">
        <ele>204.486989</ele>
        <time>2022-08-01T07:05:21.503Z</time>
      </trkpt>
      <trkpt lat="44.31028" lon="1.09372">
        <ele>204.241598</ele>
        <time>2022-08-01T07:05:23.502Z</time>
      </trkpt>
      <trkpt lat="44.31024" lon="1.0939">
        <ele>204.003354</ele>
        <time>2022-08-01T07:05:25.496Z</time>
      </trkpt>
      <trkpt lat="44.31019" lon="1.09408">
        <ele>203.750232</ele>
        <time>2022-08-01T07:05:27.495Z</time>
      </trkpt>
      <trkpt lat="44.3101" lon="1.09426">
        <ele>203.458833</ele>
        <time>2022-08-01T07:05:29.493Z</time>
      </trkpt>
      <trkpt lat="44.31005" lon="1.0945">
        <ele>203.137156</ele>
        <time>2022-08-01T07:05:31.497Z</time>
      </trkpt>
      <trkpt lat="44.31" lon="1.09461">
        <ele>202.969428</ele>
        <time>2022-08-01T07:05:32.537Z</time>
      </trkpt>
      <trkpt lat="44.30993" lon="1.09482">
        <ele>202.675856</ele>
        <time>2022-08-01T07:05:34.498Z</time>
      </trkpt>
      <trkpt lat="44.30987" lon="1.09499">
        <ele>202.423013</ele>
        <time>2022-08-01T07:05:36.501Z</time>
      </trkpt>
      <trkpt lat="44.3098" lon="1.09517">
        <ele>202.170025</ele>
        <time>2022-08-01T07:05:38.524Z</time>
      </trkpt>
      <trkpt lat="44.30975" lon="1.09528">
        <ele>201.998784</ele>
        <time>2022-08-01T07:05:39.481Z</time>
      </trkpt>
      <trkpt lat="44.30963" lon="1.09547">
        <ele>201.67276</ele>
        <time>2022-08-01T07:05:41.503Z</time>
      </trkpt>
      <trkpt lat="44.30954" lon="1.09565">
        <ele>201.55346</ele>
        <time>2022-08-01T07:05:43.474Z</time>
      </trkpt>
      <trkpt lat="44.30947" lon="1.09575">
        <ele>201.66093</ele>
        <time>2022-08-01T07:05:44.541Z</time>
      </trkpt>
      <trkpt lat="44.30937" lon="1.09591">
        <ele>201.823434</ele>
        <time>2022-08-01T07:05:46.498Z</time>
      </trkpt>
      <trkpt lat="44.30925" lon="1.09603">
        <ele>201.985432</ele>
        <time>2022-08-01T07:05:48.506Z</time>
      </trkpt>
      <trkpt lat="44.30911" lon="1.09616">
        <ele>202.156207</ele>
        <time>2022-08-01T07:05:50.546Z</time>
      </trkpt>
      <trkpt lat="44.30896" lon="1.09627">
        <ele>202.334192</ele>
        <time>2022-08-01T07:05:52.482Z</time>
      </trkpt>
      <trkpt lat="44.30883" lon="1.09634">
        <ele>202.488263</ele>
        <time>2022-08-01T07:05:54.506Z</time>
      </trkpt>
      <trkpt lat="44.30868" lon="1.0964">
        <ele>202.660543</ele>
        <time>2022-08-01T07:05:56.519Z</time>
      </trkpt>
      <trkpt lat="44.30853" lon="1.09644">
        <ele>202.815268</ele>
        <time>2022-08-01T07:05:58.494Z</time>
      </trkpt>
      <trkpt lat="44.30837" lon="1.09648">
        <ele>202.995065</ele>
        <time>2022-08-01T07:06:00.500Z</time>
      </trkpt>
      <trkpt lat="44.30824" lon="1.0965">
        <ele>203.129454</ele>
        <time>2022-08-01T07:06:02.504Z</time>
      </trkpt>
      <trkpt lat="44.30808" lon="1.09653">
        <ele>203.309299</ele>
        <time>2022-08-01T07:06:04.499Z</time>
      </trkpt>
      <trkpt lat="44.30793" lon="1.09653">
        <ele>203.441533</ele>
        <time>2022-08-01T07:06:06.470Z</time>
      </trkpt>
      <trkpt lat="44.30776" lon="1.09652">
        <ele>203.532965</ele>
        <time>2022-08-01T07:06:08.528Z</time>
      </trkpt>
      <trkpt lat="44.30766" lon="1.09653">
        <ele>203.590077</ele>
        <time>2022-08-01T07:06:09.477Z</time>
      </trkpt>
      <trkpt lat="44.30757" lon="1.09654">
        <ele>203.639977</ele>
        <time>2022-08-01T07:06:10.460Z</time>
      </trkpt>
      <trkpt lat="44.30737" lon="1.09655">
        <ele>203.74865</ele>
        <time>2022-08-01T07:06:12.502Z</time>
      </trkpt>
      <trkpt lat="44.30722" lon="1.09654">
        <ele>203.832882</ele>
        <time>2022-08-01T07:06:14.536Z</time>
      </trkpt>
      <trkpt lat="44.30706" lon="1.09652">
        <ele>203.924708</ele>
        <time>2022-08-01T07:06:16.497Z</time>
      </trkpt>
      <trkpt lat="44.30689" lon="1.09654">
        <ele>204.016534</ele>
        <time>2022-08-01T07:06:18.491Z</time>
      </trkpt>
      <trkpt lat="44.30676" lon="1.09653">
        <ele>204.090269</ele>
        <time>2022-08-01T07:06:20.520Z</time>
      </trkpt>
      <trkpt lat="44.30662" lon="1.09651">
        <ele>204.167467</ele>
        <time>2022-08-01T07:06:22.518Z</time>
      </trkpt>
      <trkpt lat="44.30648" lon="1.09652">
        <ele>204.244557</ele>
        <time>2022-08-01T07:06:24.498Z</time>
      </trkpt>
      <trkpt lat="44.30639" lon="1.09652">
        <ele>204.294474</ele>
        <time>2022-08-01T07:06:25.486Z</time>
      </trkpt>
      <trkpt lat="44.30622" lon="1.09654">
        <ele>204.390644</ele>
        <time>2022-08-01T07:06:27.489Z</time>
      </trkpt>
      <trkpt lat="44.30611" lon="1.09652">
        <ele>204.445843</ele>
        <time>2022-08-01T07:06:28.497Z</time>
      </trkpt>
      <trkpt lat="44.30602" lon="1.09654">
        <ele>204.493499</ele>
        <time>2022-08-01T07:06:29.518Z</time>
      </trkpt>
      <trkpt lat="44.30592" lon="1.09656">
        <ele>204.544271</ele>
        <time>2022-08-01T07:06:30.486Z</time>
      </trkpt>
      <trkpt lat="44.30579" lon="1.09654">
        <ele>204.611668</ele>
        <time>2022-08-01T07:06:32.527Z</time>
      </trkpt>
      <trkpt lat="44.30566" lon="1.09647">
        <ele>204.682144</ele>
        <time>2022-08-01T07:06:34.476Z</time>
      </trkpt>
      <trkpt lat="44.3055" lon="1.09646">
        <ele>204.760131</ele>
        <time>2022-08-01T07:06:36.495Z</time>
      </trkpt>
      <trkpt lat="44.30533" lon="1.09644">
        <ele>204.850162</ele>
        <time>2022-08-01T07:06:38.529Z</time>
      </trkpt>
      <trkpt lat="44.30518" lon="1.09647">
        <ele>204.925813</ele>
        <time>2022-08-01T07:06:40.491Z</time>
      </trkpt>
      <trkpt lat="44.30501" lon="1.09648">
        <ele>205.008348</ele>
        <time>2022-08-01T07:06:42.492Z</time>
      </trkpt>
      <trkpt lat="44.30485" lon="1.09647">
        <ele>205.091423</ele>
        <time>2022-08-01T07:06:44.547Z</time>
      </trkpt>
      <trkpt lat="44.30471" lon="1.09648">
        <ele>205.164397</ele>
        <time>2022-08-01T07:06:46.498Z</time>
      </trkpt>
      <trkpt lat="44.30456" lon="1.09647">
        <ele>205.238403</ele>
        <time>2022-08-01T07:06:48.497Z</time>
      </trkpt>
      <trkpt lat="44.30441" lon="1.09646">
        <ele>205.315315</ele>
        <time>2022-08-01T07:06:50.524Z</time>
      </trkpt>
      <trkpt lat="44.30428" lon="1.09643">
        <ele>205.371979</ele>
        <time>2022-08-01T07:06:52.495Z</time>
      </trkpt>
      <trkpt lat="44.30416" lon="1.09643">
        <ele>205.426026</ele>
        <time>2022-08-01T07:06:54.502Z</time>
      </trkpt>
      <trkpt lat="44.30403" lon="1.09644">
        <ele>205.484911</ele>
        <time>2022-08-01T07:06:56.525Z</time>
      </trkpt>
      <trkpt lat="44.30389" lon="1.09646">
        <ele>205.544046</ele>
        <time>2022-08-01T07:06:58.492Z</time>
      </trkpt>
      <trkpt lat="44.30375" lon="1.09641">
        <ele>205.608578</ele>
        <time>2022-08-01T07:07:00.490Z</time>
      </trkpt>
      <trkpt lat="44.30362" lon="1.0964">
        <ele>205.664878</ele>
        <time>2022-08-01T07:07:02.521Z</time>
      </trkpt>
      <trkpt lat="44.30349" lon="1.09633">
        <ele>205.727199</ele>
        <time>2022-08-01T07:07:04.495Z</time>
      </trkpt>
      <trkpt lat="44.3034" lon="1.0962">
        <ele>205.782772</ele>
        <time>2022-08-01T07:07:06.501Z</time>
      </trkpt>
      <trkpt lat="44.30327" lon="1.0961">
        <ele>205.84921</ele>
        <time>2022-08-01T07:07:08.527Z</time>
      </trkpt>
      <trkpt lat="44.30313" lon="1.096">
        <ele>205.917322</ele>
        <time>2022-08-01T07:07:10.492Z</time>
      </trkpt>
      <trkpt lat="44.303" lon="1.09596">
        <ele>205.975171</ele>
        <time>2022-08-01T07:07:12.484Z</time>
      </trkpt>
      <trkpt lat="44.30286" lon="1.09598">
        <ele>206.037805</ele>
        <time>2022-08-01T07:07:14.532Z</time>
      </trkpt>
      <trkpt lat="44.30274" lon="1.09593">
        <ele>206.093397</ele>
        <time>2022-08-01T07:07:17.487Z</time>
      </trkpt>
      <trkpt lat="44.30256" lon="1.09587">
        <ele>205.954615</ele>
        <time>2022-08-01T07:07:19.492Z</time>
      </trkpt>
      <trkpt lat="44.30238" lon="1.09583">
        <ele>205.750803</ele>
        <time>2022-08-01T07:07:21.497Z</time>
      </trkpt>
      <trkpt lat="44.3022" lon="1.09577">
        <ele>205.555312</ele>
        <time>2022-08-01T07:07:23.499Z</time>
      </trkpt>
      <trkpt lat="44.30203" lon="1.09572">
        <ele>205.371432</ele>
        <time>2022-08-01T07:07:25.494Z</time>
      </trkpt>
      <trkpt lat="44.30194" lon="1.09567">
        <ele>205.269028</ele>
        <time>2022-08-01T07:07:26.532Z</time>
      </trkpt>
      <trkpt lat="44.30185" lon="1.09563">
        <ele>205.169479</ele>
        <time>2022-08-01T07:07:27.477Z</time>
      </trkpt>
      <trkpt lat="44.30169" lon="1.09556">
        <ele>204.991248</ele>
        <time>2022-08-01T07:07:29.491Z</time>
      </trkpt>
      <trkpt lat="44.3016" lon="1.09554">
        <ele>204.885111</ele>
        <time>2022-08-01T07:07:30.474Z</time>
      </trkpt>
      <trkpt lat="44.3015" lon="1.09552">
        <ele>204.785975</ele>
        <time>2022-08-01T07:07:31.482Z</time>
      </trkpt>
      <trkpt lat="44.30141" lon="1.0955">
        <ele>204.685924</ele>
        <time>2022-08-01T07:07:32.530Z</time>
      </trkpt>
      <trkpt lat="44.30131" lon="1.09545">
        <ele>204.57619</ele>
        <time>2022-08-01T07:07:33.497Z</time>
      </trkpt>
      <trkpt lat="44.30122" lon="1.09543">
        <ele>204.477807</ele>
        <time>2022-08-01T07:07:34.490Z</time>
      </trkpt>
      <trkpt lat="44.30108" lon="1.09535">
        <ele>204.310798</ele>
        <time>2022-08-01T07:07:36.496Z</time>
      </trkpt>
      <trkpt lat="44.30098" lon="1.09533">
        <ele>204.2056</ele>
        <time>2022-08-01T07:07:37.499Z</time>
      </trkpt>
      <trkpt lat="44.30089" lon="1.0953">
        <ele>204.228687</ele>
        <time>2022-08-01T07:07:38.524Z</time>
      </trkpt>
      <trkpt lat="44.30074" lon="1.09522">
        <ele>204.330824</ele>
        <time>2022-08-01T07:07:40.481Z</time>
      </trkpt>
      <trkpt lat="44.30059" lon="1.09517">
        <ele>204.430198</ele>
        <time>2022-08-01T07:07:42.499Z</time>
      </trkpt>
      <trkpt lat="44.30042" lon="1.0951">
        <ele>204.542715</ele>
        <time>2022-08-01T07:07:44.531Z</time>
      </trkpt>
      <trkpt lat="44.30026" lon="1.09504">
        <ele>204.645563</ele>
        <time>2022-08-01T07:07:46.500Z</time>
      </trkpt>
      <trkpt lat="44.30013" lon="1.095">
        <ele>204.735786</ele>
        <time>2022-08-01T07:07:48.496Z</time>
      </trkpt>
      <trkpt lat="44.29997" lon="1.09496">
        <ele>204.835385</ele>
        <time>2022-08-01T07:07:50.542Z</time>
      </trkpt>
      <trkpt lat="44.29982" lon="1.09494">
        <ele>204.934532</ele>
        <time>2022-08-01T07:07:52.500Z</time>
      </trkpt>
      <trkpt lat="44.29967" lon="1.09491">
        <ele>205.027252</ele>
        <time>2022-08-01T07:07:54.505Z</time>
      </trkpt>
      <trkpt lat="44.29952" lon="1.09488">
        <ele>205.123282</ele>
        <time>2022-08-01T07:07:56.524Z</time>
      </trkpt>
      <trkpt lat="44.29943" lon="1.0949">
        <ele>205.183351</ele>
        <time>2022-08-01T07:07:57.494Z</time>
      </trkpt>
      <trkpt lat="44.29928" lon="1.09493">
        <ele>205.280056</ele>
        <time>2022-08-01T07:07:59.498Z</time>
      </trkpt>
      <trkpt lat="44.29912" lon="1.09496">
        <ele>205.332368</ele>
        <time>2022-08-01T07:08:01.482Z</time>
      </trkpt>
      <trkpt lat="44.29898" lon="1.09498">
        <ele>205.3397</ele>
        <time>2022-08-01T07:08:03.500Z</time>
      </trkpt>
      <trkpt lat="44.29884" lon="1.09503">
        <ele>205.347147</ele>
        <time>2022-08-01T07:08:05.489Z</time>
      </trkpt>
      <trkpt lat="44.29871" lon="1.09507">
        <ele>205.354303</ele>
        <time>2022-08-01T07:08:07.494Z</time>
      </trkpt>
      <trkpt lat="44.29857" lon="1.09512">
        <ele>205.361742</ele>
        <time>2022-08-01T07:08:09.497Z</time>
      </trkpt>
      <trkpt lat="44.29843" lon="1.09514">
        <ele>205.369169</ele>
        <time>2022-08-01T07:08:11.478Z</time>
      </trkpt>
      <trkpt lat="44.2983" lon="1.09512">
        <ele>205.375661</ele>
        <time>2022-08-01T07:08:13.496Z</time>
      </trkpt>
      <trkpt lat="44.2982" lon="1.09505">
        <ele>205.38173</ele>
        <time>2022-08-01T07:08:15.495Z</time>
      </trkpt>
      <trkpt lat="44.29806" lon="1.09495">
        <ele>205.389505</ele>
        <time>2022-08-01T07:08:17.499Z</time>
      </trkpt>
      <trkpt lat="44.29793" lon="1.09484">
        <ele>205.397615</ele>
        <time>2022-08-01T07:08:19.485Z</time>
      </trkpt>
      <trkpt lat="44.29781" lon="1.09471">
        <ele>205.405531</ele>
        <time>2022-08-01T07:08:21.479Z</time>
      </trkpt>
      <trkpt lat="44.29764" lon="1.09458">
        <ele>205.415783</ele>
        <time>2022-08-01T07:08:23.481Z</time>
      </trkpt>
      <trkpt lat="44.29756" lon="1.09451">
        <ele>205.420623</ele>
        <time>2022-08-01T07:08:24.499Z</time>
      </trkpt>
      <trkpt lat="44.29742" lon="1.09438">
        <ele>205.259195</ele>
        <time>2022-08-01T07:08:26.530Z</time>
      </trkpt>
      <trkpt lat="44.29727" lon="1.09428">
        <ele>205.079074</ele>
        <time>2022-08-01T07:08:28.492Z</time>
      </trkpt>
      <trkpt lat="44.29712" lon="1.09418">
        <ele>204.902177</ele>
        <time>2022-08-01T07:08:30.492Z</time>
      </trkpt>
      <trkpt lat="44.29699" lon="1.0941">
        <ele>204.740147</ele>
        <time>2022-08-01T07:08:32.519Z</time>
      </trkpt>
      <trkpt lat="44.2969" lon="1.09407">
        <ele>204.641801</ele>
        <time>2022-08-01T07:08:33.499Z</time>
      </trkpt>
      <trkpt lat="44.29676" lon="1.09402">
        <ele>204.482786</ele>
        <time>2022-08-01T07:08:35.499Z</time>
      </trkpt>
      <trkpt lat="44.29661" lon="1.09396">
        <ele>204.310614</ele>
        <time>2022-08-01T07:08:37.499Z</time>
      </trkpt>
      <trkpt lat="44.29645" lon="1.09389">
        <ele>204.13262</ele>
        <time>2022-08-01T07:08:39.499Z</time>
      </trkpt>
      <trkpt lat="44.2963" lon="1.09385">
        <ele>203.960514</ele>
        <time>2022-08-01T07:08:41.499Z</time>
      </trkpt>
      <trkpt lat="44.29616" lon="1.0938">
        <ele>203.80958</ele>
        <time>2022-08-01T07:08:43.474Z</time>
      </trkpt>
      <trkpt lat="44.29601" lon="1.09373">
        <ele>203.640351</ele>
        <time>2022-08-01T07:08:45.484Z</time>
      </trkpt>
      <trkpt lat="44.29586" lon="1.09365">
        <ele>203.463668</ele>
        <time>2022-08-01T07:08:47.501Z</time>
      </trkpt>
      <trkpt lat="44.29572" lon="1.0936">
        <ele>203.408752</ele>
        <time>2022-08-01T07:08:49.479Z</time>
      </trkpt>
      <trkpt lat="44.29558" lon="1.0935">
        <ele>203.354883</ele>
        <time>2022-08-01T07:08:51.478Z</time>
      </trkpt>
      <trkpt lat="44.29543" lon="1.09343">
        <ele>203.300776</ele>
        <time>2022-08-01T07:08:53.515Z</time>
      </trkpt>
      <trkpt lat="44.29529" lon="1.09341">
        <ele>203.248277</ele>
        <time>2022-08-01T07:08:55.507Z</time>
      </trkpt>
      <trkpt lat="44.29513" lon="1.0934">
        <ele>203.192284</ele>
        <time>2022-08-01T07:08:57.493Z</time>
      </trkpt>
      <trkpt lat="44.29496" lon="1.09337">
        <ele>203.132726</ele>
        <time>2022-08-01T07:08:59.489Z</time>
      </trkpt>
      <trkpt lat="44.29479" lon="1.09336">
        <ele>203.072466</ele>
        <time>2022-08-01T07:09:01.478Z</time>
      </trkpt>
      <trkpt lat="44.29463" lon="1.09332">
        <ele>203.013021</ele>
        <time>2022-08-01T07:09:03.496Z</time>
      </trkpt>
      <trkpt lat="44.29445" lon="1.0933">
        <ele>202.951789</ele>
        <time>2022-08-01T07:09:05.509Z</time>
      </trkpt>
      <trkpt lat="44.29436" lon="1.09328">
        <ele>202.918301</ele>
        <time>2022-08-01T07:09:06.505Z</time>
      </trkpt>
      <trkpt lat="44.2942" lon="1.09324">
        <ele>202.860485</ele>
        <time>2022-08-01T07:09:08.539Z</time>
      </trkpt>
      <trkpt lat="44.29407" lon="1.09322">
        <ele>202.834777</ele>
        <time>2022-08-01T07:09:10.502Z</time>
      </trkpt>
      <trkpt lat="44.29391" lon="1.09319">
        <ele>202.879691</ele>
        <time>2022-08-01T07:09:12.514Z</time>
      </trkpt>
      <trkpt lat="44.29376" lon="1.09316">
        <ele>202.92335</ele>
        <time>2022-08-01T07:09:14.527Z</time>
      </trkpt>
      <trkpt lat="44.2936" lon="1.09313">
        <ele>202.967825</ele>
        <time>2022-08-01T07:09:16.479Z</time>
      </trkpt>
      <trkpt lat="44.29344" lon="1.09309">
        <ele>203.014011</ele>
        <time>2022-08-01T07:09:18.499Z</time>
      </trkpt>
      <trkpt lat="44.29328" lon="1.09308">
        <ele>203.059638</ele>
        <time>2022-08-01T07:09:20.514Z</time>
      </trkpt>
      <trkpt lat="44.29313" lon="1.09307">
        <ele>203.103015</ele>
        <time>2022-08-01T07:09:22.498Z</time>
      </trkpt>
      <trkpt lat="44.29297" lon="1.09307">
        <ele>203.146073</ele>
        <time>2022-08-01T07:09:24.486Z</time>
      </trkpt>
      <trkpt lat="44.29287" lon="1.09308">
        <ele>203.175319</ele>
        <time>2022-08-01T07:09:25.499Z</time>
      </trkpt>
      <trkpt lat="44.29271" lon="1.09309">
        <ele>203.221536</ele>
        <time>2022-08-01T07:09:27.495Z</time>
      </trkpt>
      <trkpt lat="44.29254" lon="1.09307">
        <ele>203.269828</ele>
        <time>2022-08-01T07:09:29.508Z</time>
      </trkpt>
      <trkpt lat="44.29244" lon="1.09308">
        <ele>203.297594</ele>
        <time>2022-08-01T07:09:30.498Z</time>
      </trkpt>
      <trkpt lat="44.29229" lon="1.09306">
        <ele>203.320021</ele>
        <time>2022-08-01T07:09:32.530Z</time>
      </trkpt>
      <trkpt lat="44.2922" lon="1.09305">
        <ele>203.231273</ele>
        <time>2022-08-01T07:09:33.502Z</time>
      </trkpt>
      <trkpt lat="44.29205" lon="1.09303">
        <ele>203.097324</ele>
        <time>2022-08-01T07:09:35.499Z</time>
      </trkpt>
      <trkpt lat="44.29189" lon="1.09304">
        <ele>202.958303</ele>
        <time>2022-08-01T07:09:37.495Z</time>
      </trkpt>
      <trkpt lat="44.29172" lon="1.09304">
        <ele>202.796701</ele>
        <time>2022-08-01T07:09:39.500Z</time>
      </trkpt>
      <trkpt lat="44.29156" lon="1.09305">
        <ele>202.655702</ele>
        <time>2022-08-01T07:09:41.501Z</time>
      </trkpt>
      <trkpt lat="44.2914" lon="1.09304">
        <ele>202.514829</ele>
        <time>2022-08-01T07:09:43.476Z</time>
      </trkpt>
      <trkpt lat="44.29123" lon="1.09306">
        <ele>202.358363</ele>
        <time>2022-08-01T07:09:45.497Z</time>
      </trkpt>
      <trkpt lat="44.29106" lon="1.09306">
        <ele>202.204894</ele>
        <time>2022-08-01T07:09:47.502Z</time>
      </trkpt>
      <trkpt lat="44.29092" lon="1.09304">
        <ele>202.075576</ele>
        <time>2022-08-01T07:09:49.509Z</time>
      </trkpt>
      <trkpt lat="44.29081" lon="1.09306">
        <ele>201.982221</ele>
        <time>2022-08-01T07:09:50.525Z</time>
      </trkpt>
      <trkpt lat="44.29072" lon="1.09305">
        <ele>201.897346</ele>
        <time>2022-08-01T07:09:51.503Z</time>
      </trkpt>
      <trkpt lat="44.29056" lon="1.09303">
        <ele>201.750421</ele>
        <time>2022-08-01T07:09:53.500Z</time>
      </trkpt>
      <trkpt lat="44.29041" lon="1.09303">
        <ele>201.842618</ele>
        <time>2022-08-01T07:09:55.491Z</time>
      </trkpt>
      <trkpt lat="44.29025" lon="1.09301">
        <ele>202.034001</ele>
        <time>2022-08-01T07:09:57.482Z</time>
      </trkpt>
      <trkpt lat="44.29009" lon="1.09298">
        <ele>202.230766</ele>
        <time>2022-08-01T07:09:59.484Z</time>
      </trkpt>
      <trkpt lat="44.28996" lon="1.09294">
        <ele>202.387999</ele>
        <time>2022-08-01T07:10:01.493Z</time>
      </trkpt>
      <trkpt lat="44.28985" lon="1.09291">
        <ele>202.524043</ele>
        <time>2022-08-01T07:10:03.469Z</time>
      </trkpt>
      <trkpt lat="44.28972" lon="1.09292">
        <ele>202.683806</ele>
        <time>2022-08-01T07:10:05.499Z</time>
      </trkpt>
      <trkpt lat="44.28957" lon="1.09289">
        <ele>202.863444</ele>
        <time>2022-08-01T07:10:07.505Z</time>
      </trkpt>
      <trkpt lat="44.28945" lon="1.09284">
        <ele>203.019108</ele>
        <time>2022-08-01T07:10:09.493Z</time>
      </trkpt>
      <trkpt lat="44.28929" lon="1.09281">
        <ele>203.208444</ele>
        <time>2022-08-01T07:10:11.498Z</time>
      </trkpt>
      <trkpt lat="44.28917" lon="1.0928">
        <ele>203.359022</ele>
        <time>2022-08-01T07:10:13.502Z</time>
      </trkpt>
      <trkpt lat="44.28898" lon="1.09274">
        <ele>203.592824</ele>
        <time>2022-08-01T07:10:15.502Z</time>
      </trkpt>
      <trkpt lat="44.28888" lon="1.0927">
        <ele>203.711009</ele>
        <time>2022-08-01T07:10:16.500Z</time>
      </trkpt>
      <trkpt lat="44.28877" lon="1.09264">
        <ele>203.853179</ele>
        <time>2022-08-01T07:10:17.495Z</time>
      </trkpt>
      <trkpt lat="44.28861" lon="1.09259">
        <ele>203.813382</ele>
        <time>2022-08-01T07:10:19.489Z</time>
      </trkpt>
      <trkpt lat="44.28851" lon="1.09256">
        <ele>203.761828</ele>
        <time>2022-08-01T07:10:20.521Z</time>
      </trkpt>
      <trkpt lat="44.28836" lon="1.09251">
        <ele>203.677979</ele>
        <time>2022-08-01T07:10:22.498Z</time>
      </trkpt>
      <trkpt lat="44.28826" lon="1.0925">
        <ele>203.626631</ele>
        <time>2022-08-01T07:10:23.503Z</time>
      </trkpt>
      <trkpt lat="44.28809" lon="1.09246">
        <ele>203.538747</ele>
        <time>2022-08-01T07:10:25.500Z</time>
      </trkpt>
      <trkpt lat="44.28794" lon="1.09245">
        <ele>203.459653</ele>
        <time>2022-08-01T07:10:27.490Z</time>
      </trkpt>
      <trkpt lat="44.28777" lon="1.09248">
        <ele>203.375777</ele>
        <time>2022-08-01T07:10:29.496Z</time>
      </trkpt>
      <trkpt lat="44.28769" lon="1.0925">
        <ele>203.32939</ele>
        <time>2022-08-01T07:10:30.493Z</time>
      </trkpt>
      <trkpt lat="44.28753" lon="1.0925">
        <ele>203.251372</ele>
        <time>2022-08-01T07:10:32.517Z</time>
      </trkpt>
      <trkpt lat="44.28739" lon="1.09248">
        <ele>203.174515</ele>
        <time>2022-08-01T07:10:34.490Z</time>
      </trkpt>
      <trkpt lat="44.2873" lon="1.09246">
        <ele>203.127001</ele>
        <time>2022-08-01T07:10:35.506Z</time>
      </trkpt>
      <trkpt lat="44.28715" lon="1.09238">
        <ele>203.044703</ele>
        <time>2022-08-01T07:10:37.508Z</time>
      </trkpt>
      <trkpt lat="44.28701" lon="1.09231">
        <ele>202.970826</ele>
        <time>2022-08-01T07:10:39.498Z</time>
      </trkpt>
      <trkpt lat="44.28687" lon="1.09223">
        <ele>202.720209</ele>
        <time>2022-08-01T07:10:41.525Z</time>
      </trkpt>
      <trkpt lat="44.28673" lon="1.09215">
        <ele>202.450761</ele>
        <time>2022-08-01T07:10:43.474Z</time>
      </trkpt>
      <trkpt lat="44.28658" lon="1.09205">
        <ele>202.15901</ele>
        <time>2022-08-01T07:10:45.483Z</time>
      </trkpt>
      <trkpt lat="44.28645" lon="1.09197">
        <ele>201.89404</ele>
        <time>2022-08-01T07:10:47.521Z</time>
      </trkpt>
      <trkpt lat="44.28632" lon="1.09191">
        <ele>201.653788</ele>
        <time>2022-08-01T07:10:49.480Z</time>
      </trkpt>
      <trkpt lat="44.28619" lon="1.09185">
        <ele>201.400455</ele>
        <time>2022-08-01T07:10:51.478Z</time>
      </trkpt>
      <trkpt lat="44.28607" lon="1.09179">
        <ele>201.160112</ele>
        <time>2022-08-01T07:10:53.517Z</time>
      </trkpt>
      <trkpt lat="44.28592" lon="1.09175">
        <ele>200.883521</ele>
        <time>2022-08-01T07:10:55.496Z</time>
      </trkpt>
      <trkpt lat="44.28576" lon="1.09168">
        <ele>200.579616</ele>
        <time>2022-08-01T07:10:57.501Z</time>
      </trkpt>
      <trkpt lat="44.28563" lon="1.09164">
        <ele>200.353793</ele>
        <time>2022-08-01T07:10:59.532Z</time>
      </trkpt>
      <trkpt lat="44.28548" lon="1.09161">
        <ele>200.073958</ele>
        <time>2022-08-01T07:11:01.497Z</time>
      </trkpt>
      <trkpt lat="44.28539" lon="1.09158">
        <ele>199.908927</ele>
        <time>2022-08-01T07:11:02.492Z</time>
      </trkpt>
      <trkpt lat="44.28526" lon="1.09151">
        <ele>199.713375</ele>
        <time>2022-08-01T07:11:04.494Z</time>
      </trkpt>
      <trkpt lat="44.28512" lon="1.09146">
        <ele>199.791757</ele>
        <time>2022-08-01T07:11:06.508Z</time>
      </trkpt>
      <trkpt lat="44.28498" lon="1.0914">
        <ele>199.86657</ele>
        <time>2022-08-01T07:11:08.493Z</time>
      </trkpt>
      <trkpt lat="44.28485" lon="1.09135">
        <ele>199.939178</ele>
        <time>2022-08-01T07:11:10.488Z</time>
      </trkpt>
      <trkpt lat="44.28472" lon="1.0913">
        <ele>200.013541</ele>
        <time>2022-08-01T07:11:12.467Z</time>
      </trkpt>
      <trkpt lat="44.2846" lon="1.09127">
        <ele>200.081076</ele>
        <time>2022-08-01T07:11:14.486Z</time>
      </trkpt>
      <trkpt lat="44.28448" lon="1.09124">
        <ele>200.143726</ele>
        <time>2022-08-01T07:11:16.500Z</time>
      </trkpt>
      <trkpt lat="44.28434" lon="1.09117">
        <ele>200.221934</ele>
        <time>2022-08-01T07:11:18.512Z</time>
      </trkpt>
      <trkpt lat="44.28421" lon="1.09112">
        <ele>200.294601</ele>
        <time>2022-08-01T07:11:20.492Z</time>
      </trkpt>
      <trkpt lat="44.28408" lon="1.09108">
        <ele>200.368399</ele>
        <time>2022-08-01T07:11:22.495Z</time>
      </trkpt>
      <trkpt lat="44.28394" lon="1.09103">
        <ele>200.447619</ele>
        <time>2022-08-01T07:11:24.497Z</time>
      </trkpt>
      <trkpt lat="44.28379" lon="1.09097">
        <ele>200.527668</ele>
        <time>2022-08-01T07:11:26.480Z</time>
      </trkpt>
      <trkpt lat="44.28364" lon="1.0909">
        <ele>200.613517</ele>
        <time>2022-08-01T07:11:28.478Z</time>
      </trkpt>
      <trkpt lat="44.28352" lon="1.09083">
        <ele>200.710668</ele>
        <time>2022-08-01T07:11:30.482Z</time>
      </trkpt>
      <trkpt lat="44.2834" lon="1.09075">
        <ele>200.907865</ele>
        <time>2022-08-01T07:11:32.490Z</time>
      </trkpt>
      <trkpt lat="44.28326" lon="1.09067">
        <ele>201.120444</ele>
        <time>2022-08-01T07:11:34.488Z</time>
      </trkpt>
      <trkpt lat="44.28314" lon="1.09058">
        <ele>201.320952</ele>
        <time>2022-08-01T07:11:36.506Z</time>
      </trkpt>
      <trkpt lat="44.28303" lon="1.09052">
        <ele>201.492784</ele>
        <time>2022-08-01T07:11:38.498Z</time>
      </trkpt>
      <trkpt lat="44.2829" lon="1.09044">
        <ele>201.70058</ele>
        <time>2022-08-01T07:11:40.510Z</time>
      </trkpt>
      <trkpt lat="44.28277" lon="1.09039">
        <ele>201.886315</ele>
        <time>2022-08-01T07:11:42.491Z</time>
      </trkpt>
      <trkpt lat="44.28267" lon="1.09032">
        <ele>202.050874</ele>
        <time>2022-08-01T07:11:44.498Z</time>
      </trkpt>
      <trkpt lat="44.28253" lon="1.09024">
        <ele>202.265508</ele>
        <time>2022-08-01T07:11:46.489Z</time>
      </trkpt>
      <trkpt lat="44.28243" lon="1.09015">
        <ele>202.442974</ele>
        <time>2022-08-01T07:11:48.481Z</time>
      </trkpt>
      <trkpt lat="44.2823" lon="1.09004">
        <ele>202.654707</ele>
        <time>2022-08-01T07:11:50.515Z</time>
      </trkpt>
      <trkpt lat="44.28219" lon="1.0899">
        <ele>202.873321</ele>
        <time>2022-08-01T07:11:52.497Z</time>
      </trkpt>
      <trkpt lat="44.28209" lon="1.08976">
        <ele>203.075737</ele>
        <time>2022-08-01T07:11:54.488Z</time>
      </trkpt>
      <trkpt lat="44.28199" lon="1.08964">
        <ele>203.244491</ele>
        <time>2022-08-01T07:11:56.499Z</time>
      </trkpt>
      <trkpt lat="44.28185" lon="1.08958">
        <ele>203.079869</ele>
        <time>2022-08-01T07:11:58.502Z</time>
      </trkpt>
      <trkpt lat="44.2817" lon="1.08956">
        <ele>202.911014</ele>
        <time>2022-08-01T07:12:00.502Z</time>
      </trkpt>
      <trkpt lat="44.28157" lon="1.08954">
        <ele>202.756758</ele>
        <time>2022-08-01T07:12:02.501Z</time>
      </trkpt>
      <trkpt lat="44.28144" lon="1.08954">
        <ele>202.61365</ele>
        <time>2022-08-01T07:12:04.489Z</time>
      </trkpt>
      <trkpt lat="44.28131" lon="1.08954">
        <ele>202.460288</ele>
        <time>2022-08-01T07:12:06.501Z</time>
      </trkpt>
      <trkpt lat="44.28119" lon="1.08952">
        <ele>202.328684</ele>
        <time>2022-08-01T07:12:08.499Z</time>
      </trkpt>
      <trkpt lat="44.28106" lon="1.08951">
        <ele>202.176405</ele>
        <time>2022-08-01T07:12:10.499Z</time>
      </trkpt>
      <trkpt lat="44.28095" lon="1.08951">
        <ele>202.054851</ele>
        <time>2022-08-01T07:12:12.490Z</time>
      </trkpt>
      <trkpt lat="44.28077" lon="1.08952">
        <ele>201.846627</ele>
        <time>2022-08-01T07:12:14.519Z</time>
      </trkpt>
      <trkpt lat="44.28063" lon="1.08952">
        <ele>201.696706</ele>
        <time>2022-08-01T07:12:16.480Z</time>
      </trkpt>
      <trkpt lat="44.2805" lon="1.0895">
        <ele>201.538178</ele>
        <time>2022-08-01T07:12:18.496Z</time>
      </trkpt>
      <trkpt lat="44.28036" lon="1.08951">
        <ele>201.388136</ele>
        <time>2022-08-01T07:12:20.503Z</time>
      </trkpt>
      <trkpt lat="44.28023" lon="1.08949">
        <ele>201.231338</ele>
        <time>2022-08-01T07:12:22.502Z</time>
      </trkpt>
      <trkpt lat="44.28011" lon="1.08947">
        <ele>201.275812</ele>
        <time>2022-08-01T07:12:24.494Z</time>
      </trkpt>
      <trkpt lat="44.27998" lon="1.08945">
        <ele>201.355286</ele>
        <time>2022-08-01T07:12:26.490Z</time>
      </trkpt>
      <trkpt lat="44.27989" lon="1.08945">
        <ele>201.411656</ele>
        <time>2022-08-01T07:12:28.488Z</time>
      </trkpt>
      <trkpt lat="44.27977" lon="1.08946">
        <ele>201.487486</ele>
        <time>2022-08-01T07:12:30.484Z</time>
      </trkpt>
      <trkpt lat="44.27965" lon="1.08944">
        <ele>201.565209</ele>
        <time>2022-08-01T07:12:33.493Z</time>
      </trkpt>
      <trkpt lat="44.27952" lon="1.08939">
        <ele>201.647662</ele>
        <time>2022-08-01T07:12:35.541Z</time>
      </trkpt>
      <trkpt lat="44.27942" lon="1.08937">
        <ele>201.712682</ele>
        <time>2022-08-01T07:12:37.502Z</time>
      </trkpt>
      <trkpt lat="44.27932" lon="1.08935">
        <ele>201.776755</ele>
        <time>2022-08-01T07:12:38.508Z</time>
      </trkpt>
      <trkpt lat="44.2792" lon="1.08936">
        <ele>201.850034</ele>
        <time>2022-08-01T07:12:39.490Z</time>
      </trkpt>
      <trkpt lat="44.27909" lon="1.08936">
        <ele>201.915245</ele>
        <time>2022-08-01T07:12:40.481Z</time>
      </trkpt>
      <trkpt lat="44.279" lon="1.08932">
        <ele>201.974818</ele>
        <time>2022-08-01T07:12:41.522Z</time>
      </trkpt>
      <trkpt lat="44.27891" lon="1.08929">
        <ele>202.037851</ele>
        <time>2022-08-01T07:12:42.500Z</time>
      </trkpt>
      <trkpt lat="44.27876" lon="1.08924">
        <ele>202.130572</ele>
        <time>2022-08-01T07:12:44.495Z</time>
      </trkpt>
      <trkpt lat="44.27864" lon="1.0892">
        <ele>202.207736</ele>
        <time>2022-08-01T07:12:46.486Z</time>
      </trkpt>
      <trkpt lat="44.27846" lon="1.08916">
        <ele>202.321645</ele>
        <time>2022-08-01T07:12:48.489Z</time>
      </trkpt>
      <trkpt lat="44.2783" lon="1.08913">
        <ele>201.812729</ele>
        <time>2022-08-01T07:12:50.495Z</time>
      </trkpt>
      <trkpt lat="44.27815" lon="1.08909">
        <ele>201.256031</ele>
        <time>2022-08-01T07:12:52.501Z</time>
      </trkpt>
      <trkpt lat="44.27802" lon="1.08904">
        <ele>200.75452</ele>
        <time>2022-08-01T07:12:54.488Z</time>
      </trkpt>
      <trkpt lat="44.27787" lon="1.08901">
        <ele>200.21668</ele>
        <time>2022-08-01T07:12:56.492Z</time>
      </trkpt>
      <trkpt lat="44.27778" lon="1.089">
        <ele>199.854438</ele>
        <time>2022-08-01T07:12:57.513Z</time>
      </trkpt>
      <trkpt lat="44.27769" lon="1.08898">
        <ele>199.514284</ele>
        <time>2022-08-01T07:12:58.493Z</time>
      </trkpt>
      <trkpt lat="44.27754" lon="1.08895">
        <ele>198.954363</ele>
        <time>2022-08-01T07:13:00.491Z</time>
      </trkpt>
      <trkpt lat="44.27739" lon="1.08892">
        <ele>198.404492</ele>
        <time>2022-08-01T07:13:02.483Z</time>
      </trkpt>
      <trkpt lat="44.27723" lon="1.08889">
        <ele>197.820835</ele>
        <time>2022-08-01T07:13:04.506Z</time>
      </trkpt>
      <trkpt lat="44.27708" lon="1.08886">
        <ele>197.2412</ele>
        <time>2022-08-01T07:13:06.498Z</time>
      </trkpt>
      <trkpt lat="44.27694" lon="1.08883">
        <ele>196.718299</ele>
        <time>2022-08-01T07:13:08.496Z</time>
      </trkpt>
      <trkpt lat="44.27679" lon="1.08879">
        <ele>196.152439</ele>
        <time>2022-08-01T07:13:10.482Z</time>
      </trkpt>
      <trkpt lat="44.27665" lon="1.08874">
        <ele>195.640159</ele>
        <time>2022-08-01T07:13:12.483Z</time>
      </trkpt>
      <trkpt lat="44.27651" lon="1.0887">
        <ele>195.413223</ele>
        <time>2022-08-01T07:13:14.517Z</time>
      </trkpt>
      <trkpt lat="44.27639" lon="1.08866">
        <ele>195.219541</ele>
        <time>2022-08-01T07:13:16.494Z</time>
      </trkpt>
      <trkpt lat="44.27626" lon="1.08863">
        <ele>195.016203</ele>
        <time>2022-08-01T07:13:18.490Z</time>
      </trkpt>
      <trkpt lat="44.27617" lon="1.08863">
        <ele>194.872963</ele>
        <time>2022-08-01T07:13:19.490Z</time>
      </trkpt>
      <trkpt lat="44.27602" lon="1.08861">
        <ele>194.64539</ele>
        <time>2022-08-01T07:13:21.495Z</time>
      </trkpt>
      <trkpt lat="44.27589" lon="1.08857">
        <ele>194.437144</ele>
        <time>2022-08-01T07:13:23.499Z</time>
      </trkpt>
      <trkpt lat="44.27575" lon="1.08854">
        <ele>194.213842</ele>
        <time>2022-08-01T07:13:25.455Z</time>
      </trkpt>
      <trkpt lat="44.27559" lon="1.08853">
        <ele>193.955397</ele>
        <time>2022-08-01T07:13:27.478Z</time>
      </trkpt>
      <trkpt lat="44.27546" lon="1.0885">
        <ele>193.749358</ele>
        <time>2022-08-01T07:13:29.542Z</time>
      </trkpt>
      <trkpt lat="44.27533" lon="1.08847">
        <ele>193.544199</ele>
        <time>2022-08-01T07:13:31.498Z</time>
      </trkpt>
      <trkpt lat="44.27524" lon="1.08843">
        <ele>193.392617</ele>
        <time>2022-08-01T07:13:33.502Z</time>
      </trkpt>
      <trkpt lat="44.27513" lon="1.08841">
        <ele>193.217859</ele>
        <time>2022-08-01T07:13:36.459Z</time>
      </trkpt>
      <trkpt lat="44.27514" lon="1.08856">
        <ele>193.042823</ele>
        <time>2022-08-01T07:13:41.527Z</time>
      </trkpt>
      <trkpt lat="44.27519" lon="1.08871">
        <ele>192.856222</ele>
        <time>2022-08-01T07:13:45.498Z</time>
      </trkpt>
      <trkpt lat="44.27526" lon="1.08885">
        <ele>192.997253</ele>
        <time>2022-08-01T07:13:48.479Z</time>
      </trkpt>
      <trkpt lat="44.27532" lon="1.089">
        <ele>193.168486</ele>
        <time>2022-08-01T07:13:51.474Z</time>
      </trkpt>
      <trkpt lat="44.27538" lon="1.08913">
        <ele>193.329681</ele>
        <time>2022-08-01T07:13:54.484Z</time>
      </trkpt>
      <trkpt lat="44.27545" lon="1.08925">
        <ele>193.501406</ele>
        <time>2022-08-01T07:13:57.507Z</time>
      </trkpt>
      <trkpt lat="44.27551" lon="1.08937">
        <ele>193.646932</ele>
        <time>2022-08-01T07:13:59.524Z</time>
      </trkpt>
      <trkpt lat="44.27555" lon="1.08951">
        <ele>193.797965</ele>
        <time>2022-08-01T07:14:01.499Z</time>
      </trkpt>
      <trkpt lat="44.27561" lon="1.08964">
        <ele>193.9637</ele>
        <time>2022-08-01T07:14:03.500Z</time>
      </trkpt>
      <trkpt lat="44.27567" lon="1.08981">
        <ele>194.161604</ele>
        <time>2022-08-01T07:14:06.508Z</time>
      </trkpt>
      <trkpt lat="44.27574" lon="1.08997">
        <ele>194.357026</ele>
        <time>2022-08-01T07:14:08.490Z</time>
      </trkpt>
      <trkpt lat="44.27579" lon="1.09013">
        <ele>194.533677</ele>
        <time>2022-08-01T07:14:10.485Z</time>
      </trkpt>
      <trkpt lat="44.27585" lon="1.0903">
        <ele>194.730061</ele>
        <time>2022-08-01T07:14:13.493Z</time>
      </trkpt>
      <trkpt lat="44.27586" lon="1.09048">
        <ele>194.919335</ele>
        <time>2022-08-01T07:14:17.537Z</time>
      </trkpt>
      <trkpt lat="44.27584" lon="1.09062">
        <ele>195.060657</ele>
        <time>2022-08-01T07:14:19.498Z</time>
      </trkpt>
      <trkpt lat="44.27581" lon="1.09079">
        <ele>195.246783</ele>
        <time>2022-08-01T07:14:22.502Z</time>
      </trkpt>
      <trkpt lat="44.27577" lon="1.09095">
        <ele>195.428041</ele>
        <time>2022-08-01T07:14:25.500Z</time>
      </trkpt>
      <trkpt lat="44.27574" lon="1.09107">
        <ele>195.784041</ele>
        <time>2022-08-01T07:14:27.496Z</time>
      </trkpt>
      <trkpt lat="44.2757" lon="1.09124">
        <ele>196.315102</ele>
        <time>2022-08-01T07:14:30.469Z</time>
      </trkpt>
      <trkpt lat="44.27567" lon="1.09142">
        <ele>196.862787</ele>
        <time>2022-08-01T07:14:33.470Z</time>
      </trkpt>
      <trkpt lat="44.27571" lon="1.09158">
        <ele>197.393933</ele>
        <time>2022-08-01T07:14:36.490Z</time>
      </trkpt>
      <trkpt lat="44.27572" lon="1.09173">
        <ele>197.834019</ele>
        <time>2022-08-01T07:14:38.475Z</time>
      </trkpt>
      <trkpt lat="44.27571" lon="1.09186">
        <ele>198.241135</ele>
        <time>2022-08-01T07:14:40.504Z</time>
      </trkpt>
      <trkpt lat="44.27567" lon="1.09201">
        <ele>198.715144</ele>
        <time>2022-08-01T07:14:43.476Z</time>
      </trkpt>
      <trkpt lat="44.27564" lon="1.09214">
        <ele>199.114548</ele>
        <time>2022-08-01T07:14:46.492Z</time>
      </trkpt>
      <trkpt lat="44.27563" lon="1.09228">
        <ele>199.564466</ele>
        <time>2022-08-01T07:14:49.481Z</time>
      </trkpt>
      <trkpt lat="44.27563" lon="1.09246">
        <ele>200.084567</ele>
        <time>2022-08-01T07:14:52.497Z</time>
      </trkpt>
      <trkpt lat="44.27565" lon="1.09262">
        <ele>200.59649</ele>
        <time>2022-08-01T07:14:55.480Z</time>
      </trkpt>
      <trkpt lat="44.27563" lon="1.09277">
        <ele>201.031373</ele>
        <time>2022-08-01T07:14:58.475Z</time>
      </trkpt>
      <trkpt lat="44.2756" lon="1.09292">
        <ele>201.525693</ele>
        <time>2022-08-01T07:15:02.494Z</time>
      </trkpt>
      <trkpt lat="44.27559" lon="1.09305">
        <ele>201.907269</ele>
        <time>2022-08-01T07:15:05.492Z</time>
      </trkpt>
      <trkpt lat="44.27559" lon="1.09321">
        <ele>202.39411</ele>
        <time>2022-08-01T07:15:09.485Z</time>
      </trkpt>
      <trkpt lat="44.2756" lon="1.09335">
        <ele>202.806724</ele>
        <time>2022-08-01T07:15:12.493Z</time>
      </trkpt>
      <trkpt lat="44.27561" lon="1.09348">
        <ele>203.11216</ele>
        <time>2022-08-01T07:15:15.491Z</time>
      </trkpt>
      <trkpt lat="44.27559" lon="1.09365">
        <ele>203.341718</ele>
        <time>2022-08-01T07:15:19.488Z</time>
      </trkpt>
      <trkpt lat="44.2756" lon="1.09381">
        <ele>203.560601</ele>
        <time>2022-08-01T07:15:22.518Z</time>
      </trkpt>
      <trkpt lat="44.2756" lon="1.09396">
        <ele>203.760301</ele>
        <time>2022-08-01T07:15:25.498Z</time>
      </trkpt>
      <trkpt lat="44.2756" lon="1.09412">
        <ele>203.985836</ele>
        <time>2022-08-01T07:15:29.503Z</time>
      </trkpt>
      <trkpt lat="44.27561" lon="1.09426">
        <ele>204.173997</ele>
        <time>2022-08-01T07:15:32.499Z</time>
      </trkpt>
      <trkpt lat="44.2756" lon="1.0944">
        <ele>204.363363</ele>
        <time>2022-08-01T07:15:35.485Z</time>
      </trkpt>
      <trkpt lat="44.27559" lon="1.09458">
        <ele>204.598502</ele>
        <time>2022-08-01T07:15:39.492Z</time>
      </trkpt>
      <trkpt lat="44.27553" lon="1.09485">
        <ele>204.983771</ele>
        <time>2022-08-01T07:15:42.505Z</time>
      </trkpt>
      <trkpt lat="44.27558" lon="1.09505">
        <ele>205.261399</ele>
        <time>2022-08-01T07:15:45.494Z</time>
      </trkpt>
      <trkpt lat="44.2756" lon="1.09523">
        <ele>205.513072</ele>
        <time>2022-08-01T07:15:47.484Z</time>
      </trkpt>
      <trkpt lat="44.2756" lon="1.0954">
        <ele>205.741139</ele>
        <time>2022-08-01T07:15:49.505Z</time>
      </trkpt>
      <trkpt lat="44.27565" lon="1.09555">
        <ele>205.966534</ele>
        <time>2022-08-01T07:15:51.515Z</time>
      </trkpt>
      <trkpt lat="44.27568" lon="1.09568">
        <ele>206.15142</ele>
        <time>2022-08-01T07:15:53.482Z</time>
      </trkpt>
      <trkpt lat="44.27565" lon="1.09582">
        <ele>206.339252</ele>
        <time>2022-08-01T07:15:55.502Z</time>
      </trkpt>
      <trkpt lat="44.27565" lon="1.09598">
        <ele>206.480967</ele>
        <time>2022-08-01T07:15:57.518Z</time>
      </trkpt>
      <trkpt lat="44.27567" lon="1.09614">
        <ele>206.565904</ele>
        <time>2022-08-01T07:15:59.486Z</time>
      </trkpt>
      <trkpt lat="44.2757" lon="1.09628">
        <ele>206.642258</ele>
        <time>2022-08-01T07:16:01.500Z</time>
      </trkpt>
      <trkpt lat="44.27573" lon="1.09644">
        <ele>206.731282</ele>
        <time>2022-08-01T07:16:03.518Z</time>
      </trkpt>
      <trkpt lat="44.2758" lon="1.09662">
        <ele>206.84021</ele>
        <time>2022-08-01T07:16:05.517Z</time>
      </trkpt>
      <trkpt lat="44.27582" lon="1.09678">
        <ele>206.923208</ele>
        <time>2022-08-01T07:16:07.502Z</time>
      </trkpt>
      <trkpt lat="44.27584" lon="1.09695">
        <ele>207.014554</ele>
        <time>2022-08-01T07:16:09.523Z</time>
      </trkpt>
      <trkpt lat="44.27581" lon="1.09712">
        <ele>207.107163</ele>
        <time>2022-08-01T07:16:11.482Z</time>
      </trkpt>
      <trkpt lat="44.27581" lon="1.09726">
        <ele>207.185739</ele>
        <time>2022-08-01T07:16:13.495Z</time>
      </trkpt>
      <trkpt lat="44.27577" lon="1.09745">
        <ele>207.290471</ele>
        <time>2022-08-01T07:16:15.522Z</time>
      </trkpt>
      <trkpt lat="44.27573" lon="1.09765">
        <ele>207.399596</ele>
        <time>2022-08-01T07:16:18.494Z</time>
      </trkpt>
      <trkpt lat="44.27575" lon="1.09779">
        <ele>207.474588</ele>
        <time>2022-08-01T07:16:20.511Z</time>
      </trkpt>
      <trkpt lat="44.27575" lon="1.09795">
        <ele>207.556881</ele>
        <time>2022-08-01T07:16:22.480Z</time>
      </trkpt>
      <trkpt lat="44.27573" lon="1.09809">
        <ele>207.636841</ele>
        <time>2022-08-01T07:16:24.481Z</time>
      </trkpt>
      <trkpt lat="44.27571" lon="1.09824">
        <ele>207.714095</ele>
        <time>2022-08-01T07:16:26.498Z</time>
      </trkpt>
      <trkpt lat="44.27569" lon="1.09839">
        <ele>208.112396</ele>
        <time>2022-08-01T07:16:28.482Z</time>
      </trkpt>
      <trkpt lat="44.27572" lon="1.09857">
        <ele>209.07002</ele>
        <time>2022-08-01T07:16:30.502Z</time>
      </trkpt>
      <trkpt lat="44.2757" lon="1.09874">
        <ele>210.01644</ele>
        <time>2022-08-01T07:16:32.509Z</time>
      </trkpt>
      <trkpt lat="44.27564" lon="1.09894">
        <ele>211.12943</ele>
        <time>2022-08-01T07:16:34.465Z</time>
      </trkpt>
      <trkpt lat="44.27563" lon="1.09909">
        <ele>211.918856</ele>
        <time>2022-08-01T07:16:36.491Z</time>
      </trkpt>
      <trkpt lat="44.27566" lon="1.09929">
        <ele>213.014867</ele>
        <time>2022-08-01T07:16:39.477Z</time>
      </trkpt>
      <trkpt lat="44.27562" lon="1.09943">
        <ele>213.834865</ele>
        <time>2022-08-01T07:16:42.502Z</time>
      </trkpt>
      <trkpt lat="44.27558" lon="1.09956">
        <ele>214.606858</ele>
        <time>2022-08-01T07:16:44.534Z</time>
      </trkpt>
      <trkpt lat="44.27556" lon="1.09969">
        <ele>215.306491</ele>
        <time>2022-08-01T07:16:47.499Z</time>
      </trkpt>
      <trkpt lat="44.2755" lon="1.09982">
        <ele>216.117981</ele>
        <time>2022-08-01T07:16:50.517Z</time>
      </trkpt>
      <trkpt lat="44.2755" lon="1.09997">
        <ele>216.92727</ele>
        <time>2022-08-01T07:16:53.490Z</time>
      </trkpt>
      <trkpt lat="44.2755" lon="1.1001">
        <ele>217.635434</ele>
        <time>2022-08-01T07:16:55.503Z</time>
      </trkpt>
      <trkpt lat="44.27545" lon="1.10021">
        <ele>218.321185</ele>
        <time>2022-08-01T07:16:57.482Z</time>
      </trkpt>
      <trkpt lat="44.27541" lon="1.10036">
        <ele>219.166509</ele>
        <time>2022-08-01T07:17:00.504Z</time>
      </trkpt>
      <trkpt lat="44.27535" lon="1.10046">
        <ele>219.851111</ele>
        <time>2022-08-01T07:17:05.483Z</time>
      </trkpt>
      <trkpt lat="44.27532" lon="1.10059">
        <ele>220.587943</ele>
        <time>2022-08-01T07:17:09.507Z</time>
      </trkpt>
      <trkpt lat="44.27529" lon="1.10075">
        <ele>221.801717</ele>
        <time>2022-08-01T07:17:12.500Z</time>
      </trkpt>
      <trkpt lat="44.27531" lon="1.10088">
        <ele>223.230984</ele>
        <time>2022-08-01T07:17:15.489Z</time>
      </trkpt>
      <trkpt lat="44.27537" lon="1.10101">
        <ele>224.915241</ele>
        <time>2022-08-01T07:17:18.484Z</time>
      </trkpt>
      <trkpt lat="44.27542" lon="1.10112">
        <ele>226.333355</ele>
        <time>2022-08-01T07:17:21.480Z</time>
      </trkpt>
      <trkpt lat="44.27547" lon="1.10127">
        <ele>228.070722</ele>
        <time>2022-08-01T07:17:25.460Z</time>
      </trkpt>
      <trkpt lat="44.27548" lon="1.10142">
        <ele>229.744546</ele>
        <time>2022-08-01T07:17:30.451Z</time>
      </trkpt>
      <trkpt lat="44.27549" lon="1.10156">
        <ele>231.252958</ele>
        <time>2022-08-01T07:17:34.490Z</time>
      </trkpt>
      <trkpt lat="44.27551" lon="1.10168">
        <ele>232.638663</ele>
        <time>2022-08-01T07:17:37.491Z</time>
      </trkpt>
      <trkpt lat="44.27552" lon="1.10184">
        <ele>234.325007</ele>
        <time>2022-08-01T07:17:40.479Z</time>
      </trkpt>
      <trkpt lat="44.27552" lon="1.10197">
        <ele>235.827672</ele>
        <time>2022-08-01T07:17:43.462Z</time>
      </trkpt>
      <trkpt lat="44.2755" lon="1.10212">
        <ele>237.460841</ele>
        <time>2022-08-01T07:17:46.464Z</time>
      </trkpt>
      <trkpt lat="44.27546" lon="1.10228">
        <ele>239.274357</ele>
        <time>2022-08-01T07:17:49.486Z</time>
      </trkpt>
      <trkpt lat="44.2754" lon="1.10239">
        <ele>240.806232</ele>
        <time>2022-08-01T07:17:54.489Z</time>
      </trkpt>
      <trkpt lat="44.27531" lon="1.10234">
        <ele>242.198807</ele>
        <time>2022-08-01T07:18:00.477Z</time>
      </trkpt>
      <trkpt lat="44.27526" lon="1.10222">
        <ele>243.733515</ele>
        <time>2022-08-01T07:18:06.483Z</time>
      </trkpt>
      <trkpt lat="44.27518" lon="1.10215">
        <ele>245.147635</ele>
        <time>2022-08-01T07:18:13.512Z</time>
      </trkpt>
      <trkpt lat="44.27508" lon="1.10218">
        <ele>246.696726</ele>
        <time>2022-08-01T07:18:16.494Z</time>
      </trkpt>
      <trkpt lat="44.27499" lon="1.10225">
        <ele>248.272078</ele>
        <time>2022-08-01T07:18:20.492Z</time>
      </trkpt>
      <trkpt lat="44.27487" lon="1.10233">
        <ele>249.275527</ele>
        <time>2022-08-01T07:18:23.521Z</time>
      </trkpt>
      <trkpt lat="44.27477" lon="1.10241">
        <ele>250.033075</ele>
        <time>2022-08-01T07:18:26.484Z</time>
      </trkpt>
      <trkpt lat="44.27467" lon="1.1025">
        <ele>250.77075</ele>
        <time>2022-08-01T07:18:29.518Z</time>
      </trkpt>
      <trkpt lat="44.27459" lon="1.10259">
        <ele>251.48953</ele>
        <time>2022-08-01T07:18:32.490Z</time>
      </trkpt>
      <trkpt lat="44.27451" lon="1.10268">
        <ele>252.137218</ele>
        <time>2022-08-01T07:18:35.530Z</time>
      </trkpt>
      <trkpt lat="44.27444" lon="1.10279">
        <ele>252.859164</ele>
        <time>2022-08-01T07:18:39.494Z</time>
      </trkpt>
      <trkpt lat="44.27438" lon="1.10291">
        <ele>253.524951</ele>
        <time>2022-08-01T07:18:42.476Z</time>
      </trkpt>
      <trkpt lat="44.27432" lon="1.10302">
        <ele>254.187127</ele>
        <time>2022-08-01T07:18:45.495Z</time>
      </trkpt>
      <trkpt lat="44.27424" lon="1.10316">
        <ele>254.997909</ele>
        <time>2022-08-01T07:18:49.477Z</time>
      </trkpt>
      <trkpt lat="44.27419" lon="1.10326">
        <ele>255.601388</ele>
        <time>2022-08-01T07:18:52.488Z</time>
      </trkpt>
      <trkpt lat="44.27414" lon="1.10338">
        <ele>256.226691</ele>
        <time>2022-08-01T07:18:55.476Z</time>
      </trkpt>
      <trkpt lat="44.27408" lon="1.10353">
        <ele>257.022419</ele>
        <time>2022-08-01T07:18:59.517Z</time>
      </trkpt>
      <trkpt lat="44.27401" lon="1.10366">
        <ele>257.809358</ele>
        <time>2022-08-01T07:19:03.490Z</time>
      </trkpt>
      <trkpt lat="44.27395" lon="1.10377">
        <ele>258.45232</ele>
        <time>2022-08-01T07:19:06.476Z</time>
      </trkpt>
      <trkpt lat="44.27389" lon="1.10391">
        <ele>259.217181</ele>
        <time>2022-08-01T07:19:09.486Z</time>
      </trkpt>
      <trkpt lat="44.27384" lon="1.10402">
        <ele>259.826327</ele>
        <time>2022-08-01T07:19:11.534Z</time>
      </trkpt>
      <trkpt lat="44.27378" lon="1.10412">
        <ele>260.548903</ele>
        <time>2022-08-01T07:19:13.495Z</time>
      </trkpt>
      <trkpt lat="44.2737" lon="1.10422">
        <ele>261.551543</ele>
        <time>2022-08-01T07:19:17.507Z</time>
      </trkpt>
      <trkpt lat="44.27366" lon="1.10433">
        <ele>262.41969</ele>
        <time>2022-08-01T07:19:23.517Z</time>
      </trkpt>
      <trkpt lat="44.27358" lon="1.10443">
        <ele>263.368558</ele>
        <time>2022-08-01T07:19:28.503Z</time>
      </trkpt>
      <trkpt lat="44.27349" lon="1.1045">
        <ele>264.326018</ele>
        <time>2022-08-01T07:19:32.501Z</time>
      </trkpt>
      <trkpt lat="44.27341" lon="1.1046">
        <ele>265.374942</ele>
        <time>2022-08-01T07:19:36.492Z</time>
      </trkpt>
      <trkpt lat="44.27331" lon="1.10468">
        <ele>266.490569</ele>
        <time>2022-08-01T07:19:39.505Z</time>
      </trkpt>
      <trkpt lat="44.27322" lon="1.10476">
        <ele>267.512675</ele>
        <time>2022-08-01T07:19:42.488Z</time>
      </trkpt>
      <trkpt lat="44.27311" lon="1.10486">
        <ele>268.750785</ele>
        <time>2022-08-01T07:19:45.493Z</time>
      </trkpt>
      <trkpt lat="44.27304" lon="1.10495">
        <ele>269.605863</ele>
        <time>2022-08-01T07:19:47.528Z</time>
      </trkpt>
      <trkpt lat="44.27297" lon="1.10504">
        <ele>270.51537</ele>
        <time>2022-08-01T07:19:50.488Z</time>
      </trkpt>
      <trkpt lat="44.27292" lon="1.1052">
        <ele>271.696637</ele>
        <time>2022-08-01T07:19:53.528Z</time>
      </trkpt>
      <trkpt lat="44.27289" lon="1.10534">
        <ele>272.667313</ele>
        <time>2022-08-01T07:19:56.491Z</time>
      </trkpt>
      <trkpt lat="44.27287" lon="1.10549">
        <ele>273.715122</ele>
        <time>2022-08-01T07:19:59.526Z</time>
      </trkpt>
      <trkpt lat="44.27285" lon="1.10565">
        <ele>274.836044</ele>
        <time>2022-08-01T07:20:03.501Z</time>
      </trkpt>
      <trkpt lat="44.27283" lon="1.10582">
        <ele>275.990681</ele>
        <time>2022-08-01T07:20:07.480Z</time>
      </trkpt>
      <trkpt lat="44.27282" lon="1.10596">
        <ele>276.969328</ele>
        <time>2022-08-01T07:20:10.491Z</time>
      </trkpt>
      <trkpt lat="44.27281" lon="1.10613">
        <ele>277.180466</ele>
        <time>2022-08-01T07:20:13.501Z</time>
      </trkpt>
      <trkpt lat="44.27279" lon="1.10626">
        <ele>277.131383</ele>
        <time>2022-08-01T07:20:15.497Z</time>
      </trkpt>
      <trkpt lat="44.27279" lon="1.10643">
        <ele>277.067876</ele>
        <time>2022-08-01T07:20:18.497Z</time>
      </trkpt>
      <trkpt lat="44.2728" lon="1.10659">
        <ele>277.006548</ele>
        <time>2022-08-01T07:20:21.496Z</time>
      </trkpt>
      <trkpt lat="44.27279" lon="1.10672">
        <ele>276.955811</ele>
        <time>2022-08-01T07:20:24.490Z</time>
      </trkpt>
      <trkpt lat="44.27276" lon="1.10687">
        <ele>276.897965</ele>
        <time>2022-08-01T07:20:27.493Z</time>
      </trkpt>
      <trkpt lat="44.27276" lon="1.10704">
        <ele>276.833327</ele>
        <time>2022-08-01T07:20:31.502Z</time>
      </trkpt>
      <trkpt lat="44.27274" lon="1.10717">
        <ele>276.782282</ele>
        <time>2022-08-01T07:20:34.514Z</time>
      </trkpt>
      <trkpt lat="44.2727" lon="1.1073">
        <ele>276.728339</ele>
        <time>2022-08-01T07:20:37.496Z</time>
      </trkpt>
      <trkpt lat="44.27266" lon="1.10743">
        <ele>276.675501</ele>
        <time>2022-08-01T07:20:40.523Z</time>
      </trkpt>
      <trkpt lat="44.27263" lon="1.10756">
        <ele>276.620902</ele>
        <time>2022-08-01T07:20:43.481Z</time>
      </trkpt>
      <trkpt lat="44.27259" lon="1.10768">
        <ele>276.571574</ele>
        <time>2022-08-01T07:20:46.487Z</time>
      </trkpt>
      <trkpt lat="44.27254" lon="1.10782">
        <ele>276.513873</ele>
        <time>2022-08-01T07:20:49.494Z</time>
      </trkpt>
      <trkpt lat="44.27249" lon="1.10796">
        <ele>276.452552</ele>
        <time>2022-08-01T07:20:52.502Z</time>
      </trkpt>
      <trkpt lat="44.27244" lon="1.1081">
        <ele>276.394515</ele>
        <time>2022-08-01T07:20:55.506Z</time>
      </trkpt>
      <trkpt lat="44.27239" lon="1.10823">
        <ele>276.337205</ele>
        <time>2022-08-01T07:20:58.497Z</time>
      </trkpt>
      <trkpt lat="44.27235" lon="1.10836">
        <ele>276.28241</ele>
        <time>2022-08-01T07:21:01.500Z</time>
      </trkpt>
      <trkpt lat="44.27231" lon="1.1085">
        <ele>276.01279</ele>
        <time>2022-08-01T07:21:04.479Z</time>
      </trkpt>
      <trkpt lat="44.27227" lon="1.10862">
        <ele>275.729295</ele>
        <time>2022-08-01T07:21:07.480Z</time>
      </trkpt>
      <trkpt lat="44.27223" lon="1.10876">
        <ele>275.428943</ele>
        <time>2022-08-01T07:21:10.501Z</time>
      </trkpt>
      <trkpt lat="44.27219" lon="1.10889">
        <ele>275.120365</ele>
        <time>2022-08-01T07:21:13.494Z</time>
      </trkpt>
      <trkpt lat="44.27214" lon="1.10905">
        <ele>274.756995</ele>
        <time>2022-08-01T07:21:16.479Z</time>
      </trkpt>
      <trkpt lat="44.27211" lon="1.10917">
        <ele>274.494754</ele>
        <time>2022-08-01T07:21:18.490Z</time>
      </trkpt>
      <trkpt lat="44.27205" lon="1.10937">
        <ele>274.056421</ele>
        <time>2022-08-01T07:21:20.501Z</time>
      </trkpt>
      <trkpt lat="44.27203" lon="1.10954">
        <ele>273.707379</ele>
        <time>2022-08-01T07:21:22.466Z</time>
      </trkpt>
      <trkpt lat="44.272" lon="1.10968">
        <ele>273.390075</ele>
        <time>2022-08-01T07:21:24.493Z</time>
      </trkpt>
      <trkpt lat="44.27197" lon="1.10984">
        <ele>273.058842</ele>
        <time>2022-08-01T07:21:26.495Z</time>
      </trkpt>
      <trkpt lat="44.27193" lon="1.11004">
        <ele>272.630391</ele>
        <time>2022-08-01T07:21:28.491Z</time>
      </trkpt>
      <trkpt lat="44.27187" lon="1.11023">
        <ele>272.190643</ele>
        <time>2022-08-01T07:21:30.485Z</time>
      </trkpt>
      <trkpt lat="44.27182" lon="1.11044">
        <ele>271.731427</ele>
        <time>2022-08-01T07:21:32.529Z</time>
      </trkpt>
      <trkpt lat="44.27175" lon="1.11063">
        <ele>271.308485</ele>
        <time>2022-08-01T07:21:34.504Z</time>
      </trkpt>
      <trkpt lat="44.27166" lon="1.11083">
        <ele>271.071031</ele>
        <time>2022-08-01T07:21:36.508Z</time>
      </trkpt>
      <trkpt lat="44.27158" lon="1.111">
        <ele>271.066828</ele>
        <time>2022-08-01T07:21:38.531Z</time>
      </trkpt>
      <trkpt lat="44.27148" lon="1.11117">
        <ele>271.062382</ele>
        <time>2022-08-01T07:21:40.497Z</time>
      </trkpt>
      <trkpt lat="44.2714" lon="1.11132">
        <ele>271.058439</ele>
        <time>2022-08-01T07:21:42.495Z</time>
      </trkpt>
      <trkpt lat="44.27132" lon="1.11149">
        <ele>271.054265</ele>
        <time>2022-08-01T07:21:44.528Z</time>
      </trkpt>
      <trkpt lat="44.27126" lon="1.1116">
        <ele>271.051563</ele>
        <time>2022-08-01T07:21:45.492Z</time>
      </trkpt>
      <trkpt lat="44.27118" lon="1.11178">
        <ele>271.047157</ele>
        <time>2022-08-01T07:21:47.483Z</time>
      </trkpt>
      <trkpt lat="44.27109" lon="1.11196">
        <ele>271.042671</ele>
        <time>2022-08-01T07:21:49.487Z</time>
      </trkpt>
      <trkpt lat="44.27101" lon="1.1121">
        <ele>271.03893</ele>
        <time>2022-08-01T07:21:51.502Z</time>
      </trkpt>
      <trkpt lat="44.27093" lon="1.11226">
        <ele>271.034912</ele>
        <time>2022-08-01T07:21:53.500Z</time>
      </trkpt>
      <trkpt lat="44.27086" lon="1.11244">
        <ele>271.030629</ele>
        <time>2022-08-01T07:21:55.500Z</time>
      </trkpt>
      <trkpt lat="44.27077" lon="1.11261">
        <ele>271.02619</ele>
        <time>2022-08-01T07:21:57.483Z</time>
      </trkpt>
      <trkpt lat="44.2707" lon="1.11276">
        <ele>271.022662</ele>
        <time>2022-08-01T07:21:59.494Z</time>
      </trkpt>
      <trkpt lat="44.27064" lon="1.11294">
        <ele>270.968762</ele>
        <time>2022-08-01T07:22:01.501Z</time>
      </trkpt>
      <trkpt lat="44.27057" lon="1.11311">
        <ele>270.906707</ele>
        <time>2022-08-01T07:22:03.499Z</time>
      </trkpt>
      <trkpt lat="44.27049" lon="1.11326">
        <ele>270.848662</ele>
        <time>2022-08-01T07:22:05.496Z</time>
      </trkpt>
      <trkpt lat="44.27042" lon="1.11346">
        <ele>270.777992</ele>
        <time>2022-08-01T07:22:07.509Z</time>
      </trkpt>
      <trkpt lat="44.27035" lon="1.11361">
        <ele>270.721222</ele>
        <time>2022-08-01T07:22:09.501Z</time>
      </trkpt>
      <trkpt lat="44.27027" lon="1.11377">
        <ele>270.660877</ele>
        <time>2022-08-01T07:22:11.497Z</time>
      </trkpt>
      <trkpt lat="44.27021" lon="1.11394">
        <ele>270.602147</ele>
        <time>2022-08-01T07:22:13.490Z</time>
      </trkpt>
      <trkpt lat="44.27016" lon="1.11409">
        <ele>270.54946</ele>
        <time>2022-08-01T07:22:15.499Z</time>
      </trkpt>
      <trkpt lat="44.2701" lon="1.11424">
        <ele>270.493909</ele>
        <time>2022-08-01T07:22:17.501Z</time>
      </trkpt>
      <trkpt lat="44.27002" lon="1.11438">
        <ele>270.440211</ele>
        <time>2022-08-01T07:22:19.503Z</time>
      </trkpt>
      <trkpt lat="44.26995" lon="1.11453">
        <ele>270.384194</ele>
        <time>2022-08-01T07:22:21.491Z</time>
      </trkpt>
      <trkpt lat="44.26987" lon="1.11466">
        <ele>270.329371</ele>
        <time>2022-08-01T07:22:23.492Z</time>
      </trkpt>
      <trkpt lat="44.26978" lon="1.11478">
        <ele>270.271599</ele>
        <time>2022-08-01T07:22:25.498Z</time>
      </trkpt>
      <trkpt lat="44.26968" lon="1.11495">
        <ele>270.238087</ele>
        <time>2022-08-01T07:22:27.499Z</time>
      </trkpt>
      <trkpt lat="44.26956" lon="1.1151">
        <ele>270.25306</ele>
        <time>2022-08-01T07:22:29.500Z</time>
      </trkpt>
      <trkpt lat="44.26946" lon="1.11526">
        <ele>270.266903</ele>
        <time>2022-08-01T07:22:31.500Z</time>
      </trkpt>
      <trkpt lat="44.26936" lon="1.11539">
        <ele>270.280189</ele>
        <time>2022-08-01T07:22:33.500Z</time>
      </trkpt>
      <trkpt lat="44.26925" lon="1.11552">
        <ele>270.293476</ele>
        <time>2022-08-01T07:22:35.488Z</time>
      </trkpt>
      <trkpt lat="44.26915" lon="1.11565">
        <ele>270.305862</ele>
        <time>2022-08-01T07:22:37.497Z</time>
      </trkpt>
      <trkpt lat="44.26904" lon="1.11572">
        <ele>270.317384</ele>
        <time>2022-08-01T07:22:39.490Z</time>
      </trkpt>
      <trkpt lat="44.26892" lon="1.11575">
        <ele>270.328637</ele>
        <time>2022-08-01T07:22:41.485Z</time>
      </trkpt>
      <trkpt lat="44.26877" lon="1.1158">
        <ele>270.342359</ele>
        <time>2022-08-01T07:22:43.484Z</time>
      </trkpt>
      <trkpt lat="44.26867" lon="1.11582">
        <ele>270.351546</ele>
        <time>2022-08-01T07:22:45.506Z</time>
      </trkpt>
      <trkpt lat="44.26858" lon="1.11585">
        <ele>270.360038</ele>
        <time>2022-08-01T07:22:46.497Z</time>
      </trkpt>
      <trkpt lat="44.26845" lon="1.11591">
        <ele>270.373634</ele>
        <time>2022-08-01T07:22:49.481Z</time>
      </trkpt>
      <trkpt lat="44.26832" lon="1.11602">
        <ele>270.38699</ele>
        <time>2022-08-01T07:22:51.497Z</time>
      </trkpt>
      <trkpt lat="44.2682" lon="1.1161">
        <ele>270.388604</ele>
        <time>2022-08-01T07:22:53.497Z</time>
      </trkpt>
      <trkpt lat="44.26806" lon="1.11619">
        <ele>270.098706</ele>
        <time>2022-08-01T07:22:55.499Z</time>
      </trkpt>
      <trkpt lat="44.26798" lon="1.11629">
        <ele>269.903308</ele>
        <time>2022-08-01T07:22:57.484Z</time>
      </trkpt>
      <trkpt lat="44.2679" lon="1.11636">
        <ele>269.721181</ele>
        <time>2022-08-01T07:22:59.482Z</time>
      </trkpt>
      <trkpt lat="44.2678" lon="1.11639">
        <ele>269.530685</ele>
        <time>2022-08-01T07:23:02.533Z</time>
      </trkpt>
      <trkpt lat="44.26772" lon="1.11654">
        <ele>269.280008</ele>
        <time>2022-08-01T07:23:05.499Z</time>
      </trkpt>
      <trkpt lat="44.26767" lon="1.11673">
        <ele>269.015039</ele>
        <time>2022-08-01T07:23:07.501Z</time>
      </trkpt>
      <trkpt lat="44.26769" lon="1.11691">
        <ele>268.76938</ele>
        <time>2022-08-01T07:23:09.473Z</time>
      </trkpt>
      <trkpt lat="44.26779" lon="1.11702">
        <ele>268.538512</ele>
        <time>2022-08-01T07:23:11.491Z</time>
      </trkpt>
      <trkpt lat="44.26789" lon="1.11714">
        <ele>268.286225</ele>
        <time>2022-08-01T07:23:13.485Z</time>
      </trkpt>
      <trkpt lat="44.26802" lon="1.11718">
        <ele>268.052311</ele>
        <time>2022-08-01T07:23:15.480Z</time>
      </trkpt>
      <trkpt lat="44.26812" lon="1.11725">
        <ele>267.833929</ele>
        <time>2022-08-01T07:23:18.456Z</time>
      </trkpt>
      <trkpt lat="44.26818" lon="1.11736">
        <ele>267.650358</ele>
        <time>2022-08-01T07:23:29.490Z</time>
      </trkpt>
      <trkpt lat="44.26828" lon="1.11752">
        <ele>267.374814</ele>
        <time>2022-08-01T07:23:32.497Z</time>
      </trkpt>
      <trkpt lat="44.2683" lon="1.11769">
        <ele>267.134559</ele>
        <time>2022-08-01T07:23:33.483Z</time>
      </trkpt>
      <trkpt lat="44.26829" lon="1.1179">
        <ele>266.863798</ele>
        <time>2022-08-01T07:23:35.504Z</time>
      </trkpt>
      <trkpt lat="44.26823" lon="1.11813">
        <ele>266.549893</ele>
        <time>2022-08-01T07:23:37.532Z</time>
      </trkpt>
      <trkpt lat="44.2682" lon="1.11825">
        <ele>266.373906</ele>
        <time>2022-08-01T07:23:38.499Z</time>
      </trkpt>
      <trkpt lat="44.26812" lon="1.11848">
        <ele>266.047312</ele>
        <time>2022-08-01T07:23:40.512Z</time>
      </trkpt>
      <trkpt lat="44.26808" lon="1.11875">
        <ele>265.695587</ele>
        <time>2022-08-01T07:23:42.514Z</time>
      </trkpt>
      <trkpt lat="44.26806" lon="1.11887">
        <ele>265.524387</ele>
        <time>2022-08-01T07:23:43.497Z</time>
      </trkpt>
      <trkpt lat="44.26801" lon="1.119">
        <ele>265.341611</ele>
        <time>2022-08-01T07:23:44.490Z</time>
      </trkpt>
      <trkpt lat="44.26795" lon="1.11912">
        <ele>265.149811</ele>
        <time>2022-08-01T07:23:45.497Z</time>
      </trkpt>
      <trkpt lat="44.26786" lon="1.11921">
        <ele>264.957452</ele>
        <time>2022-08-01T07:23:46.496Z</time>
      </trkpt>
      <trkpt lat="44.26778" lon="1.1193">
        <ele>264.767018</ele>
        <time>2022-08-01T07:23:47.502Z</time>
      </trkpt>
      <trkpt lat="44.26769" lon="1.11939">
        <ele>264.569408</ele>
        <time>2022-08-01T07:23:48.499Z</time>
      </trkpt>
      <trkpt lat="44.26762" lon="1.1195">
        <ele>264.378268</ele>
        <time>2022-08-01T07:23:49.521Z</time>
      </trkpt>
      <trkpt lat="44.26755" lon="1.1196">
        <ele>264.202148</ele>
        <time>2022-08-01T07:23:50.497Z</time>
      </trkpt>
      <trkpt lat="44.26748" lon="1.1197">
        <ele>264.016699</ele>
        <time>2022-08-01T07:23:51.500Z</time>
      </trkpt>
      <trkpt lat="44.26746" lon="1.11985">
        <ele>263.811229</ele>
        <time>2022-08-01T07:23:52.483Z</time>
      </trkpt>
      <trkpt lat="44.2674" lon="1.12001">
        <ele>263.719487</ele>
        <time>2022-08-01T07:23:53.492Z</time>
      </trkpt>
      <trkpt lat="44.26733" lon="1.12015">
        <ele>263.637403</ele>
        <time>2022-08-01T07:23:54.500Z</time>
      </trkpt>
      <trkpt lat="44.26727" lon="1.12028">
        <ele>263.562817</ele>
        <time>2022-08-01T07:23:55.514Z</time>
      </trkpt>
      <trkpt lat="44.2672" lon="1.1204">
        <ele>263.488454</ele>
        <time>2022-08-01T07:23:56.500Z</time>
      </trkpt>
      <trkpt lat="44.26712" lon="1.12053">
        <ele>263.406254</ele>
        <time>2022-08-01T07:23:57.491Z</time>
      </trkpt>
      <trkpt lat="44.26704" lon="1.12067">
        <ele>263.321575</ele>
        <time>2022-08-01T07:23:58.489Z</time>
      </trkpt>
      <trkpt lat="44.26694" lon="1.12076">
        <ele>263.24008</ele>
        <time>2022-08-01T07:23:59.509Z</time>
      </trkpt>
      <trkpt lat="44.26685" lon="1.12087">
        <ele>263.161778</ele>
        <time>2022-08-01T07:24:00.495Z</time>
      </trkpt>
      <trkpt lat="44.26677" lon="1.12096">
        <ele>263.090905</ele>
        <time>2022-08-01T07:24:01.525Z</time>
      </trkpt>
      <trkpt lat="44.26669" lon="1.12109">
        <ele>263.011788</ele>
        <time>2022-08-01T07:24:02.498Z</time>
      </trkpt>
      <trkpt lat="44.26662" lon="1.12124">
        <ele>262.92156</ele>
        <time>2022-08-01T07:24:03.502Z</time>
      </trkpt>
      <trkpt lat="44.26653" lon="1.12133">
        <ele>262.848351</ele>
        <time>2022-08-01T07:24:04.499Z</time>
      </trkpt>
      <trkpt lat="44.26645" lon="1.12143">
        <ele>262.776141</ele>
        <time>2022-08-01T07:24:05.507Z</time>
      </trkpt>
      <trkpt lat="44.26633" lon="1.12149">
        <ele>262.689787</ele>
        <time>2022-08-01T07:24:06.501Z</time>
      </trkpt>
      <trkpt lat="44.2662" lon="1.12153">
        <ele>262.602439</ele>
        <time>2022-08-01T07:24:07.523Z</time>
      </trkpt>
      <trkpt lat="44.2661" lon="1.12159">
        <ele>262.499503</ele>
        <time>2022-08-01T07:24:08.497Z</time>
      </trkpt>
      <trkpt lat="44.26596" lon="1.12165">
        <ele>262.36035</ele>
        <time>2022-08-01T07:24:09.488Z</time>
      </trkpt>
      <trkpt lat="44.26587" lon="1.12175">
        <ele>262.244105</ele>
        <time>2022-08-01T07:24:10.501Z</time>
      </trkpt>
      <trkpt lat="44.26577" lon="1.12184">
        <ele>262.129136</ele>
        <time>2022-08-01T07:24:11.485Z</time>
      </trkpt>
      <trkpt lat="44.26568" lon="1.12196">
        <ele>262.002785</ele>
        <time>2022-08-01T07:24:12.495Z</time>
      </trkpt>
      <trkpt lat="44.26558" lon="1.12206">
        <ele>261.887377</ele>
        <time>2022-08-01T07:24:13.520Z</time>
      </trkpt>
      <trkpt lat="44.26545" lon="1.12219">
        <ele>261.732748</ele>
        <time>2022-08-01T07:24:14.496Z</time>
      </trkpt>
      <trkpt lat="44.26535" lon="1.1223">
        <ele>261.611194</ele>
        <time>2022-08-01T07:24:15.503Z</time>
      </trkpt>
      <trkpt lat="44.26526" lon="1.12239">
        <ele>261.496612</ele>
        <time>2022-08-01T07:24:16.501Z</time>
      </trkpt>
      <trkpt lat="44.26512" lon="1.12246">
        <ele>261.351992</ele>
        <time>2022-08-01T07:24:17.491Z</time>
      </trkpt>
      <trkpt lat="44.265" lon="1.12252">
        <ele>261.232036</ele>
        <time>2022-08-01T07:24:18.496Z</time>
      </trkpt>
      <trkpt lat="44.26488" lon="1.12259">
        <ele>261.098219</ele>
        <time>2022-08-01T07:24:19.530Z</time>
      </trkpt>
      <trkpt lat="44.26477" lon="1.12268">
        <ele>260.979276</ele>
        <time>2022-08-01T07:24:20.501Z</time>
      </trkpt>
      <trkpt lat="44.26466" lon="1.12275">
        <ele>260.85552</ele>
        <time>2022-08-01T07:24:21.497Z</time>
      </trkpt>
      <trkpt lat="44.26454" lon="1.12281">
        <ele>260.400851</ele>
        <time>2022-08-01T07:24:22.499Z</time>
      </trkpt>
      <trkpt lat="44.26444" lon="1.12291">
        <ele>259.861174</ele>
        <time>2022-08-01T07:24:23.496Z</time>
      </trkpt>
      <trkpt lat="44.26436" lon="1.12307">
        <ele>259.256275</ele>
        <time>2022-08-01T07:24:24.492Z</time>
      </trkpt>
      <trkpt lat="44.26429" lon="1.12321">
        <ele>258.729419</ele>
        <time>2022-08-01T07:24:25.527Z</time>
      </trkpt>
      <trkpt lat="44.2642" lon="1.12333">
        <ele>258.181587</ele>
        <time>2022-08-01T07:24:26.493Z</time>
      </trkpt>
      <trkpt lat="44.26415" lon="1.12348">
        <ele>257.683165</ele>
        <time>2022-08-01T07:24:27.498Z</time>
      </trkpt>
      <trkpt lat="44.26408" lon="1.1236">
        <ele>257.196117</ele>
        <time>2022-08-01T07:24:28.482Z</time>
      </trkpt>
      <trkpt lat="44.26403" lon="1.12375">
        <ele>256.684162</ele>
        <time>2022-08-01T07:24:29.505Z</time>
      </trkpt>
      <trkpt lat="44.26398" lon="1.12389">
        <ele>256.192523</ele>
        <time>2022-08-01T07:24:30.500Z</time>
      </trkpt>
      <trkpt lat="44.26392" lon="1.12403">
        <ele>255.702905</ele>
        <time>2022-08-01T07:24:31.523Z</time>
      </trkpt>
      <trkpt lat="44.26386" lon="1.12419">
        <ele>255.14697</ele>
        <time>2022-08-01T07:24:32.503Z</time>
      </trkpt>
      <trkpt lat="44.26381" lon="1.12437">
        <ele>254.532593</ele>
        <time>2022-08-01T07:24:33.498Z</time>
      </trkpt>
      <trkpt lat="44.2638" lon="1.12457">
        <ele>253.914886</ele>
        <time>2022-08-01T07:24:34.494Z</time>
      </trkpt>
      <trkpt lat="44.26378" lon="1.12475">
        <ele>253.362347</ele>
        <time>2022-08-01T07:24:35.500Z</time>
      </trkpt>
      <trkpt lat="44.26381" lon="1.12495">
        <ele>251.452081</ele>
        <time>2022-08-01T07:24:36.491Z</time>
      </trkpt>
      <trkpt lat="44.26383" lon="1.12511">
        <ele>248.932527</ele>
        <time>2022-08-01T07:24:37.517Z</time>
      </trkpt>
      <trkpt lat="44.26386" lon="1.12525">
        <ele>246.72186</ele>
        <time>2022-08-01T07:24:38.494Z</time>
      </trkpt>
      <trkpt lat="44.26392" lon="1.1254">
        <ele>243.947815</ele>
        <time>2022-08-01T07:24:39.499Z</time>
      </trkpt>
      <trkpt lat="44.26399" lon="1.12552">
        <ele>241.592856</ele>
        <time>2022-08-01T07:24:40.487Z</time>
      </trkpt>
      <trkpt lat="44.26406" lon="1.12566">
        <ele>239.021838</ele>
        <time>2022-08-01T07:24:41.495Z</time>
      </trkpt>
      <trkpt lat="44.26414" lon="1.12576">
        <ele>236.739999</ele>
        <time>2022-08-01T07:24:42.499Z</time>
      </trkpt>
      <trkpt lat="44.2642" lon="1.12587">
        <ele>234.517223</ele>
        <time>2022-08-01T07:24:43.497Z</time>
      </trkpt>
      <trkpt lat="44.26427" lon="1.12598">
        <ele>232.260143</ele>
        <time>2022-08-01T07:24:44.484Z</time>
      </trkpt>
      <trkpt lat="44.26432" lon="1.12611">
        <ele>230.023411</ele>
        <time>2022-08-01T07:24:45.502Z</time>
      </trkpt>
      <trkpt lat="44.26439" lon="1.12628">
        <ele>226.877778</ele>
        <time>2022-08-01T07:24:46.504Z</time>
      </trkpt>
      <trkpt lat="44.26446" lon="1.12644">
        <ele>224.037756</ele>
        <time>2022-08-01T07:24:47.499Z</time>
      </trkpt>
      <trkpt lat="44.26451" lon="1.12661">
        <ele>221.234117</ele>
        <time>2022-08-01T07:24:48.487Z</time>
      </trkpt>
      <trkpt lat="44.26453" lon="1.12676">
        <ele>218.855605</ele>
        <time>2022-08-01T07:24:49.529Z</time>
      </trkpt>
      <trkpt lat="44.26457" lon="1.12694">
        <ele>215.937834</ele>
        <time>2022-08-01T07:24:50.506Z</time>
      </trkpt>
      <trkpt lat="44.26458" lon="1.12711">
        <ele>213.780036</ele>
        <time>2022-08-01T07:24:51.509Z</time>
      </trkpt>
      <trkpt lat="44.26458" lon="1.12728">
        <ele>212.622127</ele>
        <time>2022-08-01T07:24:52.524Z</time>
      </trkpt>
      <trkpt lat="44.26461" lon="1.12744">
        <ele>211.560064</ele>
        <time>2022-08-01T07:24:53.503Z</time>
      </trkpt>
      <trkpt lat="44.26462" lon="1.1276">
        <ele>210.541787</ele>
        <time>2022-08-01T07:24:54.504Z</time>
      </trkpt>
      <trkpt lat="44.26465" lon="1.12775">
        <ele>209.486559</ele>
        <time>2022-08-01T07:24:55.526Z</time>
      </trkpt>
      <trkpt lat="44.26469" lon="1.12789">
        <ele>208.499135</ele>
        <time>2022-08-01T07:24:56.502Z</time>
      </trkpt>
      <trkpt lat="44.26474" lon="1.12802">
        <ele>207.522984</ele>
        <time>2022-08-01T07:24:57.499Z</time>
      </trkpt>
      <trkpt lat="44.26481" lon="1.12813">
        <ele>206.584641</ele>
        <time>2022-08-01T07:24:58.498Z</time>
      </trkpt>
      <trkpt lat="44.2649" lon="1.12823">
        <ele>205.454084</ele>
        <time>2022-08-01T07:24:59.502Z</time>
      </trkpt>
      <trkpt lat="44.26499" lon="1.12829">
        <ele>204.553181</ele>
        <time>2022-08-01T07:25:00.502Z</time>
      </trkpt>
      <trkpt lat="44.2651" lon="1.12835">
        <ele>203.443705</ele>
        <time>2022-08-01T07:25:01.511Z</time>
      </trkpt>
      <trkpt lat="44.26521" lon="1.1284">
        <ele>202.371711</ele>
        <time>2022-08-01T07:25:02.496Z</time>
      </trkpt>
      <trkpt lat="44.26532" lon="1.12843">
        <ele>201.338597</ele>
        <time>2022-08-01T07:25:03.493Z</time>
      </trkpt>
      <trkpt lat="44.26542" lon="1.12846">
        <ele>200.410595</ele>
        <time>2022-08-01T07:25:04.494Z</time>
      </trkpt>
      <trkpt lat="44.26552" lon="1.12853">
        <ele>199.400829</ele>
        <time>2022-08-01T07:25:05.497Z</time>
      </trkpt>
      <trkpt lat="44.2656" lon="1.1286">
        <ele>198.518861</ele>
        <time>2022-08-01T07:25:06.485Z</time>
      </trkpt>
      <trkpt lat="44.26567" lon="1.12872">
        <ele>197.513796</ele>
        <time>2022-08-01T07:25:07.513Z</time>
      </trkpt>
      <trkpt lat="44.26571" lon="1.12887">
        <ele>196.652647</ele>
        <time>2022-08-01T07:25:08.504Z</time>
      </trkpt>
      <trkpt lat="44.26574" lon="1.12901">
        <ele>195.848986</ele>
        <time>2022-08-01T07:25:09.502Z</time>
      </trkpt>
      <trkpt lat="44.26576" lon="1.12916">
        <ele>195.026901</ele>
        <time>2022-08-01T07:25:10.499Z</time>
      </trkpt>
      <trkpt lat="44.26573" lon="1.12933">
        <ele>194.086969</ele>
        <time>2022-08-01T07:25:11.491Z</time>
      </trkpt>
      <trkpt lat="44.2657" lon="1.12948">
        <ele>193.216532</ele>
        <time>2022-08-01T07:25:12.497Z</time>
      </trkpt>
      <trkpt lat="44.26568" lon="1.12963">
        <ele>192.380528</ele>
        <time>2022-08-01T07:25:13.516Z</time>
      </trkpt>
      <trkpt lat="44.26565" lon="1.12977">
        <ele>191.561234</ele>
        <time>2022-08-01T07:25:14.485Z</time>
      </trkpt>
      <trkpt lat="44.26562" lon="1.12994">
        <ele>190.660036</ele>
        <time>2022-08-01T07:25:15.488Z</time>
      </trkpt>
      <trkpt lat="44.2656" lon="1.1301">
        <ele>189.72703</ele>
        <time>2022-08-01T07:25:16.500Z</time>
      </trkpt>
      <trkpt lat="44.26556" lon="1.13027">
        <ele>188.806829</ele>
        <time>2022-08-01T07:25:17.500Z</time>
      </trkpt>
      <trkpt lat="44.26554" lon="1.13043">
        <ele>187.923834</ele>
        <time>2022-08-01T07:25:18.489Z</time>
      </trkpt>
      <trkpt lat="44.26553" lon="1.13062">
        <ele>186.889092</ele>
        <time>2022-08-01T07:25:19.504Z</time>
      </trkpt>
      <trkpt lat="44.26554" lon="1.13079">
        <ele>185.962522</ele>
        <time>2022-08-01T07:25:20.507Z</time>
      </trkpt>
      <trkpt lat="44.26556" lon="1.13094">
        <ele>185.120736</ele>
        <time>2022-08-01T07:25:21.500Z</time>
      </trkpt>
      <trkpt lat="44.2656" lon="1.1311">
        <ele>184.182182</ele>
        <time>2022-08-01T07:25:22.497Z</time>
      </trkpt>
      <trkpt lat="44.26565" lon="1.13126">
        <ele>183.293661</ele>
        <time>2022-08-01T07:25:23.494Z</time>
      </trkpt>
      <trkpt lat="44.2657" lon="1.13142">
        <ele>182.44335</ele>
        <time>2022-08-01T07:25:24.497Z</time>
      </trkpt>
      <trkpt lat="44.26575" lon="1.13158">
        <ele>181.635287</ele>
        <time>2022-08-01T07:25:25.531Z</time>
      </trkpt>
      <trkpt lat="44.26579" lon="1.13173">
        <ele>180.842677</ele>
        <time>2022-08-01T07:25:26.489Z</time>
      </trkpt>
      <trkpt lat="44.26582" lon="1.13188">
        <ele>180.123574</ele>
        <time>2022-08-01T07:25:27.498Z</time>
      </trkpt>
      <trkpt lat="44.26585" lon="1.13201">
        <ele>179.448586</ele>
        <time>2022-08-01T07:25:28.488Z</time>
      </trkpt>
      <trkpt lat="44.26587" lon="1.13215">
        <ele>178.765897</ele>
        <time>2022-08-01T07:25:29.503Z</time>
      </trkpt>
      <trkpt lat="44.26587" lon="1.13229">
        <ele>178.082966</ele>
        <time>2022-08-01T07:25:30.499Z</time>
      </trkpt>
      <trkpt lat="44.26584" lon="1.13244">
        <ele>177.362729</ele>
        <time>2022-08-01T07:25:31.503Z</time>
      </trkpt>
      <trkpt lat="44.26582" lon="1.13259">
        <ele>176.616237</ele>
        <time>2022-08-01T07:25:32.493Z</time>
      </trkpt>
      <trkpt lat="44.26578" lon="1.13273">
        <ele>175.885118</ele>
        <time>2022-08-01T07:25:33.496Z</time>
      </trkpt>
      <trkpt lat="44.26577" lon="1.13288">
        <ele>175.200373</ele>
        <time>2022-08-01T07:25:34.505Z</time>
      </trkpt>
      <trkpt lat="44.26577" lon="1.13305">
        <ele>174.377888</ele>
        <time>2022-08-01T07:25:35.504Z</time>
      </trkpt>
      <trkpt lat="44.26578" lon="1.1332">
        <ele>173.635619</ele>
        <time>2022-08-01T07:25:36.495Z</time>
      </trkpt>
      <trkpt lat="44.26579" lon="1.13336">
        <ele>172.86375</ele>
        <time>2022-08-01T07:25:37.520Z</time>
      </trkpt>
      <trkpt lat="44.2658" lon="1.13353">
        <ele>172.060231</ele>
        <time>2022-08-01T07:25:38.496Z</time>
      </trkpt>
      <trkpt lat="44.26578" lon="1.1337">
        <ele>171.552498</ele>
        <time>2022-08-01T07:25:39.492Z</time>
      </trkpt>
      <trkpt lat="44.26573" lon="1.13384">
        <ele>171.195624</ele>
        <time>2022-08-01T07:25:40.494Z</time>
      </trkpt>
      <trkpt lat="44.26568" lon="1.13398">
        <ele>170.835526</ele>
        <time>2022-08-01T07:25:41.502Z</time>
      </trkpt>
      <trkpt lat="44.26561" lon="1.13413">
        <ele>170.426877</ele>
        <time>2022-08-01T07:25:42.498Z</time>
      </trkpt>
      <trkpt lat="44.26554" lon="1.13427">
        <ele>170.049632</ele>
        <time>2022-08-01T07:25:43.507Z</time>
      </trkpt>
      <trkpt lat="44.26546" lon="1.13441">
        <ele>169.627709</ele>
        <time>2022-08-01T07:25:44.503Z</time>
      </trkpt>
      <trkpt lat="44.26539" lon="1.13455">
        <ele>169.244478</ele>
        <time>2022-08-01T07:25:45.500Z</time>
      </trkpt>
      <trkpt lat="44.26533" lon="1.13469">
        <ele>168.870899</ele>
        <time>2022-08-01T07:25:46.485Z</time>
      </trkpt>
      <trkpt lat="44.26527" lon="1.13482">
        <ele>168.528378</ele>
        <time>2022-08-01T07:25:47.481Z</time>
      </trkpt>
      <trkpt lat="44.2652" lon="1.13496">
        <ele>168.140105</ele>
        <time>2022-08-01T07:25:48.486Z</time>
      </trkpt>
      <trkpt lat="44.26514" lon="1.1351">
        <ele>167.767951</ele>
        <time>2022-08-01T07:25:49.534Z</time>
      </trkpt>
      <trkpt lat="44.26508" lon="1.13523">
        <ele>167.412188</ele>
        <time>2022-08-01T07:25:50.502Z</time>
      </trkpt>
      <trkpt lat="44.26502" lon="1.13536">
        <ele>167.055328</ele>
        <time>2022-08-01T07:25:51.498Z</time>
      </trkpt>
      <trkpt lat="44.26496" lon="1.13549">
        <ele>166.705346</ele>
        <time>2022-08-01T07:25:52.488Z</time>
      </trkpt>
      <trkpt lat="44.2649" lon="1.13562">
        <ele>166.364521</ele>
        <time>2022-08-01T07:25:53.500Z</time>
      </trkpt>
      <trkpt lat="44.26485" lon="1.13576">
        <ele>166.083913</ele>
        <time>2022-08-01T07:25:54.489Z</time>
      </trkpt>
      <trkpt lat="44.26479" lon="1.13591">
        <ele>165.965744</ele>
        <time>2022-08-01T07:25:55.537Z</time>
      </trkpt>
      <trkpt lat="44.26474" lon="1.13602">
        <ele>165.867834</ele>
        <time>2022-08-01T07:25:56.493Z</time>
      </trkpt>
      <trkpt lat="44.26463" lon="1.13624">
        <ele>165.681795</ele>
        <time>2022-08-01T07:25:58.488Z</time>
      </trkpt>
      <trkpt lat="44.26454" lon="1.13644">
        <ele>165.514168</ele>
        <time>2022-08-01T07:26:00.495Z</time>
      </trkpt>
      <trkpt lat="44.26449" lon="1.13656">
        <ele>165.407201</ele>
        <time>2022-08-01T07:26:01.524Z</time>
      </trkpt>
      <trkpt lat="44.26439" lon="1.13675">
        <ele>165.247291</ele>
        <time>2022-08-01T07:26:03.510Z</time>
      </trkpt>
      <trkpt lat="44.26431" lon="1.13694">
        <ele>165.087144</ele>
        <time>2022-08-01T07:26:05.496Z</time>
      </trkpt>
      <trkpt lat="44.26423" lon="1.13712">
        <ele>164.932807</ele>
        <time>2022-08-01T07:26:07.517Z</time>
      </trkpt>
      <trkpt lat="44.26418" lon="1.13724">
        <ele>164.838955</ele>
        <time>2022-08-01T07:26:08.490Z</time>
      </trkpt>
      <trkpt lat="44.2641" lon="1.13741">
        <ele>164.692918</ele>
        <time>2022-08-01T07:26:10.500Z</time>
      </trkpt>
      <trkpt lat="44.26402" lon="1.13756">
        <ele>164.564877</ele>
        <time>2022-08-01T07:26:12.467Z</time>
      </trkpt>
      <trkpt lat="44.26396" lon="1.13773">
        <ele>164.425844</ele>
        <time>2022-08-01T07:26:14.482Z</time>
      </trkpt>
      <trkpt lat="44.26387" lon="1.13786">
        <ele>164.294854</ele>
        <time>2022-08-01T07:26:16.484Z</time>
      </trkpt>
      <trkpt lat="44.2638" lon="1.138">
        <ele>164.16318</ele>
        <time>2022-08-01T07:26:18.500Z</time>
      </trkpt>
      <trkpt lat="44.2637" lon="1.13812">
        <ele>164.020862</ele>
        <time>2022-08-01T07:26:20.501Z</time>
      </trkpt>
      <trkpt lat="44.26358" lon="1.13823">
        <ele>163.864152</ele>
        <time>2022-08-01T07:26:22.497Z</time>
      </trkpt>
      <trkpt lat="44.26347" lon="1.13832">
        <ele>163.729484</ele>
        <time>2022-08-01T07:26:24.500Z</time>
      </trkpt>
      <trkpt lat="44.26336" lon="1.1384">
        <ele>163.597037</ele>
        <time>2022-08-01T07:26:26.499Z</time>
      </trkpt>
      <trkpt lat="44.26325" lon="1.13847">
        <ele>163.473686</ele>
        <time>2022-08-01T07:26:28.494Z</time>
      </trkpt>
      <trkpt lat="44.26316" lon="1.13852">
        <ele>163.363707</ele>
        <time>2022-08-01T07:26:30.496Z</time>
      </trkpt>
      <trkpt lat="44.26306" lon="1.13858">
        <ele>163.248452</ele>
        <time>2022-08-01T07:26:32.494Z</time>
      </trkpt>
      <trkpt lat="44.26298" lon="1.13864">
        <ele>163.151419</ele>
        <time>2022-08-01T07:26:34.485Z</time>
      </trkpt>
      <trkpt lat="44.26288" lon="1.1387">
        <ele>163.037804</ele>
        <time>2022-08-01T07:26:37.517Z</time>
      </trkpt>
      <trkpt lat="44.26279" lon="1.13878">
        <ele>162.919412</ele>
        <time>2022-08-01T07:26:40.492Z</time>
      </trkpt>
      <trkpt lat="44.2627" lon="1.13881">
        <ele>162.818932</ele>
        <time>2022-08-01T07:26:43.497Z</time>
      </trkpt>
      <trkpt lat="44.26262" lon="1.13889">
        <ele>162.712699</ele>
        <time>2022-08-01T07:26:45.509Z</time>
      </trkpt>
      <trkpt lat="44.26253" lon="1.13901">
        <ele>162.5836</ele>
        <time>2022-08-01T07:26:48.507Z</time>
      </trkpt>
      <trkpt lat="44.26247" lon="1.13913">
        <ele>162.472005</ele>
        <time>2022-08-01T07:26:51.505Z</time>
      </trkpt>
      <trkpt lat="44.26241" lon="1.13928">
        <ele>162.537438</ele>
        <time>2022-08-01T07:26:54.501Z</time>
      </trkpt>
      <trkpt lat="44.26233" lon="1.13944">
        <ele>162.820321</ele>
        <time>2022-08-01T07:26:56.500Z</time>
      </trkpt>
      <trkpt lat="44.26229" lon="1.13961">
        <ele>163.077729</ele>
        <time>2022-08-01T07:26:59.491Z</time>
      </trkpt>
      <trkpt lat="44.26226" lon="1.13973">
        <ele>163.266629</ele>
        <time>2022-08-01T07:27:01.522Z</time>
      </trkpt>
      <trkpt lat="44.26223" lon="1.13985">
        <ele>163.452783</ele>
        <time>2022-08-01T07:27:03.491Z</time>
      </trkpt>
      <trkpt lat="44.2622" lon="1.14001">
        <ele>163.697421</ele>
        <time>2022-08-01T07:27:06.500Z</time>
      </trkpt>
      <trkpt lat="44.26216" lon="1.14017">
        <ele>163.944506</ele>
        <time>2022-08-01T07:27:09.492Z</time>
      </trkpt>
      <trkpt lat="44.26212" lon="1.14034">
        <ele>164.195674</ele>
        <time>2022-08-01T07:27:12.501Z</time>
      </trkpt>
      <trkpt lat="44.26207" lon="1.1405">
        <ele>164.462284</ele>
        <time>2022-08-01T07:27:15.497Z</time>
      </trkpt>
      <trkpt lat="44.26201" lon="1.14065">
        <ele>164.703679</ele>
        <time>2022-08-01T07:27:18.496Z</time>
      </trkpt>
      <trkpt lat="44.26196" lon="1.14076">
        <ele>164.891681</ele>
        <time>2022-08-01T07:27:21.517Z</time>
      </trkpt>
      <trkpt lat="44.26189" lon="1.14084">
        <ele>165.075983</ele>
        <time>2022-08-01T07:27:24.500Z</time>
      </trkpt>
      <trkpt lat="44.26179" lon="1.14094">
        <ele>165.318994</ele>
        <time>2022-08-01T07:27:28.506Z</time>
      </trkpt>
      <trkpt lat="44.26171" lon="1.14101">
        <ele>165.514567</ele>
        <time>2022-08-01T07:27:31.525Z</time>
      </trkpt>
      <trkpt lat="44.26162" lon="1.14111">
        <ele>165.748429</ele>
        <time>2022-08-01T07:27:35.497Z</time>
      </trkpt>
      <trkpt lat="44.26154" lon="1.1412">
        <ele>165.954761</ele>
        <time>2022-08-01T07:27:38.495Z</time>
      </trkpt>
      <trkpt lat="44.26146" lon="1.14128">
        <ele>166.274349</ele>
        <time>2022-08-01T07:27:41.498Z</time>
      </trkpt>
      <trkpt lat="44.26138" lon="1.14134">
        <ele>166.745109</ele>
        <time>2022-08-01T07:27:44.499Z</time>
      </trkpt>
      <trkpt lat="44.2613" lon="1.14141">
        <ele>167.210271</ele>
        <time>2022-08-01T07:27:47.498Z</time>
      </trkpt>
      <trkpt lat="44.26123" lon="1.1415">
        <ele>167.699474</ele>
        <time>2022-08-01T07:27:50.518Z</time>
      </trkpt>
      <trkpt lat="44.26114" lon="1.14161">
        <ele>168.295851</ele>
        <time>2022-08-01T07:27:54.498Z</time>
      </trkpt>
      <trkpt lat="44.26106" lon="1.14171">
        <ele>168.793127</ele>
        <time>2022-08-01T07:27:58.497Z</time>
      </trkpt>
      <trkpt lat="44.261" lon="1.14182">
        <ele>169.30608</ele>
        <time>2022-08-01T07:28:02.496Z</time>
      </trkpt>
      <trkpt lat="44.26093" lon="1.14196">
        <ele>169.879335</ele>
        <time>2022-08-01T07:28:06.478Z</time>
      </trkpt>
      <trkpt lat="44.26088" lon="1.14206">
        <ele>170.345983</ele>
        <time>2022-08-01T07:28:09.501Z</time>
      </trkpt>
      <trkpt lat="44.26083" lon="1.14218">
        <ele>170.825876</ele>
        <time>2022-08-01T07:28:12.494Z</time>
      </trkpt>
      <trkpt lat="44.26079" lon="1.14232">
        <ele>171.332368</ele>
        <time>2022-08-01T07:28:15.501Z</time>
      </trkpt>
      <trkpt lat="44.26074" lon="1.14246">
        <ele>171.91995</ele>
        <time>2022-08-01T07:28:19.529Z</time>
      </trkpt>
      <trkpt lat="44.26068" lon="1.14256">
        <ele>172.369335</ele>
        <time>2022-08-01T07:28:22.482Z</time>
      </trkpt>
      <trkpt lat="44.26063" lon="1.14268">
        <ele>172.879301</ele>
        <time>2022-08-01T07:28:26.500Z</time>
      </trkpt>
      <trkpt lat="44.26058" lon="1.1428">
        <ele>173.354687</ele>
        <time>2022-08-01T07:28:31.527Z</time>
      </trkpt>
      <trkpt lat="44.26053" lon="1.14291">
        <ele>173.804072</ele>
        <time>2022-08-01T07:28:34.483Z</time>
      </trkpt>
      <trkpt lat="44.26046" lon="1.14304">
        <ele>174.400407</ele>
        <time>2022-08-01T07:28:37.505Z</time>
      </trkpt>
      <trkpt lat="44.26039" lon="1.14317">
        <ele>175.029735</ele>
        <time>2022-08-01T07:28:41.497Z</time>
      </trkpt>
      <trkpt lat="44.26032" lon="1.14328">
        <ele>176.845643</ele>
        <time>2022-08-01T07:28:45.502Z</time>
      </trkpt>
      <trkpt lat="44.26022" lon="1.14336">
        <ele>178.730879</ele>
        <time>2022-08-01T07:28:50.498Z</time>
      </trkpt>
      <trkpt lat="44.26013" lon="1.1434">
        <ele>180.437434</ele>
        <time>2022-08-01T07:28:54.499Z</time>
      </trkpt>
      <trkpt lat="44.26003" lon="1.14343">
        <ele>182.219201</ele>
        <time>2022-08-01T07:28:58.492Z</time>
      </trkpt>
      <trkpt lat="44.25994" lon="1.14341">
        <ele>183.762613</ele>
        <time>2022-08-01T07:29:01.512Z</time>
      </trkpt>
      <trkpt lat="44.25984" lon="1.14335">
        <ele>185.572916</ele>
        <time>2022-08-01T07:29:04.492Z</time>
      </trkpt>
      <trkpt lat="44.25975" lon="1.14329">
        <ele>187.349198</ele>
        <time>2022-08-01T07:29:08.504Z</time>
      </trkpt>
      <trkpt lat="44.25965" lon="1.14328">
        <ele>188.991465</ele>
        <time>2022-08-01T07:29:11.498Z</time>
      </trkpt>
      <trkpt lat="44.25955" lon="1.14327">
        <ele>190.696954</ele>
        <time>2022-08-01T07:29:14.502Z</time>
      </trkpt>
      <trkpt lat="44.25944" lon="1.14327">
        <ele>192.636485</ele>
        <time>2022-08-01T07:29:18.493Z</time>
      </trkpt>
      <trkpt lat="44.25935" lon="1.14324">
        <ele>194.209038</ele>
        <time>2022-08-01T07:29:21.499Z</time>
      </trkpt>
      <trkpt lat="44.25926" lon="1.14319">
        <ele>195.944326</ele>
        <time>2022-08-01T07:29:25.527Z</time>
      </trkpt>
      <trkpt lat="44.25915" lon="1.14314">
        <ele>197.791664</ele>
        <time>2022-08-01T07:29:29.498Z</time>
      </trkpt>
      <trkpt lat="44.25906" lon="1.14311">
        <ele>199.40841</ele>
        <time>2022-08-01T07:29:32.505Z</time>
      </trkpt>
      <trkpt lat="44.25896" lon="1.14308">
        <ele>201.255572</ele>
        <time>2022-08-01T07:29:36.480Z</time>
      </trkpt>
      <trkpt lat="44.25885" lon="1.14304">
        <ele>203.152998</ele>
        <time>2022-08-01T07:29:40.499Z</time>
      </trkpt>
      <trkpt lat="44.25874" lon="1.14301">
        <ele>205.025279</ele>
        <time>2022-08-01T07:29:44.483Z</time>
      </trkpt>
      <trkpt lat="44.25864" lon="1.14293">
        <ele>206.471411</ele>
        <time>2022-08-01T07:29:48.496Z</time>
      </trkpt>
      <trkpt lat="44.25856" lon="1.14286">
        <ele>207.290941</ele>
        <time>2022-08-01T07:29:51.500Z</time>
      </trkpt>
      <trkpt lat="44.25849" lon="1.14276">
        <ele>208.154599</ele>
        <time>2022-08-01T07:29:54.481Z</time>
      </trkpt>
      <trkpt lat="44.25843" lon="1.14264">
        <ele>209.103204</ele>
        <time>2022-08-01T07:29:57.497Z</time>
      </trkpt>
      <trkpt lat="44.25837" lon="1.14252">
        <ele>210.043044</ele>
        <time>2022-08-01T07:30:01.522Z</time>
      </trkpt>
      <trkpt lat="44.25831" lon="1.14239">
        <ele>211.003586</ele>
        <time>2022-08-01T07:30:05.488Z</time>
      </trkpt>
      <trkpt lat="44.25826" lon="1.14227">
        <ele>211.856375</ele>
        <time>2022-08-01T07:30:09.504Z</time>
      </trkpt>
      <trkpt lat="44.25821" lon="1.14213">
        <ele>212.882941</ele>
        <time>2022-08-01T07:30:13.514Z</time>
      </trkpt>
      <trkpt lat="44.25815" lon="1.14199">
        <ele>213.904011</ele>
        <time>2022-08-01T07:30:17.492Z</time>
      </trkpt>
      <trkpt lat="44.25808" lon="1.14187">
        <ele>214.889546</ele>
        <time>2022-08-01T07:30:21.498Z</time>
      </trkpt>
      <trkpt lat="44.25799" lon="1.14181">
        <ele>215.752507</ele>
        <time>2022-08-01T07:30:24.511Z</time>
      </trkpt>
      <trkpt lat="44.25789" lon="1.14178">
        <ele>216.60493</ele>
        <time>2022-08-01T07:30:29.490Z</time>
      </trkpt>
      <trkpt lat="44.25779" lon="1.14179">
        <ele>217.487289</ele>
        <time>2022-08-01T07:30:33.498Z</time>
      </trkpt>
      <trkpt lat="44.25767" lon="1.14181">
        <ele>218.548733</ele>
        <time>2022-08-01T07:30:39.497Z</time>
      </trkpt>
      <trkpt lat="44.25757" lon="1.1418">
        <ele>219.446897</ele>
        <time>2022-08-01T07:30:43.489Z</time>
      </trkpt>
      <trkpt lat="44.25748" lon="1.14181">
        <ele>220.284566</ele>
        <time>2022-08-01T07:30:46.503Z</time>
      </trkpt>
      <trkpt lat="44.25736" lon="1.14179">
        <ele>221.289193</ele>
        <time>2022-08-01T07:30:50.493Z</time>
      </trkpt>
      <trkpt lat="44.25727" lon="1.14176">
        <ele>221.788695</ele>
        <time>2022-08-01T07:30:53.535Z</time>
      </trkpt>
      <trkpt lat="44.25716" lon="1.14173">
        <ele>222.064712</ele>
        <time>2022-08-01T07:30:56.505Z</time>
      </trkpt>
      <trkpt lat="44.25704" lon="1.14169">
        <ele>222.345692</ele>
        <time>2022-08-01T07:30:59.526Z</time>
      </trkpt>
      <trkpt lat="44.25695" lon="1.14163">
        <ele>222.587801</ele>
        <time>2022-08-01T07:31:02.492Z</time>
      </trkpt>
      <trkpt lat="44.25687" lon="1.14155">
        <ele>222.799058</ele>
        <time>2022-08-01T07:31:05.536Z</time>
      </trkpt>
      <trkpt lat="44.25681" lon="1.14145">
        <ele>223.030127</ele>
        <time>2022-08-01T07:31:08.506Z</time>
      </trkpt>
      <trkpt lat="44.25675" lon="1.14132">
        <ele>223.29353</ele>
        <time>2022-08-01T07:31:11.521Z</time>
      </trkpt>
      <trkpt lat="44.2567" lon="1.14117">
        <ele>223.563021</ele>
        <time>2022-08-01T07:31:14.498Z</time>
      </trkpt>
      <trkpt lat="44.25665" lon="1.14103">
        <ele>223.826429</ele>
        <time>2022-08-01T07:31:17.524Z</time>
      </trkpt>
      <trkpt lat="44.2566" lon="1.14089">
        <ele>224.08616</ele>
        <time>2022-08-01T07:31:21.501Z</time>
      </trkpt>
      <trkpt lat="44.25652" lon="1.14077">
        <ele>224.361472</ele>
        <time>2022-08-01T07:31:25.492Z</time>
      </trkpt>
      <trkpt lat="44.25644" lon="1.14066">
        <ele>224.62114</ele>
        <time>2022-08-01T07:31:29.517Z</time>
      </trkpt>
      <trkpt lat="44.25636" lon="1.14057">
        <ele>224.865112</ele>
        <time>2022-08-01T07:31:33.487Z</time>
      </trkpt>
      <trkpt lat="44.25628" lon="1.1405">
        <ele>225.090227</ele>
        <time>2022-08-01T07:31:37.495Z</time>
      </trkpt>
      <trkpt lat="44.25618" lon="1.14044">
        <ele>225.330892</ele>
        <time>2022-08-01T07:31:41.520Z</time>
      </trkpt>
      <trkpt lat="44.25609" lon="1.14041">
        <ele>225.561307</ele>
        <time>2022-08-01T07:31:45.495Z</time>
      </trkpt>
      <trkpt lat="44.25598" lon="1.14037">
        <ele>225.813594</ele>
        <time>2022-08-01T07:31:49.499Z</time>
      </trkpt>
      <trkpt lat="44.25588" lon="1.14031">
        <ele>225.836983</ele>
        <time>2022-08-01T07:31:53.526Z</time>
      </trkpt>
      <trkpt lat="44.2558" lon="1.14023">
        <ele>225.792621</ele>
        <time>2022-08-01T07:31:56.492Z</time>
      </trkpt>
      <trkpt lat="44.25572" lon="1.14011">
        <ele>225.735566</ele>
        <time>2022-08-01T07:32:00.506Z</time>
      </trkpt>
      <trkpt lat="44.25564" lon="1.14">
        <ele>225.686089</ele>
        <time>2022-08-01T07:32:03.496Z</time>
      </trkpt>
      <trkpt lat="44.25558" lon="1.13989">
        <ele>225.638315</ele>
        <time>2022-08-01T07:32:06.499Z</time>
      </trkpt>
      <trkpt lat="44.25553" lon="1.13976">
        <ele>225.58968</ele>
        <time>2022-08-01T07:32:09.487Z</time>
      </trkpt>
      <trkpt lat="44.25556" lon="1.13964">
        <ele>225.546616</ele>
        <time>2022-08-01T07:32:15.496Z</time>
      </trkpt>
      <trkpt lat="44.25566" lon="1.13967">
        <ele>225.498221</ele>
        <time>2022-08-01T07:32:19.489Z</time>
      </trkpt>
      <trkpt lat="44.25576" lon="1.13972">
        <ele>225.448726</ele>
        <time>2022-08-01T07:32:26.484Z</time>
      </trkpt>
      <trkpt lat="44.25586" lon="1.1398">
        <ele>225.396317</ele>
        <time>2022-08-01T07:32:31.498Z</time>
      </trkpt>
      <trkpt lat="44.25597" lon="1.13986">
        <ele>225.340292</ele>
        <time>2022-08-01T07:32:35.528Z</time>
      </trkpt>
      <trkpt lat="44.25606" lon="1.13989">
        <ele>225.295922</ele>
        <time>2022-08-01T07:32:38.492Z</time>
      </trkpt>
      <trkpt lat="44.25616" lon="1.13991">
        <ele>225.24997</ele>
        <time>2022-08-01T07:32:41.522Z</time>
      </trkpt>
      <trkpt lat="44.25627" lon="1.13988">
        <ele>225.197654</ele>
        <time>2022-08-01T07:32:45.497Z</time>
      </trkpt>
      <trkpt lat="44.25636" lon="1.13988">
        <ele>225.154196</ele>
        <time>2022-08-01T07:32:48.491Z</time>
      </trkpt>
      <trkpt lat="44.25646" lon="1.13988">
        <ele>225.104174</ele>
        <time>2022-08-01T07:32:52.498Z</time>
      </trkpt>
      <trkpt lat="44.25657" lon="1.1399">
        <ele>225.055217</ele>
        <time>2022-08-01T07:32:55.492Z</time>
      </trkpt>
      <trkpt lat="44.25666" lon="1.13991">
        <ele>225.390756</ele>
        <time>2022-08-01T07:32:59.532Z</time>
      </trkpt>
      <trkpt lat="44.25677" lon="1.13993">
        <ele>226.227637</ele>
        <time>2022-08-01T07:33:03.498Z</time>
      </trkpt>
      <trkpt lat="44.25687" lon="1.13992">
        <ele>227.109735</ele>
        <time>2022-08-01T07:33:08.494Z</time>
      </trkpt>
      <trkpt lat="44.25698" lon="1.13992">
        <ele>227.982033</ele>
        <time>2022-08-01T07:33:12.482Z</time>
      </trkpt>
      <trkpt lat="44.2571" lon="1.13992">
        <ele>228.894553</ele>
        <time>2022-08-01T07:33:16.492Z</time>
      </trkpt>
      <trkpt lat="44.25719" lon="1.13991">
        <ele>229.630854</ele>
        <time>2022-08-01T07:33:19.490Z</time>
      </trkpt>
      <trkpt lat="44.25729" lon="1.1399">
        <ele>230.488781</ele>
        <time>2022-08-01T07:33:23.618Z</time>
      </trkpt>
      <trkpt lat="44.25739" lon="1.13985">
        <ele>231.295232</ele>
        <time>2022-08-01T07:33:28.503Z</time>
      </trkpt>
      <trkpt lat="44.2575" lon="1.13988">
        <ele>232.215781</ele>
        <time>2022-08-01T07:33:32.506Z</time>
      </trkpt>
      <trkpt lat="44.25762" lon="1.13989">
        <ele>233.17162</ele>
        <time>2022-08-01T07:33:35.532Z</time>
      </trkpt>
      <trkpt lat="44.25772" lon="1.13993">
        <ele>234.053938</ele>
        <time>2022-08-01T07:33:40.489Z</time>
      </trkpt>
      <trkpt lat="44.25783" lon="1.13991">
        <ele>234.898231</ele>
        <time>2022-08-01T07:33:44.501Z</time>
      </trkpt>
      <trkpt lat="44.25793" lon="1.13985">
        <ele>235.80473</ele>
        <time>2022-08-01T07:33:47.530Z</time>
      </trkpt>
      <trkpt lat="44.25803" lon="1.13977">
        <ele>236.700604</ele>
        <time>2022-08-01T07:33:50.492Z</time>
      </trkpt>
      <trkpt lat="44.2581" lon="1.13968">
        <ele>237.471041</ele>
        <time>2022-08-01T07:33:54.488Z</time>
      </trkpt>
      <trkpt lat="44.25813" lon="1.13953">
        <ele>238.396955</ele>
        <time>2022-08-01T07:33:58.488Z</time>
      </trkpt>
      <trkpt lat="44.25813" lon="1.13938">
        <ele>239.258735</ele>
        <time>2022-08-01T07:34:02.496Z</time>
      </trkpt>
      <trkpt lat="44.25812" lon="1.13922">
        <ele>240.961384</ele>
        <time>2022-08-01T07:34:06.497Z</time>
      </trkpt>
      <trkpt lat="44.2581" lon="1.13906">
        <ele>242.980876</ele>
        <time>2022-08-01T07:34:10.502Z</time>
      </trkpt>
      <trkpt lat="44.25806" lon="1.13893">
        <ele>244.775412</ele>
        <time>2022-08-01T07:34:15.485Z</time>
      </trkpt>
      <trkpt lat="44.25803" lon="1.13878">
        <ele>246.779065</ele>
        <time>2022-08-01T07:34:21.498Z</time>
      </trkpt>
      <trkpt lat="44.25802" lon="1.13863">
        <ele>248.616521</ele>
        <time>2022-08-01T07:34:25.498Z</time>
      </trkpt>
      <trkpt lat="44.25801" lon="1.13849">
        <ele>250.456377</ele>
        <time>2022-08-01T07:34:29.525Z</time>
      </trkpt>
      <trkpt lat="44.25797" lon="1.13836">
        <ele>252.217393</ele>
        <time>2022-08-01T07:34:33.481Z</time>
      </trkpt>
      <trkpt lat="44.25792" lon="1.13824">
        <ele>253.980728</ele>
        <time>2022-08-01T07:34:37.498Z</time>
      </trkpt>
      <trkpt lat="44.25787" lon="1.13812">
        <ele>255.698739</ele>
        <time>2022-08-01T07:34:41.520Z</time>
      </trkpt>
      <trkpt lat="44.25781" lon="1.138">
        <ele>257.614298</ele>
        <time>2022-08-01T07:34:45.508Z</time>
      </trkpt>
      <trkpt lat="44.25775" lon="1.13788">
        <ele>259.426141</ele>
        <time>2022-08-01T07:34:49.483Z</time>
      </trkpt>
      <trkpt lat="44.25769" lon="1.13778">
        <ele>261.027628</ele>
        <time>2022-08-01T07:34:52.506Z</time>
      </trkpt>
      <trkpt lat="44.2576" lon="1.13769">
        <ele>263.031189</ele>
        <time>2022-08-01T07:34:55.491Z</time>
      </trkpt>
      <trkpt lat="44.25754" lon="1.1376">
        <ele>264.640436</ele>
        <time>2022-08-01T07:34:58.502Z</time>
      </trkpt>
      <trkpt lat="44.25746" lon="1.13751">
        <ele>266.355945</ele>
        <time>2022-08-01T07:35:01.502Z</time>
      </trkpt>
      <trkpt lat="44.25738" lon="1.13743">
        <ele>268.109741</ele>
        <time>2022-08-01T07:35:05.532Z</time>
      </trkpt>
      <trkpt lat="44.25729" lon="1.13736">
        <ele>269.9811</ele>
        <time>2022-08-01T07:35:09.492Z</time>
      </trkpt>
      <trkpt lat="44.25718" lon="1.13736">
        <ele>271.329894</ele>
        <time>2022-08-01T07:35:14.504Z</time>
      </trkpt>
      <trkpt lat="44.25708" lon="1.13744">
        <ele>271.268083</ele>
        <time>2022-08-01T07:35:19.513Z</time>
      </trkpt>
      <trkpt lat="44.257" lon="1.13751">
        <ele>271.216907</ele>
        <time>2022-08-01T07:35:23.517Z</time>
      </trkpt>
      <trkpt lat="44.25695" lon="1.13762">
        <ele>271.166124</ele>
        <time>2022-08-01T07:35:28.483Z</time>
      </trkpt>
      <trkpt lat="44.25691" lon="1.13775">
        <ele>271.109604</ele>
        <time>2022-08-01T07:35:33.503Z</time>
      </trkpt>
      <trkpt lat="44.25694" lon="1.13788">
        <ele>271.058015</ele>
        <time>2022-08-01T07:35:38.497Z</time>
      </trkpt>
      <trkpt lat="44.25695" lon="1.13801">
        <ele>271.004216</ele>
        <time>2022-08-01T07:35:42.494Z</time>
      </trkpt>
      <trkpt lat="44.25686" lon="1.13811">
        <ele>270.940093</ele>
        <time>2022-08-01T07:35:46.506Z</time>
      </trkpt>
      <trkpt lat="44.25677" lon="1.13811">
        <ele>270.888882</ele>
        <time>2022-08-01T07:35:50.491Z</time>
      </trkpt>
      <trkpt lat="44.25649" lon="1.13832">
        <ele>270.718295</ele>
        <time>2022-08-01T07:36:33.486Z</time>
      </trkpt>
      <trkpt lat="44.25642" lon="1.13824">
        <ele>270.666961</ele>
        <time>2022-08-01T07:36:37.471Z</time>
      </trkpt>
      <trkpt lat="44.25637" lon="1.13811">
        <ele>270.610914</ele>
        <time>2022-08-01T07:36:41.515Z</time>
      </trkpt>
      <trkpt lat="44.25639" lon="1.13798">
        <ele>270.559197</ele>
        <time>2022-08-01T07:36:45.488Z</time>
      </trkpt>
      <trkpt lat="44.25647" lon="1.13791">
        <ele>270.509191</ele>
        <time>2022-08-01T07:36:49.497Z</time>
      </trkpt>
      <trkpt lat="44.25654" lon="1.13779">
        <ele>270.449546</ele>
        <time>2022-08-01T07:36:53.518Z</time>
      </trkpt>
      <trkpt lat="44.2566" lon="1.13766">
        <ele>270.386164</ele>
        <time>2022-08-01T07:36:56.506Z</time>
      </trkpt>
      <trkpt lat="44.25667" lon="1.13754">
        <ele>269.638715</ele>
        <time>2022-08-01T07:36:59.527Z</time>
      </trkpt>
      <trkpt lat="44.25678" lon="1.13758">
        <ele>268.66564</ele>
        <time>2022-08-01T07:37:08.479Z</time>
      </trkpt>
      <trkpt lat="44.25688" lon="1.13754">
        <ele>267.731702</ele>
        <time>2022-08-01T07:37:11.523Z</time>
      </trkpt>
      <trkpt lat="44.25696" lon="1.13746">
        <ele>266.839165</ele>
        <time>2022-08-01T07:37:14.505Z</time>
      </trkpt>
      <trkpt lat="44.25705" lon="1.13737">
        <ele>265.852181</ele>
        <time>2022-08-01T07:37:19.492Z</time>
      </trkpt>
      <trkpt lat="44.25716" lon="1.13735">
        <ele>264.797779</ele>
        <time>2022-08-01T07:37:22.492Z</time>
      </trkpt>
      <trkpt lat="44.25727" lon="1.13739">
        <ele>263.75431</ele>
        <time>2022-08-01T07:37:24.490Z</time>
      </trkpt>
      <trkpt lat="44.25737" lon="1.13749">
        <ele>262.725354</ele>
        <time>2022-08-01T07:37:26.499Z</time>
      </trkpt>
      <trkpt lat="44.25748" lon="1.13759">
        <ele>261.511309</ele>
        <time>2022-08-01T07:37:28.486Z</time>
      </trkpt>
      <trkpt lat="44.2576" lon="1.13772">
        <ele>260.135212</ele>
        <time>2022-08-01T07:37:30.480Z</time>
      </trkpt>
      <trkpt lat="44.2577" lon="1.13786">
        <ele>258.828965</ele>
        <time>2022-08-01T07:37:32.493Z</time>
      </trkpt>
      <trkpt lat="44.25782" lon="1.13805">
        <ele>257.238039</ele>
        <time>2022-08-01T07:37:34.502Z</time>
      </trkpt>
      <trkpt lat="44.25791" lon="1.13822">
        <ele>255.850282</ele>
        <time>2022-08-01T07:37:36.504Z</time>
      </trkpt>
      <trkpt lat="44.25801" lon="1.13844">
        <ele>254.146605</ele>
        <time>2022-08-01T07:37:38.493Z</time>
      </trkpt>
      <trkpt lat="44.25805" lon="1.13859">
        <ele>253.425115</ele>
        <time>2022-08-01T07:37:39.497Z</time>
      </trkpt>
      <trkpt lat="44.25808" lon="1.13872">
        <ele>252.782713</ele>
        <time>2022-08-01T07:37:40.500Z</time>
      </trkpt>
      <trkpt lat="44.2581" lon="1.13895">
        <ele>251.686613</ele>
        <time>2022-08-01T07:37:42.489Z</time>
      </trkpt>
      <trkpt lat="44.25816" lon="1.13919">
        <ele>250.503684</ele>
        <time>2022-08-01T07:37:44.499Z</time>
      </trkpt>
      <trkpt lat="44.25819" lon="1.13931">
        <ele>249.892439</ele>
        <time>2022-08-01T07:37:45.529Z</time>
      </trkpt>
      <trkpt lat="44.25823" lon="1.13952">
        <ele>248.872949</ele>
        <time>2022-08-01T07:37:47.526Z</time>
      </trkpt>
      <trkpt lat="44.25817" lon="1.13965">
        <ele>248.173703</ele>
        <time>2022-08-01T07:37:49.502Z</time>
      </trkpt>
      <trkpt lat="44.25806" lon="1.13976">
        <ele>247.261928</ele>
        <time>2022-08-01T07:37:51.491Z</time>
      </trkpt>
      <trkpt lat="44.25793" lon="1.13987">
        <ele>246.291367</ele>
        <time>2022-08-01T07:37:53.526Z</time>
      </trkpt>
      <trkpt lat="44.25777" lon="1.13989">
        <ele>245.244514</ele>
        <time>2022-08-01T07:37:55.485Z</time>
      </trkpt>
      <trkpt lat="44.25759" lon="1.13989">
        <ele>244.115913</ele>
        <time>2022-08-01T07:37:57.483Z</time>
      </trkpt>
      <trkpt lat="44.25741" lon="1.13986">
        <ele>242.893703</ele>
        <time>2022-08-01T07:37:59.514Z</time>
      </trkpt>
      <trkpt lat="44.2573" lon="1.13987">
        <ele>242.202363</ele>
        <time>2022-08-01T07:38:00.489Z</time>
      </trkpt>
      <trkpt lat="44.2572" lon="1.13988">
        <ele>241.459291</ele>
        <time>2022-08-01T07:38:01.501Z</time>
      </trkpt>
      <trkpt lat="44.257" lon="1.13992">
        <ele>240.103967</ele>
        <time>2022-08-01T07:38:03.485Z</time>
      </trkpt>
      <trkpt lat="44.2569" lon="1.13994">
        <ele>239.413257</ele>
        <time>2022-08-01T07:38:04.489Z</time>
      </trkpt>
      <trkpt lat="44.2568" lon="1.13996">
        <ele>238.70065</ele>
        <time>2022-08-01T07:38:05.512Z</time>
      </trkpt>
      <trkpt lat="44.25659" lon="1.13996">
        <ele>237.199214</ele>
        <time>2022-08-01T07:38:07.491Z</time>
      </trkpt>
      <trkpt lat="44.25648" lon="1.13995">
        <ele>236.471696</ele>
        <time>2022-08-01T07:38:08.494Z</time>
      </trkpt>
      <trkpt lat="44.25638" lon="1.13994">
        <ele>235.799947</ele>
        <time>2022-08-01T07:38:09.493Z</time>
      </trkpt>
      <trkpt lat="44.25629" lon="1.13991">
        <ele>235.108865</ele>
        <time>2022-08-01T07:38:10.497Z</time>
      </trkpt>
      <trkpt lat="44.25619" lon="1.13989">
        <ele>234.421344</ele>
        <time>2022-08-01T07:38:11.518Z</time>
      </trkpt>
      <trkpt lat="44.25601" lon="1.13983">
        <ele>233.189263</ele>
        <time>2022-08-01T07:38:13.486Z</time>
      </trkpt>
      <trkpt lat="44.25592" lon="1.13979">
        <ele>232.497547</ele>
        <time>2022-08-01T07:38:14.501Z</time>
      </trkpt>
      <trkpt lat="44.25577" lon="1.13968">
        <ele>231.313074</ele>
        <time>2022-08-01T07:38:16.499Z</time>
      </trkpt>
      <trkpt lat="44.25566" lon="1.13958">
        <ele>230.445059</ele>
        <time>2022-08-01T07:38:18.480Z</time>
      </trkpt>
      <trkpt lat="44.25556" lon="1.13956">
        <ele>229.71623</ele>
        <time>2022-08-01T07:38:21.495Z</time>
      </trkpt>
      <trkpt lat="44.25551" lon="1.1397">
        <ele>229.060918</ele>
        <time>2022-08-01T07:38:25.506Z</time>
      </trkpt>
      <trkpt lat="44.25557" lon="1.13982">
        <ele>228.442307</ele>
        <time>2022-08-01T07:38:27.504Z</time>
      </trkpt>
      <trkpt lat="44.25563" lon="1.13994">
        <ele>227.753193</ele>
        <time>2022-08-01T07:38:29.527Z</time>
      </trkpt>
      <trkpt lat="44.25571" lon="1.14008">
        <ele>227.00174</ele>
        <time>2022-08-01T07:38:31.493Z</time>
      </trkpt>
      <trkpt lat="44.25581" lon="1.14012">
        <ele>226.384941</ele>
        <time>2022-08-01T07:38:33.504Z</time>
      </trkpt>
      <trkpt lat="44.2559" lon="1.14021">
        <ele>225.653427</ele>
        <time>2022-08-01T07:38:34.499Z</time>
      </trkpt>
      <trkpt lat="44.25606" lon="1.14031">
        <ele>224.587444</ele>
        <time>2022-08-01T07:38:36.499Z</time>
      </trkpt>
      <trkpt lat="44.25615" lon="1.14037">
        <ele>223.96855</ele>
        <time>2022-08-01T07:38:37.490Z</time>
      </trkpt>
      <trkpt lat="44.25624" lon="1.14045">
        <ele>223.342616</ele>
        <time>2022-08-01T07:38:38.493Z</time>
      </trkpt>
      <trkpt lat="44.25632" lon="1.14054">
        <ele>222.733265</ele>
        <time>2022-08-01T07:38:39.507Z</time>
      </trkpt>
      <trkpt lat="44.25639" lon="1.14063">
        <ele>222.10327</ele>
        <time>2022-08-01T07:38:40.499Z</time>
      </trkpt>
      <trkpt lat="44.25646" lon="1.14075">
        <ele>221.466387</ele>
        <time>2022-08-01T07:38:41.502Z</time>
      </trkpt>
      <trkpt lat="44.25651" lon="1.14089">
        <ele>220.778195</ele>
        <time>2022-08-01T07:38:42.499Z</time>
      </trkpt>
      <trkpt lat="44.25656" lon="1.14104">
        <ele>220.064774</ele>
        <time>2022-08-01T07:38:43.499Z</time>
      </trkpt>
      <trkpt lat="44.25659" lon="1.14117">
        <ele>219.428092</ele>
        <time>2022-08-01T07:38:44.494Z</time>
      </trkpt>
      <trkpt lat="44.25663" lon="1.1413">
        <ele>218.828773</ele>
        <time>2022-08-01T07:38:45.488Z</time>
      </trkpt>
      <trkpt lat="44.25672" lon="1.14151">
        <ele>217.949275</ele>
        <time>2022-08-01T07:38:47.513Z</time>
      </trkpt>
      <trkpt lat="44.25683" lon="1.1417">
        <ele>217.064339</ele>
        <time>2022-08-01T07:38:49.497Z</time>
      </trkpt>
      <trkpt lat="44.25693" lon="1.14176">
        <ele>216.513564</ele>
        <time>2022-08-01T07:38:50.484Z</time>
      </trkpt>
      <trkpt lat="44.25702" lon="1.1418">
        <ele>216.029848</ele>
        <time>2022-08-01T07:38:51.490Z</time>
      </trkpt>
      <trkpt lat="44.25712" lon="1.14184">
        <ele>215.520192</ele>
        <time>2022-08-01T07:38:52.498Z</time>
      </trkpt>
      <trkpt lat="44.25723" lon="1.14188">
        <ele>214.932705</ele>
        <time>2022-08-01T07:38:53.521Z</time>
      </trkpt>
      <trkpt lat="44.25735" lon="1.14188">
        <ele>214.337149</ele>
        <time>2022-08-01T07:38:54.508Z</time>
      </trkpt>
      <trkpt lat="44.25746" lon="1.14185">
        <ele>213.784623</ele>
        <time>2022-08-01T07:38:55.511Z</time>
      </trkpt>
      <trkpt lat="44.25757" lon="1.14185">
        <ele>213.23943</ele>
        <time>2022-08-01T07:38:56.494Z</time>
      </trkpt>
      <trkpt lat="44.25766" lon="1.14182">
        <ele>212.755784</ele>
        <time>2022-08-01T07:38:57.492Z</time>
      </trkpt>
      <trkpt lat="44.25777" lon="1.14182">
        <ele>212.195266</ele>
        <time>2022-08-01T07:38:58.489Z</time>
      </trkpt>
      <trkpt lat="44.25788" lon="1.14184">
        <ele>211.669368</ele>
        <time>2022-08-01T07:38:59.524Z</time>
      </trkpt>
      <trkpt lat="44.25798" lon="1.14187">
        <ele>211.11855</ele>
        <time>2022-08-01T07:39:00.488Z</time>
      </trkpt>
      <trkpt lat="44.25809" lon="1.14187">
        <ele>210.578318</ele>
        <time>2022-08-01T07:39:01.492Z</time>
      </trkpt>
      <trkpt lat="44.25815" lon="1.14213">
        <ele>209.580485</ele>
        <time>2022-08-01T07:39:03.501Z</time>
      </trkpt>
      <trkpt lat="44.25818" lon="1.14228">
        <ele>209.038211</ele>
        <time>2022-08-01T07:39:04.498Z</time>
      </trkpt>
      <trkpt lat="44.25823" lon="1.14241">
        <ele>208.511866</ele>
        <time>2022-08-01T07:39:05.549Z</time>
      </trkpt>
      <trkpt lat="44.25828" lon="1.14254">
        <ele>208.010091</ele>
        <time>2022-08-01T07:39:06.502Z</time>
      </trkpt>
      <trkpt lat="44.25832" lon="1.14266">
        <ele>207.505716</ele>
        <time>2022-08-01T07:39:07.494Z</time>
      </trkpt>
      <trkpt lat="44.2584" lon="1.1428">
        <ele>206.88784</ele>
        <time>2022-08-01T07:39:08.476Z</time>
      </trkpt>
      <trkpt lat="44.25847" lon="1.1429">
        <ele>206.426607</ele>
        <time>2022-08-01T07:39:09.511Z</time>
      </trkpt>
      <trkpt lat="44.25855" lon="1.14298">
        <ele>205.924863</ele>
        <time>2022-08-01T07:39:10.504Z</time>
      </trkpt>
      <trkpt lat="44.25865" lon="1.14304">
        <ele>205.379058</ele>
        <time>2022-08-01T07:39:11.530Z</time>
      </trkpt>
      <trkpt lat="44.25875" lon="1.14308">
        <ele>204.86159</ele>
        <time>2022-08-01T07:39:12.499Z</time>
      </trkpt>
      <trkpt lat="44.25885" lon="1.14309">
        <ele>204.359593</ele>
        <time>2022-08-01T07:39:13.490Z</time>
      </trkpt>
      <trkpt lat="44.25896" lon="1.14312">
        <ele>203.834837</ele>
        <time>2022-08-01T07:39:14.484Z</time>
      </trkpt>
      <trkpt lat="44.25905" lon="1.14316">
        <ele>203.364309</ele>
        <time>2022-08-01T07:39:15.494Z</time>
      </trkpt>
      <trkpt lat="44.25915" lon="1.1432">
        <ele>202.863172</ele>
        <time>2022-08-01T07:39:16.492Z</time>
      </trkpt>
      <trkpt lat="44.25924" lon="1.14323">
        <ele>202.400957</ele>
        <time>2022-08-01T07:39:17.526Z</time>
      </trkpt>
      <trkpt lat="44.25934" lon="1.14326">
        <ele>201.871374</ele>
        <time>2022-08-01T07:39:18.503Z</time>
      </trkpt>
      <trkpt lat="44.25945" lon="1.14329">
        <ele>201.346618</ele>
        <time>2022-08-01T07:39:19.492Z</time>
      </trkpt>
      <trkpt lat="44.25954" lon="1.14332">
        <ele>201.002647</ele>
        <time>2022-08-01T07:39:20.505Z</time>
      </trkpt>
      <trkpt lat="44.2597" lon="1.14337">
        <ele>201.253771</ele>
        <time>2022-08-01T07:39:22.499Z</time>
      </trkpt>
      <trkpt lat="44.25982" lon="1.14348">
        <ele>201.469737</ele>
        <time>2022-08-01T07:39:24.485Z</time>
      </trkpt>
      <trkpt lat="44.25989" lon="1.14357">
        <ele>201.609102</ele>
        <time>2022-08-01T07:39:26.496Z</time>
      </trkpt>
      <trkpt lat="44.25998" lon="1.14364">
        <ele>201.768296</ele>
        <time>2022-08-01T07:39:30.492Z</time>
      </trkpt>
      <trkpt lat="44.26007" lon="1.14353">
        <ele>201.945051</ele>
        <time>2022-08-01T07:39:33.499Z</time>
      </trkpt>
      <trkpt lat="44.26017" lon="1.14342">
        <ele>202.136184</ele>
        <time>2022-08-01T07:39:36.496Z</time>
      </trkpt>
      <trkpt lat="44.26027" lon="1.14335">
        <ele>202.302686</ele>
        <time>2022-08-01T07:39:38.499Z</time>
      </trkpt>
      <trkpt lat="44.26037" lon="1.14323">
        <ele>202.496893</ele>
        <time>2022-08-01T07:39:40.501Z</time>
      </trkpt>
      <trkpt lat="44.26046" lon="1.14309">
        <ele>202.704977</ele>
        <time>2022-08-01T07:39:42.495Z</time>
      </trkpt>
      <trkpt lat="44.26056" lon="1.14292">
        <ele>202.939372</ele>
        <time>2022-08-01T07:39:44.497Z</time>
      </trkpt>
      <trkpt lat="44.26067" lon="1.1427">
        <ele>203.220648</ele>
        <time>2022-08-01T07:39:46.484Z</time>
      </trkpt>
      <trkpt lat="44.26071" lon="1.14259">
        <ele>203.35632</ele>
        <time>2022-08-01T07:39:47.519Z</time>
      </trkpt>
      <trkpt lat="44.26081" lon="1.14239">
        <ele>203.611347</ele>
        <time>2022-08-01T07:39:49.493Z</time>
      </trkpt>
      <trkpt lat="44.26085" lon="1.14228">
        <ele>203.503356</ele>
        <time>2022-08-01T07:39:50.505Z</time>
      </trkpt>
      <trkpt lat="44.26089" lon="1.14216">
        <ele>203.185412</ele>
        <time>2022-08-01T07:39:51.500Z</time>
      </trkpt>
      <trkpt lat="44.261" lon="1.14195">
        <ele>202.573845</ele>
        <time>2022-08-01T07:39:53.527Z</time>
      </trkpt>
      <trkpt lat="44.26106" lon="1.14184">
        <ele>202.23856</ele>
        <time>2022-08-01T07:39:54.495Z</time>
      </trkpt>
      <trkpt lat="44.26116" lon="1.14172">
        <ele>201.807933</ele>
        <time>2022-08-01T07:39:55.495Z</time>
      </trkpt>
      <trkpt lat="44.26124" lon="1.14161">
        <ele>201.42832</ele>
        <time>2022-08-01T07:39:56.505Z</time>
      </trkpt>
      <trkpt lat="44.26133" lon="1.14151">
        <ele>201.058265</ele>
        <time>2022-08-01T07:39:57.493Z</time>
      </trkpt>
      <trkpt lat="44.26143" lon="1.1414">
        <ele>200.645897</ele>
        <time>2022-08-01T07:39:58.499Z</time>
      </trkpt>
      <trkpt lat="44.26152" lon="1.14132">
        <ele>200.284745</ele>
        <time>2022-08-01T07:39:59.536Z</time>
      </trkpt>
      <trkpt lat="44.26161" lon="1.14123">
        <ele>199.907279</ele>
        <time>2022-08-01T07:40:00.504Z</time>
      </trkpt>
      <trkpt lat="44.2617" lon="1.14114">
        <ele>199.532526</ele>
        <time>2022-08-01T07:40:01.503Z</time>
      </trkpt>
      <trkpt lat="44.26181" lon="1.14104">
        <ele>199.108718</ele>
        <time>2022-08-01T07:40:02.482Z</time>
      </trkpt>
      <trkpt lat="44.26189" lon="1.14093">
        <ele>198.724932</ele>
        <time>2022-08-01T07:40:03.489Z</time>
      </trkpt>
      <trkpt lat="44.26197" lon="1.14082">
        <ele>198.358778</ele>
        <time>2022-08-01T07:40:04.510Z</time>
      </trkpt>
      <trkpt lat="44.26204" lon="1.1407">
        <ele>197.992651</ele>
        <time>2022-08-01T07:40:05.517Z</time>
      </trkpt>
      <trkpt lat="44.26209" lon="1.14056">
        <ele>197.574108</ele>
        <time>2022-08-01T07:40:06.500Z</time>
      </trkpt>
      <trkpt lat="44.26213" lon="1.1404">
        <ele>196.972319</ele>
        <time>2022-08-01T07:40:07.483Z</time>
      </trkpt>
      <trkpt lat="44.26217" lon="1.14026">
        <ele>196.430122</ele>
        <time>2022-08-01T07:40:08.500Z</time>
      </trkpt>
      <trkpt lat="44.2622" lon="1.14012">
        <ele>195.870694</ele>
        <time>2022-08-01T07:40:09.481Z</time>
      </trkpt>
      <trkpt lat="44.26224" lon="1.13996">
        <ele>195.294009</ele>
        <time>2022-08-01T07:40:10.502Z</time>
      </trkpt>
      <trkpt lat="44.26227" lon="1.13982">
        <ele>194.764118</ele>
        <time>2022-08-01T07:40:11.534Z</time>
      </trkpt>
      <trkpt lat="44.2623" lon="1.13967">
        <ele>194.167387</ele>
        <time>2022-08-01T07:40:12.489Z</time>
      </trkpt>
      <trkpt lat="44.26234" lon="1.13952">
        <ele>193.609821</ele>
        <time>2022-08-01T07:40:13.489Z</time>
      </trkpt>
      <trkpt lat="44.26238" lon="1.13939">
        <ele>193.075971</ele>
        <time>2022-08-01T07:40:14.503Z</time>
      </trkpt>
      <trkpt lat="44.26244" lon="1.13927">
        <ele>192.563666</ele>
        <time>2022-08-01T07:40:15.504Z</time>
      </trkpt>
      <trkpt lat="44.26251" lon="1.13916">
        <ele>192.026376</ele>
        <time>2022-08-01T07:40:16.503Z</time>
      </trkpt>
      <trkpt lat="44.26258" lon="1.13906">
        <ele>191.519291</ele>
        <time>2022-08-01T07:40:17.547Z</time>
      </trkpt>
      <trkpt lat="44.26266" lon="1.13898">
        <ele>191.017563</ele>
        <time>2022-08-01T07:40:18.500Z</time>
      </trkpt>
      <trkpt lat="44.26275" lon="1.1389">
        <ele>190.482694</ele>
        <time>2022-08-01T07:40:19.480Z</time>
      </trkpt>
      <trkpt lat="44.26285" lon="1.13883">
        <ele>189.947353</ele>
        <time>2022-08-01T07:40:20.497Z</time>
      </trkpt>
      <trkpt lat="44.26294" lon="1.13877">
        <ele>189.433296</ele>
        <time>2022-08-01T07:40:21.506Z</time>
      </trkpt>
      <trkpt lat="44.26303" lon="1.1387">
        <ele>188.896904</ele>
        <time>2022-08-01T07:40:22.517Z</time>
      </trkpt>
      <trkpt lat="44.26312" lon="1.13863">
        <ele>188.995153</ele>
        <time>2022-08-01T07:40:23.526Z</time>
      </trkpt>
      <trkpt lat="44.26321" lon="1.13856">
        <ele>189.845542</ele>
        <time>2022-08-01T07:40:24.505Z</time>
      </trkpt>
      <trkpt lat="44.2633" lon="1.1385">
        <ele>190.669056</ele>
        <time>2022-08-01T07:40:25.500Z</time>
      </trkpt>
      <trkpt lat="44.26339" lon="1.13844">
        <ele>191.486391</ele>
        <time>2022-08-01T07:40:26.486Z</time>
      </trkpt>
      <trkpt lat="44.26347" lon="1.13838">
        <ele>192.275855</ele>
        <time>2022-08-01T07:40:27.508Z</time>
      </trkpt>
      <trkpt lat="44.26363" lon="1.13824">
        <ele>193.813304</ele>
        <time>2022-08-01T07:40:29.519Z</time>
      </trkpt>
      <trkpt lat="44.26377" lon="1.13808">
        <ele>195.367975</ele>
        <time>2022-08-01T07:40:31.497Z</time>
      </trkpt>
      <trkpt lat="44.26388" lon="1.13792">
        <ele>196.697957</ele>
        <time>2022-08-01T07:40:33.498Z</time>
      </trkpt>
      <trkpt lat="44.26396" lon="1.13773">
        <ele>198.004189</ele>
        <time>2022-08-01T07:40:35.518Z</time>
      </trkpt>
      <trkpt lat="44.26404" lon="1.13755">
        <ele>199.260243</ele>
        <time>2022-08-01T07:40:37.499Z</time>
      </trkpt>
      <trkpt lat="44.26413" lon="1.13737">
        <ele>200.593079</ele>
        <time>2022-08-01T07:40:39.497Z</time>
      </trkpt>
      <trkpt lat="44.26423" lon="1.13717">
        <ele>202.017563</ele>
        <time>2022-08-01T07:40:41.529Z</time>
      </trkpt>
      <trkpt lat="44.2643" lon="1.13699">
        <ele>203.248747</ele>
        <time>2022-08-01T07:40:43.504Z</time>
      </trkpt>
      <trkpt lat="44.26438" lon="1.13682">
        <ele>202.116682</ele>
        <time>2022-08-01T07:40:45.495Z</time>
      </trkpt>
      <trkpt lat="44.26444" lon="1.13665">
        <ele>200.26565</ele>
        <time>2022-08-01T07:40:47.550Z</time>
      </trkpt>
      <trkpt lat="44.2645" lon="1.13649">
        <ele>198.303563</ele>
        <time>2022-08-01T07:40:49.493Z</time>
      </trkpt>
      <trkpt lat="44.26456" lon="1.13638">
        <ele>196.885903</ele>
        <time>2022-08-01T07:40:51.500Z</time>
      </trkpt>
      <trkpt lat="44.26463" lon="1.13627">
        <ele>195.40178</ele>
        <time>2022-08-01T07:40:53.527Z</time>
      </trkpt>
      <trkpt lat="44.2647" lon="1.13613">
        <ele>193.700739</ele>
        <time>2022-08-01T07:40:55.508Z</time>
      </trkpt>
      <trkpt lat="44.26478" lon="1.13598">
        <ele>191.672223</ele>
        <time>2022-08-01T07:40:57.505Z</time>
      </trkpt>
      <trkpt lat="44.26485" lon="1.13583">
        <ele>189.7945</ele>
        <time>2022-08-01T07:40:59.542Z</time>
      </trkpt>
      <trkpt lat="44.26494" lon="1.13567">
        <ele>187.746881</ele>
        <time>2022-08-01T07:41:01.496Z</time>
      </trkpt>
      <trkpt lat="44.26501" lon="1.13558">
        <ele>186.41242</ele>
        <time>2022-08-01T07:41:03.496Z</time>
      </trkpt>
      <trkpt lat="44.2651" lon="1.13543">
        <ele>184.395537</ele>
        <time>2022-08-01T07:41:05.547Z</time>
      </trkpt>
      <trkpt lat="44.26516" lon="1.13527">
        <ele>182.51189</ele>
        <time>2022-08-01T07:41:07.508Z</time>
      </trkpt>
      <trkpt lat="44.26521" lon="1.13515">
        <ele>181.149869</ele>
        <time>2022-08-01T07:41:08.497Z</time>
      </trkpt>
      <trkpt lat="44.26529" lon="1.13499">
        <ele>179.121333</ele>
        <time>2022-08-01T07:41:10.494Z</time>
      </trkpt>
      <trkpt lat="44.26534" lon="1.13486">
        <ele>177.744498</ele>
        <time>2022-08-01T07:41:12.477Z</time>
      </trkpt>
      <trkpt lat="44.26539" lon="1.13475">
        <ele>177.962908</ele>
        <time>2022-08-01T07:41:14.497Z</time>
      </trkpt>
      <trkpt lat="44.26545" lon="1.13459">
        <ele>178.275747</ele>
        <time>2022-08-01T07:41:17.518Z</time>
      </trkpt>
      <trkpt lat="44.26552" lon="1.13446">
        <ele>178.558606</ele>
        <time>2022-08-01T07:41:20.499Z</time>
      </trkpt>
      <trkpt lat="44.26557" lon="1.13432">
        <ele>178.817637</ele>
        <time>2022-08-01T07:41:23.521Z</time>
      </trkpt>
      <trkpt lat="44.26561" lon="1.13421">
        <ele>179.031557</ele>
        <time>2022-08-01T07:41:25.479Z</time>
      </trkpt>
      <trkpt lat="44.26567" lon="1.13407">
        <ele>179.298732</ele>
        <time>2022-08-01T07:41:28.506Z</time>
      </trkpt>
      <trkpt lat="44.26574" lon="1.13393">
        <ele>179.589465</ele>
        <time>2022-08-01T07:41:31.507Z</time>
      </trkpt>
      <trkpt lat="44.26578" lon="1.13381">
        <ele>179.818962</ele>
        <time>2022-08-01T07:41:34.499Z</time>
      </trkpt>
      <trkpt lat="44.26582" lon="1.13367">
        <ele>180.070614</ele>
        <time>2022-08-01T07:41:37.493Z</time>
      </trkpt>
      <trkpt lat="44.26583" lon="1.13352">
        <ele>180.318328</ele>
        <time>2022-08-01T07:41:40.500Z</time>
      </trkpt>
      <trkpt lat="44.26582" lon="1.13337">
        <ele>180.574761</ele>
        <time>2022-08-01T07:41:44.490Z</time>
      </trkpt>
      <trkpt lat="44.26581" lon="1.13323">
        <ele>180.825788</ele>
        <time>2022-08-01T07:41:47.528Z</time>
      </trkpt>
      <trkpt lat="44.26579" lon="1.13309">
        <ele>181.066395</ele>
        <time>2022-08-01T07:41:50.496Z</time>
      </trkpt>
      <trkpt lat="44.26578" lon="1.13293">
        <ele>181.338299</ele>
        <time>2022-08-01T07:41:54.507Z</time>
      </trkpt>
      <trkpt lat="44.2658" lon="1.13276">
        <ele>181.617197</ele>
        <time>2022-08-01T07:41:58.498Z</time>
      </trkpt>
      <trkpt lat="44.26583" lon="1.13262">
        <ele>181.874005</ele>
        <time>2022-08-01T07:42:02.491Z</time>
      </trkpt>
      <trkpt lat="44.26586" lon="1.13247">
        <ele>182.161017</ele>
        <time>2022-08-01T07:42:06.497Z</time>
      </trkpt>
      <trkpt lat="44.26587" lon="1.13232">
        <ele>182.470684</ele>
        <time>2022-08-01T07:42:10.466Z</time>
      </trkpt>
      <trkpt lat="44.26587" lon="1.13219">
        <ele>182.716889</ele>
        <time>2022-08-01T07:42:13.488Z</time>
      </trkpt>
      <trkpt lat="44.26585" lon="1.13206">
        <ele>182.981314</ele>
        <time>2022-08-01T07:42:17.531Z</time>
      </trkpt>
      <trkpt lat="44.26583" lon="1.1319">
        <ele>183.305224</ele>
        <time>2022-08-01T07:42:21.518Z</time>
      </trkpt>
      <trkpt lat="44.26581" lon="1.13176">
        <ele>183.584476</ele>
        <time>2022-08-01T07:42:25.487Z</time>
      </trkpt>
      <trkpt lat="44.26576" lon="1.13161">
        <ele>183.914199</ele>
        <time>2022-08-01T07:42:29.520Z</time>
      </trkpt>
      <trkpt lat="44.26573" lon="1.13146">
        <ele>184.21951</ele>
        <time>2022-08-01T07:42:33.483Z</time>
      </trkpt>
      <trkpt lat="44.2657" lon="1.13133">
        <ele>184.491257</ele>
        <time>2022-08-01T07:42:37.501Z</time>
      </trkpt>
      <trkpt lat="44.26565" lon="1.13119">
        <ele>184.790999</ele>
        <time>2022-08-01T07:42:41.520Z</time>
      </trkpt>
      <trkpt lat="44.26561" lon="1.13104">
        <ele>185.097251</ele>
        <time>2022-08-01T07:42:45.501Z</time>
      </trkpt>
      <trkpt lat="44.26558" lon="1.1309">
        <ele>185.402373</ele>
        <time>2022-08-01T07:42:49.496Z</time>
      </trkpt>
      <trkpt lat="44.26556" lon="1.13076">
        <ele>185.669101</ele>
        <time>2022-08-01T07:42:53.536Z</time>
      </trkpt>
      <trkpt lat="44.26557" lon="1.1306">
        <ele>185.991106</ele>
        <time>2022-08-01T07:42:57.502Z</time>
      </trkpt>
      <trkpt lat="44.26559" lon="1.13047">
        <ele>186.244725</ele>
        <time>2022-08-01T07:43:00.489Z</time>
      </trkpt>
      <trkpt lat="44.26561" lon="1.13034">
        <ele>186.503588</ele>
        <time>2022-08-01T07:43:03.489Z</time>
      </trkpt>
      <trkpt lat="44.26563" lon="1.13019">
        <ele>186.815265</ele>
        <time>2022-08-01T07:43:06.492Z</time>
      </trkpt>
      <trkpt lat="44.26564" lon="1.13004">
        <ele>187.804442</ele>
        <time>2022-08-01T07:43:09.494Z</time>
      </trkpt>
      <trkpt lat="44.26565" lon="1.12991">
        <ele>189.197606</ele>
        <time>2022-08-01T07:43:12.503Z</time>
      </trkpt>
      <trkpt lat="44.26568" lon="1.12978">
        <ele>190.516132</ele>
        <time>2022-08-01T07:43:15.500Z</time>
      </trkpt>
      <trkpt lat="44.2657" lon="1.12964">
        <ele>192.000565</ele>
        <time>2022-08-01T07:43:19.492Z</time>
      </trkpt>
      <trkpt lat="44.26571" lon="1.12951">
        <ele>193.352892</ele>
        <time>2022-08-01T07:43:23.522Z</time>
      </trkpt>
      <trkpt lat="44.26572" lon="1.12937">
        <ele>194.822378</ele>
        <time>2022-08-01T07:43:27.492Z</time>
      </trkpt>
      <trkpt lat="44.26574" lon="1.12924">
        <ele>196.222601</ele>
        <time>2022-08-01T07:43:30.501Z</time>
      </trkpt>
      <trkpt lat="44.26575" lon="1.12908">
        <ele>197.824543</ele>
        <time>2022-08-01T07:43:33.498Z</time>
      </trkpt>
      <trkpt lat="44.26574" lon="1.12895">
        <ele>199.215046</ele>
        <time>2022-08-01T07:43:36.493Z</time>
      </trkpt>
      <trkpt lat="44.26572" lon="1.12882">
        <ele>200.525811</ele>
        <time>2022-08-01T07:43:39.488Z</time>
      </trkpt>
      <trkpt lat="44.26567" lon="1.12871">
        <ele>201.871021</ele>
        <time>2022-08-01T07:43:42.489Z</time>
      </trkpt>
      <trkpt lat="44.26561" lon="1.12861">
        <ele>203.216039</ele>
        <time>2022-08-01T07:43:45.491Z</time>
      </trkpt>
      <trkpt lat="44.26553" lon="1.12851">
        <ele>204.770254</ele>
        <time>2022-08-01T07:43:49.498Z</time>
      </trkpt>
      <trkpt lat="44.26544" lon="1.12849">
        <ele>206.09408</ele>
        <time>2022-08-01T07:43:54.493Z</time>
      </trkpt>
      <trkpt lat="44.26534" lon="1.12845">
        <ele>207.544058</ele>
        <time>2022-08-01T07:43:58.489Z</time>
      </trkpt>
      <trkpt lat="44.26523" lon="1.1284">
        <ele>209.219079</ele>
        <time>2022-08-01T07:44:02.479Z</time>
      </trkpt>
      <trkpt lat="44.26514" lon="1.12836">
        <ele>210.596158</ele>
        <time>2022-08-01T07:44:05.522Z</time>
      </trkpt>
      <trkpt lat="44.26503" lon="1.12828">
        <ele>212.298147</ele>
        <time>2022-08-01T07:44:09.496Z</time>
      </trkpt>
      <trkpt lat="44.26495" lon="1.12817">
        <ele>212.613539</ele>
        <time>2022-08-01T07:44:13.489Z</time>
      </trkpt>
      <trkpt lat="44.26489" lon="1.12807">
        <ele>212.501612</ele>
        <time>2022-08-01T07:44:16.502Z</time>
      </trkpt>
      <trkpt lat="44.26483" lon="1.12796">
        <ele>212.390655</ele>
        <time>2022-08-01T07:44:19.500Z</time>
      </trkpt>
      <trkpt lat="44.26479" lon="1.12784">
        <ele>212.278132</ele>
        <time>2022-08-01T07:44:22.481Z</time>
      </trkpt>
      <trkpt lat="44.26474" lon="1.12772">
        <ele>212.156511</ele>
        <time>2022-08-01T07:44:26.502Z</time>
      </trkpt>
      <trkpt lat="44.26471" lon="1.12757">
        <ele>212.022804</ele>
        <time>2022-08-01T07:44:30.502Z</time>
      </trkpt>
      <trkpt lat="44.26468" lon="1.12742">
        <ele>211.892543</ele>
        <time>2022-08-01T07:44:34.505Z</time>
      </trkpt>
      <trkpt lat="44.26465" lon="1.12728">
        <ele>211.765275</ele>
        <time>2022-08-01T07:44:38.496Z</time>
      </trkpt>
      <trkpt lat="44.26463" lon="1.12712">
        <ele>211.627559</ele>
        <time>2022-08-01T07:44:42.478Z</time>
      </trkpt>
      <trkpt lat="44.26461" lon="1.12698">
        <ele>211.511378</ele>
        <time>2022-08-01T07:44:45.494Z</time>
      </trkpt>
      <trkpt lat="44.2646" lon="1.12685">
        <ele>211.396042</ele>
        <time>2022-08-01T07:44:48.482Z</time>
      </trkpt>
      <trkpt lat="44.26458" lon="1.12669">
        <ele>211.254568</ele>
        <time>2022-08-01T07:44:52.497Z</time>
      </trkpt>
      <trkpt lat="44.26455" lon="1.12653">
        <ele>211.113372</ele>
        <time>2022-08-01T07:44:56.492Z</time>
      </trkpt>
      <trkpt lat="44.2645" lon="1.1264">
        <ele>210.986341</ele>
        <time>2022-08-01T07:45:00.496Z</time>
      </trkpt>
      <trkpt lat="44.26446" lon="1.12626">
        <ele>210.860017</ele>
        <time>2022-08-01T07:45:04.490Z</time>
      </trkpt>
      <trkpt lat="44.26439" lon="1.12615">
        <ele>210.743366</ele>
        <time>2022-08-01T07:45:08.483Z</time>
      </trkpt>
      <trkpt lat="44.26432" lon="1.12606">
        <ele>210.621308</ele>
        <time>2022-08-01T07:45:12.497Z</time>
      </trkpt>
      <trkpt lat="44.26425" lon="1.12594">
        <ele>211.550641</ele>
        <time>2022-08-01T07:45:16.495Z</time>
      </trkpt>
      <trkpt lat="44.2642" lon="1.12584">
        <ele>212.822483</ele>
        <time>2022-08-01T07:45:19.494Z</time>
      </trkpt>
      <trkpt lat="44.26413" lon="1.12573">
        <ele>214.280733</ele>
        <time>2022-08-01T07:45:23.534Z</time>
      </trkpt>
      <trkpt lat="44.26406" lon="1.12562">
        <ele>215.707639</ele>
        <time>2022-08-01T07:45:27.470Z</time>
      </trkpt>
      <trkpt lat="44.264" lon="1.12548">
        <ele>217.333199</ele>
        <time>2022-08-01T07:45:31.509Z</time>
      </trkpt>
      <trkpt lat="44.26395" lon="1.12534">
        <ele>218.860904</ele>
        <time>2022-08-01T07:45:34.521Z</time>
      </trkpt>
      <trkpt lat="44.26392" lon="1.12521">
        <ele>220.285898</ele>
        <time>2022-08-01T07:45:37.501Z</time>
      </trkpt>
      <trkpt lat="44.2639" lon="1.12507">
        <ele>221.724668</ele>
        <time>2022-08-01T07:45:40.524Z</time>
      </trkpt>
      <trkpt lat="44.2639" lon="1.12493">
        <ele>223.141406</ele>
        <time>2022-08-01T07:45:43.499Z</time>
      </trkpt>
      <trkpt lat="44.2639" lon="1.12479">
        <ele>224.557244</ele>
        <time>2022-08-01T07:45:46.490Z</time>
      </trkpt>
      <trkpt lat="44.26392" lon="1.12465">
        <ele>225.90683</ele>
        <time>2022-08-01T07:45:49.503Z</time>
      </trkpt>
      <trkpt lat="44.26394" lon="1.12452">
        <ele>227.239645</ele>
        <time>2022-08-01T07:45:53.491Z</time>
      </trkpt>
      <trkpt lat="44.26398" lon="1.12438">
        <ele>228.849959</ele>
        <time>2022-08-01T07:45:58.475Z</time>
      </trkpt>
      <trkpt lat="44.26403" lon="1.12425">
        <ele>230.239983</ele>
        <time>2022-08-01T07:46:01.498Z</time>
      </trkpt>
      <trkpt lat="44.26407" lon="1.12412">
        <ele>231.671297</ele>
        <time>2022-08-01T07:46:04.486Z</time>
      </trkpt>
      <trkpt lat="44.26411" lon="1.124">
        <ele>233.042286</ele>
        <time>2022-08-01T07:46:09.532Z</time>
      </trkpt>
      <trkpt lat="44.26415" lon="1.12386">
        <ele>234.521376</ele>
        <time>2022-08-01T07:46:15.543Z</time>
      </trkpt>
      <trkpt lat="44.26421" lon="1.12372">
        <ele>236.017048</ele>
        <time>2022-08-01T07:46:20.497Z</time>
      </trkpt>
      <trkpt lat="44.26427" lon="1.12359">
        <ele>237.283882</ele>
        <time>2022-08-01T07:46:25.517Z</time>
      </trkpt>
      <trkpt lat="44.26431" lon="1.12345">
        <ele>238.513825</ele>
        <time>2022-08-01T07:46:28.501Z</time>
      </trkpt>
      <trkpt lat="44.26432" lon="1.12329">
        <ele>239.77157</ele>
        <time>2022-08-01T07:46:32.487Z</time>
      </trkpt>
      <trkpt lat="44.26434" lon="1.12315">
        <ele>240.867842</ele>
        <time>2022-08-01T07:46:37.497Z</time>
      </trkpt>
      <trkpt lat="44.26441" lon="1.12304">
        <ele>242.04598</ele>
        <time>2022-08-01T07:46:40.507Z</time>
      </trkpt>
      <trkpt lat="44.26451" lon="1.12296">
        <ele>243.306418</ele>
        <time>2022-08-01T07:46:44.487Z</time>
      </trkpt>
      <trkpt lat="44.26461" lon="1.12293">
        <ele>244.46392</ele>
        <time>2022-08-01T07:46:47.502Z</time>
      </trkpt>
      <trkpt lat="44.26469" lon="1.12287">
        <ele>245.512782</ele>
        <time>2022-08-01T07:46:50.501Z</time>
      </trkpt>
      <trkpt lat="44.26476" lon="1.12275">
        <ele>246.752609</ele>
        <time>2022-08-01T07:46:54.493Z</time>
      </trkpt>
      <trkpt lat="44.26483" lon="1.12266">
        <ele>247.818841</ele>
        <time>2022-08-01T07:47:00.503Z</time>
      </trkpt>
      <trkpt lat="44.26493" lon="1.12259">
        <ele>249.008882</ele>
        <time>2022-08-01T07:47:04.501Z</time>
      </trkpt>
      <trkpt lat="44.26503" lon="1.12252">
        <ele>250.246107</ele>
        <time>2022-08-01T07:47:08.504Z</time>
      </trkpt>
      <trkpt lat="44.26512" lon="1.12248">
        <ele>251.348315</ele>
        <time>2022-08-01T07:47:11.502Z</time>
      </trkpt>
      <trkpt lat="44.26522" lon="1.12245">
        <ele>252.491461</ele>
        <time>2022-08-01T07:47:14.493Z</time>
      </trkpt>
      <trkpt lat="44.2653" lon="1.12235">
        <ele>253.630783</ele>
        <time>2022-08-01T07:47:19.489Z</time>
      </trkpt>
      <trkpt lat="44.2654" lon="1.12229">
        <ele>254.803969</ele>
        <time>2022-08-01T07:47:22.492Z</time>
      </trkpt>
      <trkpt lat="44.2655" lon="1.12223">
        <ele>255.833231</ele>
        <time>2022-08-01T07:47:25.499Z</time>
      </trkpt>
      <trkpt lat="44.26557" lon="1.12215">
        <ele>256.274508</ele>
        <time>2022-08-01T07:47:28.499Z</time>
      </trkpt>
      <trkpt lat="44.26565" lon="1.12205">
        <ele>256.772743</ele>
        <time>2022-08-01T07:47:32.502Z</time>
      </trkpt>
      <trkpt lat="44.26574" lon="1.12197">
        <ele>257.29627</ele>
        <time>2022-08-01T07:47:36.480Z</time>
      </trkpt>
      <trkpt lat="44.26586" lon="1.12191">
        <ele>257.884382</ele>
        <time>2022-08-01T07:47:39.531Z</time>
      </trkpt>
      <trkpt lat="44.26596" lon="1.12186">
        <ele>258.362435</ele>
        <time>2022-08-01T07:47:42.500Z</time>
      </trkpt>
      <trkpt lat="44.26606" lon="1.12183">
        <ele>258.855596</ele>
        <time>2022-08-01T07:47:46.488Z</time>
      </trkpt>
      <trkpt lat="44.26616" lon="1.12179">
        <ele>259.361099</ele>
        <time>2022-08-01T07:47:51.532Z</time>
      </trkpt>
      <trkpt lat="44.26623" lon="1.12169">
        <ele>259.836078</ele>
        <time>2022-08-01T07:47:56.506Z</time>
      </trkpt>
      <trkpt lat="44.26631" lon="1.12161">
        <ele>260.271083</ele>
        <time>2022-08-01T07:48:00.505Z</time>
      </trkpt>
      <trkpt lat="44.26637" lon="1.12151">
        <ele>260.753617</ele>
        <time>2022-08-01T07:48:04.496Z</time>
      </trkpt>
      <trkpt lat="44.26644" lon="1.12138">
        <ele>261.291508</ele>
        <time>2022-08-01T07:48:09.533Z</time>
      </trkpt>
      <trkpt lat="44.26655" lon="1.12128">
        <ele>261.886376</ele>
        <time>2022-08-01T07:48:12.500Z</time>
      </trkpt>
      <trkpt lat="44.26663" lon="1.12122">
        <ele>262.326223</ele>
        <time>2022-08-01T07:48:16.505Z</time>
      </trkpt>
      <trkpt lat="44.26669" lon="1.1211">
        <ele>262.839098</ele>
        <time>2022-08-01T07:48:20.504Z</time>
      </trkpt>
      <trkpt lat="44.26675" lon="1.12098">
        <ele>263.333262</ele>
        <time>2022-08-01T07:48:23.494Z</time>
      </trkpt>
      <trkpt lat="44.26684" lon="1.12085">
        <ele>263.92877</ele>
        <time>2022-08-01T07:48:26.499Z</time>
      </trkpt>
      <trkpt lat="44.26692" lon="1.12075">
        <ele>264.154134</ele>
        <time>2022-08-01T07:48:29.501Z</time>
      </trkpt>
      <trkpt lat="44.26699" lon="1.12065">
        <ele>264.132863</ele>
        <time>2022-08-01T07:48:31.480Z</time>
      </trkpt>
      <trkpt lat="44.26708" lon="1.12054">
        <ele>264.105697</ele>
        <time>2022-08-01T07:48:34.489Z</time>
      </trkpt>
      <trkpt lat="44.26716" lon="1.12043">
        <ele>264.080886</ele>
        <time>2022-08-01T07:48:38.496Z</time>
      </trkpt>
      <trkpt lat="44.26726" lon="1.12035">
        <ele>264.055678</ele>
        <time>2022-08-01T07:48:41.502Z</time>
      </trkpt>
      <trkpt lat="44.26734" lon="1.12027">
        <ele>264.031948</ele>
        <time>2022-08-01T07:48:44.501Z</time>
      </trkpt>
      <trkpt lat="44.26739" lon="1.12014">
        <ele>264.009808</ele>
        <time>2022-08-01T07:48:47.504Z</time>
      </trkpt>
      <trkpt lat="44.26744" lon="1.12002">
        <ele>263.987702</ele>
        <time>2022-08-01T07:48:50.494Z</time>
      </trkpt>
      <trkpt lat="44.26748" lon="1.11989">
        <ele>263.964724</ele>
        <time>2022-08-01T07:48:53.491Z</time>
      </trkpt>
      <trkpt lat="44.26755" lon="1.11978">
        <ele>263.940917</ele>
        <time>2022-08-01T07:48:56.502Z</time>
      </trkpt>
      <trkpt lat="44.26759" lon="1.11966">
        <ele>263.920417</ele>
        <time>2022-08-01T07:49:00.487Z</time>
      </trkpt>
      <trkpt lat="44.26768" lon="1.11963">
        <ele>263.899752</ele>
        <time>2022-08-01T07:49:03.525Z</time>
      </trkpt>
      <trkpt lat="44.26776" lon="1.11955">
        <ele>263.878946</ele>
        <time>2022-08-01T07:49:08.505Z</time>
      </trkpt>
      <trkpt lat="44.2678" lon="1.11941">
        <ele>263.854431</ele>
        <time>2022-08-01T07:49:11.500Z</time>
      </trkpt>
      <trkpt lat="44.26787" lon="1.11931">
        <ele>263.833143</ele>
        <time>2022-08-01T07:49:13.489Z</time>
      </trkpt>
      <trkpt lat="44.26797" lon="1.1192">
        <ele>263.80516</ele>
        <time>2022-08-01T07:49:16.498Z</time>
      </trkpt>
      <trkpt lat="44.26805" lon="1.11911">
        <ele>263.781759</ele>
        <time>2022-08-01T07:49:19.498Z</time>
      </trkpt>
      <trkpt lat="44.26812" lon="1.11897">
        <ele>263.954848</ele>
        <time>2022-08-01T07:49:23.496Z</time>
      </trkpt>
      <trkpt lat="44.26813" lon="1.11883">
        <ele>264.317672</ele>
        <time>2022-08-01T07:49:30.503Z</time>
      </trkpt>
      <trkpt lat="44.26817" lon="1.11871">
        <ele>264.632484</ele>
        <time>2022-08-01T07:49:34.493Z</time>
      </trkpt>
      <trkpt lat="44.26823" lon="1.11857">
        <ele>265.01873</ele>
        <time>2022-08-01T07:49:38.507Z</time>
      </trkpt>
      <trkpt lat="44.2683" lon="1.11843">
        <ele>265.418679</ele>
        <time>2022-08-01T07:49:42.494Z</time>
      </trkpt>
      <trkpt lat="44.26834" lon="1.1183">
        <ele>265.77415</ele>
        <time>2022-08-01T07:49:45.551Z</time>
      </trkpt>
      <trkpt lat="44.26836" lon="1.11816">
        <ele>266.117748</ele>
        <time>2022-08-01T07:49:48.482Z</time>
      </trkpt>
      <trkpt lat="44.26834" lon="1.11797">
        <ele>266.57906</ele>
        <time>2022-08-01T07:49:52.509Z</time>
      </trkpt>
      <trkpt lat="44.26833" lon="1.11783">
        <ele>266.919924</ele>
        <time>2022-08-01T07:49:55.499Z</time>
      </trkpt>
      <trkpt lat="44.2683" lon="1.1177">
        <ele>267.240025</ele>
        <time>2022-08-01T07:49:58.491Z</time>
      </trkpt>
      <trkpt lat="44.26826" lon="1.11757">
        <ele>267.586582</ele>
        <time>2022-08-01T07:50:02.496Z</time>
      </trkpt>
      <trkpt lat="44.26822" lon="1.11746">
        <ele>267.893583</ele>
        <time>2022-08-01T07:50:06.480Z</time>
      </trkpt>
      <trkpt lat="44.26815" lon="1.11735">
        <ele>268.243999</ele>
        <time>2022-08-01T07:50:11.503Z</time>
      </trkpt>
      <trkpt lat="44.26807" lon="1.11725">
        <ele>268.589086</ele>
        <time>2022-08-01T07:50:16.522Z</time>
      </trkpt>
      <trkpt lat="44.268" lon="1.11718">
        <ele>268.905218</ele>
        <time>2022-08-01T07:50:20.506Z</time>
      </trkpt>
      <trkpt lat="44.26792" lon="1.11711">
        <ele>269.214476</ele>
        <time>2022-08-01T07:50:23.492Z</time>
      </trkpt>
      <trkpt lat="44.26784" lon="1.11701">
        <ele>269.584123</ele>
        <time>2022-08-01T07:50:26.478Z</time>
      </trkpt>
      <trkpt lat="44.26779" lon="1.11689">
        <ele>269.824863</ele>
        <time>2022-08-01T07:50:29.494Z</time>
      </trkpt>
      <trkpt lat="44.26779" lon="1.11674">
        <ele>269.82518</ele>
        <time>2022-08-01T07:50:32.507Z</time>
      </trkpt>
      <trkpt lat="44.26781" lon="1.1166">
        <ele>269.825489</ele>
        <time>2022-08-01T07:50:35.490Z</time>
      </trkpt>
      <trkpt lat="44.26788" lon="1.11651">
        <ele>269.825779</ele>
        <time>2022-08-01T07:50:38.491Z</time>
      </trkpt>
      <trkpt lat="44.26795" lon="1.11642">
        <ele>269.826066</ele>
        <time>2022-08-01T07:50:41.494Z</time>
      </trkpt>
      <trkpt lat="44.26802" lon="1.11634">
        <ele>269.826345</ele>
        <time>2022-08-01T07:50:44.448Z</time>
      </trkpt>
      <trkpt lat="44.26812" lon="1.11624">
        <ele>269.826709</ele>
        <time>2022-08-01T07:50:48.482Z</time>
      </trkpt>
      <trkpt lat="44.2682" lon="1.11616">
        <ele>269.827016</ele>
        <time>2022-08-01T07:50:51.513Z</time>
      </trkpt>
      <trkpt lat="44.26831" lon="1.11607">
        <ele>269.827389</ele>
        <time>2022-08-01T07:50:55.487Z</time>
      </trkpt>
      <trkpt lat="44.2684" lon="1.116">
        <ele>269.827704</ele>
        <time>2022-08-01T07:50:58.489Z</time>
      </trkpt>
      <trkpt lat="44.26849" lon="1.11595">
        <ele>269.828002</ele>
        <time>2022-08-01T07:51:01.487Z</time>
      </trkpt>
      <trkpt lat="44.26859" lon="1.11592">
        <ele>269.828295</ele>
        <time>2022-08-01T07:51:04.481Z</time>
      </trkpt>
      <trkpt lat="44.26868" lon="1.11589">
        <ele>269.828586</ele>
        <time>2022-08-01T07:51:07.482Z</time>
      </trkpt>
      <trkpt lat="44.26879" lon="1.11586">
        <ele>269.828908</ele>
        <time>2022-08-01T07:51:10.496Z</time>
      </trkpt>
      <trkpt lat="44.26889" lon="1.11581">
        <ele>269.829229</ele>
        <time>2022-08-01T07:51:13.500Z</time>
      </trkpt>
      <trkpt lat="44.269" lon="1.11576">
        <ele>269.829571</ele>
        <time>2022-08-01T07:51:16.492Z</time>
      </trkpt>
      <trkpt lat="44.26909" lon="1.11571">
        <ele>269.829858</ele>
        <time>2022-08-01T07:51:18.507Z</time>
      </trkpt>
      <trkpt lat="44.26917" lon="1.11565">
        <ele>269.830156</ele>
        <time>2022-08-01T07:51:20.497Z</time>
      </trkpt>
      <trkpt lat="44.26928" lon="1.11553">
        <ele>269.715301</ele>
        <time>2022-08-01T07:51:22.493Z</time>
      </trkpt>
      <trkpt lat="44.26936" lon="1.11544">
        <ele>269.628941</ele>
        <time>2022-08-01T07:51:24.488Z</time>
      </trkpt>
      <trkpt lat="44.26945" lon="1.11533">
        <ele>269.514702</ele>
        <time>2022-08-01T07:51:26.477Z</time>
      </trkpt>
      <trkpt lat="44.26953" lon="1.11522">
        <ele>269.416637</ele>
        <time>2022-08-01T07:51:28.510Z</time>
      </trkpt>
      <trkpt lat="44.2696" lon="1.11509">
        <ele>269.310292</ele>
        <time>2022-08-01T07:51:30.495Z</time>
      </trkpt>
      <trkpt lat="44.26968" lon="1.11498">
        <ele>269.207682</ele>
        <time>2022-08-01T07:51:32.498Z</time>
      </trkpt>
      <trkpt lat="44.26976" lon="1.11488">
        <ele>269.109558</ele>
        <time>2022-08-01T07:51:34.490Z</time>
      </trkpt>
      <trkpt lat="44.26984" lon="1.11478">
        <ele>269.014091</ele>
        <time>2022-08-01T07:51:36.483Z</time>
      </trkpt>
      <trkpt lat="44.26992" lon="1.11468">
        <ele>268.914607</ele>
        <time>2022-08-01T07:51:38.500Z</time>
      </trkpt>
      <trkpt lat="44.26998" lon="1.11456">
        <ele>268.81766</ele>
        <time>2022-08-01T07:51:40.507Z</time>
      </trkpt>
      <trkpt lat="44.27006" lon="1.11444">
        <ele>268.710612</ele>
        <time>2022-08-01T07:51:42.504Z</time>
      </trkpt>
      <trkpt lat="44.27011" lon="1.11431">
        <ele>268.614162</ele>
        <time>2022-08-01T07:51:44.498Z</time>
      </trkpt>
      <trkpt lat="44.27018" lon="1.11418">
        <ele>268.511348</ele>
        <time>2022-08-01T07:51:46.488Z</time>
      </trkpt>
      <trkpt lat="44.27024" lon="1.11407">
        <ele>268.420082</ele>
        <time>2022-08-01T07:51:48.479Z</time>
      </trkpt>
      <trkpt lat="44.2703" lon="1.11394">
        <ele>268.319179</ele>
        <time>2022-08-01T07:51:50.493Z</time>
      </trkpt>
      <trkpt lat="44.27036" lon="1.11376">
        <ele>268.194132</ele>
        <time>2022-08-01T07:51:52.487Z</time>
      </trkpt>
      <trkpt lat="44.27043" lon="1.11361">
        <ele>268.209409</ele>
        <time>2022-08-01T07:51:54.493Z</time>
      </trkpt>
      <trkpt lat="44.27048" lon="1.11344">
        <ele>268.225105</ele>
        <time>2022-08-01T07:51:56.492Z</time>
      </trkpt>
      <trkpt lat="44.27054" lon="1.11328">
        <ele>268.240725</ele>
        <time>2022-08-01T07:51:58.477Z</time>
      </trkpt>
      <trkpt lat="44.27061" lon="1.1131">
        <ele>268.257931</ele>
        <time>2022-08-01T07:52:00.484Z</time>
      </trkpt>
      <trkpt lat="44.27068" lon="1.11294">
        <ele>268.274516</ele>
        <time>2022-08-01T07:52:02.476Z</time>
      </trkpt>
      <trkpt lat="44.27075" lon="1.11275">
        <ele>268.292387</ele>
        <time>2022-08-01T07:52:04.499Z</time>
      </trkpt>
      <trkpt lat="44.27083" lon="1.11258">
        <ele>268.310284</ele>
        <time>2022-08-01T07:52:06.489Z</time>
      </trkpt>
      <trkpt lat="44.27089" lon="1.11244">
        <ele>268.324085</ele>
        <time>2022-08-01T07:52:08.492Z</time>
      </trkpt>
      <trkpt lat="44.27096" lon="1.11233">
        <ele>268.336604</ele>
        <time>2022-08-01T07:52:10.499Z</time>
      </trkpt>
      <trkpt lat="44.27102" lon="1.11219">
        <ele>268.350742</ele>
        <time>2022-08-01T07:52:12.481Z</time>
      </trkpt>
      <trkpt lat="44.27109" lon="1.11208">
        <ele>268.363254</ele>
        <time>2022-08-01T07:52:14.499Z</time>
      </trkpt>
      <trkpt lat="44.27117" lon="1.11193">
        <ele>268.378985</ele>
        <time>2022-08-01T07:52:16.499Z</time>
      </trkpt>
      <trkpt lat="44.27124" lon="1.1118">
        <ele>268.393466</ele>
        <time>2022-08-01T07:52:18.500Z</time>
      </trkpt>
      <trkpt lat="44.27132" lon="1.11165">
        <ele>268.410245</ele>
        <time>2022-08-01T07:52:20.502Z</time>
      </trkpt>
      <trkpt lat="44.27139" lon="1.11152">
        <ele>268.671206</ele>
        <time>2022-08-01T07:52:22.508Z</time>
      </trkpt>
      <trkpt lat="44.27146" lon="1.11139">
        <ele>268.954265</ele>
        <time>2022-08-01T07:52:24.499Z</time>
      </trkpt>
      <trkpt lat="44.27153" lon="1.11124">
        <ele>269.237515</ele>
        <time>2022-08-01T07:52:26.494Z</time>
      </trkpt>
      <trkpt lat="44.2716" lon="1.1111">
        <ele>269.517833</ele>
        <time>2022-08-01T07:52:28.490Z</time>
      </trkpt>
      <trkpt lat="44.27167" lon="1.11097">
        <ele>269.780892</ele>
        <time>2022-08-01T07:52:30.503Z</time>
      </trkpt>
      <trkpt lat="44.27173" lon="1.11084">
        <ele>270.044704</ele>
        <time>2022-08-01T07:52:32.500Z</time>
      </trkpt>
      <trkpt lat="44.27178" lon="1.11071">
        <ele>270.281736</ele>
        <time>2022-08-01T07:52:34.491Z</time>
      </trkpt>
      <trkpt lat="44.27184" lon="1.11058">
        <ele>270.534118</ele>
        <time>2022-08-01T07:52:36.489Z</time>
      </trkpt>
      <trkpt lat="44.27188" lon="1.11046">
        <ele>270.757913</ele>
        <time>2022-08-01T07:52:38.500Z</time>
      </trkpt>
      <trkpt lat="44.27191" lon="1.11033">
        <ele>270.986653</ele>
        <time>2022-08-01T07:52:40.469Z</time>
      </trkpt>
      <trkpt lat="44.27195" lon="1.11021">
        <ele>271.19695</ele>
        <time>2022-08-01T07:52:42.505Z</time>
      </trkpt>
      <trkpt lat="44.27198" lon="1.11006">
        <ele>271.441292</ele>
        <time>2022-08-01T07:52:44.518Z</time>
      </trkpt>
      <trkpt lat="44.27201" lon="1.10991">
        <ele>271.69819</ele>
        <time>2022-08-01T07:52:46.488Z</time>
      </trkpt>
      <trkpt lat="44.27204" lon="1.10978">
        <ele>271.923316</ele>
        <time>2022-08-01T07:52:49.520Z</time>
      </trkpt>
      <trkpt lat="44.27208" lon="1.10961">
        <ele>272.219304</ele>
        <time>2022-08-01T07:52:52.502Z</time>
      </trkpt>
      <trkpt lat="44.27211" lon="1.10949">
        <ele>272.432562</ele>
        <time>2022-08-01T07:52:54.499Z</time>
      </trkpt>
      <trkpt lat="44.27213" lon="1.10932">
        <ele>272.418773</ele>
        <time>2022-08-01T07:52:57.529Z</time>
      </trkpt>
      <trkpt lat="44.27216" lon="1.10917">
        <ele>272.259231</ele>
        <time>2022-08-01T07:53:00.491Z</time>
      </trkpt>
      <trkpt lat="44.27217" lon="1.10903">
        <ele>272.119762</ele>
        <time>2022-08-01T07:53:03.535Z</time>
      </trkpt>
      <trkpt lat="44.27221" lon="1.10888">
        <ele>271.957287</ele>
        <time>2022-08-01T07:53:06.490Z</time>
      </trkpt>
      <trkpt lat="44.27224" lon="1.10876">
        <ele>271.828011</ele>
        <time>2022-08-01T07:53:08.496Z</time>
      </trkpt>
      <trkpt lat="44.27228" lon="1.10862">
        <ele>271.666845</ele>
        <time>2022-08-01T07:53:10.497Z</time>
      </trkpt>
      <trkpt lat="44.27233" lon="1.1085">
        <ele>271.525627</ele>
        <time>2022-08-01T07:53:12.493Z</time>
      </trkpt>
      <trkpt lat="44.27237" lon="1.10837">
        <ele>271.382675</ele>
        <time>2022-08-01T07:53:14.504Z</time>
      </trkpt>
      <trkpt lat="44.27242" lon="1.10821">
        <ele>271.20801</ele>
        <time>2022-08-01T07:53:16.496Z</time>
      </trkpt>
      <trkpt lat="44.27248" lon="1.10806">
        <ele>271.034187</ele>
        <time>2022-08-01T07:53:18.498Z</time>
      </trkpt>
      <trkpt lat="44.27254" lon="1.10786">
        <ele>270.814696</ele>
        <time>2022-08-01T07:53:20.500Z</time>
      </trkpt>
      <trkpt lat="44.27257" lon="1.10774">
        <ele>270.684122</ele>
        <time>2022-08-01T07:53:21.518Z</time>
      </trkpt>
      <trkpt lat="44.27263" lon="1.10755">
        <ele>270.464239</ele>
        <time>2022-08-01T07:53:23.496Z</time>
      </trkpt>
      <trkpt lat="44.27269" lon="1.10734">
        <ele>270.237205</ele>
        <time>2022-08-01T07:53:25.501Z</time>
      </trkpt>
      <trkpt lat="44.27273" lon="1.1071">
        <ele>269.988947</ele>
        <time>2022-08-01T07:53:27.514Z</time>
      </trkpt>
      <trkpt lat="44.27278" lon="1.10687">
        <ele>269.623783</ele>
        <time>2022-08-01T07:53:29.495Z</time>
      </trkpt>
      <trkpt lat="44.27282" lon="1.10664">
        <ele>269.256741</ele>
        <time>2022-08-01T07:53:31.481Z</time>
      </trkpt>
      <trkpt lat="44.27283" lon="1.1065">
        <ele>269.043931</ele>
        <time>2022-08-01T07:53:32.482Z</time>
      </trkpt>
      <trkpt lat="44.27283" lon="1.10636">
        <ele>268.827583</ele>
        <time>2022-08-01T07:53:33.518Z</time>
      </trkpt>
      <trkpt lat="44.27286" lon="1.10622">
        <ele>268.60533</ele>
        <time>2022-08-01T07:53:34.491Z</time>
      </trkpt>
      <trkpt lat="44.27284" lon="1.10607">
        <ele>268.365436</ele>
        <time>2022-08-01T07:53:35.495Z</time>
      </trkpt>
      <trkpt lat="44.27284" lon="1.10593">
        <ele>268.150536</ele>
        <time>2022-08-01T07:53:36.488Z</time>
      </trkpt>
      <trkpt lat="44.27284" lon="1.10578">
        <ele>267.918643</ele>
        <time>2022-08-01T07:53:37.488Z</time>
      </trkpt>
      <trkpt lat="44.27284" lon="1.10564">
        <ele>267.696103</ele>
        <time>2022-08-01T07:53:38.504Z</time>
      </trkpt>
      <trkpt lat="44.27284" lon="1.10549">
        <ele>267.468927</ele>
        <time>2022-08-01T07:53:39.538Z</time>
      </trkpt>
      <trkpt lat="44.27287" lon="1.10527">
        <ele>267.117032</ele>
        <time>2022-08-01T07:53:41.503Z</time>
      </trkpt>
      <trkpt lat="44.27293" lon="1.10504">
        <ele>266.750232</ele>
        <time>2022-08-01T07:53:43.512Z</time>
      </trkpt>
      <trkpt lat="44.27304" lon="1.10485">
        <ele>266.366889</ele>
        <time>2022-08-01T07:53:45.524Z</time>
      </trkpt>
      <trkpt lat="44.27313" lon="1.10474">
        <ele>266.11097</ele>
        <time>2022-08-01T07:53:46.502Z</time>
      </trkpt>
      <trkpt lat="44.27323" lon="1.10464">
        <ele>266.063156</ele>
        <time>2022-08-01T07:53:47.499Z</time>
      </trkpt>
      <trkpt lat="44.2733" lon="1.10454">
        <ele>266.041507</ele>
        <time>2022-08-01T07:53:48.481Z</time>
      </trkpt>
      <trkpt lat="44.27338" lon="1.10445">
        <ele>266.02099</ele>
        <time>2022-08-01T07:53:49.493Z</time>
      </trkpt>
      <trkpt lat="44.27349" lon="1.10442">
        <ele>265.997561</ele>
        <time>2022-08-01T07:53:50.497Z</time>
      </trkpt>
      <trkpt lat="44.27358" lon="1.10437">
        <ele>265.977394</ele>
        <time>2022-08-01T07:53:51.521Z</time>
      </trkpt>
      <trkpt lat="44.27373" lon="1.10423">
        <ele>265.93956</ele>
        <time>2022-08-01T07:53:53.513Z</time>
      </trkpt>
      <trkpt lat="44.2738" lon="1.10416">
        <ele>265.920728</ele>
        <time>2022-08-01T07:53:54.510Z</time>
      </trkpt>
      <trkpt lat="44.27392" lon="1.10398">
        <ele>265.88418</ele>
        <time>2022-08-01T07:53:56.481Z</time>
      </trkpt>
      <trkpt lat="44.27395" lon="1.10385">
        <ele>265.864111</ele>
        <time>2022-08-01T07:53:57.527Z</time>
      </trkpt>
      <trkpt lat="44.274" lon="1.10373">
        <ele>265.843188</ele>
        <time>2022-08-01T07:53:58.513Z</time>
      </trkpt>
      <trkpt lat="44.27403" lon="1.10357">
        <ele>265.818498</ele>
        <time>2022-08-01T07:53:59.499Z</time>
      </trkpt>
      <trkpt lat="44.2741" lon="1.10345">
        <ele>265.795161</ele>
        <time>2022-08-01T07:54:00.502Z</time>
      </trkpt>
      <trkpt lat="44.27415" lon="1.10333">
        <ele>265.774352</ele>
        <time>2022-08-01T07:54:01.489Z</time>
      </trkpt>
      <trkpt lat="44.27421" lon="1.1032">
        <ele>265.751987</ele>
        <time>2022-08-01T07:54:02.483Z</time>
      </trkpt>
      <trkpt lat="44.27427" lon="1.10309">
        <ele>265.731201</ele>
        <time>2022-08-01T07:54:03.506Z</time>
      </trkpt>
      <trkpt lat="44.27433" lon="1.10297">
        <ele>265.655354</ele>
        <time>2022-08-01T07:54:04.497Z</time>
      </trkpt>
      <trkpt lat="44.27439" lon="1.10283">
        <ele>264.958176</ele>
        <time>2022-08-01T07:54:05.483Z</time>
      </trkpt>
      <trkpt lat="44.27445" lon="1.10271">
        <ele>264.347599</ele>
        <time>2022-08-01T07:54:06.499Z</time>
      </trkpt>
      <trkpt lat="44.27451" lon="1.10259">
        <ele>263.737023</ele>
        <time>2022-08-01T07:54:07.493Z</time>
      </trkpt>
      <trkpt lat="44.27459" lon="1.10248">
        <ele>263.100275</ele>
        <time>2022-08-01T07:54:08.487Z</time>
      </trkpt>
      <trkpt lat="44.27466" lon="1.10239">
        <ele>262.533935</ele>
        <time>2022-08-01T07:54:09.517Z</time>
      </trkpt>
      <trkpt lat="44.27473" lon="1.10231">
        <ele>261.981177</ele>
        <time>2022-08-01T07:54:10.492Z</time>
      </trkpt>
      <trkpt lat="44.27487" lon="1.10229">
        <ele>261.140684</ele>
        <time>2022-08-01T07:54:12.489Z</time>
      </trkpt>
      <trkpt lat="44.275" lon="1.1023">
        <ele>260.383861</ele>
        <time>2022-08-01T07:54:14.499Z</time>
      </trkpt>
      <trkpt lat="44.27513" lon="1.10237">
        <ele>259.575843</ele>
        <time>2022-08-01T07:54:16.472Z</time>
      </trkpt>
      <trkpt lat="44.27529" lon="1.10243">
        <ele>258.579061</ele>
        <time>2022-08-01T07:54:18.474Z</time>
      </trkpt>
      <trkpt lat="44.27546" lon="1.10238">
        <ele>257.564582</ele>
        <time>2022-08-01T07:54:20.494Z</time>
      </trkpt>
      <trkpt lat="44.27555" lon="1.10236">
        <ele>257.015993</ele>
        <time>2022-08-01T07:54:21.518Z</time>
      </trkpt>
      <trkpt lat="44.2757" lon="1.10226">
        <ele>256.03485</ele>
        <time>2022-08-01T07:54:23.478Z</time>
      </trkpt>
      <trkpt lat="44.27573" lon="1.10211">
        <ele>255.372811</ele>
        <time>2022-08-01T07:54:25.495Z</time>
      </trkpt>
      <trkpt lat="44.27565" lon="1.10191">
        <ele>253.763966</ele>
        <time>2022-08-01T07:54:27.503Z</time>
      </trkpt>
      <trkpt lat="44.2756" lon="1.10167">
        <ele>251.637369</ele>
        <time>2022-08-01T07:54:28.500Z</time>
      </trkpt>
      <trkpt lat="44.27556" lon="1.10155">
        <ele>250.560496</ele>
        <time>2022-08-01T07:54:29.500Z</time>
      </trkpt>
      <trkpt lat="44.27552" lon="1.10141">
        <ele>249.305297</ele>
        <time>2022-08-01T07:54:30.493Z</time>
      </trkpt>
      <trkpt lat="44.2755" lon="1.10123">
        <ele>247.726694</ele>
        <time>2022-08-01T07:54:31.487Z</time>
      </trkpt>
      <trkpt lat="44.27544" lon="1.10107">
        <ele>246.243202</ele>
        <time>2022-08-01T07:54:32.500Z</time>
      </trkpt>
      <trkpt lat="44.27542" lon="1.10094">
        <ele>245.16388</ele>
        <time>2022-08-01T07:54:33.526Z</time>
      </trkpt>
      <trkpt lat="44.27541" lon="1.10082">
        <ele>244.085442</ele>
        <time>2022-08-01T07:54:34.487Z</time>
      </trkpt>
      <trkpt lat="44.2754" lon="1.10067">
        <ele>242.842479</ele>
        <time>2022-08-01T07:54:35.501Z</time>
      </trkpt>
      <trkpt lat="44.27546" lon="1.10041">
        <ele>240.59978</ele>
        <time>2022-08-01T07:54:37.488Z</time>
      </trkpt>
      <trkpt lat="44.27547" lon="1.10025">
        <ele>239.182904</ele>
        <time>2022-08-01T07:54:38.515Z</time>
      </trkpt>
      <trkpt lat="44.27548" lon="1.10005">
        <ele>237.553527</ele>
        <time>2022-08-01T07:54:39.528Z</time>
      </trkpt>
      <trkpt lat="44.27554" lon="1.09988">
        <ele>235.994698</ele>
        <time>2022-08-01T07:54:40.483Z</time>
      </trkpt>
      <trkpt lat="44.27557" lon="1.09971">
        <ele>234.477703</ele>
        <time>2022-08-01T07:54:41.479Z</time>
      </trkpt>
      <trkpt lat="44.27561" lon="1.09956">
        <ele>233.388599</ele>
        <time>2022-08-01T07:54:42.491Z</time>
      </trkpt>
      <trkpt lat="44.27564" lon="1.09939">
        <ele>232.308164</ele>
        <time>2022-08-01T07:54:43.495Z</time>
      </trkpt>
      <trkpt lat="44.27567" lon="1.09924">
        <ele>231.339003</ele>
        <time>2022-08-01T07:54:44.491Z</time>
      </trkpt>
      <trkpt lat="44.27569" lon="1.09907">
        <ele>230.295831</ele>
        <time>2022-08-01T07:54:45.504Z</time>
      </trkpt>
      <trkpt lat="44.27569" lon="1.0989">
        <ele>229.27259</ele>
        <time>2022-08-01T07:54:46.488Z</time>
      </trkpt>
      <trkpt lat="44.27569" lon="1.09874">
        <ele>228.298636</ele>
        <time>2022-08-01T07:54:47.487Z</time>
      </trkpt>
      <trkpt lat="44.2757" lon="1.09856">
        <ele>227.182231</ele>
        <time>2022-08-01T07:54:48.474Z</time>
      </trkpt>
      <trkpt lat="44.27571" lon="1.09841">
        <ele>226.278531</ele>
        <time>2022-08-01T07:54:49.497Z</time>
      </trkpt>
      <trkpt lat="44.27572" lon="1.09828">
        <ele>225.441115</ele>
        <time>2022-08-01T07:54:50.476Z</time>
      </trkpt>
      <trkpt lat="44.27572" lon="1.09813">
        <ele>224.546172</ele>
        <time>2022-08-01T07:54:51.526Z</time>
      </trkpt>
      <trkpt lat="44.27575" lon="1.09799">
        <ele>223.635803</ele>
        <time>2022-08-01T07:54:52.483Z</time>
      </trkpt>
      <trkpt lat="44.27577" lon="1.09784">
        <ele>222.715314</ele>
        <time>2022-08-01T07:54:53.488Z</time>
      </trkpt>
      <trkpt lat="44.27579" lon="1.0976">
        <ele>221.205527</ele>
        <time>2022-08-01T07:54:55.493Z</time>
      </trkpt>
      <trkpt lat="44.2758" lon="1.09745">
        <ele>220.299281</ele>
        <time>2022-08-01T07:54:56.497Z</time>
      </trkpt>
      <trkpt lat="44.27581" lon="1.09732">
        <ele>219.526773</ele>
        <time>2022-08-01T07:54:57.520Z</time>
      </trkpt>
      <trkpt lat="44.27584" lon="1.09709">
        <ele>218.636214</ele>
        <time>2022-08-01T07:54:59.501Z</time>
      </trkpt>
      <trkpt lat="44.27584" lon="1.09696">
        <ele>218.600759</ele>
        <time>2022-08-01T07:55:00.492Z</time>
      </trkpt>
      <trkpt lat="44.27583" lon="1.09672">
        <ele>218.53801</ele>
        <time>2022-08-01T07:55:02.513Z</time>
      </trkpt>
      <trkpt lat="44.27581" lon="1.09652">
        <ele>218.483382</ele>
        <time>2022-08-01T07:55:04.475Z</time>
      </trkpt>
      <trkpt lat="44.27578" lon="1.09629">
        <ele>218.420832</ele>
        <time>2022-08-01T07:55:06.475Z</time>
      </trkpt>
      <trkpt lat="44.27573" lon="1.09607">
        <ele>218.36112</ele>
        <time>2022-08-01T07:55:08.480Z</time>
      </trkpt>
      <trkpt lat="44.2757" lon="1.09585">
        <ele>218.299762</ele>
        <time>2022-08-01T07:55:10.494Z</time>
      </trkpt>
      <trkpt lat="44.27568" lon="1.09561">
        <ele>218.236429</ele>
        <time>2022-08-01T07:55:12.502Z</time>
      </trkpt>
      <trkpt lat="44.27566" lon="1.0954">
        <ele>218.178949</ele>
        <time>2022-08-01T07:55:14.530Z</time>
      </trkpt>
      <trkpt lat="44.27564" lon="1.09519">
        <ele>218.12387</ele>
        <time>2022-08-01T07:55:16.499Z</time>
      </trkpt>
      <trkpt lat="44.27564" lon="1.09498">
        <ele>218.067652</ele>
        <time>2022-08-01T07:55:18.502Z</time>
      </trkpt>
      <trkpt lat="44.27564" lon="1.09477">
        <ele>218.012785</ele>
        <time>2022-08-01T07:55:20.532Z</time>
      </trkpt>
      <trkpt lat="44.27563" lon="1.09457">
        <ele>217.595922</ele>
        <time>2022-08-01T07:55:22.493Z</time>
      </trkpt>
      <trkpt lat="44.27563" lon="1.09436">
        <ele>216.905158</ele>
        <time>2022-08-01T07:55:24.486Z</time>
      </trkpt>
      <trkpt lat="44.27562" lon="1.09412">
        <ele>216.139028</ele>
        <time>2022-08-01T07:55:26.493Z</time>
      </trkpt>
      <trkpt lat="44.27562" lon="1.09389">
        <ele>215.393746</ele>
        <time>2022-08-01T07:55:28.485Z</time>
      </trkpt>
      <trkpt lat="44.27564" lon="1.09363">
        <ele>214.563914</ele>
        <time>2022-08-01T07:55:30.494Z</time>
      </trkpt>
      <trkpt lat="44.27563" lon="1.0935">
        <ele>214.147038</ele>
        <time>2022-08-01T07:55:31.470Z</time>
      </trkpt>
      <trkpt lat="44.27562" lon="1.09335">
        <ele>213.666363</ele>
        <time>2022-08-01T07:55:32.519Z</time>
      </trkpt>
      <trkpt lat="44.27563" lon="1.0931">
        <ele>212.869819</ele>
        <time>2022-08-01T07:55:34.487Z</time>
      </trkpt>
      <trkpt lat="44.27562" lon="1.09295">
        <ele>212.402184</ele>
        <time>2022-08-01T07:55:35.489Z</time>
      </trkpt>
      <trkpt lat="44.27564" lon="1.09281">
        <ele>211.935428</ele>
        <time>2022-08-01T07:55:36.498Z</time>
      </trkpt>
      <trkpt lat="44.27566" lon="1.09263">
        <ele>211.366478</ele>
        <time>2022-08-01T07:55:37.480Z</time>
      </trkpt>
      <trkpt lat="44.27567" lon="1.0925">
        <ele>210.925758</ele>
        <time>2022-08-01T07:55:38.482Z</time>
      </trkpt>
      <trkpt lat="44.27568" lon="1.09234">
        <ele>210.417145</ele>
        <time>2022-08-01T07:55:39.500Z</time>
      </trkpt>
      <trkpt lat="44.27568" lon="1.0922">
        <ele>209.972304</ele>
        <time>2022-08-01T07:55:40.483Z</time>
      </trkpt>
      <trkpt lat="44.27568" lon="1.09206">
        <ele>209.60355</ele>
        <time>2022-08-01T07:55:41.495Z</time>
      </trkpt>
      <trkpt lat="44.27569" lon="1.09191">
        <ele>209.205538</ele>
        <time>2022-08-01T07:55:42.483Z</time>
      </trkpt>
      <trkpt lat="44.2757" lon="1.09177">
        <ele>208.833265</ele>
        <time>2022-08-01T07:55:43.517Z</time>
      </trkpt>
      <trkpt lat="44.27571" lon="1.09164">
        <ele>208.488481</ele>
        <time>2022-08-01T07:55:44.475Z</time>
      </trkpt>
      <trkpt lat="44.27573" lon="1.09147">
        <ele>208.037924</ele>
        <time>2022-08-01T07:55:45.483Z</time>
      </trkpt>
      <trkpt lat="44.27573" lon="1.09134">
        <ele>207.70173</ele>
        <time>2022-08-01T07:55:46.499Z</time>
      </trkpt>
      <trkpt lat="44.27575" lon="1.0912">
        <ele>207.316259</ele>
        <time>2022-08-01T07:55:47.495Z</time>
      </trkpt>
      <trkpt lat="44.27578" lon="1.09103">
        <ele>206.849345</ele>
        <time>2022-08-01T07:55:48.484Z</time>
      </trkpt>
      <trkpt lat="44.27582" lon="1.09086">
        <ele>206.387261</ele>
        <time>2022-08-01T07:55:49.527Z</time>
      </trkpt>
      <trkpt lat="44.27584" lon="1.0907">
        <ele>205.965711</ele>
        <time>2022-08-01T07:55:50.489Z</time>
      </trkpt>
      <trkpt lat="44.27585" lon="1.09054">
        <ele>205.544105</ele>
        <time>2022-08-01T07:55:51.506Z</time>
      </trkpt>
      <trkpt lat="44.27587" lon="1.09037">
        <ele>205.091959</ele>
        <time>2022-08-01T07:55:52.498Z</time>
      </trkpt>
      <trkpt lat="44.27584" lon="1.09023">
        <ele>204.701022</ele>
        <time>2022-08-01T07:55:53.502Z</time>
      </trkpt>
      <trkpt lat="44.27583" lon="1.09006">
        <ele>204.239296</ele>
        <time>2022-08-01T07:55:54.504Z</time>
      </trkpt>
      <trkpt lat="44.27576" lon="1.08993">
        <ele>203.823218</ele>
        <time>2022-08-01T07:55:55.522Z</time>
      </trkpt>
      <trkpt lat="44.27571" lon="1.08977">
        <ele>203.363915</ele>
        <time>2022-08-01T07:55:56.488Z</time>
      </trkpt>
      <trkpt lat="44.27565" lon="1.08964">
        <ele>202.800498</ele>
        <time>2022-08-01T07:55:57.494Z</time>
      </trkpt>
      <trkpt lat="44.27559" lon="1.0895">
        <ele>202.219743</ele>
        <time>2022-08-01T07:55:58.498Z</time>
      </trkpt>
      <trkpt lat="44.27553" lon="1.08939">
        <ele>201.736451</ele>
        <time>2022-08-01T07:55:59.485Z</time>
      </trkpt>
      <trkpt lat="44.27548" lon="1.08928">
        <ele>201.270156</ele>
        <time>2022-08-01T07:56:00.499Z</time>
      </trkpt>
      <trkpt lat="44.27539" lon="1.0891">
        <ele>200.455923</ele>
        <time>2022-08-01T07:56:02.495Z</time>
      </trkpt>
      <trkpt lat="44.27534" lon="1.08899">
        <ele>200.001865</ele>
        <time>2022-08-01T07:56:03.506Z</time>
      </trkpt>
      <trkpt lat="44.27528" lon="1.08889">
        <ele>199.539019</ele>
        <time>2022-08-01T07:56:04.503Z</time>
      </trkpt>
      <trkpt lat="44.2752" lon="1.08873">
        <ele>198.809412</ele>
        <time>2022-08-01T07:56:06.537Z</time>
      </trkpt>
      <trkpt lat="44.27513" lon="1.08859">
        <ele>198.222909</ele>
        <time>2022-08-01T07:56:08.500Z</time>
      </trkpt>
      <trkpt lat="44.27523" lon="1.08852">
        <ele>197.686983</ele>
        <time>2022-08-01T07:56:13.498Z</time>
      </trkpt>
      <trkpt lat="44.27535" lon="1.08857">
        <ele>197.047334</ele>
        <time>2022-08-01T07:56:16.485Z</time>
      </trkpt>
      <trkpt lat="44.27544" lon="1.08858">
        <ele>196.594038</ele>
        <time>2022-08-01T07:56:18.536Z</time>
      </trkpt>
      <trkpt lat="44.27555" lon="1.08858">
        <ele>196.045244</ele>
        <time>2022-08-01T07:56:20.484Z</time>
      </trkpt>
      <trkpt lat="44.27569" lon="1.08861">
        <ele>195.329251</ele>
        <time>2022-08-01T07:56:22.498Z</time>
      </trkpt>
      <trkpt lat="44.2758" lon="1.08864">
        <ele>194.744261</ele>
        <time>2022-08-01T07:56:24.534Z</time>
      </trkpt>
      <trkpt lat="44.27592" lon="1.08867">
        <ele>194.256622</ele>
        <time>2022-08-01T07:56:26.496Z</time>
      </trkpt>
      <trkpt lat="44.27602" lon="1.08869">
        <ele>194.140349</ele>
        <time>2022-08-01T07:56:28.489Z</time>
      </trkpt>
      <trkpt lat="44.27614" lon="1.08872">
        <ele>194.014674</ele>
        <time>2022-08-01T07:56:30.523Z</time>
      </trkpt>
      <trkpt lat="44.27629" lon="1.08878">
        <ele>193.848734</ele>
        <time>2022-08-01T07:56:32.501Z</time>
      </trkpt>
      <trkpt lat="44.27641" lon="1.0888">
        <ele>193.713134</ele>
        <time>2022-08-01T07:56:34.498Z</time>
      </trkpt>
      <trkpt lat="44.27655" lon="1.08883">
        <ele>193.562229</ele>
        <time>2022-08-01T07:56:36.538Z</time>
      </trkpt>
      <trkpt lat="44.27668" lon="1.08886">
        <ele>193.410577</ele>
        <time>2022-08-01T07:56:38.479Z</time>
      </trkpt>
      <trkpt lat="44.27682" lon="1.08887">
        <ele>193.260917</ele>
        <time>2022-08-01T07:56:40.492Z</time>
      </trkpt>
      <trkpt lat="44.27695" lon="1.0889">
        <ele>193.112865</ele>
        <time>2022-08-01T07:56:42.536Z</time>
      </trkpt>
      <trkpt lat="44.27708" lon="1.08893">
        <ele>192.979417</ele>
        <time>2022-08-01T07:56:44.482Z</time>
      </trkpt>
      <trkpt lat="44.2772" lon="1.08896">
        <ele>192.847396</ele>
        <time>2022-08-01T07:56:46.496Z</time>
      </trkpt>
      <trkpt lat="44.27732" lon="1.08898">
        <ele>192.708324</ele>
        <time>2022-08-01T07:56:48.503Z</time>
      </trkpt>
      <trkpt lat="44.27745" lon="1.08901">
        <ele>192.56472</ele>
        <time>2022-08-01T07:56:50.510Z</time>
      </trkpt>
      <trkpt lat="44.2776" lon="1.08905">
        <ele>192.40508</ele>
        <time>2022-08-01T07:56:52.492Z</time>
      </trkpt>
      <trkpt lat="44.27773" lon="1.08907">
        <ele>192.389097</ele>
        <time>2022-08-01T07:56:54.485Z</time>
      </trkpt>
      <trkpt lat="44.27783" lon="1.08907">
        <ele>192.500012</ele>
        <time>2022-08-01T07:56:56.497Z</time>
      </trkpt>
      <trkpt lat="44.27793" lon="1.08909">
        <ele>192.601514</ele>
        <time>2022-08-01T07:56:57.484Z</time>
      </trkpt>
      <trkpt lat="44.27805" lon="1.08911">
        <ele>192.725897</ele>
        <time>2022-08-01T07:56:59.522Z</time>
      </trkpt>
      <trkpt lat="44.27818" lon="1.08915">
        <ele>192.862462</ele>
        <time>2022-08-01T07:57:01.484Z</time>
      </trkpt>
      <trkpt lat="44.27831" lon="1.08915">
        <ele>192.990858</ele>
        <time>2022-08-01T07:57:03.499Z</time>
      </trkpt>
      <trkpt lat="44.27842" lon="1.08918">
        <ele>193.110719</ele>
        <time>2022-08-01T07:57:05.518Z</time>
      </trkpt>
      <trkpt lat="44.27856" lon="1.08921">
        <ele>193.249187</ele>
        <time>2022-08-01T07:57:07.502Z</time>
      </trkpt>
      <trkpt lat="44.27869" lon="1.08922">
        <ele>193.385312</ele>
        <time>2022-08-01T07:57:09.501Z</time>
      </trkpt>
      <trkpt lat="44.27883" lon="1.08926">
        <ele>193.534271</ele>
        <time>2022-08-01T07:57:11.529Z</time>
      </trkpt>
      <trkpt lat="44.279" lon="1.08929">
        <ele>193.71501</ele>
        <time>2022-08-01T07:57:13.499Z</time>
      </trkpt>
      <trkpt lat="44.27911" lon="1.08933">
        <ele>193.824863</ele>
        <time>2022-08-01T07:57:15.508Z</time>
      </trkpt>
      <trkpt lat="44.27922" lon="1.08935">
        <ele>193.936035</ele>
        <time>2022-08-01T07:57:17.534Z</time>
      </trkpt>
      <trkpt lat="44.27932" lon="1.08939">
        <ele>194.050404</ele>
        <time>2022-08-01T07:57:19.501Z</time>
      </trkpt>
      <trkpt lat="44.27945" lon="1.08942">
        <ele>194.172544</ele>
        <time>2022-08-01T07:57:21.506Z</time>
      </trkpt>
      <trkpt lat="44.27954" lon="1.08945">
        <ele>194.132735</ele>
        <time>2022-08-01T07:57:23.525Z</time>
      </trkpt>
      <trkpt lat="44.27965" lon="1.08946">
        <ele>194.086607</ele>
        <time>2022-08-01T07:57:25.485Z</time>
      </trkpt>
      <trkpt lat="44.27979" lon="1.08948">
        <ele>194.03043</ele>
        <time>2022-08-01T07:57:27.496Z</time>
      </trkpt>
      <trkpt lat="44.27995" lon="1.08951">
        <ele>193.960125</ele>
        <time>2022-08-01T07:57:29.530Z</time>
      </trkpt>
      <trkpt lat="44.28005" lon="1.08951">
        <ele>193.919663</ele>
        <time>2022-08-01T07:57:30.489Z</time>
      </trkpt>
      <trkpt lat="44.28018" lon="1.08949">
        <ele>193.863608</ele>
        <time>2022-08-01T07:57:32.494Z</time>
      </trkpt>
      <trkpt lat="44.28034" lon="1.08949">
        <ele>193.798542</ele>
        <time>2022-08-01T07:57:34.484Z</time>
      </trkpt>
      <trkpt lat="44.28054" lon="1.08954">
        <ele>193.712589</ele>
        <time>2022-08-01T07:57:36.501Z</time>
      </trkpt>
      <trkpt lat="44.2807" lon="1.08955">
        <ele>193.645385</ele>
        <time>2022-08-01T07:57:38.498Z</time>
      </trkpt>
      <trkpt lat="44.28084" lon="1.08955">
        <ele>193.586156</ele>
        <time>2022-08-01T07:57:40.478Z</time>
      </trkpt>
      <trkpt lat="44.28099" lon="1.08955">
        <ele>193.525675</ele>
        <time>2022-08-01T07:57:42.514Z</time>
      </trkpt>
      <trkpt lat="44.28113" lon="1.08956">
        <ele>193.468522</ele>
        <time>2022-08-01T07:57:44.497Z</time>
      </trkpt>
      <trkpt lat="44.28122" lon="1.08957">
        <ele>193.428763</ele>
        <time>2022-08-01T07:57:45.493Z</time>
      </trkpt>
      <trkpt lat="44.28136" lon="1.08954">
        <ele>193.409166</ele>
        <time>2022-08-01T07:57:47.500Z</time>
      </trkpt>
      <trkpt lat="44.28152" lon="1.08959">
        <ele>193.389212</ele>
        <time>2022-08-01T07:57:49.489Z</time>
      </trkpt>
      <trkpt lat="44.28162" lon="1.0896">
        <ele>193.377803</ele>
        <time>2022-08-01T07:57:50.483Z</time>
      </trkpt>
      <trkpt lat="44.28176" lon="1.08963">
        <ele>193.360862</ele>
        <time>2022-08-01T07:57:52.493Z</time>
      </trkpt>
      <trkpt lat="44.28188" lon="1.08968">
        <ele>193.346226</ele>
        <time>2022-08-01T07:57:54.491Z</time>
      </trkpt>
      <trkpt lat="44.282" lon="1.08977">
        <ele>193.329578</ele>
        <time>2022-08-01T07:57:56.524Z</time>
      </trkpt>
      <trkpt lat="44.28214" lon="1.08988">
        <ele>193.311567</ele>
        <time>2022-08-01T07:57:58.500Z</time>
      </trkpt>
      <trkpt lat="44.28225" lon="1.09">
        <ele>193.294492</ele>
        <time>2022-08-01T07:58:00.503Z</time>
      </trkpt>
      <trkpt lat="44.28237" lon="1.09012">
        <ele>193.277658</ele>
        <time>2022-08-01T07:58:02.503Z</time>
      </trkpt>
      <trkpt lat="44.28248" lon="1.09021">
        <ele>193.262084</ele>
        <time>2022-08-01T07:58:04.510Z</time>
      </trkpt>
      <trkpt lat="44.28262" lon="1.09029">
        <ele>193.244354</ele>
        <time>2022-08-01T07:58:06.501Z</time>
      </trkpt>
      <trkpt lat="44.28274" lon="1.09038">
        <ele>193.228477</ele>
        <time>2022-08-01T07:58:08.502Z</time>
      </trkpt>
      <trkpt lat="44.28287" lon="1.09046">
        <ele>193.213968</ele>
        <time>2022-08-01T07:58:10.509Z</time>
      </trkpt>
      <trkpt lat="44.28299" lon="1.09056">
        <ele>193.394754</ele>
        <time>2022-08-01T07:58:12.499Z</time>
      </trkpt>
      <trkpt lat="44.28312" lon="1.09064">
        <ele>193.580928</ele>
        <time>2022-08-01T07:58:14.507Z</time>
      </trkpt>
      <trkpt lat="44.28325" lon="1.09074">
        <ele>193.760806</ele>
        <time>2022-08-01T07:58:16.515Z</time>
      </trkpt>
      <trkpt lat="44.28336" lon="1.0908">
        <ele>193.913454</ele>
        <time>2022-08-01T07:58:18.499Z</time>
      </trkpt>
      <trkpt lat="44.28347" lon="1.09087">
        <ele>194.0691</ele>
        <time>2022-08-01T07:58:20.501Z</time>
      </trkpt>
      <trkpt lat="44.28357" lon="1.09093">
        <ele>194.203742</ele>
        <time>2022-08-01T07:58:22.491Z</time>
      </trkpt>
      <trkpt lat="44.2837" lon="1.09101">
        <ele>194.395704</ele>
        <time>2022-08-01T07:58:24.483Z</time>
      </trkpt>
      <trkpt lat="44.28384" lon="1.09107">
        <ele>194.583561</ele>
        <time>2022-08-01T07:58:26.492Z</time>
      </trkpt>
      <trkpt lat="44.28397" lon="1.09111">
        <ele>194.747875</ele>
        <time>2022-08-01T07:58:28.503Z</time>
      </trkpt>
      <trkpt lat="44.28409" lon="1.09115">
        <ele>194.903887</ele>
        <time>2022-08-01T07:58:30.495Z</time>
      </trkpt>
      <trkpt lat="44.28423" lon="1.0912">
        <ele>195.086095</ele>
        <time>2022-08-01T07:58:32.490Z</time>
      </trkpt>
      <trkpt lat="44.28434" lon="1.09125">
        <ele>195.240027</ele>
        <time>2022-08-01T07:58:34.501Z</time>
      </trkpt>
      <trkpt lat="44.28445" lon="1.09124">
        <ele>195.376289</ele>
        <time>2022-08-01T07:58:37.486Z</time>
      </trkpt>
      <trkpt lat="44.28452" lon="1.09115">
        <ele>195.496182</ele>
        <time>2022-08-01T07:58:39.490Z</time>
      </trkpt>
      <trkpt lat="44.2846" lon="1.09106">
        <ele>195.314843</ele>
        <time>2022-08-01T07:58:41.494Z</time>
      </trkpt>
      <trkpt lat="44.28468" lon="1.09096">
        <ele>195.091241</ele>
        <time>2022-08-01T07:58:43.499Z</time>
      </trkpt>
      <trkpt lat="44.28475" lon="1.09083">
        <ele>194.849058</ele>
        <time>2022-08-01T07:58:45.498Z</time>
      </trkpt>
      <trkpt lat="44.28482" lon="1.09068">
        <ele>194.589485</ele>
        <time>2022-08-01T07:58:47.502Z</time>
      </trkpt>
      <trkpt lat="44.28487" lon="1.09052">
        <ele>194.332694</ele>
        <time>2022-08-01T07:58:49.501Z</time>
      </trkpt>
      <trkpt lat="44.28493" lon="1.09037">
        <ele>194.077784</ele>
        <time>2022-08-01T07:58:51.502Z</time>
      </trkpt>
      <trkpt lat="44.28496" lon="1.09018">
        <ele>193.796128</ele>
        <time>2022-08-01T07:58:53.496Z</time>
      </trkpt>
      <trkpt lat="44.285" lon="1.08999">
        <ele>193.505838</ele>
        <time>2022-08-01T07:58:55.494Z</time>
      </trkpt>
      <trkpt lat="44.28501" lon="1.08984">
        <ele>193.278439</ele>
        <time>2022-08-01T07:58:57.478Z</time>
      </trkpt>
      <trkpt lat="44.28502" lon="1.08966">
        <ele>193.01926</ele>
        <time>2022-08-01T07:58:59.500Z</time>
      </trkpt>
      <trkpt lat="44.28503" lon="1.08949">
        <ele>192.767126</ele>
        <time>2022-08-01T07:59:01.493Z</time>
      </trkpt>
      <trkpt lat="44.28503" lon="1.08933">
        <ele>192.521696</ele>
        <time>2022-08-01T07:59:03.491Z</time>
      </trkpt>
      <trkpt lat="44.28506" lon="1.08913">
        <ele>192.231378</ele>
        <time>2022-08-01T07:59:05.488Z</time>
      </trkpt>
      <trkpt lat="44.28511" lon="1.08899">
        <ele>191.99486</ele>
        <time>2022-08-01T07:59:07.486Z</time>
      </trkpt>
      <trkpt lat="44.28519" lon="1.08888">
        <ele>191.856974</ele>
        <time>2022-08-01T07:59:09.502Z</time>
      </trkpt>
      <trkpt lat="44.28527" lon="1.08879">
        <ele>192.199776</ele>
        <time>2022-08-01T07:59:11.484Z</time>
      </trkpt>
      <trkpt lat="44.28534" lon="1.08868">
        <ele>192.520869</ele>
        <time>2022-08-01T07:59:13.480Z</time>
      </trkpt>
      <trkpt lat="44.28538" lon="1.08852">
        <ele>192.881504</ele>
        <time>2022-08-01T07:59:15.505Z</time>
      </trkpt>
      <trkpt lat="44.2854" lon="1.08836">
        <ele>193.23938</ele>
        <time>2022-08-01T07:59:17.502Z</time>
      </trkpt>
      <trkpt lat="44.28543" lon="1.08823">
        <ele>193.556251</ele>
        <time>2022-08-01T07:59:19.499Z</time>
      </trkpt>
      <trkpt lat="44.28547" lon="1.08807">
        <ele>193.921151</ele>
        <time>2022-08-01T07:59:21.494Z</time>
      </trkpt>
      <trkpt lat="44.28549" lon="1.08793">
        <ele>194.23343</ele>
        <time>2022-08-01T07:59:23.485Z</time>
      </trkpt>
      <trkpt lat="44.28552" lon="1.0878">
        <ele>194.545006</ele>
        <time>2022-08-01T07:59:25.495Z</time>
      </trkpt>
      <trkpt lat="44.28554" lon="1.08767">
        <ele>194.829924</ele>
        <time>2022-08-01T07:59:27.489Z</time>
      </trkpt>
      <trkpt lat="44.28557" lon="1.08752">
        <ele>195.176785</ele>
        <time>2022-08-01T07:59:30.498Z</time>
      </trkpt>
      <trkpt lat="44.28563" lon="1.08737">
        <ele>195.563909</ele>
        <time>2022-08-01T07:59:33.491Z</time>
      </trkpt>
      <trkpt lat="44.28571" lon="1.08727">
        <ele>195.8933</ele>
        <time>2022-08-01T07:59:36.492Z</time>
      </trkpt>
      <trkpt lat="44.28579" lon="1.08721">
        <ele>196.191862</ele>
        <time>2022-08-01T07:59:39.512Z</time>
      </trkpt>
      <trkpt lat="44.28589" lon="1.08716">
        <ele>196.488891</ele>
        <time>2022-08-01T07:59:42.499Z</time>
      </trkpt>
      <trkpt lat="44.286" lon="1.08711">
        <ele>196.857449</ele>
        <time>2022-08-01T07:59:46.522Z</time>
      </trkpt>
      <trkpt lat="44.2861" lon="1.08707">
        <ele>197.176721</ele>
        <time>2022-08-01T07:59:50.496Z</time>
      </trkpt>
      <trkpt lat="44.28615" lon="1.08694">
        <ele>197.584754</ele>
        <time>2022-08-01T07:59:55.496Z</time>
      </trkpt>
      <trkpt lat="44.28614" lon="1.0868">
        <ele>198.043056</ele>
        <time>2022-08-01T07:59:59.522Z</time>
      </trkpt>
      <trkpt lat="44.2861" lon="1.08667">
        <ele>198.496933</ele>
        <time>2022-08-01T08:00:04.522Z</time>
      </trkpt>
      <trkpt lat="44.28613" lon="1.08651">
        <ele>199.037828</ele>
        <time>2022-08-01T08:00:09.480Z</time>
      </trkpt>
      <trkpt lat="44.28618" lon="1.08639">
        <ele>199.491808</ele>
        <time>2022-08-01T08:00:13.500Z</time>
      </trkpt>
      <trkpt lat="44.28622" lon="1.08626">
        <ele>199.946883</ele>
        <time>2022-08-01T08:00:18.487Z</time>
      </trkpt>
      <trkpt lat="44.28628" lon="1.08616">
        <ele>200.384594</ele>
        <time>2022-08-01T08:00:22.515Z</time>
      </trkpt>
      <trkpt lat="44.28631" lon="1.08602">
        <ele>200.858974</ele>
        <time>2022-08-01T08:00:28.518Z</time>
      </trkpt>
      <trkpt lat="44.28636" lon="1.08588">
        <ele>201.39333</ele>
        <time>2022-08-01T08:00:32.504Z</time>
      </trkpt>
      <trkpt lat="44.28642" lon="1.08574">
        <ele>201.927582</ele>
        <time>2022-08-01T08:00:36.499Z</time>
      </trkpt>
      <trkpt lat="44.28648" lon="1.08563">
        <ele>202.397395</ele>
        <time>2022-08-01T08:00:39.507Z</time>
      </trkpt>
      <trkpt lat="44.28654" lon="1.08552">
        <ele>202.851116</ele>
        <time>2022-08-01T08:00:42.496Z</time>
      </trkpt>
      <trkpt lat="44.2866" lon="1.08542">
        <ele>203.279384</ele>
        <time>2022-08-01T08:00:45.478Z</time>
      </trkpt>
      <trkpt lat="44.28666" lon="1.08532">
        <ele>203.723694</ele>
        <time>2022-08-01T08:00:48.492Z</time>
      </trkpt>
      <trkpt lat="44.28673" lon="1.08521">
        <ele>204.202971</ele>
        <time>2022-08-01T08:00:51.496Z</time>
      </trkpt>
      <trkpt lat="44.2868" lon="1.0851">
        <ele>204.669295</ele>
        <time>2022-08-01T08:00:54.454Z</time>
      </trkpt>
      <trkpt lat="44.28686" lon="1.08499">
        <ele>205.131106</ele>
        <time>2022-08-01T08:00:57.496Z</time>
      </trkpt>
      <trkpt lat="44.28691" lon="1.08485">
        <ele>205.641682</ele>
        <time>2022-08-01T08:01:01.498Z</time>
      </trkpt>
      <trkpt lat="44.28698" lon="1.08474">
        <ele>206.567816</ele>
        <time>2022-08-01T08:01:04.497Z</time>
      </trkpt>
      <trkpt lat="44.28704" lon="1.08464">
        <ele>207.377653</ele>
        <time>2022-08-01T08:01:07.479Z</time>
      </trkpt>
      <trkpt lat="44.2871" lon="1.08455">
        <ele>208.185426</ele>
        <time>2022-08-01T08:01:10.515Z</time>
      </trkpt>
      <trkpt lat="44.28717" lon="1.08446">
        <ele>208.998676</ele>
        <time>2022-08-01T08:01:13.496Z</time>
      </trkpt>
      <trkpt lat="44.28723" lon="1.08436">
        <ele>209.802246</ele>
        <time>2022-08-01T08:01:16.518Z</time>
      </trkpt>
      <trkpt lat="44.2873" lon="1.08427">
        <ele>210.604783</ele>
        <time>2022-08-01T08:01:19.492Z</time>
      </trkpt>
      <trkpt lat="44.28738" lon="1.08417">
        <ele>211.553271</ele>
        <time>2022-08-01T08:01:23.494Z</time>
      </trkpt>
      <trkpt lat="44.28744" lon="1.08406">
        <ele>212.464665</ele>
        <time>2022-08-01T08:01:26.496Z</time>
      </trkpt>
      <trkpt lat="44.2875" lon="1.08393">
        <ele>213.452838</ele>
        <time>2022-08-01T08:01:31.492Z</time>
      </trkpt>
      <trkpt lat="44.28753" lon="1.0838">
        <ele>214.27701</ele>
        <time>2022-08-01T08:01:36.504Z</time>
      </trkpt>
      <trkpt lat="44.28757" lon="1.08366">
        <ele>215.255285</ele>
        <time>2022-08-01T08:01:41.494Z</time>
      </trkpt>
      <trkpt lat="44.28762" lon="1.08354">
        <ele>216.121286</ele>
        <time>2022-08-01T08:01:45.488Z</time>
      </trkpt>
      <trkpt lat="44.28766" lon="1.08341">
        <ele>217.010014</ele>
        <time>2022-08-01T08:01:50.502Z</time>
      </trkpt>
      <trkpt lat="44.28773" lon="1.08332">
        <ele>217.840816</ele>
        <time>2022-08-01T08:01:55.496Z</time>
      </trkpt>
      <trkpt lat="44.2878" lon="1.08322">
        <ele>218.711248</ele>
        <time>2022-08-01T08:01:59.476Z</time>
      </trkpt>
      <trkpt lat="44.2878" lon="1.08308">
        <ele>219.593871</ele>
        <time>2022-08-01T08:02:04.480Z</time>
      </trkpt>
      <trkpt lat="44.2878" lon="1.08295">
        <ele>220.407848</ele>
        <time>2022-08-01T08:02:08.520Z</time>
      </trkpt>
      <trkpt lat="44.2878" lon="1.08281">
        <ele>221.25862</ele>
        <time>2022-08-01T08:02:11.493Z</time>
      </trkpt>
      <trkpt lat="44.28784" lon="1.08267">
        <ele>222.077649</ele>
        <time>2022-08-01T08:02:16.478Z</time>
      </trkpt>
      <trkpt lat="44.28789" lon="1.08254">
        <ele>222.796195</ele>
        <time>2022-08-01T08:02:21.488Z</time>
      </trkpt>
      <trkpt lat="44.28791" lon="1.0824">
        <ele>223.470294</ele>
        <time>2022-08-01T08:02:26.503Z</time>
      </trkpt>
      <trkpt lat="44.28792" lon="1.08226">
        <ele>224.162479</ele>
        <time>2022-08-01T08:02:32.515Z</time>
      </trkpt>
      <trkpt lat="44.28794" lon="1.08214">
        <ele>224.781718</ele>
        <time>2022-08-01T08:02:36.504Z</time>
      </trkpt>
      <trkpt lat="44.28798" lon="1.08202">
        <ele>225.464975</ele>
        <time>2022-08-01T08:02:39.496Z</time>
      </trkpt>
      <trkpt lat="44.28804" lon="1.08188">
        <ele>226.205456</ele>
        <time>2022-08-01T08:02:42.490Z</time>
      </trkpt>
      <trkpt lat="44.28808" lon="1.08176">
        <ele>226.881042</ele>
        <time>2022-08-01T08:02:46.488Z</time>
      </trkpt>
      <trkpt lat="44.28813" lon="1.08163">
        <ele>227.620555</ele>
        <time>2022-08-01T08:02:51.500Z</time>
      </trkpt>
      <trkpt lat="44.28816" lon="1.08151">
        <ele>228.250861</ele>
        <time>2022-08-01T08:02:55.490Z</time>
      </trkpt>
      <trkpt lat="44.28821" lon="1.08139">
        <ele>228.893155</ele>
        <time>2022-08-01T08:02:59.493Z</time>
      </trkpt>
      <trkpt lat="44.28826" lon="1.08129">
        <ele>229.512704</ele>
        <time>2022-08-01T08:03:02.522Z</time>
      </trkpt>
      <trkpt lat="44.28831" lon="1.08116">
        <ele>230.234763</ele>
        <time>2022-08-01T08:03:06.481Z</time>
      </trkpt>
      <trkpt lat="44.28837" lon="1.08104">
        <ele>230.99406</ele>
        <time>2022-08-01T08:03:10.482Z</time>
      </trkpt>
      <trkpt lat="44.28841" lon="1.0809">
        <ele>231.734506</ele>
        <time>2022-08-01T08:03:16.486Z</time>
      </trkpt>
      <trkpt lat="44.28844" lon="1.08074">
        <ele>232.533114</ele>
        <time>2022-08-01T08:03:21.486Z</time>
      </trkpt>
      <trkpt lat="44.28846" lon="1.08057">
        <ele>233.354434</ele>
        <time>2022-08-01T08:03:25.489Z</time>
      </trkpt>
      <trkpt lat="44.28849" lon="1.08045">
        <ele>233.898652</ele>
        <time>2022-08-01T08:03:28.487Z</time>
      </trkpt>
      <trkpt lat="44.28849" lon="1.08032">
        <ele>234.207479</ele>
        <time>2022-08-01T08:03:32.511Z</time>
      </trkpt>
      <trkpt lat="44.28855" lon="1.0802">
        <ele>234.556402</ele>
        <time>2022-08-01T08:03:35.481Z</time>
      </trkpt>
      <trkpt lat="44.28862" lon="1.08009">
        <ele>234.90707</ele>
        <time>2022-08-01T08:03:39.468Z</time>
      </trkpt>
      <trkpt lat="44.28866" lon="1.07994">
        <ele>235.270715</ele>
        <time>2022-08-01T08:03:44.525Z</time>
      </trkpt>
      <trkpt lat="44.28868" lon="1.07981">
        <ele>235.596711</ele>
        <time>2022-08-01T08:03:49.480Z</time>
      </trkpt>
      <trkpt lat="44.2887" lon="1.07967">
        <ele>235.926721</ele>
        <time>2022-08-01T08:03:53.489Z</time>
      </trkpt>
      <trkpt lat="44.28871" lon="1.07953">
        <ele>236.265452</ele>
        <time>2022-08-01T08:03:58.496Z</time>
      </trkpt>
      <trkpt lat="44.28874" lon="1.07939">
        <ele>236.588142</ele>
        <time>2022-08-01T08:04:03.489Z</time>
      </trkpt>
      <trkpt lat="44.28876" lon="1.07925">
        <ele>236.926824</ele>
        <time>2022-08-01T08:04:08.527Z</time>
      </trkpt>
      <trkpt lat="44.28878" lon="1.07912">
        <ele>237.248203</ele>
        <time>2022-08-01T08:04:12.488Z</time>
      </trkpt>
      <trkpt lat="44.28879" lon="1.07899">
        <ele>237.566796</ele>
        <time>2022-08-01T08:04:15.463Z</time>
      </trkpt>
      <trkpt lat="44.2888" lon="1.07884">
        <ele>237.908181</ele>
        <time>2022-08-01T08:04:20.528Z</time>
      </trkpt>
      <trkpt lat="44.2888" lon="1.07871">
        <ele>238.222184</ele>
        <time>2022-08-01T08:04:27.502Z</time>
      </trkpt>
      <trkpt lat="44.28884" lon="1.07855">
        <ele>238.614246</ele>
        <time>2022-08-01T08:04:33.494Z</time>
      </trkpt>
      <trkpt lat="44.28892" lon="1.07843">
        <ele>238.993846</ele>
        <time>2022-08-01T08:04:37.496Z</time>
      </trkpt>
      <trkpt lat="44.28898" lon="1.0783">
        <ele>239.362249</ele>
        <time>2022-08-01T08:04:41.494Z</time>
      </trkpt>
      <trkpt lat="44.28906" lon="1.07818">
        <ele>239.731562</ele>
        <time>2022-08-01T08:04:44.479Z</time>
      </trkpt>
      <trkpt lat="44.28915" lon="1.07816">
        <ele>239.901643</ele>
        <time>2022-08-01T08:04:50.474Z</time>
      </trkpt>
      <trkpt lat="44.28924" lon="1.07805">
        <ele>240.094812</ele>
        <time>2022-08-01T08:04:58.477Z</time>
      </trkpt>
      <trkpt lat="44.28931" lon="1.07794">
        <ele>240.268787</ele>
        <time>2022-08-01T08:05:02.481Z</time>
      </trkpt>
      <trkpt lat="44.28936" lon="1.07782">
        <ele>240.435853</ele>
        <time>2022-08-01T08:05:06.522Z</time>
      </trkpt>
      <trkpt lat="44.2894" lon="1.07768">
        <ele>240.622674</ele>
        <time>2022-08-01T08:05:10.475Z</time>
      </trkpt>
      <trkpt lat="44.28944" lon="1.07753">
        <ele>240.815704</ele>
        <time>2022-08-01T08:05:14.506Z</time>
      </trkpt>
      <trkpt lat="44.28947" lon="1.07737">
        <ele>241.007271</ele>
        <time>2022-08-01T08:05:17.518Z</time>
      </trkpt>
      <trkpt lat="44.2895" lon="1.07726">
        <ele>241.162589</ele>
        <time>2022-08-01T08:05:20.490Z</time>
      </trkpt>
      <trkpt lat="44.28955" lon="1.07712">
        <ele>241.351223</ele>
        <time>2022-08-01T08:05:25.481Z</time>
      </trkpt>
      <trkpt lat="44.2896" lon="1.07699">
        <ele>241.52651</ele>
        <time>2022-08-01T08:05:29.527Z</time>
      </trkpt>
      <trkpt lat="44.28965" lon="1.07686">
        <ele>241.698099</ele>
        <time>2022-08-01T08:05:33.490Z</time>
      </trkpt>
      <trkpt lat="44.2897" lon="1.07674">
        <ele>241.864346</ele>
        <time>2022-08-01T08:05:36.500Z</time>
      </trkpt>
      <trkpt lat="44.28975" lon="1.0766">
        <ele>242.053438</ele>
        <time>2022-08-01T08:05:40.499Z</time>
      </trkpt>
      <trkpt lat="44.28982" lon="1.07647">
        <ele>242.241669</ele>
        <time>2022-08-01T08:05:44.498Z</time>
      </trkpt>
      <trkpt lat="44.28989" lon="1.07638">
        <ele>242.415496</ele>
        <time>2022-08-01T08:05:48.489Z</time>
      </trkpt>
      <trkpt lat="44.28999" lon="1.0763">
        <ele>242.600726</ele>
        <time>2022-08-01T08:05:52.497Z</time>
      </trkpt>
      <trkpt lat="44.29008" lon="1.07625">
        <ele>242.786515</ele>
        <time>2022-08-01T08:05:55.497Z</time>
      </trkpt>
      <trkpt lat="44.29017" lon="1.07621">
        <ele>243.715288</ele>
        <time>2022-08-01T08:05:58.490Z</time>
      </trkpt>
      <trkpt lat="44.29027" lon="1.07618">
        <ele>244.772096</ele>
        <time>2022-08-01T08:06:02.498Z</time>
      </trkpt>
      <trkpt lat="44.29038" lon="1.07614">
        <ele>245.906022</ele>
        <time>2022-08-01T08:06:06.489Z</time>
      </trkpt>
      <trkpt lat="44.29049" lon="1.07609">
        <ele>247.029875</ele>
        <time>2022-08-01T08:06:10.492Z</time>
      </trkpt>
      <trkpt lat="44.29058" lon="1.07604">
        <ele>247.981485</ele>
        <time>2022-08-01T08:06:14.501Z</time>
      </trkpt>
      <trkpt lat="44.29067" lon="1.07597">
        <ele>249.021564</ele>
        <time>2022-08-01T08:06:18.477Z</time>
      </trkpt>
      <trkpt lat="44.29075" lon="1.07587">
        <ele>250.083951</ele>
        <time>2022-08-01T08:06:22.501Z</time>
      </trkpt>
      <trkpt lat="44.29082" lon="1.07578">
        <ele>251.098374</ele>
        <time>2022-08-01T08:06:26.495Z</time>
      </trkpt>
      <trkpt lat="44.2909" lon="1.07568">
        <ele>252.148442</ele>
        <time>2022-08-01T08:06:31.499Z</time>
      </trkpt>
      <trkpt lat="44.29098" lon="1.07558">
        <ele>253.19478</ele>
        <time>2022-08-01T08:06:36.466Z</time>
      </trkpt>
      <trkpt lat="44.29106" lon="1.07547">
        <ele>254.349689</ele>
        <time>2022-08-01T08:06:40.493Z</time>
      </trkpt>
      <trkpt lat="44.29115" lon="1.07536">
        <ele>255.523586</ele>
        <time>2022-08-01T08:06:44.497Z</time>
      </trkpt>
      <trkpt lat="44.29121" lon="1.07526">
        <ele>256.465371</ele>
        <time>2022-08-01T08:06:48.493Z</time>
      </trkpt>
      <trkpt lat="44.29129" lon="1.07518">
        <ele>257.462088</ele>
        <time>2022-08-01T08:06:52.486Z</time>
      </trkpt>
      <trkpt lat="44.29137" lon="1.07511">
        <ele>258.392839</ele>
        <time>2022-08-01T08:06:55.501Z</time>
      </trkpt>
      <trkpt lat="44.29145" lon="1.07499">
        <ele>259.593503</ele>
        <time>2022-08-01T08:06:59.526Z</time>
      </trkpt>
      <trkpt lat="44.29152" lon="1.0749">
        <ele>260.554164</ele>
        <time>2022-08-01T08:07:02.497Z</time>
      </trkpt>
      <trkpt lat="44.2916" lon="1.07479">
        <ele>260.578401</ele>
        <time>2022-08-01T08:07:06.495Z</time>
      </trkpt>
      <trkpt lat="44.29167" lon="1.07467">
        <ele>260.248927</ele>
        <time>2022-08-01T08:07:10.495Z</time>
      </trkpt>
      <trkpt lat="44.29172" lon="1.07456">
        <ele>259.966444</ele>
        <time>2022-08-01T08:07:14.494Z</time>
      </trkpt>
      <trkpt lat="44.29178" lon="1.07443">
        <ele>259.615988</ele>
        <time>2022-08-01T08:07:18.514Z</time>
      </trkpt>
      <trkpt lat="44.29183" lon="1.0743">
        <ele>259.291192</ele>
        <time>2022-08-01T08:07:21.484Z</time>
      </trkpt>
      <trkpt lat="44.29188" lon="1.07417">
        <ele>258.974505</ele>
        <time>2022-08-01T08:07:23.520Z</time>
      </trkpt>
      <trkpt lat="44.29192" lon="1.07404">
        <ele>258.664462</ele>
        <time>2022-08-01T08:07:25.487Z</time>
      </trkpt>
      <trkpt lat="44.29199" lon="1.07387">
        <ele>258.245697</ele>
        <time>2022-08-01T08:07:28.503Z</time>
      </trkpt>
      <trkpt lat="44.29205" lon="1.07371">
        <ele>257.843465</ele>
        <time>2022-08-01T08:07:30.489Z</time>
      </trkpt>
      <trkpt lat="44.29209" lon="1.07353">
        <ele>257.415189</ele>
        <time>2022-08-01T08:07:32.505Z</time>
      </trkpt>
      <trkpt lat="44.29215" lon="1.07338">
        <ele>257.038969</ele>
        <time>2022-08-01T08:07:34.480Z</time>
      </trkpt>
      <trkpt lat="44.29224" lon="1.07318">
        <ele>256.531363</ele>
        <time>2022-08-01T08:07:36.508Z</time>
      </trkpt>
      <trkpt lat="44.29233" lon="1.073">
        <ele>256.036198</ele>
        <time>2022-08-01T08:07:38.507Z</time>
      </trkpt>
      <trkpt lat="44.2924" lon="1.07282">
        <ele>255.585579</ele>
        <time>2022-08-01T08:07:40.488Z</time>
      </trkpt>
      <trkpt lat="44.29249" lon="1.07267">
        <ele>255.23669</ele>
        <time>2022-08-01T08:07:42.496Z</time>
      </trkpt>
      <trkpt lat="44.2926" lon="1.0725">
        <ele>254.992719</ele>
        <time>2022-08-01T08:07:44.495Z</time>
      </trkpt>
      <trkpt lat="44.2927" lon="1.07239">
        <ele>254.794317</ele>
        <time>2022-08-01T08:07:46.510Z</time>
      </trkpt>
      <trkpt lat="44.29282" lon="1.07227">
        <ele>254.564718</ele>
        <time>2022-08-01T08:07:48.488Z</time>
      </trkpt>
      <trkpt lat="44.29293" lon="1.07215">
        <ele>254.357003</ele>
        <time>2022-08-01T08:07:50.480Z</time>
      </trkpt>
      <trkpt lat="44.29306" lon="1.07205">
        <ele>254.136024</ele>
        <time>2022-08-01T08:07:52.501Z</time>
      </trkpt>
      <trkpt lat="44.29318" lon="1.07199">
        <ele>253.940978</ele>
        <time>2022-08-01T08:07:54.483Z</time>
      </trkpt>
      <trkpt lat="44.2933" lon="1.07191">
        <ele>253.732349</ele>
        <time>2022-08-01T08:07:56.488Z</time>
      </trkpt>
      <trkpt lat="44.29341" lon="1.07181">
        <ele>253.532403</ele>
        <time>2022-08-01T08:07:58.517Z</time>
      </trkpt>
      <trkpt lat="44.29353" lon="1.07172">
        <ele>253.314921</ele>
        <time>2022-08-01T08:08:00.498Z</time>
      </trkpt>
      <trkpt lat="44.29366" lon="1.07165">
        <ele>253.116252</ele>
        <time>2022-08-01T08:08:02.513Z</time>
      </trkpt>
      <trkpt lat="44.29378" lon="1.07157">
        <ele>252.90165</ele>
        <time>2022-08-01T08:08:04.527Z</time>
      </trkpt>
      <trkpt lat="44.29391" lon="1.07146">
        <ele>252.670522</ele>
        <time>2022-08-01T08:08:06.509Z</time>
      </trkpt>
      <trkpt lat="44.29405" lon="1.07134">
        <ele>252.580552</ele>
        <time>2022-08-01T08:08:08.498Z</time>
      </trkpt>
      <trkpt lat="44.29418" lon="1.07122">
        <ele>252.601872</ele>
        <time>2022-08-01T08:08:10.497Z</time>
      </trkpt>
      <trkpt lat="44.29431" lon="1.07109">
        <ele>252.624098</ele>
        <time>2022-08-01T08:08:12.496Z</time>
      </trkpt>
      <trkpt lat="44.29442" lon="1.07097">
        <ele>252.64347</ele>
        <time>2022-08-01T08:08:14.512Z</time>
      </trkpt>
      <trkpt lat="44.29453" lon="1.07085">
        <ele>252.662891</ele>
        <time>2022-08-01T08:08:16.498Z</time>
      </trkpt>
      <trkpt lat="44.29466" lon="1.07072">
        <ele>252.684269</ele>
        <time>2022-08-01T08:08:18.506Z</time>
      </trkpt>
      <trkpt lat="44.29479" lon="1.07062">
        <ele>252.705387</ele>
        <time>2022-08-01T08:08:20.503Z</time>
      </trkpt>
      <trkpt lat="44.29494" lon="1.07053">
        <ele>252.727623</ele>
        <time>2022-08-01T08:08:22.519Z</time>
      </trkpt>
      <trkpt lat="44.29511" lon="1.07045">
        <ele>252.751924</ele>
        <time>2022-08-01T08:08:24.498Z</time>
      </trkpt>
      <trkpt lat="44.29527" lon="1.07037">
        <ele>252.775079</ele>
        <time>2022-08-01T08:08:26.493Z</time>
      </trkpt>
      <trkpt lat="44.29542" lon="1.07026">
        <ele>252.798534</ele>
        <time>2022-08-01T08:08:28.509Z</time>
      </trkpt>
      <trkpt lat="44.29558" lon="1.07014">
        <ele>252.340124</ele>
        <time>2022-08-01T08:08:30.496Z</time>
      </trkpt>
      <trkpt lat="44.29566" lon="1.0701">
        <ele>251.633189</ele>
        <time>2022-08-01T08:08:31.493Z</time>
      </trkpt>
      <trkpt lat="44.29582" lon="1.07005">
        <ele>250.413041</ele>
        <time>2022-08-01T08:08:33.501Z</time>
      </trkpt>
      <trkpt lat="44.29595" lon="1.07001">
        <ele>249.378624</ele>
        <time>2022-08-01T08:08:35.529Z</time>
      </trkpt>
      <trkpt lat="44.29607" lon="1.07">
        <ele>248.396467</ele>
        <time>2022-08-01T08:08:38.494Z</time>
      </trkpt>
      <trkpt lat="44.29616" lon="1.06998">
        <ele>247.665258</ele>
        <time>2022-08-01T08:08:41.527Z</time>
      </trkpt>
      <trkpt lat="44.29628" lon="1.06993">
        <ele>246.727165</ele>
        <time>2022-08-01T08:08:45.499Z</time>
      </trkpt>
      <trkpt lat="44.29638" lon="1.06988">
        <ele>245.889761</ele>
        <time>2022-08-01T08:08:48.486Z</time>
      </trkpt>
      <trkpt lat="44.29646" lon="1.06982">
        <ele>245.184839</ele>
        <time>2022-08-01T08:08:51.501Z</time>
      </trkpt>
      <trkpt lat="44.29655" lon="1.06975">
        <ele>244.387526</ele>
        <time>2022-08-01T08:08:54.488Z</time>
      </trkpt>
      <trkpt lat="44.29664" lon="1.06966">
        <ele>243.523261</ele>
        <time>2022-08-01T08:08:57.499Z</time>
      </trkpt>
      <trkpt lat="44.29674" lon="1.06956">
        <ele>242.572552</ele>
        <time>2022-08-01T08:09:00.486Z</time>
      </trkpt>
      <trkpt lat="44.29682" lon="1.06942">
        <ele>241.573112</ele>
        <time>2022-08-01T08:09:02.511Z</time>
      </trkpt>
      <trkpt lat="44.2969" lon="1.06931">
        <ele>240.730464</ele>
        <time>2022-08-01T08:09:05.513Z</time>
      </trkpt>
      <trkpt lat="44.29699" lon="1.06922">
        <ele>239.843368</ele>
        <time>2022-08-01T08:09:08.483Z</time>
      </trkpt>
      <trkpt lat="44.29712" lon="1.06906">
        <ele>239.177832</ele>
        <time>2022-08-01T08:09:11.513Z</time>
      </trkpt>
      <trkpt lat="44.29723" lon="1.06898">
        <ele>240.218885</ele>
        <time>2022-08-01T08:09:14.488Z</time>
      </trkpt>
      <trkpt lat="44.2973" lon="1.0689">
        <ele>241.033097</ele>
        <time>2022-08-01T08:09:17.519Z</time>
      </trkpt>
      <trkpt lat="44.29736" lon="1.06881">
        <ele>241.823817</ele>
        <time>2022-08-01T08:09:19.484Z</time>
      </trkpt>
      <trkpt lat="44.29741" lon="1.06869">
        <ele>242.69937</ele>
        <time>2022-08-01T08:09:21.496Z</time>
      </trkpt>
      <trkpt lat="44.29749" lon="1.06858">
        <ele>243.680316</ele>
        <time>2022-08-01T08:09:23.527Z</time>
      </trkpt>
      <trkpt lat="44.29759" lon="1.06847">
        <ele>244.78471</ele>
        <time>2022-08-01T08:09:25.487Z</time>
      </trkpt>
      <trkpt lat="44.29771" lon="1.06837">
        <ele>246.039589</ele>
        <time>2022-08-01T08:09:28.491Z</time>
      </trkpt>
      <trkpt lat="44.29778" lon="1.06824">
        <ele>247.062407</ele>
        <time>2022-08-01T08:09:30.481Z</time>
      </trkpt>
      <trkpt lat="44.29786" lon="1.06814">
        <ele>247.953819</ele>
        <time>2022-08-01T08:09:32.510Z</time>
      </trkpt>
      <trkpt lat="44.29792" lon="1.06803">
        <ele>248.849388</ele>
        <time>2022-08-01T08:09:34.488Z</time>
      </trkpt>
      <trkpt lat="44.29799" lon="1.06793">
        <ele>249.749953</ele>
        <time>2022-08-01T08:09:36.489Z</time>
      </trkpt>
      <trkpt lat="44.29812" lon="1.06786">
        <ele>250.929659</ele>
        <time>2022-08-01T08:09:39.481Z</time>
      </trkpt>
      <trkpt lat="44.29824" lon="1.0678">
        <ele>252.01775</ele>
        <time>2022-08-01T08:09:42.485Z</time>
      </trkpt>
      <trkpt lat="44.29833" lon="1.06773">
        <ele>252.950419</ele>
        <time>2022-08-01T08:09:45.501Z</time>
      </trkpt>
      <trkpt lat="44.29843" lon="1.06767">
        <ele>253.891425</ele>
        <time>2022-08-01T08:09:48.491Z</time>
      </trkpt>
      <trkpt lat="44.29852" lon="1.06759">
        <ele>254.607865</ele>
        <time>2022-08-01T08:09:51.490Z</time>
      </trkpt>
      <trkpt lat="44.29862" lon="1.06751">
        <ele>254.823879</ele>
        <time>2022-08-01T08:09:54.489Z</time>
      </trkpt>
      <trkpt lat="44.29871" lon="1.06744">
        <ele>255.036478</ele>
        <time>2022-08-01T08:09:57.504Z</time>
      </trkpt>
      <trkpt lat="44.2988" lon="1.06738">
        <ele>255.237518</ele>
        <time>2022-08-01T08:10:01.488Z</time>
      </trkpt>
      <trkpt lat="44.29889" lon="1.06733">
        <ele>255.419795</ele>
        <time>2022-08-01T08:10:04.498Z</time>
      </trkpt>
      <trkpt lat="44.299" lon="1.06728">
        <ele>255.644374</ele>
        <time>2022-08-01T08:10:08.473Z</time>
      </trkpt>
      <trkpt lat="44.29911" lon="1.06719">
        <ele>255.88956</ele>
        <time>2022-08-01T08:10:12.501Z</time>
      </trkpt>
      <trkpt lat="44.29919" lon="1.06711">
        <ele>256.084129</ele>
        <time>2022-08-01T08:10:15.498Z</time>
      </trkpt>
      <trkpt lat="44.29927" lon="1.06704">
        <ele>256.260332</ele>
        <time>2022-08-01T08:10:19.485Z</time>
      </trkpt>
      <trkpt lat="44.29933" lon="1.06694">
        <ele>256.446341</ele>
        <time>2022-08-01T08:10:22.497Z</time>
      </trkpt>
      <trkpt lat="44.29939" lon="1.06683">
        <ele>256.640173</ele>
        <time>2022-08-01T08:10:25.489Z</time>
      </trkpt>
      <trkpt lat="44.29946" lon="1.06669">
        <ele>256.877056</ele>
        <time>2022-08-01T08:10:28.493Z</time>
      </trkpt>
      <trkpt lat="44.29952" lon="1.06654">
        <ele>257.112901</ele>
        <time>2022-08-01T08:10:31.524Z</time>
      </trkpt>
      <trkpt lat="44.29958" lon="1.0664">
        <ele>257.348044</ele>
        <time>2022-08-01T08:10:34.485Z</time>
      </trkpt>
      <trkpt lat="44.29966" lon="1.0663">
        <ele>257.544556</ele>
        <time>2022-08-01T08:10:37.499Z</time>
      </trkpt>
      <trkpt lat="44.29976" lon="1.06631">
        <ele>257.741416</ele>
        <time>2022-08-01T08:10:40.480Z</time>
      </trkpt>
      <trkpt lat="44.29988" lon="1.06645">
        <ele>258.044016</ele>
        <time>2022-08-01T08:10:43.501Z</time>
      </trkpt>
      <trkpt lat="44.29997" lon="1.06652">
        <ele>257.403787</ele>
        <time>2022-08-01T08:10:45.497Z</time>
      </trkpt>
      <trkpt lat="44.30006" lon="1.06659">
        <ele>256.729555</ele>
        <time>2022-08-01T08:10:47.516Z</time>
      </trkpt>
      <trkpt lat="44.30016" lon="1.06667">
        <ele>256.016464</ele>
        <time>2022-08-01T08:10:49.499Z</time>
      </trkpt>
      <trkpt lat="44.30025" lon="1.06676">
        <ele>255.330029</ele>
        <time>2022-08-01T08:10:51.483Z</time>
      </trkpt>
      <trkpt lat="44.30036" lon="1.06686">
        <ele>254.514481</ele>
        <time>2022-08-01T08:10:53.529Z</time>
      </trkpt>
      <trkpt lat="44.30046" lon="1.06697">
        <ele>253.687291</ele>
        <time>2022-08-01T08:10:55.491Z</time>
      </trkpt>
      <trkpt lat="44.30055" lon="1.06707">
        <ele>252.925496</ele>
        <time>2022-08-01T08:10:57.496Z</time>
      </trkpt>
      <trkpt lat="44.30064" lon="1.06718">
        <ele>252.205846</ele>
        <time>2022-08-01T08:10:59.528Z</time>
      </trkpt>
      <trkpt lat="44.30071" lon="1.06728">
        <ele>251.566999</ele>
        <time>2022-08-01T08:11:01.507Z</time>
      </trkpt>
      <trkpt lat="44.30081" lon="1.06734">
        <ele>250.873091</ele>
        <time>2022-08-01T08:11:03.494Z</time>
      </trkpt>
      <trkpt lat="44.3009" lon="1.06741">
        <ele>250.20574</ele>
        <time>2022-08-01T08:11:05.516Z</time>
      </trkpt>
      <trkpt lat="44.30097" lon="1.0675">
        <ele>249.623216</ele>
        <time>2022-08-01T08:11:07.491Z</time>
      </trkpt>
      <trkpt lat="44.30107" lon="1.06761">
        <ele>248.804334</ele>
        <time>2022-08-01T08:11:10.502Z</time>
      </trkpt>
      <trkpt lat="44.30118" lon="1.0677">
        <ele>248.004805</ele>
        <time>2022-08-01T08:11:13.482Z</time>
      </trkpt>
      <trkpt lat="44.30127" lon="1.06781">
        <ele>247.252922</ele>
        <time>2022-08-01T08:11:16.490Z</time>
      </trkpt>
      <trkpt lat="44.3014" lon="1.06788">
        <ele>246.768667</ele>
        <time>2022-08-01T08:11:19.485Z</time>
      </trkpt>
      <trkpt lat="44.3015" lon="1.06778">
        <ele>246.982285</ele>
        <time>2022-08-01T08:11:22.486Z</time>
      </trkpt>
      <trkpt lat="44.30159" lon="1.06773">
        <ele>247.141318</ele>
        <time>2022-08-01T08:11:24.496Z</time>
      </trkpt>
      <trkpt lat="44.30169" lon="1.06766">
        <ele>247.345432</ele>
        <time>2022-08-01T08:11:27.488Z</time>
      </trkpt>
      <trkpt lat="44.30178" lon="1.06758">
        <ele>247.53065</ele>
        <time>2022-08-01T08:11:30.519Z</time>
      </trkpt>
      <trkpt lat="44.30188" lon="1.06752">
        <ele>247.715346</ele>
        <time>2022-08-01T08:11:32.506Z</time>
      </trkpt>
      <trkpt lat="44.30197" lon="1.06753">
        <ele>247.872333</ele>
        <time>2022-08-01T08:11:34.498Z</time>
      </trkpt>
      <trkpt lat="44.3021" lon="1.06763">
        <ele>248.124853</ele>
        <time>2022-08-01T08:11:37.479Z</time>
      </trkpt>
      <trkpt lat="44.3022" lon="1.06773">
        <ele>248.347619</ele>
        <time>2022-08-01T08:11:39.499Z</time>
      </trkpt>
      <trkpt lat="44.3023" lon="1.06784">
        <ele>248.559725</ele>
        <time>2022-08-01T08:11:41.518Z</time>
      </trkpt>
      <trkpt lat="44.30239" lon="1.06793">
        <ele>248.756895</ele>
        <time>2022-08-01T08:11:44.492Z</time>
      </trkpt>
      <trkpt lat="44.30248" lon="1.06803">
        <ele>248.961881</ele>
        <time>2022-08-01T08:11:46.508Z</time>
      </trkpt>
      <trkpt lat="44.30257" lon="1.06811">
        <ele>249.146435</ele>
        <time>2022-08-01T08:11:48.500Z</time>
      </trkpt>
      <trkpt lat="44.30265" lon="1.06818">
        <ele>249.310999</ele>
        <time>2022-08-01T08:11:50.480Z</time>
      </trkpt>
      <trkpt lat="44.30275" lon="1.06825">
        <ele>249.494098</ele>
        <time>2022-08-01T08:11:52.497Z</time>
      </trkpt>
      <trkpt lat="44.30287" lon="1.06828">
        <ele>249.715634</ele>
        <time>2022-08-01T08:11:55.483Z</time>
      </trkpt>
      <trkpt lat="44.30297" lon="1.06824">
        <ele>249.830921</ele>
        <time>2022-08-01T08:11:57.489Z</time>
      </trkpt>
      <trkpt lat="44.30308" lon="1.06819">
        <ele>249.879461</ele>
        <time>2022-08-01T08:11:59.519Z</time>
      </trkpt>
      <trkpt lat="44.30317" lon="1.06813">
        <ele>249.926468</ele>
        <time>2022-08-01T08:12:01.503Z</time>
      </trkpt>
      <trkpt lat="44.30332" lon="1.06809">
        <ele>249.993647</ele>
        <time>2022-08-01T08:12:03.492Z</time>
      </trkpt>
      <trkpt lat="44.30344" lon="1.06809">
        <ele>250.046488</ele>
        <time>2022-08-01T08:12:05.533Z</time>
      </trkpt>
      <trkpt lat="44.30359" lon="1.06808">
        <ele>250.114476</ele>
        <time>2022-08-01T08:12:07.493Z</time>
      </trkpt>
      <trkpt lat="44.30368" lon="1.06805">
        <ele>250.154617</ele>
        <time>2022-08-01T08:12:08.499Z</time>
      </trkpt>
      <trkpt lat="44.30382" lon="1.06801">
        <ele>250.21719</ele>
        <time>2022-08-01T08:12:10.485Z</time>
      </trkpt>
      <trkpt lat="44.30398" lon="1.06794">
        <ele>250.290854</ele>
        <time>2022-08-01T08:12:12.495Z</time>
      </trkpt>
      <trkpt lat="44.30412" lon="1.0679">
        <ele>250.354054</ele>
        <time>2022-08-01T08:12:14.490Z</time>
      </trkpt>
      <trkpt lat="44.30428" lon="1.06787">
        <ele>250.425671</ele>
        <time>2022-08-01T08:12:16.489Z</time>
      </trkpt>
      <trkpt lat="44.30445" lon="1.06785">
        <ele>250.503919</ele>
        <time>2022-08-01T08:12:18.481Z</time>
      </trkpt>
      <trkpt lat="44.30463" lon="1.06784">
        <ele>250.582667</ele>
        <time>2022-08-01T08:12:20.500Z</time>
      </trkpt>
      <trkpt lat="44.30474" lon="1.06782">
        <ele>250.42581</ele>
        <time>2022-08-01T08:12:21.500Z</time>
      </trkpt>
      <trkpt lat="44.30492" lon="1.0678">
        <ele>249.867398</ele>
        <time>2022-08-01T08:12:23.526Z</time>
      </trkpt>
      <trkpt lat="44.30502" lon="1.06777">
        <ele>249.53482</ele>
        <time>2022-08-01T08:12:24.501Z</time>
      </trkpt>
      <trkpt lat="44.30517" lon="1.06768">
        <ele>249.018553</ele>
        <time>2022-08-01T08:12:26.482Z</time>
      </trkpt>
      <trkpt lat="44.30525" lon="1.06762">
        <ele>248.729243</ele>
        <time>2022-08-01T08:12:27.501Z</time>
      </trkpt>
      <trkpt lat="44.30534" lon="1.06758">
        <ele>248.434016</ele>
        <time>2022-08-01T08:12:28.513Z</time>
      </trkpt>
      <trkpt lat="44.30543" lon="1.06753">
        <ele>248.115752</ele>
        <time>2022-08-01T08:12:29.531Z</time>
      </trkpt>
      <trkpt lat="44.30552" lon="1.06747">
        <ele>247.795798</ele>
        <time>2022-08-01T08:12:30.513Z</time>
      </trkpt>
      <trkpt lat="44.30569" lon="1.06736">
        <ele>247.223573</ele>
        <time>2022-08-01T08:12:32.498Z</time>
      </trkpt>
      <trkpt lat="44.30586" lon="1.06728">
        <ele>246.670314</ele>
        <time>2022-08-01T08:12:34.502Z</time>
      </trkpt>
      <trkpt lat="44.30603" lon="1.0672">
        <ele>246.104447</ele>
        <time>2022-08-01T08:12:36.503Z</time>
      </trkpt>
      <trkpt lat="44.30612" lon="1.06716">
        <ele>245.781583</ele>
        <time>2022-08-01T08:12:37.502Z</time>
      </trkpt>
      <trkpt lat="44.30622" lon="1.06712">
        <ele>245.452608</ele>
        <time>2022-08-01T08:12:38.495Z</time>
      </trkpt>
      <trkpt lat="44.30632" lon="1.06709">
        <ele>245.13747</ele>
        <time>2022-08-01T08:12:39.483Z</time>
      </trkpt>
      <trkpt lat="44.30643" lon="1.06708">
        <ele>244.797707</ele>
        <time>2022-08-01T08:12:40.485Z</time>
      </trkpt>
      <trkpt lat="44.30653" lon="1.06708">
        <ele>244.434182</ele>
        <time>2022-08-01T08:12:41.521Z</time>
      </trkpt>
      <trkpt lat="44.30665" lon="1.06708">
        <ele>244.046871</ele>
        <time>2022-08-01T08:12:42.486Z</time>
      </trkpt>
      <trkpt lat="44.30675" lon="1.06708">
        <ele>243.683544</ele>
        <time>2022-08-01T08:12:43.504Z</time>
      </trkpt>
      <trkpt lat="44.30685" lon="1.06707">
        <ele>243.333901</ele>
        <time>2022-08-01T08:12:44.499Z</time>
      </trkpt>
      <trkpt lat="44.30696" lon="1.0671">
        <ele>242.954897</ele>
        <time>2022-08-01T08:12:45.498Z</time>
      </trkpt>
      <trkpt lat="44.30709" lon="1.0671">
        <ele>242.502462</ele>
        <time>2022-08-01T08:12:47.524Z</time>
      </trkpt>
      <trkpt lat="44.30726" lon="1.06711">
        <ele>241.932964</ele>
        <time>2022-08-01T08:12:49.495Z</time>
      </trkpt>
      <trkpt lat="44.30736" lon="1.06712">
        <ele>241.578491</ele>
        <time>2022-08-01T08:12:51.492Z</time>
      </trkpt>
      <trkpt lat="44.30748" lon="1.06711">
        <ele>241.186024</ele>
        <time>2022-08-01T08:12:53.522Z</time>
      </trkpt>
      <trkpt lat="44.30758" lon="1.06713">
        <ele>240.82211</ele>
        <time>2022-08-01T08:12:55.482Z</time>
      </trkpt>
      <trkpt lat="44.30771" lon="1.06713">
        <ele>240.400524</ele>
        <time>2022-08-01T08:12:58.504Z</time>
      </trkpt>
      <trkpt lat="44.30782" lon="1.06711">
        <ele>240.01779</ele>
        <time>2022-08-01T08:13:01.504Z</time>
      </trkpt>
      <trkpt lat="44.30793" lon="1.06708">
        <ele>239.617685</ele>
        <time>2022-08-01T08:13:05.514Z</time>
      </trkpt>
      <trkpt lat="44.30804" lon="1.06704">
        <ele>239.221463</ele>
        <time>2022-08-01T08:13:10.491Z</time>
      </trkpt>
      <trkpt lat="44.30821" lon="1.06701">
        <ele>238.706651</ele>
        <time>2022-08-01T08:13:13.497Z</time>
      </trkpt>
      <trkpt lat="44.30836" lon="1.06696">
        <ele>238.414108</ele>
        <time>2022-08-01T08:13:15.488Z</time>
      </trkpt>
      <trkpt lat="44.30852" lon="1.06694">
        <ele>238.114327</ele>
        <time>2022-08-01T08:13:17.518Z</time>
      </trkpt>
      <trkpt lat="44.30869" lon="1.06695">
        <ele>237.792561</ele>
        <time>2022-08-01T08:13:19.484Z</time>
      </trkpt>
      <trkpt lat="44.30886" lon="1.06694">
        <ele>237.470795</ele>
        <time>2022-08-01T08:13:21.499Z</time>
      </trkpt>
      <trkpt lat="44.30903" lon="1.06692">
        <ele>237.1628</ele>
        <time>2022-08-01T08:13:23.515Z</time>
      </trkpt>
      <trkpt lat="44.30921" lon="1.06689">
        <ele>236.816335</ele>
        <time>2022-08-01T08:13:25.494Z</time>
      </trkpt>
      <trkpt lat="44.30931" lon="1.06687">
        <ele>236.623967</ele>
        <time>2022-08-01T08:13:26.487Z</time>
      </trkpt>
      <trkpt lat="44.30941" lon="1.06686">
        <ele>236.43831</ele>
        <time>2022-08-01T08:13:27.495Z</time>
      </trkpt>
      <trkpt lat="44.30952" lon="1.06684">
        <ele>236.245162</ele>
        <time>2022-08-01T08:13:28.489Z</time>
      </trkpt>
      <trkpt lat="44.30963" lon="1.06682">
        <ele>236.021253</ele>
        <time>2022-08-01T08:13:29.546Z</time>
      </trkpt>
      <trkpt lat="44.30974" lon="1.06681">
        <ele>235.832323</ele>
        <time>2022-08-01T08:13:30.492Z</time>
      </trkpt>
      <trkpt lat="44.30983" lon="1.06681">
        <ele>235.656515</ele>
        <time>2022-08-01T08:13:31.483Z</time>
      </trkpt>
      <trkpt lat="44.30992" lon="1.06688">
        <ele>235.467532</ele>
        <time>2022-08-01T08:13:32.499Z</time>
      </trkpt>
      <trkpt lat="44.31" lon="1.06694">
        <ele>236.549761</ele>
        <time>2022-08-01T08:13:33.489Z</time>
      </trkpt>
      <trkpt lat="44.3101" lon="1.0671">
        <ele>239.155795</ele>
        <time>2022-08-01T08:13:35.520Z</time>
      </trkpt>
      <trkpt lat="44.31017" lon="1.06731">
        <ele>241.903428</ele>
        <time>2022-08-01T08:13:37.473Z</time>
      </trkpt>
      <trkpt lat="44.31024" lon="1.06747">
        <ele>244.30618</ele>
        <time>2022-08-01T08:13:39.485Z</time>
      </trkpt>
      <trkpt lat="44.31034" lon="1.06757">
        <ele>246.415908</ele>
        <time>2022-08-01T08:13:41.526Z</time>
      </trkpt>
      <trkpt lat="44.31045" lon="1.06764">
        <ele>248.466316</ele>
        <time>2022-08-01T08:13:43.476Z</time>
      </trkpt>
      <trkpt lat="44.31055" lon="1.06769">
        <ele>250.344876</ele>
        <time>2022-08-01T08:13:45.489Z</time>
      </trkpt>
      <trkpt lat="44.31064" lon="1.06776">
        <ele>252.114242</ele>
        <time>2022-08-01T08:13:47.516Z</time>
      </trkpt>
      <trkpt lat="44.31074" lon="1.06782">
        <ele>253.94538</ele>
        <time>2022-08-01T08:13:50.483Z</time>
      </trkpt>
      <trkpt lat="44.31085" lon="1.0679">
        <ele>256.173402</ele>
        <time>2022-08-01T08:13:54.477Z</time>
      </trkpt>
      <trkpt lat="44.31095" lon="1.06793">
        <ele>257.854977</ele>
        <time>2022-08-01T08:13:57.487Z</time>
      </trkpt>
      <trkpt lat="44.31107" lon="1.068">
        <ele>260.067222</ele>
        <time>2022-08-01T08:14:00.484Z</time>
      </trkpt>
      <trkpt lat="44.31116" lon="1.06805">
        <ele>261.844854</ele>
        <time>2022-08-01T08:14:03.483Z</time>
      </trkpt>
      <trkpt lat="44.31125" lon="1.06812">
        <ele>263.647566</ele>
        <time>2022-08-01T08:14:06.498Z</time>
      </trkpt>
      <trkpt lat="44.31144" lon="1.06819">
        <ele>266.163859</ele>
        <time>2022-08-01T08:14:09.493Z</time>
      </trkpt>
      <trkpt lat="44.31155" lon="1.06834">
        <ele>264.780413</ele>
        <time>2022-08-01T08:14:12.493Z</time>
      </trkpt>
      <trkpt lat="44.31165" lon="1.0683">
        <ele>263.877159</ele>
        <time>2022-08-01T08:14:14.481Z</time>
      </trkpt>
      <trkpt lat="44.31173" lon="1.06835">
        <ele>263.007883</ele>
        <time>2022-08-01T08:14:16.487Z</time>
      </trkpt>
      <trkpt lat="44.31186" lon="1.06831">
        <ele>261.850479</ele>
        <time>2022-08-01T08:14:23.510Z</time>
      </trkpt>
      <trkpt lat="44.31201" lon="1.06831">
        <ele>260.483108</ele>
        <time>2022-08-01T08:14:26.515Z</time>
      </trkpt>
      <trkpt lat="44.31213" lon="1.06829">
        <ele>259.304385</ele>
        <time>2022-08-01T08:14:28.495Z</time>
      </trkpt>
      <trkpt lat="44.31223" lon="1.06827">
        <ele>258.425055</ele>
        <time>2022-08-01T08:14:30.488Z</time>
      </trkpt>
      <trkpt lat="44.31235" lon="1.06823">
        <ele>257.294483</ele>
        <time>2022-08-01T08:14:32.474Z</time>
      </trkpt>
      <trkpt lat="44.31247" lon="1.06822">
        <ele>256.163018</ele>
        <time>2022-08-01T08:14:34.485Z</time>
      </trkpt>
      <trkpt lat="44.31259" lon="1.06816">
        <ele>254.993476</ele>
        <time>2022-08-01T08:14:36.528Z</time>
      </trkpt>
      <trkpt lat="44.31273" lon="1.06812">
        <ele>253.693758</ele>
        <time>2022-08-01T08:14:38.484Z</time>
      </trkpt>
      <trkpt lat="44.31287" lon="1.06807">
        <ele>252.41706</ele>
        <time>2022-08-01T08:14:40.483Z</time>
      </trkpt>
      <trkpt lat="44.31297" lon="1.06803">
        <ele>251.416618</ele>
        <time>2022-08-01T08:14:42.492Z</time>
      </trkpt>
      <trkpt lat="44.31309" lon="1.06795">
        <ele>250.202155</ele>
        <time>2022-08-01T08:14:44.497Z</time>
      </trkpt>
      <trkpt lat="44.31322" lon="1.06793">
        <ele>250.142493</ele>
        <time>2022-08-01T08:14:46.489Z</time>
      </trkpt>
      <trkpt lat="44.31331" lon="1.06783">
        <ele>250.327273</ele>
        <time>2022-08-01T08:14:47.518Z</time>
      </trkpt>
      <trkpt lat="44.31347" lon="1.06775">
        <ele>250.611416</ele>
        <time>2022-08-01T08:14:49.500Z</time>
      </trkpt>
      <trkpt lat="44.31362" lon="1.06764">
        <ele>250.88584</ele>
        <time>2022-08-01T08:14:51.489Z</time>
      </trkpt>
      <trkpt lat="44.31374" lon="1.06763">
        <ele>251.09939</ele>
        <time>2022-08-01T08:14:53.529Z</time>
      </trkpt>
      <trkpt lat="44.31389" lon="1.06753">
        <ele>251.369173</ele>
        <time>2022-08-01T08:14:55.501Z</time>
      </trkpt>
      <trkpt lat="44.31401" lon="1.06747">
        <ele>251.581425</ele>
        <time>2022-08-01T08:14:57.479Z</time>
      </trkpt>
      <trkpt lat="44.31416" lon="1.06741">
        <ele>251.8389</ele>
        <time>2022-08-01T08:14:59.514Z</time>
      </trkpt>
      <trkpt lat="44.3143" lon="1.06737">
        <ele>252.076964</ele>
        <time>2022-08-01T08:15:01.496Z</time>
      </trkpt>
      <trkpt lat="44.31443" lon="1.06737">
        <ele>252.298467</ele>
        <time>2022-08-01T08:15:03.495Z</time>
      </trkpt>
      <trkpt lat="44.31456" lon="1.06741">
        <ele>252.52501</ele>
        <time>2022-08-01T08:15:05.509Z</time>
      </trkpt>
      <trkpt lat="44.31467" lon="1.06745">
        <ele>252.714586</ele>
        <time>2022-08-01T08:15:07.493Z</time>
      </trkpt>
      <trkpt lat="44.31479" lon="1.06749">
        <ele>252.921101</ele>
        <time>2022-08-01T08:15:09.494Z</time>
      </trkpt>
      <trkpt lat="44.31491" lon="1.06754">
        <ele>255.657404</ele>
        <time>2022-08-01T08:15:11.511Z</time>
      </trkpt>
      <trkpt lat="44.31504" lon="1.06763">
        <ele>259.690947</ele>
        <time>2022-08-01T08:15:13.491Z</time>
      </trkpt>
      <trkpt lat="44.31516" lon="1.06769">
        <ele>263.123407</ele>
        <time>2022-08-01T08:15:15.496Z</time>
      </trkpt>
      <trkpt lat="44.31527" lon="1.06776">
        <ele>266.451897</ele>
        <time>2022-08-01T08:15:17.519Z</time>
      </trkpt>
      <trkpt lat="44.31537" lon="1.06783">
        <ele>269.336503</ele>
        <time>2022-08-01T08:15:19.483Z</time>
      </trkpt>
      <trkpt lat="44.3155" lon="1.06788">
        <ele>272.963568</ele>
        <time>2022-08-01T08:15:22.469Z</time>
      </trkpt>
      <trkpt lat="44.31561" lon="1.06791">
        <ele>276.18106</ele>
        <time>2022-08-01T08:15:24.494Z</time>
      </trkpt>
      <trkpt lat="44.31571" lon="1.06785">
        <ele>279.093633</ele>
        <time>2022-08-01T08:15:30.498Z</time>
      </trkpt>
      <trkpt lat="44.31582" lon="1.06786">
        <ele>282.137499</ele>
        <time>2022-08-01T08:15:35.493Z</time>
      </trkpt>
      <trkpt lat="44.31593" lon="1.06786">
        <ele>284.934579</ele>
        <time>2022-08-01T08:15:39.497Z</time>
      </trkpt>
      <trkpt lat="44.31604" lon="1.06782">
        <ele>288.061686</ele>
        <time>2022-08-01T08:15:43.494Z</time>
      </trkpt>
      <trkpt lat="44.31613" lon="1.06784">
        <ele>290.570797</ele>
        <time>2022-08-01T08:15:48.468Z</time>
      </trkpt>
      <trkpt lat="44.31623" lon="1.06788">
        <ele>293.312005</ele>
        <time>2022-08-01T08:15:53.496Z</time>
      </trkpt>
      <trkpt lat="44.31632" lon="1.06792">
        <ele>295.894542</ele>
        <time>2022-08-01T08:15:59.482Z</time>
      </trkpt>
      <trkpt lat="44.31641" lon="1.06794">
        <ele>298.420752</ele>
        <time>2022-08-01T08:16:04.488Z</time>
      </trkpt>
      <trkpt lat="44.31652" lon="1.06797">
        <ele>301.431309</ele>
        <time>2022-08-01T08:16:08.510Z</time>
      </trkpt>
      <trkpt lat="44.31663" lon="1.06801">
        <ele>302.526408</ele>
        <time>2022-08-01T08:16:12.481Z</time>
      </trkpt>
      <trkpt lat="44.31671" lon="1.06806">
        <ele>303.222574</ele>
        <time>2022-08-01T08:16:15.489Z</time>
      </trkpt>
      <trkpt lat="44.31681" lon="1.06814">
        <ele>304.073406</ele>
        <time>2022-08-01T08:16:19.495Z</time>
      </trkpt>
      <trkpt lat="44.31687" lon="1.06825">
        <ele>304.850176</ele>
        <time>2022-08-01T08:16:24.498Z</time>
      </trkpt>
      <trkpt lat="44.31689" lon="1.06838">
        <ele>305.601193</ele>
        <time>2022-08-01T08:16:27.493Z</time>
      </trkpt>
      <trkpt lat="44.31692" lon="1.06852">
        <ele>306.363477</ele>
        <time>2022-08-01T08:16:30.473Z</time>
      </trkpt>
      <trkpt lat="44.31697" lon="1.06866">
        <ele>307.24881</ele>
        <time>2022-08-01T08:16:34.481Z</time>
      </trkpt>
      <trkpt lat="44.31702" lon="1.06877">
        <ele>307.950115</ele>
        <time>2022-08-01T08:16:37.497Z</time>
      </trkpt>
      <trkpt lat="44.31707" lon="1.06888">
        <ele>308.691397</ele>
        <time>2022-08-01T08:16:40.499Z</time>
      </trkpt>
      <trkpt lat="44.31714" lon="1.06899">
        <ele>309.451396</ele>
        <time>2022-08-01T08:16:43.496Z</time>
      </trkpt>
      <trkpt lat="44.31721" lon="1.06909">
        <ele>310.25801</ele>
        <time>2022-08-01T08:16:46.506Z</time>
      </trkpt>
      <trkpt lat="44.31729" lon="1.0692">
        <ele>311.106591</ele>
        <time>2022-08-01T08:16:49.499Z</time>
      </trkpt>
      <trkpt lat="44.31738" lon="1.06932">
        <ele>312.029514</ele>
        <time>2022-08-01T08:16:52.496Z</time>
      </trkpt>
      <trkpt lat="44.31745" lon="1.06946">
        <ele>312.990481</ele>
        <time>2022-08-01T08:16:54.468Z</time>
      </trkpt>
      <trkpt lat="44.31753" lon="1.06957">
        <ele>313.847592</ele>
        <time>2022-08-01T08:16:56.521Z</time>
      </trkpt>
      <trkpt lat="44.3176" lon="1.06966">
        <ele>314.585875</ele>
        <time>2022-08-01T08:16:58.470Z</time>
      </trkpt>
      <trkpt lat="44.31771" lon="1.06978">
        <ele>315.31418</ele>
        <time>2022-08-01T08:17:01.483Z</time>
      </trkpt>
      <trkpt lat="44.31779" lon="1.06987">
        <ele>312.842288</ele>
        <time>2022-08-01T08:17:03.471Z</time>
      </trkpt>
      <trkpt lat="44.31785" lon="1.06996">
        <ele>310.696624</ele>
        <time>2022-08-01T08:17:08.467Z</time>
      </trkpt>
      <trkpt lat="44.31795" lon="1.07007">
        <ele>307.695813</ele>
        <time>2022-08-01T08:17:11.479Z</time>
      </trkpt>
      <trkpt lat="44.31804" lon="1.0702">
        <ele>304.634756</ele>
        <time>2022-08-01T08:17:13.517Z</time>
      </trkpt>
      <trkpt lat="44.31809" lon="1.07039">
        <ele>301.237714</ele>
        <time>2022-08-01T08:17:15.475Z</time>
      </trkpt>
      <trkpt lat="44.3182" lon="1.07056">
        <ele>297.41187</ele>
        <time>2022-08-01T08:17:17.479Z</time>
      </trkpt>
      <trkpt lat="44.31829" lon="1.07064">
        <ele>294.695094</ele>
        <time>2022-08-01T08:17:19.509Z</time>
      </trkpt>
      <trkpt lat="44.31839" lon="1.07085">
        <ele>290.409468</ele>
        <time>2022-08-01T08:17:21.501Z</time>
      </trkpt>
      <trkpt lat="44.31857" lon="1.071">
        <ele>285.669018</ele>
        <time>2022-08-01T08:17:23.495Z</time>
      </trkpt>
      <trkpt lat="44.31864" lon="1.07112">
        <ele>282.990456</ele>
        <time>2022-08-01T08:17:26.481Z</time>
      </trkpt>
      <trkpt lat="44.31873" lon="1.07118">
        <ele>280.527148</ele>
        <time>2022-08-01T08:17:28.497Z</time>
      </trkpt>
      <trkpt lat="44.31883" lon="1.07129">
        <ele>277.653435</ele>
        <time>2022-08-01T08:17:30.493Z</time>
      </trkpt>
      <trkpt lat="44.31893" lon="1.07142">
        <ele>274.282368</ele>
        <time>2022-08-01T08:17:32.465Z</time>
      </trkpt>
      <trkpt lat="44.31903" lon="1.07144">
        <ele>272.517003</ele>
        <time>2022-08-01T08:17:34.491Z</time>
      </trkpt>
      <trkpt lat="44.31913" lon="1.07154">
        <ele>271.288838</ele>
        <time>2022-08-01T08:17:36.496Z</time>
      </trkpt>
      <trkpt lat="44.31921" lon="1.07163">
        <ele>270.235423</ele>
        <time>2022-08-01T08:17:38.489Z</time>
      </trkpt>
      <trkpt lat="44.31929" lon="1.07175">
        <ele>269.121452</ele>
        <time>2022-08-01T08:17:40.500Z</time>
      </trkpt>
      <trkpt lat="44.31936" lon="1.07186">
        <ele>268.048452</ele>
        <time>2022-08-01T08:17:42.476Z</time>
      </trkpt>
      <trkpt lat="44.31952" lon="1.07202">
        <ele>266.100421</ele>
        <time>2022-08-01T08:17:45.494Z</time>
      </trkpt>
      <trkpt lat="44.31963" lon="1.07216">
        <ele>264.577799</ele>
        <time>2022-08-01T08:17:47.503Z</time>
      </trkpt>
      <trkpt lat="44.31971" lon="1.07228">
        <ele>263.417517</ele>
        <time>2022-08-01T08:17:49.492Z</time>
      </trkpt>
      <trkpt lat="44.31977" lon="1.07241">
        <ele>262.347891</ele>
        <time>2022-08-01T08:17:51.497Z</time>
      </trkpt>
      <trkpt lat="44.31986" lon="1.07251">
        <ele>261.228796</ele>
        <time>2022-08-01T08:17:53.519Z</time>
      </trkpt>
      <trkpt lat="44.31994" lon="1.07259">
        <ele>260.220248</ele>
        <time>2022-08-01T08:17:55.474Z</time>
      </trkpt>
      <trkpt lat="44.32004" lon="1.07271">
        <ele>258.914057</ele>
        <time>2022-08-01T08:17:58.497Z</time>
      </trkpt>
      <trkpt lat="44.32014" lon="1.07275">
        <ele>257.873783</ele>
        <time>2022-08-01T08:18:01.482Z</time>
      </trkpt>
      <trkpt lat="44.32023" lon="1.07281">
        <ele>256.880641</ele>
        <time>2022-08-01T08:18:03.492Z</time>
      </trkpt>
      <trkpt lat="44.32032" lon="1.07285">
        <ele>255.932654</ele>
        <time>2022-08-01T08:18:07.497Z</time>
      </trkpt>
      <trkpt lat="44.3204" lon="1.07293">
        <ele>254.996627</ele>
        <time>2022-08-01T08:18:09.499Z</time>
      </trkpt>
      <trkpt lat="44.32051" lon="1.07302">
        <ele>254.870221</ele>
        <time>2022-08-01T08:18:12.507Z</time>
      </trkpt>
      <trkpt lat="44.3206" lon="1.07309">
        <ele>254.764845</ele>
        <time>2022-08-01T08:18:15.496Z</time>
      </trkpt>
      <trkpt lat="44.32067" lon="1.07316">
        <ele>254.669518</ele>
        <time>2022-08-01T08:18:17.525Z</time>
      </trkpt>
      <trkpt lat="44.3208" lon="1.07324">
        <ele>254.528048</ele>
        <time>2022-08-01T08:18:18.496Z</time>
      </trkpt>
      <trkpt lat="44.32093" lon="1.07332">
        <ele>254.373658</ele>
        <time>2022-08-01T08:18:20.492Z</time>
      </trkpt>
      <trkpt lat="44.32107" lon="1.07345">
        <ele>254.202852</ele>
        <time>2022-08-01T08:18:22.485Z</time>
      </trkpt>
      <trkpt lat="44.32122" lon="1.07354">
        <ele>254.036105</ele>
        <time>2022-08-01T08:18:24.501Z</time>
      </trkpt>
      <trkpt lat="44.32131" lon="1.07361">
        <ele>253.929089</ele>
        <time>2022-08-01T08:18:25.502Z</time>
      </trkpt>
      <trkpt lat="44.32142" lon="1.07365">
        <ele>253.810159</ele>
        <time>2022-08-01T08:18:26.490Z</time>
      </trkpt>
      <trkpt lat="44.32161" lon="1.07371">
        <ele>253.610656</ele>
        <time>2022-08-01T08:18:28.498Z</time>
      </trkpt>
      <trkpt lat="44.32179" lon="1.07374">
        <ele>253.427338</ele>
        <time>2022-08-01T08:18:30.499Z</time>
      </trkpt>
      <trkpt lat="44.32188" lon="1.07377">
        <ele>253.330994</ele>
        <time>2022-08-01T08:18:31.500Z</time>
      </trkpt>
      <trkpt lat="44.32197" lon="1.07389">
        <ele>253.195377</ele>
        <time>2022-08-01T08:18:33.500Z</time>
      </trkpt>
      <trkpt lat="44.32204" lon="1.07404">
        <ele>253.887286</ele>
        <time>2022-08-01T08:18:35.541Z</time>
      </trkpt>
      <trkpt lat="44.3221" lon="1.07417">
        <ele>255.083786</ele>
        <time>2022-08-01T08:18:37.495Z</time>
      </trkpt>
      <trkpt lat="44.32216" lon="1.0743">
        <ele>256.26537</ele>
        <time>2022-08-01T08:18:39.503Z</time>
      </trkpt>
      <trkpt lat="44.32221" lon="1.07441">
        <ele>257.223263</ele>
        <time>2022-08-01T08:18:41.533Z</time>
      </trkpt>
      <trkpt lat="44.32228" lon="1.07455">
        <ele>258.489445</ele>
        <time>2022-08-01T08:18:44.509Z</time>
      </trkpt>
      <trkpt lat="44.32235" lon="1.07466">
        <ele>259.646826</ele>
        <time>2022-08-01T08:18:48.492Z</time>
      </trkpt>
      <trkpt lat="44.3224" lon="1.07477">
        <ele>260.624437</ele>
        <time>2022-08-01T08:18:51.499Z</time>
      </trkpt>
      <trkpt lat="44.32247" lon="1.07489">
        <ele>261.743346</ele>
        <time>2022-08-01T08:18:54.479Z</time>
      </trkpt>
      <trkpt lat="44.32255" lon="1.075">
        <ele>262.921468</ele>
        <time>2022-08-01T08:18:57.477Z</time>
      </trkpt>
      <trkpt lat="44.32261" lon="1.0751">
        <ele>263.966162</ele>
        <time>2022-08-01T08:19:00.489Z</time>
      </trkpt>
      <trkpt lat="44.32269" lon="1.07518">
        <ele>264.970283</ele>
        <time>2022-08-01T08:19:03.465Z</time>
      </trkpt>
      <trkpt lat="44.32278" lon="1.07529">
        <ele>266.225339</ele>
        <time>2022-08-01T08:19:06.489Z</time>
      </trkpt>
      <trkpt lat="44.32288" lon="1.0754">
        <ele>267.591042</ele>
        <time>2022-08-01T08:19:09.505Z</time>
      </trkpt>
      <trkpt lat="44.32304" lon="1.07543">
        <ele>269.279219</ele>
        <time>2022-08-01T08:19:11.522Z</time>
      </trkpt>
      <trkpt lat="44.32321" lon="1.0755">
        <ele>271.152382</ele>
        <time>2022-08-01T08:19:14.507Z</time>
      </trkpt>
      <trkpt lat="44.32334" lon="1.07551">
        <ele>271.724156</ele>
        <time>2022-08-01T08:19:17.522Z</time>
      </trkpt>
      <trkpt lat="44.32348" lon="1.07558">
        <ele>270.164929</ele>
        <time>2022-08-01T08:19:19.486Z</time>
      </trkpt>
      <trkpt lat="44.32357" lon="1.07558">
        <ele>269.217135</ele>
        <time>2022-08-01T08:19:21.494Z</time>
      </trkpt>
      <trkpt lat="44.32367" lon="1.0756">
        <ele>268.215306</ele>
        <time>2022-08-01T08:19:53.494Z</time>
      </trkpt>
      <trkpt lat="44.32376" lon="1.0756">
        <ele>267.247757</ele>
        <time>2022-08-01T08:19:57.506Z</time>
      </trkpt>
      <trkpt lat="44.32388" lon="1.0756">
        <ele>266.030428</ele>
        <time>2022-08-01T08:20:00.501Z</time>
      </trkpt>
      <trkpt lat="44.32401" lon="1.07557">
        <ele>264.664694</ele>
        <time>2022-08-01T08:20:02.496Z</time>
      </trkpt>
      <trkpt lat="44.32415" lon="1.07556">
        <ele>263.187287</ele>
        <time>2022-08-01T08:20:04.522Z</time>
      </trkpt>
      <trkpt lat="44.32424" lon="1.07556">
        <ele>262.219738</ele>
        <time>2022-08-01T08:20:05.501Z</time>
      </trkpt>
      <trkpt lat="44.32436" lon="1.07546">
        <ele>260.799387</ele>
        <time>2022-08-01T08:20:07.482Z</time>
      </trkpt>
      <trkpt lat="44.32445" lon="1.07545">
        <ele>259.798384</ele>
        <time>2022-08-01T08:20:08.503Z</time>
      </trkpt>
      <trkpt lat="44.32461" lon="1.07539">
        <ele>258.129002</ele>
        <time>2022-08-01T08:20:10.514Z</time>
      </trkpt>
      <trkpt lat="44.32477" lon="1.07531">
        <ele>256.287282</ele>
        <time>2022-08-01T08:20:12.500Z</time>
      </trkpt>
      <trkpt lat="44.32495" lon="1.07528">
        <ele>254.48106</ele>
        <time>2022-08-01T08:20:14.487Z</time>
      </trkpt>
      <trkpt lat="44.32512" lon="1.07525">
        <ele>253.456569</ele>
        <time>2022-08-01T08:20:16.515Z</time>
      </trkpt>
      <trkpt lat="44.32526" lon="1.07521">
        <ele>253.590394</ele>
        <time>2022-08-01T08:20:18.483Z</time>
      </trkpt>
      <trkpt lat="44.32539" lon="1.07516">
        <ele>253.715127</ele>
        <time>2022-08-01T08:20:19.488Z</time>
      </trkpt>
      <trkpt lat="44.32555" lon="1.07511">
        <ele>253.854997</ele>
        <time>2022-08-01T08:20:20.487Z</time>
      </trkpt>
      <trkpt lat="44.32565" lon="1.07506">
        <ele>253.95142</ele>
        <time>2022-08-01T08:20:21.497Z</time>
      </trkpt>
      <trkpt lat="44.32574" lon="1.07503">
        <ele>254.038991</ele>
        <time>2022-08-01T08:20:22.527Z</time>
      </trkpt>
      <trkpt lat="44.32585" lon="1.07498">
        <ele>254.144275</ele>
        <time>2022-08-01T08:20:23.502Z</time>
      </trkpt>
      <trkpt lat="44.32597" lon="1.075">
        <ele>254.25103</ele>
        <time>2022-08-01T08:20:24.490Z</time>
      </trkpt>
      <trkpt lat="44.32607" lon="1.07503">
        <ele>254.343291</ele>
        <time>2022-08-01T08:20:25.491Z</time>
      </trkpt>
      <trkpt lat="44.32617" lon="1.07509">
        <ele>254.442735</ele>
        <time>2022-08-01T08:20:26.490Z</time>
      </trkpt>
      <trkpt lat="44.32625" lon="1.07528">
        <ele>254.582881</ele>
        <time>2022-08-01T08:20:28.521Z</time>
      </trkpt>
      <trkpt lat="44.32632" lon="1.07542">
        <ele>254.697332</ele>
        <time>2022-08-01T08:20:30.509Z</time>
      </trkpt>
      <trkpt lat="44.32622" lon="1.07545">
        <ele>254.790002</ele>
        <time>2022-08-01T08:20:37.480Z</time>
      </trkpt>
      <trkpt lat="44.3261" lon="1.07542">
        <ele>254.903085</ele>
        <time>2022-08-01T08:20:40.499Z</time>
      </trkpt>
      <trkpt lat="44.32609" lon="1.07561">
        <ele>254.929629</ele>
        <time>2022-08-01T08:20:43.495Z</time>
      </trkpt>
      <trkpt lat="44.3261" lon="1.0758">
        <ele>253.94664</ele>
        <time>2022-08-01T08:20:45.493Z</time>
      </trkpt>
      <trkpt lat="44.3261" lon="1.07598">
        <ele>253.041044</ele>
        <time>2022-08-01T08:20:47.522Z</time>
      </trkpt>
      <trkpt lat="44.32615" lon="1.07616">
        <ele>252.020982</ele>
        <time>2022-08-01T08:20:49.496Z</time>
      </trkpt>
      <trkpt lat="44.3262" lon="1.07634">
        <ele>251.028378</ele>
        <time>2022-08-01T08:20:51.496Z</time>
      </trkpt>
      <trkpt lat="44.32628" lon="1.07649">
        <ele>250.024895</ele>
        <time>2022-08-01T08:20:53.517Z</time>
      </trkpt>
      <trkpt lat="44.32638" lon="1.07668">
        <ele>248.770911</ele>
        <time>2022-08-01T08:20:55.497Z</time>
      </trkpt>
      <trkpt lat="44.32644" lon="1.07684">
        <ele>247.856305</ele>
        <time>2022-08-01T08:20:57.493Z</time>
      </trkpt>
      <trkpt lat="44.32647" lon="1.07707">
        <ele>246.660964</ele>
        <time>2022-08-01T08:20:59.528Z</time>
      </trkpt>
      <trkpt lat="44.32647" lon="1.07734">
        <ele>245.276295</ele>
        <time>2022-08-01T08:21:01.490Z</time>
      </trkpt>
      <trkpt lat="44.32646" lon="1.0775">
        <ele>244.412381</ele>
        <time>2022-08-01T08:21:02.484Z</time>
      </trkpt>
      <trkpt lat="44.3264" lon="1.07767">
        <ele>243.4218</ele>
        <time>2022-08-01T08:21:03.488Z</time>
      </trkpt>
      <trkpt lat="44.32633" lon="1.07783">
        <ele>242.443421</ele>
        <time>2022-08-01T08:21:04.499Z</time>
      </trkpt>
      <trkpt lat="44.32629" lon="1.07798">
        <ele>241.880632</ele>
        <time>2022-08-01T08:21:05.522Z</time>
      </trkpt>
      <trkpt lat="44.32627" lon="1.07814">
        <ele>241.74575</ele>
        <time>2022-08-01T08:21:06.506Z</time>
      </trkpt>
      <trkpt lat="44.32625" lon="1.07827">
        <ele>241.637904</ele>
        <time>2022-08-01T08:21:07.500Z</time>
      </trkpt>
      <trkpt lat="44.32622" lon="1.07839">
        <ele>241.532804</ele>
        <time>2022-08-01T08:21:08.496Z</time>
      </trkpt>
      <trkpt lat="44.32618" lon="1.07866">
        <ele>241.308427</ele>
        <time>2022-08-01T08:21:10.504Z</time>
      </trkpt>
      <trkpt lat="44.32621" lon="1.07887">
        <ele>241.132704</ele>
        <time>2022-08-01T08:21:12.503Z</time>
      </trkpt>
      <trkpt lat="44.32632" lon="1.07906">
        <ele>240.930606</ele>
        <time>2022-08-01T08:21:14.500Z</time>
      </trkpt>
      <trkpt lat="44.3264" lon="1.07925">
        <ele>240.747472</ele>
        <time>2022-08-01T08:21:16.493Z</time>
      </trkpt>
      <trkpt lat="44.32647" lon="1.07943">
        <ele>240.577585</ele>
        <time>2022-08-01T08:21:18.502Z</time>
      </trkpt>
      <trkpt lat="44.32657" lon="1.07963">
        <ele>240.383027</ele>
        <time>2022-08-01T08:21:20.493Z</time>
      </trkpt>
      <trkpt lat="44.3266" lon="1.07976">
        <ele>240.266087</ele>
        <time>2022-08-01T08:21:21.500Z</time>
      </trkpt>
      <trkpt lat="44.32666" lon="1.07996">
        <ele>240.086765</ele>
        <time>2022-08-01T08:21:23.519Z</time>
      </trkpt>
      <trkpt lat="44.32673" lon="1.0802">
        <ele>239.875048</ele>
        <time>2022-08-01T08:21:25.496Z</time>
      </trkpt>
      <trkpt lat="44.32675" lon="1.08034">
        <ele>239.600159</ele>
        <time>2022-08-01T08:21:26.492Z</time>
      </trkpt>
      <trkpt lat="44.32677" lon="1.08047">
        <ele>239.30604</ele>
        <time>2022-08-01T08:21:27.488Z</time>
      </trkpt>
      <trkpt lat="44.32679" lon="1.08062">
        <ele>238.986381</ele>
        <time>2022-08-01T08:21:28.489Z</time>
      </trkpt>
      <trkpt lat="44.32691" lon="1.08089">
        <ele>238.303443</ele>
        <time>2022-08-01T08:21:30.494Z</time>
      </trkpt>
      <trkpt lat="44.32696" lon="1.08108">
        <ele>237.88111</ele>
        <time>2022-08-01T08:21:31.496Z</time>
      </trkpt>
      <trkpt lat="44.32701" lon="1.08126">
        <ele>237.456234</ele>
        <time>2022-08-01T08:21:32.496Z</time>
      </trkpt>
      <trkpt lat="44.32707" lon="1.08143">
        <ele>237.056191</ele>
        <time>2022-08-01T08:21:33.501Z</time>
      </trkpt>
      <trkpt lat="44.32714" lon="1.08157">
        <ele>236.69451</ele>
        <time>2022-08-01T08:21:34.496Z</time>
      </trkpt>
      <trkpt lat="44.3272" lon="1.08171">
        <ele>236.338436</ele>
        <time>2022-08-01T08:21:35.525Z</time>
      </trkpt>
      <trkpt lat="44.32725" lon="1.08185">
        <ele>236.015075</ele>
        <time>2022-08-01T08:21:36.511Z</time>
      </trkpt>
      <trkpt lat="44.32727" lon="1.082">
        <ele>235.679055</ele>
        <time>2022-08-01T08:21:37.492Z</time>
      </trkpt>
      <trkpt lat="44.32728" lon="1.08216">
        <ele>235.337653</ele>
        <time>2022-08-01T08:21:38.498Z</time>
      </trkpt>
      <trkpt lat="44.32728" lon="1.08232">
        <ele>235.008766</ele>
        <time>2022-08-01T08:21:39.487Z</time>
      </trkpt>
      <trkpt lat="44.3273" lon="1.08246">
        <ele>234.699975</ele>
        <time>2022-08-01T08:21:40.499Z</time>
      </trkpt>
      <trkpt lat="44.32732" lon="1.0826">
        <ele>234.368736</ele>
        <time>2022-08-01T08:21:41.514Z</time>
      </trkpt>
      <trkpt lat="44.32736" lon="1.08273">
        <ele>233.945108</ele>
        <time>2022-08-01T08:21:42.496Z</time>
      </trkpt>
      <trkpt lat="44.32739" lon="1.08287">
        <ele>233.492179</ele>
        <time>2022-08-01T08:21:43.507Z</time>
      </trkpt>
      <trkpt lat="44.32743" lon="1.083">
        <ele>233.087043</ele>
        <time>2022-08-01T08:21:44.481Z</time>
      </trkpt>
      <trkpt lat="44.32748" lon="1.08312">
        <ele>232.674847</ele>
        <time>2022-08-01T08:21:45.488Z</time>
      </trkpt>
      <trkpt lat="44.32752" lon="1.08324">
        <ele>232.278816</ele>
        <time>2022-08-01T08:21:46.500Z</time>
      </trkpt>
      <trkpt lat="44.32756" lon="1.08338">
        <ele>231.838349</ele>
        <time>2022-08-01T08:21:47.528Z</time>
      </trkpt>
      <trkpt lat="44.32759" lon="1.08351">
        <ele>231.439565</ele>
        <time>2022-08-01T08:21:48.483Z</time>
      </trkpt>
      <trkpt lat="44.32765" lon="1.08362">
        <ele>231.055217</ele>
        <time>2022-08-01T08:21:49.487Z</time>
      </trkpt>
      <trkpt lat="44.32769" lon="1.08376">
        <ele>230.601266</ele>
        <time>2022-08-01T08:21:50.478Z</time>
      </trkpt>
      <trkpt lat="44.32773" lon="1.08389">
        <ele>230.170066</ele>
        <time>2022-08-01T08:21:51.491Z</time>
      </trkpt>
      <trkpt lat="44.32777" lon="1.08405">
        <ele>229.679477</ele>
        <time>2022-08-01T08:21:52.484Z</time>
      </trkpt>
      <trkpt lat="44.32782" lon="1.08416">
        <ele>229.299246</ele>
        <time>2022-08-01T08:21:53.515Z</time>
      </trkpt>
      <trkpt lat="44.32787" lon="1.08429">
        <ele>228.859722</ele>
        <time>2022-08-01T08:21:54.492Z</time>
      </trkpt>
      <trkpt lat="44.32797" lon="1.08448">
        <ele>228.168459</ele>
        <time>2022-08-01T08:21:56.496Z</time>
      </trkpt>
      <trkpt lat="44.32807" lon="1.08465">
        <ele>227.529325</ele>
        <time>2022-08-01T08:21:58.494Z</time>
      </trkpt>
      <trkpt lat="44.32813" lon="1.08476">
        <ele>227.096217</ele>
        <time>2022-08-01T08:22:00.495Z</time>
      </trkpt>
      <trkpt lat="44.32819" lon="1.0849">
        <ele>227.149234</ele>
        <time>2022-08-01T08:22:03.497Z</time>
      </trkpt>
      <trkpt lat="44.32825" lon="1.08506">
        <ele>227.229814</ele>
        <time>2022-08-01T08:22:05.511Z</time>
      </trkpt>
      <trkpt lat="44.3283" lon="1.08519">
        <ele>227.30009</ele>
        <time>2022-08-01T08:22:07.507Z</time>
      </trkpt>
      <trkpt lat="44.32832" lon="1.08532">
        <ele>227.362214</ele>
        <time>2022-08-01T08:22:09.488Z</time>
      </trkpt>
      <trkpt lat="44.32839" lon="1.08547">
        <ele>227.443095</ele>
        <time>2022-08-01T08:22:11.517Z</time>
      </trkpt>
      <trkpt lat="44.32843" lon="1.0856">
        <ele>227.512084</ele>
        <time>2022-08-01T08:22:14.505Z</time>
      </trkpt>
      <trkpt lat="44.32848" lon="1.08574">
        <ele>227.581757</ele>
        <time>2022-08-01T08:22:16.498Z</time>
      </trkpt>
      <trkpt lat="44.32854" lon="1.08589">
        <ele>227.663097</ele>
        <time>2022-08-01T08:22:18.483Z</time>
      </trkpt>
      <trkpt lat="44.32858" lon="1.08617">
        <ele>227.798159</ele>
        <time>2022-08-01T08:22:22.505Z</time>
      </trkpt>
      <trkpt lat="44.32868" lon="1.08629">
        <ele>227.882302</ele>
        <time>2022-08-01T08:22:24.506Z</time>
      </trkpt>
      <trkpt lat="44.32874" lon="1.08646">
        <ele>227.968388</ele>
        <time>2022-08-01T08:22:26.492Z</time>
      </trkpt>
      <trkpt lat="44.3288" lon="1.08662">
        <ele>228.051394</ele>
        <time>2022-08-01T08:22:28.498Z</time>
      </trkpt>
      <trkpt lat="44.32882" lon="1.08675">
        <ele>228.115437</ele>
        <time>2022-08-01T08:22:29.502Z</time>
      </trkpt>
      <trkpt lat="44.32884" lon="1.08689">
        <ele>228.183579</ele>
        <time>2022-08-01T08:22:30.498Z</time>
      </trkpt>
      <trkpt lat="44.32887" lon="1.08702">
        <ele>228.246287</ele>
        <time>2022-08-01T08:22:31.509Z</time>
      </trkpt>
      <trkpt lat="44.32896" lon="1.08719">
        <ele>227.898527</ele>
        <time>2022-08-01T08:22:33.495Z</time>
      </trkpt>
      <trkpt lat="44.32913" lon="1.08738">
        <ele>227.403599</ele>
        <time>2022-08-01T08:22:34.525Z</time>
      </trkpt>
      <trkpt lat="44.32923" lon="1.08745">
        <ele>227.150716</ele>
        <time>2022-08-01T08:22:36.504Z</time>
      </trkpt>
      <trkpt lat="44.32931" lon="1.08754">
        <ele>226.92295</ele>
        <time>2022-08-01T08:22:37.502Z</time>
      </trkpt>
      <trkpt lat="44.32944" lon="1.08764">
        <ele>226.583802</ele>
        <time>2022-08-01T08:22:39.496Z</time>
      </trkpt>
      <trkpt lat="44.32956" lon="1.08773">
        <ele>226.263747</ele>
        <time>2022-08-01T08:22:41.500Z</time>
      </trkpt>
      <trkpt lat="44.32973" lon="1.08773">
        <ele>225.894622</ele>
        <time>2022-08-01T08:22:43.499Z</time>
      </trkpt>
      <trkpt lat="44.32982" lon="1.08776">
        <ele>225.666061</ele>
        <time>2022-08-01T08:22:44.507Z</time>
      </trkpt>
      <trkpt lat="44.32997" lon="1.08779">
        <ele>225.327725</ele>
        <time>2022-08-01T08:22:46.527Z</time>
      </trkpt>
      <trkpt lat="44.33012" lon="1.08788">
        <ele>224.967716</ele>
        <time>2022-08-01T08:22:48.493Z</time>
      </trkpt>
      <trkpt lat="44.33025" lon="1.08797">
        <ele>224.636407</ele>
        <time>2022-08-01T08:22:50.474Z</time>
      </trkpt>
      <trkpt lat="44.33035" lon="1.08803">
        <ele>224.381109</ele>
        <time>2022-08-01T08:22:53.481Z</time>
      </trkpt>
      <trkpt lat="44.33044" lon="1.08803">
        <ele>224.169279</ele>
        <time>2022-08-01T08:22:58.528Z</time>
      </trkpt>
      <trkpt lat="44.33052" lon="1.08811">
        <ele>224.120632</ele>
        <time>2022-08-01T08:23:01.482Z</time>
      </trkpt>
      <trkpt lat="44.33061" lon="1.08813">
        <ele>224.090345</ele>
        <time>2022-08-01T08:23:05.490Z</time>
      </trkpt>
      <trkpt lat="44.3307" lon="1.08818">
        <ele>224.059542</ele>
        <time>2022-08-01T08:23:09.488Z</time>
      </trkpt>
      <trkpt lat="44.3308" lon="1.08817">
        <ele>224.026267</ele>
        <time>2022-08-01T08:23:15.479Z</time>
      </trkpt>
      <trkpt lat="44.33089" lon="1.08827">
        <ele>223.989046</ele>
        <time>2022-08-01T08:23:21.477Z</time>
      </trkpt>
      <trkpt lat="44.33098" lon="1.08823">
        <ele>223.957752</ele>
        <time>2022-08-01T08:23:31.506Z</time>
      </trkpt>
      <trkpt lat="44.33107" lon="1.08811">
        <ele>223.916382</ele>
        <time>2022-08-01T08:23:34.540Z</time>
      </trkpt>
      <trkpt lat="44.33116" lon="1.08802">
        <ele>223.87973</ele>
        <time>2022-08-01T08:23:36.481Z</time>
      </trkpt>
      <trkpt lat="44.3313" lon="1.08797">
        <ele>223.833177</ele>
        <time>2022-08-01T08:23:37.490Z</time>
      </trkpt>
      <trkpt lat="44.3314" lon="1.0878">
        <ele>223.780865</ele>
        <time>2022-08-01T08:23:40.520Z</time>
      </trkpt>
      <trkpt lat="44.33146" lon="1.0877">
        <ele>223.751182</ele>
        <time>2022-08-01T08:23:42.468Z</time>
      </trkpt>
      <trkpt lat="44.33154" lon="1.08763">
        <ele>223.719748</ele>
        <time>2022-08-01T08:23:45.487Z</time>
      </trkpt>
      <trkpt lat="44.33161" lon="1.08751">
        <ele>223.684131</ele>
        <time>2022-08-01T08:23:47.490Z</time>
      </trkpt>
      <trkpt lat="44.33168" lon="1.08741">
        <ele>223.649632</ele>
        <time>2022-08-01T08:23:49.501Z</time>
      </trkpt>
      <trkpt lat="44.33175" lon="1.08727">
        <ele>223.60946</ele>
        <time>2022-08-01T08:23:53.485Z</time>
      </trkpt>
      <trkpt lat="44.33184" lon="1.08715">
        <ele>223.567768</ele>
        <time>2022-08-01T08:23:56.496Z</time>
      </trkpt>
      <trkpt lat="44.33191" lon="1.08706">
        <ele>223.680963</ele>
        <time>2022-08-01T08:23:58.518Z</time>
      </trkpt>
      <trkpt lat="44.332" lon="1.08688">
        <ele>223.981212</ele>
        <time>2022-08-01T08:24:00.500Z</time>
      </trkpt>
      <trkpt lat="44.33208" lon="1.08675">
        <ele>224.229307</ele>
        <time>2022-08-01T08:24:02.499Z</time>
      </trkpt>
      <trkpt lat="44.3322" lon="1.08656">
        <ele>224.575965</ele>
        <time>2022-08-01T08:24:04.516Z</time>
      </trkpt>
      <trkpt lat="44.33226" lon="1.08641">
        <ele>224.81736</ele>
        <time>2022-08-01T08:24:07.493Z</time>
      </trkpt>
      <trkpt lat="44.3323" lon="1.08629">
        <ele>225.00171</ele>
        <time>2022-08-01T08:24:09.479Z</time>
      </trkpt>
      <trkpt lat="44.33237" lon="1.08616">
        <ele>225.225209</ele>
        <time>2022-08-01T08:24:12.486Z</time>
      </trkpt>
      <trkpt lat="44.33242" lon="1.08605">
        <ele>225.406222</ele>
        <time>2022-08-01T08:24:14.485Z</time>
      </trkpt>
      <trkpt lat="44.33249" lon="1.0859">
        <ele>225.651223</ele>
        <time>2022-08-01T08:24:17.496Z</time>
      </trkpt>
      <trkpt lat="44.33256" lon="1.0858">
        <ele>225.851739</ele>
        <time>2022-08-01T08:24:20.493Z</time>
      </trkpt>
      <trkpt lat="44.33264" lon="1.08565">
        <ele>226.104608</ele>
        <time>2022-08-01T08:24:23.498Z</time>
      </trkpt>
      <trkpt lat="44.33269" lon="1.08553">
        <ele>226.292383</ele>
        <time>2022-08-01T08:24:25.476Z</time>
      </trkpt>
      <trkpt lat="44.33276" lon="1.08538">
        <ele>226.541993</ele>
        <time>2022-08-01T08:24:27.490Z</time>
      </trkpt>
      <trkpt lat="44.33284" lon="1.08527">
        <ele>226.76912</ele>
        <time>2022-08-01T08:24:30.508Z</time>
      </trkpt>
      <trkpt lat="44.33293" lon="1.08515">
        <ele>227.001134</ele>
        <time>2022-08-01T08:24:32.476Z</time>
      </trkpt>
      <trkpt lat="44.33302" lon="1.08502">
        <ele>226.912083</ele>
        <time>2022-08-01T08:24:34.513Z</time>
      </trkpt>
      <trkpt lat="44.33311" lon="1.08493">
        <ele>226.782873</ele>
        <time>2022-08-01T08:24:36.505Z</time>
      </trkpt>
      <trkpt lat="44.33318" lon="1.08486">
        <ele>226.665149</ele>
        <time>2022-08-01T08:24:38.486Z</time>
      </trkpt>
      <trkpt lat="44.33332" lon="1.08475">
        <ele>226.471955</ele>
        <time>2022-08-01T08:24:41.488Z</time>
      </trkpt>
      <trkpt lat="44.33337" lon="1.08464">
        <ele>226.358046</ele>
        <time>2022-08-01T08:24:42.486Z</time>
      </trkpt>
      <trkpt lat="44.33347" lon="1.08456">
        <ele>226.212189</ele>
        <time>2022-08-01T08:24:45.480Z</time>
      </trkpt>
      <trkpt lat="44.33356" lon="1.08446">
        <ele>226.062263</ele>
        <time>2022-08-01T08:24:50.483Z</time>
      </trkpt>
      <trkpt lat="44.33364" lon="1.08438">
        <ele>225.946081</ele>
        <time>2022-08-01T08:24:53.494Z</time>
      </trkpt>
      <trkpt lat="44.33372" lon="1.08431">
        <ele>225.817511</ele>
        <time>2022-08-01T08:24:57.485Z</time>
      </trkpt>
      <trkpt lat="44.33382" lon="1.08424">
        <ele>225.679946</ele>
        <time>2022-08-01T08:25:01.487Z</time>
      </trkpt>
      <trkpt lat="44.33393" lon="1.08416">
        <ele>225.523013</ele>
        <time>2022-08-01T08:25:05.507Z</time>
      </trkpt>
      <trkpt lat="44.33401" lon="1.08409">
        <ele>225.409412</ele>
        <time>2022-08-01T08:25:08.496Z</time>
      </trkpt>
      <trkpt lat="44.33408" lon="1.084">
        <ele>225.292256</ele>
        <time>2022-08-01T08:25:11.502Z</time>
      </trkpt>
      <trkpt lat="44.33418" lon="1.08392">
        <ele>225.146665</ele>
        <time>2022-08-01T08:25:14.480Z</time>
      </trkpt>
      <trkpt lat="44.33426" lon="1.08381">
        <ele>224.999804</ele>
        <time>2022-08-01T08:25:16.537Z</time>
      </trkpt>
      <trkpt lat="44.33437" lon="1.08371">
        <ele>224.837389</ele>
        <time>2022-08-01T08:25:19.491Z</time>
      </trkpt>
      <trkpt lat="44.33447" lon="1.08364">
        <ele>224.621257</ele>
        <time>2022-08-01T08:25:22.517Z</time>
      </trkpt>
      <trkpt lat="44.33456" lon="1.08359">
        <ele>224.369631</ele>
        <time>2022-08-01T08:25:25.491Z</time>
      </trkpt>
      <trkpt lat="44.33467" lon="1.08354">
        <ele>224.112376</ele>
        <time>2022-08-01T08:25:28.498Z</time>
      </trkpt>
      <trkpt lat="44.33479" lon="1.08348">
        <ele>223.798819</ele>
        <time>2022-08-01T08:25:31.488Z</time>
      </trkpt>
      <trkpt lat="44.33488" lon="1.08344">
        <ele>223.575065</ele>
        <time>2022-08-01T08:25:33.501Z</time>
      </trkpt>
      <trkpt lat="44.33499" lon="1.08341">
        <ele>223.305705</ele>
        <time>2022-08-01T08:25:35.504Z</time>
      </trkpt>
      <trkpt lat="44.33511" lon="1.08338">
        <ele>223.012665</ele>
        <time>2022-08-01T08:25:37.516Z</time>
      </trkpt>
      <trkpt lat="44.33523" lon="1.08338">
        <ele>222.716668</ele>
        <time>2022-08-01T08:25:40.482Z</time>
      </trkpt>
      <trkpt lat="44.33535" lon="1.0834">
        <ele>222.416306</ele>
        <time>2022-08-01T08:25:43.487Z</time>
      </trkpt>
      <trkpt lat="44.33545" lon="1.08337">
        <ele>222.176484</ele>
        <time>2022-08-01T08:25:46.489Z</time>
      </trkpt>
      <trkpt lat="44.33554" lon="1.08327">
        <ele>221.902165</ele>
        <time>2022-08-01T08:25:49.482Z</time>
      </trkpt>
      <trkpt lat="44.33564" lon="1.08316">
        <ele>221.588176</ele>
        <time>2022-08-01T08:25:52.491Z</time>
      </trkpt>
      <trkpt lat="44.33575" lon="1.08298">
        <ele>221.190083</ele>
        <time>2022-08-01T08:25:53.489Z</time>
      </trkpt>
      <trkpt lat="44.33588" lon="1.08296">
        <ele>220.858626</ele>
        <time>2022-08-01T08:25:55.496Z</time>
      </trkpt>
      <trkpt lat="44.33594" lon="1.08286">
        <ele>220.636041</ele>
        <time>2022-08-01T08:25:57.512Z</time>
      </trkpt>
      <trkpt lat="44.33603" lon="1.08277">
        <ele>220.584968</ele>
        <time>2022-08-01T08:25:59.503Z</time>
      </trkpt>
      <trkpt lat="44.33613" lon="1.08275">
        <ele>220.872567</ele>
        <time>2022-08-01T08:26:01.478Z</time>
      </trkpt>
      <trkpt lat="44.33623" lon="1.08266">
        <ele>221.200068</ele>
        <time>2022-08-01T08:26:03.528Z</time>
      </trkpt>
      <trkpt lat="44.3363" lon="1.08258">
        <ele>221.468205</ele>
        <time>2022-08-01T08:26:04.497Z</time>
      </trkpt>
      <trkpt lat="44.33639" lon="1.08253">
        <ele>221.743184</ele>
        <time>2022-08-01T08:26:07.499Z</time>
      </trkpt>
      <trkpt lat="44.3365" lon="1.0825">
        <ele>222.059778</ele>
        <time>2022-08-01T08:26:12.494Z</time>
      </trkpt>
      <trkpt lat="44.33662" lon="1.08245">
        <ele>222.41736</ele>
        <time>2022-08-01T08:26:14.489Z</time>
      </trkpt>
      <trkpt lat="44.33673" lon="1.08236">
        <ele>222.75759</ele>
        <time>2022-08-01T08:26:18.480Z</time>
      </trkpt>
      <trkpt lat="44.33681" lon="1.08224">
        <ele>223.099372</ele>
        <time>2022-08-01T08:26:21.528Z</time>
      </trkpt>
      <trkpt lat="44.33688" lon="1.08213">
        <ele>223.394839</ele>
        <time>2022-08-01T08:26:23.493Z</time>
      </trkpt>
      <trkpt lat="44.33695" lon="1.08202">
        <ele>223.689296</ele>
        <time>2022-08-01T08:26:26.460Z</time>
      </trkpt>
      <trkpt lat="44.33701" lon="1.0819">
        <ele>223.995874</ele>
        <time>2022-08-01T08:26:37.494Z</time>
      </trkpt>
      <trkpt lat="44.33706" lon="1.08175">
        <ele>224.315423</ele>
        <time>2022-08-01T08:26:42.502Z</time>
      </trkpt>
      <trkpt lat="44.33713" lon="1.08163">
        <ele>224.644949</ele>
        <time>2022-08-01T08:26:46.482Z</time>
      </trkpt>
      <trkpt lat="44.33721" lon="1.08154">
        <ele>224.934173</ele>
        <time>2022-08-01T08:26:49.470Z</time>
      </trkpt>
      <trkpt lat="44.3373" lon="1.08144">
        <ele>225.25482</ele>
        <time>2022-08-01T08:26:52.486Z</time>
      </trkpt>
      <trkpt lat="44.33737" lon="1.08132">
        <ele>225.578275</ele>
        <time>2022-08-01T08:26:55.500Z</time>
      </trkpt>
      <trkpt lat="44.33744" lon="1.08119">
        <ele>226.009511</ele>
        <time>2022-08-01T08:26:59.504Z</time>
      </trkpt>
      <trkpt lat="44.3375" lon="1.08108">
        <ele>226.37691</ele>
        <time>2022-08-01T08:27:02.476Z</time>
      </trkpt>
      <trkpt lat="44.33755" lon="1.08097">
        <ele>226.753532</ele>
        <time>2022-08-01T08:27:07.497Z</time>
      </trkpt>
      <trkpt lat="44.3376" lon="1.08086">
        <ele>227.110026</ele>
        <time>2022-08-01T08:27:13.488Z</time>
      </trkpt>
      <trkpt lat="44.33768" lon="1.08076">
        <ele>227.513903</ele>
        <time>2022-08-01T08:27:19.488Z</time>
      </trkpt>
      <trkpt lat="44.33778" lon="1.08064">
        <ele>228.00013</ele>
        <time>2022-08-01T08:27:24.483Z</time>
      </trkpt>
      <trkpt lat="44.33785" lon="1.08052">
        <ele>228.4271</ele>
        <time>2022-08-01T08:27:27.525Z</time>
      </trkpt>
      <trkpt lat="44.33793" lon="1.08041">
        <ele>228.836562</ele>
        <time>2022-08-01T08:27:30.497Z</time>
      </trkpt>
      <trkpt lat="44.33802" lon="1.08032">
        <ele>229.24744</ele>
        <time>2022-08-01T08:27:34.487Z</time>
      </trkpt>
      <trkpt lat="44.33811" lon="1.08022">
        <ele>229.691108</ele>
        <time>2022-08-01T08:27:38.499Z</time>
      </trkpt>
      <trkpt lat="44.33818" lon="1.08011">
        <ele>230.092603</ele>
        <time>2022-08-01T08:27:43.497Z</time>
      </trkpt>
      <trkpt lat="44.33821" lon="1.07996">
        <ele>230.520577</ele>
        <time>2022-08-01T08:27:50.482Z</time>
      </trkpt>
      <trkpt lat="44.33825" lon="1.07981">
        <ele>230.956088</ele>
        <time>2022-08-01T08:27:54.489Z</time>
      </trkpt>
      <trkpt lat="44.33831" lon="1.07967">
        <ele>231.408377</ele>
        <time>2022-08-01T08:27:58.486Z</time>
      </trkpt>
      <trkpt lat="44.33839" lon="1.07959">
        <ele>231.758656</ele>
        <time>2022-08-01T08:28:01.495Z</time>
      </trkpt>
      <trkpt lat="44.33847" lon="1.07953">
        <ele>232.107864</ele>
        <time>2022-08-01T08:28:05.495Z</time>
      </trkpt>
      <trkpt lat="44.33855" lon="1.07944">
        <ele>232.49796</ele>
        <time>2022-08-01T08:28:08.494Z</time>
      </trkpt>
      <trkpt lat="44.33863" lon="1.07936">
        <ele>232.939731</ele>
        <time>2022-08-01T08:28:12.470Z</time>
      </trkpt>
      <trkpt lat="44.3387" lon="1.07926">
        <ele>233.346752</ele>
        <time>2022-08-01T08:28:16.492Z</time>
      </trkpt>
      <trkpt lat="44.33877" lon="1.07914">
        <ele>233.825989</ele>
        <time>2022-08-01T08:28:20.493Z</time>
      </trkpt>
      <trkpt lat="44.33881" lon="1.07901">
        <ele>234.254406</ele>
        <time>2022-08-01T08:28:24.468Z</time>
      </trkpt>
      <trkpt lat="44.33886" lon="1.0789">
        <ele>234.67616</ele>
        <time>2022-08-01T08:28:27.527Z</time>
      </trkpt>
      <trkpt lat="44.33893" lon="1.07878">
        <ele>235.142612</ele>
        <time>2022-08-01T08:28:31.499Z</time>
      </trkpt>
      <trkpt lat="44.33899" lon="1.07864">
        <ele>235.645039</ele>
        <time>2022-08-01T08:28:34.493Z</time>
      </trkpt>
      <trkpt lat="44.33906" lon="1.0785">
        <ele>236.150448</ele>
        <time>2022-08-01T08:28:37.505Z</time>
      </trkpt>
      <trkpt lat="44.3391" lon="1.07838">
        <ele>236.571453</ele>
        <time>2022-08-01T08:28:41.493Z</time>
      </trkpt>
      <trkpt lat="44.33915" lon="1.07827">
        <ele>236.960895</ele>
        <time>2022-08-01T08:28:45.524Z</time>
      </trkpt>
      <trkpt lat="44.3392" lon="1.07815">
        <ele>237.383883</ele>
        <time>2022-08-01T08:28:48.497Z</time>
      </trkpt>
      <trkpt lat="44.33924" lon="1.07802">
        <ele>237.826392</ele>
        <time>2022-08-01T08:28:51.494Z</time>
      </trkpt>
      <trkpt lat="44.3393" lon="1.07789">
        <ele>238.308173</ele>
        <time>2022-08-01T08:28:54.492Z</time>
      </trkpt>
      <trkpt lat="44.33936" lon="1.07777">
        <ele>238.769852</ele>
        <time>2022-08-01T08:28:56.496Z</time>
      </trkpt>
      <trkpt lat="44.33942" lon="1.07765">
        <ele>239.221382</ele>
        <time>2022-08-01T08:28:58.479Z</time>
      </trkpt>
      <trkpt lat="44.33955" lon="1.07743">
        <ele>240.080236</ele>
        <time>2022-08-01T08:29:01.502Z</time>
      </trkpt>
      <trkpt lat="44.33959" lon="1.07732">
        <ele>240.47161</ele>
        <time>2022-08-01T08:29:06.492Z</time>
      </trkpt>
      <trkpt lat="44.33963" lon="1.07719">
        <ele>240.906374</ele>
        <time>2022-08-01T08:29:08.494Z</time>
      </trkpt>
      <trkpt lat="44.33967" lon="1.07707">
        <ele>241.29988</ele>
        <time>2022-08-01T08:29:12.500Z</time>
      </trkpt>
      <trkpt lat="44.33973" lon="1.07692">
        <ele>241.808054</ele>
        <time>2022-08-01T08:29:15.522Z</time>
      </trkpt>
      <trkpt lat="44.33979" lon="1.07676">
        <ele>242.367645</ele>
        <time>2022-08-01T08:29:18.499Z</time>
      </trkpt>
      <trkpt lat="44.33983" lon="1.07664">
        <ele>242.768192</ele>
        <time>2022-08-01T08:29:20.494Z</time>
      </trkpt>
      <trkpt lat="44.33986" lon="1.07652">
        <ele>243.178688</ele>
        <time>2022-08-01T08:29:22.495Z</time>
      </trkpt>
      <trkpt lat="44.3399" lon="1.07638">
        <ele>243.648131</ele>
        <time>2022-08-01T08:29:25.502Z</time>
      </trkpt>
      <trkpt lat="44.33994" lon="1.07625">
        <ele>244.079135</ele>
        <time>2022-08-01T08:29:29.486Z</time>
      </trkpt>
      <trkpt lat="44.33998" lon="1.07611">
        <ele>244.539825</ele>
        <time>2022-08-01T08:29:33.533Z</time>
      </trkpt>
      <trkpt lat="44.34003" lon="1.07597">
        <ele>245.023438</ele>
        <time>2022-08-01T08:29:37.508Z</time>
      </trkpt>
      <trkpt lat="44.34008" lon="1.07584">
        <ele>245.465582</ele>
        <time>2022-08-01T08:29:40.507Z</time>
      </trkpt>
      <trkpt lat="44.34013" lon="1.07571">
        <ele>245.915416</ele>
        <time>2022-08-01T08:29:43.501Z</time>
      </trkpt>
      <trkpt lat="44.34019" lon="1.07559">
        <ele>246.372249</ele>
        <time>2022-08-01T08:29:46.496Z</time>
      </trkpt>
      <trkpt lat="44.34024" lon="1.07544">
        <ele>246.874467</ele>
        <time>2022-08-01T08:29:50.469Z</time>
      </trkpt>
      <trkpt lat="44.34029" lon="1.07532">
        <ele>247.304562</ele>
        <time>2022-08-01T08:29:53.495Z</time>
      </trkpt>
      <trkpt lat="44.34034" lon="1.07518">
        <ele>247.763465</ele>
        <time>2022-08-01T08:29:56.501Z</time>
      </trkpt>
      <trkpt lat="44.34039" lon="1.07504">
        <ele>247.638507</ele>
        <time>2022-08-01T08:29:59.499Z</time>
      </trkpt>
      <trkpt lat="44.34043" lon="1.07491">
        <ele>247.501088</ele>
        <time>2022-08-01T08:30:07.501Z</time>
      </trkpt>
      <trkpt lat="44.3405" lon="1.07478">
        <ele>247.350936</ele>
        <time>2022-08-01T08:30:12.494Z</time>
      </trkpt>
      <trkpt lat="44.34057" lon="1.07463">
        <ele>247.179932</ele>
        <time>2022-08-01T08:30:15.518Z</time>
      </trkpt>
      <trkpt lat="44.34064" lon="1.07448">
        <ele>247.009494</ele>
        <time>2022-08-01T08:30:18.497Z</time>
      </trkpt>
      <trkpt lat="44.34073" lon="1.07434">
        <ele>246.835755</ele>
        <time>2022-08-01T08:30:21.535Z</time>
      </trkpt>
      <trkpt lat="44.34079" lon="1.07426">
        <ele>246.715709</ele>
        <time>2022-08-01T08:30:22.501Z</time>
      </trkpt>
      <trkpt lat="44.34089" lon="1.07409">
        <ele>246.511376</ele>
        <time>2022-08-01T08:30:24.506Z</time>
      </trkpt>
      <trkpt lat="44.341" lon="1.07398">
        <ele>246.335341</ele>
        <time>2022-08-01T08:30:26.486Z</time>
      </trkpt>
      <trkpt lat="44.3411" lon="1.07385">
        <ele>246.148858</ele>
        <time>2022-08-01T08:30:28.499Z</time>
      </trkpt>
      <trkpt lat="44.34119" lon="1.07373">
        <ele>245.981488</ele>
        <time>2022-08-01T08:30:30.514Z</time>
      </trkpt>
      <trkpt lat="44.3413" lon="1.07361">
        <ele>245.799205</ele>
        <time>2022-08-01T08:30:32.481Z</time>
      </trkpt>
      <trkpt lat="44.34143" lon="1.07345">
        <ele>245.565989</ele>
        <time>2022-08-01T08:30:34.493Z</time>
      </trkpt>
      <trkpt lat="44.3415" lon="1.07336">
        <ele>245.440436</ele>
        <time>2022-08-01T08:30:35.500Z</time>
      </trkpt>
      <trkpt lat="44.34163" lon="1.07322">
        <ele>245.132288</ele>
        <time>2022-08-01T08:30:37.504Z</time>
      </trkpt>
      <trkpt lat="44.34177" lon="1.07304">
        <ele>244.776828</ele>
        <time>2022-08-01T08:30:39.526Z</time>
      </trkpt>
      <trkpt lat="44.34183" lon="1.07296">
        <ele>244.598384</ele>
        <time>2022-08-01T08:30:40.483Z</time>
      </trkpt>
      <trkpt lat="44.34194" lon="1.07279">
        <ele>244.284872</ele>
        <time>2022-08-01T08:30:42.500Z</time>
      </trkpt>
      <trkpt lat="44.342" lon="1.07267">
        <ele>244.08478</ele>
        <time>2022-08-01T08:30:43.479Z</time>
      </trkpt>
      <trkpt lat="44.34206" lon="1.07256">
        <ele>243.890596</ele>
        <time>2022-08-01T08:30:44.491Z</time>
      </trkpt>
      <trkpt lat="44.34211" lon="1.07243">
        <ele>243.676166</ele>
        <time>2022-08-01T08:30:45.509Z</time>
      </trkpt>
      <trkpt lat="44.34215" lon="1.07231">
        <ele>243.498889</ele>
        <time>2022-08-01T08:30:46.503Z</time>
      </trkpt>
      <trkpt lat="44.34219" lon="1.07219">
        <ele>243.320808</ele>
        <time>2022-08-01T08:30:47.492Z</time>
      </trkpt>
      <trkpt lat="44.34222" lon="1.07207">
        <ele>243.143363</ele>
        <time>2022-08-01T08:30:48.496Z</time>
      </trkpt>
      <trkpt lat="44.34228" lon="1.07186">
        <ele>242.815335</ele>
        <time>2022-08-01T08:30:50.465Z</time>
      </trkpt>
      <trkpt lat="44.34234" lon="1.07164">
        <ele>242.502549</ele>
        <time>2022-08-01T08:30:52.499Z</time>
      </trkpt>
      <trkpt lat="44.3424" lon="1.07144">
        <ele>242.188218</ele>
        <time>2022-08-01T08:30:54.490Z</time>
      </trkpt>
      <trkpt lat="44.34245" lon="1.07124">
        <ele>241.897663</ele>
        <time>2022-08-01T08:30:56.485Z</time>
      </trkpt>
      <trkpt lat="44.34251" lon="1.07103">
        <ele>242.151311</ele>
        <time>2022-08-01T08:30:58.498Z</time>
      </trkpt>
      <trkpt lat="44.34256" lon="1.07084">
        <ele>242.405556</ele>
        <time>2022-08-01T08:31:00.495Z</time>
      </trkpt>
      <trkpt lat="44.34261" lon="1.07067">
        <ele>242.632184</ele>
        <time>2022-08-01T08:31:02.492Z</time>
      </trkpt>
      <trkpt lat="44.34267" lon="1.07047">
        <ele>242.896177</ele>
        <time>2022-08-01T08:31:04.485Z</time>
      </trkpt>
      <trkpt lat="44.34273" lon="1.07027">
        <ele>243.165693</ele>
        <time>2022-08-01T08:31:06.490Z</time>
      </trkpt>
      <trkpt lat="44.3428" lon="1.07006">
        <ele>243.446543</ele>
        <time>2022-08-01T08:31:08.492Z</time>
      </trkpt>
      <trkpt lat="44.34285" lon="1.06987">
        <ele>243.698515</ele>
        <time>2022-08-01T08:31:10.487Z</time>
      </trkpt>
      <trkpt lat="44.3429" lon="1.06966">
        <ele>243.972031</ele>
        <time>2022-08-01T08:31:12.495Z</time>
      </trkpt>
      <trkpt lat="44.34291" lon="1.06943">
        <ele>244.259486</ele>
        <time>2022-08-01T08:31:14.491Z</time>
      </trkpt>
      <trkpt lat="44.34288" lon="1.0692">
        <ele>244.548067</ele>
        <time>2022-08-01T08:31:16.503Z</time>
      </trkpt>
      <trkpt lat="44.34285" lon="1.06899">
        <ele>244.802331</ele>
        <time>2022-08-01T08:31:18.485Z</time>
      </trkpt>
      <trkpt lat="44.34287" lon="1.06882">
        <ele>245.097585</ele>
        <time>2022-08-01T08:31:21.518Z</time>
      </trkpt>
      <trkpt lat="44.34297" lon="1.06869">
        <ele>245.778192</ele>
        <time>2022-08-01T08:31:23.501Z</time>
      </trkpt>
      <trkpt lat="44.34307" lon="1.06855">
        <ele>246.538879</ele>
        <time>2022-08-01T08:31:25.499Z</time>
      </trkpt>
      <trkpt lat="44.34318" lon="1.06839">
        <ele>247.310395</ele>
        <time>2022-08-01T08:31:27.527Z</time>
      </trkpt>
      <trkpt lat="44.34326" lon="1.06827">
        <ele>247.915155</ele>
        <time>2022-08-01T08:31:29.498Z</time>
      </trkpt>
      <trkpt lat="44.34336" lon="1.06813">
        <ele>248.645054</ele>
        <time>2022-08-01T08:31:32.499Z</time>
      </trkpt>
      <trkpt lat="44.34342" lon="1.068">
        <ele>249.237327</ele>
        <time>2022-08-01T08:31:34.499Z</time>
      </trkpt>
      <trkpt lat="44.3435" lon="1.06781">
        <ele>250.045487</ele>
        <time>2022-08-01T08:31:37.483Z</time>
      </trkpt>
      <trkpt lat="44.34355" lon="1.06767">
        <ele>250.612255</ele>
        <time>2022-08-01T08:31:39.532Z</time>
      </trkpt>
      <trkpt lat="44.34361" lon="1.06752">
        <ele>251.228269</ele>
        <time>2022-08-01T08:31:43.491Z</time>
      </trkpt>
      <trkpt lat="44.34366" lon="1.06742">
        <ele>251.691782</ele>
        <time>2022-08-01T08:31:45.526Z</time>
      </trkpt>
      <trkpt lat="44.34373" lon="1.0673">
        <ele>252.254054</ele>
        <time>2022-08-01T08:31:47.500Z</time>
      </trkpt>
      <trkpt lat="44.34379" lon="1.06719">
        <ele>252.777803</ele>
        <time>2022-08-01T08:31:49.503Z</time>
      </trkpt>
      <trkpt lat="44.34384" lon="1.06708">
        <ele>253.257262</ele>
        <time>2022-08-01T08:31:52.500Z</time>
      </trkpt>
      <trkpt lat="44.3439" lon="1.06694">
        <ele>253.837728</ele>
        <time>2022-08-01T08:31:56.502Z</time>
      </trkpt>
      <trkpt lat="44.34399" lon="1.06676">
        <ele>253.334455</ele>
        <time>2022-08-01T08:31:59.494Z</time>
      </trkpt>
      <trkpt lat="44.34405" lon="1.06665">
        <ele>252.36164</ele>
        <time>2022-08-01T08:32:01.489Z</time>
      </trkpt>
      <trkpt lat="44.3441" lon="1.06652">
        <ele>251.190026</ele>
        <time>2022-08-01T08:32:03.530Z</time>
      </trkpt>
      <trkpt lat="44.34414" lon="1.06638">
        <ele>250.064648</ele>
        <time>2022-08-01T08:32:06.496Z</time>
      </trkpt>
      <trkpt lat="44.3442" lon="1.06625">
        <ele>248.91391</ele>
        <time>2022-08-01T08:32:08.504Z</time>
      </trkpt>
      <trkpt lat="44.34427" lon="1.0661">
        <ele>247.523663</ele>
        <time>2022-08-01T08:32:12.489Z</time>
      </trkpt>
      <trkpt lat="44.34434" lon="1.06595">
        <ele>246.238775</ele>
        <time>2022-08-01T08:32:15.530Z</time>
      </trkpt>
      <trkpt lat="44.34438" lon="1.06583">
        <ele>245.19938</ele>
        <time>2022-08-01T08:32:18.490Z</time>
      </trkpt>
      <trkpt lat="44.34444" lon="1.0657">
        <ele>244.07616</ele>
        <time>2022-08-01T08:32:21.522Z</time>
      </trkpt>
      <trkpt lat="44.34446" lon="1.06555">
        <ele>242.897957</ele>
        <time>2022-08-01T08:32:25.494Z</time>
      </trkpt>
      <trkpt lat="44.34454" lon="1.06541">
        <ele>241.55783</ele>
        <time>2022-08-01T08:32:28.500Z</time>
      </trkpt>
      <trkpt lat="44.34461" lon="1.06532">
        <ele>240.518335</ele>
        <time>2022-08-01T08:32:30.503Z</time>
      </trkpt>
      <trkpt lat="44.34473" lon="1.0652">
        <ele>238.99246</ele>
        <time>2022-08-01T08:32:32.494Z</time>
      </trkpt>
      <trkpt lat="44.34479" lon="1.0651">
        <ele>238.006369</ele>
        <time>2022-08-01T08:32:34.488Z</time>
      </trkpt>
      <trkpt lat="44.3449" lon="1.06495">
        <ele>236.461678</ele>
        <time>2022-08-01T08:32:40.500Z</time>
      </trkpt>
      <trkpt lat="44.34499" lon="1.06486">
        <ele>235.479802</ele>
        <time>2022-08-01T08:32:43.487Z</time>
      </trkpt>
      <trkpt lat="44.34507" lon="1.06477">
        <ele>237.962713</ele>
        <time>2022-08-01T08:32:47.503Z</time>
      </trkpt>
      <trkpt lat="44.34519" lon="1.06467">
        <ele>241.146804</ele>
        <time>2022-08-01T08:32:50.460Z</time>
      </trkpt>
      <trkpt lat="44.3453" lon="1.06463">
        <ele>243.946672</ele>
        <time>2022-08-01T08:32:53.502Z</time>
      </trkpt>
      <trkpt lat="44.34539" lon="1.06466">
        <ele>246.25549</ele>
        <time>2022-08-01T08:32:56.481Z</time>
      </trkpt>
      <trkpt lat="44.34549" lon="1.06469">
        <ele>248.688666</ele>
        <time>2022-08-01T08:32:59.494Z</time>
      </trkpt>
      <trkpt lat="44.34559" lon="1.06474">
        <ele>251.197793</ele>
        <time>2022-08-01T08:33:02.497Z</time>
      </trkpt>
      <trkpt lat="44.34568" lon="1.06479">
        <ele>253.596218</ele>
        <time>2022-08-01T08:33:05.494Z</time>
      </trkpt>
      <trkpt lat="44.34577" lon="1.06484">
        <ele>255.862465</ele>
        <time>2022-08-01T08:33:08.502Z</time>
      </trkpt>
      <trkpt lat="44.34587" lon="1.06488">
        <ele>258.304393</ele>
        <time>2022-08-01T08:33:11.481Z</time>
      </trkpt>
      <trkpt lat="44.34597" lon="1.06494">
        <ele>261.004998</ele>
        <time>2022-08-01T08:33:14.492Z</time>
      </trkpt>
      <trkpt lat="44.34608" lon="1.06501">
        <ele>263.783543</ele>
        <time>2022-08-01T08:33:17.500Z</time>
      </trkpt>
      <trkpt lat="44.34617" lon="1.06506">
        <ele>266.128707</ele>
        <time>2022-08-01T08:33:21.527Z</time>
      </trkpt>
      <trkpt lat="44.34626" lon="1.0651">
        <ele>268.270894</ele>
        <time>2022-08-01T08:33:24.495Z</time>
      </trkpt>
      <trkpt lat="44.34635" lon="1.06515">
        <ele>270.803284</ele>
        <time>2022-08-01T08:33:27.528Z</time>
      </trkpt>
      <trkpt lat="44.34647" lon="1.06523">
        <ele>273.986676</ele>
        <time>2022-08-01T08:33:30.503Z</time>
      </trkpt>
      <trkpt lat="44.34658" lon="1.0653">
        <ele>276.765217</ele>
        <time>2022-08-01T08:33:33.515Z</time>
      </trkpt>
      <trkpt lat="44.34668" lon="1.06534">
        <ele>278.904118</ele>
        <time>2022-08-01T08:33:37.501Z</time>
      </trkpt>
      <trkpt lat="44.34679" lon="1.06536">
        <ele>280.443539</ele>
        <time>2022-08-01T08:33:41.489Z</time>
      </trkpt>
      <trkpt lat="44.34689" lon="1.06536">
        <ele>281.817057</ele>
        <time>2022-08-01T08:33:44.483Z</time>
      </trkpt>
      <trkpt lat="44.34699" lon="1.06536">
        <ele>283.290405</ele>
        <time>2022-08-01T08:33:47.508Z</time>
      </trkpt>
      <trkpt lat="44.34711" lon="1.06536">
        <ele>284.976749</ele>
        <time>2022-08-01T08:33:50.474Z</time>
      </trkpt>
      <trkpt lat="44.34723" lon="1.06537">
        <ele>286.718266</ele>
        <time>2022-08-01T08:33:53.508Z</time>
      </trkpt>
      <trkpt lat="44.34734" lon="1.06535">
        <ele>288.226726</ele>
        <time>2022-08-01T08:33:55.494Z</time>
      </trkpt>
      <trkpt lat="44.34745" lon="1.06536">
        <ele>289.888484</ele>
        <time>2022-08-01T08:33:57.531Z</time>
      </trkpt>
      <trkpt lat="44.34759" lon="1.06532">
        <ele>291.867202</ele>
        <time>2022-08-01T08:33:59.494Z</time>
      </trkpt>
      <trkpt lat="44.34774" lon="1.06527">
        <ele>294.092647</ele>
        <time>2022-08-01T08:34:01.500Z</time>
      </trkpt>
      <trkpt lat="44.34785" lon="1.0653">
        <ele>295.562454</ele>
        <time>2022-08-01T08:34:02.468Z</time>
      </trkpt>
      <trkpt lat="44.34794" lon="1.06535">
        <ele>296.929058</ele>
        <time>2022-08-01T08:34:03.524Z</time>
      </trkpt>
      <trkpt lat="44.34803" lon="1.06541">
        <ele>298.443327</ele>
        <time>2022-08-01T08:34:04.499Z</time>
      </trkpt>
      <trkpt lat="44.34813" lon="1.06547">
        <ele>299.928013</ele>
        <time>2022-08-01T08:34:05.497Z</time>
      </trkpt>
      <trkpt lat="44.34822" lon="1.06555">
        <ele>301.47926</ele>
        <time>2022-08-01T08:34:06.497Z</time>
      </trkpt>
      <trkpt lat="44.34832" lon="1.06559">
        <ele>302.903437</ele>
        <time>2022-08-01T08:34:07.480Z</time>
      </trkpt>
      <trkpt lat="44.34844" lon="1.06558">
        <ele>303.751723</ele>
        <time>2022-08-01T08:34:08.500Z</time>
      </trkpt>
      <trkpt lat="44.34856" lon="1.06552">
        <ele>303.520294</ele>
        <time>2022-08-01T08:34:09.525Z</time>
      </trkpt>
      <trkpt lat="44.34868" lon="1.06547">
        <ele>303.306662</ele>
        <time>2022-08-01T08:34:10.504Z</time>
      </trkpt>
      <trkpt lat="44.3488" lon="1.06542">
        <ele>303.076785</ele>
        <time>2022-08-01T08:34:11.487Z</time>
      </trkpt>
      <trkpt lat="44.34891" lon="1.06537">
        <ele>302.866845</ele>
        <time>2022-08-01T08:34:12.500Z</time>
      </trkpt>
      <trkpt lat="44.34901" lon="1.06532">
        <ele>302.672183</ele>
        <time>2022-08-01T08:34:13.495Z</time>
      </trkpt>
      <trkpt lat="44.34913" lon="1.06526">
        <ele>302.452647</ele>
        <time>2022-08-01T08:34:14.484Z</time>
      </trkpt>
      <trkpt lat="44.34923" lon="1.06522">
        <ele>302.265201</ele>
        <time>2022-08-01T08:34:15.512Z</time>
      </trkpt>
      <trkpt lat="44.34932" lon="1.06521">
        <ele>302.097242</ele>
        <time>2022-08-01T08:34:16.480Z</time>
      </trkpt>
      <trkpt lat="44.34942" lon="1.06519">
        <ele>301.914931</ele>
        <time>2022-08-01T08:34:17.490Z</time>
      </trkpt>
      <trkpt lat="44.34952" lon="1.06516">
        <ele>301.732068</ele>
        <time>2022-08-01T08:34:18.506Z</time>
      </trkpt>
      <trkpt lat="44.34968" lon="1.06515">
        <ele>301.459714</ele>
        <time>2022-08-01T08:34:20.484Z</time>
      </trkpt>
      <trkpt lat="44.34977" lon="1.06516">
        <ele>301.284098</ele>
        <time>2022-08-01T08:34:22.501Z</time>
      </trkpt>
      <trkpt lat="44.34988" lon="1.06522">
        <ele>301.074756</ele>
        <time>2022-08-01T08:34:24.486Z</time>
      </trkpt>
      <trkpt lat="44.34996" lon="1.06539">
        <ele>300.813429</ele>
        <time>2022-08-01T08:34:26.490Z</time>
      </trkpt>
      <trkpt lat="44.35003" lon="1.06557">
        <ele>300.668254</ele>
        <time>2022-08-01T08:34:28.500Z</time>
      </trkpt>
      <trkpt lat="44.35019" lon="1.06564">
        <ele>300.818175</ele>
        <time>2022-08-01T08:34:30.479Z</time>
      </trkpt>
      <trkpt lat="44.35028" lon="1.06567">
        <ele>300.902062</ele>
        <time>2022-08-01T08:34:31.493Z</time>
      </trkpt>
      <trkpt lat="44.35046" lon="1.06572">
        <ele>301.065709</ele>
        <time>2022-08-01T08:34:33.534Z</time>
      </trkpt>
      <trkpt lat="44.35058" lon="1.06578">
        <ele>301.178492</ele>
        <time>2022-08-01T08:34:35.488Z</time>
      </trkpt>
      <trkpt lat="44.35068" lon="1.06585">
        <ele>301.27806</ele>
        <time>2022-08-01T08:34:38.491Z</time>
      </trkpt>
      <trkpt lat="44.35078" lon="1.06591">
        <ele>301.374879</ele>
        <time>2022-08-01T08:34:42.492Z</time>
      </trkpt>
      <trkpt lat="44.3509" lon="1.06595">
        <ele>301.490109</ele>
        <time>2022-08-01T08:34:47.498Z</time>
      </trkpt>
      <trkpt lat="44.351" lon="1.066">
        <ele>301.588783</ele>
        <time>2022-08-01T08:34:52.498Z</time>
      </trkpt>
      <trkpt lat="44.35109" lon="1.06604">
        <ele>301.674198</ele>
        <time>2022-08-01T08:34:55.507Z</time>
      </trkpt>
      <trkpt lat="44.3512" lon="1.06608">
        <ele>301.775478</ele>
        <time>2022-08-01T08:34:58.480Z</time>
      </trkpt>
      <trkpt lat="44.3513" lon="1.06612">
        <ele>301.87101</ele>
        <time>2022-08-01T08:35:01.504Z</time>
      </trkpt>
      <trkpt lat="44.35141" lon="1.06616">
        <ele>301.973507</ele>
        <time>2022-08-01T08:35:04.498Z</time>
      </trkpt>
      <trkpt lat="44.35152" lon="1.06621">
        <ele>302.074757</ele>
        <time>2022-08-01T08:35:08.498Z</time>
      </trkpt>
      <trkpt lat="44.35162" lon="1.06626">
        <ele>302.170497</ele>
        <time>2022-08-01T08:35:13.504Z</time>
      </trkpt>
      <trkpt lat="44.35172" lon="1.06631">
        <ele>302.325996</ele>
        <time>2022-08-01T08:35:18.493Z</time>
      </trkpt>
      <trkpt lat="44.35183" lon="1.06635">
        <ele>302.977245</ele>
        <time>2022-08-01T08:35:23.496Z</time>
      </trkpt>
      <trkpt lat="44.35192" lon="1.06639">
        <ele>303.559619</ele>
        <time>2022-08-01T08:35:27.472Z</time>
      </trkpt>
      <trkpt lat="44.35202" lon="1.06644">
        <ele>304.139163</ele>
        <time>2022-08-01T08:35:31.459Z</time>
      </trkpt>
      <trkpt lat="44.35212" lon="1.06648">
        <ele>304.726532</ele>
        <time>2022-08-01T08:35:35.498Z</time>
      </trkpt>
      <trkpt lat="44.35221" lon="1.06653">
        <ele>305.287341</ele>
        <time>2022-08-01T08:35:39.515Z</time>
      </trkpt>
      <trkpt lat="44.35229" lon="1.06657">
        <ele>305.806035</ele>
        <time>2022-08-01T08:35:43.500Z</time>
      </trkpt>
      <trkpt lat="44.35238" lon="1.06659">
        <ele>306.340997</ele>
        <time>2022-08-01T08:35:47.499Z</time>
      </trkpt>
      <trkpt lat="44.35248" lon="1.0666">
        <ele>306.901144</ele>
        <time>2022-08-01T08:35:51.468Z</time>
      </trkpt>
      <trkpt lat="44.35259" lon="1.06662">
        <ele>307.554963</ele>
        <time>2022-08-01T08:35:55.503Z</time>
      </trkpt>
      <trkpt lat="44.35269" lon="1.06662">
        <ele>308.14302</ele>
        <time>2022-08-01T08:36:00.505Z</time>
      </trkpt>
      <trkpt lat="44.35279" lon="1.06662">
        <ele>308.679153</ele>
        <time>2022-08-01T08:36:06.496Z</time>
      </trkpt>
      <trkpt lat="44.35288" lon="1.06664">
        <ele>309.215875</ele>
        <time>2022-08-01T08:36:11.494Z</time>
      </trkpt>
      <trkpt lat="44.35298" lon="1.06666">
        <ele>309.820498</ele>
        <time>2022-08-01T08:36:16.496Z</time>
      </trkpt>
      <trkpt lat="44.35308" lon="1.0667">
        <ele>310.387893</ele>
        <time>2022-08-01T08:36:20.524Z</time>
      </trkpt>
      <trkpt lat="44.35319" lon="1.06669">
        <ele>311.045895</ele>
        <time>2022-08-01T08:36:24.489Z</time>
      </trkpt>
      <trkpt lat="44.35329" lon="1.0667">
        <ele>311.594797</ele>
        <time>2022-08-01T08:36:28.502Z</time>
      </trkpt>
      <trkpt lat="44.35338" lon="1.0667">
        <ele>312.148592</ele>
        <time>2022-08-01T08:36:33.491Z</time>
      </trkpt>
      <trkpt lat="44.35348" lon="1.06678">
        <ele>312.604367</ele>
        <time>2022-08-01T08:36:39.489Z</time>
      </trkpt>
      <trkpt lat="44.35354" lon="1.06688">
        <ele>312.521778</ele>
        <time>2022-08-01T08:36:43.498Z</time>
      </trkpt>
      <trkpt lat="44.3536" lon="1.06698">
        <ele>312.444044</ele>
        <time>2022-08-01T08:36:47.496Z</time>
      </trkpt>
      <trkpt lat="44.35363" lon="1.0671">
        <ele>312.366824</ele>
        <time>2022-08-01T08:36:52.489Z</time>
      </trkpt>
      <trkpt lat="44.35364" lon="1.06723">
        <ele>312.289713</ele>
        <time>2022-08-01T08:36:56.527Z</time>
      </trkpt>
      <trkpt lat="44.35366" lon="1.06736">
        <ele>312.206955</ele>
        <time>2022-08-01T08:36:59.499Z</time>
      </trkpt>
      <trkpt lat="44.35369" lon="1.06752">
        <ele>312.107336</ele>
        <time>2022-08-01T08:37:02.525Z</time>
      </trkpt>
      <trkpt lat="44.35376" lon="1.06765">
        <ele>312.00727</ele>
        <time>2022-08-01T08:37:04.506Z</time>
      </trkpt>
      <trkpt lat="44.35385" lon="1.0678">
        <ele>311.888169</ele>
        <time>2022-08-01T08:37:06.478Z</time>
      </trkpt>
      <trkpt lat="44.35395" lon="1.06793">
        <ele>311.769235</ele>
        <time>2022-08-01T08:37:08.521Z</time>
      </trkpt>
      <trkpt lat="44.35407" lon="1.06802">
        <ele>311.658065</ele>
        <time>2022-08-01T08:37:10.485Z</time>
      </trkpt>
      <trkpt lat="44.35417" lon="1.06811">
        <ele>311.550883</ele>
        <time>2022-08-01T08:37:12.498Z</time>
      </trkpt>
      <trkpt lat="44.35433" lon="1.0682">
        <ele>311.405795</ele>
        <time>2022-08-01T08:37:14.535Z</time>
      </trkpt>
      <trkpt lat="44.35447" lon="1.06829">
        <ele>311.277225</ele>
        <time>2022-08-01T08:37:16.489Z</time>
      </trkpt>
      <trkpt lat="44.35462" lon="1.06841">
        <ele>311.128135</ele>
        <time>2022-08-01T08:37:18.487Z</time>
      </trkpt>
      <trkpt lat="44.35477" lon="1.0685">
        <ele>310.699612</ele>
        <time>2022-08-01T08:37:20.546Z</time>
      </trkpt>
      <trkpt lat="44.3549" lon="1.06862">
        <ele>310.167859</ele>
        <time>2022-08-01T08:37:22.478Z</time>
      </trkpt>
      <trkpt lat="44.35502" lon="1.0688">
        <ele>309.609664</ele>
        <time>2022-08-01T08:37:24.487Z</time>
      </trkpt>
      <trkpt lat="44.35511" lon="1.06896">
        <ele>309.121654</ele>
        <time>2022-08-01T08:37:26.537Z</time>
      </trkpt>
      <trkpt lat="44.3552" lon="1.0691">
        <ele>308.670018</ele>
        <time>2022-08-01T08:37:28.493Z</time>
      </trkpt>
      <trkpt lat="44.35531" lon="1.06925">
        <ele>308.166259</ele>
        <time>2022-08-01T08:37:30.506Z</time>
      </trkpt>
      <trkpt lat="44.35544" lon="1.06937">
        <ele>307.676705</ele>
        <time>2022-08-01T08:37:32.524Z</time>
      </trkpt>
      <trkpt lat="44.35557" lon="1.06949">
        <ele>307.147716</ele>
        <time>2022-08-01T08:37:34.488Z</time>
      </trkpt>
      <trkpt lat="44.35569" lon="1.06957">
        <ele>306.72086</ele>
        <time>2022-08-01T08:37:36.497Z</time>
      </trkpt>
      <trkpt lat="44.3558" lon="1.06965">
        <ele>306.288657</ele>
        <time>2022-08-01T08:37:38.524Z</time>
      </trkpt>
      <trkpt lat="44.3559" lon="1.06972">
        <ele>305.93162</ele>
        <time>2022-08-01T08:37:40.496Z</time>
      </trkpt>
      <trkpt lat="44.35602" lon="1.06984">
        <ele>305.455433</ele>
        <time>2022-08-01T08:37:45.478Z</time>
      </trkpt>
      <trkpt lat="44.35615" lon="1.06989">
        <ele>304.275547</ele>
        <time>2022-08-01T08:37:47.492Z</time>
      </trkpt>
      <trkpt lat="44.3563" lon="1.06987">
        <ele>301.172266</ele>
        <time>2022-08-01T08:37:49.500Z</time>
      </trkpt>
      <trkpt lat="44.35641" lon="1.06987">
        <ele>298.783182</ele>
        <time>2022-08-01T08:37:51.479Z</time>
      </trkpt>
      <trkpt lat="44.35655" lon="1.06982">
        <ele>295.777889</ele>
        <time>2022-08-01T08:37:53.503Z</time>
      </trkpt>
      <trkpt lat="44.35667" lon="1.06978">
        <ele>293.330741</ele>
        <time>2022-08-01T08:37:55.490Z</time>
      </trkpt>
      <trkpt lat="44.35681" lon="1.06967">
        <ele>289.958546</ele>
        <time>2022-08-01T08:37:57.494Z</time>
      </trkpt>
      <trkpt lat="44.35695" lon="1.06955">
        <ele>286.594365</ele>
        <time>2022-08-01T08:37:59.489Z</time>
      </trkpt>
      <trkpt lat="44.35705" lon="1.06949">
        <ele>284.322714</ele>
        <time>2022-08-01T08:38:01.490Z</time>
      </trkpt>
      <trkpt lat="44.35715" lon="1.0694">
        <ele>281.933465</ele>
        <time>2022-08-01T08:38:02.521Z</time>
      </trkpt>
      <trkpt lat="44.35724" lon="1.06929">
        <ele>279.508153</ele>
        <time>2022-08-01T08:38:04.490Z</time>
      </trkpt>
      <trkpt lat="44.3574" lon="1.06917">
        <ele>275.679626</ele>
        <time>2022-08-01T08:38:06.496Z</time>
      </trkpt>
      <trkpt lat="44.35757" lon="1.06905">
        <ele>271.783988</ele>
        <time>2022-08-01T08:38:08.528Z</time>
      </trkpt>
      <trkpt lat="44.35774" lon="1.06895">
        <ele>268.149044</ele>
        <time>2022-08-01T08:38:10.486Z</time>
      </trkpt>
      <trkpt lat="44.35786" lon="1.0691">
        <ele>270.062027</ele>
        <time>2022-08-01T08:38:12.486Z</time>
      </trkpt>
      <trkpt lat="44.35793" lon="1.06924">
        <ele>271.514104</ele>
        <time>2022-08-01T08:38:13.482Z</time>
      </trkpt>
      <trkpt lat="44.358" lon="1.06935">
        <ele>272.77716</ele>
        <time>2022-08-01T08:38:14.515Z</time>
      </trkpt>
      <trkpt lat="44.35807" lon="1.06945">
        <ele>273.924088</ele>
        <time>2022-08-01T08:38:15.495Z</time>
      </trkpt>
      <trkpt lat="44.35814" lon="1.06954">
        <ele>275.020395</ele>
        <time>2022-08-01T08:38:16.496Z</time>
      </trkpt>
      <trkpt lat="44.35826" lon="1.06964">
        <ele>276.76374</ele>
        <time>2022-08-01T08:38:18.485Z</time>
      </trkpt>
      <trkpt lat="44.35841" lon="1.0697">
        <ele>278.558693</ele>
        <time>2022-08-01T08:38:20.516Z</time>
      </trkpt>
      <trkpt lat="44.35853" lon="1.06975">
        <ele>280.131684</ele>
        <time>2022-08-01T08:38:22.498Z</time>
      </trkpt>
      <trkpt lat="44.35865" lon="1.06976">
        <ele>281.454359</ele>
        <time>2022-08-01T08:38:26.522Z</time>
      </trkpt>
      <trkpt lat="44.35877" lon="1.06987">
        <ele>283.186184</ele>
        <time>2022-08-01T08:38:29.490Z</time>
      </trkpt>
      <trkpt lat="44.35886" lon="1.06994">
        <ele>284.437501</ele>
        <time>2022-08-01T08:38:31.506Z</time>
      </trkpt>
      <trkpt lat="44.35896" lon="1.06996">
        <ele>285.601418</ele>
        <time>2022-08-01T08:38:32.527Z</time>
      </trkpt>
      <trkpt lat="44.3591" lon="1.07002">
        <ele>287.316635</ele>
        <time>2022-08-01T08:38:34.503Z</time>
      </trkpt>
      <trkpt lat="44.35923" lon="1.07008">
        <ele>288.98391</ele>
        <time>2022-08-01T08:38:36.487Z</time>
      </trkpt>
      <trkpt lat="44.35936" lon="1.07012">
        <ele>289.833621</ele>
        <time>2022-08-01T08:38:38.518Z</time>
      </trkpt>
      <trkpt lat="44.35948" lon="1.07017">
        <ele>290.323039</ele>
        <time>2022-08-01T08:38:40.498Z</time>
      </trkpt>
      <trkpt lat="44.3596" lon="1.07026">
        <ele>290.874248</ele>
        <time>2022-08-01T08:38:42.480Z</time>
      </trkpt>
      <trkpt lat="44.35972" lon="1.07032">
        <ele>291.396489</ele>
        <time>2022-08-01T08:38:44.509Z</time>
      </trkpt>
      <trkpt lat="44.35985" lon="1.07041">
        <ele>291.972549</ele>
        <time>2022-08-01T08:38:46.500Z</time>
      </trkpt>
      <trkpt lat="44.35995" lon="1.07043">
        <ele>292.351336</ele>
        <time>2022-08-01T08:38:47.492Z</time>
      </trkpt>
      <trkpt lat="44.36001" lon="1.07053">
        <ele>292.719169</ele>
        <time>2022-08-01T08:38:50.499Z</time>
      </trkpt>
      <trkpt lat="44.36014" lon="1.07065">
        <ele>293.341489</ele>
        <time>2022-08-01T08:38:52.498Z</time>
      </trkpt>
      <trkpt lat="44.36021" lon="1.07078">
        <ele>293.79339</ele>
        <time>2022-08-01T08:38:54.502Z</time>
      </trkpt>
      <trkpt lat="44.36027" lon="1.0709">
        <ele>294.194594</ele>
        <time>2022-08-01T08:38:55.493Z</time>
      </trkpt>
      <trkpt lat="44.36035" lon="1.07103">
        <ele>294.69494</ele>
        <time>2022-08-01T08:38:57.463Z</time>
      </trkpt>
      <trkpt lat="44.36041" lon="1.07123">
        <ele>295.307572</ele>
        <time>2022-08-01T08:38:59.485Z</time>
      </trkpt>
      <trkpt lat="44.36053" lon="1.07129">
        <ele>295.794528</ele>
        <time>2022-08-01T08:39:01.488Z</time>
      </trkpt>
      <trkpt lat="44.36072" lon="1.07137">
        <ele>296.588588</ele>
        <time>2022-08-01T08:39:03.481Z</time>
      </trkpt>
      <trkpt lat="44.36089" lon="1.07145">
        <ele>296.042389</ele>
        <time>2022-08-01T08:39:05.473Z</time>
      </trkpt>
      <trkpt lat="44.36103" lon="1.07147">
        <ele>295.574461</ele>
        <time>2022-08-01T08:39:07.518Z</time>
      </trkpt>
      <trkpt lat="44.36113" lon="1.07147">
        <ele>295.22996</ele>
        <time>2022-08-01T08:39:08.480Z</time>
      </trkpt>
      <trkpt lat="44.36121" lon="1.0714">
        <ele>294.918986</ele>
        <time>2022-08-01T08:39:09.481Z</time>
      </trkpt>
      <trkpt lat="44.36137" lon="1.07132">
        <ele>294.381781</ele>
        <time>2022-08-01T08:39:11.482Z</time>
      </trkpt>
      <trkpt lat="44.36145" lon="1.07127">
        <ele>294.078487</ele>
        <time>2022-08-01T08:39:12.478Z</time>
      </trkpt>
      <trkpt lat="44.36159" lon="1.0712">
        <ele>293.585126</ele>
        <time>2022-08-01T08:39:14.485Z</time>
      </trkpt>
      <trkpt lat="44.36173" lon="1.07109">
        <ele>293.066863</ele>
        <time>2022-08-01T08:39:16.479Z</time>
      </trkpt>
      <trkpt lat="44.36188" lon="1.07106">
        <ele>292.555351</ele>
        <time>2022-08-01T08:39:18.484Z</time>
      </trkpt>
      <trkpt lat="44.36199" lon="1.07106">
        <ele>292.194704</ele>
        <time>2022-08-01T08:39:19.503Z</time>
      </trkpt>
      <trkpt lat="44.36213" lon="1.07098">
        <ele>291.695795</ele>
        <time>2022-08-01T08:39:21.480Z</time>
      </trkpt>
      <trkpt lat="44.36223" lon="1.07093">
        <ele>291.356141</ele>
        <time>2022-08-01T08:39:22.494Z</time>
      </trkpt>
      <trkpt lat="44.36237" lon="1.07088">
        <ele>290.856144</ele>
        <time>2022-08-01T08:39:24.496Z</time>
      </trkpt>
      <trkpt lat="44.36254" lon="1.07084">
        <ele>290.757026</ele>
        <time>2022-08-01T08:39:26.494Z</time>
      </trkpt>
      <trkpt lat="44.36269" lon="1.07079">
        <ele>290.879794</ele>
        <time>2022-08-01T08:39:28.488Z</time>
      </trkpt>
      <trkpt lat="44.36283" lon="1.07076">
        <ele>290.993885</ele>
        <time>2022-08-01T08:39:30.488Z</time>
      </trkpt>
      <trkpt lat="44.36292" lon="1.07071">
        <ele>291.072665</ele>
        <time>2022-08-01T08:39:31.538Z</time>
      </trkpt>
      <trkpt lat="44.36306" lon="1.07064">
        <ele>291.190842</ele>
        <time>2022-08-01T08:39:33.497Z</time>
      </trkpt>
      <trkpt lat="44.3632" lon="1.07061">
        <ele>291.307006</ele>
        <time>2022-08-01T08:39:36.489Z</time>
      </trkpt>
      <trkpt lat="44.36326" lon="1.07071">
        <ele>291.383224</ele>
        <time>2022-08-01T08:39:39.464Z</time>
      </trkpt>
      <trkpt lat="44.3633" lon="1.07088">
        <ele>291.486102</ele>
        <time>2022-08-01T08:39:41.477Z</time>
      </trkpt>
      <trkpt lat="44.36335" lon="1.07107">
        <ele>291.598751</ele>
        <time>2022-08-01T08:39:43.512Z</time>
      </trkpt>
      <trkpt lat="44.36341" lon="1.07131">
        <ele>291.750742</ele>
        <time>2022-08-01T08:39:45.502Z</time>
      </trkpt>
      <trkpt lat="44.36346" lon="1.07149">
        <ele>291.859682</ele>
        <time>2022-08-01T08:39:47.495Z</time>
      </trkpt>
      <trkpt lat="44.3635" lon="1.07169">
        <ele>291.978388</ele>
        <time>2022-08-01T08:39:49.497Z</time>
      </trkpt>
      <trkpt lat="44.36356" lon="1.07186">
        <ele>292.089231</ele>
        <time>2022-08-01T08:39:51.478Z</time>
      </trkpt>
      <trkpt lat="44.36367" lon="1.07202">
        <ele>292.647167</ele>
        <time>2022-08-01T08:39:53.498Z</time>
      </trkpt>
      <trkpt lat="44.36374" lon="1.07209">
        <ele>293.02931</ele>
        <time>2022-08-01T08:39:54.519Z</time>
      </trkpt>
      <trkpt lat="44.36383" lon="1.07216">
        <ele>293.465506</ele>
        <time>2022-08-01T08:39:57.469Z</time>
      </trkpt>
      <trkpt lat="44.36392" lon="1.07221">
        <ele>293.882054</ele>
        <time>2022-08-01T08:40:03.494Z</time>
      </trkpt>
      <trkpt lat="44.364" lon="1.0723">
        <ele>294.335445</ele>
        <time>2022-08-01T08:40:06.492Z</time>
      </trkpt>
      <trkpt lat="44.3641" lon="1.07234">
        <ele>294.769874</ele>
        <time>2022-08-01T08:40:10.481Z</time>
      </trkpt>
      <trkpt lat="44.3642" lon="1.07237">
        <ele>295.194252</ele>
        <time>2022-08-01T08:40:14.494Z</time>
      </trkpt>
      <trkpt lat="44.36431" lon="1.07237">
        <ele>295.681588</ele>
        <time>2022-08-01T08:40:19.479Z</time>
      </trkpt>
      <trkpt lat="44.36442" lon="1.07238">
        <ele>296.143595</ele>
        <time>2022-08-01T08:40:23.483Z</time>
      </trkpt>
      <trkpt lat="44.36452" lon="1.0724">
        <ele>296.574303</ele>
        <time>2022-08-01T08:40:27.501Z</time>
      </trkpt>
      <trkpt lat="44.36463" lon="1.07245">
        <ele>297.065294</ele>
        <time>2022-08-01T08:40:31.497Z</time>
      </trkpt>
      <trkpt lat="44.36472" lon="1.07252">
        <ele>297.504595</ele>
        <time>2022-08-01T08:40:35.490Z</time>
      </trkpt>
      <trkpt lat="44.36483" lon="1.0726">
        <ele>298.057084</ele>
        <time>2022-08-01T08:40:38.499Z</time>
      </trkpt>
      <trkpt lat="44.36493" lon="1.07265">
        <ele>298.478473</ele>
        <time>2022-08-01T08:40:41.479Z</time>
      </trkpt>
      <trkpt lat="44.36502" lon="1.07273">
        <ele>298.956956</ele>
        <time>2022-08-01T08:40:45.462Z</time>
      </trkpt>
      <trkpt lat="44.36504" lon="1.07289">
        <ele>299.442552</ele>
        <time>2022-08-01T08:40:50.475Z</time>
      </trkpt>
      <trkpt lat="44.36504" lon="1.07306">
        <ele>299.672303</ele>
        <time>2022-08-01T08:40:54.495Z</time>
      </trkpt>
      <trkpt lat="44.36506" lon="1.07322">
        <ele>299.27874</ele>
        <time>2022-08-01T08:40:57.484Z</time>
      </trkpt>
      <trkpt lat="44.36509" lon="1.07338">
        <ele>298.870186</ele>
        <time>2022-08-01T08:41:00.490Z</time>
      </trkpt>
      <trkpt lat="44.36512" lon="1.07355">
        <ele>298.422787</ele>
        <time>2022-08-01T08:41:03.513Z</time>
      </trkpt>
      <trkpt lat="44.36513" lon="1.07368">
        <ele>298.108368</ele>
        <time>2022-08-01T08:41:05.496Z</time>
      </trkpt>
      <trkpt lat="44.36513" lon="1.07385">
        <ele>297.679273</ele>
        <time>2022-08-01T08:41:07.469Z</time>
      </trkpt>
      <trkpt lat="44.36514" lon="1.07399">
        <ele>297.339048</ele>
        <time>2022-08-01T08:41:10.501Z</time>
      </trkpt>
      <trkpt lat="44.36515" lon="1.07411">
        <ele>297.022804</ele>
        <time>2022-08-01T08:41:12.497Z</time>
      </trkpt>
      <trkpt lat="44.36516" lon="1.07427">
        <ele>296.639374</ele>
        <time>2022-08-01T08:41:14.471Z</time>
      </trkpt>
      <trkpt lat="44.36517" lon="1.07444">
        <ele>296.21611</ele>
        <time>2022-08-01T08:41:16.493Z</time>
      </trkpt>
      <trkpt lat="44.36517" lon="1.07466">
        <ele>295.673159</ele>
        <time>2022-08-01T08:41:18.466Z</time>
      </trkpt>
      <trkpt lat="44.36519" lon="1.0748">
        <ele>295.310525</ele>
        <time>2022-08-01T08:41:19.486Z</time>
      </trkpt>
      <trkpt lat="44.36517" lon="1.07502">
        <ele>294.770973</ele>
        <time>2022-08-01T08:41:20.512Z</time>
      </trkpt>
      <trkpt lat="44.36517" lon="1.0752">
        <ele>294.322958</ele>
        <time>2022-08-01T08:41:21.523Z</time>
      </trkpt>
      <trkpt lat="44.3652" lon="1.0754">
        <ele>293.822247</ele>
        <time>2022-08-01T08:41:23.488Z</time>
      </trkpt>
      <trkpt lat="44.36519" lon="1.0756">
        <ele>293.32814</ele>
        <time>2022-08-01T08:41:25.482Z</time>
      </trkpt>
      <trkpt lat="44.3652" lon="1.0758">
        <ele>292.795086</ele>
        <time>2022-08-01T08:41:27.507Z</time>
      </trkpt>
      <trkpt lat="44.3652" lon="1.076">
        <ele>292.286907</ele>
        <time>2022-08-01T08:41:29.508Z</time>
      </trkpt>
      <trkpt lat="44.36521" lon="1.0762">
        <ele>291.78808</ele>
        <time>2022-08-01T08:41:31.489Z</time>
      </trkpt>
      <trkpt lat="44.36521" lon="1.07639">
        <ele>291.307837</ele>
        <time>2022-08-01T08:41:33.529Z</time>
      </trkpt>
      <trkpt lat="44.36522" lon="1.07656">
        <ele>290.870572</ele>
        <time>2022-08-01T08:41:35.476Z</time>
      </trkpt>
      <trkpt lat="44.36522" lon="1.07672">
        <ele>290.466179</ele>
        <time>2022-08-01T08:41:37.502Z</time>
      </trkpt>
      <trkpt lat="44.36523" lon="1.07694">
        <ele>289.919701</ele>
        <time>2022-08-01T08:41:39.501Z</time>
      </trkpt>
      <trkpt lat="44.36523" lon="1.07712">
        <ele>289.44454</ele>
        <time>2022-08-01T08:41:41.482Z</time>
      </trkpt>
      <trkpt lat="44.36522" lon="1.07731">
        <ele>288.958176</ele>
        <time>2022-08-01T08:41:43.486Z</time>
      </trkpt>
      <trkpt lat="44.36518" lon="1.07751">
        <ele>288.452291</ele>
        <time>2022-08-01T08:41:45.482Z</time>
      </trkpt>
      <trkpt lat="44.36513" lon="1.0777">
        <ele>287.921124</ele>
        <time>2022-08-01T08:41:47.476Z</time>
      </trkpt>
      <trkpt lat="44.36504" lon="1.0779">
        <ele>287.323707</ele>
        <time>2022-08-01T08:41:49.490Z</time>
      </trkpt>
      <trkpt lat="44.36494" lon="1.07805">
        <ele>287.230176</ele>
        <time>2022-08-01T08:41:51.481Z</time>
      </trkpt>
      <trkpt lat="44.36483" lon="1.07821">
        <ele>287.30255</ele>
        <time>2022-08-01T08:41:53.487Z</time>
      </trkpt>
      <trkpt lat="44.36473" lon="1.07836">
        <ele>287.373376</ele>
        <time>2022-08-01T08:41:55.478Z</time>
      </trkpt>
      <trkpt lat="44.36461" lon="1.07852">
        <ele>287.451576</ele>
        <time>2022-08-01T08:41:57.457Z</time>
      </trkpt>
      <trkpt lat="44.36449" lon="1.07867">
        <ele>287.529432</ele>
        <time>2022-08-01T08:41:59.487Z</time>
      </trkpt>
      <trkpt lat="44.36436" lon="1.07884">
        <ele>287.613619</ele>
        <time>2022-08-01T08:42:01.488Z</time>
      </trkpt>
      <trkpt lat="44.36423" lon="1.07899">
        <ele>287.691536</ele>
        <time>2022-08-01T08:42:03.493Z</time>
      </trkpt>
      <trkpt lat="44.36411" lon="1.0791">
        <ele>287.759646</ele>
        <time>2022-08-01T08:42:05.485Z</time>
      </trkpt>
      <trkpt lat="44.36401" lon="1.07921">
        <ele>287.819803</ele>
        <time>2022-08-01T08:42:07.491Z</time>
      </trkpt>
      <trkpt lat="44.36391" lon="1.07933">
        <ele>287.882156</ele>
        <time>2022-08-01T08:42:09.493Z</time>
      </trkpt>
      <trkpt lat="44.36384" lon="1.07944">
        <ele>287.931829</ele>
        <time>2022-08-01T08:42:11.482Z</time>
      </trkpt>
      <trkpt lat="44.36378" lon="1.07956">
        <ele>287.984722</ele>
        <time>2022-08-01T08:42:13.503Z</time>
      </trkpt>
      <trkpt lat="44.36371" lon="1.07972">
        <ele>288.069184</ele>
        <time>2022-08-01T08:42:15.479Z</time>
      </trkpt>
      <trkpt lat="44.36366" lon="1.07986">
        <ele>288.231891</ele>
        <time>2022-08-01T08:42:17.497Z</time>
      </trkpt>
      <trkpt lat="44.36363" lon="1.08002">
        <ele>288.393904</ele>
        <time>2022-08-01T08:42:19.488Z</time>
      </trkpt>
      <trkpt lat="44.3636" lon="1.08021">
        <ele>288.573731</ele>
        <time>2022-08-01T08:42:21.484Z</time>
      </trkpt>
      <trkpt lat="44.36357" lon="1.08037">
        <ele>288.741381</ele>
        <time>2022-08-01T08:42:23.502Z</time>
      </trkpt>
      <trkpt lat="44.36354" lon="1.08054">
        <ele>288.906927</ele>
        <time>2022-08-01T08:42:25.490Z</time>
      </trkpt>
      <trkpt lat="44.36349" lon="1.0807">
        <ele>289.081061</ele>
        <time>2022-08-01T08:42:27.480Z</time>
      </trkpt>
      <trkpt lat="44.36343" lon="1.08085">
        <ele>289.239698</ele>
        <time>2022-08-01T08:42:29.478Z</time>
      </trkpt>
      <trkpt lat="44.36338" lon="1.08098">
        <ele>289.388842</ele>
        <time>2022-08-01T08:42:31.476Z</time>
      </trkpt>
      <trkpt lat="44.3633" lon="1.0811">
        <ele>289.543363</ele>
        <time>2022-08-01T08:42:33.479Z</time>
      </trkpt>
      <trkpt lat="44.36324" lon="1.08122">
        <ele>289.68962</ele>
        <time>2022-08-01T08:42:35.466Z</time>
      </trkpt>
      <trkpt lat="44.36317" lon="1.08133">
        <ele>289.831306</ele>
        <time>2022-08-01T08:42:37.486Z</time>
      </trkpt>
      <trkpt lat="44.36311" lon="1.08147">
        <ele>289.988132</ele>
        <time>2022-08-01T08:42:39.476Z</time>
      </trkpt>
      <trkpt lat="44.36301" lon="1.08165">
        <ele>290.215597</ele>
        <time>2022-08-01T08:42:41.490Z</time>
      </trkpt>
      <trkpt lat="44.36292" lon="1.0818">
        <ele>290.408119</ele>
        <time>2022-08-01T08:42:43.494Z</time>
      </trkpt>
      <trkpt lat="44.36286" lon="1.08193">
        <ele>290.714641</ele>
        <time>2022-08-01T08:42:45.494Z</time>
      </trkpt>
      <trkpt lat="44.36282" lon="1.08206">
        <ele>291.149104</ele>
        <time>2022-08-01T08:42:47.467Z</time>
      </trkpt>
      <trkpt lat="44.36275" lon="1.08221">
        <ele>291.688023</ele>
        <time>2022-08-01T08:42:49.473Z</time>
      </trkpt>
      <trkpt lat="44.36269" lon="1.08237">
        <ele>292.236494</ele>
        <time>2022-08-01T08:42:51.473Z</time>
      </trkpt>
      <trkpt lat="44.36266" lon="1.08254">
        <ele>292.774716</ele>
        <time>2022-08-01T08:42:54.479Z</time>
      </trkpt>
      <trkpt lat="44.36263" lon="1.08269">
        <ele>293.272806</ele>
        <time>2022-08-01T08:42:56.509Z</time>
      </trkpt>
      <trkpt lat="44.36254" lon="1.08281">
        <ele>293.791387</ele>
        <time>2022-08-01T08:42:58.481Z</time>
      </trkpt>
      <trkpt lat="44.36251" lon="1.08297">
        <ele>294.278728</ele>
        <time>2022-08-01T08:43:00.481Z</time>
      </trkpt>
      <trkpt lat="44.36246" lon="1.08311">
        <ele>294.760599</ele>
        <time>2022-08-01T08:43:02.504Z</time>
      </trkpt>
      <trkpt lat="44.36242" lon="1.08325">
        <ele>295.215316</ele>
        <time>2022-08-01T08:43:04.482Z</time>
      </trkpt>
      <trkpt lat="44.36238" lon="1.08336">
        <ele>295.618094</ele>
        <time>2022-08-01T08:43:05.470Z</time>
      </trkpt>
      <trkpt lat="44.36232" lon="1.08349">
        <ele>296.086408</ele>
        <time>2022-08-01T08:43:07.488Z</time>
      </trkpt>
      <trkpt lat="44.36224" lon="1.08362">
        <ele>296.599527</ele>
        <time>2022-08-01T08:43:09.470Z</time>
      </trkpt>
      <trkpt lat="44.36216" lon="1.08376">
        <ele>297.137741</ele>
        <time>2022-08-01T08:43:11.477Z</time>
      </trkpt>
      <trkpt lat="44.3621" lon="1.08386">
        <ele>297.531708</ele>
        <time>2022-08-01T08:43:13.500Z</time>
      </trkpt>
      <trkpt lat="44.36203" lon="1.08393">
        <ele>297.917834</ele>
        <time>2022-08-01T08:43:15.478Z</time>
      </trkpt>
      <trkpt lat="44.36196" lon="1.08404">
        <ele>298.328499</ele>
        <time>2022-08-01T08:43:17.497Z</time>
      </trkpt>
      <trkpt lat="44.36186" lon="1.08416">
        <ele>298.791625</ele>
        <time>2022-08-01T08:43:20.526Z</time>
      </trkpt>
      <trkpt lat="44.36178" lon="1.08426">
        <ele>299.141386</ele>
        <time>2022-08-01T08:43:22.489Z</time>
      </trkpt>
      <trkpt lat="44.36167" lon="1.08439">
        <ele>299.604211</ele>
        <time>2022-08-01T08:43:25.471Z</time>
      </trkpt>
      <trkpt lat="44.3616" lon="1.08445">
        <ele>299.90528</ele>
        <time>2022-08-01T08:43:27.516Z</time>
      </trkpt>
      <trkpt lat="44.36151" lon="1.08451">
        <ele>300.218044</ele>
        <time>2022-08-01T08:43:29.491Z</time>
      </trkpt>
      <trkpt lat="44.36141" lon="1.08458">
        <ele>300.607437</ele>
        <time>2022-08-01T08:43:31.491Z</time>
      </trkpt>
      <trkpt lat="44.36131" lon="1.08465">
        <ele>300.963928</ele>
        <time>2022-08-01T08:43:33.494Z</time>
      </trkpt>
      <trkpt lat="44.36122" lon="1.08471">
        <ele>301.290621</ele>
        <time>2022-08-01T08:43:35.471Z</time>
      </trkpt>
      <trkpt lat="44.36111" lon="1.08476">
        <ele>301.681877</ele>
        <time>2022-08-01T08:43:37.498Z</time>
      </trkpt>
      <trkpt lat="44.36101" lon="1.08483">
        <ele>302.061168</ele>
        <time>2022-08-01T08:43:39.486Z</time>
      </trkpt>
      <trkpt lat="44.36091" lon="1.0849">
        <ele>302.433471</ele>
        <time>2022-08-01T08:43:41.497Z</time>
      </trkpt>
      <trkpt lat="44.36084" lon="1.08502">
        <ele>302.81369</ele>
        <time>2022-08-01T08:43:43.481Z</time>
      </trkpt>
      <trkpt lat="44.36075" lon="1.08514">
        <ele>303.224837</ele>
        <time>2022-08-01T08:43:45.487Z</time>
      </trkpt>
      <trkpt lat="44.36069" lon="1.08526">
        <ele>303.565747</ele>
        <time>2022-08-01T08:43:47.472Z</time>
      </trkpt>
      <trkpt lat="44.36063" lon="1.08538">
        <ele>303.910443</ele>
        <time>2022-08-01T08:43:49.493Z</time>
      </trkpt>
      <trkpt lat="44.36057" lon="1.08548">
        <ele>304.249491</ele>
        <time>2022-08-01T08:43:51.473Z</time>
      </trkpt>
      <trkpt lat="44.36052" lon="1.08558">
        <ele>304.771273</ele>
        <time>2022-08-01T08:43:53.472Z</time>
      </trkpt>
      <trkpt lat="44.36045" lon="1.08573">
        <ele>305.455671</ele>
        <time>2022-08-01T08:43:55.480Z</time>
      </trkpt>
      <trkpt lat="44.36039" lon="1.08584">
        <ele>306.049884</ele>
        <time>2022-08-01T08:43:57.490Z</time>
      </trkpt>
      <trkpt lat="44.36031" lon="1.08599">
        <ele>306.809339</ele>
        <time>2022-08-01T08:44:00.494Z</time>
      </trkpt>
      <trkpt lat="44.36025" lon="1.08611">
        <ele>307.383614</ele>
        <time>2022-08-01T08:44:02.513Z</time>
      </trkpt>
      <trkpt lat="44.3602" lon="1.08622">
        <ele>307.915527</ele>
        <time>2022-08-01T08:44:04.493Z</time>
      </trkpt>
      <trkpt lat="44.36013" lon="1.08633">
        <ele>308.506543</ele>
        <time>2022-08-01T08:44:06.487Z</time>
      </trkpt>
      <trkpt lat="44.36006" lon="1.08643">
        <ele>309.059336</ele>
        <time>2022-08-01T08:44:08.519Z</time>
      </trkpt>
      <trkpt lat="44.36001" lon="1.08653">
        <ele>309.572493</ele>
        <time>2022-08-01T08:44:10.492Z</time>
      </trkpt>
      <trkpt lat="44.35994" lon="1.08663">
        <ele>310.112515</ele>
        <time>2022-08-01T08:44:12.487Z</time>
      </trkpt>
      <trkpt lat="44.35987" lon="1.08677">
        <ele>310.827879</ele>
        <time>2022-08-01T08:44:15.504Z</time>
      </trkpt>
      <trkpt lat="44.35979" lon="1.08692">
        <ele>311.553085</ele>
        <time>2022-08-01T08:44:18.479Z</time>
      </trkpt>
      <trkpt lat="44.35974" lon="1.08702">
        <ele>312.075029</ele>
        <time>2022-08-01T08:44:20.518Z</time>
      </trkpt>
      <trkpt lat="44.35967" lon="1.08716">
        <ele>312.757593</ele>
        <time>2022-08-01T08:44:23.476Z</time>
      </trkpt>
      <trkpt lat="44.35958" lon="1.08728">
        <ele>313.474184</ele>
        <time>2022-08-01T08:44:26.507Z</time>
      </trkpt>
      <trkpt lat="44.35952" lon="1.0874">
        <ele>314.02915</ele>
        <time>2022-08-01T08:44:28.490Z</time>
      </trkpt>
      <trkpt lat="44.35945" lon="1.08753">
        <ele>314.434218</ele>
        <time>2022-08-01T08:44:30.474Z</time>
      </trkpt>
      <trkpt lat="44.35938" lon="1.08762">
        <ele>314.560582</ele>
        <time>2022-08-01T08:44:32.499Z</time>
      </trkpt>
      <trkpt lat="44.35931" lon="1.08776">
        <ele>314.728017</ele>
        <time>2022-08-01T08:44:36.490Z</time>
      </trkpt>
      <trkpt lat="44.35923" lon="1.08789">
        <ele>314.89583</ele>
        <time>2022-08-01T08:44:39.472Z</time>
      </trkpt>
      <trkpt lat="44.35916" lon="1.08803">
        <ele>315.056929</ele>
        <time>2022-08-01T08:44:42.491Z</time>
      </trkpt>
      <trkpt lat="44.35906" lon="1.08813">
        <ele>315.226925</ele>
        <time>2022-08-01T08:44:45.492Z</time>
      </trkpt>
      <trkpt lat="44.35902" lon="1.0883">
        <ele>315.399514</ele>
        <time>2022-08-01T08:44:48.499Z</time>
      </trkpt>
      <trkpt lat="44.35894" lon="1.08852">
        <ele>315.636234</ele>
        <time>2022-08-01T08:44:51.472Z</time>
      </trkpt>
      <trkpt lat="44.35892" lon="1.08869">
        <ele>315.804474</ele>
        <time>2022-08-01T08:44:54.494Z</time>
      </trkpt>
      <trkpt lat="44.3589" lon="1.08881">
        <ele>315.929054</ele>
        <time>2022-08-01T08:44:56.532Z</time>
      </trkpt>
      <trkpt lat="44.35884" lon="1.08895">
        <ele>316.088048</ele>
        <time>2022-08-01T08:44:59.480Z</time>
      </trkpt>
      <trkpt lat="44.35878" lon="1.0891">
        <ele>316.252214</ele>
        <time>2022-08-01T08:45:02.506Z</time>
      </trkpt>
      <trkpt lat="44.35871" lon="1.08925">
        <ele>316.428785</ele>
        <time>2022-08-01T08:45:05.489Z</time>
      </trkpt>
      <trkpt lat="44.35866" lon="1.0894">
        <ele>316.588409</ele>
        <time>2022-08-01T08:45:08.505Z</time>
      </trkpt>
      <trkpt lat="44.35861" lon="1.08955">
        <ele>316.751211</ele>
        <time>2022-08-01T08:45:11.493Z</time>
      </trkpt>
      <trkpt lat="44.35854" lon="1.0897">
        <ele>316.906808</ele>
        <time>2022-08-01T08:45:14.515Z</time>
      </trkpt>
      <trkpt lat="44.35847" lon="1.08983">
        <ele>317.052519</ele>
        <time>2022-08-01T08:45:17.494Z</time>
      </trkpt>
      <trkpt lat="44.35838" lon="1.08993">
        <ele>317.186015</ele>
        <time>2022-08-01T08:45:20.517Z</time>
      </trkpt>
      <trkpt lat="44.35828" lon="1.09002">
        <ele>317.333017</ele>
        <time>2022-08-01T08:45:23.477Z</time>
      </trkpt>
      <trkpt lat="44.35818" lon="1.0901">
        <ele>317.469824</ele>
        <time>2022-08-01T08:45:26.533Z</time>
      </trkpt>
      <trkpt lat="44.3581" lon="1.09017">
        <ele>317.584387</ele>
        <time>2022-08-01T08:45:28.492Z</time>
      </trkpt>
      <trkpt lat="44.35802" lon="1.09025">
        <ele>317.695521</ele>
        <time>2022-08-01T08:45:30.477Z</time>
      </trkpt>
      <trkpt lat="44.35794" lon="1.09033">
        <ele>317.821448</ele>
        <time>2022-08-01T08:45:32.513Z</time>
      </trkpt>
      <trkpt lat="44.35785" lon="1.09042">
        <ele>317.952807</ele>
        <time>2022-08-01T08:45:34.489Z</time>
      </trkpt>
      <trkpt lat="44.35776" lon="1.0905">
        <ele>318.07326</ele>
        <time>2022-08-01T08:45:36.480Z</time>
      </trkpt>
      <trkpt lat="44.35766" lon="1.09062">
        <ele>318.236349</ele>
        <time>2022-08-01T08:45:38.523Z</time>
      </trkpt>
      <trkpt lat="44.35757" lon="1.09072">
        <ele>318.373888</ele>
        <time>2022-08-01T08:45:40.497Z</time>
      </trkpt>
      <trkpt lat="44.35748" lon="1.09082">
        <ele>318.514751</ele>
        <time>2022-08-01T08:45:42.498Z</time>
      </trkpt>
      <trkpt lat="44.35738" lon="1.09091">
        <ele>318.654024</ele>
        <time>2022-08-01T08:45:44.529Z</time>
      </trkpt>
      <trkpt lat="44.35731" lon="1.091">
        <ele>318.772957</ele>
        <time>2022-08-01T08:45:46.481Z</time>
      </trkpt>
      <trkpt lat="44.35722" lon="1.09113">
        <ele>318.925144</ele>
        <time>2022-08-01T08:45:48.504Z</time>
      </trkpt>
      <trkpt lat="44.35714" lon="1.09127">
        <ele>318.271298</ele>
        <time>2022-08-01T08:45:50.506Z</time>
      </trkpt>
      <trkpt lat="44.35708" lon="1.0914">
        <ele>317.516607</ele>
        <time>2022-08-01T08:45:52.479Z</time>
      </trkpt>
      <trkpt lat="44.35703" lon="1.09156">
        <ele>316.690399</ele>
        <time>2022-08-01T08:45:54.497Z</time>
      </trkpt>
      <trkpt lat="44.35699" lon="1.09172">
        <ele>315.885791</ele>
        <time>2022-08-01T08:45:56.482Z</time>
      </trkpt>
      <trkpt lat="44.35698" lon="1.0919">
        <ele>314.992515</ele>
        <time>2022-08-01T08:45:58.495Z</time>
      </trkpt>
      <trkpt lat="44.35697" lon="1.09206">
        <ele>314.2512</ele>
        <time>2022-08-01T08:46:00.493Z</time>
      </trkpt>
      <trkpt lat="44.35697" lon="1.09219">
        <ele>313.628539</ele>
        <time>2022-08-01T08:46:02.502Z</time>
      </trkpt>
      <trkpt lat="44.35694" lon="1.09233">
        <ele>312.93308</ele>
        <time>2022-08-01T08:46:04.478Z</time>
      </trkpt>
      <trkpt lat="44.35691" lon="1.09246">
        <ele>312.265176</ele>
        <time>2022-08-01T08:46:05.500Z</time>
      </trkpt>
      <trkpt lat="44.35685" lon="1.09263">
        <ele>311.359098</ele>
        <time>2022-08-01T08:46:07.520Z</time>
      </trkpt>
      <trkpt lat="44.35675" lon="1.09277">
        <ele>310.361219</ele>
        <time>2022-08-01T08:46:09.485Z</time>
      </trkpt>
      <trkpt lat="44.35663" lon="1.09288">
        <ele>309.420592</ele>
        <time>2022-08-01T08:46:11.500Z</time>
      </trkpt>
      <trkpt lat="44.3565" lon="1.09302">
        <ele>308.334476</ele>
        <time>2022-08-01T08:46:13.521Z</time>
      </trkpt>
      <trkpt lat="44.35643" lon="1.09309">
        <ele>307.722447</ele>
        <time>2022-08-01T08:46:14.497Z</time>
      </trkpt>
      <trkpt lat="44.35634" lon="1.09317">
        <ele>307.019163</ele>
        <time>2022-08-01T08:46:15.495Z</time>
      </trkpt>
      <trkpt lat="44.35619" lon="1.09331">
        <ele>307.189055</ele>
        <time>2022-08-01T08:46:17.499Z</time>
      </trkpt>
      <trkpt lat="44.35607" lon="1.09344">
        <ele>307.524352</ele>
        <time>2022-08-01T08:46:19.518Z</time>
      </trkpt>
      <trkpt lat="44.35594" lon="1.0936">
        <ele>307.904827</ele>
        <time>2022-08-01T08:46:21.463Z</time>
      </trkpt>
      <trkpt lat="44.35587" lon="1.09368">
        <ele>308.107224</ele>
        <time>2022-08-01T08:46:22.495Z</time>
      </trkpt>
      <trkpt lat="44.35581" lon="1.09379">
        <ele>308.325655</ele>
        <time>2022-08-01T08:46:23.491Z</time>
      </trkpt>
      <trkpt lat="44.35577" lon="1.09391">
        <ele>308.53303</ele>
        <time>2022-08-01T08:46:24.486Z</time>
      </trkpt>
      <trkpt lat="44.35573" lon="1.09404">
        <ele>308.753192</ele>
        <time>2022-08-01T08:46:25.530Z</time>
      </trkpt>
      <trkpt lat="44.35573" lon="1.09417">
        <ele>308.967717</ele>
        <time>2022-08-01T08:46:26.498Z</time>
      </trkpt>
      <trkpt lat="44.35573" lon="1.0943">
        <ele>309.170462</ele>
        <time>2022-08-01T08:46:27.499Z</time>
      </trkpt>
      <trkpt lat="44.35575" lon="1.09444">
        <ele>309.387155</ele>
        <time>2022-08-01T08:46:28.481Z</time>
      </trkpt>
      <trkpt lat="44.35574" lon="1.09457">
        <ele>309.595693</ele>
        <time>2022-08-01T08:46:29.488Z</time>
      </trkpt>
      <trkpt lat="44.35568" lon="1.09483">
        <ele>310.021873</ele>
        <time>2022-08-01T08:46:31.519Z</time>
      </trkpt>
      <trkpt lat="44.35564" lon="1.09498">
        <ele>310.268149</ele>
        <time>2022-08-01T08:46:32.485Z</time>
      </trkpt>
      <trkpt lat="44.3556" lon="1.09511">
        <ele>310.493356</ele>
        <time>2022-08-01T08:46:33.490Z</time>
      </trkpt>
      <trkpt lat="44.35555" lon="1.09522">
        <ele>310.70143</ele>
        <time>2022-08-01T08:46:34.490Z</time>
      </trkpt>
      <trkpt lat="44.35549" lon="1.09532">
        <ele>310.720006</ele>
        <time>2022-08-01T08:46:35.490Z</time>
      </trkpt>
      <trkpt lat="44.3554" lon="1.09541">
        <ele>310.525223</ele>
        <time>2022-08-01T08:46:36.487Z</time>
      </trkpt>
      <trkpt lat="44.35531" lon="1.0955">
        <ele>310.342059</ele>
        <time>2022-08-01T08:46:37.519Z</time>
      </trkpt>
      <trkpt lat="44.35523" lon="1.0956">
        <ele>310.15815</ele>
        <time>2022-08-01T08:46:38.495Z</time>
      </trkpt>
      <trkpt lat="44.35516" lon="1.09569">
        <ele>309.985555</ele>
        <time>2022-08-01T08:46:39.492Z</time>
      </trkpt>
      <trkpt lat="44.35508" lon="1.09579">
        <ele>309.811636</ele>
        <time>2022-08-01T08:46:40.492Z</time>
      </trkpt>
      <trkpt lat="44.355" lon="1.09588">
        <ele>309.628251</ele>
        <time>2022-08-01T08:46:41.499Z</time>
      </trkpt>
      <trkpt lat="44.35491" lon="1.09596">
        <ele>309.452529</ele>
        <time>2022-08-01T08:46:42.492Z</time>
      </trkpt>
      <trkpt lat="44.35484" lon="1.09605">
        <ele>309.287608</ele>
        <time>2022-08-01T08:46:43.520Z</time>
      </trkpt>
      <trkpt lat="44.35478" lon="1.09615">
        <ele>309.117702</ele>
        <time>2022-08-01T08:46:44.487Z</time>
      </trkpt>
      <trkpt lat="44.35472" lon="1.09627">
        <ele>308.939173</ele>
        <time>2022-08-01T08:46:45.498Z</time>
      </trkpt>
      <trkpt lat="44.35468" lon="1.0964">
        <ele>308.765084</ele>
        <time>2022-08-01T08:46:46.485Z</time>
      </trkpt>
      <trkpt lat="44.35464" lon="1.09654">
        <ele>308.586421</ele>
        <time>2022-08-01T08:46:47.480Z</time>
      </trkpt>
      <trkpt lat="44.35464" lon="1.09684">
        <ele>308.213289</ele>
        <time>2022-08-01T08:46:49.534Z</time>
      </trkpt>
      <trkpt lat="44.35465" lon="1.09697">
        <ele>308.050291</ele>
        <time>2022-08-01T08:46:50.513Z</time>
      </trkpt>
      <trkpt lat="44.35465" lon="1.09712">
        <ele>307.872963</ele>
        <time>2022-08-01T08:46:51.487Z</time>
      </trkpt>
      <trkpt lat="44.35465" lon="1.09726">
        <ele>307.695538</ele>
        <time>2022-08-01T08:46:52.496Z</time>
      </trkpt>
      <trkpt lat="44.35467" lon="1.09741">
        <ele>307.386287</ele>
        <time>2022-08-01T08:46:53.485Z</time>
      </trkpt>
      <trkpt lat="44.35467" lon="1.09756">
        <ele>307.053639</ele>
        <time>2022-08-01T08:46:54.502Z</time>
      </trkpt>
      <trkpt lat="44.35467" lon="1.0977">
        <ele>306.756173</ele>
        <time>2022-08-01T08:46:55.522Z</time>
      </trkpt>
      <trkpt lat="44.35467" lon="1.09787">
        <ele>306.398753</ele>
        <time>2022-08-01T08:46:56.502Z</time>
      </trkpt>
      <trkpt lat="44.35468" lon="1.09802">
        <ele>306.097344</ele>
        <time>2022-08-01T08:46:57.465Z</time>
      </trkpt>
      <trkpt lat="44.35468" lon="1.09819">
        <ele>305.744308</ele>
        <time>2022-08-01T08:46:58.501Z</time>
      </trkpt>
      <trkpt lat="44.35469" lon="1.09832">
        <ele>305.45558</ele>
        <time>2022-08-01T08:46:59.493Z</time>
      </trkpt>
      <trkpt lat="44.35471" lon="1.09845">
        <ele>305.189099</ele>
        <time>2022-08-01T08:47:00.482Z</time>
      </trkpt>
      <trkpt lat="44.35473" lon="1.09858">
        <ele>304.907766</ele>
        <time>2022-08-01T08:47:01.512Z</time>
      </trkpt>
      <trkpt lat="44.35476" lon="1.0987">
        <ele>304.630061</ele>
        <time>2022-08-01T08:47:02.496Z</time>
      </trkpt>
      <trkpt lat="44.35488" lon="1.09888">
        <ele>304.107158</ele>
        <time>2022-08-01T08:47:04.493Z</time>
      </trkpt>
      <trkpt lat="44.35496" lon="1.09896">
        <ele>303.830165</ele>
        <time>2022-08-01T08:47:05.488Z</time>
      </trkpt>
      <trkpt lat="44.35504" lon="1.09905">
        <ele>303.52641</ele>
        <time>2022-08-01T08:47:06.498Z</time>
      </trkpt>
      <trkpt lat="44.35512" lon="1.09913">
        <ele>303.248949</ele>
        <time>2022-08-01T08:47:07.541Z</time>
      </trkpt>
      <trkpt lat="44.3552" lon="1.0992">
        <ele>302.971836</ele>
        <time>2022-08-01T08:47:08.492Z</time>
      </trkpt>
      <trkpt lat="44.35533" lon="1.09936">
        <ele>302.458492</ele>
        <time>2022-08-01T08:47:10.497Z</time>
      </trkpt>
      <trkpt lat="44.35542" lon="1.09961">
        <ele>302.272129</ele>
        <time>2022-08-01T08:47:12.497Z</time>
      </trkpt>
      <trkpt lat="44.35546" lon="1.09975">
        <ele>302.183073</ele>
        <time>2022-08-01T08:47:13.523Z</time>
      </trkpt>
      <trkpt lat="44.35547" lon="1.09989">
        <ele>302.106006</ele>
        <time>2022-08-01T08:47:14.482Z</time>
      </trkpt>
      <trkpt lat="44.35544" lon="1.10013">
        <ele>301.970844</ele>
        <time>2022-08-01T08:47:16.501Z</time>
      </trkpt>
      <trkpt lat="44.35543" lon="1.10028">
        <ele>301.887763</ele>
        <time>2022-08-01T08:47:17.499Z</time>
      </trkpt>
      <trkpt lat="44.35542" lon="1.10041">
        <ele>301.81252</ele>
        <time>2022-08-01T08:47:18.493Z</time>
      </trkpt>
      <trkpt lat="44.3554" lon="1.10066">
        <ele>301.675126</ele>
        <time>2022-08-01T08:47:20.492Z</time>
      </trkpt>
      <trkpt lat="44.35539" lon="1.10079">
        <ele>301.60184</ele>
        <time>2022-08-01T08:47:21.506Z</time>
      </trkpt>
      <trkpt lat="44.35536" lon="1.10104">
        <ele>301.460926</ele>
        <time>2022-08-01T08:47:23.495Z</time>
      </trkpt>
      <trkpt lat="44.35535" lon="1.1012">
        <ele>301.371811</ele>
        <time>2022-08-01T08:47:24.475Z</time>
      </trkpt>
      <trkpt lat="44.35533" lon="1.10134">
        <ele>301.294866</ele>
        <time>2022-08-01T08:47:25.513Z</time>
      </trkpt>
      <trkpt lat="44.3553" lon="1.10146">
        <ele>301.222001</ele>
        <time>2022-08-01T08:47:26.492Z</time>
      </trkpt>
      <trkpt lat="44.35528" lon="1.10158">
        <ele>301.151363</ele>
        <time>2022-08-01T08:47:27.486Z</time>
      </trkpt>
      <trkpt lat="44.35525" lon="1.10175">
        <ele>301.05894</ele>
        <time>2022-08-01T08:47:28.476Z</time>
      </trkpt>
      <trkpt lat="44.35521" lon="1.10186">
        <ele>300.813345</ele>
        <time>2022-08-01T08:47:29.499Z</time>
      </trkpt>
      <trkpt lat="44.35517" lon="1.102">
        <ele>300.264476</ele>
        <time>2022-08-01T08:47:30.499Z</time>
      </trkpt>
      <trkpt lat="44.35512" lon="1.10213">
        <ele>299.69202</ele>
        <time>2022-08-01T08:47:31.529Z</time>
      </trkpt>
      <trkpt lat="44.35509" lon="1.10226">
        <ele>299.18403</ele>
        <time>2022-08-01T08:47:32.502Z</time>
      </trkpt>
      <trkpt lat="44.35503" lon="1.10247">
        <ele>298.346851</ele>
        <time>2022-08-01T08:47:34.504Z</time>
      </trkpt>
      <trkpt lat="44.35503" lon="1.10269">
        <ele>297.518727</ele>
        <time>2022-08-01T08:47:36.491Z</time>
      </trkpt>
      <trkpt lat="44.35507" lon="1.10289">
        <ele>296.755463</ele>
        <time>2022-08-01T08:47:38.493Z</time>
      </trkpt>
      <trkpt lat="44.35508" lon="1.1031">
        <ele>295.94593</ele>
        <time>2022-08-01T08:47:40.478Z</time>
      </trkpt>
      <trkpt lat="44.35508" lon="1.10328">
        <ele>295.304321</ele>
        <time>2022-08-01T08:47:42.500Z</time>
      </trkpt>
      <trkpt lat="44.35509" lon="1.10347">
        <ele>294.579124</ele>
        <time>2022-08-01T08:47:44.497Z</time>
      </trkpt>
      <trkpt lat="44.35512" lon="1.10361">
        <ele>294.054777</ele>
        <time>2022-08-01T08:47:45.487Z</time>
      </trkpt>
      <trkpt lat="44.35513" lon="1.10375">
        <ele>293.524153</ele>
        <time>2022-08-01T08:47:46.490Z</time>
      </trkpt>
      <trkpt lat="44.35516" lon="1.10395">
        <ele>292.752364</ele>
        <time>2022-08-01T08:47:48.479Z</time>
      </trkpt>
      <trkpt lat="44.35517" lon="1.10415">
        <ele>292.007824</ele>
        <time>2022-08-01T08:47:50.481Z</time>
      </trkpt>
      <trkpt lat="44.35516" lon="1.10439">
        <ele>291.181819</ele>
        <time>2022-08-01T08:47:52.452Z</time>
      </trkpt>
      <trkpt lat="44.35514" lon="1.1046">
        <ele>290.479463</ele>
        <time>2022-08-01T08:47:54.529Z</time>
      </trkpt>
      <trkpt lat="44.35512" lon="1.10475">
        <ele>289.973484</ele>
        <time>2022-08-01T08:47:55.488Z</time>
      </trkpt>
      <trkpt lat="44.35508" lon="1.10497">
        <ele>289.235409</ele>
        <time>2022-08-01T08:47:57.491Z</time>
      </trkpt>
      <trkpt lat="44.35491" lon="1.10526">
        <ele>288.01825</ele>
        <time>2022-08-01T08:47:59.496Z</time>
      </trkpt>
      <trkpt lat="44.35483" lon="1.10537">
        <ele>287.481514</ele>
        <time>2022-08-01T08:48:00.480Z</time>
      </trkpt>
      <trkpt lat="44.35474" lon="1.10545">
        <ele>287.004719</ele>
        <time>2022-08-01T08:48:01.480Z</time>
      </trkpt>
      <trkpt lat="44.35457" lon="1.10547">
        <ele>286.204872</ele>
        <time>2022-08-01T08:48:03.502Z</time>
      </trkpt>
      <trkpt lat="44.3544" lon="1.10545">
        <ele>285.45899</ele>
        <time>2022-08-01T08:48:05.505Z</time>
      </trkpt>
      <trkpt lat="44.35429" lon="1.10537">
        <ele>284.876385</ele>
        <time>2022-08-01T08:48:07.494Z</time>
      </trkpt>
      <trkpt lat="44.35417" lon="1.1054">
        <ele>284.333986</ele>
        <time>2022-08-01T08:48:09.480Z</time>
      </trkpt>
      <trkpt lat="44.35408" lon="1.1055">
        <ele>283.799518</ele>
        <time>2022-08-01T08:48:11.517Z</time>
      </trkpt>
      <trkpt lat="44.35398" lon="1.1056">
        <ele>283.307224</ele>
        <time>2022-08-01T08:48:13.478Z</time>
      </trkpt>
      <trkpt lat="44.35404" lon="1.10572">
        <ele>283.001499</ele>
        <time>2022-08-01T08:48:15.474Z</time>
      </trkpt>
      <trkpt lat="44.35403" lon="1.10594">
        <ele>282.567025</ele>
        <time>2022-08-01T08:48:17.518Z</time>
      </trkpt>
      <trkpt lat="44.35412" lon="1.10608">
        <ele>282.183232</ele>
        <time>2022-08-01T08:48:19.484Z</time>
      </trkpt>
      <trkpt lat="44.35422" lon="1.10612">
        <ele>281.905902</ele>
        <time>2022-08-01T08:48:20.492Z</time>
      </trkpt>
      <trkpt lat="44.35418" lon="1.10625">
        <ele>281.614045</ele>
        <time>2022-08-01T08:48:21.499Z</time>
      </trkpt>
      <trkpt lat="44.35418" lon="1.1064">
        <ele>281.317745</ele>
        <time>2022-08-01T08:48:22.487Z</time>
      </trkpt>
      <trkpt lat="44.35415" lon="1.10655">
        <ele>281.001807</ele>
        <time>2022-08-01T08:48:23.513Z</time>
      </trkpt>
      <trkpt lat="44.35411" lon="1.10668">
        <ele>280.729898</ele>
        <time>2022-08-01T08:48:24.481Z</time>
      </trkpt>
      <trkpt lat="44.35403" lon="1.10691">
        <ele>280.216272</ele>
        <time>2022-08-01T08:48:26.485Z</time>
      </trkpt>
      <trkpt lat="44.35396" lon="1.10701">
        <ele>279.953219</ele>
        <time>2022-08-01T08:48:27.502Z</time>
      </trkpt>
      <trkpt lat="44.35391" lon="1.10711">
        <ele>279.694076</ele>
        <time>2022-08-01T08:48:28.466Z</time>
      </trkpt>
      <trkpt lat="44.35382" lon="1.10722">
        <ele>279.37852</ele>
        <time>2022-08-01T08:48:29.516Z</time>
      </trkpt>
      <trkpt lat="44.35369" lon="1.10739">
        <ele>278.879527</ele>
        <time>2022-08-01T08:48:31.488Z</time>
      </trkpt>
      <trkpt lat="44.35362" lon="1.10748">
        <ele>278.603709</ele>
        <time>2022-08-01T08:48:32.480Z</time>
      </trkpt>
      <trkpt lat="44.35351" lon="1.10767">
        <ele>278.104163</ele>
        <time>2022-08-01T08:48:34.501Z</time>
      </trkpt>
      <trkpt lat="44.35344" lon="1.1079">
        <ele>277.593189</ele>
        <time>2022-08-01T08:48:36.492Z</time>
      </trkpt>
      <trkpt lat="44.35339" lon="1.10802">
        <ele>277.33077</ele>
        <time>2022-08-01T08:48:37.483Z</time>
      </trkpt>
      <trkpt lat="44.35336" lon="1.10814">
        <ele>277.070903</ele>
        <time>2022-08-01T08:48:38.487Z</time>
      </trkpt>
      <trkpt lat="44.35332" lon="1.10825">
        <ele>276.806704</ele>
        <time>2022-08-01T08:48:39.481Z</time>
      </trkpt>
      <trkpt lat="44.35328" lon="1.10837">
        <ele>276.54379</ele>
        <time>2022-08-01T08:48:40.489Z</time>
      </trkpt>
      <trkpt lat="44.35323" lon="1.10848">
        <ele>276.262103</ele>
        <time>2022-08-01T08:48:41.512Z</time>
      </trkpt>
      <trkpt lat="44.35316" lon="1.10861">
        <ele>275.950735</ele>
        <time>2022-08-01T08:48:42.479Z</time>
      </trkpt>
      <trkpt lat="44.35313" lon="1.10873">
        <ele>275.690957</ele>
        <time>2022-08-01T08:48:43.494Z</time>
      </trkpt>
      <trkpt lat="44.3531" lon="1.10888">
        <ele>275.370656</ele>
        <time>2022-08-01T08:48:44.484Z</time>
      </trkpt>
      <trkpt lat="44.35306" lon="1.10902">
        <ele>275.068277</ele>
        <time>2022-08-01T08:48:45.473Z</time>
      </trkpt>
      <trkpt lat="44.35302" lon="1.10915">
        <ele>274.779697</ele>
        <time>2022-08-01T08:48:46.482Z</time>
      </trkpt>
      <trkpt lat="44.35298" lon="1.10926">
        <ele>274.518061</ele>
        <time>2022-08-01T08:48:47.515Z</time>
      </trkpt>
      <trkpt lat="44.35292" lon="1.10948">
        <ele>274.040628</ele>
        <time>2022-08-01T08:48:49.492Z</time>
      </trkpt>
      <trkpt lat="44.35282" lon="1.10971">
        <ele>273.498399</ele>
        <time>2022-08-01T08:48:51.479Z</time>
      </trkpt>
      <trkpt lat="44.35277" lon="1.10992">
        <ele>272.733243</ele>
        <time>2022-08-01T08:48:53.514Z</time>
      </trkpt>
      <trkpt lat="44.3527" lon="1.11012">
        <ele>271.580771</ele>
        <time>2022-08-01T08:48:55.481Z</time>
      </trkpt>
      <trkpt lat="44.35267" lon="1.11027">
        <ele>270.809825</ele>
        <time>2022-08-01T08:48:56.479Z</time>
      </trkpt>
      <trkpt lat="44.35258" lon="1.11048">
        <ele>269.537768</ele>
        <time>2022-08-01T08:48:58.464Z</time>
      </trkpt>
      <trkpt lat="44.35255" lon="1.11062">
        <ele>268.816874</ele>
        <time>2022-08-01T08:48:59.509Z</time>
      </trkpt>
      <trkpt lat="44.35244" lon="1.11078">
        <ele>267.680823</ele>
        <time>2022-08-01T08:49:00.499Z</time>
      </trkpt>
      <trkpt lat="44.35231" lon="1.11093">
        <ele>266.472642</ele>
        <time>2022-08-01T08:49:01.474Z</time>
      </trkpt>
      <trkpt lat="44.35222" lon="1.11107">
        <ele>265.579757</ele>
        <time>2022-08-01T08:49:02.489Z</time>
      </trkpt>
      <trkpt lat="44.35212" lon="1.11129">
        <ele>264.206447</ele>
        <time>2022-08-01T08:49:04.495Z</time>
      </trkpt>
      <trkpt lat="44.35207" lon="1.11141">
        <ele>263.502902</ele>
        <time>2022-08-01T08:49:05.520Z</time>
      </trkpt>
      <trkpt lat="44.35197" lon="1.11162">
        <ele>262.23759</ele>
        <time>2022-08-01T08:49:07.479Z</time>
      </trkpt>
      <trkpt lat="44.35194" lon="1.11181">
        <ele>261.262495</ele>
        <time>2022-08-01T08:49:08.481Z</time>
      </trkpt>
      <trkpt lat="44.35184" lon="1.11196">
        <ele>260.625731</ele>
        <time>2022-08-01T08:49:09.473Z</time>
      </trkpt>
      <trkpt lat="44.35184" lon="1.11213">
        <ele>261.155983</ele>
        <time>2022-08-01T08:49:10.486Z</time>
      </trkpt>
      <trkpt lat="44.35182" lon="1.11233">
        <ele>261.781931</ele>
        <time>2022-08-01T08:49:11.511Z</time>
      </trkpt>
      <trkpt lat="44.35182" lon="1.11251">
        <ele>262.360285</ele>
        <time>2022-08-01T08:49:12.501Z</time>
      </trkpt>
      <trkpt lat="44.35173" lon="1.1127">
        <ele>263.080321</ele>
        <time>2022-08-01T08:49:14.499Z</time>
      </trkpt>
      <trkpt lat="44.3517" lon="1.11283">
        <ele>263.515605</ele>
        <time>2022-08-01T08:49:15.482Z</time>
      </trkpt>
      <trkpt lat="44.35165" lon="1.11308">
        <ele>264.305979</ele>
        <time>2022-08-01T08:49:17.519Z</time>
      </trkpt>
      <trkpt lat="44.3516" lon="1.11323">
        <ele>264.840582</ele>
        <time>2022-08-01T08:49:18.479Z</time>
      </trkpt>
      <trkpt lat="44.35153" lon="1.11335">
        <ele>265.331575</ele>
        <time>2022-08-01T08:49:19.497Z</time>
      </trkpt>
      <trkpt lat="44.35148" lon="1.11353">
        <ele>265.956871</ele>
        <time>2022-08-01T08:49:20.494Z</time>
      </trkpt>
      <trkpt lat="44.35137" lon="1.11374">
        <ele>266.783144</ele>
        <time>2022-08-01T08:49:22.467Z</time>
      </trkpt>
      <trkpt lat="44.35129" lon="1.11385">
        <ele>267.250458</ele>
        <time>2022-08-01T08:49:23.526Z</time>
      </trkpt>
      <trkpt lat="44.35118" lon="1.11404">
        <ele>268.053454</ele>
        <time>2022-08-01T08:49:25.486Z</time>
      </trkpt>
      <trkpt lat="44.3511" lon="1.11413">
        <ele>268.423398</ele>
        <time>2022-08-01T08:49:26.520Z</time>
      </trkpt>
      <trkpt lat="44.35103" lon="1.11422">
        <ele>268.502806</ele>
        <time>2022-08-01T08:49:27.476Z</time>
      </trkpt>
      <trkpt lat="44.35095" lon="1.11431">
        <ele>268.582558</ele>
        <time>2022-08-01T08:49:28.487Z</time>
      </trkpt>
      <trkpt lat="44.3508" lon="1.11445">
        <ele>268.73183</ele>
        <time>2022-08-01T08:49:30.466Z</time>
      </trkpt>
      <trkpt lat="44.35072" lon="1.11453">
        <ele>268.806783</ele>
        <time>2022-08-01T08:49:31.485Z</time>
      </trkpt>
      <trkpt lat="44.35064" lon="1.11461">
        <ele>268.88898</ele>
        <time>2022-08-01T08:49:32.484Z</time>
      </trkpt>
      <trkpt lat="44.35056" lon="1.1147">
        <ele>268.975203</ele>
        <time>2022-08-01T08:49:33.488Z</time>
      </trkpt>
      <trkpt lat="44.35045" lon="1.11478">
        <ele>269.074443</ele>
        <time>2022-08-01T08:49:34.497Z</time>
      </trkpt>
      <trkpt lat="44.35037" lon="1.11488">
        <ele>269.163026</ele>
        <time>2022-08-01T08:49:35.519Z</time>
      </trkpt>
      <trkpt lat="44.35028" lon="1.11495">
        <ele>269.246708</ele>
        <time>2022-08-01T08:49:36.488Z</time>
      </trkpt>
      <trkpt lat="44.3502" lon="1.11503">
        <ele>269.326943</ele>
        <time>2022-08-01T08:49:37.478Z</time>
      </trkpt>
      <trkpt lat="44.35013" lon="1.11511">
        <ele>269.402189</ele>
        <time>2022-08-01T08:49:38.489Z</time>
      </trkpt>
      <trkpt lat="44.35004" lon="1.1152">
        <ele>269.489065</ele>
        <time>2022-08-01T08:49:39.483Z</time>
      </trkpt>
      <trkpt lat="44.34996" lon="1.11532">
        <ele>269.579013</ele>
        <time>2022-08-01T08:49:40.493Z</time>
      </trkpt>
      <trkpt lat="44.34984" lon="1.11549">
        <ele>269.718701</ele>
        <time>2022-08-01T08:49:42.460Z</time>
      </trkpt>
      <trkpt lat="44.34977" lon="1.11558">
        <ele>269.799082</ele>
        <time>2022-08-01T08:49:43.491Z</time>
      </trkpt>
      <trkpt lat="44.34972" lon="1.11579">
        <ele>269.151763</ele>
        <time>2022-08-01T08:49:45.478Z</time>
      </trkpt>
      <trkpt lat="44.34969" lon="1.11591">
        <ele>268.21853</ele>
        <time>2022-08-01T08:49:46.502Z</time>
      </trkpt>
      <trkpt lat="44.34963" lon="1.11613">
        <ele>266.451124</ele>
        <time>2022-08-01T08:49:48.469Z</time>
      </trkpt>
      <trkpt lat="44.34959" lon="1.11625">
        <ele>265.498629</ele>
        <time>2022-08-01T08:49:49.488Z</time>
      </trkpt>
      <trkpt lat="44.34954" lon="1.11646">
        <ele>263.834142</ele>
        <time>2022-08-01T08:49:51.468Z</time>
      </trkpt>
      <trkpt lat="44.34948" lon="1.1167">
        <ele>261.99829</ele>
        <time>2022-08-01T08:49:53.528Z</time>
      </trkpt>
      <trkpt lat="44.34943" lon="1.11691">
        <ele>260.298917</ele>
        <time>2022-08-01T08:49:55.491Z</time>
      </trkpt>
      <trkpt lat="44.34936" lon="1.11713">
        <ele>258.562799</ele>
        <time>2022-08-01T08:49:57.493Z</time>
      </trkpt>
      <trkpt lat="44.34929" lon="1.11738">
        <ele>256.573907</ele>
        <time>2022-08-01T08:49:59.520Z</time>
      </trkpt>
      <trkpt lat="44.34926" lon="1.11752">
        <ele>255.522102</ele>
        <time>2022-08-01T08:50:00.493Z</time>
      </trkpt>
      <trkpt lat="44.34919" lon="1.11773">
        <ele>253.77914</ele>
        <time>2022-08-01T08:50:02.501Z</time>
      </trkpt>
      <trkpt lat="44.34912" lon="1.11795">
        <ele>251.989661</ele>
        <time>2022-08-01T08:50:04.504Z</time>
      </trkpt>
      <trkpt lat="44.34907" lon="1.11815">
        <ele>251.550645</ele>
        <time>2022-08-01T08:50:06.496Z</time>
      </trkpt>
      <trkpt lat="44.34902" lon="1.11835">
        <ele>252.085378</ele>
        <time>2022-08-01T08:50:08.476Z</time>
      </trkpt>
      <trkpt lat="44.34898" lon="1.11855">
        <ele>252.598728</ele>
        <time>2022-08-01T08:50:10.496Z</time>
      </trkpt>
      <trkpt lat="44.34893" lon="1.11873">
        <ele>253.100284</ele>
        <time>2022-08-01T08:50:12.488Z</time>
      </trkpt>
      <trkpt lat="44.34889" lon="1.1189">
        <ele>253.535206</ele>
        <time>2022-08-01T08:50:14.492Z</time>
      </trkpt>
      <trkpt lat="44.34885" lon="1.11906">
        <ele>253.973602</ele>
        <time>2022-08-01T08:50:16.491Z</time>
      </trkpt>
      <trkpt lat="44.34881" lon="1.1192">
        <ele>254.367378</ele>
        <time>2022-08-01T08:50:18.504Z</time>
      </trkpt>
      <trkpt lat="44.34877" lon="1.11936">
        <ele>254.787577</ele>
        <time>2022-08-01T08:50:20.493Z</time>
      </trkpt>
      <trkpt lat="44.34874" lon="1.11954">
        <ele>255.252321</ele>
        <time>2022-08-01T08:50:22.489Z</time>
      </trkpt>
      <trkpt lat="44.34873" lon="1.11968">
        <ele>255.59904</ele>
        <time>2022-08-01T08:50:24.500Z</time>
      </trkpt>
      <trkpt lat="44.34874" lon="1.11985">
        <ele>256.043793</ele>
        <time>2022-08-01T08:50:26.483Z</time>
      </trkpt>
      <trkpt lat="44.34879" lon="1.11999">
        <ele>256.425067</ele>
        <time>2022-08-01T08:50:28.498Z</time>
      </trkpt>
      <trkpt lat="44.34883" lon="1.12013">
        <ele>256.820739</ele>
        <time>2022-08-01T08:50:30.496Z</time>
      </trkpt>
      <trkpt lat="44.34888" lon="1.12027">
        <ele>257.203782</ele>
        <time>2022-08-01T08:50:32.480Z</time>
      </trkpt>
      <trkpt lat="44.34893" lon="1.1204">
        <ele>257.576259</ele>
        <time>2022-08-01T08:50:34.498Z</time>
      </trkpt>
      <trkpt lat="44.34899" lon="1.12052">
        <ele>258.045305</ele>
        <time>2022-08-01T08:50:36.478Z</time>
      </trkpt>
      <trkpt lat="44.34905" lon="1.12065">
        <ele>258.584384</ele>
        <time>2022-08-01T08:50:39.497Z</time>
      </trkpt>
      <trkpt lat="44.3491" lon="1.12076">
        <ele>259.039021</ele>
        <time>2022-08-01T08:50:41.535Z</time>
      </trkpt>
      <trkpt lat="44.34915" lon="1.12088">
        <ele>259.478071</ele>
        <time>2022-08-01T08:50:43.496Z</time>
      </trkpt>
      <trkpt lat="44.34918" lon="1.121">
        <ele>259.905867</ele>
        <time>2022-08-01T08:50:45.491Z</time>
      </trkpt>
      <trkpt lat="44.34921" lon="1.12117">
        <ele>260.503972</ele>
        <time>2022-08-01T08:50:48.500Z</time>
      </trkpt>
      <trkpt lat="44.34924" lon="1.12133">
        <ele>261.073022</ele>
        <time>2022-08-01T08:50:50.498Z</time>
      </trkpt>
      <trkpt lat="44.34926" lon="1.12147">
        <ele>261.550614</ele>
        <time>2022-08-01T08:50:52.473Z</time>
      </trkpt>
      <trkpt lat="44.34928" lon="1.12169">
        <ele>262.307841</ele>
        <time>2022-08-01T08:50:54.459Z</time>
      </trkpt>
      <trkpt lat="44.3493" lon="1.12188">
        <ele>262.939729</ele>
        <time>2022-08-01T08:50:56.488Z</time>
      </trkpt>
      <trkpt lat="44.34933" lon="1.12204">
        <ele>263.513244</ele>
        <time>2022-08-01T08:50:58.492Z</time>
      </trkpt>
      <trkpt lat="44.34935" lon="1.12218">
        <ele>263.982671</ele>
        <time>2022-08-01T08:51:00.497Z</time>
      </trkpt>
      <trkpt lat="44.34937" lon="1.12233">
        <ele>264.52516</ele>
        <time>2022-08-01T08:51:02.491Z</time>
      </trkpt>
      <trkpt lat="44.34939" lon="1.1225">
        <ele>265.074087</ele>
        <time>2022-08-01T08:51:04.482Z</time>
      </trkpt>
      <trkpt lat="44.34942" lon="1.12265">
        <ele>265.612353</ele>
        <time>2022-08-01T08:51:06.482Z</time>
      </trkpt>
      <trkpt lat="44.34945" lon="1.12281">
        <ele>266.143895</ele>
        <time>2022-08-01T08:51:08.497Z</time>
      </trkpt>
      <trkpt lat="44.34948" lon="1.12295">
        <ele>266.416742</ele>
        <time>2022-08-01T08:51:10.465Z</time>
      </trkpt>
      <trkpt lat="44.34952" lon="1.12313">
        <ele>266.744746</ele>
        <time>2022-08-01T08:51:13.495Z</time>
      </trkpt>
      <trkpt lat="44.34953" lon="1.1233">
        <ele>267.044674</ele>
        <time>2022-08-01T08:51:15.487Z</time>
      </trkpt>
      <trkpt lat="44.34955" lon="1.12343">
        <ele>267.289441</ele>
        <time>2022-08-01T08:51:17.505Z</time>
      </trkpt>
      <trkpt lat="44.34957" lon="1.1236">
        <ele>267.589711</ele>
        <time>2022-08-01T08:51:19.488Z</time>
      </trkpt>
      <trkpt lat="44.34962" lon="1.12379">
        <ele>267.946037</ele>
        <time>2022-08-01T08:51:22.498Z</time>
      </trkpt>
      <trkpt lat="44.34965" lon="1.12395">
        <ele>268.255853</ele>
        <time>2022-08-01T08:51:24.490Z</time>
      </trkpt>
      <trkpt lat="44.34968" lon="1.12408">
        <ele>268.496855</ele>
        <time>2022-08-01T08:51:26.489Z</time>
      </trkpt>
      <trkpt lat="44.34971" lon="1.12424">
        <ele>268.7826</ele>
        <time>2022-08-01T08:51:28.492Z</time>
      </trkpt>
      <trkpt lat="44.34973" lon="1.1244">
        <ele>269.067421</ele>
        <time>2022-08-01T08:51:30.490Z</time>
      </trkpt>
      <trkpt lat="44.34974" lon="1.12453">
        <ele>269.30499</ele>
        <time>2022-08-01T08:51:32.498Z</time>
      </trkpt>
      <trkpt lat="44.34979" lon="1.12469">
        <ele>269.613442</ele>
        <time>2022-08-01T08:51:35.531Z</time>
      </trkpt>
      <trkpt lat="44.34981" lon="1.12485">
        <ele>269.893843</ele>
        <time>2022-08-01T08:51:37.477Z</time>
      </trkpt>
      <trkpt lat="44.34983" lon="1.12499">
        <ele>270.148553</ele>
        <time>2022-08-01T08:51:39.498Z</time>
      </trkpt>
      <trkpt lat="44.34988" lon="1.12515">
        <ele>270.461443</ele>
        <time>2022-08-01T08:51:42.497Z</time>
      </trkpt>
      <trkpt lat="44.34995" lon="1.12527">
        <ele>270.966592</ele>
        <time>2022-08-01T08:51:45.498Z</time>
      </trkpt>
      <trkpt lat="44.35" lon="1.12541">
        <ele>271.680148</ele>
        <time>2022-08-01T08:51:48.492Z</time>
      </trkpt>
      <trkpt lat="44.35003" lon="1.12554">
        <ele>272.282945</ele>
        <time>2022-08-01T08:51:52.499Z</time>
      </trkpt>
      <trkpt lat="44.35007" lon="1.12568">
        <ele>272.956694</ele>
        <time>2022-08-01T08:51:55.492Z</time>
      </trkpt>
      <trkpt lat="44.3501" lon="1.12581">
        <ele>273.584644</ele>
        <time>2022-08-01T08:51:58.488Z</time>
      </trkpt>
      <trkpt lat="44.35014" lon="1.12593">
        <ele>274.233306</ele>
        <time>2022-08-01T08:52:02.498Z</time>
      </trkpt>
      <trkpt lat="44.35016" lon="1.12606">
        <ele>274.822822</ele>
        <time>2022-08-01T08:52:05.523Z</time>
      </trkpt>
      <trkpt lat="44.35021" lon="1.1262">
        <ele>275.540582</ele>
        <time>2022-08-01T08:52:10.488Z</time>
      </trkpt>
      <trkpt lat="44.35029" lon="1.1263">
        <ele>276.242231</ele>
        <time>2022-08-01T08:52:14.491Z</time>
      </trkpt>
      <trkpt lat="44.35035" lon="1.12641">
        <ele>276.821835</ele>
        <time>2022-08-01T08:52:17.518Z</time>
      </trkpt>
      <trkpt lat="44.35039" lon="1.12658">
        <ele>277.675525</ele>
        <time>2022-08-01T08:52:20.499Z</time>
      </trkpt>
      <trkpt lat="44.35041" lon="1.12673">
        <ele>278.365941</ele>
        <time>2022-08-01T08:52:22.503Z</time>
      </trkpt>
      <trkpt lat="44.35043" lon="1.12685">
        <ele>278.941436</ele>
        <time>2022-08-01T08:52:24.501Z</time>
      </trkpt>
      <trkpt lat="44.35046" lon="1.12703">
        <ele>279.791753</ele>
        <time>2022-08-01T08:52:27.492Z</time>
      </trkpt>
      <trkpt lat="44.35048" lon="1.12722">
        <ele>280.630297</ele>
        <time>2022-08-01T08:52:30.496Z</time>
      </trkpt>
      <trkpt lat="44.35051" lon="1.1274">
        <ele>281.476811</ele>
        <time>2022-08-01T08:52:33.488Z</time>
      </trkpt>
      <trkpt lat="44.35055" lon="1.12757">
        <ele>282.218128</ele>
        <time>2022-08-01T08:52:36.498Z</time>
      </trkpt>
      <trkpt lat="44.3506" lon="1.12774">
        <ele>282.67542</ele>
        <time>2022-08-01T08:52:39.508Z</time>
      </trkpt>
      <trkpt lat="44.35063" lon="1.12787">
        <ele>283.008372</ele>
        <time>2022-08-01T08:52:41.519Z</time>
      </trkpt>
      <trkpt lat="44.35066" lon="1.12804">
        <ele>283.447713</ele>
        <time>2022-08-01T08:52:44.495Z</time>
      </trkpt>
      <trkpt lat="44.3507" lon="1.1282">
        <ele>283.855311</ele>
        <time>2022-08-01T08:52:47.512Z</time>
      </trkpt>
      <trkpt lat="44.35075" lon="1.12835">
        <ele>284.28621</ele>
        <time>2022-08-01T08:52:50.492Z</time>
      </trkpt>
      <trkpt lat="44.35079" lon="1.12849">
        <ele>284.653517</ele>
        <time>2022-08-01T08:52:53.540Z</time>
      </trkpt>
      <trkpt lat="44.35084" lon="1.12865">
        <ele>285.097679</ele>
        <time>2022-08-01T08:52:56.492Z</time>
      </trkpt>
      <trkpt lat="44.35087" lon="1.12878">
        <ele>285.42423</ele>
        <time>2022-08-01T08:52:58.495Z</time>
      </trkpt>
      <trkpt lat="44.35092" lon="1.12892">
        <ele>285.823286</ele>
        <time>2022-08-01T08:53:01.496Z</time>
      </trkpt>
      <trkpt lat="44.35098" lon="1.12903">
        <ele>286.158178</ele>
        <time>2022-08-01T08:53:04.481Z</time>
      </trkpt>
      <trkpt lat="44.35105" lon="1.12917">
        <ele>286.582485</ele>
        <time>2022-08-01T08:53:08.499Z</time>
      </trkpt>
      <trkpt lat="44.35109" lon="1.1293">
        <ele>286.939838</ele>
        <time>2022-08-01T08:53:11.534Z</time>
      </trkpt>
      <trkpt lat="44.35113" lon="1.12943">
        <ele>287.287916</ele>
        <time>2022-08-01T08:53:14.483Z</time>
      </trkpt>
      <trkpt lat="44.35118" lon="1.1296">
        <ele>287.757987</ele>
        <time>2022-08-01T08:53:17.512Z</time>
      </trkpt>
      <trkpt lat="44.35123" lon="1.12977">
        <ele>288.222035</ele>
        <time>2022-08-01T08:53:20.491Z</time>
      </trkpt>
      <trkpt lat="44.35128" lon="1.12991">
        <ele>288.502317</ele>
        <time>2022-08-01T08:53:22.497Z</time>
      </trkpt>
      <trkpt lat="44.35137" lon="1.13007">
        <ele>288.811748</ele>
        <time>2022-08-01T08:53:23.519Z</time>
      </trkpt>
      <trkpt lat="44.35144" lon="1.13022">
        <ele>289.060189</ele>
        <time>2022-08-01T08:53:26.492Z</time>
      </trkpt>
      <trkpt lat="44.35153" lon="1.13033">
        <ele>289.318891</ele>
        <time>2022-08-01T08:53:30.491Z</time>
      </trkpt>
      <trkpt lat="44.35161" lon="1.13043">
        <ele>289.530231</ele>
        <time>2022-08-01T08:53:32.495Z</time>
      </trkpt>
      <trkpt lat="44.35168" lon="1.13058">
        <ele>289.800968</ele>
        <time>2022-08-01T08:53:35.528Z</time>
      </trkpt>
      <trkpt lat="44.35174" lon="1.13071">
        <ele>290.022534</ele>
        <time>2022-08-01T08:53:37.491Z</time>
      </trkpt>
      <trkpt lat="44.35178" lon="1.13089">
        <ele>290.299868</ele>
        <time>2022-08-01T08:53:38.500Z</time>
      </trkpt>
      <trkpt lat="44.35184" lon="1.13101">
        <ele>290.513321</ele>
        <time>2022-08-01T08:53:40.499Z</time>
      </trkpt>
      <trkpt lat="44.35194" lon="1.1311">
        <ele>290.757171</ele>
        <time>2022-08-01T08:53:43.477Z</time>
      </trkpt>
      <trkpt lat="44.352" lon="1.13123">
        <ele>290.976747</ele>
        <time>2022-08-01T08:53:46.499Z</time>
      </trkpt>
      <trkpt lat="44.35206" lon="1.13134">
        <ele>291.192693</ele>
        <time>2022-08-01T08:53:49.501Z</time>
      </trkpt>
      <trkpt lat="44.35213" lon="1.13146">
        <ele>291.416938</ele>
        <time>2022-08-01T08:53:52.496Z</time>
      </trkpt>
      <trkpt lat="44.35218" lon="1.13157">
        <ele>291.611242</ele>
        <time>2022-08-01T08:53:55.476Z</time>
      </trkpt>
      <trkpt lat="44.35221" lon="1.13172">
        <ele>291.836927</ele>
        <time>2022-08-01T08:53:58.486Z</time>
      </trkpt>
      <trkpt lat="44.35222" lon="1.13185">
        <ele>292.028306</ele>
        <time>2022-08-01T08:54:00.496Z</time>
      </trkpt>
      <trkpt lat="44.35222" lon="1.13198">
        <ele>292.128234</ele>
        <time>2022-08-01T08:54:02.494Z</time>
      </trkpt>
      <trkpt lat="44.3522" lon="1.13212">
        <ele>292.222292</ele>
        <time>2022-08-01T08:54:04.500Z</time>
      </trkpt>
      <trkpt lat="44.35218" lon="1.13231">
        <ele>292.357906</ele>
        <time>2022-08-01T08:54:06.481Z</time>
      </trkpt>
      <trkpt lat="44.35217" lon="1.13247">
        <ele>292.468926</ele>
        <time>2022-08-01T08:54:08.491Z</time>
      </trkpt>
      <trkpt lat="44.35218" lon="1.13266">
        <ele>292.60307</ele>
        <time>2022-08-01T08:54:10.503Z</time>
      </trkpt>
      <trkpt lat="44.35218" lon="1.13283">
        <ele>292.720683</ele>
        <time>2022-08-01T08:54:11.503Z</time>
      </trkpt>
      <trkpt lat="44.35221" lon="1.13299">
        <ele>292.837081</ele>
        <time>2022-08-01T08:54:13.500Z</time>
      </trkpt>
      <trkpt lat="44.35226" lon="1.1331">
        <ele>292.92621</ele>
        <time>2022-08-01T08:54:15.490Z</time>
      </trkpt>
      <trkpt lat="44.3523" lon="1.13323">
        <ele>293.024577</ele>
        <time>2022-08-01T08:54:19.489Z</time>
      </trkpt>
      <trkpt lat="44.35237" lon="1.13333">
        <ele>293.121943</ele>
        <time>2022-08-01T08:54:22.502Z</time>
      </trkpt>
      <trkpt lat="44.35244" lon="1.13343">
        <ele>293.218783</ele>
        <time>2022-08-01T08:54:28.485Z</time>
      </trkpt>
      <trkpt lat="44.35253" lon="1.13354">
        <ele>293.329832</ele>
        <time>2022-08-01T08:54:33.482Z</time>
      </trkpt>
      <trkpt lat="44.35257" lon="1.13367">
        <ele>293.429055</ele>
        <time>2022-08-01T08:54:36.494Z</time>
      </trkpt>
      <trkpt lat="44.35258" lon="1.13381">
        <ele>293.531167</ele>
        <time>2022-08-01T08:54:39.477Z</time>
      </trkpt>
      <trkpt lat="44.35258" lon="1.13397">
        <ele>293.641219</ele>
        <time>2022-08-01T08:54:43.464Z</time>
      </trkpt>
      <trkpt lat="44.35258" lon="1.1341">
        <ele>293.729554</ele>
        <time>2022-08-01T08:54:46.499Z</time>
      </trkpt>
      <trkpt lat="44.35256" lon="1.13426">
        <ele>294.006597</ele>
        <time>2022-08-01T08:54:50.493Z</time>
      </trkpt>
      <trkpt lat="44.35255" lon="1.13439">
        <ele>294.415267</ele>
        <time>2022-08-01T08:54:53.510Z</time>
      </trkpt>
      <trkpt lat="44.35254" lon="1.13453">
        <ele>294.840945</ele>
        <time>2022-08-01T08:54:57.502Z</time>
      </trkpt>
      <trkpt lat="44.3525" lon="1.13466">
        <ele>295.272686</ele>
        <time>2022-08-01T08:55:01.483Z</time>
      </trkpt>
      <trkpt lat="44.35249" lon="1.13479">
        <ele>295.669727</ele>
        <time>2022-08-01T08:55:06.468Z</time>
      </trkpt>
      <trkpt lat="44.35253" lon="1.13493">
        <ele>296.130595</ele>
        <time>2022-08-01T08:55:11.518Z</time>
      </trkpt>
      <trkpt lat="44.35255" lon="1.13506">
        <ele>296.547584</ele>
        <time>2022-08-01T08:55:17.516Z</time>
      </trkpt>
      <trkpt lat="44.35253" lon="1.13521">
        <ele>296.997965</ele>
        <time>2022-08-01T08:55:22.480Z</time>
      </trkpt>
      <trkpt lat="44.35248" lon="1.13536">
        <ele>297.489226</ele>
        <time>2022-08-01T08:55:25.493Z</time>
      </trkpt>
      <trkpt lat="44.35245" lon="1.13553">
        <ele>298.034036</ele>
        <time>2022-08-01T08:55:28.470Z</time>
      </trkpt>
      <trkpt lat="44.35241" lon="1.1357">
        <ele>298.595194</ele>
        <time>2022-08-01T08:55:31.489Z</time>
      </trkpt>
      <trkpt lat="44.35235" lon="1.13581">
        <ele>299.006171</ele>
        <time>2022-08-01T08:55:35.529Z</time>
      </trkpt>
      <trkpt lat="44.35228" lon="1.13592">
        <ele>299.434353</ele>
        <time>2022-08-01T08:55:38.479Z</time>
      </trkpt>
      <trkpt lat="44.35221" lon="1.13603">
        <ele>299.910444</ele>
        <time>2022-08-01T08:55:41.532Z</time>
      </trkpt>
      <trkpt lat="44.35213" lon="1.13613">
        <ele>300.364591</ele>
        <time>2022-08-01T08:55:44.464Z</time>
      </trkpt>
      <trkpt lat="44.35208" lon="1.13625">
        <ele>300.778953</ele>
        <time>2022-08-01T08:55:47.505Z</time>
      </trkpt>
      <trkpt lat="44.35204" lon="1.13637">
        <ele>301.186992</ele>
        <time>2022-08-01T08:55:50.459Z</time>
      </trkpt>
      <trkpt lat="44.35201" lon="1.13653">
        <ele>301.126985</ele>
        <time>2022-08-01T08:55:55.498Z</time>
      </trkpt>
      <trkpt lat="44.35199" lon="1.13669">
        <ele>300.457389</ele>
        <time>2022-08-01T08:55:59.503Z</time>
      </trkpt>
      <trkpt lat="44.35195" lon="1.13682">
        <ele>299.858526</ele>
        <time>2022-08-01T08:56:02.497Z</time>
      </trkpt>
      <trkpt lat="44.3519" lon="1.13696">
        <ele>299.258256</ele>
        <time>2022-08-01T08:56:06.504Z</time>
      </trkpt>
      <trkpt lat="44.35185" lon="1.13709">
        <ele>298.606325</ele>
        <time>2022-08-01T08:56:10.511Z</time>
      </trkpt>
      <trkpt lat="44.35178" lon="1.13722">
        <ele>297.980615</ele>
        <time>2022-08-01T08:56:13.490Z</time>
      </trkpt>
      <trkpt lat="44.35173" lon="1.13732">
        <ele>297.458316</ele>
        <time>2022-08-01T08:56:16.521Z</time>
      </trkpt>
      <trkpt lat="44.3517" lon="1.13744">
        <ele>296.927689</ele>
        <time>2022-08-01T08:56:19.506Z</time>
      </trkpt>
      <trkpt lat="44.35169" lon="1.13758">
        <ele>296.366617</ele>
        <time>2022-08-01T08:56:22.527Z</time>
      </trkpt>
      <trkpt lat="44.35172" lon="1.13774">
        <ele>295.664298</ele>
        <time>2022-08-01T08:56:26.491Z</time>
      </trkpt>
      <trkpt lat="44.35173" lon="1.13788">
        <ele>295.080264</ele>
        <time>2022-08-01T08:56:29.490Z</time>
      </trkpt>
      <trkpt lat="44.35182" lon="1.13796">
        <ele>294.4951</ele>
        <time>2022-08-01T08:56:34.534Z</time>
      </trkpt>
      <trkpt lat="44.35192" lon="1.1379">
        <ele>293.88616</ele>
        <time>2022-08-01T08:56:41.494Z</time>
      </trkpt>
      <trkpt lat="44.35202" lon="1.13786">
        <ele>293.292265</ele>
        <time>2022-08-01T08:56:45.491Z</time>
      </trkpt>
      <trkpt lat="44.35212" lon="1.13787">
        <ele>292.688176</ele>
        <time>2022-08-01T08:56:49.489Z</time>
      </trkpt>
      <trkpt lat="44.35221" lon="1.13786">
        <ele>292.163708</ele>
        <time>2022-08-01T08:56:52.516Z</time>
      </trkpt>
      <trkpt lat="44.35232" lon="1.13788">
        <ele>291.547316</ele>
        <time>2022-08-01T08:56:56.478Z</time>
      </trkpt>
      <trkpt lat="44.35243" lon="1.13785">
        <ele>291.032114</ele>
        <time>2022-08-01T08:57:01.499Z</time>
      </trkpt>
      <trkpt lat="44.35253" lon="1.13782">
        <ele>290.869937</ele>
        <time>2022-08-01T08:57:04.519Z</time>
      </trkpt>
      <trkpt lat="44.35262" lon="1.13778">
        <ele>290.699227</ele>
        <time>2022-08-01T08:57:07.503Z</time>
      </trkpt>
      <trkpt lat="44.35274" lon="1.1378">
        <ele>290.501838</ele>
        <time>2022-08-01T08:57:11.502Z</time>
      </trkpt>
      <trkpt lat="44.35282" lon="1.13788">
        <ele>290.334072</ele>
        <time>2022-08-01T08:57:14.486Z</time>
      </trkpt>
      <trkpt lat="44.35286" lon="1.138">
        <ele>290.176023</ele>
        <time>2022-08-01T08:57:18.490Z</time>
      </trkpt>
      <trkpt lat="44.35279" lon="1.13813">
        <ele>289.987767</ele>
        <time>2022-08-01T08:57:24.485Z</time>
      </trkpt>
      <trkpt lat="44.35272" lon="1.13821">
        <ele>289.822015</ele>
        <time>2022-08-01T08:57:28.536Z</time>
      </trkpt>
      <trkpt lat="44.35262" lon="1.1383">
        <ele>289.621809</ele>
        <time>2022-08-01T08:57:32.497Z</time>
      </trkpt>
      <trkpt lat="44.35253" lon="1.1384">
        <ele>289.435955</ele>
        <time>2022-08-01T08:57:35.497Z</time>
      </trkpt>
      <trkpt lat="44.35246" lon="1.13851">
        <ele>289.259215</ele>
        <time>2022-08-01T08:57:38.480Z</time>
      </trkpt>
      <trkpt lat="44.35239" lon="1.13864">
        <ele>289.062785</ele>
        <time>2022-08-01T08:57:41.473Z</time>
      </trkpt>
      <trkpt lat="44.35232" lon="1.13877">
        <ele>288.862874</ele>
        <time>2022-08-01T08:57:44.472Z</time>
      </trkpt>
      <trkpt lat="44.35226" lon="1.13888">
        <ele>288.696822</ele>
        <time>2022-08-01T08:57:46.506Z</time>
      </trkpt>
      <trkpt lat="44.35219" lon="1.13897">
        <ele>288.544017</ele>
        <time>2022-08-01T08:57:48.478Z</time>
      </trkpt>
      <trkpt lat="44.35211" lon="1.13908">
        <ele>288.350406</ele>
        <time>2022-08-01T08:57:51.479Z</time>
      </trkpt>
      <trkpt lat="44.35204" lon="1.13917">
        <ele>288.184458</ele>
        <time>2022-08-01T08:57:54.476Z</time>
      </trkpt>
      <trkpt lat="44.35197" lon="1.13929">
        <ele>288.119746</ele>
        <time>2022-08-01T08:57:57.482Z</time>
      </trkpt>
      <trkpt lat="44.3519" lon="1.1394">
        <ele>288.268565</ele>
        <time>2022-08-01T08:58:00.463Z</time>
      </trkpt>
      <trkpt lat="44.35181" lon="1.13952">
        <ele>288.431997</ele>
        <time>2022-08-01T08:58:03.502Z</time>
      </trkpt>
      <trkpt lat="44.35173" lon="1.13964">
        <ele>288.599382</ele>
        <time>2022-08-01T08:58:06.486Z</time>
      </trkpt>
      <trkpt lat="44.35163" lon="1.13975">
        <ele>288.769584</ele>
        <time>2022-08-01T08:58:09.507Z</time>
      </trkpt>
      <trkpt lat="44.35155" lon="1.13986">
        <ele>288.93188</ele>
        <time>2022-08-01T08:58:12.485Z</time>
      </trkpt>
      <trkpt lat="44.35146" lon="1.13996">
        <ele>289.089159</ele>
        <time>2022-08-01T08:58:15.496Z</time>
      </trkpt>
      <trkpt lat="44.35139" lon="1.14006">
        <ele>289.22949</ele>
        <time>2022-08-01T08:58:18.493Z</time>
      </trkpt>
      <trkpt lat="44.35131" lon="1.14015">
        <ele>289.370798</ele>
        <time>2022-08-01T08:58:21.483Z</time>
      </trkpt>
      <trkpt lat="44.35123" lon="1.14028">
        <ele>289.541854</ele>
        <time>2022-08-01T08:58:24.487Z</time>
      </trkpt>
      <trkpt lat="44.35116" lon="1.14038">
        <ele>289.679004</ele>
        <time>2022-08-01T08:58:26.484Z</time>
      </trkpt>
      <trkpt lat="44.35109" lon="1.14048">
        <ele>289.813456</ele>
        <time>2022-08-01T08:58:28.511Z</time>
      </trkpt>
      <trkpt lat="44.351" lon="1.14061">
        <ele>289.991215</ele>
        <time>2022-08-01T08:58:31.497Z</time>
      </trkpt>
      <trkpt lat="44.35094" lon="1.1407">
        <ele>290.119699</ele>
        <time>2022-08-01T08:58:33.501Z</time>
      </trkpt>
      <trkpt lat="44.35088" lon="1.14079">
        <ele>290.245062</ele>
        <time>2022-08-01T08:58:35.506Z</time>
      </trkpt>
      <trkpt lat="44.35079" lon="1.14092">
        <ele>290.422948</ele>
        <time>2022-08-01T08:58:38.495Z</time>
      </trkpt>
      <trkpt lat="44.3507" lon="1.14103">
        <ele>290.613947</ele>
        <time>2022-08-01T08:58:41.479Z</time>
      </trkpt>
      <trkpt lat="44.35062" lon="1.14114">
        <ele>290.9655</ele>
        <time>2022-08-01T08:58:44.497Z</time>
      </trkpt>
      <trkpt lat="44.35055" lon="1.14123">
        <ele>291.242042</ele>
        <time>2022-08-01T08:58:47.490Z</time>
      </trkpt>
      <trkpt lat="44.35048" lon="1.14134">
        <ele>291.562087</ele>
        <time>2022-08-01T08:58:51.467Z</time>
      </trkpt>
      <trkpt lat="44.3504" lon="1.14144">
        <ele>291.880604</ele>
        <time>2022-08-01T08:58:55.477Z</time>
      </trkpt>
      <trkpt lat="44.35032" lon="1.14151">
        <ele>292.178661</ele>
        <time>2022-08-01T08:58:58.534Z</time>
      </trkpt>
      <trkpt lat="44.35024" lon="1.14159">
        <ele>292.467877</ele>
        <time>2022-08-01T08:59:01.487Z</time>
      </trkpt>
      <trkpt lat="44.35016" lon="1.14169">
        <ele>292.781278</ele>
        <time>2022-08-01T08:59:04.521Z</time>
      </trkpt>
      <trkpt lat="44.35007" lon="1.1418">
        <ele>293.155155</ele>
        <time>2022-08-01T08:59:07.471Z</time>
      </trkpt>
      <trkpt lat="44.34997" lon="1.14191">
        <ele>293.531832</ele>
        <time>2022-08-01T08:59:10.524Z</time>
      </trkpt>
      <trkpt lat="44.3499" lon="1.142">
        <ele>293.825363</ele>
        <time>2022-08-01T08:59:12.486Z</time>
      </trkpt>
      <trkpt lat="44.34982" lon="1.14209">
        <ele>294.127699</ele>
        <time>2022-08-01T08:59:14.486Z</time>
      </trkpt>
      <trkpt lat="44.34975" lon="1.14219">
        <ele>294.423262</ele>
        <time>2022-08-01T08:59:16.526Z</time>
      </trkpt>
      <trkpt lat="44.34966" lon="1.14231">
        <ele>294.813319</ele>
        <time>2022-08-01T08:59:19.489Z</time>
      </trkpt>
      <trkpt lat="44.34957" lon="1.14243">
        <ele>295.177378</ele>
        <time>2022-08-01T08:59:22.522Z</time>
      </trkpt>
      <trkpt lat="44.34948" lon="1.14251">
        <ele>295.49007</ele>
        <time>2022-08-01T08:59:25.491Z</time>
      </trkpt>
      <trkpt lat="44.34941" lon="1.14261">
        <ele>295.800452</ele>
        <time>2022-08-01T08:59:28.527Z</time>
      </trkpt>
      <trkpt lat="44.34934" lon="1.14277">
        <ele>295.756935</ele>
        <time>2022-08-01T08:59:31.493Z</time>
      </trkpt>
      <trkpt lat="44.34932" lon="1.14301">
        <ele>295.246122</ele>
        <time>2022-08-01T08:59:33.482Z</time>
      </trkpt>
      <trkpt lat="44.3493" lon="1.14316">
        <ele>294.922887</ele>
        <time>2022-08-01T08:59:35.482Z</time>
      </trkpt>
      <trkpt lat="44.34926" lon="1.14329">
        <ele>294.610769</ele>
        <time>2022-08-01T08:59:37.479Z</time>
      </trkpt>
      <trkpt lat="44.34926" lon="1.14342">
        <ele>294.330572</ele>
        <time>2022-08-01T08:59:40.520Z</time>
      </trkpt>
      <trkpt lat="44.34921" lon="1.14354">
        <ele>294.038411</ele>
        <time>2022-08-01T08:59:43.486Z</time>
      </trkpt>
      <trkpt lat="44.34915" lon="1.1437">
        <ele>293.656688</ele>
        <time>2022-08-01T08:59:45.490Z</time>
      </trkpt>
      <trkpt lat="44.34909" lon="1.14384">
        <ele>293.314029</ele>
        <time>2022-08-01T08:59:48.490Z</time>
      </trkpt>
      <trkpt lat="44.34902" lon="1.14399">
        <ele>292.921472</ele>
        <time>2022-08-01T08:59:51.469Z</time>
      </trkpt>
      <trkpt lat="44.34894" lon="1.14415">
        <ele>292.481899</ele>
        <time>2022-08-01T08:59:54.497Z</time>
      </trkpt>
      <trkpt lat="44.34887" lon="1.14429">
        <ele>292.122998</ele>
        <time>2022-08-01T08:59:56.493Z</time>
      </trkpt>
      <trkpt lat="44.3488" lon="1.14444">
        <ele>291.735024</ele>
        <time>2022-08-01T08:59:58.523Z</time>
      </trkpt>
      <trkpt lat="44.34874" lon="1.14459">
        <ele>291.370335</ele>
        <time>2022-08-01T09:00:00.482Z</time>
      </trkpt>
      <trkpt lat="44.34869" lon="1.14471">
        <ele>291.081506</ele>
        <time>2022-08-01T09:00:02.499Z</time>
      </trkpt>
      <trkpt lat="44.34864" lon="1.14482">
        <ele>290.780275</ele>
        <time>2022-08-01T09:00:04.539Z</time>
      </trkpt>
      <trkpt lat="44.34858" lon="1.14493">
        <ele>290.505885</ele>
        <time>2022-08-01T09:00:06.507Z</time>
      </trkpt>
      <trkpt lat="44.34854" lon="1.14504">
        <ele>290.257842</ele>
        <time>2022-08-01T09:00:08.498Z</time>
      </trkpt>
      <trkpt lat="44.34848" lon="1.14516">
        <ele>289.984169</ele>
        <time>2022-08-01T09:00:10.528Z</time>
      </trkpt>
      <trkpt lat="44.34837" lon="1.14542">
        <ele>289.395661</ele>
        <time>2022-08-01T09:00:12.493Z</time>
      </trkpt>
      <trkpt lat="44.34826" lon="1.14556">
        <ele>288.994203</ele>
        <time>2022-08-01T09:00:14.489Z</time>
      </trkpt>
      <trkpt lat="44.34818" lon="1.14569">
        <ele>288.654963</ele>
        <time>2022-08-01T09:00:16.524Z</time>
      </trkpt>
      <trkpt lat="44.34809" lon="1.14581">
        <ele>288.328398</ele>
        <time>2022-08-01T09:00:18.486Z</time>
      </trkpt>
      <trkpt lat="44.34801" lon="1.14593">
        <ele>288.017281</ele>
        <time>2022-08-01T09:00:20.491Z</time>
      </trkpt>
      <trkpt lat="44.34792" lon="1.14606">
        <ele>287.659982</ele>
        <time>2022-08-01T09:00:22.529Z</time>
      </trkpt>
      <trkpt lat="44.34783" lon="1.14616">
        <ele>287.361718</ele>
        <time>2022-08-01T09:00:23.486Z</time>
      </trkpt>
      <trkpt lat="44.34773" lon="1.14626">
        <ele>287.01271</ele>
        <time>2022-08-01T09:00:25.492Z</time>
      </trkpt>
      <trkpt lat="44.34762" lon="1.14641">
        <ele>286.613417</ele>
        <time>2022-08-01T09:00:27.493Z</time>
      </trkpt>
      <trkpt lat="44.3475" lon="1.14654">
        <ele>286.185698</ele>
        <time>2022-08-01T09:00:29.482Z</time>
      </trkpt>
      <trkpt lat="44.34739" lon="1.14665">
        <ele>285.827224</ele>
        <time>2022-08-01T09:00:31.495Z</time>
      </trkpt>
      <trkpt lat="44.3473" lon="1.1468">
        <ele>285.766737</ele>
        <time>2022-08-01T09:00:32.503Z</time>
      </trkpt>
      <trkpt lat="44.34722" lon="1.1469">
        <ele>285.829816</ele>
        <time>2022-08-01T09:00:33.490Z</time>
      </trkpt>
      <trkpt lat="44.34713" lon="1.14703">
        <ele>285.912921</ele>
        <time>2022-08-01T09:00:35.478Z</time>
      </trkpt>
      <trkpt lat="44.34701" lon="1.14715">
        <ele>286.002877</ele>
        <time>2022-08-01T09:00:37.487Z</time>
      </trkpt>
      <trkpt lat="44.34692" lon="1.1473">
        <ele>286.084771</ele>
        <time>2022-08-01T09:00:39.477Z</time>
      </trkpt>
      <trkpt lat="44.34686" lon="1.14748">
        <ele>286.17066</ele>
        <time>2022-08-01T09:00:41.496Z</time>
      </trkpt>
      <trkpt lat="44.34683" lon="1.14765">
        <ele>286.247735</ele>
        <time>2022-08-01T09:00:43.496Z</time>
      </trkpt>
      <trkpt lat="44.34682" lon="1.14784">
        <ele>286.329757</ele>
        <time>2022-08-01T09:00:45.490Z</time>
      </trkpt>
      <trkpt lat="44.34682" lon="1.14803">
        <ele>286.411282</ele>
        <time>2022-08-01T09:00:47.492Z</time>
      </trkpt>
      <trkpt lat="44.3468" lon="1.14823">
        <ele>286.499711</ele>
        <time>2022-08-01T09:00:49.487Z</time>
      </trkpt>
      <trkpt lat="44.3468" lon="1.14842">
        <ele>286.583069</ele>
        <time>2022-08-01T09:00:51.496Z</time>
      </trkpt>
      <trkpt lat="44.34678" lon="1.14863">
        <ele>286.672952</ele>
        <time>2022-08-01T09:00:53.475Z</time>
      </trkpt>
      <trkpt lat="44.34675" lon="1.14894">
        <ele>286.772452</ele>
        <time>2022-08-01T09:00:55.490Z</time>
      </trkpt>
      <trkpt lat="44.34674" lon="1.14911">
        <ele>286.518318</ele>
        <time>2022-08-01T09:00:57.531Z</time>
      </trkpt>
      <trkpt lat="44.34672" lon="1.14931">
        <ele>286.222725</ele>
        <time>2022-08-01T09:00:59.488Z</time>
      </trkpt>
      <trkpt lat="44.34674" lon="1.14949">
        <ele>285.956637</ele>
        <time>2022-08-01T09:01:01.482Z</time>
      </trkpt>
      <trkpt lat="44.34673" lon="1.14969">
        <ele>285.655772</ele>
        <time>2022-08-01T09:01:03.525Z</time>
      </trkpt>
      <trkpt lat="44.34673" lon="1.14982">
        <ele>285.46969</ele>
        <time>2022-08-01T09:01:04.494Z</time>
      </trkpt>
      <trkpt lat="44.34672" lon="1.14995">
        <ele>285.276607</ele>
        <time>2022-08-01T09:01:05.474Z</time>
      </trkpt>
      <trkpt lat="44.34672" lon="1.15014">
        <ele>284.987667</ele>
        <time>2022-08-01T09:01:07.493Z</time>
      </trkpt>
      <trkpt lat="44.34672" lon="1.15035">
        <ele>284.679681</ele>
        <time>2022-08-01T09:01:09.521Z</time>
      </trkpt>
      <trkpt lat="44.34673" lon="1.15055">
        <ele>284.39186</ele>
        <time>2022-08-01T09:01:11.497Z</time>
      </trkpt>
      <trkpt lat="44.34672" lon="1.15069">
        <ele>284.185188</ele>
        <time>2022-08-01T09:01:13.501Z</time>
      </trkpt>
      <trkpt lat="44.34672" lon="1.15091">
        <ele>283.855048</ele>
        <time>2022-08-01T09:01:15.525Z</time>
      </trkpt>
      <trkpt lat="44.34672" lon="1.15113">
        <ele>283.538228</ele>
        <time>2022-08-01T09:01:16.486Z</time>
      </trkpt>
      <trkpt lat="44.34674" lon="1.15134">
        <ele>283.221661</ele>
        <time>2022-08-01T09:01:18.517Z</time>
      </trkpt>
      <trkpt lat="44.34676" lon="1.15153">
        <ele>282.996041</ele>
        <time>2022-08-01T09:01:19.507Z</time>
      </trkpt>
      <trkpt lat="44.34679" lon="1.15174">
        <ele>282.805092</ele>
        <time>2022-08-01T09:01:21.525Z</time>
      </trkpt>
      <trkpt lat="44.34678" lon="1.15201">
        <ele>282.551635</ele>
        <time>2022-08-01T09:01:23.485Z</time>
      </trkpt>
      <trkpt lat="44.34675" lon="1.15223">
        <ele>282.34681</ele>
        <time>2022-08-01T09:01:25.484Z</time>
      </trkpt>
      <trkpt lat="44.34673" lon="1.15237">
        <ele>282.221264</ele>
        <time>2022-08-01T09:01:26.491Z</time>
      </trkpt>
      <trkpt lat="44.34671" lon="1.15262">
        <ele>281.99083</ele>
        <time>2022-08-01T09:01:28.474Z</time>
      </trkpt>
      <trkpt lat="44.34667" lon="1.15283">
        <ele>281.790838</ele>
        <time>2022-08-01T09:01:30.475Z</time>
      </trkpt>
      <trkpt lat="44.34667" lon="1.15303">
        <ele>281.601693</ele>
        <time>2022-08-01T09:01:32.492Z</time>
      </trkpt>
      <trkpt lat="44.34669" lon="1.15322">
        <ele>281.424409</ele>
        <time>2022-08-01T09:01:34.478Z</time>
      </trkpt>
      <trkpt lat="44.34667" lon="1.15341">
        <ele>281.249894</ele>
        <time>2022-08-01T09:01:36.484Z</time>
      </trkpt>
      <trkpt lat="44.34664" lon="1.15362">
        <ele>281.050277</ele>
        <time>2022-08-01T09:01:38.484Z</time>
      </trkpt>
      <trkpt lat="44.34663" lon="1.15377">
        <ele>280.916318</ele>
        <time>2022-08-01T09:01:39.517Z</time>
      </trkpt>
      <trkpt lat="44.34662" lon="1.15397">
        <ele>280.894903</ele>
        <time>2022-08-01T09:01:41.482Z</time>
      </trkpt>
      <trkpt lat="44.34662" lon="1.15419">
        <ele>281.284798</ele>
        <time>2022-08-01T09:01:43.504Z</time>
      </trkpt>
      <trkpt lat="44.34661" lon="1.15436">
        <ele>281.599422</ele>
        <time>2022-08-01T09:01:45.496Z</time>
      </trkpt>
      <trkpt lat="44.34664" lon="1.15454">
        <ele>281.916484</ele>
        <time>2022-08-01T09:01:47.493Z</time>
      </trkpt>
      <trkpt lat="44.34667" lon="1.15466">
        <ele>282.144847</ele>
        <time>2022-08-01T09:01:49.476Z</time>
      </trkpt>
      <trkpt lat="44.34671" lon="1.15481">
        <ele>282.441346</ele>
        <time>2022-08-01T09:01:51.497Z</time>
      </trkpt>
      <trkpt lat="44.34678" lon="1.15492">
        <ele>282.71592</ele>
        <time>2022-08-01T09:01:53.495Z</time>
      </trkpt>
      <trkpt lat="44.34685" lon="1.15505">
        <ele>282.998167</ele>
        <time>2022-08-01T09:01:55.492Z</time>
      </trkpt>
      <trkpt lat="44.34694" lon="1.15515">
        <ele>283.281885</ele>
        <time>2022-08-01T09:01:58.497Z</time>
      </trkpt>
      <trkpt lat="44.34709" lon="1.15517">
        <ele>283.658653</ele>
        <time>2022-08-01T09:02:04.478Z</time>
      </trkpt>
      <trkpt lat="44.3472" lon="1.15517">
        <ele>283.94503</ele>
        <time>2022-08-01T09:02:07.485Z</time>
      </trkpt>
      <trkpt lat="44.3473" lon="1.15519">
        <ele>284.185065</ele>
        <time>2022-08-01T09:02:09.533Z</time>
      </trkpt>
      <trkpt lat="44.34748" lon="1.15531">
        <ele>284.675388</ele>
        <time>2022-08-01T09:02:11.474Z</time>
      </trkpt>
      <trkpt lat="44.34762" lon="1.15537">
        <ele>285.059566</ele>
        <time>2022-08-01T09:02:14.492Z</time>
      </trkpt>
      <trkpt lat="44.34771" lon="1.15543">
        <ele>285.303794</ele>
        <time>2022-08-01T09:02:15.524Z</time>
      </trkpt>
      <trkpt lat="44.34782" lon="1.15549">
        <ele>285.277955</ele>
        <time>2022-08-01T09:02:17.467Z</time>
      </trkpt>
      <trkpt lat="44.34793" lon="1.15551">
        <ele>285.252157</ele>
        <time>2022-08-01T09:02:20.462Z</time>
      </trkpt>
      <trkpt lat="44.34804" lon="1.15553">
        <ele>285.2245</ele>
        <time>2022-08-01T09:02:24.510Z</time>
      </trkpt>
      <trkpt lat="44.34816" lon="1.15554">
        <ele>285.197495</ele>
        <time>2022-08-01T09:02:27.532Z</time>
      </trkpt>
      <trkpt lat="44.34827" lon="1.15551">
        <ele>285.171855</ele>
        <time>2022-08-01T09:02:31.500Z</time>
      </trkpt>
      <trkpt lat="44.34835" lon="1.15544">
        <ele>285.149098</ele>
        <time>2022-08-01T09:02:35.495Z</time>
      </trkpt>
      <trkpt lat="44.34848" lon="1.15547">
        <ele>285.11854</ele>
        <time>2022-08-01T09:02:38.507Z</time>
      </trkpt>
      <trkpt lat="44.34859" lon="1.15552">
        <ele>285.090353</ele>
        <time>2022-08-01T09:02:40.485Z</time>
      </trkpt>
      <trkpt lat="44.3487" lon="1.15557">
        <ele>285.063627</ele>
        <time>2022-08-01T09:02:42.492Z</time>
      </trkpt>
      <trkpt lat="44.3488" lon="1.15562">
        <ele>285.039943</ele>
        <time>2022-08-01T09:02:44.480Z</time>
      </trkpt>
      <trkpt lat="44.3489" lon="1.15567">
        <ele>285.0151</ele>
        <time>2022-08-01T09:02:46.496Z</time>
      </trkpt>
      <trkpt lat="44.349" lon="1.1557">
        <ele>284.990019</ele>
        <time>2022-08-01T09:02:48.479Z</time>
      </trkpt>
      <trkpt lat="44.34911" lon="1.15574">
        <ele>284.963569</ele>
        <time>2022-08-01T09:02:50.481Z</time>
      </trkpt>
      <trkpt lat="44.34928" lon="1.15586">
        <ele>284.919339</ele>
        <time>2022-08-01T09:02:52.481Z</time>
      </trkpt>
      <trkpt lat="44.34941" lon="1.15594">
        <ele>284.88589</ele>
        <time>2022-08-01T09:02:54.472Z</time>
      </trkpt>
      <trkpt lat="44.3495" lon="1.15599">
        <ele>285.183982</ele>
        <time>2022-08-01T09:02:58.484Z</time>
      </trkpt>
      <trkpt lat="44.34956" lon="1.1561">
        <ele>285.542426</ele>
        <time>2022-08-01T09:03:00.474Z</time>
      </trkpt>
      <trkpt lat="44.34962" lon="1.15622">
        <ele>285.917897</ele>
        <time>2022-08-01T09:03:02.483Z</time>
      </trkpt>
      <trkpt lat="44.34967" lon="1.15636">
        <ele>286.314122</ele>
        <time>2022-08-01T09:03:04.499Z</time>
      </trkpt>
      <trkpt lat="44.34971" lon="1.15652">
        <ele>286.750659</ele>
        <time>2022-08-01T09:03:07.484Z</time>
      </trkpt>
      <trkpt lat="44.34975" lon="1.15672">
        <ele>287.268859</ele>
        <time>2022-08-01T09:03:10.487Z</time>
      </trkpt>
      <trkpt lat="44.34977" lon="1.15684">
        <ele>287.590958</ele>
        <time>2022-08-01T09:03:12.492Z</time>
      </trkpt>
      <trkpt lat="44.34978" lon="1.15697">
        <ele>287.923992</ele>
        <time>2022-08-01T09:03:14.501Z</time>
      </trkpt>
      <trkpt lat="44.3498" lon="1.1571">
        <ele>288.271448</ele>
        <time>2022-08-01T09:03:16.491Z</time>
      </trkpt>
      <trkpt lat="44.34979" lon="1.15728">
        <ele>288.721151</ele>
        <time>2022-08-01T09:03:19.509Z</time>
      </trkpt>
      <trkpt lat="44.34977" lon="1.15745">
        <ele>289.168104</ele>
        <time>2022-08-01T09:03:22.497Z</time>
      </trkpt>
      <trkpt lat="44.34975" lon="1.15759">
        <ele>289.532459</ele>
        <time>2022-08-01T09:03:24.489Z</time>
      </trkpt>
      <trkpt lat="44.34971" lon="1.15774">
        <ele>289.938996</ele>
        <time>2022-08-01T09:03:26.497Z</time>
      </trkpt>
      <trkpt lat="44.34966" lon="1.15787">
        <ele>290.300013</ele>
        <time>2022-08-01T09:03:28.488Z</time>
      </trkpt>
      <trkpt lat="44.34962" lon="1.158">
        <ele>290.663364</ele>
        <time>2022-08-01T09:03:30.488Z</time>
      </trkpt>
      <trkpt lat="44.34958" lon="1.15814">
        <ele>291.060843</ele>
        <time>2022-08-01T09:03:32.478Z</time>
      </trkpt>
      <trkpt lat="44.34954" lon="1.15826">
        <ele>291.358167</ele>
        <time>2022-08-01T09:03:34.491Z</time>
      </trkpt>
      <trkpt lat="44.34947" lon="1.15842">
        <ele>291.639866</ele>
        <time>2022-08-01T09:03:36.506Z</time>
      </trkpt>
      <trkpt lat="44.34942" lon="1.15861">
        <ele>291.972382</ele>
        <time>2022-08-01T09:03:38.479Z</time>
      </trkpt>
      <trkpt lat="44.34939" lon="1.15873">
        <ele>292.181911</ele>
        <time>2022-08-01T09:03:40.497Z</time>
      </trkpt>
      <trkpt lat="44.34938" lon="1.15889">
        <ele>292.431207</ele>
        <time>2022-08-01T09:03:42.490Z</time>
      </trkpt>
      <trkpt lat="44.34937" lon="1.15903">
        <ele>292.659242</ele>
        <time>2022-08-01T09:03:44.479Z</time>
      </trkpt>
      <trkpt lat="44.34937" lon="1.15921">
        <ele>292.949651</ele>
        <time>2022-08-01T09:03:47.494Z</time>
      </trkpt>
      <trkpt lat="44.34937" lon="1.15935">
        <ele>293.166613</ele>
        <time>2022-08-01T09:03:49.488Z</time>
      </trkpt>
      <trkpt lat="44.34937" lon="1.1595">
        <ele>293.404123</ele>
        <time>2022-08-01T09:03:51.500Z</time>
      </trkpt>
      <trkpt lat="44.34938" lon="1.15963">
        <ele>293.611201</ele>
        <time>2022-08-01T09:03:53.477Z</time>
      </trkpt>
      <trkpt lat="44.34939" lon="1.1598">
        <ele>293.877476</ele>
        <time>2022-08-01T09:03:55.479Z</time>
      </trkpt>
      <trkpt lat="44.34937" lon="1.15995">
        <ele>294.128372</ele>
        <time>2022-08-01T09:03:57.519Z</time>
      </trkpt>
      <trkpt lat="44.34935" lon="1.1601">
        <ele>294.371688</ele>
        <time>2022-08-01T09:03:59.488Z</time>
      </trkpt>
      <trkpt lat="44.34934" lon="1.16026">
        <ele>294.618862</ele>
        <time>2022-08-01T09:04:01.492Z</time>
      </trkpt>
      <trkpt lat="44.34932" lon="1.16041">
        <ele>294.861299</ele>
        <time>2022-08-01T09:04:03.542Z</time>
      </trkpt>
      <trkpt lat="44.3493" lon="1.16057">
        <ele>295.124544</ele>
        <time>2022-08-01T09:04:05.476Z</time>
      </trkpt>
      <trkpt lat="44.34928" lon="1.16074">
        <ele>295.270959</ele>
        <time>2022-08-01T09:04:06.476Z</time>
      </trkpt>
      <trkpt lat="44.34927" lon="1.16089">
        <ele>295.200589</ele>
        <time>2022-08-01T09:04:08.495Z</time>
      </trkpt>
      <trkpt lat="44.34927" lon="1.16107">
        <ele>295.118054</ele>
        <time>2022-08-01T09:04:10.491Z</time>
      </trkpt>
      <trkpt lat="44.3493" lon="1.16121">
        <ele>295.045984</ele>
        <time>2022-08-01T09:04:12.500Z</time>
      </trkpt>
      <trkpt lat="44.34935" lon="1.16138">
        <ele>294.962108</ele>
        <time>2022-08-01T09:04:14.505Z</time>
      </trkpt>
      <trkpt lat="44.34941" lon="1.16154">
        <ele>294.882301</ele>
        <time>2022-08-01T09:04:16.471Z</time>
      </trkpt>
      <trkpt lat="44.34945" lon="1.16173">
        <ele>294.788957</ele>
        <time>2022-08-01T09:04:18.487Z</time>
      </trkpt>
      <trkpt lat="44.34948" lon="1.16191">
        <ele>294.702194</ele>
        <time>2022-08-01T09:04:20.491Z</time>
      </trkpt>
      <trkpt lat="44.3495" lon="1.1621">
        <ele>294.613874</ele>
        <time>2022-08-01T09:04:22.493Z</time>
      </trkpt>
      <trkpt lat="44.34952" lon="1.16227">
        <ele>294.532626</ele>
        <time>2022-08-01T09:04:24.499Z</time>
      </trkpt>
      <trkpt lat="44.34955" lon="1.16244">
        <ele>294.452161</ele>
        <time>2022-08-01T09:04:26.472Z</time>
      </trkpt>
      <trkpt lat="44.34956" lon="1.16263">
        <ele>294.36492</ele>
        <time>2022-08-01T09:04:28.505Z</time>
      </trkpt>
      <trkpt lat="44.34958" lon="1.16278">
        <ele>294.292219</ele>
        <time>2022-08-01T09:04:30.483Z</time>
      </trkpt>
      <trkpt lat="44.34959" lon="1.16296">
        <ele>294.210118</ele>
        <time>2022-08-01T09:04:32.466Z</time>
      </trkpt>
      <trkpt lat="44.34962" lon="1.16313">
        <ele>294.108283</ele>
        <time>2022-08-01T09:04:34.485Z</time>
      </trkpt>
      <trkpt lat="44.34963" lon="1.16332">
        <ele>293.264582</ele>
        <time>2022-08-01T09:04:36.480Z</time>
      </trkpt>
      <trkpt lat="44.34964" lon="1.1635">
        <ele>292.438616</ele>
        <time>2022-08-01T09:04:38.493Z</time>
      </trkpt>
      <trkpt lat="44.34965" lon="1.16367">
        <ele>291.694438</ele>
        <time>2022-08-01T09:04:40.487Z</time>
      </trkpt>
      <trkpt lat="44.34963" lon="1.16386">
        <ele>290.889275</ele>
        <time>2022-08-01T09:04:42.471Z</time>
      </trkpt>
      <trkpt lat="44.34959" lon="1.164">
        <ele>290.17964</ele>
        <time>2022-08-01T09:04:44.484Z</time>
      </trkpt>
      <trkpt lat="44.34954" lon="1.16416">
        <ele>289.398155</ele>
        <time>2022-08-01T09:04:46.492Z</time>
      </trkpt>
      <trkpt lat="44.34948" lon="1.16436">
        <ele>288.469028</ele>
        <time>2022-08-01T09:04:48.482Z</time>
      </trkpt>
      <trkpt lat="44.34943" lon="1.16453">
        <ele>287.640521</ele>
        <time>2022-08-01T09:04:50.497Z</time>
      </trkpt>
      <trkpt lat="44.34938" lon="1.16471">
        <ele>286.832099</ele>
        <time>2022-08-01T09:04:51.490Z</time>
      </trkpt>
      <trkpt lat="44.34933" lon="1.16489">
        <ele>285.942882</ele>
        <time>2022-08-01T09:04:53.442Z</time>
      </trkpt>
      <trkpt lat="44.34926" lon="1.16508">
        <ele>285.018337</ele>
        <time>2022-08-01T09:04:55.489Z</time>
      </trkpt>
      <trkpt lat="44.34921" lon="1.16527">
        <ele>284.152</ele>
        <time>2022-08-01T09:04:57.511Z</time>
      </trkpt>
      <trkpt lat="44.34916" lon="1.16544">
        <ele>283.310893</ele>
        <time>2022-08-01T09:04:59.494Z</time>
      </trkpt>
      <trkpt lat="44.34909" lon="1.16562">
        <ele>284.087863</ele>
        <time>2022-08-01T09:05:01.473Z</time>
      </trkpt>
      <trkpt lat="44.34904" lon="1.16578">
        <ele>285.24272</ele>
        <time>2022-08-01T09:05:03.492Z</time>
      </trkpt>
      <trkpt lat="44.34899" lon="1.16592">
        <ele>286.309477</ele>
        <time>2022-08-01T09:05:05.479Z</time>
      </trkpt>
      <trkpt lat="44.34897" lon="1.16611">
        <ele>287.608408</ele>
        <time>2022-08-01T09:05:08.479Z</time>
      </trkpt>
      <trkpt lat="44.34891" lon="1.16628">
        <ele>288.906562</ele>
        <time>2022-08-01T09:05:10.479Z</time>
      </trkpt>
      <trkpt lat="44.34891" lon="1.16646">
        <ele>290.139397</ele>
        <time>2022-08-01T09:05:12.484Z</time>
      </trkpt>
      <trkpt lat="44.34892" lon="1.16666">
        <ele>291.486564</ele>
        <time>2022-08-01T09:05:14.471Z</time>
      </trkpt>
      <trkpt lat="44.34889" lon="1.1668">
        <ele>292.535456</ele>
        <time>2022-08-01T09:05:15.480Z</time>
      </trkpt>
      <trkpt lat="44.34896" lon="1.16696">
        <ele>293.851068</ele>
        <time>2022-08-01T09:05:17.490Z</time>
      </trkpt>
      <trkpt lat="44.34904" lon="1.16713">
        <ele>295.182809</ele>
        <time>2022-08-01T09:05:20.514Z</time>
      </trkpt>
      <trkpt lat="44.34911" lon="1.16728">
        <ele>296.463645</ele>
        <time>2022-08-01T09:05:22.502Z</time>
      </trkpt>
      <trkpt lat="44.34919" lon="1.16743">
        <ele>297.699764</ele>
        <time>2022-08-01T09:05:24.482Z</time>
      </trkpt>
      <trkpt lat="44.34926" lon="1.16751">
        <ele>298.594304</ele>
        <time>2022-08-01T09:05:26.513Z</time>
      </trkpt>
      <trkpt lat="44.34937" lon="1.16763">
        <ele>299.890978</ele>
        <time>2022-08-01T09:05:28.492Z</time>
      </trkpt>
      <trkpt lat="44.34946" lon="1.16776">
        <ele>300.639211</ele>
        <time>2022-08-01T09:05:30.481Z</time>
      </trkpt>
      <trkpt lat="44.3496" lon="1.16782">
        <ele>301.175732</ele>
        <time>2022-08-01T09:05:32.517Z</time>
      </trkpt>
      <trkpt lat="44.34975" lon="1.16783">
        <ele>301.767166</ele>
        <time>2022-08-01T09:05:34.481Z</time>
      </trkpt>
      <trkpt lat="44.34986" lon="1.16785">
        <ele>302.222047</ele>
        <time>2022-08-01T09:05:36.497Z</time>
      </trkpt>
      <trkpt lat="44.34999" lon="1.16787">
        <ele>302.725048</ele>
        <time>2022-08-01T09:05:38.514Z</time>
      </trkpt>
      <trkpt lat="44.35011" lon="1.16789">
        <ele>303.176865</ele>
        <time>2022-08-01T09:05:40.491Z</time>
      </trkpt>
      <trkpt lat="44.35024" lon="1.16792">
        <ele>303.716146</ele>
        <time>2022-08-01T09:05:42.490Z</time>
      </trkpt>
      <trkpt lat="44.35037" lon="1.16793">
        <ele>304.202667</ele>
        <time>2022-08-01T09:05:44.523Z</time>
      </trkpt>
      <trkpt lat="44.3505" lon="1.16796">
        <ele>304.701836</ele>
        <time>2022-08-01T09:05:46.500Z</time>
      </trkpt>
      <trkpt lat="44.35063" lon="1.16798">
        <ele>305.205879</ele>
        <time>2022-08-01T09:05:48.504Z</time>
      </trkpt>
      <trkpt lat="44.35075" lon="1.16801">
        <ele>305.714496</ele>
        <time>2022-08-01T09:05:50.516Z</time>
      </trkpt>
      <trkpt lat="44.35088" lon="1.16803">
        <ele>306.225193</ele>
        <time>2022-08-01T09:05:52.492Z</time>
      </trkpt>
      <trkpt lat="44.35101" lon="1.16805">
        <ele>306.712705</ele>
        <time>2022-08-01T09:05:54.502Z</time>
      </trkpt>
      <trkpt lat="44.35114" lon="1.16807">
        <ele>307.223934</ele>
        <time>2022-08-01T09:05:56.517Z</time>
      </trkpt>
      <trkpt lat="44.35126" lon="1.16811">
        <ele>307.255171</ele>
        <time>2022-08-01T09:05:58.500Z</time>
      </trkpt>
      <trkpt lat="44.35138" lon="1.16819">
        <ele>307.244412</ele>
        <time>2022-08-01T09:06:00.494Z</time>
      </trkpt>
      <trkpt lat="44.35148" lon="1.16832">
        <ele>307.232839</ele>
        <time>2022-08-01T09:06:02.519Z</time>
      </trkpt>
      <trkpt lat="44.3515" lon="1.16847">
        <ele>307.223648</ele>
        <time>2022-08-01T09:06:04.518Z</time>
      </trkpt>
      <trkpt lat="44.35152" lon="1.16865">
        <ele>307.212964</ele>
        <time>2022-08-01T09:06:06.503Z</time>
      </trkpt>
      <trkpt lat="44.35148" lon="1.16883">
        <ele>307.202228</ele>
        <time>2022-08-01T09:06:09.483Z</time>
      </trkpt>
      <trkpt lat="44.35142" lon="1.16902">
        <ele>307.189938</ele>
        <time>2022-08-01T09:06:11.499Z</time>
      </trkpt>
      <trkpt lat="44.35135" lon="1.16919">
        <ele>307.178538</ele>
        <time>2022-08-01T09:06:13.491Z</time>
      </trkpt>
      <trkpt lat="44.35132" lon="1.16939">
        <ele>307.16673</ele>
        <time>2022-08-01T09:06:15.477Z</time>
      </trkpt>
      <trkpt lat="44.35128" lon="1.16956">
        <ele>307.156241</ele>
        <time>2022-08-01T09:06:17.486Z</time>
      </trkpt>
      <trkpt lat="44.35124" lon="1.16974">
        <ele>307.145098</ele>
        <time>2022-08-01T09:06:19.479Z</time>
      </trkpt>
      <trkpt lat="44.35119" lon="1.16991">
        <ele>307.134603</ele>
        <time>2022-08-01T09:06:21.502Z</time>
      </trkpt>
      <trkpt lat="44.35115" lon="1.17013">
        <ele>307.121528</ele>
        <time>2022-08-01T09:06:23.493Z</time>
      </trkpt>
      <trkpt lat="44.35111" lon="1.17029">
        <ele>307.018073</ele>
        <time>2022-08-01T09:06:25.514Z</time>
      </trkpt>
      <trkpt lat="44.35108" lon="1.17046">
        <ele>306.853669</ele>
        <time>2022-08-01T09:06:27.481Z</time>
      </trkpt>
      <trkpt lat="44.35106" lon="1.17064">
        <ele>306.684837</ele>
        <time>2022-08-01T09:06:29.484Z</time>
      </trkpt>
      <trkpt lat="44.35105" lon="1.17082">
        <ele>306.515796</ele>
        <time>2022-08-01T09:06:31.492Z</time>
      </trkpt>
      <trkpt lat="44.35106" lon="1.17104">
        <ele>306.305298</ele>
        <time>2022-08-01T09:06:33.485Z</time>
      </trkpt>
      <trkpt lat="44.35109" lon="1.17127">
        <ele>306.080265</ele>
        <time>2022-08-01T09:06:35.494Z</time>
      </trkpt>
      <trkpt lat="44.35113" lon="1.17146">
        <ele>305.896597</ele>
        <time>2022-08-01T09:06:37.483Z</time>
      </trkpt>
      <trkpt lat="44.35115" lon="1.17167">
        <ele>305.697781</ele>
        <time>2022-08-01T09:06:39.477Z</time>
      </trkpt>
      <trkpt lat="44.35119" lon="1.17184">
        <ele>305.528004</ele>
        <time>2022-08-01T09:06:40.486Z</time>
      </trkpt>
      <trkpt lat="44.35119" lon="1.17202">
        <ele>305.354375</ele>
        <time>2022-08-01T09:06:42.467Z</time>
      </trkpt>
      <trkpt lat="44.35118" lon="1.17221">
        <ele>305.179621</ele>
        <time>2022-08-01T09:06:44.498Z</time>
      </trkpt>
      <trkpt lat="44.35114" lon="1.17241">
        <ele>304.978533</ele>
        <time>2022-08-01T09:06:46.484Z</time>
      </trkpt>
      <trkpt lat="44.35108" lon="1.17262">
        <ele>304.765268</ele>
        <time>2022-08-01T09:06:48.484Z</time>
      </trkpt>
      <trkpt lat="44.35105" lon="1.17282">
        <ele>304.469292</ele>
        <time>2022-08-01T09:06:50.491Z</time>
      </trkpt>
      <trkpt lat="44.35103" lon="1.17295">
        <ele>304.266657</ele>
        <time>2022-08-01T09:06:51.468Z</time>
      </trkpt>
      <trkpt lat="44.351" lon="1.17311">
        <ele>304.017938</ele>
        <time>2022-08-01T09:06:53.462Z</time>
      </trkpt>
      <trkpt lat="44.35095" lon="1.17323">
        <ele>303.795091</ele>
        <time>2022-08-01T09:06:54.477Z</time>
      </trkpt>
      <trkpt lat="44.351" lon="1.17339">
        <ele>303.531596</ele>
        <time>2022-08-01T09:06:56.486Z</time>
      </trkpt>
      <trkpt lat="44.35093" lon="1.17349">
        <ele>303.327117</ele>
        <time>2022-08-01T09:06:57.482Z</time>
      </trkpt>
      <trkpt lat="44.35091" lon="1.17365">
        <ele>303.075985</ele>
        <time>2022-08-01T09:06:59.479Z</time>
      </trkpt>
      <trkpt lat="44.35093" lon="1.17385">
        <ele>302.763011</ele>
        <time>2022-08-01T09:07:01.480Z</time>
      </trkpt>
      <trkpt lat="44.351" lon="1.174">
        <ele>302.488035</ele>
        <time>2022-08-01T09:07:03.481Z</time>
      </trkpt>
      <trkpt lat="44.35111" lon="1.17411">
        <ele>302.202634</ele>
        <time>2022-08-01T09:07:05.486Z</time>
      </trkpt>
      <trkpt lat="44.35124" lon="1.17416">
        <ele>301.905545</ele>
        <time>2022-08-01T09:07:07.478Z</time>
      </trkpt>
      <trkpt lat="44.35137" lon="1.17425">
        <ele>301.592063</ele>
        <time>2022-08-01T09:07:09.463Z</time>
      </trkpt>
      <trkpt lat="44.35149" lon="1.17429">
        <ele>301.325561</ele>
        <time>2022-08-01T09:07:11.499Z</time>
      </trkpt>
      <trkpt lat="44.35157" lon="1.17435">
        <ele>301.127928</ele>
        <time>2022-08-01T09:07:12.505Z</time>
      </trkpt>
      <trkpt lat="44.3517" lon="1.17446">
        <ele>300.78496</ele>
        <time>2022-08-01T09:07:14.481Z</time>
      </trkpt>
      <trkpt lat="44.35181" lon="1.17456">
        <ele>300.402621</ele>
        <time>2022-08-01T09:07:16.504Z</time>
      </trkpt>
      <trkpt lat="44.35191" lon="1.17471">
        <ele>299.977787</ele>
        <time>2022-08-01T09:07:18.487Z</time>
      </trkpt>
      <trkpt lat="44.35197" lon="1.17484">
        <ele>299.648752</ele>
        <time>2022-08-01T09:07:20.494Z</time>
      </trkpt>
      <trkpt lat="44.35203" lon="1.17502">
        <ele>299.246104</ele>
        <time>2022-08-01T09:07:22.489Z</time>
      </trkpt>
      <trkpt lat="44.35207" lon="1.1752">
        <ele>298.846382</ele>
        <time>2022-08-01T09:07:24.499Z</time>
      </trkpt>
      <trkpt lat="44.35209" lon="1.17538">
        <ele>298.457239</ele>
        <time>2022-08-01T09:07:26.487Z</time>
      </trkpt>
      <trkpt lat="44.35212" lon="1.17556">
        <ele>298.076447</ele>
        <time>2022-08-01T09:07:28.505Z</time>
      </trkpt>
      <trkpt lat="44.35212" lon="1.17574">
        <ele>297.710495</ele>
        <time>2022-08-01T09:07:30.481Z</time>
      </trkpt>
      <trkpt lat="44.35209" lon="1.17594">
        <ele>297.283405</ele>
        <time>2022-08-01T09:07:33.486Z</time>
      </trkpt>
      <trkpt lat="44.35205" lon="1.17609">
        <ele>296.933915</ele>
        <time>2022-08-01T09:07:35.496Z</time>
      </trkpt>
      <trkpt lat="44.352" lon="1.17629">
        <ele>296.502287</ele>
        <time>2022-08-01T09:07:37.516Z</time>
      </trkpt>
      <trkpt lat="44.35195" lon="1.17643">
        <ele>296.172427</ele>
        <time>2022-08-01T09:07:39.486Z</time>
      </trkpt>
      <trkpt lat="44.35188" lon="1.17658">
        <ele>295.78557</ele>
        <time>2022-08-01T09:07:41.478Z</time>
      </trkpt>
      <trkpt lat="44.3518" lon="1.17673">
        <ele>295.57216</ele>
        <time>2022-08-01T09:07:43.529Z</time>
      </trkpt>
      <trkpt lat="44.35173" lon="1.17688">
        <ele>295.489744</ele>
        <time>2022-08-01T09:07:45.492Z</time>
      </trkpt>
      <trkpt lat="44.35166" lon="1.17706">
        <ele>295.393572</ele>
        <time>2022-08-01T09:07:47.489Z</time>
      </trkpt>
      <trkpt lat="44.35159" lon="1.17721">
        <ele>295.310634</ele>
        <time>2022-08-01T09:07:49.518Z</time>
      </trkpt>
      <trkpt lat="44.35152" lon="1.17736">
        <ele>295.227883</ele>
        <time>2022-08-01T09:07:51.474Z</time>
      </trkpt>
      <trkpt lat="44.35145" lon="1.17754">
        <ele>295.135904</ele>
        <time>2022-08-01T09:07:53.492Z</time>
      </trkpt>
      <trkpt lat="44.35137" lon="1.17772">
        <ele>295.037819</ele>
        <time>2022-08-01T09:07:55.528Z</time>
      </trkpt>
      <trkpt lat="44.3513" lon="1.17793">
        <ele>294.930165</ele>
        <time>2022-08-01T09:07:57.497Z</time>
      </trkpt>
      <trkpt lat="44.35121" lon="1.1781">
        <ele>294.835343</ele>
        <time>2022-08-01T09:07:59.504Z</time>
      </trkpt>
      <trkpt lat="44.35115" lon="1.17829">
        <ele>294.738524</ele>
        <time>2022-08-01T09:08:01.513Z</time>
      </trkpt>
      <trkpt lat="44.35108" lon="1.17844">
        <ele>294.653273</ele>
        <time>2022-08-01T09:08:03.467Z</time>
      </trkpt>
      <trkpt lat="44.35102" lon="1.1786">
        <ele>294.572199</ele>
        <time>2022-08-01T09:08:05.468Z</time>
      </trkpt>
      <trkpt lat="44.35096" lon="1.17875">
        <ele>294.490256</ele>
        <time>2022-08-01T09:08:07.512Z</time>
      </trkpt>
      <trkpt lat="44.35088" lon="1.17893">
        <ele>294.141831</ele>
        <time>2022-08-01T09:08:09.499Z</time>
      </trkpt>
      <trkpt lat="44.35081" lon="1.17909">
        <ele>293.700179</ele>
        <time>2022-08-01T09:08:11.502Z</time>
      </trkpt>
      <trkpt lat="44.35074" lon="1.17923">
        <ele>293.316913</ele>
        <time>2022-08-01T09:08:13.527Z</time>
      </trkpt>
      <trkpt lat="44.35068" lon="1.17939">
        <ele>292.898904</ele>
        <time>2022-08-01T09:08:15.470Z</time>
      </trkpt>
      <trkpt lat="44.35061" lon="1.17955">
        <ele>292.455002</ele>
        <time>2022-08-01T09:08:17.493Z</time>
      </trkpt>
      <trkpt lat="44.35056" lon="1.17966">
        <ele>292.147785</ele>
        <time>2022-08-01T09:08:19.551Z</time>
      </trkpt>
      <trkpt lat="44.35052" lon="1.17978">
        <ele>291.839658</ele>
        <time>2022-08-01T09:09:00.504Z</time>
      </trkpt>
      <trkpt lat="44.35046" lon="1.17989">
        <ele>291.511365</ele>
        <time>2022-08-01T09:09:04.482Z</time>
      </trkpt>
      <trkpt lat="44.35038" lon="1.18003">
        <ele>291.10338</ele>
        <time>2022-08-01T09:09:07.466Z</time>
      </trkpt>
      <trkpt lat="44.35022" lon="1.18001">
        <ele>290.598708</ele>
        <time>2022-08-01T09:09:10.485Z</time>
      </trkpt>
      <trkpt lat="44.35012" lon="1.17997">
        <ele>290.239403</ele>
        <time>2022-08-01T09:09:12.458Z</time>
      </trkpt>
      <trkpt lat="44.35" lon="1.17992">
        <ele>289.8452</ele>
        <time>2022-08-01T09:09:14.482Z</time>
      </trkpt>
      <trkpt lat="44.34988" lon="1.17991">
        <ele>289.438463</ele>
        <time>2022-08-01T09:09:16.471Z</time>
      </trkpt>
      <trkpt lat="44.3497" lon="1.17992">
        <ele>288.872873</ele>
        <time>2022-08-01T09:09:18.484Z</time>
      </trkpt>
      <trkpt lat="44.34956" lon="1.17997">
        <ele>288.37401</ele>
        <time>2022-08-01T09:09:20.501Z</time>
      </trkpt>
      <trkpt lat="44.34939" lon="1.18004">
        <ele>287.762566</ele>
        <time>2022-08-01T09:09:22.463Z</time>
      </trkpt>
      <trkpt lat="44.34931" lon="1.18011">
        <ele>287.446519</ele>
        <time>2022-08-01T09:09:23.506Z</time>
      </trkpt>
      <trkpt lat="44.34917" lon="1.18025">
        <ele>286.869197</ele>
        <time>2022-08-01T09:09:25.489Z</time>
      </trkpt>
      <trkpt lat="44.34909" lon="1.18033">
        <ele>286.534901</ele>
        <time>2022-08-01T09:09:26.481Z</time>
      </trkpt>
      <trkpt lat="44.34901" lon="1.1804">
        <ele>286.185057</ele>
        <time>2022-08-01T09:09:27.481Z</time>
      </trkpt>
      <trkpt lat="44.34892" lon="1.18049">
        <ele>285.835303</ele>
        <time>2022-08-01T09:09:28.496Z</time>
      </trkpt>
      <trkpt lat="44.34885" lon="1.18058">
        <ele>285.512678</ele>
        <time>2022-08-01T09:09:29.518Z</time>
      </trkpt>
      <trkpt lat="44.34876" lon="1.18064">
        <ele>285.165461</ele>
        <time>2022-08-01T09:09:30.487Z</time>
      </trkpt>
      <trkpt lat="44.34867" lon="1.18069">
        <ele>284.822438</ele>
        <time>2022-08-01T09:09:31.500Z</time>
      </trkpt>
      <trkpt lat="44.34857" lon="1.18072">
        <ele>284.487483</ele>
        <time>2022-08-01T09:09:32.475Z</time>
      </trkpt>
      <trkpt lat="44.34846" lon="1.18075">
        <ele>284.07722</ele>
        <time>2022-08-01T09:09:34.484Z</time>
      </trkpt>
      <trkpt lat="44.34835" lon="1.18065">
        <ele>283.655771</ele>
        <time>2022-08-01T09:09:35.498Z</time>
      </trkpt>
      <trkpt lat="44.34825" lon="1.1806">
        <ele>283.289197</ele>
        <time>2022-08-01T09:09:36.463Z</time>
      </trkpt>
      <trkpt lat="44.34816" lon="1.18056">
        <ele>282.951811</ele>
        <time>2022-08-01T09:09:37.478Z</time>
      </trkpt>
      <trkpt lat="44.34806" lon="1.18054">
        <ele>282.608936</ele>
        <time>2022-08-01T09:09:38.489Z</time>
      </trkpt>
      <trkpt lat="44.34795" lon="1.18053">
        <ele>282.055878</ele>
        <time>2022-08-01T09:09:39.499Z</time>
      </trkpt>
      <trkpt lat="44.34785" lon="1.18056">
        <ele>281.478042</ele>
        <time>2022-08-01T09:09:40.481Z</time>
      </trkpt>
      <trkpt lat="44.34775" lon="1.1806">
        <ele>280.836711</ele>
        <time>2022-08-01T09:09:41.518Z</time>
      </trkpt>
      <trkpt lat="44.34766" lon="1.18065">
        <ele>280.252974</ele>
        <time>2022-08-01T09:09:42.491Z</time>
      </trkpt>
      <trkpt lat="44.34755" lon="1.18071">
        <ele>279.550253</ele>
        <time>2022-08-01T09:09:43.493Z</time>
      </trkpt>
      <trkpt lat="44.34745" lon="1.18077">
        <ele>278.911004</ele>
        <time>2022-08-01T09:09:44.497Z</time>
      </trkpt>
      <trkpt lat="44.34736" lon="1.18081">
        <ele>278.305738</ele>
        <time>2022-08-01T09:09:45.500Z</time>
      </trkpt>
      <trkpt lat="44.34726" lon="1.18086">
        <ele>277.677794</ele>
        <time>2022-08-01T09:09:46.479Z</time>
      </trkpt>
      <trkpt lat="44.34715" lon="1.18091">
        <ele>277.007717</ele>
        <time>2022-08-01T09:09:47.500Z</time>
      </trkpt>
      <trkpt lat="44.34706" lon="1.18098">
        <ele>276.390965</ele>
        <time>2022-08-01T09:09:48.461Z</time>
      </trkpt>
      <trkpt lat="44.34697" lon="1.18106">
        <ele>275.754101</ele>
        <time>2022-08-01T09:09:49.493Z</time>
      </trkpt>
      <trkpt lat="44.34688" lon="1.18116">
        <ele>275.070478</ele>
        <time>2022-08-01T09:09:50.503Z</time>
      </trkpt>
      <trkpt lat="44.34679" lon="1.18125">
        <ele>274.416467</ele>
        <time>2022-08-01T09:09:51.476Z</time>
      </trkpt>
      <trkpt lat="44.3467" lon="1.18135">
        <ele>273.721994</ele>
        <time>2022-08-01T09:09:52.488Z</time>
      </trkpt>
      <trkpt lat="44.34661" lon="1.18144">
        <ele>273.042764</ele>
        <time>2022-08-01T09:09:53.516Z</time>
      </trkpt>
      <trkpt lat="44.34651" lon="1.18153">
        <ele>272.311682</ele>
        <time>2022-08-01T09:09:54.483Z</time>
      </trkpt>
      <trkpt lat="44.34642" lon="1.18161">
        <ele>271.704467</ele>
        <time>2022-08-01T09:09:55.487Z</time>
      </trkpt>
      <trkpt lat="44.34632" lon="1.18171">
        <ele>271.50279</ele>
        <time>2022-08-01T09:09:56.484Z</time>
      </trkpt>
      <trkpt lat="44.34624" lon="1.1818">
        <ele>271.314307</ele>
        <time>2022-08-01T09:09:57.476Z</time>
      </trkpt>
      <trkpt lat="44.34614" lon="1.18189">
        <ele>271.12188</ele>
        <time>2022-08-01T09:09:58.499Z</time>
      </trkpt>
      <trkpt lat="44.34604" lon="1.18197">
        <ele>270.917351</ele>
        <time>2022-08-01T09:09:59.502Z</time>
      </trkpt>
      <trkpt lat="44.34594" lon="1.18205">
        <ele>270.728981</ele>
        <time>2022-08-01T09:10:00.497Z</time>
      </trkpt>
      <trkpt lat="44.34584" lon="1.18211">
        <ele>270.542229</ele>
        <time>2022-08-01T09:10:01.490Z</time>
      </trkpt>
      <trkpt lat="44.34573" lon="1.18216">
        <ele>270.349451</ele>
        <time>2022-08-01T09:10:02.470Z</time>
      </trkpt>
      <trkpt lat="44.34562" lon="1.18222">
        <ele>270.13719</ele>
        <time>2022-08-01T09:10:03.482Z</time>
      </trkpt>
      <trkpt lat="44.34553" lon="1.18228">
        <ele>269.97155</ele>
        <time>2022-08-01T09:10:04.482Z</time>
      </trkpt>
      <trkpt lat="44.34542" lon="1.18234">
        <ele>269.765157</ele>
        <time>2022-08-01T09:10:05.520Z</time>
      </trkpt>
      <trkpt lat="44.3453" lon="1.18241">
        <ele>269.553356</ele>
        <time>2022-08-01T09:10:06.482Z</time>
      </trkpt>
      <trkpt lat="44.3452" lon="1.18249">
        <ele>269.346747</ele>
        <time>2022-08-01T09:10:07.476Z</time>
      </trkpt>
      <trkpt lat="44.3451" lon="1.18256">
        <ele>269.149396</ele>
        <time>2022-08-01T09:10:08.496Z</time>
      </trkpt>
      <trkpt lat="44.34499" lon="1.18264">
        <ele>268.951468</ele>
        <time>2022-08-01T09:10:09.493Z</time>
      </trkpt>
      <trkpt lat="44.3449" lon="1.18274">
        <ele>268.746451</ele>
        <time>2022-08-01T09:10:10.473Z</time>
      </trkpt>
      <trkpt lat="44.34482" lon="1.18285">
        <ele>268.597824</ele>
        <time>2022-08-01T09:10:11.514Z</time>
      </trkpt>
      <trkpt lat="44.34475" lon="1.18298">
        <ele>268.501341</ele>
        <time>2022-08-01T09:10:12.499Z</time>
      </trkpt>
      <trkpt lat="44.34467" lon="1.18311">
        <ele>268.399277</ele>
        <time>2022-08-01T09:10:13.496Z</time>
      </trkpt>
      <trkpt lat="44.34461" lon="1.18325">
        <ele>268.303741</ele>
        <time>2022-08-01T09:10:14.461Z</time>
      </trkpt>
      <trkpt lat="44.34454" lon="1.18337">
        <ele>268.208687</ele>
        <time>2022-08-01T09:10:15.481Z</time>
      </trkpt>
      <trkpt lat="44.34447" lon="1.18351">
        <ele>268.108969</ele>
        <time>2022-08-01T09:10:16.491Z</time>
      </trkpt>
      <trkpt lat="44.3444" lon="1.18365">
        <ele>268.008719</ele>
        <time>2022-08-01T09:10:17.519Z</time>
      </trkpt>
      <trkpt lat="44.34433" lon="1.18377">
        <ele>267.911617</ele>
        <time>2022-08-01T09:10:18.481Z</time>
      </trkpt>
      <trkpt lat="44.34425" lon="1.1839">
        <ele>267.812111</ele>
        <time>2022-08-01T09:10:19.479Z</time>
      </trkpt>
      <trkpt lat="44.34418" lon="1.18402">
        <ele>267.720477</ele>
        <time>2022-08-01T09:10:20.471Z</time>
      </trkpt>
      <trkpt lat="44.34409" lon="1.18412">
        <ele>267.622173</ele>
        <time>2022-08-01T09:10:21.488Z</time>
      </trkpt>
      <trkpt lat="44.344" lon="1.18423">
        <ele>267.524747</ele>
        <time>2022-08-01T09:10:22.486Z</time>
      </trkpt>
      <trkpt lat="44.3439" lon="1.18432">
        <ele>267.426522</ele>
        <time>2022-08-01T09:10:23.522Z</time>
      </trkpt>
      <trkpt lat="44.34381" lon="1.1844">
        <ele>267.336279</ele>
        <time>2022-08-01T09:10:24.489Z</time>
      </trkpt>
      <trkpt lat="44.34371" lon="1.1845">
        <ele>267.233295</ele>
        <time>2022-08-01T09:10:25.494Z</time>
      </trkpt>
      <trkpt lat="44.34362" lon="1.18459">
        <ele>267.139816</ele>
        <time>2022-08-01T09:10:26.493Z</time>
      </trkpt>
      <trkpt lat="44.34351" lon="1.18468">
        <ele>266.782247</ele>
        <time>2022-08-01T09:10:27.485Z</time>
      </trkpt>
      <trkpt lat="44.34341" lon="1.18476">
        <ele>266.429444</ele>
        <time>2022-08-01T09:10:28.488Z</time>
      </trkpt>
      <trkpt lat="44.34331" lon="1.18484">
        <ele>266.072962</ele>
        <time>2022-08-01T09:10:29.517Z</time>
      </trkpt>
      <trkpt lat="44.34321" lon="1.18492">
        <ele>265.730127</ele>
        <time>2022-08-01T09:10:30.477Z</time>
      </trkpt>
      <trkpt lat="44.3431" lon="1.185">
        <ele>265.361523</ele>
        <time>2022-08-01T09:10:31.489Z</time>
      </trkpt>
      <trkpt lat="44.343" lon="1.18509">
        <ele>265.001805</ele>
        <time>2022-08-01T09:10:32.487Z</time>
      </trkpt>
      <trkpt lat="44.34289" lon="1.18516">
        <ele>264.630147</ele>
        <time>2022-08-01T09:10:33.485Z</time>
      </trkpt>
      <trkpt lat="44.34278" lon="1.18524">
        <ele>264.266832</ele>
        <time>2022-08-01T09:10:34.496Z</time>
      </trkpt>
      <trkpt lat="44.34268" lon="1.18532">
        <ele>263.910231</ele>
        <time>2022-08-01T09:10:35.505Z</time>
      </trkpt>
      <trkpt lat="44.34257" lon="1.18539">
        <ele>263.552625</ele>
        <time>2022-08-01T09:10:36.448Z</time>
      </trkpt>
      <trkpt lat="44.34247" lon="1.18548">
        <ele>263.193525</ele>
        <time>2022-08-01T09:10:37.488Z</time>
      </trkpt>
      <trkpt lat="44.34235" lon="1.18552">
        <ele>262.827982</ele>
        <time>2022-08-01T09:10:38.474Z</time>
      </trkpt>
      <trkpt lat="44.34224" lon="1.18556">
        <ele>262.494297</ele>
        <time>2022-08-01T09:10:39.481Z</time>
      </trkpt>
      <trkpt lat="44.34213" lon="1.18561">
        <ele>262.145534</ele>
        <time>2022-08-01T09:10:40.463Z</time>
      </trkpt>
      <trkpt lat="44.34202" lon="1.18565">
        <ele>261.800774</ele>
        <time>2022-08-01T09:10:41.502Z</time>
      </trkpt>
      <trkpt lat="44.34191" lon="1.18568">
        <ele>260.385221</ele>
        <time>2022-08-01T09:10:42.482Z</time>
      </trkpt>
      <trkpt lat="44.3418" lon="1.1857">
        <ele>258.688683</ele>
        <time>2022-08-01T09:10:43.485Z</time>
      </trkpt>
      <trkpt lat="44.3417" lon="1.18573">
        <ele>257.094736</ele>
        <time>2022-08-01T09:10:44.487Z</time>
      </trkpt>
      <trkpt lat="44.3416" lon="1.18576">
        <ele>255.547595</ele>
        <time>2022-08-01T09:10:45.488Z</time>
      </trkpt>
      <trkpt lat="44.34149" lon="1.18579">
        <ele>253.944785</ele>
        <time>2022-08-01T09:10:46.489Z</time>
      </trkpt>
      <trkpt lat="44.34139" lon="1.18583">
        <ele>252.33257</ele>
        <time>2022-08-01T09:10:47.499Z</time>
      </trkpt>
      <trkpt lat="44.34128" lon="1.18587">
        <ele>250.517643</ele>
        <time>2022-08-01T09:10:48.481Z</time>
      </trkpt>
      <trkpt lat="44.34116" lon="1.18592">
        <ele>248.688948</ele>
        <time>2022-08-01T09:10:49.494Z</time>
      </trkpt>
      <trkpt lat="44.34105" lon="1.18596">
        <ele>246.962376</ele>
        <time>2022-08-01T09:10:50.493Z</time>
      </trkpt>
      <trkpt lat="44.34095" lon="1.186">
        <ele>245.345367</ele>
        <time>2022-08-01T09:10:51.494Z</time>
      </trkpt>
      <trkpt lat="44.34083" lon="1.18606">
        <ele>243.380341</ele>
        <time>2022-08-01T09:10:52.461Z</time>
      </trkpt>
      <trkpt lat="44.34073" lon="1.18613">
        <ele>241.725477</ele>
        <time>2022-08-01T09:10:53.519Z</time>
      </trkpt>
      <trkpt lat="44.34065" lon="1.1862">
        <ele>240.303275</ele>
        <time>2022-08-01T09:10:54.486Z</time>
      </trkpt>
      <trkpt lat="44.34055" lon="1.18627">
        <ele>238.539165</ele>
        <time>2022-08-01T09:10:55.489Z</time>
      </trkpt>
      <trkpt lat="44.34046" lon="1.18637">
        <ele>236.857824</ele>
        <time>2022-08-01T09:10:56.493Z</time>
      </trkpt>
      <trkpt lat="44.34037" lon="1.18645">
        <ele>235.27004</ele>
        <time>2022-08-01T09:10:57.485Z</time>
      </trkpt>
      <trkpt lat="44.3403" lon="1.18653">
        <ele>234.27209</ele>
        <time>2022-08-01T09:10:58.483Z</time>
      </trkpt>
      <trkpt lat="44.34023" lon="1.18663">
        <ele>233.92941</ele>
        <time>2022-08-01T09:10:59.519Z</time>
      </trkpt>
      <trkpt lat="44.34016" lon="1.18673">
        <ele>233.587914</ele>
        <time>2022-08-01T09:11:00.491Z</time>
      </trkpt>
      <trkpt lat="44.3401" lon="1.18684">
        <ele>233.259154</ele>
        <time>2022-08-01T09:11:01.494Z</time>
      </trkpt>
      <trkpt lat="44.34005" lon="1.18696">
        <ele>232.90921</ele>
        <time>2022-08-01T09:11:02.489Z</time>
      </trkpt>
      <trkpt lat="44.33999" lon="1.18708">
        <ele>232.550297</ele>
        <time>2022-08-01T09:11:03.493Z</time>
      </trkpt>
      <trkpt lat="44.33994" lon="1.18719">
        <ele>232.226934</ele>
        <time>2022-08-01T09:11:04.482Z</time>
      </trkpt>
      <trkpt lat="44.33988" lon="1.18732">
        <ele>231.843567</ele>
        <time>2022-08-01T09:11:05.524Z</time>
      </trkpt>
      <trkpt lat="44.33984" lon="1.18744">
        <ele>231.495015</ele>
        <time>2022-08-01T09:11:06.491Z</time>
      </trkpt>
      <trkpt lat="44.33984" lon="1.1876">
        <ele>231.108229</ele>
        <time>2022-08-01T09:11:07.477Z</time>
      </trkpt>
      <trkpt lat="44.33983" lon="1.18775">
        <ele>230.733227</ele>
        <time>2022-08-01T09:11:08.500Z</time>
      </trkpt>
      <trkpt lat="44.33983" lon="1.18791">
        <ele>230.34551</ele>
        <time>2022-08-01T09:11:09.480Z</time>
      </trkpt>
      <trkpt lat="44.33983" lon="1.18806">
        <ele>229.973402</ele>
        <time>2022-08-01T09:11:10.498Z</time>
      </trkpt>
      <trkpt lat="44.33983" lon="1.18822">
        <ele>229.561654</ele>
        <time>2022-08-01T09:11:11.510Z</time>
      </trkpt>
      <trkpt lat="44.33984" lon="1.18837">
        <ele>229.184703</ele>
        <time>2022-08-01T09:11:12.481Z</time>
      </trkpt>
      <trkpt lat="44.33984" lon="1.18854">
        <ele>228.782567</ele>
        <time>2022-08-01T09:11:13.494Z</time>
      </trkpt>
      <trkpt lat="44.33985" lon="1.18869">
        <ele>228.397557</ele>
        <time>2022-08-01T09:11:14.497Z</time>
      </trkpt>
      <trkpt lat="44.33987" lon="1.18885">
        <ele>227.948666</ele>
        <time>2022-08-01T09:11:15.491Z</time>
      </trkpt>
      <trkpt lat="44.33989" lon="1.189">
        <ele>227.442057</ele>
        <time>2022-08-01T09:11:16.483Z</time>
      </trkpt>
      <trkpt lat="44.33991" lon="1.18915">
        <ele>226.929804</ele>
        <time>2022-08-01T09:11:17.508Z</time>
      </trkpt>
      <trkpt lat="44.33995" lon="1.1893">
        <ele>226.377435</ele>
        <time>2022-08-01T09:11:18.475Z</time>
      </trkpt>
      <trkpt lat="44.33999" lon="1.18944">
        <ele>225.865953</ele>
        <time>2022-08-01T09:11:19.505Z</time>
      </trkpt>
      <trkpt lat="44.34003" lon="1.18958">
        <ele>225.353452</ele>
        <time>2022-08-01T09:11:20.472Z</time>
      </trkpt>
      <trkpt lat="44.34009" lon="1.18973">
        <ele>224.801174</ele>
        <time>2022-08-01T09:11:21.488Z</time>
      </trkpt>
      <trkpt lat="44.34015" lon="1.18988">
        <ele>224.234869</ele>
        <time>2022-08-01T09:11:22.496Z</time>
      </trkpt>
      <trkpt lat="44.34021" lon="1.19002">
        <ele>223.672357</ele>
        <time>2022-08-01T09:11:23.522Z</time>
      </trkpt>
      <trkpt lat="44.34028" lon="1.19015">
        <ele>223.124321</ele>
        <time>2022-08-01T09:11:24.491Z</time>
      </trkpt>
      <trkpt lat="44.34035" lon="1.19027">
        <ele>222.589356</ele>
        <time>2022-08-01T09:11:25.485Z</time>
      </trkpt>
      <trkpt lat="44.34043" lon="1.19041">
        <ele>222.013806</ele>
        <time>2022-08-01T09:11:26.476Z</time>
      </trkpt>
      <trkpt lat="44.3405" lon="1.19054">
        <ele>221.484798</ele>
        <time>2022-08-01T09:11:27.494Z</time>
      </trkpt>
      <trkpt lat="44.34057" lon="1.19066">
        <ele>220.94098</ele>
        <time>2022-08-01T09:11:28.477Z</time>
      </trkpt>
      <trkpt lat="44.34065" lon="1.19078">
        <ele>220.384438</ele>
        <time>2022-08-01T09:11:29.524Z</time>
      </trkpt>
      <trkpt lat="44.34073" lon="1.19091">
        <ele>219.807875</ele>
        <time>2022-08-01T09:11:30.487Z</time>
      </trkpt>
      <trkpt lat="44.34081" lon="1.19103">
        <ele>219.392804</ele>
        <time>2022-08-01T09:11:31.474Z</time>
      </trkpt>
      <trkpt lat="44.34089" lon="1.19116">
        <ele>218.950811</ele>
        <time>2022-08-01T09:11:32.499Z</time>
      </trkpt>
      <trkpt lat="44.34097" lon="1.19129">
        <ele>218.491629</ele>
        <time>2022-08-01T09:11:33.494Z</time>
      </trkpt>
      <trkpt lat="44.34105" lon="1.1914">
        <ele>218.081907</ele>
        <time>2022-08-01T09:11:34.462Z</time>
      </trkpt>
      <trkpt lat="44.34114" lon="1.19153">
        <ele>217.653148</ele>
        <time>2022-08-01T09:11:35.489Z</time>
      </trkpt>
      <trkpt lat="44.34121" lon="1.19166">
        <ele>217.219582</ele>
        <time>2022-08-01T09:11:36.458Z</time>
      </trkpt>
      <trkpt lat="44.34129" lon="1.19179">
        <ele>216.787597</ele>
        <time>2022-08-01T09:11:37.458Z</time>
      </trkpt>
      <trkpt lat="44.34134" lon="1.19191">
        <ele>216.414188</ele>
        <time>2022-08-01T09:11:38.489Z</time>
      </trkpt>
      <trkpt lat="44.34141" lon="1.19207">
        <ele>215.945595</ele>
        <time>2022-08-01T09:11:39.473Z</time>
      </trkpt>
      <trkpt lat="44.34145" lon="1.19225">
        <ele>215.457272</ele>
        <time>2022-08-01T09:11:40.475Z</time>
      </trkpt>
      <trkpt lat="44.34149" lon="1.19241">
        <ele>215.04101</ele>
        <time>2022-08-01T09:11:41.508Z</time>
      </trkpt>
      <trkpt lat="44.34152" lon="1.19257">
        <ele>214.609636</ele>
        <time>2022-08-01T09:11:42.472Z</time>
      </trkpt>
      <trkpt lat="44.34154" lon="1.19274">
        <ele>214.159003</ele>
        <time>2022-08-01T09:11:43.487Z</time>
      </trkpt>
      <trkpt lat="44.34158" lon="1.19288">
        <ele>213.773176</ele>
        <time>2022-08-01T09:11:44.470Z</time>
      </trkpt>
      <trkpt lat="44.34161" lon="1.19303">
        <ele>213.373318</ele>
        <time>2022-08-01T09:11:45.496Z</time>
      </trkpt>
      <trkpt lat="44.34165" lon="1.19319">
        <ele>213.483354</ele>
        <time>2022-08-01T09:11:46.480Z</time>
      </trkpt>
      <trkpt lat="44.34168" lon="1.19334">
        <ele>213.681139</ele>
        <time>2022-08-01T09:11:47.516Z</time>
      </trkpt>
      <trkpt lat="44.3417" lon="1.1935">
        <ele>213.886304</ele>
        <time>2022-08-01T09:11:48.476Z</time>
      </trkpt>
      <trkpt lat="44.34174" lon="1.19366">
        <ele>214.101281</ele>
        <time>2022-08-01T09:11:49.499Z</time>
      </trkpt>
      <trkpt lat="44.34176" lon="1.19381">
        <ele>214.293256</ele>
        <time>2022-08-01T09:11:50.496Z</time>
      </trkpt>
      <trkpt lat="44.34179" lon="1.19397">
        <ele>214.506</ele>
        <time>2022-08-01T09:11:51.485Z</time>
      </trkpt>
      <trkpt lat="44.34181" lon="1.19413">
        <ele>214.711768</ele>
        <time>2022-08-01T09:11:52.483Z</time>
      </trkpt>
      <trkpt lat="44.34184" lon="1.19429">
        <ele>214.925059</ele>
        <time>2022-08-01T09:11:53.523Z</time>
      </trkpt>
      <trkpt lat="44.34187" lon="1.19444">
        <ele>215.124681</ele>
        <time>2022-08-01T09:11:54.480Z</time>
      </trkpt>
      <trkpt lat="44.34189" lon="1.19459">
        <ele>215.320593</ele>
        <time>2022-08-01T09:11:55.491Z</time>
      </trkpt>
      <trkpt lat="44.34189" lon="1.19475">
        <ele>215.514402</ele>
        <time>2022-08-01T09:11:56.485Z</time>
      </trkpt>
      <trkpt lat="44.34189" lon="1.1949">
        <ele>215.711961</ele>
        <time>2022-08-01T09:11:57.483Z</time>
      </trkpt>
      <trkpt lat="44.34187" lon="1.19503">
        <ele>215.886365</ele>
        <time>2022-08-01T09:11:58.469Z</time>
      </trkpt>
      <trkpt lat="44.34184" lon="1.19517">
        <ele>216.069992</ele>
        <time>2022-08-01T09:11:59.525Z</time>
      </trkpt>
      <trkpt lat="44.3418" lon="1.19529">
        <ele>216.238894</ele>
        <time>2022-08-01T09:12:00.482Z</time>
      </trkpt>
      <trkpt lat="44.34176" lon="1.19541">
        <ele>216.409954</ele>
        <time>2022-08-01T09:12:01.469Z</time>
      </trkpt>
      <trkpt lat="44.34167" lon="1.19562">
        <ele>216.319986</ele>
        <time>2022-08-01T09:12:03.483Z</time>
      </trkpt>
      <trkpt lat="44.34157" lon="1.19581">
        <ele>216.056965</ele>
        <time>2022-08-01T09:12:05.526Z</time>
      </trkpt>
      <trkpt lat="44.34145" lon="1.196">
        <ele>215.779574</ele>
        <time>2022-08-01T09:12:07.497Z</time>
      </trkpt>
      <trkpt lat="44.34134" lon="1.19617">
        <ele>215.51703</ele>
        <time>2022-08-01T09:12:09.495Z</time>
      </trkpt>
      <trkpt lat="44.34124" lon="1.19634">
        <ele>215.265304</ele>
        <time>2022-08-01T09:12:11.518Z</time>
      </trkpt>
      <trkpt lat="44.34115" lon="1.19652">
        <ele>215.017882</ele>
        <time>2022-08-01T09:12:13.499Z</time>
      </trkpt>
      <trkpt lat="44.34106" lon="1.19669">
        <ele>214.779556</ele>
        <time>2022-08-01T09:12:15.496Z</time>
      </trkpt>
      <trkpt lat="44.34096" lon="1.19685">
        <ele>214.537922</ele>
        <time>2022-08-01T09:12:17.526Z</time>
      </trkpt>
      <trkpt lat="44.34088" lon="1.19701">
        <ele>214.325269</ele>
        <time>2022-08-01T09:12:19.490Z</time>
      </trkpt>
      <trkpt lat="44.34079" lon="1.19717">
        <ele>214.099725</ele>
        <time>2022-08-01T09:12:21.498Z</time>
      </trkpt>
      <trkpt lat="44.34071" lon="1.19734">
        <ele>213.866037</ele>
        <time>2022-08-01T09:12:23.520Z</time>
      </trkpt>
      <trkpt lat="44.3406" lon="1.19749">
        <ele>213.670941</ele>
        <time>2022-08-01T09:12:25.495Z</time>
      </trkpt>
      <trkpt lat="44.34051" lon="1.19765">
        <ele>213.647203</ele>
        <time>2022-08-01T09:12:27.489Z</time>
      </trkpt>
      <trkpt lat="44.34043" lon="1.1978">
        <ele>213.625172</ele>
        <time>2022-08-01T09:12:29.524Z</time>
      </trkpt>
      <trkpt lat="44.34035" lon="1.19795">
        <ele>213.602673</ele>
        <time>2022-08-01T09:12:31.486Z</time>
      </trkpt>
      <trkpt lat="44.34027" lon="1.1981">
        <ele>213.581697</ele>
        <time>2022-08-01T09:12:33.478Z</time>
      </trkpt>
      <trkpt lat="44.34019" lon="1.19826">
        <ele>213.559019</ele>
        <time>2022-08-01T09:12:35.498Z</time>
      </trkpt>
      <trkpt lat="44.34012" lon="1.19841">
        <ele>213.536996</ele>
        <time>2022-08-01T09:12:37.447Z</time>
      </trkpt>
      <trkpt lat="44.34002" lon="1.19857">
        <ele>213.512919</ele>
        <time>2022-08-01T09:12:39.496Z</time>
      </trkpt>
      <trkpt lat="44.33992" lon="1.19872">
        <ele>213.489097</ele>
        <time>2022-08-01T09:12:41.508Z</time>
      </trkpt>
      <trkpt lat="44.33984" lon="1.19886">
        <ele>213.467834</ele>
        <time>2022-08-01T09:12:43.491Z</time>
      </trkpt>
      <trkpt lat="44.33975" lon="1.19901">
        <ele>213.445309</ele>
        <time>2022-08-01T09:12:45.500Z</time>
      </trkpt>
      <trkpt lat="44.33966" lon="1.19916">
        <ele>213.423426</ele>
        <time>2022-08-01T09:12:47.508Z</time>
      </trkpt>
      <trkpt lat="44.33961" lon="1.19932">
        <ele>213.402244</ele>
        <time>2022-08-01T09:12:49.484Z</time>
      </trkpt>
      <trkpt lat="44.33957" lon="1.19949">
        <ele>213.393486</ele>
        <time>2022-08-01T09:12:51.480Z</time>
      </trkpt>
      <trkpt lat="44.33958" lon="1.19966">
        <ele>213.593054</ele>
        <time>2022-08-01T09:12:53.524Z</time>
      </trkpt>
      <trkpt lat="44.33963" lon="1.19982">
        <ele>213.794519</ele>
        <time>2022-08-01T09:12:55.479Z</time>
      </trkpt>
      <trkpt lat="44.33969" lon="1.19996">
        <ele>213.980797</ele>
        <time>2022-08-01T09:12:57.488Z</time>
      </trkpt>
      <trkpt lat="44.33978" lon="1.20009">
        <ele>214.187689</ele>
        <time>2022-08-01T09:12:59.510Z</time>
      </trkpt>
      <trkpt lat="44.33986" lon="1.20023">
        <ele>214.395903</ele>
        <time>2022-08-01T09:13:01.486Z</time>
      </trkpt>
      <trkpt lat="44.33994" lon="1.20036">
        <ele>214.588416</ele>
        <time>2022-08-01T09:13:03.518Z</time>
      </trkpt>
      <trkpt lat="44.34003" lon="1.20049">
        <ele>214.793738</ele>
        <time>2022-08-01T09:13:05.506Z</time>
      </trkpt>
      <trkpt lat="44.34012" lon="1.20062">
        <ele>215.003907</ele>
        <time>2022-08-01T09:13:07.471Z</time>
      </trkpt>
      <trkpt lat="44.3402" lon="1.20075">
        <ele>215.196519</ele>
        <time>2022-08-01T09:13:09.480Z</time>
      </trkpt>
      <trkpt lat="44.34027" lon="1.20089">
        <ele>215.398255</ele>
        <time>2022-08-01T09:13:11.525Z</time>
      </trkpt>
      <trkpt lat="44.34036" lon="1.20102">
        <ele>215.605956</ele>
        <time>2022-08-01T09:13:13.481Z</time>
      </trkpt>
      <trkpt lat="44.34045" lon="1.20116">
        <ele>215.815779</ele>
        <time>2022-08-01T09:13:15.495Z</time>
      </trkpt>
      <trkpt lat="44.34052" lon="1.20128">
        <ele>215.999522</ele>
        <time>2022-08-01T09:13:17.539Z</time>
      </trkpt>
      <trkpt lat="44.3406" lon="1.2014">
        <ele>216.18656</ele>
        <time>2022-08-01T09:13:19.492Z</time>
      </trkpt>
      <trkpt lat="44.34065" lon="1.20155">
        <ele>216.272077</ele>
        <time>2022-08-01T09:13:21.475Z</time>
      </trkpt>
      <trkpt lat="44.34065" lon="1.20171">
        <ele>216.28243</ele>
        <time>2022-08-01T09:13:23.484Z</time>
      </trkpt>
      <trkpt lat="44.34061" lon="1.20185">
        <ele>216.292679</ele>
        <time>2022-08-01T09:13:25.488Z</time>
      </trkpt>
      <trkpt lat="44.34055" lon="1.20196">
        <ele>216.301849</ele>
        <time>2022-08-01T09:13:27.499Z</time>
      </trkpt>
      <trkpt lat="44.34047" lon="1.2021">
        <ele>216.312828</ele>
        <time>2022-08-01T09:13:30.495Z</time>
      </trkpt>
      <trkpt lat="44.34051" lon="1.20226">
        <ele>216.324051</ele>
        <time>2022-08-01T09:13:33.476Z</time>
      </trkpt>
      <trkpt lat="44.34058" lon="1.20236">
        <ele>216.333432</ele>
        <time>2022-08-01T09:13:35.502Z</time>
      </trkpt>
      <trkpt lat="44.34066" lon="1.20247">
        <ele>216.343618</ele>
        <time>2022-08-01T09:13:37.485Z</time>
      </trkpt>
      <trkpt lat="44.34074" lon="1.20257">
        <ele>216.353623</ele>
        <time>2022-08-01T09:13:39.490Z</time>
      </trkpt>
      <trkpt lat="44.34082" lon="1.20269">
        <ele>216.364085</ele>
        <time>2022-08-01T09:13:41.526Z</time>
      </trkpt>
      <trkpt lat="44.3409" lon="1.20282">
        <ele>216.375072</ele>
        <time>2022-08-01T09:13:43.490Z</time>
      </trkpt>
      <trkpt lat="44.34095" lon="1.20295">
        <ele>216.38538</ele>
        <time>2022-08-01T09:13:45.497Z</time>
      </trkpt>
      <trkpt lat="44.34101" lon="1.20309">
        <ele>216.395706</ele>
        <time>2022-08-01T09:13:47.496Z</time>
      </trkpt>
      <trkpt lat="44.34107" lon="1.20322">
        <ele>216.406216</ele>
        <time>2022-08-01T09:13:49.483Z</time>
      </trkpt>
      <trkpt lat="44.34113" lon="1.20337">
        <ele>216.417011</ele>
        <time>2022-08-01T09:13:51.486Z</time>
      </trkpt>
      <trkpt lat="44.34117" lon="1.20352">
        <ele>216.42803</ele>
        <time>2022-08-01T09:13:53.516Z</time>
      </trkpt>
      <trkpt lat="44.34122" lon="1.20368">
        <ele>216.461496</ele>
        <time>2022-08-01T09:13:55.484Z</time>
      </trkpt>
      <trkpt lat="44.34127" lon="1.20383">
        <ele>216.500714</ele>
        <time>2022-08-01T09:13:57.487Z</time>
      </trkpt>
      <trkpt lat="44.34131" lon="1.20399">
        <ele>216.542019</ele>
        <time>2022-08-01T09:13:59.526Z</time>
      </trkpt>
      <trkpt lat="44.34136" lon="1.20415">
        <ele>216.582506</ele>
        <time>2022-08-01T09:14:01.489Z</time>
      </trkpt>
      <trkpt lat="44.34141" lon="1.2043">
        <ele>216.6223</ele>
        <time>2022-08-01T09:14:03.484Z</time>
      </trkpt>
      <trkpt lat="44.34146" lon="1.20446">
        <ele>216.663608</ele>
        <time>2022-08-01T09:14:05.515Z</time>
      </trkpt>
      <trkpt lat="44.34152" lon="1.2046">
        <ele>216.704328</ele>
        <time>2022-08-01T09:14:07.485Z</time>
      </trkpt>
      <trkpt lat="44.34158" lon="1.20476">
        <ele>216.746723</ele>
        <time>2022-08-01T09:14:09.473Z</time>
      </trkpt>
      <trkpt lat="44.34164" lon="1.20491">
        <ele>216.790165</ele>
        <time>2022-08-01T09:14:11.516Z</time>
      </trkpt>
      <trkpt lat="44.3417" lon="1.20508">
        <ele>216.834806</ele>
        <time>2022-08-01T09:14:13.480Z</time>
      </trkpt>
      <trkpt lat="44.34176" lon="1.20525">
        <ele>216.880977</ele>
        <time>2022-08-01T09:14:15.489Z</time>
      </trkpt>
      <trkpt lat="44.34182" lon="1.20542">
        <ele>216.925553</ele>
        <time>2022-08-01T09:14:17.511Z</time>
      </trkpt>
      <trkpt lat="44.34188" lon="1.20558">
        <ele>216.97108</ele>
        <time>2022-08-01T09:14:19.489Z</time>
      </trkpt>
      <trkpt lat="44.34193" lon="1.20575">
        <ele>217.013982</ele>
        <time>2022-08-01T09:14:21.473Z</time>
      </trkpt>
      <trkpt lat="44.342" lon="1.2059">
        <ele>217.111945</ele>
        <time>2022-08-01T09:14:23.493Z</time>
      </trkpt>
      <trkpt lat="44.34205" lon="1.20606">
        <ele>217.274059</ele>
        <time>2022-08-01T09:14:25.497Z</time>
      </trkpt>
      <trkpt lat="44.34211" lon="1.20623">
        <ele>217.438869</ele>
        <time>2022-08-01T09:14:27.469Z</time>
      </trkpt>
      <trkpt lat="44.34218" lon="1.20638">
        <ele>217.596931</ele>
        <time>2022-08-01T09:14:29.527Z</time>
      </trkpt>
      <trkpt lat="44.34226" lon="1.20653">
        <ele>217.770338</ele>
        <time>2022-08-01T09:14:31.483Z</time>
      </trkpt>
      <trkpt lat="44.34234" lon="1.20666">
        <ele>217.927162</ele>
        <time>2022-08-01T09:14:33.472Z</time>
      </trkpt>
      <trkpt lat="44.34244" lon="1.20681">
        <ele>218.112193</ele>
        <time>2022-08-01T09:14:35.474Z</time>
      </trkpt>
      <trkpt lat="44.34253" lon="1.20694">
        <ele>218.275464</ele>
        <time>2022-08-01T09:14:37.461Z</time>
      </trkpt>
      <trkpt lat="44.34261" lon="1.20709">
        <ele>218.440956</ele>
        <time>2022-08-01T09:14:39.484Z</time>
      </trkpt>
      <trkpt lat="44.3427" lon="1.20723">
        <ele>218.613834</ele>
        <time>2022-08-01T09:14:41.485Z</time>
      </trkpt>
      <trkpt lat="44.34278" lon="1.20737">
        <ele>218.779008</ele>
        <time>2022-08-01T09:14:43.490Z</time>
      </trkpt>
      <trkpt lat="44.34287" lon="1.20753">
        <ele>218.95154</ele>
        <time>2022-08-01T09:14:45.493Z</time>
      </trkpt>
      <trkpt lat="44.34295" lon="1.20767">
        <ele>219.12027</ele>
        <time>2022-08-01T09:14:47.483Z</time>
      </trkpt>
      <trkpt lat="44.34303" lon="1.2078">
        <ele>219.276283</ele>
        <time>2022-08-01T09:14:49.505Z</time>
      </trkpt>
      <trkpt lat="44.34311" lon="1.20794">
        <ele>219.244278</ele>
        <time>2022-08-01T09:14:51.481Z</time>
      </trkpt>
      <trkpt lat="44.34319" lon="1.20809">
        <ele>219.162874</ele>
        <time>2022-08-01T09:14:53.495Z</time>
      </trkpt>
      <trkpt lat="44.34328" lon="1.20824">
        <ele>219.082764</ele>
        <time>2022-08-01T09:14:55.492Z</time>
      </trkpt>
      <trkpt lat="44.34336" lon="1.20837">
        <ele>219.007339</ele>
        <time>2022-08-01T09:14:57.475Z</time>
      </trkpt>
      <trkpt lat="44.34344" lon="1.20851">
        <ele>218.927742</ele>
        <time>2022-08-01T09:14:59.473Z</time>
      </trkpt>
      <trkpt lat="44.34352" lon="1.20862">
        <ele>218.859325</ele>
        <time>2022-08-01T09:15:01.483Z</time>
      </trkpt>
      <trkpt lat="44.3436" lon="1.20874">
        <ele>218.790549</ele>
        <time>2022-08-01T09:15:03.482Z</time>
      </trkpt>
      <trkpt lat="44.34368" lon="1.20885">
        <ele>218.723326</ele>
        <time>2022-08-01T09:15:05.468Z</time>
      </trkpt>
      <trkpt lat="44.34378" lon="1.20897">
        <ele>218.643787</ele>
        <time>2022-08-01T09:15:08.498Z</time>
      </trkpt>
      <trkpt lat="44.34387" lon="1.209">
        <ele>218.587146</ele>
        <time>2022-08-01T09:15:10.509Z</time>
      </trkpt>
      <trkpt lat="44.34396" lon="1.20895">
        <ele>218.532089</ele>
        <time>2022-08-01T09:15:12.487Z</time>
      </trkpt>
      <trkpt lat="44.34406" lon="1.20883">
        <ele>218.450003</ele>
        <time>2022-08-01T09:15:14.479Z</time>
      </trkpt>
      <trkpt lat="44.34417" lon="1.20873">
        <ele>218.37023</ele>
        <time>2022-08-01T09:15:16.511Z</time>
      </trkpt>
      <trkpt lat="44.34428" lon="1.20862">
        <ele>218.289742</ele>
        <time>2022-08-01T09:15:18.468Z</time>
      </trkpt>
      <trkpt lat="44.3444" lon="1.2085">
        <ele>218.078344</ele>
        <time>2022-08-01T09:15:20.486Z</time>
      </trkpt>
      <trkpt lat="44.34451" lon="1.20838">
        <ele>217.53194</ele>
        <time>2022-08-01T09:15:22.522Z</time>
      </trkpt>
      <trkpt lat="44.34461" lon="1.20828">
        <ele>217.023881</ele>
        <time>2022-08-01T09:15:24.498Z</time>
      </trkpt>
      <trkpt lat="44.34473" lon="1.20817">
        <ele>216.450555</ele>
        <time>2022-08-01T09:15:26.490Z</time>
      </trkpt>
      <trkpt lat="44.34483" lon="1.20804">
        <ele>215.916349</ele>
        <time>2022-08-01T09:15:28.514Z</time>
      </trkpt>
      <trkpt lat="44.34494" lon="1.2079">
        <ele>215.309284</ele>
        <time>2022-08-01T09:15:30.473Z</time>
      </trkpt>
      <trkpt lat="44.34505" lon="1.20777">
        <ele>214.749101</ele>
        <time>2022-08-01T09:15:32.493Z</time>
      </trkpt>
      <trkpt lat="44.34517" lon="1.20766">
        <ele>214.200275</ele>
        <time>2022-08-01T09:15:34.520Z</time>
      </trkpt>
      <trkpt lat="44.34527" lon="1.20754">
        <ele>213.653874</ele>
        <time>2022-08-01T09:15:36.454Z</time>
      </trkpt>
      <trkpt lat="44.34538" lon="1.20746">
        <ele>213.189138</ele>
        <time>2022-08-01T09:15:38.478Z</time>
      </trkpt>
      <trkpt lat="44.34546" lon="1.20736">
        <ele>212.758634</ele>
        <time>2022-08-01T09:15:40.512Z</time>
      </trkpt>
      <trkpt lat="44.34555" lon="1.20725">
        <ele>212.295223</ele>
        <time>2022-08-01T09:15:42.497Z</time>
      </trkpt>
      <trkpt lat="44.34564" lon="1.20716">
        <ele>211.834336</ele>
        <time>2022-08-01T09:15:44.440Z</time>
      </trkpt>
      <trkpt lat="44.34574" lon="1.20706">
        <ele>211.349037</ele>
        <time>2022-08-01T09:15:46.461Z</time>
      </trkpt>
      <trkpt lat="44.34584" lon="1.20698">
        <ele>211.075255</ele>
        <time>2022-08-01T09:15:48.477Z</time>
      </trkpt>
      <trkpt lat="44.34596" lon="1.20692">
        <ele>211.067586</ele>
        <time>2022-08-01T09:15:50.468Z</time>
      </trkpt>
      <trkpt lat="44.34604" lon="1.20685">
        <ele>211.061062</ele>
        <time>2022-08-01T09:15:52.456Z</time>
      </trkpt>
      <trkpt lat="44.34614" lon="1.20677">
        <ele>211.054134</ele>
        <time>2022-08-01T09:15:54.462Z</time>
      </trkpt>
      <trkpt lat="44.34623" lon="1.20671">
        <ele>211.047343</ele>
        <time>2022-08-01T09:15:56.506Z</time>
      </trkpt>
      <trkpt lat="44.34636" lon="1.20665">
        <ele>211.039154</ele>
        <time>2022-08-01T09:15:58.464Z</time>
      </trkpt>
      <trkpt lat="44.34649" lon="1.20661">
        <ele>211.030473</ele>
        <time>2022-08-01T09:16:00.499Z</time>
      </trkpt>
      <trkpt lat="44.3466" lon="1.2066">
        <ele>211.023076</ele>
        <time>2022-08-01T09:16:02.481Z</time>
      </trkpt>
      <trkpt lat="44.34674" lon="1.20661">
        <ele>211.014725</ele>
        <time>2022-08-01T09:16:04.491Z</time>
      </trkpt>
      <trkpt lat="44.34685" lon="1.2066">
        <ele>211.007465</ele>
        <time>2022-08-01T09:16:06.489Z</time>
      </trkpt>
      <trkpt lat="44.34695" lon="1.20661">
        <ele>211.001029</ele>
        <time>2022-08-01T09:16:08.477Z</time>
      </trkpt>
      <trkpt lat="44.34706" lon="1.20661">
        <ele>210.994344</ele>
        <time>2022-08-01T09:16:10.489Z</time>
      </trkpt>
      <trkpt lat="44.34719" lon="1.20661">
        <ele>210.985494</ele>
        <time>2022-08-01T09:16:13.476Z</time>
      </trkpt>
      <trkpt lat="44.3473" lon="1.20661">
        <ele>210.978936</ele>
        <time>2022-08-01T09:16:15.524Z</time>
      </trkpt>
      <trkpt lat="44.34742" lon="1.20661">
        <ele>210.971105</ele>
        <time>2022-08-01T09:16:18.483Z</time>
      </trkpt>
      <trkpt lat="44.34753" lon="1.20664">
        <ele>210.963931</ele>
        <time>2022-08-01T09:16:21.521Z</time>
      </trkpt>
      <trkpt lat="44.34765" lon="1.20662">
        <ele>211.00134</ele>
        <time>2022-08-01T09:16:24.496Z</time>
      </trkpt>
      <trkpt lat="44.34776" lon="1.20659">
        <ele>211.037973</ele>
        <time>2022-08-01T09:16:27.500Z</time>
      </trkpt>
      <trkpt lat="44.34786" lon="1.20653">
        <ele>211.075016</ele>
        <time>2022-08-01T09:16:30.488Z</time>
      </trkpt>
      <trkpt lat="44.34796" lon="1.20643">
        <ele>211.11612</ele>
        <time>2022-08-01T09:16:33.503Z</time>
      </trkpt>
      <trkpt lat="44.34806" lon="1.20632">
        <ele>211.156455</ele>
        <time>2022-08-01T09:16:36.491Z</time>
      </trkpt>
      <trkpt lat="44.34814" lon="1.20621">
        <ele>211.194573</ele>
        <time>2022-08-01T09:16:39.551Z</time>
      </trkpt>
      <trkpt lat="44.34822" lon="1.20608">
        <ele>211.234097</ele>
        <time>2022-08-01T09:16:42.498Z</time>
      </trkpt>
      <trkpt lat="44.3483" lon="1.20595">
        <ele>211.273928</ele>
        <time>2022-08-01T09:16:45.520Z</time>
      </trkpt>
      <trkpt lat="44.34838" lon="1.20583">
        <ele>211.312877</ele>
        <time>2022-08-01T09:16:48.500Z</time>
      </trkpt>
      <trkpt lat="44.34847" lon="1.20571">
        <ele>211.352794</ele>
        <time>2022-08-01T09:16:51.519Z</time>
      </trkpt>
      <trkpt lat="44.34855" lon="1.20558">
        <ele>211.393105</ele>
        <time>2022-08-01T09:16:54.489Z</time>
      </trkpt>
      <trkpt lat="44.34864" lon="1.20546">
        <ele>211.43345</ele>
        <time>2022-08-01T09:16:57.530Z</time>
      </trkpt>
      <trkpt lat="44.34874" lon="1.20536">
        <ele>211.473382</ele>
        <time>2022-08-01T09:17:00.470Z</time>
      </trkpt>
      <trkpt lat="44.34883" lon="1.20526">
        <ele>211.512867</ele>
        <time>2022-08-01T09:17:03.522Z</time>
      </trkpt>
      <trkpt lat="44.34894" lon="1.20517">
        <ele>211.553072</ele>
        <time>2022-08-01T09:17:06.503Z</time>
      </trkpt>
      <trkpt lat="44.34905" lon="1.20509">
        <ele>211.796348</ele>
        <time>2022-08-01T09:17:09.529Z</time>
      </trkpt>
      <trkpt lat="44.34917" lon="1.205">
        <ele>212.04885</ele>
        <time>2022-08-01T09:17:12.480Z</time>
      </trkpt>
      <trkpt lat="44.34929" lon="1.20492">
        <ele>212.293394</ele>
        <time>2022-08-01T09:17:15.522Z</time>
      </trkpt>
      <trkpt lat="44.34937" lon="1.20486">
        <ele>212.463249</ele>
        <time>2022-08-01T09:17:17.490Z</time>
      </trkpt>
      <trkpt lat="44.34949" lon="1.20477">
        <ele>212.723974</ele>
        <time>2022-08-01T09:17:20.509Z</time>
      </trkpt>
      <trkpt lat="44.3496" lon="1.20468">
        <ele>212.969158</ele>
        <time>2022-08-01T09:17:23.505Z</time>
      </trkpt>
      <trkpt lat="44.34971" lon="1.20459">
        <ele>213.207397</ele>
        <time>2022-08-01T09:17:26.486Z</time>
      </trkpt>
      <trkpt lat="44.34979" lon="1.20453">
        <ele>213.386559</ele>
        <time>2022-08-01T09:17:28.494Z</time>
      </trkpt>
      <trkpt lat="44.3499" lon="1.20444">
        <ele>213.620112</ele>
        <time>2022-08-01T09:17:31.484Z</time>
      </trkpt>
      <trkpt lat="44.34999" lon="1.20427">
        <ele>213.898859</ele>
        <time>2022-08-01T09:17:34.464Z</time>
      </trkpt>
      <trkpt lat="44.35006" lon="1.20416">
        <ele>214.113403</ele>
        <time>2022-08-01T09:17:37.484Z</time>
      </trkpt>
      <trkpt lat="44.35015" lon="1.20405">
        <ele>214.330932</ele>
        <time>2022-08-01T09:17:40.487Z</time>
      </trkpt>
      <trkpt lat="44.35025" lon="1.20397">
        <ele>214.552979</ele>
        <time>2022-08-01T09:17:43.494Z</time>
      </trkpt>
      <trkpt lat="44.35033" lon="1.20386">
        <ele>214.764989</ele>
        <time>2022-08-01T09:17:46.489Z</time>
      </trkpt>
      <trkpt lat="44.35042" lon="1.20375">
        <ele>214.991206</ele>
        <time>2022-08-01T09:17:49.479Z</time>
      </trkpt>
      <trkpt lat="44.3505" lon="1.20364">
        <ele>215.314704</ele>
        <time>2022-08-01T09:17:52.470Z</time>
      </trkpt>
      <trkpt lat="44.35058" lon="1.20351">
        <ele>215.652211</ele>
        <time>2022-08-01T09:17:55.479Z</time>
      </trkpt>
      <trkpt lat="44.35066" lon="1.20338">
        <ele>215.989053</ele>
        <time>2022-08-01T09:17:58.461Z</time>
      </trkpt>
      <trkpt lat="44.35073" lon="1.20324">
        <ele>216.32139</ele>
        <time>2022-08-01T09:18:01.479Z</time>
      </trkpt>
      <trkpt lat="44.35079" lon="1.20311">
        <ele>216.645725</ele>
        <time>2022-08-01T09:18:04.468Z</time>
      </trkpt>
      <trkpt lat="44.35086" lon="1.20295">
        <ele>217.001044</ele>
        <time>2022-08-01T09:18:07.482Z</time>
      </trkpt>
      <trkpt lat="44.3509" lon="1.20279">
        <ele>217.339682</ele>
        <time>2022-08-01T09:18:10.491Z</time>
      </trkpt>
      <trkpt lat="44.35097" lon="1.20265">
        <ele>217.681275</ele>
        <time>2022-08-01T09:18:13.494Z</time>
      </trkpt>
      <trkpt lat="44.35104" lon="1.20249">
        <ele>218.049167</ele>
        <time>2022-08-01T09:18:16.494Z</time>
      </trkpt>
      <trkpt lat="44.35113" lon="1.20236">
        <ele>218.413863</ele>
        <time>2022-08-01T09:18:19.488Z</time>
      </trkpt>
      <trkpt lat="44.35123" lon="1.20223">
        <ele>218.779433</ele>
        <time>2022-08-01T09:18:22.511Z</time>
      </trkpt>
      <trkpt lat="44.35131" lon="1.2021">
        <ele>219.138389</ele>
        <time>2022-08-01T09:18:25.482Z</time>
      </trkpt>
      <trkpt lat="44.3514" lon="1.20197">
        <ele>219.47961</ele>
        <time>2022-08-01T09:18:28.498Z</time>
      </trkpt>
      <trkpt lat="44.35148" lon="1.20184">
        <ele>219.825246</ele>
        <time>2022-08-01T09:18:31.492Z</time>
      </trkpt>
      <trkpt lat="44.35156" lon="1.2017">
        <ele>220.124133</ele>
        <time>2022-08-01T09:18:34.472Z</time>
      </trkpt>
      <trkpt lat="44.35164" lon="1.20156">
        <ele>220.393832</ele>
        <time>2022-08-01T09:18:37.493Z</time>
      </trkpt>
      <trkpt lat="44.35172" lon="1.20143">
        <ele>220.648854</ele>
        <time>2022-08-01T09:18:40.489Z</time>
      </trkpt>
      <trkpt lat="44.3518" lon="1.2013">
        <ele>220.897073</ele>
        <time>2022-08-01T09:18:43.492Z</time>
      </trkpt>
      <trkpt lat="44.35189" lon="1.20119">
        <ele>221.14247</ele>
        <time>2022-08-01T09:18:46.494Z</time>
      </trkpt>
      <trkpt lat="44.35197" lon="1.20108">
        <ele>221.378045</ele>
        <time>2022-08-01T09:18:49.499Z</time>
      </trkpt>
      <trkpt lat="44.35205" lon="1.20095">
        <ele>221.634778</ele>
        <time>2022-08-01T09:18:52.477Z</time>
      </trkpt>
      <trkpt lat="44.35213" lon="1.20084">
        <ele>221.876074</ele>
        <time>2022-08-01T09:18:55.498Z</time>
      </trkpt>
      <trkpt lat="44.35221" lon="1.20072">
        <ele>222.111463</ele>
        <time>2022-08-01T09:18:58.491Z</time>
      </trkpt>
      <trkpt lat="44.35228" lon="1.20059">
        <ele>222.351336</ele>
        <time>2022-08-01T09:19:01.483Z</time>
      </trkpt>
      <trkpt lat="44.35235" lon="1.20047">
        <ele>222.577067</ele>
        <time>2022-08-01T09:19:04.481Z</time>
      </trkpt>
      <trkpt lat="44.3524" lon="1.20032">
        <ele>222.823259</ele>
        <time>2022-08-01T09:19:07.473Z</time>
      </trkpt>
      <trkpt lat="44.35245" lon="1.20016">
        <ele>223.084276</ele>
        <time>2022-08-01T09:19:10.474Z</time>
      </trkpt>
      <trkpt lat="44.35249" lon="1.19999">
        <ele>223.352577</ele>
        <time>2022-08-01T09:19:13.478Z</time>
      </trkpt>
      <trkpt lat="44.35252" lon="1.19981">
        <ele>223.625018</ele>
        <time>2022-08-01T09:19:16.458Z</time>
      </trkpt>
      <trkpt lat="44.35251" lon="1.19963">
        <ele>224.119995</ele>
        <time>2022-08-01T09:19:19.492Z</time>
      </trkpt>
      <trkpt lat="44.35247" lon="1.19951">
        <ele>224.507213</ele>
        <time>2022-08-01T09:19:21.500Z</time>
      </trkpt>
      <trkpt lat="44.35246" lon="1.19938">
        <ele>224.919367</ele>
        <time>2022-08-01T09:19:23.458Z</time>
      </trkpt>
      <trkpt lat="44.35246" lon="1.19919">
        <ele>225.470626</ele>
        <time>2022-08-01T09:19:26.483Z</time>
      </trkpt>
      <trkpt lat="44.35249" lon="1.19902">
        <ele>226.001015</ele>
        <time>2022-08-01T09:19:29.487Z</time>
      </trkpt>
      <trkpt lat="44.35255" lon="1.19888">
        <ele>226.477136</ele>
        <time>2022-08-01T09:19:32.466Z</time>
      </trkpt>
      <trkpt lat="44.35263" lon="1.19876">
        <ele>226.974847</ele>
        <time>2022-08-01T09:19:35.508Z</time>
      </trkpt>
      <trkpt lat="44.35272" lon="1.19863">
        <ele>227.504496</ele>
        <time>2022-08-01T09:19:38.495Z</time>
      </trkpt>
      <trkpt lat="44.35279" lon="1.1985">
        <ele>228.010153</ele>
        <time>2022-08-01T09:19:41.491Z</time>
      </trkpt>
      <trkpt lat="44.35288" lon="1.19838">
        <ele>228.533311</ele>
        <time>2022-08-01T09:19:44.483Z</time>
      </trkpt>
      <trkpt lat="44.35297" lon="1.19827">
        <ele>229.044876</ele>
        <time>2022-08-01T09:19:47.505Z</time>
      </trkpt>
      <trkpt lat="44.35306" lon="1.19815">
        <ele>229.566092</ele>
        <time>2022-08-01T09:19:50.483Z</time>
      </trkpt>
      <trkpt lat="44.35316" lon="1.19804">
        <ele>230.097768</ele>
        <time>2022-08-01T09:19:53.488Z</time>
      </trkpt>
      <trkpt lat="44.35327" lon="1.19794">
        <ele>230.637287</ele>
        <time>2022-08-01T09:19:56.481Z</time>
      </trkpt>
      <trkpt lat="44.35338" lon="1.19785">
        <ele>231.178951</ele>
        <time>2022-08-01T09:19:59.502Z</time>
      </trkpt>
      <trkpt lat="44.35349" lon="1.19775">
        <ele>231.354266</ele>
        <time>2022-08-01T09:20:02.480Z</time>
      </trkpt>
      <trkpt lat="44.3536" lon="1.19765">
        <ele>231.477107</ele>
        <time>2022-08-01T09:20:05.501Z</time>
      </trkpt>
      <trkpt lat="44.35371" lon="1.19755">
        <ele>231.605095</ele>
        <time>2022-08-01T09:20:08.493Z</time>
      </trkpt>
      <trkpt lat="44.35382" lon="1.19746">
        <ele>231.726603</ele>
        <time>2022-08-01T09:20:11.492Z</time>
      </trkpt>
      <trkpt lat="44.35393" lon="1.19739">
        <ele>231.845354</ele>
        <time>2022-08-01T09:20:14.486Z</time>
      </trkpt>
      <trkpt lat="44.35405" lon="1.19734">
        <ele>231.961787</ele>
        <time>2022-08-01T09:20:17.494Z</time>
      </trkpt>
      <trkpt lat="44.35415" lon="1.19731">
        <ele>232.064246</ele>
        <time>2022-08-01T09:20:20.491Z</time>
      </trkpt>
      <trkpt lat="44.35427" lon="1.1973">
        <ele>232.177979</ele>
        <time>2022-08-01T09:20:23.491Z</time>
      </trkpt>
      <trkpt lat="44.35439" lon="1.19729">
        <ele>232.291659</ele>
        <time>2022-08-01T09:20:26.481Z</time>
      </trkpt>
      <trkpt lat="44.35451" lon="1.19727">
        <ele>232.408654</ele>
        <time>2022-08-01T09:20:29.479Z</time>
      </trkpt>
      <trkpt lat="44.35462" lon="1.19721">
        <ele>232.526592</ele>
        <time>2022-08-01T09:20:32.496Z</time>
      </trkpt>
      <trkpt lat="44.35473" lon="1.1971">
        <ele>232.647859</ele>
        <time>2022-08-01T09:20:35.495Z</time>
      </trkpt>
      <trkpt lat="44.3548" lon="1.19697">
        <ele>232.764183</ele>
        <time>2022-08-01T09:20:38.494Z</time>
      </trkpt>
      <trkpt lat="44.35486" lon="1.19682">
        <ele>232.879402</ele>
        <time>2022-08-01T09:20:41.463Z</time>
      </trkpt>
      <trkpt lat="44.35492" lon="1.19666">
        <ele>232.941598</ele>
        <time>2022-08-01T09:20:44.488Z</time>
      </trkpt>
      <trkpt lat="44.35498" lon="1.19649">
        <ele>232.836643</ele>
        <time>2022-08-01T09:20:47.479Z</time>
      </trkpt>
      <trkpt lat="44.35503" lon="1.19632">
        <ele>232.731603</ele>
        <time>2022-08-01T09:20:50.491Z</time>
      </trkpt>
      <trkpt lat="44.35508" lon="1.19615">
        <ele>232.627672</ele>
        <time>2022-08-01T09:20:53.497Z</time>
      </trkpt>
      <trkpt lat="44.35513" lon="1.19599">
        <ele>232.529555</ele>
        <time>2022-08-01T09:20:56.476Z</time>
      </trkpt>
      <trkpt lat="44.35518" lon="1.19583">
        <ele>232.432367</ele>
        <time>2022-08-01T09:20:59.497Z</time>
      </trkpt>
      <trkpt lat="44.35524" lon="1.19568">
        <ele>232.332356</ele>
        <time>2022-08-01T09:21:02.483Z</time>
      </trkpt>
      <trkpt lat="44.35531" lon="1.19554">
        <ele>232.237176</ele>
        <time>2022-08-01T09:21:05.493Z</time>
      </trkpt>
      <trkpt lat="44.35538" lon="1.19538">
        <ele>232.134057</ele>
        <time>2022-08-01T09:21:08.486Z</time>
      </trkpt>
      <trkpt lat="44.35544" lon="1.19523">
        <ele>232.035234</ele>
        <time>2022-08-01T09:21:11.471Z</time>
      </trkpt>
      <trkpt lat="44.35551" lon="1.19508">
        <ele>231.937383</ele>
        <time>2022-08-01T09:21:14.488Z</time>
      </trkpt>
      <trkpt lat="44.35558" lon="1.19496">
        <ele>231.848518</ele>
        <time>2022-08-01T09:21:17.484Z</time>
      </trkpt>
      <trkpt lat="44.35565" lon="1.19486">
        <ele>231.768588</ele>
        <time>2022-08-01T09:21:20.501Z</time>
      </trkpt>
      <trkpt lat="44.35572" lon="1.19475">
        <ele>231.690146</ele>
        <time>2022-08-01T09:21:23.483Z</time>
      </trkpt>
      <trkpt lat="44.35579" lon="1.19464">
        <ele>231.607209</ele>
        <time>2022-08-01T09:21:26.477Z</time>
      </trkpt>
      <trkpt lat="44.35587" lon="1.19452">
        <ele>231.519686</ele>
        <time>2022-08-01T09:21:29.506Z</time>
      </trkpt>
      <trkpt lat="44.35593" lon="1.19444">
        <ele>231.457033</ele>
        <time>2022-08-01T09:21:31.485Z</time>
      </trkpt>
      <trkpt lat="44.356" lon="1.19435">
        <ele>231.393887</ele>
        <time>2022-08-01T09:21:33.506Z</time>
      </trkpt>
      <trkpt lat="44.35608" lon="1.19421">
        <ele>231.303554</ele>
        <time>2022-08-01T09:21:36.483Z</time>
      </trkpt>
      <trkpt lat="44.35617" lon="1.19408">
        <ele>231.213523</ele>
        <time>2022-08-01T09:21:39.510Z</time>
      </trkpt>
      <trkpt lat="44.35626" lon="1.19395">
        <ele>231.122869</ele>
        <time>2022-08-01T09:21:42.500Z</time>
      </trkpt>
      <trkpt lat="44.35634" lon="1.19386">
        <ele>231.05318</ele>
        <time>2022-08-01T09:21:44.492Z</time>
      </trkpt>
      <trkpt lat="44.35642" lon="1.19378">
        <ele>230.983836</ele>
        <time>2022-08-01T09:21:46.479Z</time>
      </trkpt>
      <trkpt lat="44.35648" lon="1.19369">
        <ele>230.920536</ele>
        <time>2022-08-01T09:21:48.474Z</time>
      </trkpt>
      <trkpt lat="44.35658" lon="1.19353">
        <ele>230.818451</ele>
        <time>2022-08-01T09:21:51.529Z</time>
      </trkpt>
      <trkpt lat="44.35664" lon="1.19339">
        <ele>230.733873</ele>
        <time>2022-08-01T09:21:54.481Z</time>
      </trkpt>
      <trkpt lat="44.35667" lon="1.19326">
        <ele>230.669927</ele>
        <time>2022-08-01T09:21:56.472Z</time>
      </trkpt>
      <trkpt lat="44.35671" lon="1.19314">
        <ele>230.605239</ele>
        <time>2022-08-01T09:21:58.484Z</time>
      </trkpt>
      <trkpt lat="44.35677" lon="1.19298">
        <ele>230.515348</ele>
        <time>2022-08-01T09:22:01.463Z</time>
      </trkpt>
      <trkpt lat="44.35683" lon="1.19284">
        <ele>230.431662</ele>
        <time>2022-08-01T09:22:04.478Z</time>
      </trkpt>
      <trkpt lat="44.35691" lon="1.19271">
        <ele>230.350826</ele>
        <time>2022-08-01T09:22:07.500Z</time>
      </trkpt>
      <trkpt lat="44.357" lon="1.1926">
        <ele>230.601685</ele>
        <time>2022-08-01T09:22:10.465Z</time>
      </trkpt>
      <trkpt lat="44.35711" lon="1.19252">
        <ele>231.242863</ele>
        <time>2022-08-01T09:22:13.478Z</time>
      </trkpt>
      <trkpt lat="44.35723" lon="1.19248">
        <ele>231.886712</ele>
        <time>2022-08-01T09:22:16.482Z</time>
      </trkpt>
      <trkpt lat="44.35736" lon="1.19245">
        <ele>232.544254</ele>
        <time>2022-08-01T09:22:19.490Z</time>
      </trkpt>
      <trkpt lat="44.35748" lon="1.19242">
        <ele>233.174801</ele>
        <time>2022-08-01T09:22:22.484Z</time>
      </trkpt>
      <trkpt lat="44.3576" lon="1.19238">
        <ele>233.776046</ele>
        <time>2022-08-01T09:22:25.496Z</time>
      </trkpt>
      <trkpt lat="44.35772" lon="1.19235">
        <ele>234.382989</ele>
        <time>2022-08-01T09:22:28.476Z</time>
      </trkpt>
      <trkpt lat="44.35781" lon="1.19227">
        <ele>234.961242</ele>
        <time>2022-08-01T09:22:31.483Z</time>
      </trkpt>
      <trkpt lat="44.3579" lon="1.19214">
        <ele>235.609831</ele>
        <time>2022-08-01T09:22:34.454Z</time>
      </trkpt>
      <trkpt lat="44.35795" lon="1.19202">
        <ele>236.102828</ele>
        <time>2022-08-01T09:22:36.470Z</time>
      </trkpt>
      <trkpt lat="44.35799" lon="1.19184">
        <ele>236.780734</ele>
        <time>2022-08-01T09:22:39.520Z</time>
      </trkpt>
      <trkpt lat="44.35802" lon="1.19166">
        <ele>237.451969</ele>
        <time>2022-08-01T09:22:42.477Z</time>
      </trkpt>
      <trkpt lat="44.35804" lon="1.19149">
        <ele>238.096267</ele>
        <time>2022-08-01T09:22:45.518Z</time>
      </trkpt>
      <trkpt lat="44.35808" lon="1.19133">
        <ele>238.719381</ele>
        <time>2022-08-01T09:22:48.496Z</time>
      </trkpt>
      <trkpt lat="44.35815" lon="1.19117">
        <ele>239.366453</ele>
        <time>2022-08-01T09:22:51.508Z</time>
      </trkpt>
      <trkpt lat="44.35824" lon="1.19105">
        <ele>239.394395</ele>
        <time>2022-08-01T09:22:54.483Z</time>
      </trkpt>
      <trkpt lat="44.35834" lon="1.19094">
        <ele>239.325439</ele>
        <time>2022-08-01T09:22:57.524Z</time>
      </trkpt>
      <trkpt lat="44.35844" lon="1.19085">
        <ele>239.256464</ele>
        <time>2022-08-01T09:23:00.460Z</time>
      </trkpt>
      <trkpt lat="44.35856" lon="1.19078">
        <ele>239.190169</ele>
        <time>2022-08-01T09:23:03.510Z</time>
      </trkpt>
      <trkpt lat="44.35867" lon="1.19072">
        <ele>239.124411</ele>
        <time>2022-08-01T09:23:06.492Z</time>
      </trkpt>
      <trkpt lat="44.3588" lon="1.1907">
        <ele>239.053775</ele>
        <time>2022-08-01T09:23:09.518Z</time>
      </trkpt>
      <trkpt lat="44.35889" lon="1.19073">
        <ele>239.003377</ele>
        <time>2022-08-01T09:23:11.495Z</time>
      </trkpt>
      <trkpt lat="44.35897" lon="1.19079">
        <ele>238.952936</ele>
        <time>2022-08-01T09:23:13.493Z</time>
      </trkpt>
      <trkpt lat="44.35904" lon="1.19088">
        <ele>238.902379</ele>
        <time>2022-08-01T09:23:15.534Z</time>
      </trkpt>
      <trkpt lat="44.3591" lon="1.19099">
        <ele>238.848743</ele>
        <time>2022-08-01T09:23:17.504Z</time>
      </trkpt>
      <trkpt lat="44.35917" lon="1.19114">
        <ele>238.777365</ele>
        <time>2022-08-01T09:23:20.467Z</time>
      </trkpt>
      <trkpt lat="44.35923" lon="1.19131">
        <ele>238.704581</ele>
        <time>2022-08-01T09:23:23.482Z</time>
      </trkpt>
      <trkpt lat="44.35931" lon="1.19146">
        <ele>238.632034</ele>
        <time>2022-08-01T09:23:26.478Z</time>
      </trkpt>
      <trkpt lat="44.35937" lon="1.19159">
        <ele>238.569984</ele>
        <time>2022-08-01T09:23:29.496Z</time>
      </trkpt>
      <trkpt lat="44.35944" lon="1.19171">
        <ele>238.50915</ele>
        <time>2022-08-01T09:23:32.484Z</time>
      </trkpt>
      <trkpt lat="44.35953" lon="1.1918">
        <ele>238.425006</ele>
        <time>2022-08-01T09:23:35.503Z</time>
      </trkpt>
      <trkpt lat="44.35962" lon="1.1919">
        <ele>238.297008</ele>
        <time>2022-08-01T09:23:38.497Z</time>
      </trkpt>
      <trkpt lat="44.35971" lon="1.19201">
        <ele>238.160031</ele>
        <time>2022-08-01T09:23:41.483Z</time>
      </trkpt>
      <trkpt lat="44.35975" lon="1.19217">
        <ele>238.021412</ele>
        <time>2022-08-01T09:23:44.487Z</time>
      </trkpt>
      <trkpt lat="44.35974" lon="1.19232">
        <ele>237.895639</ele>
        <time>2022-08-01T09:23:47.476Z</time>
      </trkpt>
      <trkpt lat="44.35968" lon="1.19245">
        <ele>237.775996</ele>
        <time>2022-08-01T09:23:50.484Z</time>
      </trkpt>
      <trkpt lat="44.35959" lon="1.19257">
        <ele>237.629414</ele>
        <time>2022-08-01T09:23:53.504Z</time>
      </trkpt>
      <trkpt lat="44.35953" lon="1.19271">
        <ele>237.49593</ele>
        <time>2022-08-01T09:23:56.473Z</time>
      </trkpt>
      <trkpt lat="44.35948" lon="1.19287">
        <ele>237.353798</ele>
        <time>2022-08-01T09:23:59.471Z</time>
      </trkpt>
      <trkpt lat="44.35946" lon="1.19303">
        <ele>237.223813</ele>
        <time>2022-08-01T09:24:02.495Z</time>
      </trkpt>
      <trkpt lat="44.35946" lon="1.19317">
        <ele>237.10688</ele>
        <time>2022-08-01T09:24:05.495Z</time>
      </trkpt>
      <trkpt lat="44.35947" lon="1.19334">
        <ele>236.97382</ele>
        <time>2022-08-01T09:24:08.489Z</time>
      </trkpt>
      <trkpt lat="44.35947" lon="1.19351">
        <ele>236.83431</ele>
        <time>2022-08-01T09:24:11.489Z</time>
      </trkpt>
      <trkpt lat="44.35948" lon="1.19369">
        <ele>236.687573</ele>
        <time>2022-08-01T09:24:14.475Z</time>
      </trkpt>
      <trkpt lat="44.35949" lon="1.19386">
        <ele>236.549522</ele>
        <time>2022-08-01T09:24:17.463Z</time>
      </trkpt>
      <trkpt lat="44.35951" lon="1.19402">
        <ele>236.526862</ele>
        <time>2022-08-01T09:24:20.487Z</time>
      </trkpt>
      <trkpt lat="44.35956" lon="1.19418">
        <ele>237.348452</ele>
        <time>2022-08-01T09:24:23.482Z</time>
      </trkpt>
      <trkpt lat="44.35967" lon="1.19428">
        <ele>238.218609</ele>
        <time>2022-08-01T09:24:26.489Z</time>
      </trkpt>
      <trkpt lat="44.35976" lon="1.19432">
        <ele>238.844892</ele>
        <time>2022-08-01T09:24:28.474Z</time>
      </trkpt>
      <trkpt lat="44.35985" lon="1.19435">
        <ele>239.465953</ele>
        <time>2022-08-01T09:24:30.479Z</time>
      </trkpt>
      <trkpt lat="44.35994" lon="1.19437">
        <ele>240.071084</ele>
        <time>2022-08-01T09:24:32.476Z</time>
      </trkpt>
      <trkpt lat="44.36005" lon="1.19439">
        <ele>240.870194</ele>
        <time>2022-08-01T09:24:35.469Z</time>
      </trkpt>
      <trkpt lat="44.36017" lon="1.1944">
        <ele>241.626123</ele>
        <time>2022-08-01T09:24:38.473Z</time>
      </trkpt>
      <trkpt lat="44.36028" lon="1.19442">
        <ele>242.397684</ele>
        <time>2022-08-01T09:24:41.483Z</time>
      </trkpt>
      <trkpt lat="44.36037" lon="1.19442">
        <ele>243.006424</ele>
        <time>2022-08-01T09:24:43.493Z</time>
      </trkpt>
      <trkpt lat="44.36047" lon="1.19442">
        <ele>243.660717</ele>
        <time>2022-08-01T09:24:45.517Z</time>
      </trkpt>
      <trkpt lat="44.36057" lon="1.19442">
        <ele>244.28836</ele>
        <time>2022-08-01T09:24:47.481Z</time>
      </trkpt>
      <trkpt lat="44.36066" lon="1.19442">
        <ele>244.916094</ele>
        <time>2022-08-01T09:24:49.491Z</time>
      </trkpt>
      <trkpt lat="44.36079" lon="1.1944">
        <ele>245.773652</ele>
        <time>2022-08-01T09:24:52.491Z</time>
      </trkpt>
      <trkpt lat="44.36091" lon="1.19439">
        <ele>246.617149</ele>
        <time>2022-08-01T09:24:55.484Z</time>
      </trkpt>
      <trkpt lat="44.36103" lon="1.19437">
        <ele>247.403521</ele>
        <time>2022-08-01T09:24:58.493Z</time>
      </trkpt>
      <trkpt lat="44.36114" lon="1.19436">
        <ele>248.159163</ele>
        <time>2022-08-01T09:25:01.493Z</time>
      </trkpt>
      <trkpt lat="44.36125" lon="1.19436">
        <ele>248.485109</ele>
        <time>2022-08-01T09:25:04.496Z</time>
      </trkpt>
      <trkpt lat="44.36137" lon="1.19437">
        <ele>248.558972</ele>
        <time>2022-08-01T09:25:07.490Z</time>
      </trkpt>
      <trkpt lat="44.3615" lon="1.19436">
        <ele>248.640396</ele>
        <time>2022-08-01T09:25:10.489Z</time>
      </trkpt>
      <trkpt lat="44.36162" lon="1.1943">
        <ele>248.719506</ele>
        <time>2022-08-01T09:25:13.489Z</time>
      </trkpt>
      <trkpt lat="44.36173" lon="1.1942">
        <ele>248.79895</ele>
        <time>2022-08-01T09:25:16.493Z</time>
      </trkpt>
      <trkpt lat="44.36182" lon="1.19407">
        <ele>248.881057</ele>
        <time>2022-08-01T09:25:19.489Z</time>
      </trkpt>
      <trkpt lat="44.36189" lon="1.19392">
        <ele>248.960729</ele>
        <time>2022-08-01T09:25:22.469Z</time>
      </trkpt>
      <trkpt lat="44.36196" lon="1.19377">
        <ele>249.040389</ele>
        <time>2022-08-01T09:25:25.482Z</time>
      </trkpt>
      <trkpt lat="44.36204" lon="1.19363">
        <ele>249.119342</ele>
        <time>2022-08-01T09:25:28.479Z</time>
      </trkpt>
      <trkpt lat="44.36212" lon="1.1935">
        <ele>249.197801</ele>
        <time>2022-08-01T09:25:31.484Z</time>
      </trkpt>
      <trkpt lat="44.36221" lon="1.19337">
        <ele>249.279677</ele>
        <time>2022-08-01T09:25:34.463Z</time>
      </trkpt>
      <trkpt lat="44.36229" lon="1.1933">
        <ele>249.337636</ele>
        <time>2022-08-01T09:25:36.479Z</time>
      </trkpt>
      <trkpt lat="44.36241" lon="1.19322">
        <ele>249.419327</ele>
        <time>2022-08-01T09:25:39.524Z</time>
      </trkpt>
      <trkpt lat="44.36252" lon="1.19314">
        <ele>249.497179</ele>
        <time>2022-08-01T09:25:42.491Z</time>
      </trkpt>
      <trkpt lat="44.36263" lon="1.19306">
        <ele>249.548012</ele>
        <time>2022-08-01T09:25:45.514Z</time>
      </trkpt>
      <trkpt lat="44.36273" lon="1.19297">
        <ele>249.333751</ele>
        <time>2022-08-01T09:25:48.474Z</time>
      </trkpt>
      <trkpt lat="44.36283" lon="1.19286">
        <ele>249.116504</ele>
        <time>2022-08-01T09:25:51.521Z</time>
      </trkpt>
      <trkpt lat="44.36292" lon="1.19275">
        <ele>248.902528</ele>
        <time>2022-08-01T09:25:54.476Z</time>
      </trkpt>
      <trkpt lat="44.36301" lon="1.19264">
        <ele>248.6936</ele>
        <time>2022-08-01T09:25:57.510Z</time>
      </trkpt>
      <trkpt lat="44.36311" lon="1.19252">
        <ele>248.475047</ele>
        <time>2022-08-01T09:26:00.494Z</time>
      </trkpt>
      <trkpt lat="44.3632" lon="1.19241">
        <ele>248.261869</ele>
        <time>2022-08-01T09:26:03.510Z</time>
      </trkpt>
      <trkpt lat="44.36328" lon="1.19229">
        <ele>248.06282</ele>
        <time>2022-08-01T09:26:06.500Z</time>
      </trkpt>
      <trkpt lat="44.36333" lon="1.19214">
        <ele>247.852071</ele>
        <time>2022-08-01T09:26:09.523Z</time>
      </trkpt>
      <trkpt lat="44.36337" lon="1.19197">
        <ele>247.636233</ele>
        <time>2022-08-01T09:26:12.491Z</time>
      </trkpt>
      <trkpt lat="44.36338" lon="1.1918">
        <ele>247.423106</ele>
        <time>2022-08-01T09:26:15.517Z</time>
      </trkpt>
      <trkpt lat="44.3634" lon="1.19163">
        <ele>247.209531</ele>
        <time>2022-08-01T09:26:18.490Z</time>
      </trkpt>
      <trkpt lat="44.36344" lon="1.19148">
        <ele>247.010323</ele>
        <time>2022-08-01T09:26:21.520Z</time>
      </trkpt>
      <trkpt lat="44.36351" lon="1.19135">
        <ele>246.808035</ele>
        <time>2022-08-01T09:26:24.497Z</time>
      </trkpt>
      <trkpt lat="44.36359" lon="1.19122">
        <ele>246.602978</ele>
        <time>2022-08-01T09:26:27.510Z</time>
      </trkpt>
      <trkpt lat="44.36367" lon="1.1911">
        <ele>246.765004</ele>
        <time>2022-08-01T09:26:30.488Z</time>
      </trkpt>
      <trkpt lat="44.36375" lon="1.19098">
        <ele>247.947854</ele>
        <time>2022-08-01T09:26:33.522Z</time>
      </trkpt>
      <trkpt lat="44.36382" lon="1.19086">
        <ele>249.104218</ele>
        <time>2022-08-01T09:26:36.497Z</time>
      </trkpt>
      <trkpt lat="44.3639" lon="1.19073">
        <ele>250.268001</ele>
        <time>2022-08-01T09:26:39.512Z</time>
      </trkpt>
      <trkpt lat="44.36398" lon="1.1906">
        <ele>251.496262</ele>
        <time>2022-08-01T09:26:42.509Z</time>
      </trkpt>
      <trkpt lat="44.36405" lon="1.19047">
        <ele>252.705177</ele>
        <time>2022-08-01T09:26:45.514Z</time>
      </trkpt>
      <trkpt lat="44.36413" lon="1.19035">
        <ele>253.870079</ele>
        <time>2022-08-01T09:26:48.490Z</time>
      </trkpt>
      <trkpt lat="44.36421" lon="1.19023">
        <ele>255.049566</ele>
        <time>2022-08-01T09:26:51.525Z</time>
      </trkpt>
      <trkpt lat="44.36429" lon="1.19012">
        <ele>256.21586</ele>
        <time>2022-08-01T09:26:54.481Z</time>
      </trkpt>
      <trkpt lat="44.36438" lon="1.19001">
        <ele>257.436401</ele>
        <time>2022-08-01T09:26:57.500Z</time>
      </trkpt>
      <trkpt lat="44.36447" lon="1.18989">
        <ele>258.603698</ele>
        <time>2022-08-01T09:27:00.492Z</time>
      </trkpt>
      <trkpt lat="44.36456" lon="1.18977">
        <ele>259.880815</ele>
        <time>2022-08-01T09:27:03.504Z</time>
      </trkpt>
      <trkpt lat="44.36462" lon="1.18967">
        <ele>260.827437</ele>
        <time>2022-08-01T09:27:05.487Z</time>
      </trkpt>
      <trkpt lat="44.36469" lon="1.18957">
        <ele>261.876862</ele>
        <time>2022-08-01T09:27:07.465Z</time>
      </trkpt>
      <trkpt lat="44.36477" lon="1.18948">
        <ele>262.839853</ele>
        <time>2022-08-01T09:27:09.512Z</time>
      </trkpt>
      <trkpt lat="44.36485" lon="1.18939">
        <ele>263.925185</ele>
        <time>2022-08-01T09:27:11.465Z</time>
      </trkpt>
      <trkpt lat="44.36495" lon="1.18933">
        <ele>264.811717</ele>
        <time>2022-08-01T09:27:13.492Z</time>
      </trkpt>
      <trkpt lat="44.36506" lon="1.18929">
        <ele>265.452639</ele>
        <time>2022-08-01T09:27:15.518Z</time>
      </trkpt>
      <trkpt lat="44.36517" lon="1.18922">
        <ele>266.098567</ele>
        <time>2022-08-01T09:27:17.486Z</time>
      </trkpt>
      <trkpt lat="44.36529" lon="1.18916">
        <ele>266.810138</ele>
        <time>2022-08-01T09:27:19.481Z</time>
      </trkpt>
      <trkpt lat="44.3654" lon="1.18911">
        <ele>267.465443</ele>
        <time>2022-08-01T09:27:21.513Z</time>
      </trkpt>
      <trkpt lat="44.36553" lon="1.18906">
        <ele>268.202541</ele>
        <time>2022-08-01T09:27:23.509Z</time>
      </trkpt>
      <trkpt lat="44.36566" lon="1.18901">
        <ele>268.969685</ele>
        <time>2022-08-01T09:27:25.468Z</time>
      </trkpt>
      <trkpt lat="44.36579" lon="1.18896">
        <ele>269.704513</ele>
        <time>2022-08-01T09:27:27.519Z</time>
      </trkpt>
      <trkpt lat="44.36592" lon="1.18891">
        <ele>270.460889</ele>
        <time>2022-08-01T09:27:29.486Z</time>
      </trkpt>
      <trkpt lat="44.36605" lon="1.18885">
        <ele>271.222318</ele>
        <time>2022-08-01T09:27:31.496Z</time>
      </trkpt>
      <trkpt lat="44.36618" lon="1.18879">
        <ele>271.993605</ele>
        <time>2022-08-01T09:27:33.523Z</time>
      </trkpt>
      <trkpt lat="44.36632" lon="1.18874">
        <ele>272.754054</ele>
        <time>2022-08-01T09:27:35.499Z</time>
      </trkpt>
      <trkpt lat="44.36644" lon="1.18866">
        <ele>273.522439</ele>
        <time>2022-08-01T09:27:37.500Z</time>
      </trkpt>
      <trkpt lat="44.36656" lon="1.1886">
        <ele>274.245802</ele>
        <time>2022-08-01T09:27:39.500Z</time>
      </trkpt>
      <trkpt lat="44.36669" lon="1.18856">
        <ele>275.333817</ele>
        <time>2022-08-01T09:27:41.476Z</time>
      </trkpt>
      <trkpt lat="44.36682" lon="1.18851">
        <ele>276.758679</ele>
        <time>2022-08-01T09:27:43.464Z</time>
      </trkpt>
      <trkpt lat="44.36693" lon="1.18846">
        <ele>277.947461</ele>
        <time>2022-08-01T09:27:45.520Z</time>
      </trkpt>
      <trkpt lat="44.36703" lon="1.18841">
        <ele>279.097247</ele>
        <time>2022-08-01T09:27:47.492Z</time>
      </trkpt>
      <trkpt lat="44.36716" lon="1.18839">
        <ele>280.51136</ele>
        <time>2022-08-01T09:27:49.479Z</time>
      </trkpt>
      <trkpt lat="44.3673" lon="1.18837">
        <ele>281.956384</ele>
        <time>2022-08-01T09:27:51.511Z</time>
      </trkpt>
      <trkpt lat="44.36743" lon="1.18837">
        <ele>283.353853</ele>
        <time>2022-08-01T09:27:53.479Z</time>
      </trkpt>
      <trkpt lat="44.36757" lon="1.1884">
        <ele>284.843815</ele>
        <time>2022-08-01T09:27:55.482Z</time>
      </trkpt>
      <trkpt lat="44.36771" lon="1.18842">
        <ele>286.385069</ele>
        <time>2022-08-01T09:27:57.519Z</time>
      </trkpt>
      <trkpt lat="44.36786" lon="1.18845">
        <ele>287.964618</ele>
        <time>2022-08-01T09:27:59.500Z</time>
      </trkpt>
      <trkpt lat="44.36803" lon="1.18845">
        <ele>289.721413</ele>
        <time>2022-08-01T09:28:01.471Z</time>
      </trkpt>
      <trkpt lat="44.36817" lon="1.1885">
        <ele>291.251961</ele>
        <time>2022-08-01T09:28:03.529Z</time>
      </trkpt>
      <trkpt lat="44.3683" lon="1.18852">
        <ele>292.64829</ele>
        <time>2022-08-01T09:28:05.478Z</time>
      </trkpt>
      <trkpt lat="44.36844" lon="1.18854">
        <ele>293.634849</ele>
        <time>2022-08-01T09:28:07.464Z</time>
      </trkpt>
      <trkpt lat="44.36858" lon="1.18857">
        <ele>293.744595</ele>
        <time>2022-08-01T09:28:09.521Z</time>
      </trkpt>
      <trkpt lat="44.36871" lon="1.18861">
        <ele>293.84967</ele>
        <time>2022-08-01T09:28:11.473Z</time>
      </trkpt>
      <trkpt lat="44.36882" lon="1.18872">
        <ele>293.951448</ele>
        <time>2022-08-01T09:28:13.494Z</time>
      </trkpt>
      <trkpt lat="44.3689" lon="1.18887">
        <ele>294.054891</ele>
        <time>2022-08-01T09:28:15.518Z</time>
      </trkpt>
      <trkpt lat="44.36894" lon="1.18907">
        <ele>294.175345</ele>
        <time>2022-08-01T09:28:17.493Z</time>
      </trkpt>
      <trkpt lat="44.36897" lon="1.18929">
        <ele>294.299037</ele>
        <time>2022-08-01T09:28:19.487Z</time>
      </trkpt>
      <trkpt lat="44.36899" lon="1.18952">
        <ele>294.426888</ele>
        <time>2022-08-01T09:28:21.503Z</time>
      </trkpt>
      <trkpt lat="44.36903" lon="1.18973">
        <ele>294.548425</ele>
        <time>2022-08-01T09:28:23.478Z</time>
      </trkpt>
      <trkpt lat="44.36907" lon="1.18992">
        <ele>294.664115</ele>
        <time>2022-08-01T09:28:25.510Z</time>
      </trkpt>
      <trkpt lat="44.36911" lon="1.19014">
        <ele>294.790168</ele>
        <time>2022-08-01T09:28:27.517Z</time>
      </trkpt>
      <trkpt lat="44.36915" lon="1.19034">
        <ele>294.906715</ele>
        <time>2022-08-01T09:28:29.486Z</time>
      </trkpt>
      <trkpt lat="44.36919" lon="1.19053">
        <ele>295.014004</ele>
        <time>2022-08-01T09:28:31.480Z</time>
      </trkpt>
      <trkpt lat="44.36923" lon="1.1907">
        <ele>295.102492</ele>
        <time>2022-08-01T09:28:33.523Z</time>
      </trkpt>
      <trkpt lat="44.36929" lon="1.19087">
        <ele>295.193033</ele>
        <time>2022-08-01T09:28:35.494Z</time>
      </trkpt>
      <trkpt lat="44.36936" lon="1.19101">
        <ele>295.279246</ele>
        <time>2022-08-01T09:28:37.471Z</time>
      </trkpt>
      <trkpt lat="44.36949" lon="1.19113">
        <ele>295.384809</ele>
        <time>2022-08-01T09:28:39.509Z</time>
      </trkpt>
      <trkpt lat="44.36963" lon="1.19118">
        <ele>295.483817</ele>
        <time>2022-08-01T09:28:41.477Z</time>
      </trkpt>
      <trkpt lat="44.36977" lon="1.1912">
        <ele>295.578853</ele>
        <time>2022-08-01T09:28:43.483Z</time>
      </trkpt>
      <trkpt lat="44.36989" lon="1.1912">
        <ele>295.663305</ele>
        <time>2022-08-01T09:28:45.525Z</time>
      </trkpt>
      <trkpt lat="44.37001" lon="1.19118">
        <ele>295.745401</ele>
        <time>2022-08-01T09:28:47.491Z</time>
      </trkpt>
      <trkpt lat="44.37011" lon="1.19117">
        <ele>295.816473</ele>
        <time>2022-08-01T09:28:49.484Z</time>
      </trkpt>
      <trkpt lat="44.37021" lon="1.19117">
        <ele>295.88442</ele>
        <time>2022-08-01T09:28:51.502Z</time>
      </trkpt>
      <trkpt lat="44.37032" lon="1.19117">
        <ele>295.958543</ele>
        <time>2022-08-01T09:28:53.495Z</time>
      </trkpt>
      <trkpt lat="44.37042" lon="1.19117">
        <ele>296.02719</ele>
        <time>2022-08-01T09:28:55.460Z</time>
      </trkpt>
      <trkpt lat="44.37052" lon="1.19118">
        <ele>296.09942</ele>
        <time>2022-08-01T09:28:57.507Z</time>
      </trkpt>
      <trkpt lat="44.37062" lon="1.19119">
        <ele>296.166895</ele>
        <time>2022-08-01T09:28:59.483Z</time>
      </trkpt>
      <trkpt lat="44.37073" lon="1.19119">
        <ele>296.246778</ele>
        <time>2022-08-01T09:29:01.510Z</time>
      </trkpt>
      <trkpt lat="44.37082" lon="1.19121">
        <ele>296.354014</ele>
        <time>2022-08-01T09:29:03.500Z</time>
      </trkpt>
      <trkpt lat="44.37092" lon="1.19123">
        <ele>296.478097</ele>
        <time>2022-08-01T09:29:05.469Z</time>
      </trkpt>
      <trkpt lat="44.37103" lon="1.19124">
        <ele>296.601515</ele>
        <time>2022-08-01T09:29:07.506Z</time>
      </trkpt>
      <trkpt lat="44.37114" lon="1.19126">
        <ele>296.730771</ele>
        <time>2022-08-01T09:29:09.522Z</time>
      </trkpt>
      <trkpt lat="44.37126" lon="1.19131">
        <ele>296.87719</ele>
        <time>2022-08-01T09:29:11.477Z</time>
      </trkpt>
      <trkpt lat="44.37135" lon="1.19132">
        <ele>296.9854</ele>
        <time>2022-08-01T09:29:13.476Z</time>
      </trkpt>
      <trkpt lat="44.37145" lon="1.19133">
        <ele>297.105024</ele>
        <time>2022-08-01T09:29:15.539Z</time>
      </trkpt>
      <trkpt lat="44.37156" lon="1.19132">
        <ele>297.235375</ele>
        <time>2022-08-01T09:29:17.485Z</time>
      </trkpt>
      <trkpt lat="44.37167" lon="1.19131">
        <ele>297.369325</ele>
        <time>2022-08-01T09:29:19.496Z</time>
      </trkpt>
      <trkpt lat="44.37178" lon="1.19127">
        <ele>297.503456</ele>
        <time>2022-08-01T09:29:21.511Z</time>
      </trkpt>
      <trkpt lat="44.37189" lon="1.19121">
        <ele>297.63752</ele>
        <time>2022-08-01T09:29:23.476Z</time>
      </trkpt>
      <trkpt lat="44.37199" lon="1.19115">
        <ele>297.768308</ele>
        <time>2022-08-01T09:29:25.467Z</time>
      </trkpt>
      <trkpt lat="44.37208" lon="1.19109">
        <ele>297.888662</ele>
        <time>2022-08-01T09:29:27.508Z</time>
      </trkpt>
      <trkpt lat="44.37219" lon="1.19101">
        <ele>298.029985</ele>
        <time>2022-08-01T09:29:29.486Z</time>
      </trkpt>
      <trkpt lat="44.37229" lon="1.19094">
        <ele>298.161393</ele>
        <time>2022-08-01T09:29:31.479Z</time>
      </trkpt>
      <trkpt lat="44.3724" lon="1.19085">
        <ele>298.311293</ele>
        <time>2022-08-01T09:29:33.519Z</time>
      </trkpt>
      <trkpt lat="44.37249" lon="1.19077">
        <ele>298.453215</ele>
        <time>2022-08-01T09:29:35.491Z</time>
      </trkpt>
      <trkpt lat="44.37259" lon="1.19066">
        <ele>298.610117</ele>
        <time>2022-08-01T09:29:37.483Z</time>
      </trkpt>
      <trkpt lat="44.37268" lon="1.19056">
        <ele>298.766248</ele>
        <time>2022-08-01T09:29:39.528Z</time>
      </trkpt>
      <trkpt lat="44.37278" lon="1.19041">
        <ele>298.952806</ele>
        <time>2022-08-01T09:29:41.492Z</time>
      </trkpt>
      <trkpt lat="44.37285" lon="1.19029">
        <ele>299.094759</ele>
        <time>2022-08-01T09:29:43.467Z</time>
      </trkpt>
      <trkpt lat="44.37291" lon="1.19017">
        <ele>299.235973</ele>
        <time>2022-08-01T09:29:45.507Z</time>
      </trkpt>
      <trkpt lat="44.37298" lon="1.19006">
        <ele>299.370657</ele>
        <time>2022-08-01T09:29:47.479Z</time>
      </trkpt>
      <trkpt lat="44.37304" lon="1.18992">
        <ele>299.51787</ele>
        <time>2022-08-01T09:29:49.496Z</time>
      </trkpt>
      <trkpt lat="44.37311" lon="1.1898">
        <ele>299.659783</ele>
        <time>2022-08-01T09:29:51.516Z</time>
      </trkpt>
      <trkpt lat="44.37317" lon="1.18967">
        <ele>299.805508</ele>
        <time>2022-08-01T09:29:53.492Z</time>
      </trkpt>
      <trkpt lat="44.37324" lon="1.18953">
        <ele>299.957273</ele>
        <time>2022-08-01T09:29:55.482Z</time>
      </trkpt>
      <trkpt lat="44.37331" lon="1.18938">
        <ele>300.123382</ele>
        <time>2022-08-01T09:29:57.518Z</time>
      </trkpt>
      <trkpt lat="44.37335" lon="1.18925">
        <ele>300.258426</ele>
        <time>2022-08-01T09:29:59.490Z</time>
      </trkpt>
      <trkpt lat="44.3734" lon="1.1891">
        <ele>300.403128</ele>
        <time>2022-08-01T09:30:01.483Z</time>
      </trkpt>
      <trkpt lat="44.37346" lon="1.18896">
        <ele>300.554579</ele>
        <time>2022-08-01T09:30:03.518Z</time>
      </trkpt>
      <trkpt lat="44.37351" lon="1.18883">
        <ele>300.666033</ele>
        <time>2022-08-01T09:30:05.482Z</time>
      </trkpt>
      <trkpt lat="44.37356" lon="1.18867">
        <ele>300.498088</ele>
        <time>2022-08-01T09:30:07.492Z</time>
      </trkpt>
      <trkpt lat="44.37363" lon="1.18855">
        <ele>300.340116</ele>
        <time>2022-08-01T09:30:09.512Z</time>
      </trkpt>
      <trkpt lat="44.37372" lon="1.18843">
        <ele>300.169705</ele>
        <time>2022-08-01T09:30:11.480Z</time>
      </trkpt>
      <trkpt lat="44.37383" lon="1.18837">
        <ele>300.013986</ele>
        <time>2022-08-01T09:30:13.478Z</time>
      </trkpt>
      <trkpt lat="44.37397" lon="1.18836">
        <ele>299.808584</ele>
        <time>2022-08-01T09:30:15.504Z</time>
      </trkpt>
      <trkpt lat="44.37412" lon="1.18839">
        <ele>299.604907</ele>
        <time>2022-08-01T09:30:17.486Z</time>
      </trkpt>
      <trkpt lat="44.37428" lon="1.18845">
        <ele>299.377458</ele>
        <time>2022-08-01T09:30:19.484Z</time>
      </trkpt>
      <trkpt lat="44.37444" lon="1.18848">
        <ele>299.154132</ele>
        <time>2022-08-01T09:30:21.510Z</time>
      </trkpt>
      <trkpt lat="44.37463" lon="1.18846">
        <ele>298.8948</ele>
        <time>2022-08-01T09:30:23.486Z</time>
      </trkpt>
      <trkpt lat="44.37472" lon="1.18846">
        <ele>298.764443</ele>
        <time>2022-08-01T09:30:24.492Z</time>
      </trkpt>
      <trkpt lat="44.37481" lon="1.18843">
        <ele>298.634522</ele>
        <time>2022-08-01T09:30:25.471Z</time>
      </trkpt>
      <trkpt lat="44.3749" lon="1.18842">
        <ele>298.505244</ele>
        <time>2022-08-01T09:30:26.488Z</time>
      </trkpt>
      <trkpt lat="44.375" lon="1.18839">
        <ele>298.367062</ele>
        <time>2022-08-01T09:30:27.507Z</time>
      </trkpt>
      <trkpt lat="44.37509" lon="1.18836">
        <ele>298.237867</ele>
        <time>2022-08-01T09:30:28.470Z</time>
      </trkpt>
      <trkpt lat="44.3752" lon="1.18834">
        <ele>297.847456</ele>
        <time>2022-08-01T09:30:29.489Z</time>
      </trkpt>
      <trkpt lat="44.3753" lon="1.18831">
        <ele>297.39449</ele>
        <time>2022-08-01T09:30:30.487Z</time>
      </trkpt>
      <trkpt lat="44.37539" lon="1.18828">
        <ele>296.970292</ele>
        <time>2022-08-01T09:30:31.460Z</time>
      </trkpt>
      <trkpt lat="44.37549" lon="1.18825">
        <ele>296.520985</ele>
        <time>2022-08-01T09:30:32.497Z</time>
      </trkpt>
      <trkpt lat="44.37559" lon="1.1882">
        <ele>296.006154</ele>
        <time>2022-08-01T09:30:33.524Z</time>
      </trkpt>
      <trkpt lat="44.37567" lon="1.18813">
        <ele>295.578469</ele>
        <time>2022-08-01T09:30:34.456Z</time>
      </trkpt>
      <trkpt lat="44.37576" lon="1.18803">
        <ele>295.06168</ele>
        <time>2022-08-01T09:30:35.477Z</time>
      </trkpt>
      <trkpt lat="44.37584" lon="1.18794">
        <ele>294.602707</ele>
        <time>2022-08-01T09:30:36.479Z</time>
      </trkpt>
      <trkpt lat="44.37594" lon="1.18787">
        <ele>294.109582</ele>
        <time>2022-08-01T09:30:37.470Z</time>
      </trkpt>
      <trkpt lat="44.37601" lon="1.18778">
        <ele>293.678595</ele>
        <time>2022-08-01T09:30:38.483Z</time>
      </trkpt>
      <trkpt lat="44.37609" lon="1.18767">
        <ele>293.146264</ele>
        <time>2022-08-01T09:30:39.533Z</time>
      </trkpt>
      <trkpt lat="44.37624" lon="1.18747">
        <ele>292.22002</ele>
        <time>2022-08-01T09:30:41.484Z</time>
      </trkpt>
      <trkpt lat="44.37634" lon="1.18739">
        <ele>291.697113</ele>
        <time>2022-08-01T09:30:42.484Z</time>
      </trkpt>
      <trkpt lat="44.37643" lon="1.18731">
        <ele>291.210838</ele>
        <time>2022-08-01T09:30:43.503Z</time>
      </trkpt>
      <trkpt lat="44.37653" lon="1.18725">
        <ele>290.708293</ele>
        <time>2022-08-01T09:30:44.483Z</time>
      </trkpt>
      <trkpt lat="44.37663" lon="1.18717">
        <ele>290.182031</ele>
        <time>2022-08-01T09:30:45.523Z</time>
      </trkpt>
      <trkpt lat="44.37673" lon="1.1871">
        <ele>289.937269</ele>
        <time>2022-08-01T09:30:46.488Z</time>
      </trkpt>
      <trkpt lat="44.37684" lon="1.18704">
        <ele>289.820014</ele>
        <time>2022-08-01T09:30:47.459Z</time>
      </trkpt>
      <trkpt lat="44.37695" lon="1.18697">
        <ele>289.693442</ele>
        <time>2022-08-01T09:30:48.483Z</time>
      </trkpt>
      <trkpt lat="44.37706" lon="1.18688">
        <ele>289.567499</ele>
        <time>2022-08-01T09:30:49.490Z</time>
      </trkpt>
      <trkpt lat="44.37715" lon="1.1868">
        <ele>289.45434</ele>
        <time>2022-08-01T09:30:50.464Z</time>
      </trkpt>
      <trkpt lat="44.37724" lon="1.18671">
        <ele>289.340429</ele>
        <time>2022-08-01T09:30:51.504Z</time>
      </trkpt>
      <trkpt lat="44.37733" lon="1.18661">
        <ele>289.219594</ele>
        <time>2022-08-01T09:30:52.496Z</time>
      </trkpt>
      <trkpt lat="44.37742" lon="1.1865">
        <ele>289.102749</ele>
        <time>2022-08-01T09:30:53.479Z</time>
      </trkpt>
      <trkpt lat="44.3775" lon="1.1864">
        <ele>288.98543</ele>
        <time>2022-08-01T09:30:54.471Z</time>
      </trkpt>
      <trkpt lat="44.37759" lon="1.18629">
        <ele>288.865739</ele>
        <time>2022-08-01T09:30:55.485Z</time>
      </trkpt>
      <trkpt lat="44.37766" lon="1.18617">
        <ele>288.752251</ele>
        <time>2022-08-01T09:30:56.493Z</time>
      </trkpt>
      <trkpt lat="44.37774" lon="1.18606">
        <ele>288.630965</ele>
        <time>2022-08-01T09:30:57.513Z</time>
      </trkpt>
      <trkpt lat="44.37782" lon="1.18594">
        <ele>288.514783</ele>
        <time>2022-08-01T09:30:58.472Z</time>
      </trkpt>
      <trkpt lat="44.3779" lon="1.18581">
        <ele>288.389423</ele>
        <time>2022-08-01T09:30:59.483Z</time>
      </trkpt>
      <trkpt lat="44.37797" lon="1.18567">
        <ele>288.263696</ele>
        <time>2022-08-01T09:31:00.488Z</time>
      </trkpt>
      <trkpt lat="44.37804" lon="1.18553">
        <ele>288.007463</ele>
        <time>2022-08-01T09:31:01.488Z</time>
      </trkpt>
      <trkpt lat="44.37809" lon="1.18538">
        <ele>287.348399</ele>
        <time>2022-08-01T09:31:02.491Z</time>
      </trkpt>
      <trkpt lat="44.37815" lon="1.18523">
        <ele>286.655164</ele>
        <time>2022-08-01T09:31:03.521Z</time>
      </trkpt>
      <trkpt lat="44.37819" lon="1.18509">
        <ele>286.016196</ele>
        <time>2022-08-01T09:31:04.473Z</time>
      </trkpt>
      <trkpt lat="44.37822" lon="1.18494">
        <ele>285.398374</ele>
        <time>2022-08-01T09:31:05.493Z</time>
      </trkpt>
      <trkpt lat="44.37826" lon="1.18479">
        <ele>284.753697</ele>
        <time>2022-08-01T09:31:06.490Z</time>
      </trkpt>
      <trkpt lat="44.3783" lon="1.18465">
        <ele>284.127452</ele>
        <time>2022-08-01T09:31:07.480Z</time>
      </trkpt>
      <trkpt lat="44.37835" lon="1.1845">
        <ele>283.482333</ele>
        <time>2022-08-01T09:31:08.472Z</time>
      </trkpt>
      <trkpt lat="44.37837" lon="1.18436">
        <ele>282.875816</ele>
        <time>2022-08-01T09:31:09.511Z</time>
      </trkpt>
      <trkpt lat="44.37839" lon="1.18421">
        <ele>282.246669</ele>
        <time>2022-08-01T09:31:10.488Z</time>
      </trkpt>
      <trkpt lat="44.37843" lon="1.18406">
        <ele>281.605333</ele>
        <time>2022-08-01T09:31:11.491Z</time>
      </trkpt>
      <trkpt lat="44.37847" lon="1.18391">
        <ele>280.950992</ele>
        <time>2022-08-01T09:31:12.503Z</time>
      </trkpt>
      <trkpt lat="44.37851" lon="1.18374">
        <ele>280.237898</ele>
        <time>2022-08-01T09:31:13.493Z</time>
      </trkpt>
      <trkpt lat="44.37853" lon="1.18359">
        <ele>279.605079</ele>
        <time>2022-08-01T09:31:14.494Z</time>
      </trkpt>
      <trkpt lat="44.37854" lon="1.18342">
        <ele>278.92403</ele>
        <time>2022-08-01T09:31:15.512Z</time>
      </trkpt>
      <trkpt lat="44.37854" lon="1.18323">
        <ele>278.140609</ele>
        <time>2022-08-01T09:31:16.480Z</time>
      </trkpt>
      <trkpt lat="44.37856" lon="1.18307">
        <ele>277.486495</ele>
        <time>2022-08-01T09:31:17.481Z</time>
      </trkpt>
      <trkpt lat="44.37859" lon="1.18292">
        <ele>276.901937</ele>
        <time>2022-08-01T09:31:18.477Z</time>
      </trkpt>
      <trkpt lat="44.37865" lon="1.18279">
        <ele>276.299319</ele>
        <time>2022-08-01T09:31:19.476Z</time>
      </trkpt>
      <trkpt lat="44.37874" lon="1.18266">
        <ele>275.618559</ele>
        <time>2022-08-01T09:31:20.478Z</time>
      </trkpt>
      <trkpt lat="44.37882" lon="1.18256">
        <ele>275.037057</ele>
        <time>2022-08-01T09:31:21.523Z</time>
      </trkpt>
      <trkpt lat="44.37891" lon="1.18247">
        <ele>274.47237</ele>
        <time>2022-08-01T09:31:22.461Z</time>
      </trkpt>
      <trkpt lat="44.379" lon="1.1824">
        <ele>273.907261</ele>
        <time>2022-08-01T09:31:23.470Z</time>
      </trkpt>
      <trkpt lat="44.3791" lon="1.18234">
        <ele>273.289869</ele>
        <time>2022-08-01T09:31:24.465Z</time>
      </trkpt>
      <trkpt lat="44.37922" lon="1.18229">
        <ele>272.649717</ele>
        <time>2022-08-01T09:31:25.468Z</time>
      </trkpt>
      <trkpt lat="44.37932" lon="1.18225">
        <ele>272.061015</ele>
        <time>2022-08-01T09:31:26.477Z</time>
      </trkpt>
      <trkpt lat="44.37943" lon="1.18222">
        <ele>271.457921</ele>
        <time>2022-08-01T09:31:27.495Z</time>
      </trkpt>
      <trkpt lat="44.37955" lon="1.18219">
        <ele>270.851869</ele>
        <time>2022-08-01T09:31:28.469Z</time>
      </trkpt>
      <trkpt lat="44.37966" lon="1.18216">
        <ele>270.230019</ele>
        <time>2022-08-01T09:31:29.459Z</time>
      </trkpt>
      <trkpt lat="44.37977" lon="1.18214">
        <ele>269.626484</ele>
        <time>2022-08-01T09:31:30.484Z</time>
      </trkpt>
      <trkpt lat="44.37987" lon="1.18214">
        <ele>269.090347</ele>
        <time>2022-08-01T09:31:31.469Z</time>
      </trkpt>
      <trkpt lat="44.37998" lon="1.18216">
        <ele>268.509238</ele>
        <time>2022-08-01T09:31:32.474Z</time>
      </trkpt>
      <trkpt lat="44.38008" lon="1.18218">
        <ele>268.712787</ele>
        <time>2022-08-01T09:31:33.509Z</time>
      </trkpt>
      <trkpt lat="44.38018" lon="1.18222">
        <ele>269.576835</ele>
        <time>2022-08-01T09:31:34.469Z</time>
      </trkpt>
      <trkpt lat="44.38029" lon="1.18227">
        <ele>270.477739</ele>
        <time>2022-08-01T09:31:35.496Z</time>
      </trkpt>
      <trkpt lat="44.38039" lon="1.18233">
        <ele>271.313994</ele>
        <time>2022-08-01T09:31:36.463Z</time>
      </trkpt>
      <trkpt lat="44.38047" lon="1.18242">
        <ele>272.154918</ele>
        <time>2022-08-01T09:31:37.483Z</time>
      </trkpt>
      <trkpt lat="44.38057" lon="1.18248">
        <ele>273.006244</ele>
        <time>2022-08-01T09:31:38.488Z</time>
      </trkpt>
      <trkpt lat="44.38066" lon="1.18256">
        <ele>273.851607</ele>
        <time>2022-08-01T09:31:39.499Z</time>
      </trkpt>
      <trkpt lat="44.38076" lon="1.18262">
        <ele>274.707031</ele>
        <time>2022-08-01T09:31:40.450Z</time>
      </trkpt>
      <trkpt lat="44.38085" lon="1.18265">
        <ele>275.459677</ele>
        <time>2022-08-01T09:31:41.472Z</time>
      </trkpt>
      <trkpt lat="44.38097" lon="1.18266">
        <ele>276.391977</ele>
        <time>2022-08-01T09:31:42.480Z</time>
      </trkpt>
      <trkpt lat="44.38109" lon="1.18265">
        <ele>277.332972</ele>
        <time>2022-08-01T09:31:43.470Z</time>
      </trkpt>
      <trkpt lat="44.3812" lon="1.18261">
        <ele>278.220102</ele>
        <time>2022-08-01T09:31:44.484Z</time>
      </trkpt>
      <trkpt lat="44.3813" lon="1.18256">
        <ele>279.076019</ele>
        <time>2022-08-01T09:31:45.518Z</time>
      </trkpt>
      <trkpt lat="44.3814" lon="1.1825">
        <ele>279.961227</ele>
        <time>2022-08-01T09:31:46.458Z</time>
      </trkpt>
      <trkpt lat="44.38149" lon="1.18245">
        <ele>280.75569</ele>
        <time>2022-08-01T09:31:47.484Z</time>
      </trkpt>
      <trkpt lat="44.38158" lon="1.1824">
        <ele>281.52587</ele>
        <time>2022-08-01T09:31:48.476Z</time>
      </trkpt>
      <trkpt lat="44.38168" lon="1.18234">
        <ele>282.333179</ele>
        <time>2022-08-01T09:31:49.493Z</time>
      </trkpt>
      <trkpt lat="44.38177" lon="1.18229">
        <ele>282.735434</ele>
        <time>2022-08-01T09:31:50.490Z</time>
      </trkpt>
      <trkpt lat="44.38185" lon="1.18223">
        <ele>282.951406</ele>
        <time>2022-08-01T09:31:51.473Z</time>
      </trkpt>
      <trkpt lat="44.38193" lon="1.18218">
        <ele>283.164894</ele>
        <time>2022-08-01T09:31:52.489Z</time>
      </trkpt>
      <trkpt lat="44.38201" lon="1.18212">
        <ele>283.390595</ele>
        <time>2022-08-01T09:31:53.470Z</time>
      </trkpt>
      <trkpt lat="44.38216" lon="1.182">
        <ele>283.790888</ele>
        <time>2022-08-01T09:31:55.473Z</time>
      </trkpt>
      <trkpt lat="44.38227" lon="1.18187">
        <ele>284.14266</ele>
        <time>2022-08-01T09:31:57.477Z</time>
      </trkpt>
      <trkpt lat="44.38237" lon="1.18176">
        <ele>284.446377</ele>
        <time>2022-08-01T09:31:59.491Z</time>
      </trkpt>
      <trkpt lat="44.38247" lon="1.18166">
        <ele>284.724212</ele>
        <time>2022-08-01T09:32:01.489Z</time>
      </trkpt>
      <trkpt lat="44.38255" lon="1.18158">
        <ele>284.962066</ele>
        <time>2022-08-01T09:32:03.484Z</time>
      </trkpt>
      <trkpt lat="44.38263" lon="1.18149">
        <ele>285.216463</ele>
        <time>2022-08-01T09:32:05.501Z</time>
      </trkpt>
      <trkpt lat="44.3827" lon="1.1814">
        <ele>285.438112</ele>
        <time>2022-08-01T09:32:07.491Z</time>
      </trkpt>
      <trkpt lat="44.38281" lon="1.18129">
        <ele>285.755382</ele>
        <time>2022-08-01T09:32:10.491Z</time>
      </trkpt>
      <trkpt lat="44.38288" lon="1.18119">
        <ele>285.992703</ele>
        <time>2022-08-01T09:32:13.445Z</time>
      </trkpt>
      <trkpt lat="44.38295" lon="1.18109">
        <ele>286.242238</ele>
        <time>2022-08-01T09:32:16.465Z</time>
      </trkpt>
      <trkpt lat="44.38304" lon="1.18098">
        <ele>286.516316</ele>
        <time>2022-08-01T09:32:19.469Z</time>
      </trkpt>
      <trkpt lat="44.38312" lon="1.18087">
        <ele>286.788971</ele>
        <time>2022-08-01T09:32:22.486Z</time>
      </trkpt>
      <trkpt lat="44.38321" lon="1.18078">
        <ele>287.68839</ele>
        <time>2022-08-01T09:32:25.478Z</time>
      </trkpt>
      <trkpt lat="44.38328" lon="1.18068">
        <ele>288.658561</ele>
        <time>2022-08-01T09:32:28.477Z</time>
      </trkpt>
      <trkpt lat="44.38334" lon="1.18056">
        <ele>289.73195</ele>
        <time>2022-08-01T09:32:31.483Z</time>
      </trkpt>
      <trkpt lat="44.3834" lon="1.18045">
        <ele>290.76511</ele>
        <time>2022-08-01T09:32:34.476Z</time>
      </trkpt>
      <trkpt lat="44.38346" lon="1.18033">
        <ele>291.785145</ele>
        <time>2022-08-01T09:32:37.496Z</time>
      </trkpt>
      <trkpt lat="44.38354" lon="1.18022">
        <ele>292.92288</ele>
        <time>2022-08-01T09:32:40.482Z</time>
      </trkpt>
      <trkpt lat="44.38361" lon="1.18012">
        <ele>293.874285</ele>
        <time>2022-08-01T09:32:43.486Z</time>
      </trkpt>
      <trkpt lat="44.38367" lon="1.18002">
        <ele>294.892615</ele>
        <time>2022-08-01T09:32:46.496Z</time>
      </trkpt>
      <trkpt lat="44.38373" lon="1.17992">
        <ele>295.795289</ele>
        <time>2022-08-01T09:32:49.489Z</time>
      </trkpt>
      <trkpt lat="44.3838" lon="1.17983">
        <ele>296.767204</ele>
        <time>2022-08-01T09:32:52.481Z</time>
      </trkpt>
      <trkpt lat="44.38387" lon="1.17972">
        <ele>297.819447</ele>
        <time>2022-08-01T09:32:55.497Z</time>
      </trkpt>
      <trkpt lat="44.38395" lon="1.17961">
        <ele>298.883543</ele>
        <time>2022-08-01T09:32:58.489Z</time>
      </trkpt>
      <trkpt lat="44.38403" lon="1.17952">
        <ele>299.938629</ele>
        <time>2022-08-01T09:33:01.478Z</time>
      </trkpt>
      <trkpt lat="44.3841" lon="1.17943">
        <ele>300.970808</ele>
        <time>2022-08-01T09:33:04.494Z</time>
      </trkpt>
      <trkpt lat="44.38418" lon="1.17933">
        <ele>302.037292</ele>
        <time>2022-08-01T09:33:07.486Z</time>
      </trkpt>
      <trkpt lat="44.38426" lon="1.17922">
        <ele>303.170146</ele>
        <time>2022-08-01T09:33:10.481Z</time>
      </trkpt>
      <trkpt lat="44.38434" lon="1.17912">
        <ele>304.258701</ele>
        <time>2022-08-01T09:33:13.450Z</time>
      </trkpt>
      <trkpt lat="44.38442" lon="1.17901">
        <ele>304.94736</ele>
        <time>2022-08-01T09:33:16.477Z</time>
      </trkpt>
      <trkpt lat="44.38451" lon="1.17892">
        <ele>304.821787</ele>
        <time>2022-08-01T09:33:19.474Z</time>
      </trkpt>
      <trkpt lat="44.3846" lon="1.17883">
        <ele>304.695277</ele>
        <time>2022-08-01T09:33:22.501Z</time>
      </trkpt>
      <trkpt lat="44.3847" lon="1.17874">
        <ele>304.567831</ele>
        <time>2022-08-01T09:33:25.499Z</time>
      </trkpt>
      <trkpt lat="44.38479" lon="1.17867">
        <ele>304.445309</ele>
        <time>2022-08-01T09:33:28.483Z</time>
      </trkpt>
      <trkpt lat="44.38487" lon="1.17859">
        <ele>304.333534</ele>
        <time>2022-08-01T09:33:31.502Z</time>
      </trkpt>
      <trkpt lat="44.38495" lon="1.17853">
        <ele>304.228471</ele>
        <time>2022-08-01T09:33:34.470Z</time>
      </trkpt>
      <trkpt lat="44.38504" lon="1.17846">
        <ele>304.122667</ele>
        <time>2022-08-01T09:33:37.491Z</time>
      </trkpt>
      <trkpt lat="44.38511" lon="1.17839">
        <ele>304.020627</ele>
        <time>2022-08-01T09:33:40.510Z</time>
      </trkpt>
      <trkpt lat="44.38519" lon="1.17832">
        <ele>303.913441</ele>
        <time>2022-08-01T09:33:43.480Z</time>
      </trkpt>
      <trkpt lat="44.38527" lon="1.17825">
        <ele>303.80327</ele>
        <time>2022-08-01T09:33:46.504Z</time>
      </trkpt>
      <trkpt lat="44.38535" lon="1.17817">
        <ele>303.697976</ele>
        <time>2022-08-01T09:33:49.495Z</time>
      </trkpt>
      <trkpt lat="44.38543" lon="1.17806">
        <ele>303.56668</ele>
        <time>2022-08-01T09:33:53.483Z</time>
      </trkpt>
      <trkpt lat="44.38552" lon="1.17802">
        <ele>303.459433</ele>
        <time>2022-08-01T09:33:56.498Z</time>
      </trkpt>
      <trkpt lat="44.38562" lon="1.17801">
        <ele>303.354607</ele>
        <time>2022-08-01T09:33:59.475Z</time>
      </trkpt>
      <trkpt lat="44.38571" lon="1.17804">
        <ele>303.244863</ele>
        <time>2022-08-01T09:34:02.516Z</time>
      </trkpt>
      <trkpt lat="44.38582" lon="1.17809">
        <ele>303.118244</ele>
        <time>2022-08-01T09:34:05.490Z</time>
      </trkpt>
      <trkpt lat="44.38593" lon="1.17811">
        <ele>302.994028</ele>
        <time>2022-08-01T09:34:08.522Z</time>
      </trkpt>
      <trkpt lat="44.38603" lon="1.1781">
        <ele>303.106184</ele>
        <time>2022-08-01T09:34:11.476Z</time>
      </trkpt>
      <trkpt lat="44.38614" lon="1.17806">
        <ele>303.31622</ele>
        <time>2022-08-01T09:34:14.521Z</time>
      </trkpt>
      <trkpt lat="44.38624" lon="1.17804">
        <ele>303.527973</ele>
        <time>2022-08-01T09:34:17.484Z</time>
      </trkpt>
      <trkpt lat="44.38636" lon="1.17803">
        <ele>303.753041</ele>
        <time>2022-08-01T09:34:20.498Z</time>
      </trkpt>
      <trkpt lat="44.38647" lon="1.17805">
        <ele>303.965116</ele>
        <time>2022-08-01T09:34:23.493Z</time>
      </trkpt>
      <trkpt lat="44.38656" lon="1.17807">
        <ele>304.145115</ele>
        <time>2022-08-01T09:34:26.527Z</time>
      </trkpt>
      <trkpt lat="44.38666" lon="1.17806">
        <ele>304.34662</ele>
        <time>2022-08-01T09:34:29.490Z</time>
      </trkpt>
      <trkpt lat="44.38676" lon="1.17803">
        <ele>304.555001</ele>
        <time>2022-08-01T09:34:32.487Z</time>
      </trkpt>
      <trkpt lat="44.38686" lon="1.17797">
        <ele>304.757473</ele>
        <time>2022-08-01T09:34:35.480Z</time>
      </trkpt>
      <trkpt lat="44.38695" lon="1.17789">
        <ele>304.962162</ele>
        <time>2022-08-01T09:34:38.507Z</time>
      </trkpt>
      <trkpt lat="44.38703" lon="1.17781">
        <ele>305.155894</ele>
        <time>2022-08-01T09:34:41.478Z</time>
      </trkpt>
      <trkpt lat="44.38711" lon="1.17773">
        <ele>305.349627</ele>
        <time>2022-08-01T09:34:44.516Z</time>
      </trkpt>
      <trkpt lat="44.38719" lon="1.17764">
        <ele>305.55169</ele>
        <time>2022-08-01T09:34:47.477Z</time>
      </trkpt>
      <trkpt lat="44.38727" lon="1.17753">
        <ele>305.769396</ele>
        <time>2022-08-01T09:34:50.510Z</time>
      </trkpt>
      <trkpt lat="44.38737" lon="1.17743">
        <ele>306.007226</ele>
        <time>2022-08-01T09:34:53.475Z</time>
      </trkpt>
      <trkpt lat="44.38747" lon="1.17733">
        <ele>306.246632</ele>
        <time>2022-08-01T09:34:56.520Z</time>
      </trkpt>
      <trkpt lat="44.38756" lon="1.17723">
        <ele>306.474305</ele>
        <time>2022-08-01T09:34:59.489Z</time>
      </trkpt>
      <trkpt lat="44.38765" lon="1.17712">
        <ele>306.558747</ele>
        <time>2022-08-01T09:35:02.504Z</time>
      </trkpt>
      <trkpt lat="44.38774" lon="1.17702">
        <ele>306.644906</ele>
        <time>2022-08-01T09:35:05.499Z</time>
      </trkpt>
      <trkpt lat="44.38783" lon="1.17692">
        <ele>306.72758</ele>
        <time>2022-08-01T09:35:08.516Z</time>
      </trkpt>
      <trkpt lat="44.38792" lon="1.17684">
        <ele>306.806588</ele>
        <time>2022-08-01T09:35:11.482Z</time>
      </trkpt>
      <trkpt lat="44.38801" lon="1.17675">
        <ele>306.885236</ele>
        <time>2022-08-01T09:35:14.484Z</time>
      </trkpt>
      <trkpt lat="44.38811" lon="1.17665">
        <ele>306.970418</ele>
        <time>2022-08-01T09:35:17.492Z</time>
      </trkpt>
      <trkpt lat="44.38821" lon="1.17656">
        <ele>307.059441</ele>
        <time>2022-08-01T09:35:20.524Z</time>
      </trkpt>
      <trkpt lat="44.38831" lon="1.17646">
        <ele>307.145797</ele>
        <time>2022-08-01T09:35:23.489Z</time>
      </trkpt>
      <trkpt lat="44.3884" lon="1.17637">
        <ele>307.228606</ele>
        <time>2022-08-01T09:35:26.508Z</time>
      </trkpt>
      <trkpt lat="44.3885" lon="1.17629">
        <ele>307.309184</ele>
        <time>2022-08-01T09:35:29.464Z</time>
      </trkpt>
      <trkpt lat="44.38858" lon="1.1762">
        <ele>307.386049</ele>
        <time>2022-08-01T09:35:32.508Z</time>
      </trkpt>
      <trkpt lat="44.38867" lon="1.17612">
        <ele>307.46184</ele>
        <time>2022-08-01T09:35:35.484Z</time>
      </trkpt>
      <trkpt lat="44.38875" lon="1.17602">
        <ele>307.541722</ele>
        <time>2022-08-01T09:35:38.500Z</time>
      </trkpt>
      <trkpt lat="44.38883" lon="1.17592">
        <ele>307.616923</ele>
        <time>2022-08-01T09:35:41.471Z</time>
      </trkpt>
      <trkpt lat="44.38889" lon="1.1758">
        <ele>307.694415</ele>
        <time>2022-08-01T09:35:44.531Z</time>
      </trkpt>
      <trkpt lat="44.38895" lon="1.17566">
        <ele>307.780131</ele>
        <time>2022-08-01T09:35:47.484Z</time>
      </trkpt>
      <trkpt lat="44.38902" lon="1.17552">
        <ele>307.979559</ele>
        <time>2022-08-01T09:35:50.521Z</time>
      </trkpt>
      <trkpt lat="44.38909" lon="1.17537">
        <ele>308.196219</ele>
        <time>2022-08-01T09:35:53.465Z</time>
      </trkpt>
      <trkpt lat="44.38917" lon="1.17522">
        <ele>308.416788</ele>
        <time>2022-08-01T09:35:56.519Z</time>
      </trkpt>
      <trkpt lat="44.38922" lon="1.17511">
        <ele>308.564516</ele>
        <time>2022-08-01T09:35:58.491Z</time>
      </trkpt>
      <trkpt lat="44.38927" lon="1.175">
        <ele>308.722084</ele>
        <time>2022-08-01T09:36:00.476Z</time>
      </trkpt>
      <trkpt lat="44.38934" lon="1.17483">
        <ele>308.950457</ele>
        <time>2022-08-01T09:36:03.471Z</time>
      </trkpt>
      <trkpt lat="44.38941" lon="1.17473">
        <ele>309.114103</ele>
        <time>2022-08-01T09:36:05.475Z</time>
      </trkpt>
      <trkpt lat="44.38949" lon="1.17457">
        <ele>309.343172</ele>
        <time>2022-08-01T09:36:08.529Z</time>
      </trkpt>
      <trkpt lat="44.38954" lon="1.17444">
        <ele>309.518394</ele>
        <time>2022-08-01T09:36:10.478Z</time>
      </trkpt>
      <trkpt lat="44.38961" lon="1.17428">
        <ele>309.743643</ele>
        <time>2022-08-01T09:36:13.488Z</time>
      </trkpt>
      <trkpt lat="44.38967" lon="1.17418">
        <ele>309.894115</ele>
        <time>2022-08-01T09:36:15.497Z</time>
      </trkpt>
      <trkpt lat="44.38975" lon="1.17402">
        <ele>310.116471</ele>
        <time>2022-08-01T09:36:18.457Z</time>
      </trkpt>
      <trkpt lat="44.3898" lon="1.17391">
        <ele>310.280542</ele>
        <time>2022-08-01T09:36:20.505Z</time>
      </trkpt>
      <trkpt lat="44.38987" lon="1.17375">
        <ele>310.496661</ele>
        <time>2022-08-01T09:36:23.468Z</time>
      </trkpt>
      <trkpt lat="44.38992" lon="1.17364">
        <ele>310.650019</ele>
        <time>2022-08-01T09:36:25.491Z</time>
      </trkpt>
      <trkpt lat="44.38997" lon="1.17354">
        <ele>310.763784</ele>
        <time>2022-08-01T09:36:27.467Z</time>
      </trkpt>
      <trkpt lat="44.39004" lon="1.17339">
        <ele>310.840236</ele>
        <time>2022-08-01T09:36:30.467Z</time>
      </trkpt>
      <trkpt lat="44.3901" lon="1.17328">
        <ele>310.903352</ele>
        <time>2022-08-01T09:36:32.495Z</time>
      </trkpt>
      <trkpt lat="44.39018" lon="1.17312">
        <ele>310.987608</ele>
        <time>2022-08-01T09:36:35.473Z</time>
      </trkpt>
      <trkpt lat="44.39023" lon="1.17302">
        <ele>311.04414</ele>
        <time>2022-08-01T09:36:37.482Z</time>
      </trkpt>
      <trkpt lat="44.39028" lon="1.17291">
        <ele>311.099637</ele>
        <time>2022-08-01T09:36:39.480Z</time>
      </trkpt>
      <trkpt lat="44.39034" lon="1.1728">
        <ele>311.161611</ele>
        <time>2022-08-01T09:36:41.486Z</time>
      </trkpt>
      <trkpt lat="44.39041" lon="1.17269">
        <ele>311.225691</ele>
        <time>2022-08-01T09:36:43.486Z</time>
      </trkpt>
      <trkpt lat="44.39052" lon="1.17262">
        <ele>311.298088</ele>
        <time>2022-08-01T09:36:45.486Z</time>
      </trkpt>
      <trkpt lat="44.39062" lon="1.17259">
        <ele>311.367547</ele>
        <time>2022-08-01T09:36:47.488Z</time>
      </trkpt>
      <trkpt lat="44.39072" lon="1.17254">
        <ele>311.432332</ele>
        <time>2022-08-01T09:36:49.498Z</time>
      </trkpt>
      <trkpt lat="44.39082" lon="1.1725">
        <ele>311.494585</ele>
        <time>2022-08-01T09:36:51.483Z</time>
      </trkpt>
      <trkpt lat="44.39093" lon="1.17244">
        <ele>311.566474</ele>
        <time>2022-08-01T09:36:53.497Z</time>
      </trkpt>
      <trkpt lat="44.39103" lon="1.17239">
        <ele>311.632912</ele>
        <time>2022-08-01T09:36:55.490Z</time>
      </trkpt>
      <trkpt lat="44.39114" lon="1.17233">
        <ele>311.703722</ele>
        <time>2022-08-01T09:36:57.500Z</time>
      </trkpt>
      <trkpt lat="44.39125" lon="1.17227">
        <ele>311.782053</ele>
        <time>2022-08-01T09:36:59.461Z</time>
      </trkpt>
      <trkpt lat="44.39136" lon="1.17221">
        <ele>311.854081</ele>
        <time>2022-08-01T09:37:01.477Z</time>
      </trkpt>
      <trkpt lat="44.39148" lon="1.17214">
        <ele>311.614467</ele>
        <time>2022-08-01T09:37:03.485Z</time>
      </trkpt>
      <trkpt lat="44.3916" lon="1.17207">
        <ele>311.365192</ele>
        <time>2022-08-01T09:37:05.465Z</time>
      </trkpt>
      <trkpt lat="44.39173" lon="1.17202">
        <ele>311.108578</ele>
        <time>2022-08-01T09:37:07.487Z</time>
      </trkpt>
      <trkpt lat="44.39183" lon="1.17196">
        <ele>310.891098</ele>
        <time>2022-08-01T09:37:09.476Z</time>
      </trkpt>
      <trkpt lat="44.39194" lon="1.1719">
        <ele>310.663265</ele>
        <time>2022-08-01T09:37:11.479Z</time>
      </trkpt>
      <trkpt lat="44.39209" lon="1.17185">
        <ele>310.379328</ele>
        <time>2022-08-01T09:37:13.488Z</time>
      </trkpt>
      <trkpt lat="44.3922" lon="1.1718">
        <ele>310.160399</ele>
        <time>2022-08-01T09:37:15.498Z</time>
      </trkpt>
      <trkpt lat="44.39231" lon="1.17173">
        <ele>309.918262</ele>
        <time>2022-08-01T09:37:17.492Z</time>
      </trkpt>
      <trkpt lat="44.39244" lon="1.17167">
        <ele>309.654147</ele>
        <time>2022-08-01T09:37:19.476Z</time>
      </trkpt>
      <trkpt lat="44.39257" lon="1.17158">
        <ele>309.38684</ele>
        <time>2022-08-01T09:37:21.480Z</time>
      </trkpt>
      <trkpt lat="44.39267" lon="1.1715">
        <ele>309.169756</ele>
        <time>2022-08-01T09:37:23.493Z</time>
      </trkpt>
      <trkpt lat="44.39279" lon="1.17145">
        <ele>308.923902</ele>
        <time>2022-08-01T09:37:25.497Z</time>
      </trkpt>
      <trkpt lat="44.39291" lon="1.17139">
        <ele>308.674127</ele>
        <time>2022-08-01T09:37:27.466Z</time>
      </trkpt>
      <trkpt lat="44.39303" lon="1.17133">
        <ele>308.431798</ele>
        <time>2022-08-01T09:37:29.487Z</time>
      </trkpt>
      <trkpt lat="44.39314" lon="1.17127">
        <ele>308.566959</ele>
        <time>2022-08-01T09:37:31.498Z</time>
      </trkpt>
      <trkpt lat="44.39325" lon="1.17123">
        <ele>308.746354</ele>
        <time>2022-08-01T09:37:33.487Z</time>
      </trkpt>
      <trkpt lat="44.39336" lon="1.17117">
        <ele>308.945285</ele>
        <time>2022-08-01T09:37:35.477Z</time>
      </trkpt>
      <trkpt lat="44.39346" lon="1.17111">
        <ele>309.12076</ele>
        <time>2022-08-01T09:37:37.494Z</time>
      </trkpt>
      <trkpt lat="44.39357" lon="1.17106">
        <ele>309.302354</ele>
        <time>2022-08-01T09:37:39.480Z</time>
      </trkpt>
      <trkpt lat="44.39368" lon="1.171">
        <ele>309.491439</ele>
        <time>2022-08-01T09:37:41.490Z</time>
      </trkpt>
      <trkpt lat="44.39378" lon="1.17095">
        <ele>309.664273</ele>
        <time>2022-08-01T09:37:43.466Z</time>
      </trkpt>
      <trkpt lat="44.3939" lon="1.17088">
        <ele>309.877007</ele>
        <time>2022-08-01T09:37:45.471Z</time>
      </trkpt>
      <trkpt lat="44.39402" lon="1.17081">
        <ele>310.076346</ele>
        <time>2022-08-01T09:37:47.481Z</time>
      </trkpt>
      <trkpt lat="44.39412" lon="1.17078">
        <ele>310.251537</ele>
        <time>2022-08-01T09:37:49.483Z</time>
      </trkpt>
      <trkpt lat="44.39425" lon="1.17073">
        <ele>310.45694</ele>
        <time>2022-08-01T09:37:51.502Z</time>
      </trkpt>
      <trkpt lat="44.39436" lon="1.17066">
        <ele>310.655832</ele>
        <time>2022-08-01T09:37:53.491Z</time>
      </trkpt>
      <trkpt lat="44.39447" lon="1.1706">
        <ele>310.850654</ele>
        <time>2022-08-01T09:37:55.464Z</time>
      </trkpt>
      <trkpt lat="44.39459" lon="1.17054">
        <ele>311.049585</ele>
        <time>2022-08-01T09:37:57.494Z</time>
      </trkpt>
      <trkpt lat="44.3947" lon="1.17048">
        <ele>311.238244</ele>
        <time>2022-08-01T09:37:59.486Z</time>
      </trkpt>
      <trkpt lat="44.39481" lon="1.17041">
        <ele>311.373728</ele>
        <time>2022-08-01T09:38:01.450Z</time>
      </trkpt>
      <trkpt lat="44.39489" lon="1.17036">
        <ele>311.459251</ele>
        <time>2022-08-01T09:38:03.492Z</time>
      </trkpt>
      <trkpt lat="44.39499" lon="1.17031">
        <ele>311.564688</ele>
        <time>2022-08-01T09:38:05.469Z</time>
      </trkpt>
      <trkpt lat="44.39511" lon="1.17027">
        <ele>311.679035</ele>
        <time>2022-08-01T09:38:07.488Z</time>
      </trkpt>
      <trkpt lat="44.39522" lon="1.17018">
        <ele>311.797484</ele>
        <time>2022-08-01T09:38:09.488Z</time>
      </trkpt>
      <trkpt lat="44.39532" lon="1.17012">
        <ele>311.899295</ele>
        <time>2022-08-01T09:38:11.487Z</time>
      </trkpt>
      <trkpt lat="44.39542" lon="1.17006">
        <ele>312.005646</ele>
        <time>2022-08-01T09:38:13.488Z</time>
      </trkpt>
      <trkpt lat="44.39552" lon="1.17">
        <ele>312.108672</ele>
        <time>2022-08-01T09:38:15.479Z</time>
      </trkpt>
      <trkpt lat="44.39563" lon="1.16995">
        <ele>312.211587</ele>
        <time>2022-08-01T09:38:17.478Z</time>
      </trkpt>
      <trkpt lat="44.39574" lon="1.1699">
        <ele>312.319929</ele>
        <time>2022-08-01T09:38:19.456Z</time>
      </trkpt>
      <trkpt lat="44.39584" lon="1.16984">
        <ele>312.42174</ele>
        <time>2022-08-01T09:38:21.488Z</time>
      </trkpt>
      <trkpt lat="44.39592" lon="1.16979">
        <ele>312.508694</ele>
        <time>2022-08-01T09:38:23.491Z</time>
      </trkpt>
      <trkpt lat="44.39604" lon="1.16971">
        <ele>312.634174</ele>
        <time>2022-08-01T09:38:26.513Z</time>
      </trkpt>
      <trkpt lat="44.39615" lon="1.16968">
        <ele>312.74155</ele>
        <time>2022-08-01T09:38:28.481Z</time>
      </trkpt>
      <trkpt lat="44.39625" lon="1.16963">
        <ele>312.842652</ele>
        <time>2022-08-01T09:38:30.477Z</time>
      </trkpt>
      <trkpt lat="44.39635" lon="1.16958">
        <ele>312.939744</ele>
        <time>2022-08-01T09:38:32.511Z</time>
      </trkpt>
      <trkpt lat="44.39644" lon="1.16956">
        <ele>313.007792</ele>
        <time>2022-08-01T09:38:34.470Z</time>
      </trkpt>
      <trkpt lat="44.39654" lon="1.16955">
        <ele>313.050264</ele>
        <time>2022-08-01T09:38:36.483Z</time>
      </trkpt>
      <trkpt lat="44.39666" lon="1.16956">
        <ele>313.098614</ele>
        <time>2022-08-01T09:38:38.507Z</time>
      </trkpt>
      <trkpt lat="44.39677" lon="1.16958">
        <ele>313.143966</ele>
        <time>2022-08-01T09:38:40.467Z</time>
      </trkpt>
      <trkpt lat="44.39689" lon="1.1696">
        <ele>313.194241</ele>
        <time>2022-08-01T09:38:42.486Z</time>
      </trkpt>
      <trkpt lat="44.39699" lon="1.16962">
        <ele>313.238693</ele>
        <time>2022-08-01T09:38:44.518Z</time>
      </trkpt>
      <trkpt lat="44.3971" lon="1.16965">
        <ele>313.283191</ele>
        <time>2022-08-01T09:38:46.470Z</time>
      </trkpt>
      <trkpt lat="44.3972" lon="1.16967">
        <ele>313.327071</ele>
        <time>2022-08-01T09:38:48.483Z</time>
      </trkpt>
      <trkpt lat="44.39731" lon="1.1697">
        <ele>313.372282</ele>
        <time>2022-08-01T09:38:50.511Z</time>
      </trkpt>
      <trkpt lat="44.39741" lon="1.16972">
        <ele>313.416726</ele>
        <time>2022-08-01T09:38:52.480Z</time>
      </trkpt>
      <trkpt lat="44.39752" lon="1.16974">
        <ele>313.463537</ele>
        <time>2022-08-01T09:38:54.470Z</time>
      </trkpt>
      <trkpt lat="44.39762" lon="1.16976">
        <ele>313.504244</ele>
        <time>2022-08-01T09:38:56.522Z</time>
      </trkpt>
      <trkpt lat="44.39772" lon="1.16977">
        <ele>313.547565</ele>
        <time>2022-08-01T09:38:58.500Z</time>
      </trkpt>
      <trkpt lat="44.39783" lon="1.16978">
        <ele>313.590481</ele>
        <time>2022-08-01T09:39:00.490Z</time>
      </trkpt>
      <trkpt lat="44.39796" lon="1.16979">
        <ele>313.646883</ele>
        <time>2022-08-01T09:39:03.506Z</time>
      </trkpt>
      <trkpt lat="44.39807" lon="1.16981">
        <ele>313.693368</ele>
        <time>2022-08-01T09:39:05.498Z</time>
      </trkpt>
      <trkpt lat="44.39818" lon="1.16982">
        <ele>313.735916</ele>
        <time>2022-08-01T09:39:07.491Z</time>
      </trkpt>
      <trkpt lat="44.39827" lon="1.16983">
        <ele>313.802408</ele>
        <time>2022-08-01T09:39:09.497Z</time>
      </trkpt>
      <trkpt lat="44.39837" lon="1.16985">
        <ele>313.872697</ele>
        <time>2022-08-01T09:39:11.468Z</time>
      </trkpt>
      <trkpt lat="44.39848" lon="1.16987">
        <ele>313.949177</ele>
        <time>2022-08-01T09:39:13.484Z</time>
      </trkpt>
      <trkpt lat="44.39858" lon="1.16988">
        <ele>314.019362</ele>
        <time>2022-08-01T09:39:15.481Z</time>
      </trkpt>
      <trkpt lat="44.39868" lon="1.16991">
        <ele>314.091584</ele>
        <time>2022-08-01T09:39:17.489Z</time>
      </trkpt>
      <trkpt lat="44.39877" lon="1.16995">
        <ele>314.162639</ele>
        <time>2022-08-01T09:39:19.484Z</time>
      </trkpt>
      <trkpt lat="44.39887" lon="1.16995">
        <ele>314.232519</ele>
        <time>2022-08-01T09:39:21.482Z</time>
      </trkpt>
      <trkpt lat="44.399" lon="1.16997">
        <ele>314.324901</ele>
        <time>2022-08-01T09:39:24.480Z</time>
      </trkpt>
      <trkpt lat="44.3991" lon="1.16998">
        <ele>314.393831</ele>
        <time>2022-08-01T09:39:26.505Z</time>
      </trkpt>
      <trkpt lat="44.39919" lon="1.17">
        <ele>314.460578</ele>
        <time>2022-08-01T09:39:28.484Z</time>
      </trkpt>
      <trkpt lat="44.39933" lon="1.17002">
        <ele>314.559293</ele>
        <time>2022-08-01T09:39:31.468Z</time>
      </trkpt>
      <trkpt lat="44.39942" lon="1.17004">
        <ele>314.62811</ele>
        <time>2022-08-01T09:39:33.475Z</time>
      </trkpt>
      <trkpt lat="44.39955" lon="1.17006">
        <ele>314.717814</ele>
        <time>2022-08-01T09:39:36.471Z</time>
      </trkpt>
      <trkpt lat="44.39967" lon="1.1701">
        <ele>314.809015</ele>
        <time>2022-08-01T09:39:39.482Z</time>
      </trkpt>
      <trkpt lat="44.39977" lon="1.1701">
        <ele>314.876053</ele>
        <time>2022-08-01T09:39:41.477Z</time>
      </trkpt>
      <trkpt lat="44.39989" lon="1.17011">
        <ele>314.965422</ele>
        <time>2022-08-01T09:39:44.506Z</time>
      </trkpt>
      <trkpt lat="44.4" lon="1.17013">
        <ele>315.020137</ele>
        <time>2022-08-01T09:39:48.496Z</time>
      </trkpt>
      <trkpt lat="44.40009" lon="1.17008">
        <ele>315.003319</ele>
        <time>2022-08-01T09:39:52.486Z</time>
      </trkpt>
      <trkpt lat="44.40018" lon="1.16998">
        <ele>314.983283</ele>
        <time>2022-08-01T09:39:55.497Z</time>
      </trkpt>
      <trkpt lat="44.40029" lon="1.16985">
        <ele>314.959128</ele>
        <time>2022-08-01T09:39:58.484Z</time>
      </trkpt>
      <trkpt lat="44.40037" lon="1.16978">
        <ele>314.941274</ele>
        <time>2022-08-01T09:40:00.494Z</time>
      </trkpt>
      <trkpt lat="44.40048" lon="1.16969">
        <ele>314.920527</ele>
        <time>2022-08-01T09:40:02.521Z</time>
      </trkpt>
      <trkpt lat="44.40056" lon="1.16961">
        <ele>314.90266</ele>
        <time>2022-08-01T09:40:04.491Z</time>
      </trkpt>
      <trkpt lat="44.40065" lon="1.16952">
        <ele>314.883571</ele>
        <time>2022-08-01T09:40:06.487Z</time>
      </trkpt>
      <trkpt lat="44.40073" lon="1.16943">
        <ele>314.866264</ele>
        <time>2022-08-01T09:40:08.527Z</time>
      </trkpt>
      <trkpt lat="44.40083" lon="1.16936">
        <ele>314.845901</ele>
        <time>2022-08-01T09:40:10.487Z</time>
      </trkpt>
      <trkpt lat="44.40092" lon="1.16928">
        <ele>314.827449</ele>
        <time>2022-08-01T09:40:12.464Z</time>
      </trkpt>
      <trkpt lat="44.401" lon="1.1692">
        <ele>314.810797</ele>
        <time>2022-08-01T09:40:14.512Z</time>
      </trkpt>
      <trkpt lat="44.40108" lon="1.1691">
        <ele>314.792442</ele>
        <time>2022-08-01T09:40:16.498Z</time>
      </trkpt>
      <trkpt lat="44.40116" lon="1.16901">
        <ele>314.773413</ele>
        <time>2022-08-01T09:40:18.467Z</time>
      </trkpt>
      <trkpt lat="44.40125" lon="1.16892">
        <ele>314.754983</ele>
        <time>2022-08-01T09:40:20.522Z</time>
      </trkpt>
      <trkpt lat="44.40133" lon="1.16882">
        <ele>314.735856</ele>
        <time>2022-08-01T09:40:22.479Z</time>
      </trkpt>
      <trkpt lat="44.40141" lon="1.16871">
        <ele>314.716636</ele>
        <time>2022-08-01T09:40:24.476Z</time>
      </trkpt>
      <trkpt lat="44.40149" lon="1.16862">
        <ele>314.758573</ele>
        <time>2022-08-01T09:40:26.507Z</time>
      </trkpt>
      <trkpt lat="44.40156" lon="1.16851">
        <ele>314.821976</ele>
        <time>2022-08-01T09:40:28.485Z</time>
      </trkpt>
      <trkpt lat="44.40164" lon="1.16841">
        <ele>314.882601</ele>
        <time>2022-08-01T09:40:30.482Z</time>
      </trkpt>
      <trkpt lat="44.40171" lon="1.16829">
        <ele>314.949801</ele>
        <time>2022-08-01T09:40:32.516Z</time>
      </trkpt>
      <trkpt lat="44.40178" lon="1.16819">
        <ele>315.008942</ele>
        <time>2022-08-01T09:40:34.463Z</time>
      </trkpt>
      <trkpt lat="44.40186" lon="1.16807">
        <ele>315.077712</ele>
        <time>2022-08-01T09:40:36.492Z</time>
      </trkpt>
      <trkpt lat="44.40193" lon="1.16796">
        <ele>315.139843</ele>
        <time>2022-08-01T09:40:38.500Z</time>
      </trkpt>
      <trkpt lat="44.40199" lon="1.16784">
        <ele>315.202858</ele>
        <time>2022-08-01T09:40:40.468Z</time>
      </trkpt>
      <trkpt lat="44.40207" lon="1.16774">
        <ele>315.266056</ele>
        <time>2022-08-01T09:40:42.495Z</time>
      </trkpt>
      <trkpt lat="44.40215" lon="1.16764">
        <ele>315.33113</ele>
        <time>2022-08-01T09:40:44.486Z</time>
      </trkpt>
      <trkpt lat="44.40222" lon="1.16753">
        <ele>315.389868</ele>
        <time>2022-08-01T09:40:46.501Z</time>
      </trkpt>
      <trkpt lat="44.4023" lon="1.16743">
        <ele>315.453354</ele>
        <time>2022-08-01T09:40:48.466Z</time>
      </trkpt>
      <trkpt lat="44.40238" lon="1.16733">
        <ele>315.516982</ele>
        <time>2022-08-01T09:40:50.483Z</time>
      </trkpt>
      <trkpt lat="44.40244" lon="1.16722">
        <ele>315.578326</ele>
        <time>2022-08-01T09:40:52.473Z</time>
      </trkpt>
      <trkpt lat="44.40252" lon="1.16711">
        <ele>315.644571</ele>
        <time>2022-08-01T09:40:54.486Z</time>
      </trkpt>
      <trkpt lat="44.40261" lon="1.16699">
        <ele>315.716823</ele>
        <time>2022-08-01T09:40:56.476Z</time>
      </trkpt>
      <trkpt lat="44.40267" lon="1.16687">
        <ele>315.776683</ele>
        <time>2022-08-01T09:40:58.489Z</time>
      </trkpt>
      <trkpt lat="44.40275" lon="1.16675">
        <ele>315.692538</ele>
        <time>2022-08-01T09:41:00.479Z</time>
      </trkpt>
      <trkpt lat="44.40282" lon="1.16664">
        <ele>315.611216</ele>
        <time>2022-08-01T09:41:02.481Z</time>
      </trkpt>
      <trkpt lat="44.40289" lon="1.16652">
        <ele>315.524172</ele>
        <time>2022-08-01T09:41:04.497Z</time>
      </trkpt>
      <trkpt lat="44.40297" lon="1.16641">
        <ele>315.44165</ele>
        <time>2022-08-01T09:41:06.487Z</time>
      </trkpt>
      <trkpt lat="44.40304" lon="1.1663">
        <ele>315.35832</ele>
        <time>2022-08-01T09:41:08.499Z</time>
      </trkpt>
      <trkpt lat="44.40311" lon="1.16618">
        <ele>315.274151</ele>
        <time>2022-08-01T09:41:10.463Z</time>
      </trkpt>
      <trkpt lat="44.40318" lon="1.16606">
        <ele>315.186845</ele>
        <time>2022-08-01T09:41:12.491Z</time>
      </trkpt>
      <trkpt lat="44.40325" lon="1.16593">
        <ele>315.097775</ele>
        <time>2022-08-01T09:41:14.485Z</time>
      </trkpt>
      <trkpt lat="44.40333" lon="1.1658">
        <ele>315.006</ele>
        <time>2022-08-01T09:41:16.472Z</time>
      </trkpt>
      <trkpt lat="44.40341" lon="1.16566">
        <ele>314.909701</ele>
        <time>2022-08-01T09:41:18.481Z</time>
      </trkpt>
      <trkpt lat="44.4035" lon="1.16552">
        <ele>314.804545</ele>
        <time>2022-08-01T09:41:20.479Z</time>
      </trkpt>
      <trkpt lat="44.40358" lon="1.16538">
        <ele>314.709518</ele>
        <time>2022-08-01T09:41:22.500Z</time>
      </trkpt>
      <trkpt lat="44.40365" lon="1.16523">
        <ele>314.607598</ele>
        <time>2022-08-01T09:41:24.483Z</time>
      </trkpt>
      <trkpt lat="44.40374" lon="1.16507">
        <ele>314.501222</ele>
        <time>2022-08-01T09:41:26.480Z</time>
      </trkpt>
      <trkpt lat="44.40382" lon="1.16494">
        <ele>314.403884</ele>
        <time>2022-08-01T09:41:28.488Z</time>
      </trkpt>
      <trkpt lat="44.40391" lon="1.16481">
        <ele>314.344074</ele>
        <time>2022-08-01T09:41:30.471Z</time>
      </trkpt>
      <trkpt lat="44.40399" lon="1.16465">
        <ele>314.280437</ele>
        <time>2022-08-01T09:41:32.478Z</time>
      </trkpt>
      <trkpt lat="44.40407" lon="1.16452">
        <ele>314.222916</ele>
        <time>2022-08-01T09:41:34.462Z</time>
      </trkpt>
      <trkpt lat="44.40414" lon="1.16435">
        <ele>314.159465</ele>
        <time>2022-08-01T09:41:36.496Z</time>
      </trkpt>
      <trkpt lat="44.40422" lon="1.16421">
        <ele>314.097401</ele>
        <time>2022-08-01T09:41:38.475Z</time>
      </trkpt>
      <trkpt lat="44.4043" lon="1.16408">
        <ele>314.044235</ele>
        <time>2022-08-01T09:41:40.498Z</time>
      </trkpt>
      <trkpt lat="44.40439" lon="1.16393">
        <ele>313.979129</ele>
        <time>2022-08-01T09:41:42.488Z</time>
      </trkpt>
      <trkpt lat="44.40448" lon="1.16379">
        <ele>313.914273</ele>
        <time>2022-08-01T09:41:44.470Z</time>
      </trkpt>
      <trkpt lat="44.40456" lon="1.16364">
        <ele>313.853319</ele>
        <time>2022-08-01T09:41:46.480Z</time>
      </trkpt>
      <trkpt lat="44.40464" lon="1.16347">
        <ele>313.786146</ele>
        <time>2022-08-01T09:41:48.473Z</time>
      </trkpt>
      <trkpt lat="44.40472" lon="1.1633">
        <ele>313.720602</ele>
        <time>2022-08-01T09:41:50.481Z</time>
      </trkpt>
      <trkpt lat="44.40478" lon="1.16313">
        <ele>313.659125</ele>
        <time>2022-08-01T09:41:52.477Z</time>
      </trkpt>
      <trkpt lat="44.40484" lon="1.16298">
        <ele>313.598495</ele>
        <time>2022-08-01T09:41:54.492Z</time>
      </trkpt>
      <trkpt lat="44.4049" lon="1.1628">
        <ele>313.580357</ele>
        <time>2022-08-01T09:41:56.498Z</time>
      </trkpt>
      <trkpt lat="44.40498" lon="1.16264">
        <ele>313.59569</ele>
        <time>2022-08-01T09:41:58.479Z</time>
      </trkpt>
      <trkpt lat="44.40506" lon="1.16246">
        <ele>313.612012</ele>
        <time>2022-08-01T09:42:00.490Z</time>
      </trkpt>
      <trkpt lat="44.40512" lon="1.16229">
        <ele>313.627363</ele>
        <time>2022-08-01T09:42:02.478Z</time>
      </trkpt>
      <trkpt lat="44.4052" lon="1.16212">
        <ele>313.643178</ele>
        <time>2022-08-01T09:42:04.498Z</time>
      </trkpt>
      <trkpt lat="44.40527" lon="1.16195">
        <ele>313.65812</ele>
        <time>2022-08-01T09:42:06.471Z</time>
      </trkpt>
      <trkpt lat="44.40534" lon="1.16179">
        <ele>313.673447</ele>
        <time>2022-08-01T09:42:08.495Z</time>
      </trkpt>
      <trkpt lat="44.40541" lon="1.16162">
        <ele>313.688607</ele>
        <time>2022-08-01T09:42:10.494Z</time>
      </trkpt>
      <trkpt lat="44.40548" lon="1.16146">
        <ele>313.703065</ele>
        <time>2022-08-01T09:42:12.479Z</time>
      </trkpt>
      <trkpt lat="44.40555" lon="1.1613">
        <ele>313.717982</ele>
        <time>2022-08-01T09:42:14.488Z</time>
      </trkpt>
      <trkpt lat="44.40563" lon="1.16115">
        <ele>313.732854</ele>
        <time>2022-08-01T09:42:16.491Z</time>
      </trkpt>
      <trkpt lat="44.40573" lon="1.16101">
        <ele>313.748079</ele>
        <time>2022-08-01T09:42:18.489Z</time>
      </trkpt>
      <trkpt lat="44.40585" lon="1.16091">
        <ele>313.764062</ele>
        <time>2022-08-01T09:42:20.464Z</time>
      </trkpt>
      <trkpt lat="44.40597" lon="1.16083">
        <ele>314.010447</ele>
        <time>2022-08-01T09:42:22.490Z</time>
      </trkpt>
      <trkpt lat="44.40611" lon="1.16077">
        <ele>314.416482</ele>
        <time>2022-08-01T09:42:24.496Z</time>
      </trkpt>
      <trkpt lat="44.40622" lon="1.16071">
        <ele>314.771673</ele>
        <time>2022-08-01T09:42:26.478Z</time>
      </trkpt>
      <trkpt lat="44.40635" lon="1.16066">
        <ele>315.163953</ele>
        <time>2022-08-01T09:42:28.500Z</time>
      </trkpt>
      <trkpt lat="44.40649" lon="1.1606">
        <ele>315.566253</ele>
        <time>2022-08-01T09:42:30.473Z</time>
      </trkpt>
      <trkpt lat="44.40661" lon="1.16055">
        <ele>315.946933</ele>
        <time>2022-08-01T09:42:32.479Z</time>
      </trkpt>
      <trkpt lat="44.40675" lon="1.16049">
        <ele>316.34435</ele>
        <time>2022-08-01T09:42:34.461Z</time>
      </trkpt>
      <trkpt lat="44.40688" lon="1.16043">
        <ele>316.75458</ele>
        <time>2022-08-01T09:42:36.471Z</time>
      </trkpt>
      <trkpt lat="44.40702" lon="1.16035">
        <ele>317.170406</ele>
        <time>2022-08-01T09:42:38.476Z</time>
      </trkpt>
      <trkpt lat="44.40713" lon="1.16025">
        <ele>317.558548</ele>
        <time>2022-08-01T09:42:40.488Z</time>
      </trkpt>
      <trkpt lat="44.40724" lon="1.16014">
        <ele>317.957465</ele>
        <time>2022-08-01T09:42:42.471Z</time>
      </trkpt>
      <trkpt lat="44.40734" lon="1.16004">
        <ele>318.287085</ele>
        <time>2022-08-01T09:42:44.483Z</time>
      </trkpt>
      <trkpt lat="44.40743" lon="1.15994">
        <ele>318.629992</ele>
        <time>2022-08-01T09:42:46.477Z</time>
      </trkpt>
      <trkpt lat="44.40753" lon="1.15983">
        <ele>318.921125</ele>
        <time>2022-08-01T09:42:48.461Z</time>
      </trkpt>
      <trkpt lat="44.4076" lon="1.15972">
        <ele>318.850387</ele>
        <time>2022-08-01T09:42:50.485Z</time>
      </trkpt>
      <trkpt lat="44.40769" lon="1.1596">
        <ele>318.758656</ele>
        <time>2022-08-01T09:42:52.489Z</time>
      </trkpt>
      <trkpt lat="44.40778" lon="1.15952">
        <ele>318.681907</ele>
        <time>2022-08-01T09:42:54.489Z</time>
      </trkpt>
      <trkpt lat="44.40786" lon="1.15944">
        <ele>318.613208</ele>
        <time>2022-08-01T09:42:56.478Z</time>
      </trkpt>
      <trkpt lat="44.40795" lon="1.15936">
        <ele>318.538641</ele>
        <time>2022-08-01T09:42:58.481Z</time>
      </trkpt>
      <trkpt lat="44.40804" lon="1.15929">
        <ele>318.460779</ele>
        <time>2022-08-01T09:43:00.487Z</time>
      </trkpt>
      <trkpt lat="44.40813" lon="1.1592">
        <ele>318.381369</ele>
        <time>2022-08-01T09:43:02.477Z</time>
      </trkpt>
      <trkpt lat="44.40822" lon="1.1591">
        <ele>318.302237</ele>
        <time>2022-08-01T09:43:04.499Z</time>
      </trkpt>
      <trkpt lat="44.40833" lon="1.159">
        <ele>318.204801</ele>
        <time>2022-08-01T09:43:06.467Z</time>
      </trkpt>
      <trkpt lat="44.40841" lon="1.15888">
        <ele>318.121444</ele>
        <time>2022-08-01T09:43:08.492Z</time>
      </trkpt>
      <trkpt lat="44.40849" lon="1.1588">
        <ele>318.055993</ele>
        <time>2022-08-01T09:43:10.474Z</time>
      </trkpt>
      <trkpt lat="44.40858" lon="1.1587">
        <ele>317.973907</ele>
        <time>2022-08-01T09:43:12.479Z</time>
      </trkpt>
      <trkpt lat="44.40865" lon="1.15861">
        <ele>317.903937</ele>
        <time>2022-08-01T09:43:14.461Z</time>
      </trkpt>
      <trkpt lat="44.40873" lon="1.15852">
        <ele>317.830251</ele>
        <time>2022-08-01T09:43:16.458Z</time>
      </trkpt>
      <trkpt lat="44.40882" lon="1.15842">
        <ele>317.746924</ele>
        <time>2022-08-01T09:43:18.479Z</time>
      </trkpt>
      <trkpt lat="44.4089" lon="1.15832">
        <ele>317.671494</ele>
        <time>2022-08-01T09:43:20.486Z</time>
      </trkpt>
      <trkpt lat="44.40901" lon="1.15822">
        <ele>317.454863</ele>
        <time>2022-08-01T09:43:22.463Z</time>
      </trkpt>
      <trkpt lat="44.4091" lon="1.15813">
        <ele>317.243432</ele>
        <time>2022-08-01T09:43:24.461Z</time>
      </trkpt>
      <trkpt lat="44.40919" lon="1.15803">
        <ele>317.034274</ele>
        <time>2022-08-01T09:43:26.498Z</time>
      </trkpt>
      <trkpt lat="44.40928" lon="1.15793">
        <ele>316.820505</ele>
        <time>2022-08-01T09:43:28.482Z</time>
      </trkpt>
      <trkpt lat="44.40938" lon="1.15783">
        <ele>316.592775</ele>
        <time>2022-08-01T09:43:30.485Z</time>
      </trkpt>
      <trkpt lat="44.40947" lon="1.15774">
        <ele>316.370407</ele>
        <time>2022-08-01T09:43:32.490Z</time>
      </trkpt>
      <trkpt lat="44.40958" lon="1.15766">
        <ele>316.150815</ele>
        <time>2022-08-01T09:43:34.457Z</time>
      </trkpt>
      <trkpt lat="44.40967" lon="1.15756">
        <ele>315.925471</ele>
        <time>2022-08-01T09:43:36.491Z</time>
      </trkpt>
      <trkpt lat="44.40977" lon="1.15747">
        <ele>315.705381</ele>
        <time>2022-08-01T09:43:38.496Z</time>
      </trkpt>
      <trkpt lat="44.40985" lon="1.15735">
        <ele>315.488408</ele>
        <time>2022-08-01T09:43:40.493Z</time>
      </trkpt>
      <trkpt lat="44.40994" lon="1.15725">
        <ele>315.270477</ele>
        <time>2022-08-01T09:43:42.480Z</time>
      </trkpt>
      <trkpt lat="44.41003" lon="1.15715">
        <ele>315.050031</ele>
        <time>2022-08-01T09:43:44.483Z</time>
      </trkpt>
      <trkpt lat="44.41012" lon="1.15702">
        <ele>314.809663</ele>
        <time>2022-08-01T09:43:46.470Z</time>
      </trkpt>
      <trkpt lat="44.41018" lon="1.15686">
        <ele>314.566167</ele>
        <time>2022-08-01T09:43:48.502Z</time>
      </trkpt>
      <trkpt lat="44.4102" lon="1.15667">
        <ele>314.30812</ele>
        <time>2022-08-01T09:43:50.475Z</time>
      </trkpt>
      <trkpt lat="44.41014" lon="1.15647">
        <ele>313.521121</ele>
        <time>2022-08-01T09:43:52.495Z</time>
      </trkpt>
      <trkpt lat="44.41007" lon="1.15638">
        <ele>313.035132</ele>
        <time>2022-08-01T09:43:53.522Z</time>
      </trkpt>
      <trkpt lat="44.40992" lon="1.15627">
        <ele>312.11376</ele>
        <time>2022-08-01T09:43:55.467Z</time>
      </trkpt>
      <trkpt lat="44.40975" lon="1.15623">
        <ele>311.18336</ele>
        <time>2022-08-01T09:43:57.472Z</time>
      </trkpt>
      <trkpt lat="44.40966" lon="1.15622">
        <ele>310.659812</ele>
        <time>2022-08-01T09:43:58.495Z</time>
      </trkpt>
      <trkpt lat="44.40955" lon="1.15622">
        <ele>310.050425</ele>
        <time>2022-08-01T09:43:59.517Z</time>
      </trkpt>
      <trkpt lat="44.40944" lon="1.15625">
        <ele>309.461786</ele>
        <time>2022-08-01T09:44:00.489Z</time>
      </trkpt>
      <trkpt lat="44.40932" lon="1.15627">
        <ele>308.829617</ele>
        <time>2022-08-01T09:44:01.478Z</time>
      </trkpt>
      <trkpt lat="44.40922" lon="1.15632">
        <ele>308.231202</ele>
        <time>2022-08-01T09:44:02.474Z</time>
      </trkpt>
      <trkpt lat="44.40911" lon="1.15636">
        <ele>307.625418</ele>
        <time>2022-08-01T09:44:03.497Z</time>
      </trkpt>
      <trkpt lat="44.40901" lon="1.15641">
        <ele>307.033234</ele>
        <time>2022-08-01T09:44:04.474Z</time>
      </trkpt>
      <trkpt lat="44.40891" lon="1.15646">
        <ele>306.476915</ele>
        <time>2022-08-01T09:44:05.507Z</time>
      </trkpt>
      <trkpt lat="44.40877" lon="1.15647">
        <ele>305.704594</ele>
        <time>2022-08-01T09:44:07.492Z</time>
      </trkpt>
      <trkpt lat="44.40866" lon="1.15632">
        <ele>304.914228</ele>
        <time>2022-08-01T09:44:09.463Z</time>
      </trkpt>
      <trkpt lat="44.40863" lon="1.15611">
        <ele>304.247515</ele>
        <time>2022-08-01T09:44:11.508Z</time>
      </trkpt>
      <trkpt lat="44.40865" lon="1.15589">
        <ele>303.731408</ele>
        <time>2022-08-01T09:44:13.485Z</time>
      </trkpt>
      <trkpt lat="44.40869" lon="1.15574">
        <ele>303.359918</ele>
        <time>2022-08-01T09:44:14.489Z</time>
      </trkpt>
      <trkpt lat="44.40877" lon="1.15562">
        <ele>302.961259</ele>
        <time>2022-08-01T09:44:15.479Z</time>
      </trkpt>
      <trkpt lat="44.40883" lon="1.15547">
        <ele>302.587547</ele>
        <time>2022-08-01T09:44:16.487Z</time>
      </trkpt>
      <trkpt lat="44.40889" lon="1.15535">
        <ele>302.240256</ele>
        <time>2022-08-01T09:44:17.514Z</time>
      </trkpt>
      <trkpt lat="44.40897" lon="1.15522">
        <ele>301.830041</ele>
        <time>2022-08-01T09:44:18.477Z</time>
      </trkpt>
      <trkpt lat="44.40904" lon="1.15509">
        <ele>301.463956</ele>
        <time>2022-08-01T09:44:19.494Z</time>
      </trkpt>
      <trkpt lat="44.40911" lon="1.15497">
        <ele>301.111922</ele>
        <time>2022-08-01T09:44:20.472Z</time>
      </trkpt>
      <trkpt lat="44.40918" lon="1.15486">
        <ele>300.770769</ele>
        <time>2022-08-01T09:44:21.490Z</time>
      </trkpt>
      <trkpt lat="44.40924" lon="1.15474">
        <ele>300.440416</ele>
        <time>2022-08-01T09:44:22.474Z</time>
      </trkpt>
      <trkpt lat="44.40928" lon="1.15461">
        <ele>300.114278</ele>
        <time>2022-08-01T09:44:23.503Z</time>
      </trkpt>
      <trkpt lat="44.40929" lon="1.15447">
        <ele>299.795802</ele>
        <time>2022-08-01T09:44:24.494Z</time>
      </trkpt>
      <trkpt lat="44.4093" lon="1.15433">
        <ele>299.465377</ele>
        <time>2022-08-01T09:44:25.498Z</time>
      </trkpt>
      <trkpt lat="44.40931" lon="1.15418">
        <ele>299.115574</ele>
        <time>2022-08-01T09:44:26.498Z</time>
      </trkpt>
      <trkpt lat="44.40931" lon="1.15404">
        <ele>298.792235</ele>
        <time>2022-08-01T09:44:27.494Z</time>
      </trkpt>
      <trkpt lat="44.40932" lon="1.1539">
        <ele>298.576486</ele>
        <time>2022-08-01T09:44:28.481Z</time>
      </trkpt>
      <trkpt lat="44.40936" lon="1.15378">
        <ele>298.407752</ele>
        <time>2022-08-01T09:44:29.529Z</time>
      </trkpt>
      <trkpt lat="44.40945" lon="1.15364">
        <ele>298.173388</ele>
        <time>2022-08-01T09:44:30.472Z</time>
      </trkpt>
      <trkpt lat="44.40953" lon="1.15354">
        <ele>297.984214</ele>
        <time>2022-08-01T09:44:31.456Z</time>
      </trkpt>
      <trkpt lat="44.40962" lon="1.15345">
        <ele>297.790846</ele>
        <time>2022-08-01T09:44:32.447Z</time>
      </trkpt>
      <trkpt lat="44.40972" lon="1.15336">
        <ele>297.58967</ele>
        <time>2022-08-01T09:44:33.472Z</time>
      </trkpt>
      <trkpt lat="44.40982" lon="1.15328">
        <ele>297.385943</ele>
        <time>2022-08-01T09:44:34.475Z</time>
      </trkpt>
      <trkpt lat="44.40993" lon="1.15319">
        <ele>297.173744</ele>
        <time>2022-08-01T09:44:35.485Z</time>
      </trkpt>
      <trkpt lat="44.41004" lon="1.15311">
        <ele>296.954276</ele>
        <time>2022-08-01T09:44:36.482Z</time>
      </trkpt>
      <trkpt lat="44.41015" lon="1.15302">
        <ele>296.740358</ele>
        <time>2022-08-01T09:44:37.469Z</time>
      </trkpt>
      <trkpt lat="44.41025" lon="1.15294">
        <ele>296.536125</ele>
        <time>2022-08-01T09:44:38.474Z</time>
      </trkpt>
      <trkpt lat="44.41035" lon="1.15286">
        <ele>296.334283</ele>
        <time>2022-08-01T09:44:39.465Z</time>
      </trkpt>
      <trkpt lat="44.41046" lon="1.15277">
        <ele>296.119119</ele>
        <time>2022-08-01T09:44:40.479Z</time>
      </trkpt>
      <trkpt lat="44.41056" lon="1.15267">
        <ele>295.905145</ele>
        <time>2022-08-01T09:44:41.506Z</time>
      </trkpt>
      <trkpt lat="44.41066" lon="1.15255">
        <ele>295.678919</ele>
        <time>2022-08-01T09:44:42.478Z</time>
      </trkpt>
      <trkpt lat="44.41076" lon="1.15245">
        <ele>295.376345</ele>
        <time>2022-08-01T09:44:43.466Z</time>
      </trkpt>
      <trkpt lat="44.41085" lon="1.15235">
        <ele>294.98454</ele>
        <time>2022-08-01T09:44:44.489Z</time>
      </trkpt>
      <trkpt lat="44.41094" lon="1.15221">
        <ele>294.550205</ele>
        <time>2022-08-01T09:44:45.465Z</time>
      </trkpt>
      <trkpt lat="44.41103" lon="1.1521">
        <ele>294.147297</ele>
        <time>2022-08-01T09:44:46.469Z</time>
      </trkpt>
      <trkpt lat="44.4111" lon="1.15198">
        <ele>293.782547</ele>
        <time>2022-08-01T09:44:47.521Z</time>
      </trkpt>
      <trkpt lat="44.41117" lon="1.15188">
        <ele>293.454733</ele>
        <time>2022-08-01T09:44:48.480Z</time>
      </trkpt>
      <trkpt lat="44.41123" lon="1.15176">
        <ele>293.101096</ele>
        <time>2022-08-01T09:44:49.484Z</time>
      </trkpt>
      <trkpt lat="44.41132" lon="1.15165">
        <ele>292.706971</ele>
        <time>2022-08-01T09:44:50.488Z</time>
      </trkpt>
      <trkpt lat="44.4114" lon="1.15154">
        <ele>292.332748</ele>
        <time>2022-08-01T09:44:51.477Z</time>
      </trkpt>
      <trkpt lat="44.41149" lon="1.15145">
        <ele>291.972704</ele>
        <time>2022-08-01T09:44:52.493Z</time>
      </trkpt>
      <trkpt lat="44.41158" lon="1.15136">
        <ele>291.608293</ele>
        <time>2022-08-01T09:44:53.514Z</time>
      </trkpt>
      <trkpt lat="44.41167" lon="1.15125">
        <ele>291.218848</ele>
        <time>2022-08-01T09:44:54.475Z</time>
      </trkpt>
      <trkpt lat="44.41175" lon="1.15113">
        <ele>290.827237</ele>
        <time>2022-08-01T09:44:55.481Z</time>
      </trkpt>
      <trkpt lat="44.41184" lon="1.15103">
        <ele>290.453015</ele>
        <time>2022-08-01T09:44:56.482Z</time>
      </trkpt>
      <trkpt lat="44.41193" lon="1.15093">
        <ele>290.064975</ele>
        <time>2022-08-01T09:44:57.500Z</time>
      </trkpt>
      <trkpt lat="44.41202" lon="1.15082">
        <ele>289.661847</ele>
        <time>2022-08-01T09:44:58.470Z</time>
      </trkpt>
      <trkpt lat="44.41211" lon="1.15071">
        <ele>289.070627</ele>
        <time>2022-08-01T09:44:59.528Z</time>
      </trkpt>
      <trkpt lat="44.4122" lon="1.15062">
        <ele>288.45838</ele>
        <time>2022-08-01T09:45:00.487Z</time>
      </trkpt>
      <trkpt lat="44.4123" lon="1.15053">
        <ele>287.803074</ele>
        <time>2022-08-01T09:45:01.497Z</time>
      </trkpt>
      <trkpt lat="44.41239" lon="1.15047">
        <ele>287.247222</ele>
        <time>2022-08-01T09:45:02.476Z</time>
      </trkpt>
      <trkpt lat="44.41251" lon="1.1504">
        <ele>286.565901</ele>
        <time>2022-08-01T09:45:03.498Z</time>
      </trkpt>
      <trkpt lat="44.41262" lon="1.15034">
        <ele>285.901543</ele>
        <time>2022-08-01T09:45:04.481Z</time>
      </trkpt>
      <trkpt lat="44.41275" lon="1.15028">
        <ele>285.165263</ele>
        <time>2022-08-01T09:45:05.524Z</time>
      </trkpt>
      <trkpt lat="44.41287" lon="1.15021">
        <ele>284.473182</ele>
        <time>2022-08-01T09:45:06.497Z</time>
      </trkpt>
      <trkpt lat="44.41296" lon="1.15013">
        <ele>283.868624</ele>
        <time>2022-08-01T09:45:07.501Z</time>
      </trkpt>
      <trkpt lat="44.41308" lon="1.15006">
        <ele>283.16403</ele>
        <time>2022-08-01T09:45:08.468Z</time>
      </trkpt>
      <trkpt lat="44.4132" lon="1.14999">
        <ele>282.471171</ele>
        <time>2022-08-01T09:45:09.488Z</time>
      </trkpt>
      <trkpt lat="44.41329" lon="1.14993">
        <ele>281.952026</ele>
        <time>2022-08-01T09:45:10.498Z</time>
      </trkpt>
      <trkpt lat="44.4134" lon="1.14989">
        <ele>281.326942</ele>
        <time>2022-08-01T09:45:11.519Z</time>
      </trkpt>
      <trkpt lat="44.4135" lon="1.14984">
        <ele>280.747975</ele>
        <time>2022-08-01T09:45:12.474Z</time>
      </trkpt>
      <trkpt lat="44.4136" lon="1.14981">
        <ele>280.205429</ele>
        <time>2022-08-01T09:45:13.478Z</time>
      </trkpt>
      <trkpt lat="44.4137" lon="1.14979">
        <ele>279.607404</ele>
        <time>2022-08-01T09:45:14.494Z</time>
      </trkpt>
      <trkpt lat="44.41379" lon="1.1498">
        <ele>279.010109</ele>
        <time>2022-08-01T09:45:15.490Z</time>
      </trkpt>
      <trkpt lat="44.41389" lon="1.14981">
        <ele>278.365434</ele>
        <time>2022-08-01T09:45:16.479Z</time>
      </trkpt>
      <trkpt lat="44.41399" lon="1.14984">
        <ele>277.695514</ele>
        <time>2022-08-01T09:45:17.518Z</time>
      </trkpt>
      <trkpt lat="44.41412" lon="1.14986">
        <ele>276.845702</ele>
        <time>2022-08-01T09:45:18.482Z</time>
      </trkpt>
      <trkpt lat="44.41422" lon="1.14989">
        <ele>276.115435</ele>
        <time>2022-08-01T09:45:19.490Z</time>
      </trkpt>
      <trkpt lat="44.41433" lon="1.14991">
        <ele>275.393549</ele>
        <time>2022-08-01T09:45:20.491Z</time>
      </trkpt>
      <trkpt lat="44.41445" lon="1.14991">
        <ele>274.647829</ele>
        <time>2022-08-01T09:45:21.492Z</time>
      </trkpt>
      <trkpt lat="44.41456" lon="1.14991">
        <ele>273.90875</ele>
        <time>2022-08-01T09:45:22.474Z</time>
      </trkpt>
      <trkpt lat="44.41468" lon="1.1499">
        <ele>273.103313</ele>
        <time>2022-08-01T09:45:23.506Z</time>
      </trkpt>
      <trkpt lat="44.41481" lon="1.14987">
        <ele>272.297675</ele>
        <time>2022-08-01T09:45:24.484Z</time>
      </trkpt>
      <trkpt lat="44.41493" lon="1.14984">
        <ele>271.499706</ele>
        <time>2022-08-01T09:45:25.491Z</time>
      </trkpt>
      <trkpt lat="44.41504" lon="1.14982">
        <ele>270.75652</ele>
        <time>2022-08-01T09:45:26.474Z</time>
      </trkpt>
      <trkpt lat="44.41516" lon="1.14979">
        <ele>269.972257</ele>
        <time>2022-08-01T09:45:27.469Z</time>
      </trkpt>
      <trkpt lat="44.41527" lon="1.14976">
        <ele>269.234701</ele>
        <time>2022-08-01T09:45:28.498Z</time>
      </trkpt>
      <trkpt lat="44.41538" lon="1.14973">
        <ele>268.48427</ele>
        <time>2022-08-01T09:45:29.531Z</time>
      </trkpt>
      <trkpt lat="44.41549" lon="1.14969">
        <ele>267.559736</ele>
        <time>2022-08-01T09:45:30.482Z</time>
      </trkpt>
      <trkpt lat="44.4156" lon="1.14963">
        <ele>266.443399</ele>
        <time>2022-08-01T09:45:31.479Z</time>
      </trkpt>
      <trkpt lat="44.41571" lon="1.14957">
        <ele>265.308085</ele>
        <time>2022-08-01T09:45:32.492Z</time>
      </trkpt>
      <trkpt lat="44.41582" lon="1.14951">
        <ele>264.202715</ele>
        <time>2022-08-01T09:45:33.491Z</time>
      </trkpt>
      <trkpt lat="44.41593" lon="1.14945">
        <ele>263.061675</ele>
        <time>2022-08-01T09:45:34.480Z</time>
      </trkpt>
      <trkpt lat="44.41602" lon="1.14939">
        <ele>262.117596</ele>
        <time>2022-08-01T09:45:35.492Z</time>
      </trkpt>
      <trkpt lat="44.41615" lon="1.14935">
        <ele>260.920772</ele>
        <time>2022-08-01T09:45:36.483Z</time>
      </trkpt>
      <trkpt lat="44.41627" lon="1.14932">
        <ele>259.73801</ele>
        <time>2022-08-01T09:45:37.493Z</time>
      </trkpt>
      <trkpt lat="44.41639" lon="1.1493">
        <ele>258.592203</ele>
        <time>2022-08-01T09:45:38.499Z</time>
      </trkpt>
      <trkpt lat="44.4165" lon="1.14927">
        <ele>257.4742</ele>
        <time>2022-08-01T09:45:39.492Z</time>
      </trkpt>
      <trkpt lat="44.41661" lon="1.14919">
        <ele>256.346905</ele>
        <time>2022-08-01T09:45:40.488Z</time>
      </trkpt>
      <trkpt lat="44.41671" lon="1.1491">
        <ele>255.227407</ele>
        <time>2022-08-01T09:45:41.524Z</time>
      </trkpt>
      <trkpt lat="44.41681" lon="1.149">
        <ele>254.053203</ele>
        <time>2022-08-01T09:45:42.491Z</time>
      </trkpt>
      <trkpt lat="44.41689" lon="1.14888">
        <ele>252.932879</ele>
        <time>2022-08-01T09:45:43.466Z</time>
      </trkpt>
      <trkpt lat="44.41697" lon="1.14875">
        <ele>251.776448</ele>
        <time>2022-08-01T09:45:44.480Z</time>
      </trkpt>
      <trkpt lat="44.41706" lon="1.14863">
        <ele>250.767303</ele>
        <time>2022-08-01T09:45:45.474Z</time>
      </trkpt>
      <trkpt lat="44.41714" lon="1.14852">
        <ele>250.062266</ele>
        <time>2022-08-01T09:45:46.487Z</time>
      </trkpt>
      <trkpt lat="44.41722" lon="1.14839">
        <ele>249.368503</ele>
        <time>2022-08-01T09:45:47.520Z</time>
      </trkpt>
      <trkpt lat="44.41729" lon="1.14827">
        <ele>248.675669</ele>
        <time>2022-08-01T09:45:48.469Z</time>
      </trkpt>
      <trkpt lat="44.41737" lon="1.14814">
        <ele>247.975636</ele>
        <time>2022-08-01T09:45:49.476Z</time>
      </trkpt>
      <trkpt lat="44.41746" lon="1.14801">
        <ele>247.24002</ele>
        <time>2022-08-01T09:45:50.496Z</time>
      </trkpt>
      <trkpt lat="44.41753" lon="1.14789">
        <ele>246.536836</ele>
        <time>2022-08-01T09:45:51.501Z</time>
      </trkpt>
      <trkpt lat="44.41762" lon="1.14775">
        <ele>245.783643</ele>
        <time>2022-08-01T09:45:52.484Z</time>
      </trkpt>
      <trkpt lat="44.4177" lon="1.14762">
        <ele>245.048338</ele>
        <time>2022-08-01T09:45:53.493Z</time>
      </trkpt>
      <trkpt lat="44.41777" lon="1.14749">
        <ele>244.330829</ele>
        <time>2022-08-01T09:45:54.466Z</time>
      </trkpt>
      <trkpt lat="44.41785" lon="1.14735">
        <ele>243.59174</ele>
        <time>2022-08-01T09:45:55.480Z</time>
      </trkpt>
      <trkpt lat="44.41793" lon="1.14723">
        <ele>242.884822</ele>
        <time>2022-08-01T09:45:56.504Z</time>
      </trkpt>
      <trkpt lat="44.41801" lon="1.14712">
        <ele>242.22083</ele>
        <time>2022-08-01T09:45:57.498Z</time>
      </trkpt>
      <trkpt lat="44.41809" lon="1.14701">
        <ele>241.561862</ele>
        <time>2022-08-01T09:45:58.475Z</time>
      </trkpt>
      <trkpt lat="44.41818" lon="1.14691">
        <ele>240.886765</ele>
        <time>2022-08-01T09:45:59.520Z</time>
      </trkpt>
      <trkpt lat="44.41827" lon="1.14686">
        <ele>240.304501</ele>
        <time>2022-08-01T09:46:00.483Z</time>
      </trkpt>
      <trkpt lat="44.41837" lon="1.14682">
        <ele>239.86039</ele>
        <time>2022-08-01T09:46:01.483Z</time>
      </trkpt>
      <trkpt lat="44.41846" lon="1.14679">
        <ele>239.457311</ele>
        <time>2022-08-01T09:46:02.486Z</time>
      </trkpt>
      <trkpt lat="44.41856" lon="1.14681">
        <ele>239.002588</ele>
        <time>2022-08-01T09:46:03.476Z</time>
      </trkpt>
      <trkpt lat="44.41866" lon="1.14684">
        <ele>238.549172</ele>
        <time>2022-08-01T09:46:04.481Z</time>
      </trkpt>
      <trkpt lat="44.41876" lon="1.14687">
        <ele>238.109094</ele>
        <time>2022-08-01T09:46:05.498Z</time>
      </trkpt>
      <trkpt lat="44.41885" lon="1.1469">
        <ele>237.688591</ele>
        <time>2022-08-01T09:46:06.500Z</time>
      </trkpt>
      <trkpt lat="44.41903" lon="1.14697">
        <ele>236.880711</ele>
        <time>2022-08-01T09:46:08.486Z</time>
      </trkpt>
      <trkpt lat="44.41917" lon="1.14703">
        <ele>236.245864</ele>
        <time>2022-08-01T09:46:10.502Z</time>
      </trkpt>
      <trkpt lat="44.41927" lon="1.14704">
        <ele>235.788114</ele>
        <time>2022-08-01T09:46:12.471Z</time>
      </trkpt>
      <trkpt lat="44.41937" lon="1.14701">
        <ele>235.334973</ele>
        <time>2022-08-01T09:46:16.498Z</time>
      </trkpt>
      <trkpt lat="44.41936" lon="1.14684">
        <ele>234.798824</ele>
        <time>2022-08-01T09:46:20.491Z</time>
      </trkpt>
      <trkpt lat="44.41935" lon="1.14666">
        <ele>234.248259</ele>
        <time>2022-08-01T09:46:23.482Z</time>
      </trkpt>
      <trkpt lat="44.41935" lon="1.14653">
        <ele>233.82647</ele>
        <time>2022-08-01T09:46:25.483Z</time>
      </trkpt>
      <trkpt lat="44.41935" lon="1.14639">
        <ele>233.397663</ele>
        <time>2022-08-01T09:46:27.482Z</time>
      </trkpt>
      <trkpt lat="44.41934" lon="1.14623">
        <ele>232.8932</ele>
        <time>2022-08-01T09:46:29.483Z</time>
      </trkpt>
      <trkpt lat="44.41934" lon="1.14607">
        <ele>232.434297</ele>
        <time>2022-08-01T09:46:31.495Z</time>
      </trkpt>
      <trkpt lat="44.41933" lon="1.14591">
        <ele>232.582253</ele>
        <time>2022-08-01T09:46:33.463Z</time>
      </trkpt>
      <trkpt lat="44.41933" lon="1.14575">
        <ele>232.734154</ele>
        <time>2022-08-01T09:46:35.469Z</time>
      </trkpt>
      <trkpt lat="44.41932" lon="1.14558">
        <ele>232.889532</ele>
        <time>2022-08-01T09:46:37.485Z</time>
      </trkpt>
      <trkpt lat="44.41932" lon="1.1454">
        <ele>233.05251</ele>
        <time>2022-08-01T09:46:39.464Z</time>
      </trkpt>
      <trkpt lat="44.41931" lon="1.14524">
        <ele>233.209027</ele>
        <time>2022-08-01T09:46:41.494Z</time>
      </trkpt>
      <trkpt lat="44.4193" lon="1.14508">
        <ele>233.352623</ele>
        <time>2022-08-01T09:46:43.500Z</time>
      </trkpt>
      <trkpt lat="44.41929" lon="1.14492">
        <ele>233.505662</ele>
        <time>2022-08-01T09:46:45.474Z</time>
      </trkpt>
      <trkpt lat="44.41928" lon="1.14477">
        <ele>233.641797</ele>
        <time>2022-08-01T09:46:47.479Z</time>
      </trkpt>
      <trkpt lat="44.41927" lon="1.14461">
        <ele>233.785393</ele>
        <time>2022-08-01T09:46:49.475Z</time>
      </trkpt>
      <trkpt lat="44.41927" lon="1.14447">
        <ele>233.91599</ele>
        <time>2022-08-01T09:46:51.496Z</time>
      </trkpt>
      <trkpt lat="44.41927" lon="1.14433">
        <ele>234.05006</ele>
        <time>2022-08-01T09:46:53.487Z</time>
      </trkpt>
      <trkpt lat="44.41926" lon="1.14419">
        <ele>234.178072</ele>
        <time>2022-08-01T09:46:55.482Z</time>
      </trkpt>
      <trkpt lat="44.41925" lon="1.14401">
        <ele>234.349824</ele>
        <time>2022-08-01T09:46:58.508Z</time>
      </trkpt>
      <trkpt lat="44.41923" lon="1.14384">
        <ele>234.504695</ele>
        <time>2022-08-01T09:47:01.477Z</time>
      </trkpt>
      <trkpt lat="44.41922" lon="1.14366">
        <ele>234.669819</ele>
        <time>2022-08-01T09:47:04.510Z</time>
      </trkpt>
      <trkpt lat="44.4192" lon="1.14353">
        <ele>234.891568</ele>
        <time>2022-08-01T09:47:06.484Z</time>
      </trkpt>
      <trkpt lat="44.41918" lon="1.14341">
        <ele>235.280007</ele>
        <time>2022-08-01T09:47:08.480Z</time>
      </trkpt>
      <trkpt lat="44.41917" lon="1.14322">
        <ele>235.855001</ele>
        <time>2022-08-01T09:47:11.490Z</time>
      </trkpt>
      <trkpt lat="44.41915" lon="1.14303">
        <ele>236.432021</ele>
        <time>2022-08-01T09:47:14.497Z</time>
      </trkpt>
      <trkpt lat="44.41914" lon="1.14291">
        <ele>236.823329</ele>
        <time>2022-08-01T09:47:16.496Z</time>
      </trkpt>
      <trkpt lat="44.41914" lon="1.14278">
        <ele>237.218288</ele>
        <time>2022-08-01T09:47:18.497Z</time>
      </trkpt>
      <trkpt lat="44.41911" lon="1.14265">
        <ele>237.635635</ele>
        <time>2022-08-01T09:47:20.460Z</time>
      </trkpt>
      <trkpt lat="44.41909" lon="1.14251">
        <ele>238.074521</ele>
        <time>2022-08-01T09:47:22.509Z</time>
      </trkpt>
      <trkpt lat="44.41907" lon="1.14238">
        <ele>238.487474</ele>
        <time>2022-08-01T09:47:24.482Z</time>
      </trkpt>
      <trkpt lat="44.41904" lon="1.1422">
        <ele>239.053306</ele>
        <time>2022-08-01T09:47:27.497Z</time>
      </trkpt>
      <trkpt lat="44.41901" lon="1.14208">
        <ele>239.452926</ele>
        <time>2022-08-01T09:47:29.467Z</time>
      </trkpt>
      <trkpt lat="44.41899" lon="1.14196">
        <ele>239.844875</ele>
        <time>2022-08-01T09:47:31.476Z</time>
      </trkpt>
      <trkpt lat="44.41896" lon="1.14183">
        <ele>240.237347</ele>
        <time>2022-08-01T09:47:33.478Z</time>
      </trkpt>
      <trkpt lat="44.41894" lon="1.1417">
        <ele>240.661511</ele>
        <time>2022-08-01T09:47:35.467Z</time>
      </trkpt>
      <trkpt lat="44.41891" lon="1.14152">
        <ele>241.21838</ele>
        <time>2022-08-01T09:47:38.484Z</time>
      </trkpt>
      <trkpt lat="44.41888" lon="1.14134">
        <ele>241.792339</ele>
        <time>2022-08-01T09:47:41.494Z</time>
      </trkpt>
      <trkpt lat="44.41884" lon="1.1412">
        <ele>242.268662</ele>
        <time>2022-08-01T09:47:44.496Z</time>
      </trkpt>
      <trkpt lat="44.41881" lon="1.14106">
        <ele>242.416048</ele>
        <time>2022-08-01T09:47:47.486Z</time>
      </trkpt>
      <trkpt lat="44.41878" lon="1.14092">
        <ele>242.191675</ele>
        <time>2022-08-01T09:47:50.482Z</time>
      </trkpt>
      <trkpt lat="44.41875" lon="1.14078">
        <ele>241.968448</ele>
        <time>2022-08-01T09:47:53.476Z</time>
      </trkpt>
      <trkpt lat="44.41872" lon="1.14064">
        <ele>241.745126</ele>
        <time>2022-08-01T09:47:56.480Z</time>
      </trkpt>
      <trkpt lat="44.41868" lon="1.1405">
        <ele>241.523336</ele>
        <time>2022-08-01T09:47:59.480Z</time>
      </trkpt>
      <trkpt lat="44.41865" lon="1.14036">
        <ele>241.29724</ele>
        <time>2022-08-01T09:48:02.478Z</time>
      </trkpt>
      <trkpt lat="44.41861" lon="1.14023">
        <ele>241.079746</ele>
        <time>2022-08-01T09:48:05.492Z</time>
      </trkpt>
      <trkpt lat="44.41858" lon="1.14009">
        <ele>240.861445</ele>
        <time>2022-08-01T09:48:08.482Z</time>
      </trkpt>
      <trkpt lat="44.41855" lon="1.13996">
        <ele>240.642942</ele>
        <time>2022-08-01T09:48:11.479Z</time>
      </trkpt>
      <trkpt lat="44.41852" lon="1.13983">
        <ele>240.434002</ele>
        <time>2022-08-01T09:48:14.484Z</time>
      </trkpt>
      <trkpt lat="44.41849" lon="1.1397">
        <ele>240.22877</ele>
        <time>2022-08-01T09:48:17.491Z</time>
      </trkpt>
      <trkpt lat="44.41845" lon="1.13957">
        <ele>240.021392</ele>
        <time>2022-08-01T09:48:20.477Z</time>
      </trkpt>
      <trkpt lat="44.41843" lon="1.13945">
        <ele>239.818766</ele>
        <time>2022-08-01T09:48:23.504Z</time>
      </trkpt>
      <trkpt lat="44.41839" lon="1.13929">
        <ele>239.56169</ele>
        <time>2022-08-01T09:48:27.478Z</time>
      </trkpt>
      <trkpt lat="44.41837" lon="1.13916">
        <ele>239.365186</ele>
        <time>2022-08-01T09:48:30.476Z</time>
      </trkpt>
      <trkpt lat="44.41837" lon="1.13903">
        <ele>239.163051</ele>
        <time>2022-08-01T09:48:33.478Z</time>
      </trkpt>
      <trkpt lat="44.41838" lon="1.1389">
        <ele>238.962319</ele>
        <time>2022-08-01T09:48:36.474Z</time>
      </trkpt>
      <trkpt lat="44.41841" lon="1.13877">
        <ele>238.761432</ele>
        <time>2022-08-01T09:48:39.486Z</time>
      </trkpt>
      <trkpt lat="44.41844" lon="1.13861">
        <ele>239.456295</ele>
        <time>2022-08-01T09:48:43.447Z</time>
      </trkpt>
      <trkpt lat="44.41849" lon="1.13851">
        <ele>240.42734</ele>
        <time>2022-08-01T09:48:46.530Z</time>
      </trkpt>
      <trkpt lat="44.41854" lon="1.13839">
        <ele>241.451276</ele>
        <time>2022-08-01T09:48:49.483Z</time>
      </trkpt>
      <trkpt lat="44.41857" lon="1.13827">
        <ele>242.443878</ele>
        <time>2022-08-01T09:48:52.525Z</time>
      </trkpt>
      <trkpt lat="44.4186" lon="1.13814">
        <ele>243.434422</ele>
        <time>2022-08-01T09:48:55.486Z</time>
      </trkpt>
      <trkpt lat="44.41864" lon="1.13798">
        <ele>244.70438</ele>
        <time>2022-08-01T09:48:59.486Z</time>
      </trkpt>
      <trkpt lat="44.41866" lon="1.13786">
        <ele>245.682058</ele>
        <time>2022-08-01T09:49:02.477Z</time>
      </trkpt>
      <trkpt lat="44.41868" lon="1.13773">
        <ele>246.65394</ele>
        <time>2022-08-01T09:49:05.480Z</time>
      </trkpt>
      <trkpt lat="44.41869" lon="1.13761">
        <ele>247.623146</ele>
        <time>2022-08-01T09:49:08.475Z</time>
      </trkpt>
      <trkpt lat="44.41868" lon="1.13744">
        <ele>248.851403</ele>
        <time>2022-08-01T09:49:12.478Z</time>
      </trkpt>
      <trkpt lat="44.41864" lon="1.13729">
        <ele>250.114935</ele>
        <time>2022-08-01T09:49:16.504Z</time>
      </trkpt>
      <trkpt lat="44.41859" lon="1.13718">
        <ele>251.097782</ele>
        <time>2022-08-01T09:49:19.467Z</time>
      </trkpt>
      <trkpt lat="44.41852" lon="1.13709">
        <ele>252.064238</ele>
        <time>2022-08-01T09:49:22.511Z</time>
      </trkpt>
      <trkpt lat="44.41843" lon="1.13699">
        <ele>253.31104</ele>
        <time>2022-08-01T09:49:26.489Z</time>
      </trkpt>
      <trkpt lat="44.41835" lon="1.13693">
        <ele>254.284026</ele>
        <time>2022-08-01T09:49:29.486Z</time>
      </trkpt>
      <trkpt lat="44.41828" lon="1.13685">
        <ele>255.272895</ele>
        <time>2022-08-01T09:49:32.451Z</time>
      </trkpt>
      <trkpt lat="44.41818" lon="1.13675">
        <ele>256.527561</ele>
        <time>2022-08-01T09:49:36.459Z</time>
      </trkpt>
      <trkpt lat="44.4181" lon="1.13665">
        <ele>257.716202</ele>
        <time>2022-08-01T09:49:40.505Z</time>
      </trkpt>
      <trkpt lat="44.41802" lon="1.13657">
        <ele>257.971438</ele>
        <time>2022-08-01T09:49:43.478Z</time>
      </trkpt>
      <trkpt lat="44.41795" lon="1.1365">
        <ele>258.168186</ele>
        <time>2022-08-01T09:49:46.509Z</time>
      </trkpt>
      <trkpt lat="44.41788" lon="1.13643">
        <ele>258.364168</ele>
        <time>2022-08-01T09:49:49.485Z</time>
      </trkpt>
      <trkpt lat="44.41779" lon="1.13632">
        <ele>258.62213</ele>
        <time>2022-08-01T09:49:53.471Z</time>
      </trkpt>
      <trkpt lat="44.41772" lon="1.13624">
        <ele>258.823114</ele>
        <time>2022-08-01T09:49:56.474Z</time>
      </trkpt>
      <trkpt lat="44.41765" lon="1.13614">
        <ele>259.032159</ele>
        <time>2022-08-01T09:49:59.478Z</time>
      </trkpt>
      <trkpt lat="44.4176" lon="1.13603">
        <ele>259.234249</ele>
        <time>2022-08-01T09:50:02.462Z</time>
      </trkpt>
      <trkpt lat="44.41756" lon="1.13587">
        <ele>259.487383</ele>
        <time>2022-08-01T09:50:06.493Z</time>
      </trkpt>
      <trkpt lat="44.41758" lon="1.13571">
        <ele>259.743475</ele>
        <time>2022-08-01T09:50:10.507Z</time>
      </trkpt>
      <trkpt lat="44.4176" lon="1.13559">
        <ele>259.944938</ele>
        <time>2022-08-01T09:50:13.496Z</time>
      </trkpt>
      <trkpt lat="44.41763" lon="1.13546">
        <ele>260.141682</ele>
        <time>2022-08-01T09:50:16.506Z</time>
      </trkpt>
      <trkpt lat="44.41768" lon="1.13532">
        <ele>260.391719</ele>
        <time>2022-08-01T09:50:20.496Z</time>
      </trkpt>
      <trkpt lat="44.41771" lon="1.13518">
        <ele>260.624521</ele>
        <time>2022-08-01T09:50:24.478Z</time>
      </trkpt>
      <trkpt lat="44.41773" lon="1.13502">
        <ele>260.873258</ele>
        <time>2022-08-01T09:50:28.506Z</time>
      </trkpt>
      <trkpt lat="44.41773" lon="1.13487">
        <ele>261.109162</ele>
        <time>2022-08-01T09:50:32.474Z</time>
      </trkpt>
      <trkpt lat="44.41771" lon="1.13471">
        <ele>261.356672</ele>
        <time>2022-08-01T09:50:36.458Z</time>
      </trkpt>
      <trkpt lat="44.41766" lon="1.13456">
        <ele>261.612665</ele>
        <time>2022-08-01T09:50:40.522Z</time>
      </trkpt>
      <trkpt lat="44.41759" lon="1.13443">
        <ele>262.043334</ele>
        <time>2022-08-01T09:50:44.494Z</time>
      </trkpt>
      <trkpt lat="44.41751" lon="1.13432">
        <ele>262.57327</ele>
        <time>2022-08-01T09:50:48.485Z</time>
      </trkpt>
      <trkpt lat="44.41741" lon="1.13422">
        <ele>263.101027</ele>
        <time>2022-08-01T09:50:52.472Z</time>
      </trkpt>
      <trkpt lat="44.41732" lon="1.13414">
        <ele>263.568665</ele>
        <time>2022-08-01T09:50:56.464Z</time>
      </trkpt>
      <trkpt lat="44.41722" lon="1.13409">
        <ele>264.031967</ele>
        <time>2022-08-01T09:51:00.487Z</time>
      </trkpt>
      <trkpt lat="44.41711" lon="1.13409">
        <ele>264.511273</ele>
        <time>2022-08-01T09:51:04.472Z</time>
      </trkpt>
      <trkpt lat="44.417" lon="1.1341">
        <ele>265.000246</ele>
        <time>2022-08-01T09:51:08.498Z</time>
      </trkpt>
      <trkpt lat="44.4169" lon="1.13407">
        <ele>265.478357</ele>
        <time>2022-08-01T09:51:12.482Z</time>
      </trkpt>
      <trkpt lat="44.41681" lon="1.13398">
        <ele>265.964101</ele>
        <time>2022-08-01T09:51:16.487Z</time>
      </trkpt>
      <trkpt lat="44.41675" lon="1.13384">
        <ele>266.474882</ele>
        <time>2022-08-01T09:51:20.496Z</time>
      </trkpt>
      <trkpt lat="44.41673" lon="1.13368">
        <ele>266.98889</ele>
        <time>2022-08-01T09:51:24.494Z</time>
      </trkpt>
      <trkpt lat="44.41671" lon="1.13356">
        <ele>267.391239</ele>
        <time>2022-08-01T09:51:27.500Z</time>
      </trkpt>
      <trkpt lat="44.41671" lon="1.13343">
        <ele>267.789034</ele>
        <time>2022-08-01T09:51:30.502Z</time>
      </trkpt>
      <trkpt lat="44.41669" lon="1.13328">
        <ele>268.281268</ele>
        <time>2022-08-01T09:51:34.475Z</time>
      </trkpt>
      <trkpt lat="44.41667" lon="1.13314">
        <ele>268.73312</ele>
        <time>2022-08-01T09:51:38.479Z</time>
      </trkpt>
      <trkpt lat="44.41665" lon="1.133">
        <ele>269.171055</ele>
        <time>2022-08-01T09:51:42.479Z</time>
      </trkpt>
      <trkpt lat="44.41664" lon="1.13286">
        <ele>269.619773</ele>
        <time>2022-08-01T09:51:46.464Z</time>
      </trkpt>
      <trkpt lat="44.41662" lon="1.13272">
        <ele>270.215153</ele>
        <time>2022-08-01T09:51:50.459Z</time>
      </trkpt>
      <trkpt lat="44.41661" lon="1.13257">
        <ele>270.839758</ele>
        <time>2022-08-01T09:51:54.500Z</time>
      </trkpt>
      <trkpt lat="44.4166" lon="1.13242">
        <ele>271.479529</ele>
        <time>2022-08-01T09:51:58.485Z</time>
      </trkpt>
      <trkpt lat="44.41659" lon="1.13227">
        <ele>272.113808</ele>
        <time>2022-08-01T09:52:02.462Z</time>
      </trkpt>
      <trkpt lat="44.41659" lon="1.13212">
        <ele>272.751958</ele>
        <time>2022-08-01T09:52:06.494Z</time>
      </trkpt>
      <trkpt lat="44.41658" lon="1.13198">
        <ele>273.348059</ele>
        <time>2022-08-01T09:52:10.496Z</time>
      </trkpt>
      <trkpt lat="44.41653" lon="1.13184">
        <ele>273.989332</ele>
        <time>2022-08-01T09:52:14.465Z</time>
      </trkpt>
      <trkpt lat="44.41648" lon="1.1317">
        <ele>274.632297</ele>
        <time>2022-08-01T09:52:18.480Z</time>
      </trkpt>
      <trkpt lat="44.4164" lon="1.1316">
        <ele>275.263856</ele>
        <time>2022-08-01T09:52:22.485Z</time>
      </trkpt>
      <trkpt lat="44.41632" lon="1.1315">
        <ele>275.911282</ele>
        <time>2022-08-01T09:52:26.465Z</time>
      </trkpt>
      <trkpt lat="44.41622" lon="1.13141">
        <ele>276.595157</ele>
        <time>2022-08-01T09:52:30.486Z</time>
      </trkpt>
      <trkpt lat="44.41611" lon="1.13135">
        <ele>277.276462</ele>
        <time>2022-08-01T09:52:34.494Z</time>
      </trkpt>
      <trkpt lat="44.416" lon="1.13133">
        <ele>277.944367</ele>
        <time>2022-08-01T09:52:38.472Z</time>
      </trkpt>
      <trkpt lat="44.41588" lon="1.13134">
        <ele>278.632992</ele>
        <time>2022-08-01T09:52:42.485Z</time>
      </trkpt>
      <trkpt lat="44.41577" lon="1.13137">
        <ele>279.305314</ele>
        <time>2022-08-01T09:52:46.464Z</time>
      </trkpt>
      <trkpt lat="44.41567" lon="1.13139">
        <ele>279.935695</ele>
        <time>2022-08-01T09:52:50.490Z</time>
      </trkpt>
      <trkpt lat="44.41557" lon="1.13143">
        <ele>280.246814</ele>
        <time>2022-08-01T09:52:54.492Z</time>
      </trkpt>
      <trkpt lat="44.41547" lon="1.13143">
        <ele>280.240644</ele>
        <time>2022-08-01T09:52:58.471Z</time>
      </trkpt>
      <trkpt lat="44.41536" lon="1.13143">
        <ele>280.233736</ele>
        <time>2022-08-01T09:53:02.453Z</time>
      </trkpt>
      <trkpt lat="44.41524" lon="1.13143">
        <ele>280.226705</ele>
        <time>2022-08-01T09:53:06.483Z</time>
      </trkpt>
      <trkpt lat="44.41513" lon="1.13143">
        <ele>280.219797</ele>
        <time>2022-08-01T09:53:10.474Z</time>
      </trkpt>
      <trkpt lat="44.41501" lon="1.13141">
        <ele>280.212466</ele>
        <time>2022-08-01T09:53:14.489Z</time>
      </trkpt>
      <trkpt lat="44.4149" lon="1.13141">
        <ele>280.205187</ele>
        <time>2022-08-01T09:53:18.467Z</time>
      </trkpt>
      <trkpt lat="44.41479" lon="1.13143">
        <ele>280.198432</ele>
        <time>2022-08-01T09:53:22.482Z</time>
      </trkpt>
      <trkpt lat="44.41468" lon="1.13147">
        <ele>280.191685</ele>
        <time>2022-08-01T09:53:26.479Z</time>
      </trkpt>
      <trkpt lat="44.41458" lon="1.13154">
        <ele>280.184475</ele>
        <time>2022-08-01T09:53:30.496Z</time>
      </trkpt>
      <trkpt lat="44.41448" lon="1.13162">
        <ele>280.177478</ele>
        <time>2022-08-01T09:53:34.479Z</time>
      </trkpt>
      <trkpt lat="44.41437" lon="1.13169">
        <ele>280.170118</ele>
        <time>2022-08-01T09:53:38.460Z</time>
      </trkpt>
      <trkpt lat="44.41427" lon="1.13176">
        <ele>280.163222</ele>
        <time>2022-08-01T09:53:42.465Z</time>
      </trkpt>
      <trkpt lat="44.41417" lon="1.13183">
        <ele>280.156608</ele>
        <time>2022-08-01T09:53:46.502Z</time>
      </trkpt>
      <trkpt lat="44.41407" lon="1.13188">
        <ele>280.149908</ele>
        <time>2022-08-01T09:53:50.489Z</time>
      </trkpt>
      <trkpt lat="44.41397" lon="1.13194">
        <ele>280.143208</ele>
        <time>2022-08-01T09:53:54.473Z</time>
      </trkpt>
      <trkpt lat="44.41386" lon="1.13199">
        <ele>280.338584</ele>
        <time>2022-08-01T09:53:58.467Z</time>
      </trkpt>
      <trkpt lat="44.41378" lon="1.13203">
        <ele>280.764225</ele>
        <time>2022-08-01T09:54:01.483Z</time>
      </trkpt>
      <trkpt lat="44.41367" lon="1.13207">
        <ele>281.272048</ele>
        <time>2022-08-01T09:54:05.484Z</time>
      </trkpt>
      <trkpt lat="44.41357" lon="1.1321">
        <ele>281.773896</ele>
        <time>2022-08-01T09:54:09.522Z</time>
      </trkpt>
      <trkpt lat="44.41346" lon="1.13211">
        <ele>282.278097</ele>
        <time>2022-08-01T09:54:13.475Z</time>
      </trkpt>
      <trkpt lat="44.41335" lon="1.13212">
        <ele>282.799066</ele>
        <time>2022-08-01T09:54:17.483Z</time>
      </trkpt>
      <trkpt lat="44.41324" lon="1.13213">
        <ele>283.340093</ele>
        <time>2022-08-01T09:54:21.512Z</time>
      </trkpt>
      <trkpt lat="44.41312" lon="1.13212">
        <ele>283.890819</ele>
        <time>2022-08-01T09:54:25.485Z</time>
      </trkpt>
      <trkpt lat="44.41302" lon="1.13211">
        <ele>284.379951</ele>
        <time>2022-08-01T09:54:29.468Z</time>
      </trkpt>
      <trkpt lat="44.4129" lon="1.13208">
        <ele>284.952785</ele>
        <time>2022-08-01T09:54:33.506Z</time>
      </trkpt>
      <trkpt lat="44.4128" lon="1.13204">
        <ele>285.433629</ele>
        <time>2022-08-01T09:54:37.475Z</time>
      </trkpt>
      <trkpt lat="44.41271" lon="1.132">
        <ele>285.924979</ele>
        <time>2022-08-01T09:54:41.481Z</time>
      </trkpt>
      <trkpt lat="44.4126" lon="1.13196">
        <ele>286.452819</ele>
        <time>2022-08-01T09:54:45.525Z</time>
      </trkpt>
      <trkpt lat="44.41249" lon="1.13192">
        <ele>286.973615</ele>
        <time>2022-08-01T09:54:49.476Z</time>
      </trkpt>
      <trkpt lat="44.41239" lon="1.1319">
        <ele>287.445036</ele>
        <time>2022-08-01T09:54:53.463Z</time>
      </trkpt>
      <trkpt lat="44.41229" lon="1.1319">
        <ele>287.951425</ele>
        <time>2022-08-01T09:54:57.519Z</time>
      </trkpt>
      <trkpt lat="44.41218" lon="1.13191">
        <ele>288.470095</ele>
        <time>2022-08-01T09:55:01.478Z</time>
      </trkpt>
      <trkpt lat="44.41208" lon="1.13194">
        <ele>288.736766</ele>
        <time>2022-08-01T09:55:05.471Z</time>
      </trkpt>
      <trkpt lat="44.41196" lon="1.13197">
        <ele>288.891771</ele>
        <time>2022-08-01T09:55:09.507Z</time>
      </trkpt>
      <trkpt lat="44.41187" lon="1.132">
        <ele>289.013814</ele>
        <time>2022-08-01T09:55:12.467Z</time>
      </trkpt>
      <trkpt lat="44.41177" lon="1.13204">
        <ele>289.151954</ele>
        <time>2022-08-01T09:55:16.476Z</time>
      </trkpt>
      <trkpt lat="44.41167" lon="1.13208">
        <ele>289.290094</ele>
        <time>2022-08-01T09:55:20.469Z</time>
      </trkpt>
      <trkpt lat="44.41157" lon="1.13212">
        <ele>289.436213</ele>
        <time>2022-08-01T09:55:24.492Z</time>
      </trkpt>
      <trkpt lat="44.41146" lon="1.13217">
        <ele>289.583883</ele>
        <time>2022-08-01T09:55:28.482Z</time>
      </trkpt>
      <trkpt lat="44.41136" lon="1.13223">
        <ele>289.732885</ele>
        <time>2022-08-01T09:55:32.507Z</time>
      </trkpt>
      <trkpt lat="44.41128" lon="1.13229">
        <ele>289.854519</ele>
        <time>2022-08-01T09:55:35.461Z</time>
      </trkpt>
      <trkpt lat="44.41118" lon="1.13237">
        <ele>290.009013</ele>
        <time>2022-08-01T09:55:39.530Z</time>
      </trkpt>
      <trkpt lat="44.41109" lon="1.13242">
        <ele>290.13268</ele>
        <time>2022-08-01T09:55:42.479Z</time>
      </trkpt>
      <trkpt lat="44.41099" lon="1.13248">
        <ele>290.28491</ele>
        <time>2022-08-01T09:55:46.485Z</time>
      </trkpt>
      <trkpt lat="44.41089" lon="1.13257">
        <ele>290.438105</ele>
        <time>2022-08-01T09:55:50.494Z</time>
      </trkpt>
      <trkpt lat="44.41081" lon="1.13263">
        <ele>290.5619</ele>
        <time>2022-08-01T09:55:53.474Z</time>
      </trkpt>
      <trkpt lat="44.41071" lon="1.13271">
        <ele>290.709056</ele>
        <time>2022-08-01T09:55:57.510Z</time>
      </trkpt>
      <trkpt lat="44.41061" lon="1.13279">
        <ele>290.865631</ele>
        <time>2022-08-01T09:56:01.479Z</time>
      </trkpt>
      <trkpt lat="44.41051" lon="1.13287">
        <ele>291.017551</ele>
        <time>2022-08-01T09:56:05.466Z</time>
      </trkpt>
      <trkpt lat="44.41042" lon="1.13296">
        <ele>291.400007</ele>
        <time>2022-08-01T09:56:09.534Z</time>
      </trkpt>
      <trkpt lat="44.41034" lon="1.13303">
        <ele>291.769623</ele>
        <time>2022-08-01T09:56:12.465Z</time>
      </trkpt>
      <trkpt lat="44.41023" lon="1.13309">
        <ele>292.242471</ele>
        <time>2022-08-01T09:56:16.488Z</time>
      </trkpt>
      <trkpt lat="44.41014" lon="1.13313">
        <ele>292.61062</ele>
        <time>2022-08-01T09:56:19.465Z</time>
      </trkpt>
      <trkpt lat="44.41003" lon="1.13317">
        <ele>293.063546</ele>
        <time>2022-08-01T09:56:23.496Z</time>
      </trkpt>
      <trkpt lat="44.40992" lon="1.13319">
        <ele>293.506483</ele>
        <time>2022-08-01T09:56:27.518Z</time>
      </trkpt>
      <trkpt lat="44.40982" lon="1.13321">
        <ele>293.903528</ele>
        <time>2022-08-01T09:56:31.475Z</time>
      </trkpt>
      <trkpt lat="44.40972" lon="1.13323">
        <ele>294.31848</ele>
        <time>2022-08-01T09:56:35.459Z</time>
      </trkpt>
      <trkpt lat="44.40961" lon="1.13324">
        <ele>294.760189</ele>
        <time>2022-08-01T09:56:39.493Z</time>
      </trkpt>
      <trkpt lat="44.40951" lon="1.13325">
        <ele>295.133844</ele>
        <time>2022-08-01T09:56:42.489Z</time>
      </trkpt>
      <trkpt lat="44.40942" lon="1.13326">
        <ele>295.516426</ele>
        <time>2022-08-01T09:56:45.530Z</time>
      </trkpt>
      <trkpt lat="44.40932" lon="1.13328">
        <ele>295.900528</ele>
        <time>2022-08-01T09:56:48.469Z</time>
      </trkpt>
      <trkpt lat="44.40922" lon="1.13329">
        <ele>296.296448</ele>
        <time>2022-08-01T09:56:51.533Z</time>
      </trkpt>
      <trkpt lat="44.40912" lon="1.1333">
        <ele>296.689462</ele>
        <time>2022-08-01T09:56:54.491Z</time>
      </trkpt>
      <trkpt lat="44.40903" lon="1.13329">
        <ele>297.083091</ele>
        <time>2022-08-01T09:56:57.511Z</time>
      </trkpt>
      <trkpt lat="44.40893" lon="1.13327">
        <ele>297.451446</ele>
        <time>2022-08-01T09:57:00.489Z</time>
      </trkpt>
      <trkpt lat="44.40882" lon="1.13325">
        <ele>297.917766</ele>
        <time>2022-08-01T09:57:04.493Z</time>
      </trkpt>
      <trkpt lat="44.40872" lon="1.1332">
        <ele>298.237578</ele>
        <time>2022-08-01T09:57:07.493Z</time>
      </trkpt>
      <trkpt lat="44.40863" lon="1.13317">
        <ele>298.366461</ele>
        <time>2022-08-01T09:57:10.472Z</time>
      </trkpt>
      <trkpt lat="44.40854" lon="1.13314">
        <ele>298.492449</ele>
        <time>2022-08-01T09:57:13.484Z</time>
      </trkpt>
      <trkpt lat="44.40845" lon="1.1331">
        <ele>298.616873</ele>
        <time>2022-08-01T09:57:16.472Z</time>
      </trkpt>
      <trkpt lat="44.40834" lon="1.13307">
        <ele>298.774831</ele>
        <time>2022-08-01T09:57:20.483Z</time>
      </trkpt>
      <trkpt lat="44.40822" lon="1.13303">
        <ele>298.934327</ele>
        <time>2022-08-01T09:57:24.482Z</time>
      </trkpt>
      <trkpt lat="44.40814" lon="1.13299">
        <ele>299.060315</ele>
        <time>2022-08-01T09:57:27.510Z</time>
      </trkpt>
      <trkpt lat="44.40802" lon="1.13295">
        <ele>299.223794</ele>
        <time>2022-08-01T09:57:31.478Z</time>
      </trkpt>
      <trkpt lat="44.40792" lon="1.13292">
        <ele>299.359793</ele>
        <time>2022-08-01T09:57:34.468Z</time>
      </trkpt>
      <trkpt lat="44.40782" lon="1.1329">
        <ele>299.497117</ele>
        <time>2022-08-01T09:57:37.478Z</time>
      </trkpt>
      <trkpt lat="44.40773" lon="1.13286">
        <ele>299.626606</ele>
        <time>2022-08-01T09:57:40.500Z</time>
      </trkpt>
      <trkpt lat="44.40763" lon="1.13283">
        <ele>299.772616</ele>
        <time>2022-08-01T09:57:43.507Z</time>
      </trkpt>
      <trkpt lat="44.40751" lon="1.13279">
        <ele>299.935205</ele>
        <time>2022-08-01T09:57:46.480Z</time>
      </trkpt>
      <trkpt lat="44.40738" lon="1.13274">
        <ele>300.121113</ele>
        <time>2022-08-01T09:57:49.480Z</time>
      </trkpt>
      <trkpt lat="44.40729" lon="1.13272">
        <ele>300.244604</ele>
        <time>2022-08-01T09:57:51.510Z</time>
      </trkpt>
      <trkpt lat="44.40717" lon="1.13268">
        <ele>300.414513</ele>
        <time>2022-08-01T09:57:54.488Z</time>
      </trkpt>
      <trkpt lat="44.40708" lon="1.13264">
        <ele>300.540823</ele>
        <time>2022-08-01T09:57:56.469Z</time>
      </trkpt>
      <trkpt lat="44.40699" lon="1.1326">
        <ele>300.665046</ele>
        <time>2022-08-01T09:57:58.473Z</time>
      </trkpt>
      <trkpt lat="44.40687" lon="1.13256">
        <ele>300.794621</ele>
        <time>2022-08-01T09:58:01.468Z</time>
      </trkpt>
      <trkpt lat="44.40677" lon="1.1325">
        <ele>300.914758</ele>
        <time>2022-08-01T09:58:04.470Z</time>
      </trkpt>
      <trkpt lat="44.40667" lon="1.13247">
        <ele>301.015139</ele>
        <time>2022-08-01T09:58:06.468Z</time>
      </trkpt>
      <trkpt lat="44.40655" lon="1.13244">
        <ele>301.142755</ele>
        <time>2022-08-01T09:58:09.499Z</time>
      </trkpt>
      <trkpt lat="44.40646" lon="1.13241">
        <ele>301.238466</ele>
        <time>2022-08-01T09:58:11.472Z</time>
      </trkpt>
      <trkpt lat="44.40636" lon="1.1324">
        <ele>301.339792</ele>
        <time>2022-08-01T09:58:13.467Z</time>
      </trkpt>
      <trkpt lat="44.40626" lon="1.13241">
        <ele>301.445761</ele>
        <time>2022-08-01T09:58:15.495Z</time>
      </trkpt>
      <trkpt lat="44.40617" lon="1.13243">
        <ele>301.543983</ele>
        <time>2022-08-01T09:58:17.479Z</time>
      </trkpt>
      <trkpt lat="44.40607" lon="1.13244">
        <ele>301.644142</ele>
        <time>2022-08-01T09:58:19.478Z</time>
      </trkpt>
      <trkpt lat="44.40594" lon="1.13247">
        <ele>301.78127</ele>
        <time>2022-08-01T09:58:22.480Z</time>
      </trkpt>
      <trkpt lat="44.40585" lon="1.13251">
        <ele>301.881605</ele>
        <time>2022-08-01T09:58:24.466Z</time>
      </trkpt>
      <trkpt lat="44.40574" lon="1.13253">
        <ele>301.994533</ele>
        <time>2022-08-01T09:58:26.483Z</time>
      </trkpt>
      <trkpt lat="44.40564" lon="1.13254">
        <ele>302.097521</ele>
        <time>2022-08-01T09:58:28.475Z</time>
      </trkpt>
      <trkpt lat="44.40554" lon="1.13256">
        <ele>302.209772</ele>
        <time>2022-08-01T09:58:30.472Z</time>
      </trkpt>
      <trkpt lat="44.40545" lon="1.13257">
        <ele>302.306001</ele>
        <time>2022-08-01T09:58:32.472Z</time>
      </trkpt>
      <trkpt lat="44.40534" lon="1.1326">
        <ele>302.421374</ele>
        <time>2022-08-01T09:58:34.484Z</time>
      </trkpt>
      <trkpt lat="44.40522" lon="1.13262">
        <ele>302.49571</ele>
        <time>2022-08-01T09:58:36.461Z</time>
      </trkpt>
      <trkpt lat="44.40512" lon="1.13267">
        <ele>302.373329</ele>
        <time>2022-08-01T09:58:38.484Z</time>
      </trkpt>
      <trkpt lat="44.40501" lon="1.13271">
        <ele>302.249188</ele>
        <time>2022-08-01T09:58:40.484Z</time>
      </trkpt>
      <trkpt lat="44.40491" lon="1.13274">
        <ele>302.137741</ele>
        <time>2022-08-01T09:58:42.482Z</time>
      </trkpt>
      <trkpt lat="44.4048" lon="1.13277">
        <ele>302.012717</ele>
        <time>2022-08-01T09:58:44.481Z</time>
      </trkpt>
      <trkpt lat="44.40469" lon="1.13279">
        <ele>301.88975</ele>
        <time>2022-08-01T09:58:46.473Z</time>
      </trkpt>
      <trkpt lat="44.40458" lon="1.13283">
        <ele>301.769467</ele>
        <time>2022-08-01T09:58:48.498Z</time>
      </trkpt>
      <trkpt lat="44.40447" lon="1.13286">
        <ele>301.642701</ele>
        <time>2022-08-01T09:58:50.474Z</time>
      </trkpt>
      <trkpt lat="44.40436" lon="1.13289">
        <ele>301.52089</ele>
        <time>2022-08-01T09:58:52.482Z</time>
      </trkpt>
      <trkpt lat="44.40424" lon="1.13291">
        <ele>301.391826</ele>
        <time>2022-08-01T09:58:54.474Z</time>
      </trkpt>
      <trkpt lat="44.40414" lon="1.13295">
        <ele>301.268066</ele>
        <time>2022-08-01T09:58:56.474Z</time>
      </trkpt>
      <trkpt lat="44.40402" lon="1.13299">
        <ele>301.13332</ele>
        <time>2022-08-01T09:58:58.474Z</time>
      </trkpt>
      <trkpt lat="44.40392" lon="1.13305">
        <ele>301.01652</ele>
        <time>2022-08-01T09:59:00.491Z</time>
      </trkpt>
      <trkpt lat="44.4038" lon="1.13312">
        <ele>300.878352</ele>
        <time>2022-08-01T09:59:02.484Z</time>
      </trkpt>
      <trkpt lat="44.40369" lon="1.13321">
        <ele>300.73585</ele>
        <time>2022-08-01T09:59:04.494Z</time>
      </trkpt>
      <trkpt lat="44.40358" lon="1.13329">
        <ele>300.600409</ele>
        <time>2022-08-01T09:59:06.471Z</time>
      </trkpt>
      <trkpt lat="44.40347" lon="1.13335">
        <ele>300.414158</ele>
        <time>2022-08-01T09:59:08.471Z</time>
      </trkpt>
      <trkpt lat="44.40336" lon="1.13343">
        <ele>300.191153</ele>
        <time>2022-08-01T09:59:10.490Z</time>
      </trkpt>
      <trkpt lat="44.40326" lon="1.13349">
        <ele>299.983955</ele>
        <time>2022-08-01T09:59:12.470Z</time>
      </trkpt>
      <trkpt lat="44.40315" lon="1.13359">
        <ele>299.735649</ele>
        <time>2022-08-01T09:59:15.500Z</time>
      </trkpt>
      <trkpt lat="44.40306" lon="1.13366">
        <ele>299.543351</ele>
        <time>2022-08-01T09:59:17.490Z</time>
      </trkpt>
      <trkpt lat="44.40296" lon="1.13372">
        <ele>299.331136</ele>
        <time>2022-08-01T09:59:19.480Z</time>
      </trkpt>
      <trkpt lat="44.40286" lon="1.13378">
        <ele>299.131052</ele>
        <time>2022-08-01T09:59:21.499Z</time>
      </trkpt>
      <trkpt lat="44.40276" lon="1.13386">
        <ele>298.915081</ele>
        <time>2022-08-01T09:59:23.488Z</time>
      </trkpt>
      <trkpt lat="44.40267" lon="1.13392">
        <ele>298.729814</ele>
        <time>2022-08-01T09:59:25.502Z</time>
      </trkpt>
      <trkpt lat="44.40258" lon="1.13399">
        <ele>298.526835</ele>
        <time>2022-08-01T09:59:27.507Z</time>
      </trkpt>
      <trkpt lat="44.40247" lon="1.13405">
        <ele>298.306242</ele>
        <time>2022-08-01T09:59:29.494Z</time>
      </trkpt>
      <trkpt lat="44.40236" lon="1.13412">
        <ele>298.08171</ele>
        <time>2022-08-01T09:59:31.480Z</time>
      </trkpt>
      <trkpt lat="44.40227" lon="1.13419">
        <ele>297.882859</ele>
        <time>2022-08-01T09:59:33.506Z</time>
      </trkpt>
      <trkpt lat="44.40219" lon="1.13427">
        <ele>297.698891</ele>
        <time>2022-08-01T09:59:35.463Z</time>
      </trkpt>
      <trkpt lat="44.4021" lon="1.13434">
        <ele>297.501974</ele>
        <time>2022-08-01T09:59:37.468Z</time>
      </trkpt>
      <trkpt lat="44.402" lon="1.13441">
        <ele>297.2877</ele>
        <time>2022-08-01T09:59:39.508Z</time>
      </trkpt>
      <trkpt lat="44.40189" lon="1.13446">
        <ele>297.242189</ele>
        <time>2022-08-01T09:59:41.479Z</time>
      </trkpt>
      <trkpt lat="44.40178" lon="1.13447">
        <ele>297.596489</ele>
        <time>2022-08-01T09:59:43.480Z</time>
      </trkpt>
      <trkpt lat="44.40166" lon="1.13447">
        <ele>297.987335</ele>
        <time>2022-08-01T09:59:45.504Z</time>
      </trkpt>
      <trkpt lat="44.40154" lon="1.13443">
        <ele>298.364832</ele>
        <time>2022-08-01T09:59:47.496Z</time>
      </trkpt>
      <trkpt lat="44.40143" lon="1.13436">
        <ele>298.755465</ele>
        <time>2022-08-01T09:59:49.473Z</time>
      </trkpt>
      <trkpt lat="44.40132" lon="1.13429">
        <ele>299.155672</ele>
        <time>2022-08-01T09:59:51.476Z</time>
      </trkpt>
      <trkpt lat="44.4012" lon="1.13421">
        <ele>299.567416</ele>
        <time>2022-08-01T09:59:53.468Z</time>
      </trkpt>
      <trkpt lat="44.40108" lon="1.13415">
        <ele>299.977585</ele>
        <time>2022-08-01T09:59:55.484Z</time>
      </trkpt>
      <trkpt lat="44.40097" lon="1.13408">
        <ele>300.364033</ele>
        <time>2022-08-01T09:59:57.476Z</time>
      </trkpt>
      <trkpt lat="44.40085" lon="1.13402">
        <ele>300.763598</ele>
        <time>2022-08-01T09:59:59.485Z</time>
      </trkpt>
      <trkpt lat="44.40073" lon="1.13394">
        <ele>301.169607</ele>
        <time>2022-08-01T10:00:01.492Z</time>
      </trkpt>
      <trkpt lat="44.40062" lon="1.13387">
        <ele>301.563318</ele>
        <time>2022-08-01T10:00:03.468Z</time>
      </trkpt>
      <trkpt lat="44.40052" lon="1.13381">
        <ele>301.912808</ele>
        <time>2022-08-01T10:00:05.485Z</time>
      </trkpt>
      <trkpt lat="44.40041" lon="1.13375">
        <ele>302.284934</ele>
        <time>2022-08-01T10:00:07.473Z</time>
      </trkpt>
      <trkpt lat="44.40031" lon="1.13369">
        <ele>302.62952</ele>
        <time>2022-08-01T10:00:09.491Z</time>
      </trkpt>
      <trkpt lat="44.40021" lon="1.13362">
        <ele>302.911001</ele>
        <time>2022-08-01T10:00:11.478Z</time>
      </trkpt>
      <trkpt lat="44.4001" lon="1.13356">
        <ele>303.059953</ele>
        <time>2022-08-01T10:00:13.465Z</time>
      </trkpt>
      <trkpt lat="44.40001" lon="1.1335">
        <ele>303.194337</ele>
        <time>2022-08-01T10:00:15.490Z</time>
      </trkpt>
      <trkpt lat="44.39992" lon="1.13344">
        <ele>303.320657</ele>
        <time>2022-08-01T10:00:17.473Z</time>
      </trkpt>
      <trkpt lat="44.39985" lon="1.13337">
        <ele>303.437665</ele>
        <time>2022-08-01T10:00:19.458Z</time>
      </trkpt>
      <trkpt lat="44.39978" lon="1.13321">
        <ele>303.611082</ele>
        <time>2022-08-01T10:00:22.481Z</time>
      </trkpt>
      <trkpt lat="44.3998" lon="1.13305">
        <ele>303.764597</ele>
        <time>2022-08-01T10:00:24.480Z</time>
      </trkpt>
      <trkpt lat="44.39981" lon="1.13287">
        <ele>303.932542</ele>
        <time>2022-08-01T10:00:26.509Z</time>
      </trkpt>
      <trkpt lat="44.39981" lon="1.13267">
        <ele>304.113128</ele>
        <time>2022-08-01T10:00:28.470Z</time>
      </trkpt>
      <trkpt lat="44.39983" lon="1.13248">
        <ele>304.300755</ele>
        <time>2022-08-01T10:00:30.499Z</time>
      </trkpt>
      <trkpt lat="44.39983" lon="1.13227">
        <ele>304.49437</ele>
        <time>2022-08-01T10:00:32.509Z</time>
      </trkpt>
      <trkpt lat="44.39985" lon="1.13205">
        <ele>304.694164</ele>
        <time>2022-08-01T10:00:34.483Z</time>
      </trkpt>
      <trkpt lat="44.39986" lon="1.13183">
        <ele>304.906775</ele>
        <time>2022-08-01T10:00:36.452Z</time>
      </trkpt>
      <trkpt lat="44.39986" lon="1.1316">
        <ele>305.112537</ele>
        <time>2022-08-01T10:00:38.514Z</time>
      </trkpt>
      <trkpt lat="44.39986" lon="1.13139">
        <ele>304.877837</ele>
        <time>2022-08-01T10:00:40.496Z</time>
      </trkpt>
      <trkpt lat="44.39987" lon="1.13117">
        <ele>304.328117</ele>
        <time>2022-08-01T10:00:42.493Z</time>
      </trkpt>
      <trkpt lat="44.39987" lon="1.13096">
        <ele>303.765033</ele>
        <time>2022-08-01T10:00:44.496Z</time>
      </trkpt>
      <trkpt lat="44.39988" lon="1.13076">
        <ele>303.248345</ele>
        <time>2022-08-01T10:00:46.444Z</time>
      </trkpt>
      <trkpt lat="44.3999" lon="1.13055">
        <ele>302.708906</ele>
        <time>2022-08-01T10:00:48.463Z</time>
      </trkpt>
      <trkpt lat="44.39991" lon="1.13033">
        <ele>302.14122</ele>
        <time>2022-08-01T10:00:50.474Z</time>
      </trkpt>
      <trkpt lat="44.39991" lon="1.1301">
        <ele>301.545149</ele>
        <time>2022-08-01T10:00:52.475Z</time>
      </trkpt>
      <trkpt lat="44.39992" lon="1.12987">
        <ele>300.961589</ele>
        <time>2022-08-01T10:00:54.470Z</time>
      </trkpt>
      <trkpt lat="44.39992" lon="1.12966">
        <ele>300.406768</ele>
        <time>2022-08-01T10:00:56.478Z</time>
      </trkpt>
      <trkpt lat="44.39992" lon="1.12944">
        <ele>299.851982</ele>
        <time>2022-08-01T10:00:58.469Z</time>
      </trkpt>
      <trkpt lat="44.39992" lon="1.12922">
        <ele>299.286782</ele>
        <time>2022-08-01T10:01:00.478Z</time>
      </trkpt>
      <trkpt lat="44.39992" lon="1.12901">
        <ele>298.731714</ele>
        <time>2022-08-01T10:01:02.457Z</time>
      </trkpt>
      <trkpt lat="44.39992" lon="1.12878">
        <ele>298.831558</ele>
        <time>2022-08-01T10:01:04.476Z</time>
      </trkpt>
      <trkpt lat="44.39993" lon="1.12858">
        <ele>298.952346</ele>
        <time>2022-08-01T10:01:06.484Z</time>
      </trkpt>
      <trkpt lat="44.39993" lon="1.12839">
        <ele>299.069423</ele>
        <time>2022-08-01T10:01:08.477Z</time>
      </trkpt>
      <trkpt lat="44.39994" lon="1.12821">
        <ele>299.178417</ele>
        <time>2022-08-01T10:01:10.474Z</time>
      </trkpt>
      <trkpt lat="44.39994" lon="1.128">
        <ele>299.30143</ele>
        <time>2022-08-01T10:01:12.480Z</time>
      </trkpt>
      <trkpt lat="44.39993" lon="1.1278">
        <ele>299.425671</ele>
        <time>2022-08-01T10:01:14.449Z</time>
      </trkpt>
      <trkpt lat="44.39994" lon="1.12759">
        <ele>299.546929</ele>
        <time>2022-08-01T10:01:16.480Z</time>
      </trkpt>
      <trkpt lat="44.39995" lon="1.12739">
        <ele>299.670163</ele>
        <time>2022-08-01T10:01:18.468Z</time>
      </trkpt>
      <trkpt lat="44.39996" lon="1.12719">
        <ele>299.791056</ele>
        <time>2022-08-01T10:01:20.462Z</time>
      </trkpt>
      <trkpt lat="44.39997" lon="1.12698">
        <ele>299.913504</ele>
        <time>2022-08-01T10:01:22.475Z</time>
      </trkpt>
      <trkpt lat="44.39998" lon="1.12678">
        <ele>300.037237</ele>
        <time>2022-08-01T10:01:24.482Z</time>
      </trkpt>
      <trkpt lat="44.39999" lon="1.12657">
        <ele>300.165683</ele>
        <time>2022-08-01T10:01:26.474Z</time>
      </trkpt>
      <trkpt lat="44.39999" lon="1.12634">
        <ele>300.12905</ele>
        <time>2022-08-01T10:01:28.484Z</time>
      </trkpt>
      <trkpt lat="44.4" lon="1.12613">
        <ele>300.000541</ele>
        <time>2022-08-01T10:01:30.477Z</time>
      </trkpt>
      <trkpt lat="44.40001" lon="1.12591">
        <ele>299.866916</ele>
        <time>2022-08-01T10:01:32.468Z</time>
      </trkpt>
      <trkpt lat="44.40002" lon="1.12569">
        <ele>299.734199</ele>
        <time>2022-08-01T10:01:34.471Z</time>
      </trkpt>
      <trkpt lat="44.40003" lon="1.12547">
        <ele>299.603834</ele>
        <time>2022-08-01T10:01:36.468Z</time>
      </trkpt>
      <trkpt lat="44.40004" lon="1.12525">
        <ele>299.46806</ele>
        <time>2022-08-01T10:01:38.473Z</time>
      </trkpt>
      <trkpt lat="44.40005" lon="1.12502">
        <ele>299.331685</ele>
        <time>2022-08-01T10:01:40.487Z</time>
      </trkpt>
      <trkpt lat="44.40006" lon="1.1248">
        <ele>299.196513</ele>
        <time>2022-08-01T10:01:42.480Z</time>
      </trkpt>
      <trkpt lat="44.40007" lon="1.12457">
        <ele>299.060739</ele>
        <time>2022-08-01T10:01:44.467Z</time>
      </trkpt>
      <trkpt lat="44.40008" lon="1.12436">
        <ele>298.931676</ele>
        <time>2022-08-01T10:01:46.479Z</time>
      </trkpt>
      <trkpt lat="44.40008" lon="1.12414">
        <ele>298.797904</ele>
        <time>2022-08-01T10:01:48.459Z</time>
      </trkpt>
      <trkpt lat="44.4001" lon="1.12392">
        <ele>298.629142</ele>
        <time>2022-08-01T10:01:50.476Z</time>
      </trkpt>
      <trkpt lat="44.40011" lon="1.1237">
        <ele>298.358771</ele>
        <time>2022-08-01T10:01:52.457Z</time>
      </trkpt>
      <trkpt lat="44.40011" lon="1.12348">
        <ele>298.094274</ele>
        <time>2022-08-01T10:01:54.468Z</time>
      </trkpt>
      <trkpt lat="44.40011" lon="1.12328">
        <ele>297.838428</ele>
        <time>2022-08-01T10:01:56.467Z</time>
      </trkpt>
      <trkpt lat="44.40012" lon="1.12306">
        <ele>297.570788</ele>
        <time>2022-08-01T10:01:58.473Z</time>
      </trkpt>
      <trkpt lat="44.40013" lon="1.12286">
        <ele>297.315897</ele>
        <time>2022-08-01T10:02:00.502Z</time>
      </trkpt>
      <trkpt lat="44.40013" lon="1.12264">
        <ele>297.052499</ele>
        <time>2022-08-01T10:02:02.489Z</time>
      </trkpt>
      <trkpt lat="44.40015" lon="1.12243">
        <ele>296.789199</ele>
        <time>2022-08-01T10:02:04.477Z</time>
      </trkpt>
      <trkpt lat="44.40015" lon="1.1222">
        <ele>296.506169</ele>
        <time>2022-08-01T10:02:06.514Z</time>
      </trkpt>
      <trkpt lat="44.40015" lon="1.12198">
        <ele>296.23536</ele>
        <time>2022-08-01T10:02:08.477Z</time>
      </trkpt>
      <trkpt lat="44.40017" lon="1.12177">
        <ele>295.968532</ele>
        <time>2022-08-01T10:02:10.470Z</time>
      </trkpt>
      <trkpt lat="44.40018" lon="1.12155">
        <ele>295.701703</ele>
        <time>2022-08-01T10:02:12.494Z</time>
      </trkpt>
      <trkpt lat="44.40019" lon="1.12132">
        <ele>295.538291</ele>
        <time>2022-08-01T10:02:14.485Z</time>
      </trkpt>
      <trkpt lat="44.40018" lon="1.12109">
        <ele>295.457165</ele>
        <time>2022-08-01T10:02:16.479Z</time>
      </trkpt>
      <trkpt lat="44.40019" lon="1.12087">
        <ele>295.37931</ele>
        <time>2022-08-01T10:02:18.506Z</time>
      </trkpt>
      <trkpt lat="44.40024" lon="1.12064">
        <ele>295.297775</ele>
        <time>2022-08-01T10:02:20.488Z</time>
      </trkpt>
      <trkpt lat="44.4003" lon="1.12045">
        <ele>295.225365</ele>
        <time>2022-08-01T10:02:22.477Z</time>
      </trkpt>
      <trkpt lat="44.40035" lon="1.12025">
        <ele>295.149823</ele>
        <time>2022-08-01T10:02:24.503Z</time>
      </trkpt>
      <trkpt lat="44.40041" lon="1.12006">
        <ele>295.077138</ele>
        <time>2022-08-01T10:02:26.472Z</time>
      </trkpt>
      <trkpt lat="44.40048" lon="1.11988">
        <ele>295.006733</ele>
        <time>2022-08-01T10:02:28.482Z</time>
      </trkpt>
      <trkpt lat="44.40054" lon="1.1197">
        <ele>294.937417</ele>
        <time>2022-08-01T10:02:30.510Z</time>
      </trkpt>
      <trkpt lat="44.4006" lon="1.11954">
        <ele>294.875042</ele>
        <time>2022-08-01T10:02:32.478Z</time>
      </trkpt>
      <trkpt lat="44.40064" lon="1.1194">
        <ele>294.820026</ele>
        <time>2022-08-01T10:02:34.458Z</time>
      </trkpt>
      <trkpt lat="44.40069" lon="1.11924">
        <ele>294.760175</ele>
        <time>2022-08-01T10:02:36.501Z</time>
      </trkpt>
      <trkpt lat="44.40075" lon="1.1191">
        <ele>294.701878</ele>
        <time>2022-08-01T10:02:38.467Z</time>
      </trkpt>
      <trkpt lat="44.40082" lon="1.11895">
        <ele>294.640003</ele>
        <time>2022-08-01T10:02:40.463Z</time>
      </trkpt>
      <trkpt lat="44.40088" lon="1.1188">
        <ele>294.579362</ele>
        <time>2022-08-01T10:02:42.514Z</time>
      </trkpt>
      <trkpt lat="44.40094" lon="1.11865">
        <ele>294.520195</ele>
        <time>2022-08-01T10:02:44.463Z</time>
      </trkpt>
      <trkpt lat="44.40099" lon="1.11853">
        <ele>294.468534</ele>
        <time>2022-08-01T10:02:46.473Z</time>
      </trkpt>
      <trkpt lat="44.40104" lon="1.11839">
        <ele>294.414521</ele>
        <time>2022-08-01T10:02:48.462Z</time>
      </trkpt>
      <trkpt lat="44.4011" lon="1.11826">
        <ele>294.360884</ele>
        <time>2022-08-01T10:02:50.453Z</time>
      </trkpt>
      <trkpt lat="44.40116" lon="1.11814">
        <ele>294.307339</ele>
        <time>2022-08-01T10:02:52.459Z</time>
      </trkpt>
      <trkpt lat="44.40121" lon="1.11802">
        <ele>294.257598</ele>
        <time>2022-08-01T10:02:54.467Z</time>
      </trkpt>
      <trkpt lat="44.40127" lon="1.1179">
        <ele>294.208913</ele>
        <time>2022-08-01T10:02:56.473Z</time>
      </trkpt>
      <trkpt lat="44.40133" lon="1.11778">
        <ele>294.156514</ele>
        <time>2022-08-01T10:02:58.478Z</time>
      </trkpt>
      <trkpt lat="44.4014" lon="1.11765">
        <ele>294.099533</ele>
        <time>2022-08-01T10:03:00.465Z</time>
      </trkpt>
      <trkpt lat="44.40147" lon="1.11752">
        <ele>294.04167</ele>
        <time>2022-08-01T10:03:02.460Z</time>
      </trkpt>
      <trkpt lat="44.40153" lon="1.11739">
        <ele>293.98725</ele>
        <time>2022-08-01T10:03:04.479Z</time>
      </trkpt>
      <trkpt lat="44.4016" lon="1.11725">
        <ele>293.927405</ele>
        <time>2022-08-01T10:03:06.463Z</time>
      </trkpt>
      <trkpt lat="44.40168" lon="1.1171">
        <ele>293.863265</ele>
        <time>2022-08-01T10:03:08.474Z</time>
      </trkpt>
      <trkpt lat="44.40177" lon="1.11696">
        <ele>293.722682</ele>
        <time>2022-08-01T10:03:10.463Z</time>
      </trkpt>
      <trkpt lat="44.40186" lon="1.11683">
        <ele>293.471713</ele>
        <time>2022-08-01T10:03:12.476Z</time>
      </trkpt>
      <trkpt lat="44.40196" lon="1.1167">
        <ele>293.209059</ele>
        <time>2022-08-01T10:03:14.482Z</time>
      </trkpt>
      <trkpt lat="44.40207" lon="1.11658">
        <ele>292.946094</ele>
        <time>2022-08-01T10:03:16.473Z</time>
      </trkpt>
      <trkpt lat="44.40218" lon="1.11646">
        <ele>292.67963</ele>
        <time>2022-08-01T10:03:18.491Z</time>
      </trkpt>
      <trkpt lat="44.40228" lon="1.11634">
        <ele>292.41644</ele>
        <time>2022-08-01T10:03:20.474Z</time>
      </trkpt>
      <trkpt lat="44.40239" lon="1.1162">
        <ele>292.138049</ele>
        <time>2022-08-01T10:03:22.470Z</time>
      </trkpt>
      <trkpt lat="44.40249" lon="1.11606">
        <ele>291.854322</ele>
        <time>2022-08-01T10:03:24.479Z</time>
      </trkpt>
      <trkpt lat="44.40261" lon="1.11591">
        <ele>291.554152</ele>
        <time>2022-08-01T10:03:26.490Z</time>
      </trkpt>
      <trkpt lat="44.40273" lon="1.11576">
        <ele>291.244621</ele>
        <time>2022-08-01T10:03:28.476Z</time>
      </trkpt>
      <trkpt lat="44.40285" lon="1.11561">
        <ele>290.93126</ele>
        <time>2022-08-01T10:03:30.477Z</time>
      </trkpt>
      <trkpt lat="44.40296" lon="1.11547">
        <ele>290.64186</ele>
        <time>2022-08-01T10:03:32.481Z</time>
      </trkpt>
      <trkpt lat="44.40307" lon="1.11535">
        <ele>290.380094</ele>
        <time>2022-08-01T10:03:34.490Z</time>
      </trkpt>
      <trkpt lat="44.40317" lon="1.11522">
        <ele>290.359829</ele>
        <time>2022-08-01T10:03:36.473Z</time>
      </trkpt>
      <trkpt lat="44.40328" lon="1.11508">
        <ele>290.359829</ele>
        <time>2022-08-01T10:03:38.475Z</time>
      </trkpt>
      <trkpt lat="44.40339" lon="1.11496">
        <ele>290.359829</ele>
        <time>2022-08-01T10:03:40.472Z</time>
      </trkpt>
      <trkpt lat="44.40349" lon="1.11483">
        <ele>290.359829</ele>
        <time>2022-08-01T10:03:42.470Z</time>
      </trkpt>
      <trkpt lat="44.40359" lon="1.11471">
        <ele>290.359829</ele>
        <time>2022-08-01T10:03:44.483Z</time>
      </trkpt>
      <trkpt lat="44.40369" lon="1.1146">
        <ele>290.359829</ele>
        <time>2022-08-01T10:03:46.487Z</time>
      </trkpt>
      <trkpt lat="44.40378" lon="1.11448">
        <ele>290.359829</ele>
        <time>2022-08-01T10:03:48.503Z</time>
      </trkpt>
      <trkpt lat="44.40386" lon="1.11437">
        <ele>290.359829</ele>
        <time>2022-08-01T10:03:50.472Z</time>
      </trkpt>
      <trkpt lat="44.40395" lon="1.11426">
        <ele>290.359829</ele>
        <time>2022-08-01T10:03:52.456Z</time>
      </trkpt>
      <trkpt lat="44.40403" lon="1.11415">
        <ele>290.359829</ele>
        <time>2022-08-01T10:03:54.491Z</time>
      </trkpt>
      <trkpt lat="44.40411" lon="1.11405">
        <ele>290.359829</ele>
        <time>2022-08-01T10:03:56.472Z</time>
      </trkpt>
      <trkpt lat="44.40417" lon="1.11395">
        <ele>290.359829</ele>
        <time>2022-08-01T10:03:58.481Z</time>
      </trkpt>
      <trkpt lat="44.40423" lon="1.11384">
        <ele>290.359829</ele>
        <time>2022-08-01T10:04:00.459Z</time>
      </trkpt>
      <trkpt lat="44.40431" lon="1.11371">
        <ele>290.359829</ele>
        <time>2022-08-01T10:04:03.460Z</time>
      </trkpt>
      <trkpt lat="44.40438" lon="1.11361">
        <ele>290.359829</ele>
        <time>2022-08-01T10:04:06.488Z</time>
      </trkpt>
      <trkpt lat="44.40445" lon="1.11354">
        <ele>290.359829</ele>
        <time>2022-08-01T10:04:17.439Z</time>
      </trkpt>
      <trkpt lat="44.40446" lon="1.11354">
        <ele>290.359829</ele>
        <time>2022-08-01T10:04:23.681Z</time>
      </trkpt>
    </trkseg>
  </trk>
</gpx>